﻿<?xml version="1.0" encoding="utf-8"?><gpx creator="Garmin Desktop App" version="1.1" xsi:schemaLocation="http://www.topografix.com/GPX/1/1 http://www.topografix.com/GPX/1/1/gpx.xsd http://www.garmin.com/xmlschemas/WaypointExtension/v1 http://www8.garmin.com/xmlschemas/WaypointExtensionv1.xsd http://www.garmin.com/xmlschemas/TrackPointExtension/v1 http://www.garmin.com/xmlschemas/TrackPointExtensionv1.xsd http://www.garmin.com/xmlschemas/GpxExtensions/v3 http://www8.garmin.com/xmlschemas/GpxExtensionsv3.xsd http://www.garmin.com/xmlschemas/ActivityExtension/v1 http://www8.garmin.com/xmlschemas/ActivityExtensionv1.xsd http://www.garmin.com/xmlschemas/AdventuresExtensions/v1 http://www8.garmin.com/xmlschemas/AdventuresExtensionv1.xsd http://www.garmin.com/xmlschemas/PressureExtension/v1 http://www.garmin.com/xmlschemas/PressureExtensionv1.xsd http://www.garmin.com/xmlschemas/TripExtensions/v1 http://www.garmin.com/xmlschemas/TripExtensionsv1.xsd http://www.garmin.com/xmlschemas/TripMetaDataExtensions/v1 http://www.garmin.com/xmlschemas/TripMetaDataExtensionsv1.xsd http://www.garmin.com/xmlschemas/ViaPointTransportationModeExtensions/v1 http://www.garmin.com/xmlschemas/ViaPointTransportationModeExtensionsv1.xsd http://www.garmin.com/xmlschemas/CreationTimeExtension/v1 http://www.garmin.com/xmlschemas/CreationTimeExtensionsv1.xsd http://www.garmin.com/xmlschemas/AccelerationExtension/v1 http://www.garmin.com/xmlschemas/AccelerationExtensionv1.xsd http://www.garmin.com/xmlschemas/PowerExtension/v1 http://www.garmin.com/xmlschemas/PowerExtensionv1.xsd http://www.garmin.com/xmlschemas/VideoExtension/v1 http://www.garmin.com/xmlschemas/VideoExtensionv1.xsd" xmlns="http://www.topografix.com/GPX/1/1" xmlns:xsi="http://www.w3.org/2001/XMLSchema-instance" xmlns:wptx1="http://www.garmin.com/xmlschemas/WaypointExtension/v1" xmlns:gpxtrx="http://www.garmin.com/xmlschemas/GpxExtensions/v3" xmlns:gpxtpx="http://www.garmin.com/xmlschemas/TrackPointExtension/v1" xmlns:gpxx="http://www.garmin.com/xmlschemas/GpxExtensions/v3" xmlns:trp="http://www.garmin.com/xmlschemas/TripExtensions/v1" xmlns:adv="http://www.garmin.com/xmlschemas/AdventuresExtensions/v1" xmlns:prs="http://www.garmin.com/xmlschemas/PressureExtension/v1" xmlns:tmd="http://www.garmin.com/xmlschemas/TripMetaDataExtensions/v1" xmlns:vptm="http://www.garmin.com/xmlschemas/ViaPointTransportationModeExtensions/v1" xmlns:ctx="http://www.garmin.com/xmlschemas/CreationTimeExtension/v1" xmlns:gpxacc="http://www.garmin.com/xmlschemas/AccelerationExtension/v1" xmlns:gpxpx="http://www.garmin.com/xmlschemas/PowerExtension/v1" xmlns:vidx1="http://www.garmin.com/xmlschemas/VideoExtension/v1">

  <metadata>
    <link href="http://www.garmin.com">
      <text>Garmin International</text>
    </link>
    <time>2023-08-28T18:03:24Z</time>
    <bounds maxlat="57.485884968191385" maxlon="-4.22042403370142" minlat="56.807085005566478" minlon="-6.289480989798904" />
  </metadata>

  <trk>
    <name>Track 230828</name>
    <extensions>
      <gpxx:TrackExtension>
        <gpxx:DisplayColor>DarkGray</gpxx:DisplayColor>
      </gpxx:TrackExtension>
    </extensions>
    <trkseg>
      <trkpt lat="57.435022993013263" lon="-6.289480989798904">
        <ele>53.969999999999999</ele>
        <time>2023-08-28T07:48:58Z</time>
      </trkpt>
      <trkpt lat="57.434921991080046" lon="-6.289348974823952">
        <ele>66.469999999999999</ele>
        <time>2023-08-28T07:49:35Z</time>
      </trkpt>
      <trkpt lat="57.434895001351833" lon="-6.289445031434298">
        <ele>57.82</ele>
        <time>2023-08-28T07:50:08Z</time>
      </trkpt>
      <trkpt lat="57.434945963323116" lon="-6.289358027279377">
        <ele>64.069999999999993</ele>
        <time>2023-08-28T07:50:49Z</time>
      </trkpt>
      <trkpt lat="57.434945041313767" lon="-6.289357021450996">
        <ele>64.069999999999993</ele>
        <time>2023-08-28T07:51:29Z</time>
      </trkpt>
      <trkpt lat="57.434957027435303" lon="-6.289290972054005">
        <ele>64.069999999999993</ele>
        <time>2023-08-28T07:51:50Z</time>
      </trkpt>
      <trkpt lat="57.434899024665356" lon="-6.289034988731146">
        <ele>62.140000000000001</ele>
        <time>2023-08-28T07:51:55Z</time>
      </trkpt>
      <trkpt lat="57.434721998870373" lon="-6.288321018218994">
        <ele>58.299999999999997</ele>
        <time>2023-08-28T07:52:03Z</time>
      </trkpt>
      <trkpt lat="57.434721998870373" lon="-6.288321018218994">
        <ele>58.299999999999997</ele>
        <time>2023-08-28T07:52:04Z</time>
      </trkpt>
      <trkpt lat="57.434712024405599" lon="-6.288309032097459">
        <ele>57.82</ele>
        <time>2023-08-28T07:52:05Z</time>
      </trkpt>
      <trkpt lat="57.434593001380563" lon="-6.288149021565914">
        <ele>57.340000000000003</ele>
        <time>2023-08-28T07:52:08Z</time>
      </trkpt>
      <trkpt lat="57.434495016932487" lon="-6.287489030510187">
        <ele>60.700000000000003</ele>
        <time>2023-08-28T07:52:14Z</time>
      </trkpt>
      <trkpt lat="57.434469033032656" lon="-6.287318961694837">
        <ele>60.700000000000003</ele>
        <time>2023-08-28T07:52:15Z</time>
      </trkpt>
      <trkpt lat="57.434023031964898" lon="-6.28530696965754">
        <ele>64.549999999999997</ele>
        <time>2023-08-28T07:52:26Z</time>
      </trkpt>
      <trkpt lat="57.433934016153216" lon="-6.283125998452306">
        <ele>70.310000000000002</ele>
        <time>2023-08-28T07:52:36Z</time>
      </trkpt>
      <trkpt lat="57.433739975094795" lon="-6.280503971502185">
        <ele>72.719999999999999</ele>
        <time>2023-08-28T07:52:47Z</time>
      </trkpt>
      <trkpt lat="57.433692030608654" lon="-6.280354019254446">
        <ele>72.239999999999995</ele>
        <time>2023-08-28T07:52:48Z</time>
      </trkpt>
      <trkpt lat="57.433622963726521" lon="-6.280207000672817">
        <ele>72.719999999999999</ele>
        <time>2023-08-28T07:52:49Z</time>
      </trkpt>
      <trkpt lat="57.433553980663419" lon="-6.280058976262808">
        <ele>72.239999999999995</ele>
        <time>2023-08-28T07:52:50Z</time>
      </trkpt>
      <trkpt lat="57.433479968458414" lon="-6.279897959902883">
        <ele>72.239999999999995</ele>
        <time>2023-08-28T07:52:51Z</time>
      </trkpt>
      <trkpt lat="57.433014018461108" lon="-6.278776964172721">
        <ele>69.829999999999998</ele>
        <time>2023-08-28T07:52:57Z</time>
      </trkpt>
      <trkpt lat="57.432380011305213" lon="-6.277156993746758">
        <ele>67.430000000000007</ele>
        <time>2023-08-28T07:53:06Z</time>
      </trkpt>
      <trkpt lat="57.431455990299582" lon="-6.275545991957188">
        <ele>63.100000000000001</ele>
        <time>2023-08-28T07:53:18Z</time>
      </trkpt>
      <trkpt lat="57.430592989549041" lon="-6.274919025599957">
        <ele>63.579999999999998</ele>
        <time>2023-08-28T07:53:26Z</time>
      </trkpt>
      <trkpt lat="57.430064007639885" lon="-6.274544019252062">
        <ele>65.510000000000005</ele>
        <time>2023-08-28T07:53:31Z</time>
      </trkpt>
      <trkpt lat="57.429059017449617" lon="-6.273329984396696">
        <ele>71.269999999999996</ele>
        <time>2023-08-28T07:53:41Z</time>
      </trkpt>
      <trkpt lat="57.427797960117459" lon="-6.271658968180418">
        <ele>78.480000000000004</ele>
        <time>2023-08-28T07:53:52Z</time>
      </trkpt>
      <trkpt lat="57.426869999617338" lon="-6.270553981885314">
        <ele>79.450000000000003</ele>
        <time>2023-08-28T07:54:01Z</time>
      </trkpt>
      <trkpt lat="57.426630025729537" lon="-6.270258016884327">
        <ele>79.930000000000007</ele>
        <time>2023-08-28T07:54:04Z</time>
      </trkpt>
      <trkpt lat="57.426091991364956" lon="-6.269424017518759">
        <ele>82.810000000000002</ele>
        <time>2023-08-28T07:54:12Z</time>
      </trkpt>
      <trkpt lat="57.426000041887164" lon="-6.269343970343471">
        <ele>83.290000000000006</ele>
        <time>2023-08-28T07:54:13Z</time>
      </trkpt>
      <trkpt lat="57.425351031124592" lon="-6.268938034772873">
        <ele>84.730000000000004</ele>
        <time>2023-08-28T07:54:19Z</time>
      </trkpt>
      <trkpt lat="57.424987005069852" lon="-6.268735025078058">
        <ele>85.689999999999998</ele>
        <time>2023-08-28T07:54:25Z</time>
      </trkpt>
      <trkpt lat="57.424966972321272" lon="-6.268720021471381">
        <ele>86.180000000000007</ele>
        <time>2023-08-28T07:54:26Z</time>
      </trkpt>
      <trkpt lat="57.424948029220104" lon="-6.268705017864704">
        <ele>86.180000000000007</ele>
        <time>2023-08-28T07:54:27Z</time>
      </trkpt>
      <trkpt lat="57.424921961501241" lon="-6.268684985116124">
        <ele>86.659999999999997</ele>
        <time>2023-08-28T07:54:28Z</time>
      </trkpt>
      <trkpt lat="57.424889020621777" lon="-6.268659001216292">
        <ele>86.659999999999997</ele>
        <time>2023-08-28T07:54:29Z</time>
      </trkpt>
      <trkpt lat="57.424844009801745" lon="-6.268623964861035">
        <ele>87.140000000000001</ele>
        <time>2023-08-28T07:54:30Z</time>
      </trkpt>
      <trkpt lat="57.424785001203418" lon="-6.268577026203275">
        <ele>87.620000000000005</ele>
        <time>2023-08-28T07:54:31Z</time>
      </trkpt>
      <trkpt lat="57.424710988998413" lon="-6.268519023433328">
        <ele>87.620000000000005</ele>
        <time>2023-08-28T07:54:32Z</time>
      </trkpt>
      <trkpt lat="57.424633037298918" lon="-6.268427995964885">
        <ele>88.099999999999994</ele>
        <time>2023-08-28T07:54:33Z</time>
      </trkpt>
      <trkpt lat="57.424558019265532" lon="-6.268320037052035">
        <ele>88.579999999999998</ele>
        <time>2023-08-28T07:54:34Z</time>
      </trkpt>
      <trkpt lat="57.423948990181088" lon="-6.267353016883135">
        <ele>90.980000000000004</ele>
        <time>2023-08-28T07:54:42Z</time>
      </trkpt>
      <trkpt lat="57.423281036317348" lon="-6.266133030876517">
        <ele>91.939999999999998</ele>
        <time>2023-08-28T07:54:50Z</time>
      </trkpt>
      <trkpt lat="57.422496993094683" lon="-6.264609033241868">
        <ele>92.420000000000002</ele>
        <time>2023-08-28T07:54:59Z</time>
      </trkpt>
      <trkpt lat="57.422434967011213" lon="-6.264426978304982">
        <ele>92.900000000000006</ele>
        <time>2023-08-28T07:55:00Z</time>
      </trkpt>
      <trkpt lat="57.422379981726408" lon="-6.264235032722354">
        <ele>93.390000000000001</ele>
        <time>2023-08-28T07:55:01Z</time>
      </trkpt>
      <trkpt lat="57.421912020072341" lon="-6.262595029547811">
        <ele>92.420000000000002</ele>
        <time>2023-08-28T07:55:09Z</time>
      </trkpt>
      <trkpt lat="57.421845970675349" lon="-6.262409035116434">
        <ele>92.420000000000002</ele>
        <time>2023-08-28T07:55:10Z</time>
      </trkpt>
      <trkpt lat="57.421754021197557" lon="-6.262266961857677">
        <ele>91.939999999999998</ele>
        <time>2023-08-28T07:55:11Z</time>
      </trkpt>
      <trkpt lat="57.421654025092721" lon="-6.262114997953177">
        <ele>91.459999999999994</ele>
        <time>2023-08-28T07:55:12Z</time>
      </trkpt>
      <trkpt lat="57.421552017331123" lon="-6.261956999078393">
        <ele>90.980000000000004</ele>
        <time>2023-08-28T07:55:13Z</time>
      </trkpt>
      <trkpt lat="57.420752970501781" lon="-6.26042596064508">
        <ele>87.140000000000001</ele>
        <time>2023-08-28T07:55:22Z</time>
      </trkpt>
      <trkpt lat="57.420713994652033" lon="-6.260186992585659">
        <ele>87.620000000000005</ele>
        <time>2023-08-28T07:55:23Z</time>
      </trkpt>
      <trkpt lat="57.420682981610298" lon="-6.259988006204367">
        <ele>87.620000000000005</ele>
        <time>2023-08-28T07:55:24Z</time>
      </trkpt>
      <trkpt lat="57.420670995488763" lon="-6.259775022044778">
        <ele>88.099999999999994</ele>
        <time>2023-08-28T07:55:25Z</time>
      </trkpt>
      <trkpt lat="57.420679964125156" lon="-6.259545022621751">
        <ele>88.099999999999994</ele>
        <time>2023-08-28T07:55:26Z</time>
      </trkpt>
      <trkpt lat="57.420688010752201" lon="-6.259309994056821">
        <ele>88.099999999999994</ele>
        <time>2023-08-28T07:55:27Z</time>
      </trkpt>
      <trkpt lat="57.420722963288426" lon="-6.259067002683878">
        <ele>87.620000000000005</ele>
        <time>2023-08-28T07:55:28Z</time>
      </trkpt>
      <trkpt lat="57.420757999643683" lon="-6.25881596468389">
        <ele>87.140000000000001</ele>
        <time>2023-08-28T07:55:29Z</time>
      </trkpt>
      <trkpt lat="57.420990010723472" lon="-6.256030993536115">
        <ele>88.099999999999994</ele>
        <time>2023-08-28T07:55:40Z</time>
      </trkpt>
      <trkpt lat="57.421098975464702" lon="-6.253393040969968">
        <ele>92.900000000000006</ele>
        <time>2023-08-28T07:55:50Z</time>
      </trkpt>
      <trkpt lat="57.421111967414618" lon="-6.25142497010529">
        <ele>94.349999999999994</ele>
        <time>2023-08-28T07:55:58Z</time>
      </trkpt>
      <trkpt lat="57.421182040125132" lon="-6.248924983665347">
        <ele>87.140000000000001</ele>
        <time>2023-08-28T07:56:07Z</time>
      </trkpt>
      <trkpt lat="57.421182040125132" lon="-6.248924983665347">
        <ele>86.659999999999997</ele>
        <time>2023-08-28T07:56:08Z</time>
      </trkpt>
      <trkpt lat="57.421144992113113" lon="-6.248494992032647">
        <ele>86.180000000000007</ele>
        <time>2023-08-28T07:56:09Z</time>
      </trkpt>
      <trkpt lat="57.421124959364533" lon="-6.248259963467717">
        <ele>85.209999999999994</ele>
        <time>2023-08-28T07:56:10Z</time>
      </trkpt>
      <trkpt lat="57.420910969376564" lon="-6.245754025876522">
        <ele>79.930000000000007</ele>
        <time>2023-08-28T07:56:19Z</time>
      </trkpt>
      <trkpt lat="57.420618021860719" lon="-6.243935991078615">
        <ele>76.079999999999998</ele>
        <time>2023-08-28T07:56:26Z</time>
      </trkpt>
      <trkpt lat="57.420027013868093" lon="-6.241806987673044">
        <ele>74.159999999999997</ele>
        <time>2023-08-28T07:56:35Z</time>
      </trkpt>
      <trkpt lat="57.419567015022039" lon="-6.24029397033155">
        <ele>73.200000000000003</ele>
        <time>2023-08-28T07:56:42Z</time>
      </trkpt>
      <trkpt lat="57.41873100399971" lon="-6.238085003569722">
        <ele>71.269999999999996</ele>
        <time>2023-08-28T07:56:52Z</time>
      </trkpt>
      <trkpt lat="57.418654980137944" lon="-6.237835977226496">
        <ele>70.310000000000002</ele>
        <time>2023-08-28T07:56:53Z</time>
      </trkpt>
      <trkpt lat="57.418584991246462" lon="-6.237604971975088">
        <ele>69.349999999999994</ele>
        <time>2023-08-28T07:56:54Z</time>
      </trkpt>
      <trkpt lat="57.418075036257505" lon="-6.235511004924774">
        <ele>60.219999999999999</ele>
        <time>2023-08-28T07:57:03Z</time>
      </trkpt>
      <trkpt lat="57.417455026879907" lon="-6.231918018311262">
        <ele>61.659999999999997</ele>
        <time>2023-08-28T07:57:17Z</time>
      </trkpt>
      <trkpt lat="57.41707599721849" lon="-6.229154001921415">
        <ele>69.349999999999994</ele>
        <time>2023-08-28T07:57:28Z</time>
      </trkpt>
      <trkpt lat="57.416738038882613" lon="-6.226932965219021">
        <ele>72.239999999999995</ele>
        <time>2023-08-28T07:57:37Z</time>
      </trkpt>
      <trkpt lat="57.416283991187811" lon="-6.224260982125998">
        <ele>71.269999999999996</ele>
        <time>2023-08-28T07:57:48Z</time>
      </trkpt>
      <trkpt lat="57.415885012596846" lon="-6.221693018451333">
        <ele>66.950000000000003</ele>
        <time>2023-08-28T07:57:58Z</time>
      </trkpt>
      <trkpt lat="57.415166012942791" lon="-6.218728004023433">
        <ele>66.469999999999999</ele>
        <time>2023-08-28T07:58:10Z</time>
      </trkpt>
      <trkpt lat="57.415047995746136" lon="-6.218257024884224">
        <ele>66.469999999999999</ele>
        <time>2023-08-28T07:58:12Z</time>
      </trkpt>
      <trkpt lat="57.415009019896388" lon="-6.218015039339662">
        <ele>66.469999999999999</ele>
        <time>2023-08-28T07:58:14Z</time>
      </trkpt>
      <trkpt lat="57.414888991042972" lon="-6.216787006705999">
        <ele>65.510000000000005</ele>
        <time>2023-08-28T07:58:18Z</time>
      </trkpt>
      <trkpt lat="57.414867030456662" lon="-6.216572010889649">
        <ele>65.510000000000005</ele>
        <time>2023-08-28T07:58:19Z</time>
      </trkpt>
      <trkpt lat="57.414795029908419" lon="-6.216404959559441">
        <ele>65.030000000000001</ele>
        <time>2023-08-28T07:58:20Z</time>
      </trkpt>
      <trkpt lat="57.414718000218272" lon="-6.216223994269967">
        <ele>64.549999999999997</ele>
        <time>2023-08-28T07:58:21Z</time>
      </trkpt>
      <trkpt lat="57.414634013548493" lon="-6.216026013717055">
        <ele>63.579999999999998</ele>
        <time>2023-08-28T07:58:22Z</time>
      </trkpt>
      <trkpt lat="57.41402599029243" lon="-6.21444602496922">
        <ele>57.82</ele>
        <time>2023-08-28T07:58:30Z</time>
      </trkpt>
      <trkpt lat="57.413748968392611" lon="-6.213213969022036">
        <ele>53.969999999999999</ele>
        <time>2023-08-28T07:58:37Z</time>
      </trkpt>
      <trkpt lat="57.413656013086438" lon="-6.212433027103543">
        <ele>50.609999999999999</ele>
        <time>2023-08-28T07:58:41Z</time>
      </trkpt>
      <trkpt lat="57.413667999207973" lon="-6.21223202906549">
        <ele>50.130000000000003</ele>
        <time>2023-08-28T07:58:42Z</time>
      </trkpt>
      <trkpt lat="57.413729019463062" lon="-6.211706986650825">
        <ele>48.68</ele>
        <time>2023-08-28T07:58:45Z</time>
      </trkpt>
      <trkpt lat="57.413747040554881" lon="-6.21154697611928">
        <ele>47.719999999999999</ele>
        <time>2023-08-28T07:58:46Z</time>
      </trkpt>
      <trkpt lat="57.413938986137509" lon="-6.210469985380769">
        <ele>47.240000000000002</ele>
        <time>2023-08-28T07:58:53Z</time>
      </trkpt>
      <trkpt lat="57.413966981694102" lon="-6.210311986505985">
        <ele>46.759999999999998</ele>
        <time>2023-08-28T07:58:54Z</time>
      </trkpt>
      <trkpt lat="57.414165968075395" lon="-6.209369022399187">
        <ele>41.950000000000003</ele>
        <time>2023-08-28T07:59:00Z</time>
      </trkpt>
      <trkpt lat="57.41432698443532" lon="-6.20886099524796">
        <ele>39.07</ele>
        <time>2023-08-28T07:59:04Z</time>
      </trkpt>
      <trkpt lat="57.414773991331458" lon="-6.207837983965874">
        <ele>27.050000000000001</ele>
        <time>2023-08-28T07:59:16Z</time>
      </trkpt>
      <trkpt lat="57.414825959131122" lon="-6.207752991467714">
        <ele>24.649999999999999</ele>
        <time>2023-08-28T07:59:25Z</time>
      </trkpt>
      <trkpt lat="57.414825959131122" lon="-6.207752991467714">
        <ele>23.210000000000001</ele>
        <time>2023-08-28T07:59:40Z</time>
      </trkpt>
      <trkpt lat="57.415016982704401" lon="-6.207445962354541">
        <ele>27.530000000000001</ele>
        <time>2023-08-28T07:59:52Z</time>
      </trkpt>
      <trkpt lat="57.415053024888039" lon="-6.207387037575245">
        <ele>27.530000000000001</ele>
        <time>2023-08-28T08:00:01Z</time>
      </trkpt>
      <trkpt lat="57.415094012394547" lon="-6.207321994006634">
        <ele>27.530000000000001</ele>
        <time>2023-08-28T08:00:06Z</time>
      </trkpt>
      <trkpt lat="57.415041960775852" lon="-6.207169024273753">
        <ele>26.57</ele>
        <time>2023-08-28T08:00:08Z</time>
      </trkpt>
      <trkpt lat="57.414994016289711" lon="-6.207085037603974">
        <ele>26.09</ele>
        <time>2023-08-28T08:00:09Z</time>
      </trkpt>
      <trkpt lat="57.414939031004906" lon="-6.206989986822009">
        <ele>25.609999999999999</ele>
        <time>2023-08-28T08:00:10Z</time>
      </trkpt>
      <trkpt lat="57.414637031033635" lon="-6.206481959670782">
        <ele>24.170000000000002</ele>
        <time>2023-08-28T08:00:15Z</time>
      </trkpt>
      <trkpt lat="57.4143470171839" lon="-6.205672016367316">
        <ele>24.170000000000002</ele>
        <time>2023-08-28T08:00:20Z</time>
      </trkpt>
      <trkpt lat="57.4143470171839" lon="-6.205672016367316">
        <ele>24.170000000000002</ele>
        <time>2023-08-28T08:00:21Z</time>
      </trkpt>
      <trkpt lat="57.413965975865722" lon="-6.203175969421864">
        <ele>24.170000000000002</ele>
        <time>2023-08-28T08:00:33Z</time>
      </trkpt>
      <trkpt lat="57.413936974480748" lon="-6.202968014404178">
        <ele>24.170000000000002</ele>
        <time>2023-08-28T08:00:34Z</time>
      </trkpt>
      <trkpt lat="57.413850976154208" lon="-6.202579010277987">
        <ele>23.210000000000001</ele>
        <time>2023-08-28T08:00:36Z</time>
      </trkpt>
      <trkpt lat="57.413786016404629" lon="-6.202383963391185">
        <ele>23.210000000000001</ele>
        <time>2023-08-28T08:00:37Z</time>
      </trkpt>
      <trkpt lat="57.413632040843368" lon="-6.202018009498715">
        <ele>22.25</ele>
        <time>2023-08-28T08:00:39Z</time>
      </trkpt>
      <trkpt lat="57.413563979789615" lon="-6.201867973431945">
        <ele>21.77</ele>
        <time>2023-08-28T08:00:40Z</time>
      </trkpt>
      <trkpt lat="57.413445962592959" lon="-6.201690025627613">
        <ele>20.809999999999999</ele>
        <time>2023-08-28T08:00:41Z</time>
      </trkpt>
      <trkpt lat="57.413344038650393" lon="-6.201537977904081">
        <ele>19.84</ele>
        <time>2023-08-28T08:00:42Z</time>
      </trkpt>
      <trkpt lat="57.413253011181951" lon="-6.201400011777878">
        <ele>18.399999999999999</ele>
        <time>2023-08-28T08:00:43Z</time>
      </trkpt>
      <trkpt lat="57.413029968738556" lon="-6.200987035408616">
        <ele>14.56</ele>
        <time>2023-08-28T08:00:47Z</time>
      </trkpt>
      <trkpt lat="57.413004990667105" lon="-6.200930960476399">
        <ele>13.6</ele>
        <time>2023-08-28T08:00:48Z</time>
      </trkpt>
      <trkpt lat="57.412964003160596" lon="-6.200838005170226">
        <ele>13.119999999999999</ele>
        <time>2023-08-28T08:00:49Z</time>
      </trkpt>
      <trkpt lat="57.412961991503835" lon="-6.200835993513465">
        <ele>10.710000000000001</ele>
        <time>2023-08-28T08:00:57Z</time>
      </trkpt>
      <trkpt lat="57.412931984290481" lon="-6.200790982693434">
        <ele>9.75</ele>
        <time>2023-08-28T08:00:58Z</time>
      </trkpt>
      <trkpt lat="57.412868030369282" lon="-6.200818978250027">
        <ele>9.27</ele>
        <time>2023-08-28T08:00:59Z</time>
      </trkpt>
      <trkpt lat="57.412806004285812" lon="-6.200872035697103">
        <ele>9.27</ele>
        <time>2023-08-28T08:01:00Z</time>
      </trkpt>
      <trkpt lat="57.412654040381312" lon="-6.201002039015293">
        <ele>9.27</ele>
        <time>2023-08-28T08:01:02Z</time>
      </trkpt>
      <trkpt lat="57.412552032619715" lon="-6.201037997379899">
        <ele>9.27</ele>
        <time>2023-08-28T08:01:03Z</time>
      </trkpt>
      <trkpt lat="57.412446001544595" lon="-6.201047971844673">
        <ele>9.75</ele>
        <time>2023-08-28T08:01:04Z</time>
      </trkpt>
      <trkpt lat="57.41166296415031" lon="-6.201229020953178">
        <ele>13.6</ele>
        <time>2023-08-28T08:01:13Z</time>
      </trkpt>
      <trkpt lat="57.411014037206769" lon="-6.20157603174448">
        <ele>14.56</ele>
        <time>2023-08-28T08:01:20Z</time>
      </trkpt>
      <trkpt lat="57.410901971161366" lon="-6.201639985665679">
        <ele>15.039999999999999</ele>
        <time>2023-08-28T08:01:21Z</time>
      </trkpt>
      <trkpt lat="57.410785965621471" lon="-6.201707040891051">
        <ele>15.039999999999999</ele>
        <time>2023-08-28T08:01:22Z</time>
      </trkpt>
      <trkpt lat="57.409860016778111" lon="-6.202181037515402">
        <ele>21.289999999999999</ele>
        <time>2023-08-28T08:01:32Z</time>
      </trkpt>
      <trkpt lat="57.40953697822988" lon="-6.202267035841942">
        <ele>22.25</ele>
        <time>2023-08-28T08:01:35Z</time>
      </trkpt>
      <trkpt lat="57.408670037984848" lon="-6.202015997841954">
        <ele>24.649999999999999</ele>
        <time>2023-08-28T08:01:43Z</time>
      </trkpt>
      <trkpt lat="57.407647026702762" lon="-6.201582988724113">
        <ele>24.649999999999999</ele>
        <time>2023-08-28T08:01:52Z</time>
      </trkpt>
      <trkpt lat="57.406484037637711" lon="-6.201270008459687">
        <ele>21.289999999999999</ele>
        <time>2023-08-28T08:02:03Z</time>
      </trkpt>
      <trkpt lat="57.405291963368654" lon="-6.200847979635">
        <ele>22.73</ele>
        <time>2023-08-28T08:02:14Z</time>
      </trkpt>
      <trkpt lat="57.404068037867546" lon="-6.200536005198956">
        <ele>22.73</ele>
        <time>2023-08-28T08:02:25Z</time>
      </trkpt>
      <trkpt lat="57.402667002752423" lon="-6.200412958860397">
        <ele>25.129999999999999</ele>
        <time>2023-08-28T08:02:37Z</time>
      </trkpt>
      <trkpt lat="57.401154991239309" lon="-6.200714036822319">
        <ele>24.170000000000002</ele>
        <time>2023-08-28T08:02:49Z</time>
      </trkpt>
      <trkpt lat="57.400762969627976" lon="-6.200789976865053">
        <ele>24.170000000000002</ele>
        <time>2023-08-28T08:02:52Z</time>
      </trkpt>
      <trkpt lat="57.400376982986927" lon="-6.200745971873403">
        <ele>23.690000000000001</ele>
        <time>2023-08-28T08:02:55Z</time>
      </trkpt>
      <trkpt lat="57.399204019457102" lon="-6.200618986040354">
        <ele>18.399999999999999</ele>
        <time>2023-08-28T08:03:03Z</time>
      </trkpt>
      <trkpt lat="57.399023976176977" lon="-6.20065201073885">
        <ele>17.440000000000001</ele>
        <time>2023-08-28T08:03:04Z</time>
      </trkpt>
      <trkpt lat="57.398849967867136" lon="-6.200743038207293">
        <ele>16.960000000000001</ele>
        <time>2023-08-28T08:03:05Z</time>
      </trkpt>
      <trkpt lat="57.398675959557295" lon="-6.200833981856704">
        <ele>16.960000000000001</ele>
        <time>2023-08-28T08:03:06Z</time>
      </trkpt>
      <trkpt lat="57.398494994267821" lon="-6.200951999053359">
        <ele>16</ele>
        <time>2023-08-28T08:03:07Z</time>
      </trkpt>
      <trkpt lat="57.398329032585025" lon="-6.201117038726807">
        <ele>15.52</ele>
        <time>2023-08-28T08:03:08Z</time>
      </trkpt>
      <trkpt lat="57.396733034402132" lon="-6.202384969219565">
        <ele>13.119999999999999</ele>
        <time>2023-08-28T08:03:17Z</time>
      </trkpt>
      <trkpt lat="57.394733028486371" lon="-6.203358024358749">
        <ele>11.67</ele>
        <time>2023-08-28T08:03:28Z</time>
      </trkpt>
      <trkpt lat="57.392784990370274" lon="-6.204412970691919">
        <ele>17.440000000000001</ele>
        <time>2023-08-28T08:03:39Z</time>
      </trkpt>
      <trkpt lat="57.390613993629813" lon="-6.205201959237456">
        <ele>21.289999999999999</ele>
        <time>2023-08-28T08:03:50Z</time>
      </trkpt>
      <trkpt lat="57.390411989763379" lon="-6.205173963680863">
        <ele>21.77</ele>
        <time>2023-08-28T08:03:51Z</time>
      </trkpt>
      <trkpt lat="57.390205962583423" lon="-6.20514596812427">
        <ele>22.25</ele>
        <time>2023-08-28T08:03:52Z</time>
      </trkpt>
      <trkpt lat="57.388206040486693" lon="-6.204310962930322">
        <ele>21.289999999999999</ele>
        <time>2023-08-28T08:04:02Z</time>
      </trkpt>
      <trkpt lat="57.386950012296438" lon="-6.203965041786432">
        <ele>21.77</ele>
        <time>2023-08-28T08:04:09Z</time>
      </trkpt>
      <trkpt lat="57.386330002918839" lon="-6.203763037919998">
        <ele>22.73</ele>
        <time>2023-08-28T08:04:12Z</time>
      </trkpt>
      <trkpt lat="57.386124981567264" lon="-6.203637979924679">
        <ele>22.73</ele>
        <time>2023-08-28T08:04:13Z</time>
      </trkpt>
      <trkpt lat="57.384141990914941" lon="-6.202315986156464">
        <ele>27.050000000000001</ele>
        <time>2023-08-28T08:04:23Z</time>
      </trkpt>
      <trkpt lat="57.382209040224552" lon="-6.201521968469024">
        <ele>23.690000000000001</ele>
        <time>2023-08-28T08:04:33Z</time>
      </trkpt>
      <trkpt lat="57.382054980844259" lon="-6.201390037313104">
        <ele>23.690000000000001</ele>
        <time>2023-08-28T08:04:34Z</time>
      </trkpt>
      <trkpt lat="57.381910979747772" lon="-6.201209994032979">
        <ele>23.690000000000001</ele>
        <time>2023-08-28T08:04:35Z</time>
      </trkpt>
      <trkpt lat="57.381762033328414" lon="-6.201023999601603">
        <ele>23.690000000000001</ele>
        <time>2023-08-28T08:04:36Z</time>
      </trkpt>
      <trkpt lat="57.380710020661354" lon="-6.199631011113524">
        <ele>22.73</ele>
        <time>2023-08-28T08:04:43Z</time>
      </trkpt>
      <trkpt lat="57.380566019564867" lon="-6.199435964226723">
        <ele>22.25</ele>
        <time>2023-08-28T08:04:44Z</time>
      </trkpt>
      <trkpt lat="57.380417995154858" lon="-6.199277965351939">
        <ele>21.77</ele>
        <time>2023-08-28T08:04:45Z</time>
      </trkpt>
      <trkpt lat="57.380256978794932" lon="-6.199176963418722">
        <ele>21.77</ele>
        <time>2023-08-28T08:04:46Z</time>
      </trkpt>
      <trkpt lat="57.380091017112136" lon="-6.199089959263802">
        <ele>21.77</ele>
        <time>2023-08-28T08:04:47Z</time>
      </trkpt>
      <trkpt lat="57.379919020459056" lon="-6.199046960100532">
        <ele>21.77</ele>
        <time>2023-08-28T08:04:48Z</time>
      </trkpt>
      <trkpt lat="57.378497030586004" lon="-6.198279010131955">
        <ele>23.690000000000001</ele>
        <time>2023-08-28T08:04:56Z</time>
      </trkpt>
      <trkpt lat="57.377664037048817" lon="-6.197275025770068">
        <ele>25.129999999999999</ele>
        <time>2023-08-28T08:05:01Z</time>
      </trkpt>
      <trkpt lat="57.377527998760343" lon="-6.197014013305306">
        <ele>25.129999999999999</ele>
        <time>2023-08-28T08:05:02Z</time>
      </trkpt>
      <trkpt lat="57.376831965520978" lon="-6.195290023460984">
        <ele>23.210000000000001</ele>
        <time>2023-08-28T08:05:09Z</time>
      </trkpt>
      <trkpt lat="57.376730041578412" lon="-6.195106962695718">
        <ele>23.210000000000001</ele>
        <time>2023-08-28T08:05:10Z</time>
      </trkpt>
      <trkpt lat="57.37661998718977" lon="-6.194943012669683">
        <ele>23.210000000000001</ele>
        <time>2023-08-28T08:05:11Z</time>
      </trkpt>
      <trkpt lat="57.376489983871579" lon="-6.194822983816266">
        <ele>23.210000000000001</ele>
        <time>2023-08-28T08:05:12Z</time>
      </trkpt>
      <trkpt lat="57.376331984996796" lon="-6.194751989096403">
        <ele>23.690000000000001</ele>
        <time>2023-08-28T08:05:13Z</time>
      </trkpt>
      <trkpt lat="57.376165017485619" lon="-6.194677976891398">
        <ele>24.170000000000002</ele>
        <time>2023-08-28T08:05:14Z</time>
      </trkpt>
      <trkpt lat="57.375986985862255" lon="-6.194664984941483">
        <ele>24.649999999999999</ele>
        <time>2023-08-28T08:05:15Z</time>
      </trkpt>
      <trkpt lat="57.375801997259259" lon="-6.194674037396908">
        <ele>25.129999999999999</ele>
        <time>2023-08-28T08:05:16Z</time>
      </trkpt>
      <trkpt lat="57.374355029314756" lon="-6.194693986326456">
        <ele>30.899999999999999</ele>
        <time>2023-08-28T08:05:24Z</time>
      </trkpt>
      <trkpt lat="57.37260296009481" lon="-6.194455018267036">
        <ele>34.259999999999998</ele>
        <time>2023-08-28T08:05:34Z</time>
      </trkpt>
      <trkpt lat="57.372033996507525" lon="-6.194287966936827">
        <ele>35.710000000000001</ele>
        <time>2023-08-28T08:05:37Z</time>
      </trkpt>
      <trkpt lat="57.37047404050827" lon="-6.194084035232663">
        <ele>40.030000000000001</ele>
        <time>2023-08-28T08:05:44Z</time>
      </trkpt>
      <trkpt lat="57.368966974318027" lon="-6.193965012207627">
        <ele>42.920000000000002</ele>
        <time>2023-08-28T08:05:50Z</time>
      </trkpt>
      <trkpt lat="57.368146972730756" lon="-6.19399300776422">
        <ele>45.799999999999997</ele>
        <time>2023-08-28T08:05:54Z</time>
      </trkpt>
      <trkpt lat="57.367971036583185" lon="-6.19388303719461">
        <ele>46.759999999999998</ele>
        <time>2023-08-28T08:05:55Z</time>
      </trkpt>
      <trkpt lat="57.367786969989538" lon="-6.193762002512813">
        <ele>47.240000000000002</ele>
        <time>2023-08-28T08:05:56Z</time>
      </trkpt>
      <trkpt lat="57.367014996707439" lon="-6.193371992558241">
        <ele>48.68</ele>
        <time>2023-08-28T08:06:00Z</time>
      </trkpt>
      <trkpt lat="57.366822967305779" lon="-6.193338967859745">
        <ele>48.68</ele>
        <time>2023-08-28T08:06:01Z</time>
      </trkpt>
      <trkpt lat="57.366635967046022" lon="-6.193307032808662">
        <ele>49.159999999999997</ele>
        <time>2023-08-28T08:06:02Z</time>
      </trkpt>
      <trkpt lat="57.366441003978252" lon="-6.193382972851396">
        <ele>49.159999999999997</ele>
        <time>2023-08-28T08:06:03Z</time>
      </trkpt>
      <trkpt lat="57.366246962919831" lon="-6.193458996713162">
        <ele>49.649999999999999</ele>
        <time>2023-08-28T08:06:04Z</time>
      </trkpt>
      <trkpt lat="57.366035990417004" lon="-6.19354298338294">
        <ele>50.130000000000003</ele>
        <time>2023-08-28T08:06:05Z</time>
      </trkpt>
      <trkpt lat="57.36585795879364" lon="-6.193662006407976">
        <ele>50.130000000000003</ele>
        <time>2023-08-28T08:06:06Z</time>
      </trkpt>
      <trkpt lat="57.363173989579082" lon="-6.195593029260635">
        <ele>51.57</ele>
        <time>2023-08-28T08:06:20Z</time>
      </trkpt>
      <trkpt lat="57.362506035715342" lon="-6.196329966187477">
        <ele>52.530000000000001</ele>
        <time>2023-08-28T08:06:24Z</time>
      </trkpt>
      <trkpt lat="57.362329009920359" lon="-6.196432979777455">
        <ele>53.009999999999998</ele>
        <time>2023-08-28T08:06:25Z</time>
      </trkpt>
      <trkpt lat="57.360497983172536" lon="-6.197398994117975">
        <ele>53.490000000000002</ele>
        <time>2023-08-28T08:06:34Z</time>
      </trkpt>
      <trkpt lat="57.359266011044383" lon="-6.197626981884241">
        <ele>55.409999999999997</ele>
        <time>2023-08-28T08:06:40Z</time>
      </trkpt>
      <trkpt lat="57.359086973592639" lon="-6.1975790373981">
        <ele>55.890000000000001</ele>
        <time>2023-08-28T08:06:41Z</time>
      </trkpt>
      <trkpt lat="57.358907014131546" lon="-6.197501001879573">
        <ele>56.369999999999997</ele>
        <time>2023-08-28T08:06:42Z</time>
      </trkpt>
      <trkpt lat="57.357516037300229" lon="-6.196972019970417">
        <ele>58.780000000000001</ele>
        <time>2023-08-28T08:06:49Z</time>
      </trkpt>
      <trkpt lat="57.355559030547738" lon="-6.196806980296969">
        <ele>62.619999999999997</ele>
        <time>2023-08-28T08:06:58Z</time>
      </trkpt>
      <trkpt lat="57.355359960347414" lon="-6.196874035522342">
        <ele>62.619999999999997</ele>
        <time>2023-08-28T08:06:59Z</time>
      </trkpt>
      <trkpt lat="57.355169020593166" lon="-6.196961039677262">
        <ele>62.619999999999997</ele>
        <time>2023-08-28T08:07:00Z</time>
      </trkpt>
      <trkpt lat="57.354991994798183" lon="-6.197100011631846">
        <ele>62.619999999999997</ele>
        <time>2023-08-28T08:07:01Z</time>
      </trkpt>
      <trkpt lat="57.354821003973484" lon="-6.197234038263559">
        <ele>63.100000000000001</ele>
        <time>2023-08-28T08:07:02Z</time>
      </trkpt>
      <trkpt lat="57.354652024805546" lon="-6.197349037975073">
        <ele>63.100000000000001</ele>
        <time>2023-08-28T08:07:03Z</time>
      </trkpt>
      <trkpt lat="57.354470975697041" lon="-6.197396982461214">
        <ele>63.579999999999998</ele>
        <time>2023-08-28T08:07:04Z</time>
      </trkpt>
      <trkpt lat="57.354294033721089" lon="-6.197395976632834">
        <ele>63.579999999999998</ele>
        <time>2023-08-28T08:07:05Z</time>
      </trkpt>
      <trkpt lat="57.354113990440965" lon="-6.197316013276577">
        <ele>64.069999999999993</ele>
        <time>2023-08-28T08:07:06Z</time>
      </trkpt>
      <trkpt lat="57.35393101349473" lon="-6.197220040485263">
        <ele>64.549999999999997</ele>
        <time>2023-08-28T08:07:07Z</time>
      </trkpt>
      <trkpt lat="57.353748036548495" lon="-6.197082996368408">
        <ele>64.549999999999997</ele>
        <time>2023-08-28T08:07:08Z</time>
      </trkpt>
      <trkpt lat="57.353366995230317" lon="-6.196829024702311">
        <ele>64.069999999999993</ele>
        <time>2023-08-28T08:07:10Z</time>
      </trkpt>
      <trkpt lat="57.353164991363883" lon="-6.196744032204151">
        <ele>64.069999999999993</ele>
        <time>2023-08-28T08:07:11Z</time>
      </trkpt>
      <trkpt lat="57.350832978263497" lon="-6.196137014776468">
        <ele>65.989999999999995</ele>
        <time>2023-08-28T08:07:22Z</time>
      </trkpt>
      <trkpt lat="57.35064203850925" lon="-6.196145983412862">
        <ele>66.469999999999999</ele>
        <time>2023-08-28T08:07:23Z</time>
      </trkpt>
      <trkpt lat="57.350468030199409" lon="-6.196254026144743">
        <ele>66.950000000000003</ele>
        <time>2023-08-28T08:07:24Z</time>
      </trkpt>
      <trkpt lat="57.350299973040819" lon="-6.196386963129044">
        <ele>67.909999999999997</ele>
        <time>2023-08-28T08:07:25Z</time>
      </trkpt>
      <trkpt lat="57.350131999701262" lon="-6.196519983932376">
        <ele>68.390000000000001</ele>
        <time>2023-08-28T08:07:26Z</time>
      </trkpt>
      <trkpt lat="57.34978599473834" lon="-6.196760963648558">
        <ele>70.310000000000002</ele>
        <time>2023-08-28T08:07:28Z</time>
      </trkpt>
      <trkpt lat="57.349608968943357" lon="-6.196849979460239">
        <ele>71.269999999999996</ele>
        <time>2023-08-28T08:07:29Z</time>
      </trkpt>
      <trkpt lat="57.349434038624167" lon="-6.196868000552058">
        <ele>71.760000000000005</ele>
        <time>2023-08-28T08:07:30Z</time>
      </trkpt>
      <trkpt lat="57.349256007000804" lon="-6.196886021643877">
        <ele>72.719999999999999</ele>
        <time>2023-08-28T08:07:31Z</time>
      </trkpt>
      <trkpt lat="57.349075963720679" lon="-6.196883004158735">
        <ele>73.680000000000007</ele>
        <time>2023-08-28T08:07:32Z</time>
      </trkpt>
      <trkpt lat="57.346732970327139" lon="-6.196970008313656">
        <ele>78.969999999999999</ele>
        <time>2023-08-28T08:07:45Z</time>
      </trkpt>
      <trkpt lat="57.344933962449431" lon="-6.197652965784073">
        <ele>83.769999999999996</ele>
        <time>2023-08-28T08:07:55Z</time>
      </trkpt>
      <trkpt lat="57.344596004113555" lon="-6.197638968005776">
        <ele>84.25</ele>
        <time>2023-08-28T08:07:57Z</time>
      </trkpt>
      <trkpt lat="57.344426019117236" lon="-6.197606027126312">
        <ele>84.730000000000004</ele>
        <time>2023-08-28T08:07:58Z</time>
      </trkpt>
      <trkpt lat="57.344265002757311" lon="-6.19753603823483">
        <ele>84.730000000000004</ele>
        <time>2023-08-28T08:07:59Z</time>
      </trkpt>
      <trkpt lat="57.343951016664505" lon="-6.197372004389763">
        <ele>84.25</ele>
        <time>2023-08-28T08:08:02Z</time>
      </trkpt>
      <trkpt lat="57.343620015308261" lon="-6.197331016883254">
        <ele>84.25</ele>
        <time>2023-08-28T08:08:03Z</time>
      </trkpt>
      <trkpt lat="57.34344600699842" lon="-6.197339985519648">
        <ele>83.769999999999996</ele>
        <time>2023-08-28T08:08:04Z</time>
      </trkpt>
      <trkpt lat="57.343266969546676" lon="-6.19743000715971">
        <ele>83.769999999999996</ele>
        <time>2023-08-28T08:08:05Z</time>
      </trkpt>
      <trkpt lat="57.343077035620809" lon="-6.197527991607785">
        <ele>84.25</ele>
        <time>2023-08-28T08:08:06Z</time>
      </trkpt>
      <trkpt lat="57.341370983049273" lon="-6.198399038985372">
        <ele>89.060000000000002</ele>
        <time>2023-08-28T08:08:15Z</time>
      </trkpt>
      <trkpt lat="57.339615980163217" lon="-6.198980994522572">
        <ele>94.349999999999994</ele>
        <time>2023-08-28T08:08:24Z</time>
      </trkpt>
      <trkpt lat="57.338272025808692" lon="-6.199035979807377">
        <ele>96.75</ele>
        <time>2023-08-28T08:08:29Z</time>
      </trkpt>
      <trkpt lat="57.336716009303927" lon="-6.198844034224749">
        <ele>101.56</ele>
        <time>2023-08-28T08:08:36Z</time>
      </trkpt>
      <trkpt lat="57.334997970610857" lon="-6.19831002317369">
        <ele>104.44</ele>
        <time>2023-08-28T08:08:44Z</time>
      </trkpt>
      <trkpt lat="57.334789009764791" lon="-6.198329972103238">
        <ele>104.92</ele>
        <time>2023-08-28T08:08:45Z</time>
      </trkpt>
      <trkpt lat="57.334580970928073" lon="-6.198380012065172">
        <ele>105.40000000000001</ele>
        <time>2023-08-28T08:08:46Z</time>
      </trkpt>
      <trkpt lat="57.334376033395529" lon="-6.19848302565515">
        <ele>105.40000000000001</ele>
        <time>2023-08-28T08:08:47Z</time>
      </trkpt>
      <trkpt lat="57.334169000387192" lon="-6.198586039245129">
        <ele>105.88</ele>
        <time>2023-08-28T08:08:48Z</time>
      </trkpt>
      <trkpt lat="57.332514999434352" lon="-6.199971986934543">
        <ele>103.95999999999999</ele>
        <time>2023-08-28T08:08:56Z</time>
      </trkpt>
      <trkpt lat="57.330068992450833" lon="-6.202207021415234">
        <ele>103.48</ele>
        <time>2023-08-28T08:09:08Z</time>
      </trkpt>
      <trkpt lat="57.329076994210482" lon="-6.202904982492328">
        <ele>104.92</ele>
        <time>2023-08-28T08:09:13Z</time>
      </trkpt>
      <trkpt lat="57.328872978687286" lon="-6.202926021069288">
        <ele>105.40000000000001</ele>
        <time>2023-08-28T08:09:14Z</time>
      </trkpt>
      <trkpt lat="57.328668963164091" lon="-6.202945969998837">
        <ele>105.88</ele>
        <time>2023-08-28T08:09:15Z</time>
      </trkpt>
      <trkpt lat="57.328462013974786" lon="-6.202954016625881">
        <ele>106.36</ele>
        <time>2023-08-28T08:09:16Z</time>
      </trkpt>
      <trkpt lat="57.328253975138068" lon="-6.202911017462611">
        <ele>106.84</ele>
        <time>2023-08-28T08:09:17Z</time>
      </trkpt>
      <trkpt lat="57.328043002635241" lon="-6.202867012470961">
        <ele>107.31999999999999</ele>
        <time>2023-08-28T08:09:18Z</time>
      </trkpt>
      <trkpt lat="57.327623991295695" lon="-6.202843962237239">
        <ele>107.81</ele>
        <time>2023-08-28T08:09:20Z</time>
      </trkpt>
      <trkpt lat="57.327415030449629" lon="-6.20288796722889">
        <ele>107.81</ele>
        <time>2023-08-28T08:09:21Z</time>
      </trkpt>
      <trkpt lat="57.327206991612911" lon="-6.202945969998837">
        <ele>108.29000000000001</ele>
        <time>2023-08-28T08:09:22Z</time>
      </trkpt>
      <trkpt lat="57.324868021532893" lon="-6.204082975164056">
        <ele>108.77</ele>
        <time>2023-08-28T08:09:33Z</time>
      </trkpt>
      <trkpt lat="57.32267196290195" lon="-6.204917980358005">
        <ele>111.17</ele>
        <time>2023-08-28T08:09:43Z</time>
      </trkpt>
      <trkpt lat="57.320945961400867" lon="-6.20510003529489">
        <ele>115.5</ele>
        <time>2023-08-28T08:09:51Z</time>
      </trkpt>
      <trkpt lat="57.320758961141109" lon="-6.205055024474859">
        <ele>116.45999999999999</ele>
        <time>2023-08-28T08:09:52Z</time>
      </trkpt>
      <trkpt lat="57.320573972538114" lon="-6.204961985349655">
        <ele>116.94</ele>
        <time>2023-08-28T08:09:53Z</time>
      </trkpt>
      <trkpt lat="57.320396024733782" lon="-6.20482200756669">
        <ele>117.42</ele>
        <time>2023-08-28T08:09:54Z</time>
      </trkpt>
      <trkpt lat="57.320212963968515" lon="-6.204657973721623">
        <ele>117.90000000000001</ele>
        <time>2023-08-28T08:09:55Z</time>
      </trkpt>
      <trkpt lat="57.317691016942263" lon="-6.202369965612888">
        <ele>116.94</ele>
        <time>2023-08-28T08:10:08Z</time>
      </trkpt>
      <trkpt lat="57.315046023577452" lon="-6.19994399137795">
        <ele>113.09</ele>
        <time>2023-08-28T08:10:21Z</time>
      </trkpt>
      <trkpt lat="57.313040988519788" lon="-6.197649026289582">
        <ele>109.73</ele>
        <time>2023-08-28T08:10:31Z</time>
      </trkpt>
      <trkpt lat="57.311239968985319" lon="-6.195068992674351">
        <ele>105.40000000000001</ele>
        <time>2023-08-28T08:10:41Z</time>
      </trkpt>
      <trkpt lat="57.309785960242152" lon="-6.192882992327213">
        <ele>103.48</ele>
        <time>2023-08-28T08:10:50Z</time>
      </trkpt>
      <trkpt lat="57.309691999107599" lon="-6.192580992355943">
        <ele>103.48</ele>
        <time>2023-08-28T08:10:51Z</time>
      </trkpt>
      <trkpt lat="57.309596026316285" lon="-6.19227496907115">
        <ele>103</ele>
        <time>2023-08-28T08:10:52Z</time>
      </trkpt>
      <trkpt lat="57.309110965579748" lon="-6.190804028883576">
        <ele>102.04000000000001</ele>
        <time>2023-08-28T08:10:57Z</time>
      </trkpt>
      <trkpt lat="57.309000995010138" lon="-6.190560031682253">
        <ele>101.56</ele>
        <time>2023-08-28T08:10:58Z</time>
      </trkpt>
      <trkpt lat="57.308866968378425" lon="-6.190355010330677">
        <ele>101.08</ele>
        <time>2023-08-28T08:10:59Z</time>
      </trkpt>
      <trkpt lat="57.308730008080602" lon="-6.190144037827849">
        <ele>100.59999999999999</ele>
        <time>2023-08-28T08:11:00Z</time>
      </trkpt>
      <trkpt lat="57.308574020862579" lon="-6.189965000376105">
        <ele>100.11</ele>
        <time>2023-08-28T08:11:01Z</time>
      </trkpt>
      <trkpt lat="57.307082964107394" lon="-6.188760017976165">
        <ele>92.900000000000006</ele>
        <time>2023-08-28T08:11:09Z</time>
      </trkpt>
      <trkpt lat="57.305247997865081" lon="-6.187730971723795">
        <ele>86.659999999999997</ele>
        <time>2023-08-28T08:11:19Z</time>
      </trkpt>
      <trkpt lat="57.302792016416788" lon="-6.186606958508492">
        <ele>81.370000000000005</ele>
        <time>2023-08-28T08:11:32Z</time>
      </trkpt>
      <trkpt lat="57.301633972674608" lon="-6.185459978878498">
        <ele>78.480000000000004</ele>
        <time>2023-08-28T08:11:39Z</time>
      </trkpt>
      <trkpt lat="57.2994430270046" lon="-6.183091001585126">
        <ele>70.790000000000006</ele>
        <time>2023-08-28T08:11:52Z</time>
      </trkpt>
      <trkpt lat="57.299112025648355" lon="-6.182832000777125">
        <ele>68.870000000000005</ele>
        <time>2023-08-28T08:11:54Z</time>
      </trkpt>
      <trkpt lat="57.298932988196611" lon="-6.182762011885643">
        <ele>67.909999999999997</ele>
        <time>2023-08-28T08:11:55Z</time>
      </trkpt>
      <trkpt lat="57.29736004024744" lon="-6.182173015549779">
        <ele>57.82</ele>
        <time>2023-08-28T08:12:04Z</time>
      </trkpt>
      <trkpt lat="57.297206986695528" lon="-6.182099003344774">
        <ele>56.859999999999999</ele>
        <time>2023-08-28T08:12:05Z</time>
      </trkpt>
      <trkpt lat="57.29706197977066" lon="-6.18198299780488">
        <ele>56.369999999999997</ele>
        <time>2023-08-28T08:12:06Z</time>
      </trkpt>
      <trkpt lat="57.296927031129599" lon="-6.181820975616574">
        <ele>55.409999999999997</ele>
        <time>2023-08-28T08:12:07Z</time>
      </trkpt>
      <trkpt lat="57.296793004497886" lon="-6.181640010327101">
        <ele>54.450000000000003</ele>
        <time>2023-08-28T08:12:08Z</time>
      </trkpt>
      <trkpt lat="57.296656966209412" lon="-6.181458039209247">
        <ele>53.490000000000002</ele>
        <time>2023-08-28T08:12:09Z</time>
      </trkpt>
      <trkpt lat="57.296122033149004" lon="-6.180834006518126">
        <ele>52.049999999999997</ele>
        <time>2023-08-28T08:12:13Z</time>
      </trkpt>
      <trkpt lat="57.295976020395756" lon="-6.180726969614625">
        <ele>51.090000000000003</ele>
        <time>2023-08-28T08:12:14Z</time>
      </trkpt>
      <trkpt lat="57.295825984328985" lon="-6.180618004873395">
        <ele>50.609999999999999</ele>
        <time>2023-08-28T08:12:15Z</time>
      </trkpt>
      <trkpt lat="57.294237026944757" lon="-6.17951100692153">
        <ele>40.990000000000002</ele>
        <time>2023-08-28T08:12:25Z</time>
      </trkpt>
      <trkpt lat="57.292239032685757" lon="-6.178196975961328">
        <ele>28.02</ele>
        <time>2023-08-28T08:12:37Z</time>
      </trkpt>
      <trkpt lat="57.292102994397283" lon="-6.178035037592053">
        <ele>26.57</ele>
        <time>2023-08-28T08:12:38Z</time>
      </trkpt>
      <trkpt lat="57.291138991713524" lon="-6.176388999447227">
        <ele>18.399999999999999</ele>
        <time>2023-08-28T08:12:46Z</time>
      </trkpt>
      <trkpt lat="57.290348997339606" lon="-6.174172991886735">
        <ele>14.08</ele>
        <time>2023-08-28T08:12:55Z</time>
      </trkpt>
      <trkpt lat="57.290286971256137" lon="-6.173905022442341">
        <ele>14.08</ele>
        <time>2023-08-28T08:12:56Z</time>
      </trkpt>
      <trkpt lat="57.290255036205053" lon="-6.173596987500787">
        <ele>14.08</ele>
        <time>2023-08-28T08:12:57Z</time>
      </trkpt>
      <trkpt lat="57.290236009284854" lon="-6.173292975872755">
        <ele>14.56</ele>
        <time>2023-08-28T08:12:58Z</time>
      </trkpt>
      <trkpt lat="57.290230980142951" lon="-6.172971026971936">
        <ele>14.56</ele>
        <time>2023-08-28T08:12:59Z</time>
      </trkpt>
      <trkpt lat="57.290241960436106" lon="-6.172654023393989">
        <ele>14.56</ele>
        <time>2023-08-28T08:13:00Z</time>
      </trkpt>
      <trkpt lat="57.290270961821079" lon="-6.172327967360616">
        <ele>15.039999999999999</ele>
        <time>2023-08-28T08:13:01Z</time>
      </trkpt>
      <trkpt lat="57.290316978469491" lon="-6.172006018459797">
        <ele>15.039999999999999</ele>
        <time>2023-08-28T08:13:02Z</time>
      </trkpt>
      <trkpt lat="57.290397025644779" lon="-6.171678034588695">
        <ele>15.039999999999999</ele>
        <time>2023-08-28T08:13:03Z</time>
      </trkpt>
      <trkpt lat="57.290502972900867" lon="-6.171369999647141">
        <ele>15.039999999999999</ele>
        <time>2023-08-28T08:13:04Z</time>
      </trkpt>
      <trkpt lat="57.290629036724567" lon="-6.171087026596069">
        <ele>15.039999999999999</ele>
        <time>2023-08-28T08:13:05Z</time>
      </trkpt>
      <trkpt lat="57.290755016729236" lon="-6.170802963897586">
        <ele>15.039999999999999</ele>
        <time>2023-08-28T08:13:06Z</time>
      </trkpt>
      <trkpt lat="57.290902035310864" lon="-6.170540023595095">
        <ele>15.039999999999999</ele>
        <time>2023-08-28T08:13:07Z</time>
      </trkpt>
      <trkpt lat="57.291062967851758" lon="-6.170289991423488">
        <ele>15.039999999999999</ele>
        <time>2023-08-28T08:13:08Z</time>
      </trkpt>
      <trkpt lat="57.292656032368541" lon="-6.167850019410253">
        <ele>14.56</ele>
        <time>2023-08-28T08:13:18Z</time>
      </trkpt>
      <trkpt lat="57.29362296871841" lon="-6.166094010695815">
        <ele>14.56</ele>
        <time>2023-08-28T08:13:23Z</time>
      </trkpt>
      <trkpt lat="57.295327009633183" lon="-6.163678010925651">
        <ele>13.119999999999999</ele>
        <time>2023-08-28T08:13:32Z</time>
      </trkpt>
      <trkpt lat="57.296037040650845" lon="-6.162325004115701">
        <ele>13.6</ele>
        <time>2023-08-28T08:13:37Z</time>
      </trkpt>
      <trkpt lat="57.296151034533978" lon="-6.162015963345766">
        <ele>14.08</ele>
        <time>2023-08-28T08:13:38Z</time>
      </trkpt>
      <trkpt lat="57.296246001496911" lon="-6.161693008616567">
        <ele>14.56</ele>
        <time>2023-08-28T08:13:39Z</time>
      </trkpt>
      <trkpt lat="57.296322025358677" lon="-6.161339962854981">
        <ele>14.56</ele>
        <time>2023-08-28T08:13:40Z</time>
      </trkpt>
      <trkpt lat="57.296367958188057" lon="-6.160957999527454">
        <ele>15.039999999999999</ele>
        <time>2023-08-28T08:13:41Z</time>
      </trkpt>
      <trkpt lat="57.296402994543314" lon="-6.16056396625936">
        <ele>15.52</ele>
        <time>2023-08-28T08:13:42Z</time>
      </trkpt>
      <trkpt lat="57.29641598649323" lon="-6.160158030688763">
        <ele>15.52</ele>
        <time>2023-08-28T08:13:43Z</time>
      </trkpt>
      <trkpt lat="57.296561999246478" lon="-6.15656697191298">
        <ele>17.440000000000001</ele>
        <time>2023-08-28T08:13:52Z</time>
      </trkpt>
      <trkpt lat="57.296645985916257" lon="-6.156219961121678">
        <ele>17.920000000000002</ele>
        <time>2023-08-28T08:13:53Z</time>
      </trkpt>
      <trkpt lat="57.296732990071177" lon="-6.155863981693983">
        <ele>18.399999999999999</ele>
        <time>2023-08-28T08:13:54Z</time>
      </trkpt>
      <trkpt lat="57.297903019934893" lon="-6.152455983683467">
        <ele>21.289999999999999</ele>
        <time>2023-08-28T08:14:04Z</time>
      </trkpt>
      <trkpt lat="57.298697037622333" lon="-6.149479988962412">
        <ele>22.73</ele>
        <time>2023-08-28T08:14:12Z</time>
      </trkpt>
      <trkpt lat="57.299349987879395" lon="-6.147398008033633">
        <ele>26.09</ele>
        <time>2023-08-28T08:14:18Z</time>
      </trkpt>
      <trkpt lat="57.300576008856297" lon="-6.14539397880435">
        <ele>27.050000000000001</ele>
        <time>2023-08-28T08:14:25Z</time>
      </trkpt>
      <trkpt lat="57.302397983148694" lon="-6.142461989074945">
        <ele>33.299999999999997</ele>
        <time>2023-08-28T08:14:36Z</time>
      </trkpt>
      <trkpt lat="57.302509965375066" lon="-6.142134005203843">
        <ele>34.259999999999998</ele>
        <time>2023-08-28T08:14:37Z</time>
      </trkpt>
      <trkpt lat="57.302618008106947" lon="-6.141803003847599">
        <ele>35.229999999999997</ele>
        <time>2023-08-28T08:14:38Z</time>
      </trkpt>
      <trkpt lat="57.302725967019796" lon="-6.141472002491355">
        <ele>36.189999999999998</ele>
        <time>2023-08-28T08:14:39Z</time>
      </trkpt>
      <trkpt lat="57.303502969443798" lon="-6.137756975367665">
        <ele>36.670000000000002</ele>
        <time>2023-08-28T08:14:49Z</time>
      </trkpt>
      <trkpt lat="57.304253987967968" lon="-6.135717993602157">
        <ele>34.259999999999998</ele>
        <time>2023-08-28T08:14:55Z</time>
      </trkpt>
      <trkpt lat="57.306056013330817" lon="-6.132173035293818">
        <ele>36.670000000000002</ele>
        <time>2023-08-28T08:15:07Z</time>
      </trkpt>
      <trkpt lat="57.30797303840518" lon="-6.129457969218493">
        <ele>36.189999999999998</ele>
        <time>2023-08-28T08:15:18Z</time>
      </trkpt>
      <trkpt lat="57.308467989787459" lon="-6.12865598872304">
        <ele>35.229999999999997</ele>
        <time>2023-08-28T08:15:21Z</time>
      </trkpt>
      <trkpt lat="57.308608973398805" lon="-6.12833202816546">
        <ele>34.740000000000002</ele>
        <time>2023-08-28T08:15:22Z</time>
      </trkpt>
      <trkpt lat="57.310630017891526" lon="-6.123702032491565">
        <ele>31.859999999999999</ele>
        <time>2023-08-28T08:15:36Z</time>
      </trkpt>
      <trkpt lat="57.312592975795269" lon="-6.119636977091432">
        <ele>30.420000000000002</ele>
        <time>2023-08-28T08:15:49Z</time>
      </trkpt>
      <trkpt lat="57.312805959954858" lon="-6.118933986872435">
        <ele>29.940000000000001</ele>
        <time>2023-08-28T08:15:51Z</time>
      </trkpt>
      <trkpt lat="57.312868991866708" lon="-6.118555963039398">
        <ele>29.460000000000001</ele>
        <time>2023-08-28T08:15:52Z</time>
      </trkpt>
      <trkpt lat="57.312932023778558" lon="-6.118181040510535">
        <ele>28.5</ele>
        <time>2023-08-28T08:15:53Z</time>
      </trkpt>
      <trkpt lat="57.313054986298084" lon="-6.117051998153329">
        <ele>24.649999999999999</ele>
        <time>2023-08-28T08:15:56Z</time>
      </trkpt>
      <trkpt lat="57.313051968812943" lon="-6.116673974320293">
        <ele>23.210000000000001</ele>
        <time>2023-08-28T08:15:57Z</time>
      </trkpt>
      <trkpt lat="57.313048029318452" lon="-6.113027008250356">
        <ele>12.15</ele>
        <time>2023-08-28T08:16:06Z</time>
      </trkpt>
      <trkpt lat="57.313506016507745" lon="-6.109969038516283">
        <ele>16</ele>
        <time>2023-08-28T08:16:14Z</time>
      </trkpt>
      <trkpt lat="57.314071962609887" lon="-6.106041027233005">
        <ele>14.56</ele>
        <time>2023-08-28T08:16:24Z</time>
      </trkpt>
      <trkpt lat="57.314201965928078" lon="-6.10403498634696">
        <ele>14.08</ele>
        <time>2023-08-28T08:16:29Z</time>
      </trkpt>
      <trkpt lat="57.314195008948445" lon="-6.103633996099234">
        <ele>13.6</ele>
        <time>2023-08-28T08:16:30Z</time>
      </trkpt>
      <trkpt lat="57.314147986471653" lon="-6.103250021114945">
        <ele>13.6</ele>
        <time>2023-08-28T08:16:31Z</time>
      </trkpt>
      <trkpt lat="57.314098030328751" lon="-6.102868979796767">
        <ele>13.6</ele>
        <time>2023-08-28T08:16:32Z</time>
      </trkpt>
      <trkpt lat="57.314030975103378" lon="-6.102497996762395">
        <ele>13.6</ele>
        <time>2023-08-28T08:16:33Z</time>
      </trkpt>
      <trkpt lat="57.313940031453967" lon="-6.102151991799474">
        <ele>13.6</ele>
        <time>2023-08-28T08:16:34Z</time>
      </trkpt>
      <trkpt lat="57.313841041177511" lon="-6.101817972958088">
        <ele>13.6</ele>
        <time>2023-08-28T08:16:35Z</time>
      </trkpt>
      <trkpt lat="57.313721012324095" lon="-6.101512033492327">
        <ele>13.6</ele>
        <time>2023-08-28T08:16:36Z</time>
      </trkpt>
      <trkpt lat="57.313592014834285" lon="-6.10121900215745">
        <ele>14.08</ele>
        <time>2023-08-28T08:16:37Z</time>
      </trkpt>
      <trkpt lat="57.313443990424275" lon="-6.10096100717783">
        <ele>14.56</ele>
        <time>2023-08-28T08:16:38Z</time>
      </trkpt>
      <trkpt lat="57.313295966014266" lon="-6.10070401802659">
        <ele>15.039999999999999</ele>
        <time>2023-08-28T08:16:39Z</time>
      </trkpt>
      <trkpt lat="57.313148025423288" lon="-6.10044602304697">
        <ele>15.52</ele>
        <time>2023-08-28T08:16:40Z</time>
      </trkpt>
      <trkpt lat="57.310949033126235" lon="-6.097146989777684">
        <ele>23.690000000000001</ele>
        <time>2023-08-28T08:16:54Z</time>
      </trkpt>
      <trkpt lat="57.308787005022168" lon="-6.093939989805222">
        <ele>29.460000000000001</ele>
        <time>2023-08-28T08:17:07Z</time>
      </trkpt>
      <trkpt lat="57.306947009637952" lon="-6.092063030228019">
        <ele>34.740000000000002</ele>
        <time>2023-08-28T08:17:16Z</time>
      </trkpt>
      <trkpt lat="57.305184965953231" lon="-6.091040018945932">
        <ele>33.780000000000001</ele>
        <time>2023-08-28T08:17:24Z</time>
      </trkpt>
      <trkpt lat="57.302913973107934" lon="-6.090385979041457">
        <ele>28.5</ele>
        <time>2023-08-28T08:17:34Z</time>
      </trkpt>
      <trkpt lat="57.299459958449006" lon="-6.08944402076304">
        <ele>29.940000000000001</ele>
        <time>2023-08-28T08:17:50Z</time>
      </trkpt>
      <trkpt lat="57.298094965517521" lon="-6.088486975058913">
        <ele>31.379999999999999</ele>
        <time>2023-08-28T08:17:57Z</time>
      </trkpt>
      <trkpt lat="57.296583037823439" lon="-6.087531019002199">
        <ele>39.07</ele>
        <time>2023-08-28T08:18:05Z</time>
      </trkpt>
      <trkpt lat="57.295128023251891" lon="-6.087655993178487">
        <ele>47.719999999999999</ele>
        <time>2023-08-28T08:18:12Z</time>
      </trkpt>
      <trkpt lat="57.293718019500375" lon="-6.0880490206182">
        <ele>56.369999999999997</ele>
        <time>2023-08-28T08:18:19Z</time>
      </trkpt>
      <trkpt lat="57.293718019500375" lon="-6.0880490206182">
        <ele>57.82</ele>
        <time>2023-08-28T08:18:20Z</time>
      </trkpt>
      <trkpt lat="57.293351981788874" lon="-6.088355965912342">
        <ele>58.780000000000001</ele>
        <time>2023-08-28T08:18:21Z</time>
      </trkpt>
      <trkpt lat="57.291248040273786" lon="-6.090378016233444">
        <ele>73.200000000000003</ele>
        <time>2023-08-28T08:18:33Z</time>
      </trkpt>
      <trkpt lat="57.289208974689245" lon="-6.0920450091362">
        <ele>87.620000000000005</ele>
        <time>2023-08-28T08:18:44Z</time>
      </trkpt>
      <trkpt lat="57.287788996472955" lon="-6.093616029247642">
        <ele>96.75</ele>
        <time>2023-08-28T08:18:52Z</time>
      </trkpt>
      <trkpt lat="57.287393035367131" lon="-6.093859020620585">
        <ele>99.150000000000006</ele>
        <time>2023-08-28T08:18:54Z</time>
      </trkpt>
      <trkpt lat="57.287182984873652" lon="-6.09389497898519">
        <ele>100.59999999999999</ele>
        <time>2023-08-28T08:18:55Z</time>
      </trkpt>
      <trkpt lat="57.28696396574378" lon="-6.093922974541783">
        <ele>101.56</ele>
        <time>2023-08-28T08:18:56Z</time>
      </trkpt>
      <trkpt lat="57.286737989634275" lon="-6.093950970098376">
        <ele>103</ele>
        <time>2023-08-28T08:18:57Z</time>
      </trkpt>
      <trkpt lat="57.286506984382868" lon="-6.09393797814846">
        <ele>103.95999999999999</ele>
        <time>2023-08-28T08:18:58Z</time>
      </trkpt>
      <trkpt lat="57.28365303017199" lon="-6.093817027285695">
        <ele>118.38</ele>
        <time>2023-08-28T08:19:10Z</time>
      </trkpt>
      <trkpt lat="57.281469041481614" lon="-6.09434399753809">
        <ele>131.36000000000001</ele>
        <time>2023-08-28T08:19:20Z</time>
      </trkpt>
      <trkpt lat="57.278752969577909" lon="-6.095323003828526">
        <ele>139.05000000000001</ele>
        <time>2023-08-28T08:19:33Z</time>
      </trkpt>
      <trkpt lat="57.27692998945713" lon="-6.096797967329621">
        <ele>134.72</ele>
        <time>2023-08-28T08:19:42Z</time>
      </trkpt>
      <trkpt lat="57.275226032361388" lon="-6.098365969955921">
        <ele>128.94999999999999</ele>
        <time>2023-08-28T08:19:51Z</time>
      </trkpt>
      <trkpt lat="57.274619014933705" lon="-6.098844995722175">
        <ele>126.55</ele>
        <time>2023-08-28T08:19:55Z</time>
      </trkpt>
      <trkpt lat="57.274539973586798" lon="-6.098893024027348">
        <ele>126.06999999999999</ele>
        <time>2023-08-28T08:19:56Z</time>
      </trkpt>
      <trkpt lat="57.274352973327041" lon="-6.098871985450387">
        <ele>125.59</ele>
        <time>2023-08-28T08:19:57Z</time>
      </trkpt>
      <trkpt lat="57.274215007200837" lon="-6.09885698184371">
        <ele>125.11</ele>
        <time>2023-08-28T08:19:58Z</time>
      </trkpt>
      <trkpt lat="57.274099001660943" lon="-6.098795039579272">
        <ele>124.63</ele>
        <time>2023-08-28T08:19:59Z</time>
      </trkpt>
      <trkpt lat="57.273981990292668" lon="-6.098678028210998">
        <ele>124.15000000000001</ele>
        <time>2023-08-28T08:20:00Z</time>
      </trkpt>
      <trkpt lat="57.273860033601522" lon="-6.098515000194311">
        <ele>123.67</ele>
        <time>2023-08-28T08:20:01Z</time>
      </trkpt>
      <trkpt lat="57.273784009739757" lon="-6.098307967185974">
        <ele>123.19</ele>
        <time>2023-08-28T08:20:02Z</time>
      </trkpt>
      <trkpt lat="57.27370304055512" lon="-6.098076961934567">
        <ele>122.22</ele>
        <time>2023-08-28T08:20:03Z</time>
      </trkpt>
      <trkpt lat="57.273679990321398" lon="-6.097814021632075">
        <ele>121.73999999999999</ele>
        <time>2023-08-28T08:20:04Z</time>
      </trkpt>
      <trkpt lat="57.273655012249947" lon="-6.097530964761972">
        <ele>120.78</ele>
        <time>2023-08-28T08:20:05Z</time>
      </trkpt>
      <trkpt lat="57.273650988936424" lon="-6.09726500697434">
        <ele>119.81999999999999</ele>
        <time>2023-08-28T08:20:06Z</time>
      </trkpt>
      <trkpt lat="57.273693988099694" lon="-6.096970969811082">
        <ele>118.38</ele>
        <time>2023-08-28T08:20:07Z</time>
      </trkpt>
      <trkpt lat="57.273738998919725" lon="-6.096668969839811">
        <ele>117.42</ele>
        <time>2023-08-28T08:20:08Z</time>
      </trkpt>
      <trkpt lat="57.273816028609872" lon="-6.096371999010444">
        <ele>116.45999999999999</ele>
        <time>2023-08-28T08:20:09Z</time>
      </trkpt>
      <trkpt lat="57.274266975000501" lon="-6.094464026391506">
        <ele>109.73</ele>
        <time>2023-08-28T08:20:15Z</time>
      </trkpt>
      <trkpt lat="57.274295976385474" lon="-6.094136964529753">
        <ele>108.29000000000001</ele>
        <time>2023-08-28T08:20:16Z</time>
      </trkpt>
      <trkpt lat="57.274315003305674" lon="-6.093794982880354">
        <ele>107.31999999999999</ele>
        <time>2023-08-28T08:20:17Z</time>
      </trkpt>
      <trkpt lat="57.27430896833539" lon="-6.093446966260672">
        <ele>105.88</ele>
        <time>2023-08-28T08:20:18Z</time>
      </trkpt>
      <trkpt lat="57.274276027455926" lon="-6.093100961297751">
        <ele>104.44</ele>
        <time>2023-08-28T08:20:19Z</time>
      </trkpt>
      <trkpt lat="57.274219030514359" lon="-6.092769959941506">
        <ele>103.48</ele>
        <time>2023-08-28T08:20:20Z</time>
      </trkpt>
      <trkpt lat="57.274144012480974" lon="-6.092451028525829">
        <ele>102.52</ele>
        <time>2023-08-28T08:20:21Z</time>
      </trkpt>
      <trkpt lat="57.273935973644257" lon="-6.091881981119514">
        <ele>100.11</ele>
        <time>2023-08-28T08:20:23Z</time>
      </trkpt>
      <trkpt lat="57.27381301112473" lon="-6.091612000018358">
        <ele>99.150000000000006</ele>
        <time>2023-08-28T08:20:24Z</time>
      </trkpt>
      <trkpt lat="57.273669010028243" lon="-6.091375965625048">
        <ele>98.670000000000002</ele>
        <time>2023-08-28T08:20:25Z</time>
      </trkpt>
      <trkpt lat="57.27351201698184" lon="-6.091161975637078">
        <ele>97.230000000000004</ele>
        <time>2023-08-28T08:20:26Z</time>
      </trkpt>
      <trkpt lat="57.273349994793534" lon="-6.090943962335587">
        <ele>96.269999999999996</ele>
        <time>2023-08-28T08:20:27Z</time>
      </trkpt>
      <trkpt lat="57.273173974826932" lon="-6.090767020359635">
        <ele>95.310000000000002</ele>
        <time>2023-08-28T08:20:28Z</time>
      </trkpt>
      <trkpt lat="57.271644026041031" lon="-6.089779967442155">
        <ele>85.689999999999998</ele>
        <time>2023-08-28T08:20:36Z</time>
      </trkpt>
      <trkpt lat="57.269311007112265" lon="-6.0890609677881">
        <ele>72.239999999999995</ele>
        <time>2023-08-28T08:20:47Z</time>
      </trkpt>
      <trkpt lat="57.268491005524993" lon="-6.08910002745688">
        <ele>66.469999999999999</ele>
        <time>2023-08-28T08:20:51Z</time>
      </trkpt>
      <trkpt lat="57.268281038850546" lon="-6.089160963892937">
        <ele>65.510000000000005</ele>
        <time>2023-08-28T08:20:52Z</time>
      </trkpt>
      <trkpt lat="57.268077023327351" lon="-6.08929499052465">
        <ele>64.069999999999993</ele>
        <time>2023-08-28T08:20:53Z</time>
      </trkpt>
      <trkpt lat="57.266103001311421" lon="-6.090397965162993">
        <ele>50.130000000000003</ele>
        <time>2023-08-28T08:21:02Z</time>
      </trkpt>
      <trkpt lat="57.264032000675797" lon="-6.091021997854114">
        <ele>35.710000000000001</ele>
        <time>2023-08-28T08:21:12Z</time>
      </trkpt>
      <trkpt lat="57.263839971274137" lon="-6.090962989255786">
        <ele>34.740000000000002</ele>
        <time>2023-08-28T08:21:13Z</time>
      </trkpt>
      <trkpt lat="57.263642996549606" lon="-6.090902974829078">
        <ele>33.299999999999997</ele>
        <time>2023-08-28T08:21:14Z</time>
      </trkpt>
      <trkpt lat="57.263451972976327" lon="-6.090782023966312">
        <ele>31.859999999999999</ele>
        <time>2023-08-28T08:21:15Z</time>
      </trkpt>
      <trkpt lat="57.263259021565318" lon="-6.090640034526587">
        <ele>30.420000000000002</ele>
        <time>2023-08-28T08:21:16Z</time>
      </trkpt>
      <trkpt lat="57.263086019083858" lon="-6.090439958497882">
        <ele>28.98</ele>
        <time>2023-08-28T08:21:17Z</time>
      </trkpt>
      <trkpt lat="57.262926008552313" lon="-6.090209037065506">
        <ele>28.02</ele>
        <time>2023-08-28T08:21:18Z</time>
      </trkpt>
      <trkpt lat="57.262772032991052" lon="-6.08996001072228">
        <ele>27.050000000000001</ele>
        <time>2023-08-28T08:21:19Z</time>
      </trkpt>
      <trkpt lat="57.262643035501242" lon="-6.089662034064531">
        <ele>26.09</ele>
        <time>2023-08-28T08:21:20Z</time>
      </trkpt>
      <trkpt lat="57.262514960020781" lon="-6.089363973587751">
        <ele>25.129999999999999</ele>
        <time>2023-08-28T08:21:21Z</time>
      </trkpt>
      <trkpt lat="57.262389985844493" lon="-6.0890609677881">
        <ele>24.170000000000002</ele>
        <time>2023-08-28T08:21:22Z</time>
      </trkpt>
      <trkpt lat="57.262317985296249" lon="-6.088711023330689">
        <ele>23.690000000000001</ele>
        <time>2023-08-28T08:21:23Z</time>
      </trkpt>
      <trkpt lat="57.262245984748006" lon="-6.088360995054245">
        <ele>23.210000000000001</ele>
        <time>2023-08-28T08:21:24Z</time>
      </trkpt>
      <trkpt lat="57.2622100263834" lon="-6.087991017848253">
        <ele>22.73</ele>
        <time>2023-08-28T08:21:25Z</time>
      </trkpt>
      <trkpt lat="57.262201979756355" lon="-6.0876190289855">
        <ele>21.77</ele>
        <time>2023-08-28T08:21:26Z</time>
      </trkpt>
      <trkpt lat="57.2622100263834" lon="-6.087245028465986">
        <ele>21.289999999999999</ele>
        <time>2023-08-28T08:21:27Z</time>
      </trkpt>
      <trkpt lat="57.26225595921278" lon="-6.086875973269343">
        <ele>20.809999999999999</ele>
        <time>2023-08-28T08:21:28Z</time>
      </trkpt>
      <trkpt lat="57.262313961982727" lon="-6.086514964699745">
        <ele>19.84</ele>
        <time>2023-08-28T08:21:29Z</time>
      </trkpt>
      <trkpt lat="57.262400966137648" lon="-6.086166026070714">
        <ele>18.879999999999999</ele>
        <time>2023-08-28T08:21:30Z</time>
      </trkpt>
      <trkpt lat="57.262489981949329" lon="-6.085809040814638">
        <ele>18.399999999999999</ele>
        <time>2023-08-28T08:21:31Z</time>
      </trkpt>
      <trkpt lat="57.262616967782378" lon="-6.085478961467743">
        <ele>17.440000000000001</ele>
        <time>2023-08-28T08:21:32Z</time>
      </trkpt>
      <trkpt lat="57.26274898275733" lon="-6.085155000910163">
        <ele>16.960000000000001</ele>
        <time>2023-08-28T08:21:33Z</time>
      </trkpt>
      <trkpt lat="57.264963984489441" lon="-6.079520015046001">
        <ele>20.809999999999999</ele>
        <time>2023-08-28T08:21:50Z</time>
      </trkpt>
      <trkpt lat="57.265839977189898" lon="-6.07588897459209">
        <ele>15.039999999999999</ele>
        <time>2023-08-28T08:22:00Z</time>
      </trkpt>
      <trkpt lat="57.266469961032271" lon="-6.072301017120481">
        <ele>12.630000000000001</ele>
        <time>2023-08-28T08:22:10Z</time>
      </trkpt>
      <trkpt lat="57.26687396876514" lon="-6.069725006818771">
        <ele>11.67</ele>
        <time>2023-08-28T08:22:18Z</time>
      </trkpt>
      <trkpt lat="57.266955021768808" lon="-6.069427030161023">
        <ele>11.67</ele>
        <time>2023-08-28T08:22:19Z</time>
      </trkpt>
      <trkpt lat="57.267060969024897" lon="-6.069137016311288">
        <ele>12.15</ele>
        <time>2023-08-28T08:22:20Z</time>
      </trkpt>
      <trkpt lat="57.267178986221552" lon="-6.068856976926327">
        <ele>12.630000000000001</ele>
        <time>2023-08-28T08:22:21Z</time>
      </trkpt>
      <trkpt lat="57.267308989539742" lon="-6.06858397834003">
        <ele>12.630000000000001</ele>
        <time>2023-08-28T08:22:22Z</time>
      </trkpt>
      <trkpt lat="57.267466988414526" lon="-6.068358002230525">
        <ele>13.119999999999999</ele>
        <time>2023-08-28T08:22:23Z</time>
      </trkpt>
      <trkpt lat="57.267466988414526" lon="-6.068359008058906">
        <ele>13.119999999999999</ele>
        <time>2023-08-28T08:22:24Z</time>
      </trkpt>
      <trkpt lat="57.267798995599151" lon="-6.067886017262936">
        <ele>13.119999999999999</ele>
        <time>2023-08-28T08:22:25Z</time>
      </trkpt>
      <trkpt lat="57.269614012911916" lon="-6.065743016079068">
        <ele>12.15</ele>
        <time>2023-08-28T08:22:35Z</time>
      </trkpt>
      <trkpt lat="57.27119299583137" lon="-6.063518039882183">
        <ele>12.630000000000001</ele>
        <time>2023-08-28T08:22:45Z</time>
      </trkpt>
      <trkpt lat="57.272512977942824" lon="-6.060920991003513">
        <ele>17.440000000000001</ele>
        <time>2023-08-28T08:22:55Z</time>
      </trkpt>
      <trkpt lat="57.27372600696981" lon="-6.058114981278777">
        <ele>27.530000000000001</ele>
        <time>2023-08-28T08:23:05Z</time>
      </trkpt>
      <trkpt lat="57.274531004950404" lon="-6.055690012872219">
        <ele>30.899999999999999</ele>
        <time>2023-08-28T08:23:14Z</time>
      </trkpt>
      <trkpt lat="57.275595003738999" lon="-6.052871011197567">
        <ele>31.859999999999999</ele>
        <time>2023-08-28T08:23:24Z</time>
      </trkpt>
      <trkpt lat="57.276236973702908" lon="-6.050819959491491">
        <ele>33.299999999999997</ele>
        <time>2023-08-28T08:23:32Z</time>
      </trkpt>
      <trkpt lat="57.276447024196386" lon="-6.049356982111931">
        <ele>31.859999999999999</ele>
        <time>2023-08-28T08:23:37Z</time>
      </trkpt>
      <trkpt lat="57.276474013924599" lon="-6.047496031969786">
        <ele>28.5</ele>
        <time>2023-08-28T08:23:42Z</time>
      </trkpt>
      <trkpt lat="57.276384998112917" lon="-6.045091012492776">
        <ele>21.289999999999999</ele>
        <time>2023-08-28T08:23:48Z</time>
      </trkpt>
      <trkpt lat="57.276406036689878" lon="-6.043480010703206">
        <ele>16.960000000000001</ele>
        <time>2023-08-28T08:23:53Z</time>
      </trkpt>
      <trkpt lat="57.276469990611076" lon="-6.043170969933271">
        <ele>16.48</ele>
        <time>2023-08-28T08:23:54Z</time>
      </trkpt>
      <trkpt lat="57.276535034179688" lon="-6.042863018810749">
        <ele>16</ele>
        <time>2023-08-28T08:23:55Z</time>
      </trkpt>
      <trkpt lat="57.276633018627763" lon="-6.042608041316271">
        <ele>16</ele>
        <time>2023-08-28T08:23:56Z</time>
      </trkpt>
      <trkpt lat="57.276749024167657" lon="-6.042376030236483">
        <ele>16</ele>
        <time>2023-08-28T08:23:57Z</time>
      </trkpt>
      <trkpt lat="57.276866035535932" lon="-6.042148964479566">
        <ele>16</ele>
        <time>2023-08-28T08:23:58Z</time>
      </trkpt>
      <trkpt lat="57.277013976126909" lon="-6.04196498170495">
        <ele>16</ele>
        <time>2023-08-28T08:23:59Z</time>
      </trkpt>
      <trkpt lat="57.277168035507202" lon="-6.041773958131671">
        <ele>16.48</ele>
        <time>2023-08-28T08:24:00Z</time>
      </trkpt>
      <trkpt lat="57.278535962104797" lon="-6.04045900516212">
        <ele>17.920000000000002</ele>
        <time>2023-08-28T08:24:08Z</time>
      </trkpt>
      <trkpt lat="57.279833983629942" lon="-6.038794023916125">
        <ele>15.52</ele>
        <time>2023-08-28T08:24:17Z</time>
      </trkpt>
      <trkpt lat="57.280902005732059" lon="-6.037674034014344">
        <ele>15.039999999999999</ele>
        <time>2023-08-28T08:24:24Z</time>
      </trkpt>
      <trkpt lat="57.282401025295258" lon="-6.03616101667285">
        <ele>14.56</ele>
        <time>2023-08-28T08:24:34Z</time>
      </trkpt>
      <trkpt lat="57.283166963607073" lon="-6.034323032945395">
        <ele>16</ele>
        <time>2023-08-28T08:24:41Z</time>
      </trkpt>
      <trkpt lat="57.284329030662775" lon="-6.030869018286467">
        <ele>20.32</ele>
        <time>2023-08-28T08:24:53Z</time>
      </trkpt>
      <trkpt lat="57.284917021170259" lon="-6.028787037357688">
        <ele>21.77</ele>
        <time>2023-08-28T08:24:58Z</time>
      </trkpt>
      <trkpt lat="57.285722019150853" lon="-6.026241034269333">
        <ele>22.25</ele>
        <time>2023-08-28T08:25:05Z</time>
      </trkpt>
      <trkpt lat="57.286457028239965" lon="-6.024352004751563">
        <ele>26.09</ele>
        <time>2023-08-28T08:25:12Z</time>
      </trkpt>
      <trkpt lat="57.286516036838293" lon="-6.024056961759925">
        <ele>26.57</ele>
        <time>2023-08-28T08:25:13Z</time>
      </trkpt>
      <trkpt lat="57.286558030173182" lon="-6.0237439814955">
        <ele>27.050000000000001</ele>
        <time>2023-08-28T08:25:14Z</time>
      </trkpt>
      <trkpt lat="57.286599017679691" lon="-6.023425972089171">
        <ele>28.02</ele>
        <time>2023-08-28T08:25:15Z</time>
      </trkpt>
      <trkpt lat="57.286585019901395" lon="-6.02307996712625">
        <ele>28.5</ele>
        <time>2023-08-28T08:25:16Z</time>
      </trkpt>
      <trkpt lat="57.286570016294718" lon="-6.022721976041794">
        <ele>28.98</ele>
        <time>2023-08-28T08:25:17Z</time>
      </trkpt>
      <trkpt lat="57.286556018516421" lon="-6.02236901409924">
        <ele>29.460000000000001</ele>
        <time>2023-08-28T08:25:18Z</time>
      </trkpt>
      <trkpt lat="57.28631797246635" lon="-6.01998302154243">
        <ele>33.299999999999997</ele>
        <time>2023-08-28T08:25:26Z</time>
      </trkpt>
      <trkpt lat="57.286141030490398" lon="-6.019428977742791">
        <ele>33.780000000000001</ele>
        <time>2023-08-28T08:25:28Z</time>
      </trkpt>
      <trkpt lat="57.286034999415278" lon="-6.019149022176862">
        <ele>33.780000000000001</ele>
        <time>2023-08-28T08:25:29Z</time>
      </trkpt>
      <trkpt lat="57.285926034674048" lon="-6.018860014155507">
        <ele>33.780000000000001</ele>
        <time>2023-08-28T08:25:30Z</time>
      </trkpt>
      <trkpt lat="57.284763967618346" lon="-6.016512997448444">
        <ele>31.859999999999999</ele>
        <time>2023-08-28T08:25:39Z</time>
      </trkpt>
      <trkpt lat="57.283680019900203" lon="-6.014932002872229">
        <ele>29.940000000000001</ele>
        <time>2023-08-28T08:25:46Z</time>
      </trkpt>
      <trkpt lat="57.282576039433479" lon="-6.013634987175465">
        <ele>26.09</ele>
        <time>2023-08-28T08:25:52Z</time>
      </trkpt>
      <trkpt lat="57.281237030401826" lon="-6.011901022866368">
        <ele>23.690000000000001</ele>
        <time>2023-08-28T08:26:01Z</time>
      </trkpt>
      <trkpt lat="57.27995602414012" lon="-6.009805966168642">
        <ele>22.25</ele>
        <time>2023-08-28T08:26:10Z</time>
      </trkpt>
      <trkpt lat="57.27836899459362" lon="-6.007427014410496">
        <ele>23.690000000000001</ele>
        <time>2023-08-28T08:26:21Z</time>
      </trkpt>
      <trkpt lat="57.277080025523901" lon="-6.005492974072695">
        <ele>25.609999999999999</ele>
        <time>2023-08-28T08:26:30Z</time>
      </trkpt>
      <trkpt lat="57.276958990842104" lon="-6.00524302572012">
        <ele>25.129999999999999</ele>
        <time>2023-08-28T08:26:31Z</time>
      </trkpt>
      <trkpt lat="57.275898009538651" lon="-6.002935990691185">
        <ele>19.84</ele>
        <time>2023-08-28T08:26:40Z</time>
      </trkpt>
      <trkpt lat="57.274719011038542" lon="-6.001203032210469">
        <ele>14.56</ele>
        <time>2023-08-28T08:26:48Z</time>
      </trkpt>
      <trkpt lat="57.274268986657262" lon="-6.000714031979442">
        <ele>12.15</ele>
        <time>2023-08-28T08:26:51Z</time>
      </trkpt>
      <trkpt lat="57.274105958640575" lon="-6.000584028661251">
        <ele>11.67</ele>
        <time>2023-08-28T08:26:52Z</time>
      </trkpt>
      <trkpt lat="57.273002984002233" lon="-5.99961600266397">
        <ele>9.27</ele>
        <time>2023-08-28T08:26:59Z</time>
      </trkpt>
      <trkpt lat="57.272854037582874" lon="-5.999420033767819">
        <ele>9.27</ele>
        <time>2023-08-28T08:27:00Z</time>
      </trkpt>
      <trkpt lat="57.27181501686573" lon="-5.997634017840028">
        <ele>7.83</ele>
        <time>2023-08-28T08:27:06Z</time>
      </trkpt>
      <trkpt lat="57.270811032503843" lon="-5.995955038815737">
        <ele>7.35</ele>
        <time>2023-08-28T08:27:12Z</time>
      </trkpt>
      <trkpt lat="57.270185993984342" lon="-5.994354011490941">
        <ele>7.83</ele>
        <time>2023-08-28T08:27:17Z</time>
      </trkpt>
      <trkpt lat="57.270105024799705" lon="-5.994020998477936">
        <ele>7.83</ele>
        <time>2023-08-28T08:27:18Z</time>
      </trkpt>
      <trkpt lat="57.270029000937939" lon="-5.993675999343395">
        <ele>7.83</ele>
        <time>2023-08-28T08:27:19Z</time>
      </trkpt>
      <trkpt lat="57.269996982067823" lon="-5.993311973288655">
        <ele>7.83</ele>
        <time>2023-08-28T08:27:20Z</time>
      </trkpt>
      <trkpt lat="57.269970998167992" lon="-5.992947025224567">
        <ele>8.310000000000001</ele>
        <time>2023-08-28T08:27:21Z</time>
      </trkpt>
      <trkpt lat="57.269977033138275" lon="-5.992581993341446">
        <ele>8.310000000000001</ele>
        <time>2023-08-28T08:27:22Z</time>
      </trkpt>
      <trkpt lat="57.270003017038107" lon="-5.990374032407999">
        <ele>6.87</ele>
        <time>2023-08-28T08:27:29Z</time>
      </trkpt>
      <trkpt lat="57.269950965419412" lon="-5.989632988348603">
        <ele>6.87</ele>
        <time>2023-08-28T08:27:30Z</time>
      </trkpt>
      <trkpt lat="57.269901009276509" lon="-5.98925999365747">
        <ele>6.87</ele>
        <time>2023-08-28T08:27:31Z</time>
      </trkpt>
      <trkpt lat="57.26981702260673" lon="-5.98889596760273">
        <ele>6.87</ele>
        <time>2023-08-28T08:27:32Z</time>
      </trkpt>
      <trkpt lat="57.269719960168004" lon="-5.988548034802079">
        <ele>6.87</ele>
        <time>2023-08-28T08:27:33Z</time>
      </trkpt>
      <trkpt lat="57.269617030397058" lon="-5.988193983212113">
        <ele>7.35</ele>
        <time>2023-08-28T08:27:34Z</time>
      </trkpt>
      <trkpt lat="57.269477974623442" lon="-5.987899024039507">
        <ele>7.35</ele>
        <time>2023-08-28T08:27:35Z</time>
      </trkpt>
      <trkpt lat="57.269336991012096" lon="-5.987599035724998">
        <ele>7.83</ele>
        <time>2023-08-28T08:27:36Z</time>
      </trkpt>
      <trkpt lat="57.267798995599151" lon="-5.984393041580916">
        <ele>9.27</ele>
        <time>2023-08-28T08:27:47Z</time>
      </trkpt>
      <trkpt lat="57.267694976180792" lon="-5.984093975275755">
        <ele>9.27</ele>
        <time>2023-08-28T08:27:48Z</time>
      </trkpt>
      <trkpt lat="57.267619036138058" lon="-5.983714023604989">
        <ele>9.27</ele>
        <time>2023-08-28T08:27:49Z</time>
      </trkpt>
      <trkpt lat="57.267548041418195" lon="-5.983357038348913">
        <ele>9.27</ele>
        <time>2023-08-28T08:27:50Z</time>
      </trkpt>
      <trkpt lat="57.267508981749415" lon="-5.982985971495509">
        <ele>9.27</ele>
        <time>2023-08-28T08:27:51Z</time>
      </trkpt>
      <trkpt lat="57.267222991213202" lon="-5.979602029547095">
        <ele>9.75</ele>
        <time>2023-08-28T08:28:00Z</time>
      </trkpt>
      <trkpt lat="57.267222991213202" lon="-5.979218976572156">
        <ele>9.75</ele>
        <time>2023-08-28T08:28:01Z</time>
      </trkpt>
      <trkpt lat="57.267229026183486" lon="-5.978836007416248">
        <ele>9.27</ele>
        <time>2023-08-28T08:28:02Z</time>
      </trkpt>
      <trkpt lat="57.26728199981153" lon="-5.978465024381876">
        <ele>9.27</ele>
        <time>2023-08-28T08:28:03Z</time>
      </trkpt>
      <trkpt lat="57.267355006188154" lon="-5.978098986670375">
        <ele>8.789999999999999</ele>
        <time>2023-08-28T08:28:04Z</time>
      </trkpt>
      <trkpt lat="57.267446033656597" lon="-5.977745018899441">
        <ele>8.310000000000001</ele>
        <time>2023-08-28T08:28:05Z</time>
      </trkpt>
      <trkpt lat="57.267548041418195" lon="-5.977404965087771">
        <ele>8.310000000000001</ele>
        <time>2023-08-28T08:28:06Z</time>
      </trkpt>
      <trkpt lat="57.26766899228096" lon="-5.977083016186953">
        <ele>7.83</ele>
        <time>2023-08-28T08:28:07Z</time>
      </trkpt>
      <trkpt lat="57.267795978114009" lon="-5.976770035922527">
        <ele>7.83</ele>
        <time>2023-08-28T08:28:08Z</time>
      </trkpt>
      <trkpt lat="57.267942996695638" lon="-5.976485973224044">
        <ele>7.83</ele>
        <time>2023-08-28T08:28:09Z</time>
      </trkpt>
      <trkpt lat="57.268495028838515" lon="-5.975364977493882">
        <ele>9.75</ele>
        <time>2023-08-28T08:28:13Z</time>
      </trkpt>
      <trkpt lat="57.268597036600113" lon="-5.97505702637136">
        <ele>10.710000000000001</ele>
        <time>2023-08-28T08:28:14Z</time>
      </trkpt>
      <trkpt lat="57.268682029098272" lon="-5.97473599947989">
        <ele>11.19</ele>
        <time>2023-08-28T08:28:15Z</time>
      </trkpt>
      <trkpt lat="57.268737014383078" lon="-5.97439200617373">
        <ele>11.67</ele>
        <time>2023-08-28T08:28:16Z</time>
      </trkpt>
      <trkpt lat="57.268771966919303" lon="-5.974034015089274">
        <ele>12.15</ele>
        <time>2023-08-28T08:28:17Z</time>
      </trkpt>
      <trkpt lat="57.268802979961038" lon="-5.973666971549392">
        <ele>12.630000000000001</ele>
        <time>2023-08-28T08:28:18Z</time>
      </trkpt>
      <trkpt lat="57.268796022981405" lon="-5.973282996565104">
        <ele>12.630000000000001</ele>
        <time>2023-08-28T08:28:19Z</time>
      </trkpt>
      <trkpt lat="57.268552025780082" lon="-5.970502970740199">
        <ele>12.15</ele>
        <time>2023-08-28T08:28:26Z</time>
      </trkpt>
      <trkpt lat="57.267869990319014" lon="-5.967883039265871">
        <ele>10.23</ele>
        <time>2023-08-28T08:28:33Z</time>
      </trkpt>
      <trkpt lat="57.266685040667653" lon="-5.964245041832328">
        <ele>11.19</ele>
        <time>2023-08-28T08:28:44Z</time>
      </trkpt>
      <trkpt lat="57.26560796611011" lon="-5.960883982479572">
        <ele>12.630000000000001</ele>
        <time>2023-08-28T08:28:53Z</time>
      </trkpt>
      <trkpt lat="57.264571040868759" lon="-5.957024032250047">
        <ele>12.15</ele>
        <time>2023-08-28T08:29:03Z</time>
      </trkpt>
      <trkpt lat="57.263515004888177" lon="-5.95282000489533">
        <ele>9.27</ele>
        <time>2023-08-28T08:29:14Z</time>
      </trkpt>
      <trkpt lat="57.262785024940968" lon="-5.949313016608357">
        <ele>8.789999999999999</ele>
        <time>2023-08-28T08:29:23Z</time>
      </trkpt>
      <trkpt lat="57.261881036683917" lon="-5.946905985474587">
        <ele>10.23</ele>
        <time>2023-08-28T08:29:30Z</time>
      </trkpt>
      <trkpt lat="57.260586032643914" lon="-5.94467799179256">
        <ele>13.119999999999999</ele>
        <time>2023-08-28T08:29:38Z</time>
      </trkpt>
      <trkpt lat="57.258792975917459" lon="-5.942127965390682">
        <ele>20.809999999999999</ele>
        <time>2023-08-28T08:29:49Z</time>
      </trkpt>
      <trkpt lat="57.257040990516543" lon="-5.940405987203121">
        <ele>25.129999999999999</ele>
        <time>2023-08-28T08:29:58Z</time>
      </trkpt>
      <trkpt lat="57.255268972367048" lon="-5.938958013430238">
        <ele>26.57</ele>
        <time>2023-08-28T08:30:07Z</time>
      </trkpt>
      <trkpt lat="57.253018012270331" lon="-5.937144001945853">
        <ele>25.609999999999999</ele>
        <time>2023-08-28T08:30:20Z</time>
      </trkpt>
      <trkpt lat="57.25120902992785" lon="-5.935454964637756">
        <ele>24.170000000000002</ele>
        <time>2023-08-28T08:30:31Z</time>
      </trkpt>
      <trkpt lat="57.249611020088196" lon="-5.933267036452889">
        <ele>24.170000000000002</ele>
        <time>2023-08-28T08:30:42Z</time>
      </trkpt>
      <trkpt lat="57.248464962467551" lon="-5.931300977244973">
        <ele>21.77</ele>
        <time>2023-08-28T08:30:50Z</time>
      </trkpt>
      <trkpt lat="57.247334998100996" lon="-5.929346987977624">
        <ele>21.289999999999999</ele>
        <time>2023-08-28T08:30:57Z</time>
      </trkpt>
      <trkpt lat="57.246022978797555" lon="-5.926824035122991">
        <ele>23.690000000000001</ele>
        <time>2023-08-28T08:31:05Z</time>
      </trkpt>
      <trkpt lat="57.245150003582239" lon="-5.923969997093082">
        <ele>22.25</ele>
        <time>2023-08-28T08:31:13Z</time>
      </trkpt>
      <trkpt lat="57.245071968063712" lon="-5.923635978251696">
        <ele>21.77</ele>
        <time>2023-08-28T08:31:14Z</time>
      </trkpt>
      <trkpt lat="57.244649017229676" lon="-5.921306982636452">
        <ele>17.920000000000002</ele>
        <time>2023-08-28T08:31:22Z</time>
      </trkpt>
      <trkpt lat="57.244348023086786" lon="-5.919594978913665">
        <ele>14.08</ele>
        <time>2023-08-28T08:31:30Z</time>
      </trkpt>
      <trkpt lat="57.244133027270436" lon="-5.918413968756795">
        <ele>10.23</ele>
        <time>2023-08-28T08:31:40Z</time>
      </trkpt>
      <trkpt lat="57.243902022019029" lon="-5.917094992473722">
        <ele>9.27</ele>
        <time>2023-08-28T08:31:48Z</time>
      </trkpt>
      <trkpt lat="57.243743017315865" lon="-5.916250012814999">
        <ele>9.75</ele>
        <time>2023-08-28T08:31:52Z</time>
      </trkpt>
      <trkpt lat="57.243702029809356" lon="-5.916035016998649">
        <ele>9.75</ele>
        <time>2023-08-28T08:31:53Z</time>
      </trkpt>
      <trkpt lat="57.243445040658116" lon="-5.914941010996699">
        <ele>10.23</ele>
        <time>2023-08-28T08:31:59Z</time>
      </trkpt>
      <trkpt lat="57.242655968293548" lon="-5.912995990365744">
        <ele>10.23</ele>
        <time>2023-08-28T08:32:12Z</time>
      </trkpt>
      <trkpt lat="57.242497969418764" lon="-5.91270899400115">
        <ele>10.23</ele>
        <time>2023-08-28T08:32:14Z</time>
      </trkpt>
      <trkpt lat="57.241794979199767" lon="-5.911145014688373">
        <ele>6.87</ele>
        <time>2023-08-28T08:32:23Z</time>
      </trkpt>
      <trkpt lat="57.241314025595784" lon="-5.909093962982297">
        <ele>6.87</ele>
        <time>2023-08-28T08:32:33Z</time>
      </trkpt>
      <trkpt lat="57.241085032001138" lon="-5.906861023977399">
        <ele>8.789999999999999</ele>
        <time>2023-08-28T08:32:43Z</time>
      </trkpt>
      <trkpt lat="57.240822007879615" lon="-5.904595982283354">
        <ele>9.27</ele>
        <time>2023-08-28T08:32:53Z</time>
      </trkpt>
      <trkpt lat="57.240375000983477" lon="-5.901840012520552">
        <ele>10.23</ele>
        <time>2023-08-28T08:33:05Z</time>
      </trkpt>
      <trkpt lat="57.239610990509391" lon="-5.899513028562069">
        <ele>8.789999999999999</ele>
        <time>2023-08-28T08:33:16Z</time>
      </trkpt>
      <trkpt lat="57.238866006955504" lon="-5.897717960178852">
        <ele>9.27</ele>
        <time>2023-08-28T08:33:26Z</time>
      </trkpt>
      <trkpt lat="57.23816704005003" lon="-5.895539000630379">
        <ele>13.6</ele>
        <time>2023-08-28T08:33:37Z</time>
      </trkpt>
      <trkpt lat="57.238082969561219" lon="-5.895183021202683">
        <ele>13.6</ele>
        <time>2023-08-28T08:33:39Z</time>
      </trkpt>
      <trkpt lat="57.238057991489768" lon="-5.894825030118227">
        <ele>13.6</ele>
        <time>2023-08-28T08:33:41Z</time>
      </trkpt>
      <trkpt lat="57.238010969012976" lon="-5.892715975642204">
        <ele>11.19</ele>
        <time>2023-08-28T08:33:51Z</time>
      </trkpt>
      <trkpt lat="57.237918013706803" lon="-5.890061007812619">
        <ele>9.27</ele>
        <time>2023-08-28T08:34:02Z</time>
      </trkpt>
      <trkpt lat="57.237770995125175" lon="-5.887426994740963">
        <ele>10.23</ele>
        <time>2023-08-28T08:34:15Z</time>
      </trkpt>
      <trkpt lat="57.237734030932188" lon="-5.885812975466251">
        <ele>8.310000000000001</ele>
        <time>2023-08-28T08:34:23Z</time>
      </trkpt>
      <trkpt lat="57.237762026488781" lon="-5.885612983256578">
        <ele>8.310000000000001</ele>
        <time>2023-08-28T08:34:24Z</time>
      </trkpt>
      <trkpt lat="57.237789016216993" lon="-5.885418020188808">
        <ele>8.310000000000001</ele>
        <time>2023-08-28T08:34:25Z</time>
      </trkpt>
      <trkpt lat="57.238279022276402" lon="-5.883048037067056">
        <ele>8.310000000000001</ele>
        <time>2023-08-28T08:34:37Z</time>
      </trkpt>
      <trkpt lat="57.238297965377569" lon="-5.882857013493776">
        <ele>8.310000000000001</ele>
        <time>2023-08-28T08:34:38Z</time>
      </trkpt>
      <trkpt lat="57.238282961770892" lon="-5.882603963837028">
        <ele>8.310000000000001</ele>
        <time>2023-08-28T08:34:39Z</time>
      </trkpt>
      <trkpt lat="57.238268963992596" lon="-5.882374970242381">
        <ele>8.310000000000001</ele>
        <time>2023-08-28T08:34:40Z</time>
      </trkpt>
      <trkpt lat="57.238253960385919" lon="-5.882142037153244">
        <ele>8.310000000000001</ele>
        <time>2023-08-28T08:34:41Z</time>
      </trkpt>
      <trkpt lat="57.238211967051029" lon="-5.881912959739566">
        <ele>8.310000000000001</ele>
        <time>2023-08-28T08:34:42Z</time>
      </trkpt>
      <trkpt lat="57.238150024786592" lon="-5.881700981408358">
        <ele>8.310000000000001</ele>
        <time>2023-08-28T08:34:43Z</time>
      </trkpt>
      <trkpt lat="57.238087998703122" lon="-5.881485985592008">
        <ele>8.310000000000001</ele>
        <time>2023-08-28T08:34:44Z</time>
      </trkpt>
      <trkpt lat="57.238010969012976" lon="-5.881303008645773">
        <ele>8.789999999999999</ele>
        <time>2023-08-28T08:34:45Z</time>
      </trkpt>
      <trkpt lat="57.237918013706803" lon="-5.881127994507551">
        <ele>8.789999999999999</ele>
        <time>2023-08-28T08:34:46Z</time>
      </trkpt>
      <trkpt lat="57.237824974581599" lon="-5.880954992026091">
        <ele>9.27</ele>
        <time>2023-08-28T08:34:47Z</time>
      </trkpt>
      <trkpt lat="57.237733025103807" lon="-5.880782995373011">
        <ele>9.75</ele>
        <time>2023-08-28T08:34:48Z</time>
      </trkpt>
      <trkpt lat="57.236984018236399" lon="-5.879640961065888">
        <ele>13.6</ele>
        <time>2023-08-28T08:34:55Z</time>
      </trkpt>
      <trkpt lat="57.236899025738239" lon="-5.879422025755048">
        <ele>14.08</ele>
        <time>2023-08-28T08:34:56Z</time>
      </trkpt>
      <trkpt lat="57.23681696690619" lon="-5.879207029938698">
        <ele>14.56</ele>
        <time>2023-08-28T08:34:57Z</time>
      </trkpt>
      <trkpt lat="57.236775979399681" lon="-5.878959009423852">
        <ele>15.039999999999999</ele>
        <time>2023-08-28T08:34:58Z</time>
      </trkpt>
      <trkpt lat="57.236735997721553" lon="-5.878719035536051">
        <ele>15.52</ele>
        <time>2023-08-28T08:34:59Z</time>
      </trkpt>
      <trkpt lat="57.236739015206695" lon="-5.878467997536063">
        <ele>16</ele>
        <time>2023-08-28T08:35:00Z</time>
      </trkpt>
      <trkpt lat="57.236747983843088" lon="-5.878216959536076">
        <ele>16</ele>
        <time>2023-08-28T08:35:01Z</time>
      </trkpt>
      <trkpt lat="57.236757958307862" lon="-5.877963993698359">
        <ele>16.48</ele>
        <time>2023-08-28T08:35:02Z</time>
      </trkpt>
      <trkpt lat="57.236869018524885" lon="-5.875690989196301">
        <ele>16.960000000000001</ele>
        <time>2023-08-28T08:35:11Z</time>
      </trkpt>
      <trkpt lat="57.236854014918208" lon="-5.875465013086796">
        <ele>16.960000000000001</ele>
        <time>2023-08-28T08:35:12Z</time>
      </trkpt>
      <trkpt lat="57.23683699965477" lon="-5.875234007835388">
        <ele>16.960000000000001</ele>
        <time>2023-08-28T08:35:13Z</time>
      </trkpt>
      <trkpt lat="57.236769022420049" lon="-5.875035021454096">
        <ele>16.960000000000001</ele>
        <time>2023-08-28T08:35:14Z</time>
      </trkpt>
      <trkpt lat="57.236699033528566" lon="-5.874828994274139">
        <ele>16.960000000000001</ele>
        <time>2023-08-28T08:35:15Z</time>
      </trkpt>
      <trkpt lat="57.236627032980323" lon="-5.874620033428073">
        <ele>16.960000000000001</ele>
        <time>2023-08-28T08:35:16Z</time>
      </trkpt>
      <trkpt lat="57.236097967252135" lon="-5.87323903106153">
        <ele>20.32</ele>
        <time>2023-08-28T08:35:23Z</time>
      </trkpt>
      <trkpt lat="57.236064020544291" lon="-5.873028980568051">
        <ele>20.809999999999999</ele>
        <time>2023-08-28T08:35:24Z</time>
      </trkpt>
      <trkpt lat="57.236029990017414" lon="-5.872814990580082">
        <ele>20.809999999999999</ele>
        <time>2023-08-28T08:35:25Z</time>
      </trkpt>
      <trkpt lat="57.236008029431105" lon="-5.872594965621829">
        <ele>21.289999999999999</ele>
        <time>2023-08-28T08:35:26Z</time>
      </trkpt>
      <trkpt lat="57.236038036644459" lon="-5.872367983683944">
        <ele>21.289999999999999</ele>
        <time>2023-08-28T08:35:27Z</time>
      </trkpt>
      <trkpt lat="57.236067960038781" lon="-5.872133960947394">
        <ele>21.289999999999999</ele>
        <time>2023-08-28T08:35:28Z</time>
      </trkpt>
      <trkpt lat="57.236433997750282" lon="-5.869296016171575">
        <ele>17.920000000000002</ele>
        <time>2023-08-28T08:35:38Z</time>
      </trkpt>
      <trkpt lat="57.236755024641752" lon="-5.866799969226122">
        <ele>14.56</ele>
        <time>2023-08-28T08:35:47Z</time>
      </trkpt>
      <trkpt lat="57.237186022102833" lon="-5.863461960107088">
        <ele>18.879999999999999</ele>
        <time>2023-08-28T08:35:59Z</time>
      </trkpt>
      <trkpt lat="57.237387020140886" lon="-5.861900998279452">
        <ele>19.359999999999999</ele>
        <time>2023-08-28T08:36:07Z</time>
      </trkpt>
      <trkpt lat="57.23754501901567" lon="-5.860675983130932">
        <ele>20.32</ele>
        <time>2023-08-28T08:36:14Z</time>
      </trkpt>
      <trkpt lat="57.237819023430347" lon="-5.85854597389698">
        <ele>25.129999999999999</ele>
        <time>2023-08-28T08:36:23Z</time>
      </trkpt>
      <trkpt lat="57.23812404088676" lon="-5.855988990515471">
        <ele>28.98</ele>
        <time>2023-08-28T08:36:33Z</time>
      </trkpt>
      <trkpt lat="57.2385139670223" lon="-5.852439003065229">
        <ele>34.740000000000002</ele>
        <time>2023-08-28T08:36:46Z</time>
      </trkpt>
      <trkpt lat="57.238906994462013" lon="-5.849887970834971">
        <ele>38.590000000000003</ele>
        <time>2023-08-28T08:36:56Z</time>
      </trkpt>
      <trkpt lat="57.239442011341453" lon="-5.846864031627774">
        <ele>38.109999999999999</ele>
        <time>2023-08-28T08:37:07Z</time>
      </trkpt>
      <trkpt lat="57.239812994375825" lon="-5.844404026865959">
        <ele>41.469999999999999</ele>
        <time>2023-08-28T08:37:17Z</time>
      </trkpt>
      <trkpt lat="57.239861022680998" lon="-5.844165980815888">
        <ele>41.950000000000003</ele>
        <time>2023-08-28T08:37:18Z</time>
      </trkpt>
      <trkpt lat="57.239941991865635" lon="-5.843958025798202">
        <ele>41.950000000000003</ele>
        <time>2023-08-28T08:37:19Z</time>
      </trkpt>
      <trkpt lat="57.240025978535414" lon="-5.84374101832509">
        <ele>42.439999999999998</ele>
        <time>2023-08-28T08:37:20Z</time>
      </trkpt>
      <trkpt lat="57.240113988518715" lon="-5.843515964224935">
        <ele>42.920000000000002</ele>
        <time>2023-08-28T08:37:21Z</time>
      </trkpt>
      <trkpt lat="57.240228988230228" lon="-5.843308009207249">
        <ele>42.920000000000002</ele>
        <time>2023-08-28T08:37:22Z</time>
      </trkpt>
      <trkpt lat="57.240609023720026" lon="-5.842721024528146">
        <ele>43.399999999999999</ele>
        <time>2023-08-28T08:37:25Z</time>
      </trkpt>
      <trkpt lat="57.240758975967765" lon="-5.842565959319472">
        <ele>43.399999999999999</ele>
        <time>2023-08-28T08:37:26Z</time>
      </trkpt>
      <trkpt lat="57.240914041176438" lon="-5.842421958222985">
        <ele>43.399999999999999</ele>
        <time>2023-08-28T08:37:27Z</time>
      </trkpt>
      <trkpt lat="57.241070028394461" lon="-5.842286003753543">
        <ele>43.399999999999999</ele>
        <time>2023-08-28T08:37:28Z</time>
      </trkpt>
      <trkpt lat="57.241222998127341" lon="-5.84215197712183">
        <ele>43.399999999999999</ele>
        <time>2023-08-28T08:37:29Z</time>
      </trkpt>
      <trkpt lat="57.241365993395448" lon="-5.842028008773923">
        <ele>43.399999999999999</ele>
        <time>2023-08-28T08:37:30Z</time>
      </trkpt>
      <trkpt lat="57.241978039965034" lon="-5.841437000781298">
        <ele>42.439999999999998</ele>
        <time>2023-08-28T08:37:35Z</time>
      </trkpt>
      <trkpt lat="57.242096979171038" lon="-5.841283025220037">
        <ele>41.950000000000003</ele>
        <time>2023-08-28T08:37:36Z</time>
      </trkpt>
      <trkpt lat="57.243253011256456" lon="-5.839945022016764">
        <ele>38.109999999999999</ele>
        <time>2023-08-28T08:37:45Z</time>
      </trkpt>
      <trkpt lat="57.243350995704532" lon="-5.839749975129962">
        <ele>37.630000000000003</ele>
        <time>2023-08-28T08:37:46Z</time>
      </trkpt>
      <trkpt lat="57.243445040658116" lon="-5.839540008455515">
        <ele>37.149999999999999</ele>
        <time>2023-08-28T08:37:47Z</time>
      </trkpt>
      <trkpt lat="57.243525004014373" lon="-5.839297017082572">
        <ele>36.670000000000002</ele>
        <time>2023-08-28T08:37:48Z</time>
      </trkpt>
      <trkpt lat="57.24360597319901" lon="-5.839045979082584">
        <ele>36.189999999999998</ele>
        <time>2023-08-28T08:37:49Z</time>
      </trkpt>
      <trkpt lat="57.244543991982937" lon="-5.835806960240006">
        <ele>33.299999999999997</ele>
        <time>2023-08-28T08:38:02Z</time>
      </trkpt>
      <trkpt lat="57.245347984135151" lon="-5.833131959661841">
        <ele>31.379999999999999</ele>
        <time>2023-08-28T08:38:14Z</time>
      </trkpt>
      <trkpt lat="57.246445007622242" lon="-5.830668015405536">
        <ele>29.460000000000001</ele>
        <time>2023-08-28T08:38:25Z</time>
      </trkpt>
      <trkpt lat="57.247547982260585" lon="-5.82848503254354">
        <ele>28.5</ele>
        <time>2023-08-28T08:38:35Z</time>
      </trkpt>
      <trkpt lat="57.248665038496256" lon="-5.82636097446084">
        <ele>28.98</ele>
        <time>2023-08-28T08:38:45Z</time>
      </trkpt>
      <trkpt lat="57.249812018126249" lon="-5.824180003255606">
        <ele>28.5</ele>
        <time>2023-08-28T08:38:55Z</time>
      </trkpt>
      <trkpt lat="57.250720029696822" lon="-5.822215033695102">
        <ele>28.02</ele>
        <time>2023-08-28T08:39:02Z</time>
      </trkpt>
      <trkpt lat="57.251821998506784" lon="-5.819455962628126">
        <ele>26.09</ele>
        <time>2023-08-28T08:39:10Z</time>
      </trkpt>
      <trkpt lat="57.253516986966133" lon="-5.814607031643391">
        <ele>23.690000000000001</ele>
        <time>2023-08-28T08:39:24Z</time>
      </trkpt>
      <trkpt lat="57.255160007625818" lon="-5.809367001056671">
        <ele>22.73</ele>
        <time>2023-08-28T08:39:39Z</time>
      </trkpt>
      <trkpt lat="57.256824988871813" lon="-5.805183006450534">
        <ele>23.210000000000001</ele>
        <time>2023-08-28T08:39:52Z</time>
      </trkpt>
      <trkpt lat="57.258777972310781" lon="-5.801120968535543">
        <ele>25.129999999999999</ele>
        <time>2023-08-28T08:40:05Z</time>
      </trkpt>
      <trkpt lat="57.259876001626253" lon="-5.798585023730993">
        <ele>25.609999999999999</ele>
        <time>2023-08-28T08:40:13Z</time>
      </trkpt>
      <trkpt lat="57.26072802208364" lon="-5.796407992020249">
        <ele>23.690000000000001</ele>
        <time>2023-08-28T08:40:19Z</time>
      </trkpt>
      <trkpt lat="57.261881036683917" lon="-5.793160004541278">
        <ele>20.32</ele>
        <time>2023-08-28T08:40:26Z</time>
      </trkpt>
      <trkpt lat="57.262921985238791" lon="-5.790090970695019">
        <ele>21.289999999999999</ele>
        <time>2023-08-28T08:40:34Z</time>
      </trkpt>
      <trkpt lat="57.264447994530201" lon="-5.785338012501597">
        <ele>27.530000000000001</ele>
        <time>2023-08-28T08:40:47Z</time>
      </trkpt>
      <trkpt lat="57.265632022172213" lon="-5.780721008777618">
        <ele>31.859999999999999</ele>
        <time>2023-08-28T08:40:59Z</time>
      </trkpt>
      <trkpt lat="57.266600970178843" lon="-5.776459984481335">
        <ele>34.259999999999998</ele>
        <time>2023-08-28T08:41:10Z</time>
      </trkpt>
      <trkpt lat="57.267116038128734" lon="-5.773460017517209">
        <ele>36.189999999999998</ele>
        <time>2023-08-28T08:41:18Z</time>
      </trkpt>
      <trkpt lat="57.267308989539742" lon="-5.770318983122706">
        <ele>37.630000000000003</ele>
        <time>2023-08-28T08:41:26Z</time>
      </trkpt>
      <trkpt lat="57.267030961811543" lon="-5.766347972676158">
        <ele>39.07</ele>
        <time>2023-08-28T08:41:36Z</time>
      </trkpt>
      <trkpt lat="57.266719993203878" lon="-5.763502987101674">
        <ele>38.109999999999999</ele>
        <time>2023-08-28T08:41:43Z</time>
      </trkpt>
      <trkpt lat="57.266786964610219" lon="-5.761072989553213">
        <ele>36.189999999999998</ele>
        <time>2023-08-28T08:41:49Z</time>
      </trkpt>
      <trkpt lat="57.267276970669627" lon="-5.758737036958337">
        <ele>33.299999999999997</ele>
        <time>2023-08-28T08:41:55Z</time>
      </trkpt>
      <trkpt lat="57.268322026357055" lon="-5.756451962515712">
        <ele>31.859999999999999</ele>
        <time>2023-08-28T08:42:02Z</time>
      </trkpt>
      <trkpt lat="57.269865972921252" lon="-5.753905037418008">
        <ele>31.859999999999999</ele>
        <time>2023-08-28T08:42:11Z</time>
      </trkpt>
      <trkpt lat="57.270713970065117" lon="-5.751839987933636">
        <ele>33.299999999999997</ele>
        <time>2023-08-28T08:42:18Z</time>
      </trkpt>
      <trkpt lat="57.271425006911159" lon="-5.749532030895352">
        <ele>35.229999999999997</ele>
        <time>2023-08-28T08:42:27Z</time>
      </trkpt>
      <trkpt lat="57.271947031840682" lon="-5.747017962858081">
        <ele>33.299999999999997</ele>
        <time>2023-08-28T08:42:37Z</time>
      </trkpt>
      <trkpt lat="57.272408036515117" lon="-5.74520998634398">
        <ele>29.940000000000001</ele>
        <time>2023-08-28T08:42:46Z</time>
      </trkpt>
      <trkpt lat="57.272441983222961" lon="-5.745100015774369">
        <ele>29.460000000000001</ele>
        <time>2023-08-28T08:42:47Z</time>
      </trkpt>
      <trkpt lat="57.272469978779554" lon="-5.745007982477546">
        <ele>28.98</ele>
        <time>2023-08-28T08:42:48Z</time>
      </trkpt>
      <trkpt lat="57.272573998197913" lon="-5.744941011071205">
        <ele>28.5</ele>
        <time>2023-08-28T08:42:49Z</time>
      </trkpt>
      <trkpt lat="57.272586990147829" lon="-5.744947968050838">
        <ele>27.530000000000001</ele>
        <time>2023-08-28T08:42:50Z</time>
      </trkpt>
      <trkpt lat="57.272754041478038" lon="-5.7448669988662">
        <ele>27.530000000000001</ele>
        <time>2023-08-28T08:42:51Z</time>
      </trkpt>
      <trkpt lat="57.273639002814889" lon="-5.744847971946001">
        <ele>25.129999999999999</ele>
        <time>2023-08-28T08:42:58Z</time>
      </trkpt>
      <trkpt lat="57.274964014068246" lon="-5.743908025324345">
        <ele>30.420000000000002</ele>
        <time>2023-08-28T08:43:07Z</time>
      </trkpt>
      <trkpt lat="57.277021016925573" lon="-5.742305992171168">
        <ele>38.590000000000003</ele>
        <time>2023-08-28T08:43:21Z</time>
      </trkpt>
      <trkpt lat="57.278839973732829" lon="-5.74080697260797">
        <ele>25.129999999999999</ele>
        <time>2023-08-28T08:43:32Z</time>
      </trkpt>
      <trkpt lat="57.27961203083396" lon="-5.739452037960291">
        <ele>15.52</ele>
        <time>2023-08-28T08:43:38Z</time>
      </trkpt>
      <trkpt lat="57.279705991968513" lon="-5.739140985533595">
        <ele>14.08</ele>
        <time>2023-08-28T08:43:39Z</time>
      </trkpt>
      <trkpt lat="57.280272021889687" lon="-5.736821964383125">
        <ele>7.83</ele>
        <time>2023-08-28T08:43:47Z</time>
      </trkpt>
      <trkpt lat="57.280997978523374" lon="-5.733484961092472">
        <ele>8.310000000000001</ele>
        <time>2023-08-28T08:43:59Z</time>
      </trkpt>
      <trkpt lat="57.28180599398911" lon="-5.729427030310035">
        <ele>10.23</ele>
        <time>2023-08-28T08:44:13Z</time>
      </trkpt>
      <trkpt lat="57.281836001202464" lon="-5.728799980133772">
        <ele>9.75</ele>
        <time>2023-08-28T08:44:15Z</time>
      </trkpt>
      <trkpt lat="57.281836001202464" lon="-5.728490017354488">
        <ele>9.75</ele>
        <time>2023-08-28T08:44:16Z</time>
      </trkpt>
      <trkpt lat="57.281812028959394" lon="-5.728178964927793">
        <ele>9.27</ele>
        <time>2023-08-28T08:44:17Z</time>
      </trkpt>
      <trkpt lat="57.281788978725672" lon="-5.727887023240328">
        <ele>9.27</ele>
        <time>2023-08-28T08:44:18Z</time>
      </trkpt>
      <trkpt lat="57.28176299482584" lon="-5.727608995512128">
        <ele>9.27</ele>
        <time>2023-08-28T08:44:19Z</time>
      </trkpt>
      <trkpt lat="57.281714966520667" lon="-5.727341026067734">
        <ele>9.27</ele>
        <time>2023-08-28T08:44:20Z</time>
      </trkpt>
      <trkpt lat="57.281667022034526" lon="-5.727072972804308">
        <ele>9.27</ele>
        <time>2023-08-28T08:44:21Z</time>
      </trkpt>
      <trkpt lat="57.281540036201477" lon="-5.726577015593648">
        <ele>9.27</ele>
        <time>2023-08-28T08:44:23Z</time>
      </trkpt>
      <trkpt lat="57.281458983197808" lon="-5.72634500451386">
        <ele>9.27</ele>
        <time>2023-08-28T08:44:24Z</time>
      </trkpt>
      <trkpt lat="57.280606962740421" lon="-5.724439965561032">
        <ele>9.27</ele>
        <time>2023-08-28T08:44:33Z</time>
      </trkpt>
      <trkpt lat="57.280069012194872" lon="-5.722482036799192">
        <ele>7.83</ele>
        <time>2023-08-28T08:44:41Z</time>
      </trkpt>
      <trkpt lat="57.280045039951801" lon="-5.722194034606218">
        <ele>7.83</ele>
        <time>2023-08-28T08:44:42Z</time>
      </trkpt>
      <trkpt lat="57.280020983889699" lon="-5.721910977736116">
        <ele>7.35</ele>
        <time>2023-08-28T08:44:43Z</time>
      </trkpt>
      <trkpt lat="57.280020983889699" lon="-5.721631022170186">
        <ele>6.87</ele>
        <time>2023-08-28T08:44:44Z</time>
      </trkpt>
      <trkpt lat="57.280036993324757" lon="-5.721352994441986">
        <ele>6.87</ele>
        <time>2023-08-28T08:44:45Z</time>
      </trkpt>
      <trkpt lat="57.280051996931434" lon="-5.721087958663702">
        <ele>6.87</ele>
        <time>2023-08-28T08:44:46Z</time>
      </trkpt>
      <trkpt lat="57.28006599470973" lon="-5.72084597311914">
        <ele>6.87</ele>
        <time>2023-08-28T08:44:47Z</time>
      </trkpt>
      <trkpt lat="57.280083009973168" lon="-5.720625026151538">
        <ele>6.87</ele>
        <time>2023-08-28T08:44:48Z</time>
      </trkpt>
      <trkpt lat="57.280336981639266" lon="-5.719495983794332">
        <ele>8.310000000000001</ele>
        <time>2023-08-28T08:44:56Z</time>
      </trkpt>
      <trkpt lat="57.280384004116058" lon="-5.719328010454774">
        <ele>8.789999999999999</ele>
        <time>2023-08-28T08:45:05Z</time>
      </trkpt>
      <trkpt lat="57.280693966895342" lon="-5.718283038586378">
        <ele>9.27</ele>
        <time>2023-08-28T08:45:12Z</time>
      </trkpt>
      <trkpt lat="57.280884990468621" lon="-5.717592034488916">
        <ele>9.27</ele>
        <time>2023-08-28T08:45:16Z</time>
      </trkpt>
      <trkpt lat="57.280955985188484" lon="-5.717092975974083">
        <ele>9.27</ele>
        <time>2023-08-28T08:45:19Z</time>
      </trkpt>
      <trkpt lat="57.280907034873962" lon="-5.715741980820894">
        <ele>7.83</ele>
        <time>2023-08-28T08:45:29Z</time>
      </trkpt>
      <trkpt lat="57.280898988246918" lon="-5.715391030535102">
        <ele>7.83</ele>
        <time>2023-08-28T08:45:32Z</time>
      </trkpt>
      <trkpt lat="57.280967971310019" lon="-5.713718002662063">
        <ele>8.789999999999999</ele>
        <time>2023-08-28T08:45:42Z</time>
      </trkpt>
      <trkpt lat="57.281144997105002" lon="-5.711451033130288">
        <ele>12.15</ele>
        <time>2023-08-28T08:45:53Z</time>
      </trkpt>
      <trkpt lat="57.281192019581795" lon="-5.709383971989155">
        <ele>10.710000000000001</ele>
        <time>2023-08-28T08:46:02Z</time>
      </trkpt>
      <trkpt lat="57.281142985448241" lon="-5.708307987079024">
        <ele>8.789999999999999</ele>
        <time>2023-08-28T08:46:06Z</time>
      </trkpt>
      <trkpt lat="57.2810950409621" lon="-5.708035994321108">
        <ele>8.789999999999999</ele>
        <time>2023-08-28T08:46:07Z</time>
      </trkpt>
      <trkpt lat="57.2808170132339" lon="-5.706453993916512">
        <ele>10.23</ele>
        <time>2023-08-28T08:46:14Z</time>
      </trkpt>
      <trkpt lat="57.280683992430568" lon="-5.704248966649175">
        <ele>17.440000000000001</ele>
        <time>2023-08-28T08:46:22Z</time>
      </trkpt>
      <trkpt lat="57.280690027400851" lon="-5.703906984999776">
        <ele>18.399999999999999</ele>
        <time>2023-08-28T08:46:23Z</time>
      </trkpt>
      <trkpt lat="57.280696984380484" lon="-5.703557962551713">
        <ele>19.359999999999999</ele>
        <time>2023-08-28T08:46:24Z</time>
      </trkpt>
      <trkpt lat="57.280739983543754" lon="-5.703214975073934">
        <ele>20.809999999999999</ele>
        <time>2023-08-28T08:46:25Z</time>
      </trkpt>
      <trkpt lat="57.28079698048532" lon="-5.702865030616522">
        <ele>22.25</ele>
        <time>2023-08-28T08:46:26Z</time>
      </trkpt>
      <trkpt lat="57.280862024053931" lon="-5.702513996511698">
        <ele>23.690000000000001</ele>
        <time>2023-08-28T08:46:27Z</time>
      </trkpt>
      <trkpt lat="57.280938969925046" lon="-5.702154999598861">
        <ele>25.129999999999999</ele>
        <time>2023-08-28T08:46:28Z</time>
      </trkpt>
      <trkpt lat="57.281084982678294" lon="-5.701474975794554">
        <ele>28.5</ele>
        <time>2023-08-28T08:46:30Z</time>
      </trkpt>
      <trkpt lat="57.281122030690312" lon="-5.701152021065354">
        <ele>29.460000000000001</ele>
        <time>2023-08-28T08:46:31Z</time>
      </trkpt>
      <trkpt lat="57.281156983226538" lon="-5.700839040800929">
        <ele>30.899999999999999</ele>
        <time>2023-08-28T08:46:32Z</time>
      </trkpt>
      <trkpt lat="57.281167041510344" lon="-5.700516002252698">
        <ele>32.340000000000003</ele>
        <time>2023-08-28T08:46:33Z</time>
      </trkpt>
      <trkpt lat="57.281160000711679" lon="-5.700185000896454">
        <ele>33.299999999999997</ele>
        <time>2023-08-28T08:46:34Z</time>
      </trkpt>
      <trkpt lat="57.281153965741396" lon="-5.699850982055068">
        <ele>34.259999999999998</ele>
        <time>2023-08-28T08:46:35Z</time>
      </trkpt>
      <trkpt lat="57.281127981841564" lon="-5.698450030758977">
        <ele>37.149999999999999</ele>
        <time>2023-08-28T08:46:39Z</time>
      </trkpt>
      <trkpt lat="57.281556967645884" lon="-5.695489039644599">
        <ele>37.149999999999999</ele>
        <time>2023-08-28T08:46:48Z</time>
      </trkpt>
      <trkpt lat="57.281675990670919" lon="-5.695214029401541">
        <ele>36.670000000000002</ele>
        <time>2023-08-28T08:46:49Z</time>
      </trkpt>
      <trkpt lat="57.281797025352716" lon="-5.694932984188199">
        <ele>36.189999999999998</ele>
        <time>2023-08-28T08:46:50Z</time>
      </trkpt>
      <trkpt lat="57.281943038105965" lon="-5.694690998643637">
        <ele>35.229999999999997</ele>
        <time>2023-08-28T08:46:51Z</time>
      </trkpt>
      <trkpt lat="57.282101958990097" lon="-5.694463010877371">
        <ele>34.259999999999998</ele>
        <time>2023-08-28T08:46:52Z</time>
      </trkpt>
      <trkpt lat="57.282931013032794" lon="-5.692928032949567">
        <ele>26.57</ele>
        <time>2023-08-28T08:46:58Z</time>
      </trkpt>
      <trkpt lat="57.283023968338966" lon="-5.692641958594322">
        <ele>25.129999999999999</ele>
        <time>2023-08-28T08:46:59Z</time>
      </trkpt>
      <trkpt lat="57.283102003857493" lon="-5.692355968058109">
        <ele>24.170000000000002</ele>
        <time>2023-08-28T08:47:00Z</time>
      </trkpt>
      <trkpt lat="57.28313704021275" lon="-5.692019015550613">
        <ele>22.73</ele>
        <time>2023-08-28T08:47:01Z</time>
      </trkpt>
      <trkpt lat="57.283170986920595" lon="-5.69168902002275">
        <ele>21.77</ele>
        <time>2023-08-28T08:47:02Z</time>
      </trkpt>
      <trkpt lat="57.283209040760994" lon="-5.691325999796391">
        <ele>20.809999999999999</ele>
        <time>2023-08-28T08:47:03Z</time>
      </trkpt>
      <trkpt lat="57.283180961385369" lon="-5.69100396707654">
        <ele>19.359999999999999</ele>
        <time>2023-08-28T08:47:04Z</time>
      </trkpt>
      <trkpt lat="57.283149026334286" lon="-5.690649999305606">
        <ele>18.399999999999999</ele>
        <time>2023-08-28T08:47:05Z</time>
      </trkpt>
      <trkpt lat="57.283078031614423" lon="-5.69031497463584">
        <ele>17.920000000000002</ele>
        <time>2023-08-28T08:47:06Z</time>
      </trkpt>
      <trkpt lat="57.282998990267515" lon="-5.689984979107976">
        <ele>16.960000000000001</ele>
        <time>2023-08-28T08:47:07Z</time>
      </trkpt>
      <trkpt lat="57.28292103856802" lon="-5.689656995236874">
        <ele>16.48</ele>
        <time>2023-08-28T08:47:08Z</time>
      </trkpt>
      <trkpt lat="57.281847987323999" lon="-5.685240989550948">
        <ele>13.119999999999999</ele>
        <time>2023-08-28T08:47:21Z</time>
      </trkpt>
      <trkpt lat="57.281200988218188" lon="-5.681545995175839">
        <ele>11.67</ele>
        <time>2023-08-28T08:47:31Z</time>
      </trkpt>
      <trkpt lat="57.281141979619861" lon="-5.678965961560607">
        <ele>13.6</ele>
        <time>2023-08-28T08:47:39Z</time>
      </trkpt>
      <trkpt lat="57.281467029824853" lon="-5.675786035135388">
        <ele>14.08</ele>
        <time>2023-08-28T08:47:46Z</time>
      </trkpt>
      <trkpt lat="57.281954018399119" lon="-5.672321962192655">
        <ele>17.440000000000001</ele>
        <time>2023-08-28T08:47:55Z</time>
      </trkpt>
      <trkpt lat="57.282368000596762" lon="-5.669242031872273">
        <ele>23.690000000000001</ele>
        <time>2023-08-28T08:48:03Z</time>
      </trkpt>
      <trkpt lat="57.282603029161692" lon="-5.665470007807016">
        <ele>35.710000000000001</ele>
        <time>2023-08-28T08:48:12Z</time>
      </trkpt>
      <trkpt lat="57.28313896805048" lon="-5.662622004747391">
        <ele>43.880000000000003</ele>
        <time>2023-08-28T08:48:19Z</time>
      </trkpt>
      <trkpt lat="57.283968022093177" lon="-5.66055997274816">
        <ele>46.280000000000001</ele>
        <time>2023-08-28T08:48:25Z</time>
      </trkpt>
      <trkpt lat="57.285752026364207" lon="-5.656929016113281">
        <ele>44.840000000000003</ele>
        <time>2023-08-28T08:48:37Z</time>
      </trkpt>
      <trkpt lat="57.287295972928405" lon="-5.653740959241986">
        <ele>46.280000000000001</ele>
        <time>2023-08-28T08:48:48Z</time>
      </trkpt>
      <trkpt lat="57.28758598677814" lon="-5.653109969571233">
        <ele>45.32</ele>
        <time>2023-08-28T08:48:50Z</time>
      </trkpt>
      <trkpt lat="57.288205996155739" lon="-5.650409990921617">
        <ele>36.670000000000002</ele>
        <time>2023-08-28T08:48:57Z</time>
      </trkpt>
      <trkpt lat="57.288246983662248" lon="-5.647918973118067">
        <ele>27.530000000000001</ele>
        <time>2023-08-28T08:49:03Z</time>
      </trkpt>
      <trkpt lat="57.287797965109348" lon="-5.644565960392356">
        <ele>14.08</ele>
        <time>2023-08-28T08:49:11Z</time>
      </trkpt>
      <trkpt lat="57.287721019238234" lon="-5.644177962094545">
        <ele>12.630000000000001</ele>
        <time>2023-08-28T08:49:12Z</time>
      </trkpt>
      <trkpt lat="57.287524966523051" lon="-5.643468014895916">
        <ele>9.75</ele>
        <time>2023-08-28T08:49:14Z</time>
      </trkpt>
      <trkpt lat="57.287256997078657" lon="-5.642868960276246">
        <ele>7.35</ele>
        <time>2023-08-28T08:49:16Z</time>
      </trkpt>
      <trkpt lat="57.28711299598217" lon="-5.642586993053556">
        <ele>5.91</ele>
        <time>2023-08-28T08:49:17Z</time>
      </trkpt>
      <trkpt lat="57.286786017939448" lon="-5.642110984772444">
        <ele>4.46</ele>
        <time>2023-08-28T08:49:19Z</time>
      </trkpt>
      <trkpt lat="57.286607986316085" lon="-5.641895988956094">
        <ele>3.98</ele>
        <time>2023-08-28T08:49:20Z</time>
      </trkpt>
      <trkpt lat="57.284773020073771" lon="-5.640052976086736">
        <ele>1.1</ele>
        <time>2023-08-28T08:49:30Z</time>
      </trkpt>
      <trkpt lat="57.283916976302862" lon="-5.639127027243376">
        <ele>0.14</ele>
        <time>2023-08-28T08:49:36Z</time>
      </trkpt>
      <trkpt lat="57.283788984641433" lon="-5.638970034196973">
        <ele>0.14</ele>
        <time>2023-08-28T08:49:37Z</time>
      </trkpt>
      <trkpt lat="57.283672979101539" lon="-5.638771969825029">
        <ele>0.14</ele>
        <time>2023-08-28T08:49:38Z</time>
      </trkpt>
      <trkpt lat="57.283556973561645" lon="-5.638572983443737">
        <ele>0.14</ele>
        <time>2023-08-28T08:49:39Z</time>
      </trkpt>
      <trkpt lat="57.283452032133937" lon="-5.638338960707188">
        <ele>0.14</ele>
        <time>2023-08-28T08:49:40Z</time>
      </trkpt>
      <trkpt lat="57.283452032133937" lon="-5.638338960707188">
        <ele>-0.34</ele>
        <time>2023-08-28T08:49:41Z</time>
      </trkpt>
      <trkpt lat="57.283291015774012" lon="-5.637812996283174">
        <ele>-0.34</ele>
        <time>2023-08-28T08:49:42Z</time>
      </trkpt>
      <trkpt lat="57.283215997740626" lon="-5.637533962726593">
        <ele>-0.82</ele>
        <time>2023-08-28T08:49:43Z</time>
      </trkpt>
      <trkpt lat="57.283164029940963" lon="-5.637241015210748">
        <ele>-1.3</ele>
        <time>2023-08-28T08:49:44Z</time>
      </trkpt>
      <trkpt lat="57.283111978322268" lon="-5.636947983875871">
        <ele>-1.3</ele>
        <time>2023-08-28T08:49:45Z</time>
      </trkpt>
      <trkpt lat="57.282764967530966" lon="-5.6342370249331">
        <ele>-1.79</ele>
        <time>2023-08-28T08:49:55Z</time>
      </trkpt>
      <trkpt lat="57.282531028613448" lon="-5.631146030500531">
        <ele>-2.75</ele>
        <time>2023-08-28T08:50:08Z</time>
      </trkpt>
      <trkpt lat="57.282491968944669" lon="-5.62860899604857">
        <ele>-4.19</ele>
        <time>2023-08-28T08:50:19Z</time>
      </trkpt>
      <trkpt lat="57.282427009195089" lon="-5.625759987160564">
        <ele>-2.75</ele>
        <time>2023-08-28T08:50:31Z</time>
      </trkpt>
      <trkpt lat="57.282298011705279" lon="-5.622853981330991">
        <ele>-1.3</ele>
        <time>2023-08-28T08:50:41Z</time>
      </trkpt>
      <trkpt lat="57.282132972031832" lon="-5.618847012519836">
        <ele>1.58</ele>
        <time>2023-08-28T08:50:53Z</time>
      </trkpt>
      <trkpt lat="57.282273033633828" lon="-5.615200968459249">
        <ele>4.94</ele>
        <time>2023-08-28T08:51:04Z</time>
      </trkpt>
      <trkpt lat="57.282777959480882" lon="-5.610870961099863">
        <ele>6.87</ele>
        <time>2023-08-28T08:51:17Z</time>
      </trkpt>
      <trkpt lat="57.283369973301888" lon="-5.607128022238612">
        <ele>8.789999999999999</ele>
        <time>2023-08-28T08:51:28Z</time>
      </trkpt>
      <trkpt lat="57.284016972407699" lon="-5.603895960375667">
        <ele>10.710000000000001</ele>
        <time>2023-08-28T08:51:38Z</time>
      </trkpt>
      <trkpt lat="57.284274967387319" lon="-5.601339982822537">
        <ele>7.83</ele>
        <time>2023-08-28T08:51:46Z</time>
      </trkpt>
      <trkpt lat="57.284586019814014" lon="-5.598975028842688">
        <ele>4.46</ele>
        <time>2023-08-28T08:51:54Z</time>
      </trkpt>
      <trkpt lat="57.285225978121161" lon="-5.595920998603106">
        <ele>2.54</ele>
        <time>2023-08-28T08:52:05Z</time>
      </trkpt>
      <trkpt lat="57.285628980025649" lon="-5.593669032678008">
        <ele>3.02</ele>
        <time>2023-08-28T08:52:11Z</time>
      </trkpt>
      <trkpt lat="57.285904996097088" lon="-5.591945964843035">
        <ele>3.02</ele>
        <time>2023-08-28T08:52:17Z</time>
      </trkpt>
      <trkpt lat="57.28616701439023" lon="-5.589427035301924">
        <ele>3.02</ele>
        <time>2023-08-28T08:52:26Z</time>
      </trkpt>
      <trkpt lat="57.285984037443995" lon="-5.587739003822208">
        <ele>3.02</ele>
        <time>2023-08-28T08:52:31Z</time>
      </trkpt>
      <trkpt lat="57.285921005532146" lon="-5.587459970265627">
        <ele>3.02</ele>
        <time>2023-08-28T08:52:32Z</time>
      </trkpt>
      <trkpt lat="57.285454971715808" lon="-5.584852024912834">
        <ele>6.39</ele>
        <time>2023-08-28T08:52:42Z</time>
      </trkpt>
      <trkpt lat="57.285462012514472" lon="-5.582592012360692">
        <ele>5.91</ele>
        <time>2023-08-28T08:52:51Z</time>
      </trkpt>
      <trkpt lat="57.285505011677742" lon="-5.580970030277968">
        <ele>6.39</ele>
        <time>2023-08-28T08:52:59Z</time>
      </trkpt>
      <trkpt lat="57.285537030547857" lon="-5.578301986679435">
        <ele>6.87</ele>
        <time>2023-08-28T08:53:07Z</time>
      </trkpt>
      <trkpt lat="57.285261014476418" lon="-5.574636999517679">
        <ele>7.83</ele>
        <time>2023-08-28T08:53:17Z</time>
      </trkpt>
      <trkpt lat="57.285139979794621" lon="-5.573526984080672">
        <ele>7.83</ele>
        <time>2023-08-28T08:53:20Z</time>
      </trkpt>
      <trkpt lat="57.285231007263064" lon="-5.570542020723224">
        <ele>6.87</ele>
        <time>2023-08-28T08:53:28Z</time>
      </trkpt>
      <trkpt lat="57.285439968109131" lon="-5.566636975854635">
        <ele>5.91</ele>
        <time>2023-08-28T08:53:39Z</time>
      </trkpt>
      <trkpt lat="57.285450026392937" lon="-5.566084021702409">
        <ele>5.91</ele>
        <time>2023-08-28T08:53:41Z</time>
      </trkpt>
      <trkpt lat="57.285222038626671" lon="-5.563668021932244">
        <ele>1.58</ele>
        <time>2023-08-28T08:53:49Z</time>
      </trkpt>
      <trkpt lat="57.285026991739869" lon="-5.560717005282641">
        <ele>-3.23</ele>
        <time>2023-08-28T08:53:58Z</time>
      </trkpt>
      <trkpt lat="57.284866981208324" lon="-5.556757980957627">
        <ele>1.1</ele>
        <time>2023-08-28T08:54:11Z</time>
      </trkpt>
      <trkpt lat="57.284926995635033" lon="-5.554783036932349">
        <ele>2.06</ele>
        <time>2023-08-28T08:54:16Z</time>
      </trkpt>
      <trkpt lat="57.285037972033024" lon="-5.550643969327211">
        <ele>2.06</ele>
        <time>2023-08-28T08:54:25Z</time>
      </trkpt>
      <trkpt lat="57.28509396314621" lon="-5.548179019242525">
        <ele>3.02</ele>
        <time>2023-08-28T08:54:31Z</time>
      </trkpt>
      <trkpt lat="57.285154983401299" lon="-5.545507036149502">
        <ele>3.02</ele>
        <time>2023-08-28T08:54:40Z</time>
      </trkpt>
      <trkpt lat="57.285304013639688" lon="-5.542214037850499">
        <ele>3.5</ele>
        <time>2023-08-28T08:54:51Z</time>
      </trkpt>
      <trkpt lat="57.28554499335587" lon="-5.540104983374476">
        <ele>4.94</ele>
        <time>2023-08-28T08:54:56Z</time>
      </trkpt>
      <trkpt lat="57.285769963636994" lon="-5.538207991048694">
        <ele>6.39</ele>
        <time>2023-08-28T08:55:02Z</time>
      </trkpt>
      <trkpt lat="57.286048997193575" lon="-5.535854017361999">
        <ele>6.39</ele>
        <time>2023-08-28T08:55:09Z</time>
      </trkpt>
      <trkpt lat="57.28631503880024" lon="-5.533655025064945">
        <ele>7.35</ele>
        <time>2023-08-28T08:55:16Z</time>
      </trkpt>
      <trkpt lat="57.28640397079289" lon="-5.530582973733544">
        <ele>10.710000000000001</ele>
        <time>2023-08-28T08:55:27Z</time>
      </trkpt>
      <trkpt lat="57.286362983286381" lon="-5.530330007895827">
        <ele>11.19</ele>
        <time>2023-08-28T08:55:28Z</time>
      </trkpt>
      <trkpt lat="57.286315960809588" lon="-5.530083999037743">
        <ele>12.15</ele>
        <time>2023-08-28T08:55:29Z</time>
      </trkpt>
      <trkpt lat="57.286267010495067" lon="-5.529836984351277">
        <ele>12.630000000000001</ele>
        <time>2023-08-28T08:55:30Z</time>
      </trkpt>
      <trkpt lat="57.286011027172208" lon="-5.528889996930957">
        <ele>14.56</ele>
        <time>2023-08-28T08:55:34Z</time>
      </trkpt>
      <trkpt lat="57.285510040819645" lon="-5.527474964037538">
        <ele>16.960000000000001</ele>
        <time>2023-08-28T08:55:41Z</time>
      </trkpt>
      <trkpt lat="57.28487703949213" lon="-5.525762038305402">
        <ele>16.48</ele>
        <time>2023-08-28T08:55:51Z</time>
      </trkpt>
      <trkpt lat="57.284203972667456" lon="-5.52436301484704">
        <ele>14.08</ele>
        <time>2023-08-28T08:55:56Z</time>
      </trkpt>
      <trkpt lat="57.28300703689456" lon="-5.523163983598352">
        <ele>10.710000000000001</ele>
        <time>2023-08-28T08:56:02Z</time>
      </trkpt>
      <trkpt lat="57.281221020966768" lon="-5.522608011960983">
        <ele>6.39</ele>
        <time>2023-08-28T08:56:10Z</time>
      </trkpt>
      <trkpt lat="57.280139001086354" lon="-5.522175002843142">
        <ele>3.02</ele>
        <time>2023-08-28T08:56:15Z</time>
      </trkpt>
      <trkpt lat="57.279931968078017" lon="-5.522027984261513">
        <ele>2.54</ele>
        <time>2023-08-28T08:56:16Z</time>
      </trkpt>
      <trkpt lat="57.279729964211583" lon="-5.521857999265194">
        <ele>2.06</ele>
        <time>2023-08-28T08:56:17Z</time>
      </trkpt>
      <trkpt lat="57.279544975608587" lon="-5.521620037034154">
        <ele>1.58</ele>
        <time>2023-08-28T08:56:18Z</time>
      </trkpt>
      <trkpt lat="57.279360992833972" lon="-5.521384002640843">
        <ele>1.58</ele>
        <time>2023-08-28T08:56:19Z</time>
      </trkpt>
      <trkpt lat="57.279200982302427" lon="-5.521112009882927">
        <ele>1.58</ele>
        <time>2023-08-28T08:56:20Z</time>
      </trkpt>
      <trkpt lat="57.279046000912786" lon="-5.520832976326346">
        <ele>1.58</ele>
        <time>2023-08-28T08:56:21Z</time>
      </trkpt>
      <trkpt lat="57.278909962624311" lon="-5.520528964698315">
        <ele>1.58</ele>
        <time>2023-08-28T08:56:22Z</time>
      </trkpt>
      <trkpt lat="57.278785994276404" lon="-5.520209027454257">
        <ele>1.58</ele>
        <time>2023-08-28T08:56:23Z</time>
      </trkpt>
      <trkpt lat="57.277934979647398" lon="-5.517933005467057">
        <ele>2.06</ele>
        <time>2023-08-28T08:56:31Z</time>
      </trkpt>
      <trkpt lat="57.27682001888752" lon="-5.515001015737653">
        <ele>1.58</ele>
        <time>2023-08-28T08:56:42Z</time>
      </trkpt>
      <trkpt lat="57.27583397179842" lon="-5.513655971735716">
        <ele>0.14</ele>
        <time>2023-08-28T08:56:50Z</time>
      </trkpt>
      <trkpt lat="57.274691015481949" lon="-5.513032022863627">
        <ele>-1.3</ele>
        <time>2023-08-28T08:56:58Z</time>
      </trkpt>
      <trkpt lat="57.274132026359439" lon="-5.512791965156794">
        <ele>-1.3</ele>
        <time>2023-08-28T08:57:04Z</time>
      </trkpt>
      <trkpt lat="57.274082992225885" lon="-5.512771010398865">
        <ele>-1.3</ele>
        <time>2023-08-28T08:57:05Z</time>
      </trkpt>
      <trkpt lat="57.274046028032899" lon="-5.512755000963807">
        <ele>-1.3</ele>
        <time>2023-08-28T08:57:06Z</time>
      </trkpt>
      <trkpt lat="57.274033036082983" lon="-5.512871006503701">
        <ele>-1.79</ele>
        <time>2023-08-28T08:57:07Z</time>
      </trkpt>
      <trkpt lat="57.274024989455938" lon="-5.512939989566803">
        <ele>-1.79</ele>
        <time>2023-08-28T08:57:08Z</time>
      </trkpt>
      <trkpt lat="57.274016020819545" lon="-5.513012995943427">
        <ele>-2.27</ele>
        <time>2023-08-28T08:57:09Z</time>
      </trkpt>
      <trkpt lat="57.274008980020881" lon="-5.513075022026897">
        <ele>-2.27</ele>
        <time>2023-08-28T08:57:10Z</time>
      </trkpt>
      <trkpt lat="57.273961035534739" lon="-5.513163032010198">
        <ele>-2.75</ele>
        <time>2023-08-28T08:57:11Z</time>
      </trkpt>
      <trkpt lat="57.273961035534739" lon="-5.513163032010198">
        <ele>-2.75</ele>
        <time>2023-08-28T08:57:12Z</time>
      </trkpt>
      <trkpt lat="57.273918036371469" lon="-5.513136964291334">
        <ele>-3.23</ele>
        <time>2023-08-28T08:57:13Z</time>
      </trkpt>
      <trkpt lat="57.273906972259283" lon="-5.513130007311702">
        <ele>-3.71</ele>
        <time>2023-08-28T08:57:14Z</time>
      </trkpt>
      <trkpt lat="57.273894986137748" lon="-5.513121960684657">
        <ele>-3.71</ele>
        <time>2023-08-28T08:57:15Z</time>
      </trkpt>
      <trkpt lat="57.273894986137748" lon="-5.513121960684657">
        <ele>-4.19</ele>
        <time>2023-08-28T08:57:27Z</time>
      </trkpt>
      <trkpt lat="57.273894986137748" lon="-5.513121960684657">
        <ele>-3.71</ele>
        <time>2023-08-28T08:57:42Z</time>
      </trkpt>
      <trkpt lat="57.273672027513385" lon="-5.513554969802499">
        <ele>23.210000000000001</ele>
        <time>2023-08-28T10:11:55Z</time>
      </trkpt>
      <trkpt lat="57.273776968941092" lon="-5.513397976756096">
        <ele>13.119999999999999</ele>
        <time>2023-08-28T10:12:02Z</time>
      </trkpt>
      <trkpt lat="57.273856010288" lon="-5.513348020613194">
        <ele>9.75</ele>
        <time>2023-08-28T10:12:07Z</time>
      </trkpt>
      <trkpt lat="57.273895991966128" lon="-5.513377021998167">
        <ele>9.27</ele>
        <time>2023-08-28T10:12:08Z</time>
      </trkpt>
      <trkpt lat="57.273905966430902" lon="-5.513366963714361">
        <ele>8.310000000000001</ele>
        <time>2023-08-28T10:12:09Z</time>
      </trkpt>
      <trkpt lat="57.273939996957779" lon="-5.513334022834897">
        <ele>7.83</ele>
        <time>2023-08-28T10:12:10Z</time>
      </trkpt>
      <trkpt lat="57.273967992514372" lon="-5.513306027278304">
        <ele>7.35</ele>
        <time>2023-08-28T10:12:11Z</time>
      </trkpt>
      <trkpt lat="57.273981990292668" lon="-5.513291023671627">
        <ele>6.87</ele>
        <time>2023-08-28T10:12:12Z</time>
      </trkpt>
      <trkpt lat="57.274024989455938" lon="-5.513291023671627">
        <ele>6.87</ele>
        <time>2023-08-28T10:12:13Z</time>
      </trkpt>
      <trkpt lat="57.274034963920712" lon="-5.513277025893331">
        <ele>6.39</ele>
        <time>2023-08-28T10:12:14Z</time>
      </trkpt>
      <trkpt lat="57.274004034698009" lon="-5.513120032846928">
        <ele>6.39</ele>
        <time>2023-08-28T10:12:15Z</time>
      </trkpt>
      <trkpt lat="57.27400696836412" lon="-5.513090025633574">
        <ele>5.91</ele>
        <time>2023-08-28T10:12:16Z</time>
      </trkpt>
      <trkpt lat="57.27402800694108" lon="-5.512912999838591">
        <ele>4.94</ele>
        <time>2023-08-28T10:12:24Z</time>
      </trkpt>
      <trkpt lat="57.27402800694108" lon="-5.512912999838591">
        <ele>6.39</ele>
        <time>2023-08-28T10:12:38Z</time>
      </trkpt>
      <trkpt lat="57.274037981405854" lon="-5.512830018997192">
        <ele>6.87</ele>
        <time>2023-08-28T10:12:41Z</time>
      </trkpt>
      <trkpt lat="57.274044016376138" lon="-5.512780984863639">
        <ele>6.39</ele>
        <time>2023-08-28T10:12:42Z</time>
      </trkpt>
      <trkpt lat="57.27396497502923" lon="-5.512722982093692">
        <ele>6.39</ele>
        <time>2023-08-28T10:12:43Z</time>
      </trkpt>
      <trkpt lat="57.273901021108031" lon="-5.51269699819386">
        <ele>6.39</ele>
        <time>2023-08-28T10:12:44Z</time>
      </trkpt>
      <trkpt lat="57.273823991417885" lon="-5.512665985152125">
        <ele>5.91</ele>
        <time>2023-08-28T10:12:45Z</time>
      </trkpt>
      <trkpt lat="57.273737993091345" lon="-5.512632038444281">
        <ele>6.39</ele>
        <time>2023-08-28T10:12:46Z</time>
      </trkpt>
      <trkpt lat="57.27364101447165" lon="-5.512591972947121">
        <ele>5.91</ele>
        <time>2023-08-28T10:12:47Z</time>
      </trkpt>
      <trkpt lat="57.27271699346602" lon="-5.512244962155819">
        <ele>5.91</ele>
        <time>2023-08-28T10:12:55Z</time>
      </trkpt>
      <trkpt lat="57.272615991532803" lon="-5.512163992971182">
        <ele>5.91</ele>
        <time>2023-08-28T10:12:56Z</time>
      </trkpt>
      <trkpt lat="57.272510966286063" lon="-5.512080006301403">
        <ele>5.42</ele>
        <time>2023-08-28T10:12:57Z</time>
      </trkpt>
      <trkpt lat="57.272402001544833" lon="-5.511982021853328">
        <ele>5.42</ele>
        <time>2023-08-28T10:12:58Z</time>
      </trkpt>
      <trkpt lat="57.27230996824801" lon="-5.511841960251331">
        <ele>5.42</ele>
        <time>2023-08-28T10:12:59Z</time>
      </trkpt>
      <trkpt lat="57.272219024598598" lon="-5.511700976639986">
        <ele>5.42</ele>
        <time>2023-08-28T10:13:00Z</time>
      </trkpt>
      <trkpt lat="57.272124979645014" lon="-5.51153602078557">
        <ele>5.91</ele>
        <time>2023-08-28T10:13:01Z</time>
      </trkpt>
      <trkpt lat="57.272061025723815" lon="-5.511332005262375">
        <ele>5.91</ele>
        <time>2023-08-28T10:13:02Z</time>
      </trkpt>
      <trkpt lat="57.271992964670062" lon="-5.511117009446025">
        <ele>5.91</ele>
        <time>2023-08-28T10:13:03Z</time>
      </trkpt>
      <trkpt lat="57.271687025204301" lon="-5.51014001481235">
        <ele>5.91</ele>
        <time>2023-08-28T10:13:07Z</time>
      </trkpt>
      <trkpt lat="57.271570013836026" lon="-5.509914038702846">
        <ele>5.91</ele>
        <time>2023-08-28T10:13:08Z</time>
      </trkpt>
      <trkpt lat="57.27144998498261" lon="-5.509684961289167">
        <ele>5.91</ele>
        <time>2023-08-28T10:13:09Z</time>
      </trkpt>
      <trkpt lat="57.271305983886123" lon="-5.509534003213048">
        <ele>5.91</ele>
        <time>2023-08-28T10:13:10Z</time>
      </trkpt>
      <trkpt lat="57.2711499966681" lon="-5.509394025430083">
        <ele>5.91</ele>
        <time>2023-08-28T10:13:11Z</time>
      </trkpt>
      <trkpt lat="57.270990991964936" lon="-5.509252035990357">
        <ele>5.91</ele>
        <time>2023-08-28T10:13:12Z</time>
      </trkpt>
      <trkpt lat="57.270079040899873" lon="-5.508366990834475">
        <ele>6.87</ele>
        <time>2023-08-28T10:13:18Z</time>
      </trkpt>
      <trkpt lat="57.26994501426816" lon="-5.508174039423466">
        <ele>6.87</ele>
        <time>2023-08-28T10:13:19Z</time>
      </trkpt>
      <trkpt lat="57.269808975979686" lon="-5.507977986708283">
        <ele>6.39</ele>
        <time>2023-08-28T10:13:20Z</time>
      </trkpt>
      <trkpt lat="57.269538994878531" lon="-5.507588982582092">
        <ele>5.91</ele>
        <time>2023-08-28T10:13:22Z</time>
      </trkpt>
      <trkpt lat="57.269406979903579" lon="-5.507397036999464">
        <ele>5.42</ele>
        <time>2023-08-28T10:13:23Z</time>
      </trkpt>
      <trkpt lat="57.269267002120614" lon="-5.507210958749056">
        <ele>5.42</ele>
        <time>2023-08-28T10:13:24Z</time>
      </trkpt>
      <trkpt lat="57.269101962447166" lon="-5.507128983736038">
        <ele>4.94</ele>
        <time>2023-08-28T10:13:25Z</time>
      </trkpt>
      <trkpt lat="57.26893600076437" lon="-5.507044997066259">
        <ele>4.46</ele>
        <time>2023-08-28T10:13:26Z</time>
      </trkpt>
      <trkpt lat="57.268767021596432" lon="-5.506961010396481">
        <ele>3.98</ele>
        <time>2023-08-28T10:13:27Z</time>
      </trkpt>
      <trkpt lat="57.268252959474921" lon="-5.506704021245241">
        <ele>3.98</ele>
        <time>2023-08-28T10:13:30Z</time>
      </trkpt>
      <trkpt lat="57.268083980306983" lon="-5.506619028747082">
        <ele>3.5</ele>
        <time>2023-08-28T10:13:31Z</time>
      </trkpt>
      <trkpt lat="57.267940985038877" lon="-5.506411995738745">
        <ele>3.5</ele>
        <time>2023-08-28T10:13:32Z</time>
      </trkpt>
      <trkpt lat="57.267801007255912" lon="-5.506205968558788">
        <ele>3.02</ele>
        <time>2023-08-28T10:13:33Z</time>
      </trkpt>
      <trkpt lat="57.267673015594482" lon="-5.505980998277664">
        <ele>3.02</ele>
        <time>2023-08-28T10:13:34Z</time>
      </trkpt>
      <trkpt lat="57.26756002753973" lon="-5.505717974156141">
        <ele>2.54</ele>
        <time>2023-08-28T10:13:35Z</time>
      </trkpt>
      <trkpt lat="57.267444021999836" lon="-5.505448998883367">
        <ele>2.54</ele>
        <time>2023-08-28T10:13:36Z</time>
      </trkpt>
      <trkpt lat="57.267079995945096" lon="-5.504666967317462">
        <ele>2.06</ele>
        <time>2023-08-28T10:13:39Z</time>
      </trkpt>
      <trkpt lat="57.266943035647273" lon="-5.504453983157873">
        <ele>2.06</ele>
        <time>2023-08-28T10:13:40Z</time>
      </trkpt>
      <trkpt lat="57.266782019287348" lon="-5.504323979839683">
        <ele>1.58</ele>
        <time>2023-08-28T10:13:41Z</time>
      </trkpt>
      <trkpt lat="57.266622008755803" lon="-5.504192970693111">
        <ele>1.58</ele>
        <time>2023-08-28T10:13:42Z</time>
      </trkpt>
      <trkpt lat="57.266448000445962" lon="-5.504153994843364">
        <ele>1.58</ele>
        <time>2023-08-28T10:13:43Z</time>
      </trkpt>
      <trkpt lat="57.266273992136121" lon="-5.504114013165236">
        <ele>1.58</ele>
        <time>2023-08-28T10:13:44Z</time>
      </trkpt>
      <trkpt lat="57.266106018796563" lon="-5.504075959324837">
        <ele>1.58</ele>
        <time>2023-08-28T10:13:45Z</time>
      </trkpt>
      <trkpt lat="57.265937961637974" lon="-5.50403798930347">
        <ele>2.06</ele>
        <time>2023-08-28T10:13:46Z</time>
      </trkpt>
      <trkpt lat="57.265592962503433" lon="-5.50390999764204">
        <ele>2.06</ele>
        <time>2023-08-28T10:13:48Z</time>
      </trkpt>
      <trkpt lat="57.26543303579092" lon="-5.503777982667089">
        <ele>2.06</ele>
        <time>2023-08-28T10:13:49Z</time>
      </trkpt>
      <trkpt lat="57.265271013602614" lon="-5.503645967692137">
        <ele>2.06</ele>
        <time>2023-08-28T10:13:50Z</time>
      </trkpt>
      <trkpt lat="57.265117038041353" lon="-5.503466008231044">
        <ele>1.58</ele>
        <time>2023-08-28T10:13:51Z</time>
      </trkpt>
      <trkpt lat="57.264984017238021" lon="-5.503233997151256">
        <ele>1.58</ele>
        <time>2023-08-28T10:13:52Z</time>
      </trkpt>
      <trkpt lat="57.264856025576591" lon="-5.502979019656777">
        <ele>1.58</ele>
        <time>2023-08-28T10:13:53Z</time>
      </trkpt>
      <trkpt lat="57.264727028086782" lon="-5.502720018848777">
        <ele>1.1</ele>
        <time>2023-08-28T10:13:54Z</time>
      </trkpt>
      <trkpt lat="57.264456041157246" lon="-5.502206962555647">
        <ele>1.1</ele>
        <time>2023-08-28T10:13:56Z</time>
      </trkpt>
      <trkpt lat="57.26429502479732" lon="-5.501995990052819">
        <ele>1.1</ele>
        <time>2023-08-28T10:13:57Z</time>
      </trkpt>
      <trkpt lat="57.263041008263826" lon="-5.500129004940391">
        <ele>2.54</ele>
        <time>2023-08-28T10:14:05Z</time>
      </trkpt>
      <trkpt lat="57.262183958664536" lon="-5.498050963506103">
        <ele>3.98</ele>
        <time>2023-08-28T10:14:12Z</time>
      </trkpt>
      <trkpt lat="57.261411985382438" lon="-5.494635002687573">
        <ele>4.94</ele>
        <time>2023-08-28T10:14:22Z</time>
      </trkpt>
      <trkpt lat="57.260800022631884" lon="-5.492773968726397">
        <ele>5.42</ele>
        <time>2023-08-28T10:14:28Z</time>
      </trkpt>
      <trkpt lat="57.259683972224593" lon="-5.491276038810611">
        <ele>6.39</ele>
        <time>2023-08-28T10:14:35Z</time>
      </trkpt>
      <trkpt lat="57.25905398838222" lon="-5.490434998646379">
        <ele>7.35</ele>
        <time>2023-08-28T10:14:39Z</time>
      </trkpt>
      <trkpt lat="57.258781995624304" lon="-5.489936023950577">
        <ele>8.310000000000001</ele>
        <time>2023-08-28T10:14:41Z</time>
      </trkpt>
      <trkpt lat="57.258067019283772" lon="-5.487647010013461">
        <ele>12.630000000000001</ele>
        <time>2023-08-28T10:14:48Z</time>
      </trkpt>
      <trkpt lat="57.257297979667783" lon="-5.484020998701453">
        <ele>17.440000000000001</ele>
        <time>2023-08-28T10:14:58Z</time>
      </trkpt>
      <trkpt lat="57.256621979176998" lon="-5.481596030294895">
        <ele>19.359999999999999</ele>
        <time>2023-08-28T10:15:05Z</time>
      </trkpt>
      <trkpt lat="57.255551023408771" lon="-5.479507008567452">
        <ele>17.920000000000002</ele>
        <time>2023-08-28T10:15:12Z</time>
      </trkpt>
      <trkpt lat="57.254053009673953" lon="-5.47692202962935">
        <ele>14.08</ele>
        <time>2023-08-28T10:15:22Z</time>
      </trkpt>
      <trkpt lat="57.25254200398922" lon="-5.475041968747973">
        <ele>11.67</ele>
        <time>2023-08-28T10:15:31Z</time>
      </trkpt>
      <trkpt lat="57.251359988003969" lon="-5.473799016326666">
        <ele>10.23</ele>
        <time>2023-08-28T10:15:38Z</time>
      </trkpt>
      <trkpt lat="57.251197965815663" lon="-5.473598018288612">
        <ele>10.710000000000001</ele>
        <time>2023-08-28T10:15:39Z</time>
      </trkpt>
      <trkpt lat="57.24996599368751" lon="-5.471735978499055">
        <ele>13.119999999999999</ele>
        <time>2023-08-28T10:15:47Z</time>
      </trkpt>
      <trkpt lat="57.248793030157685" lon="-5.469910986721516">
        <ele>15.039999999999999</ele>
        <time>2023-08-28T10:15:55Z</time>
      </trkpt>
      <trkpt lat="57.248277040198445" lon="-5.469085033982992">
        <ele>16</ele>
        <time>2023-08-28T10:15:59Z</time>
      </trkpt>
      <trkpt lat="57.248170003294945" lon="-5.468857968226075">
        <ele>16</ele>
        <time>2023-08-28T10:16:00Z</time>
      </trkpt>
      <trkpt lat="57.248062966391444" lon="-5.468627968803048">
        <ele>16</ele>
        <time>2023-08-28T10:16:01Z</time>
      </trkpt>
      <trkpt lat="57.247151015326381" lon="-5.465977024286985">
        <ele>17.920000000000002</ele>
        <time>2023-08-28T10:16:11Z</time>
      </trkpt>
      <trkpt lat="57.246881034225225" lon="-5.465204967185855">
        <ele>19.359999999999999</ele>
        <time>2023-08-28T10:16:14Z</time>
      </trkpt>
      <trkpt lat="57.246550032868981" lon="-5.464542964473367">
        <ele>20.809999999999999</ele>
        <time>2023-08-28T10:16:17Z</time>
      </trkpt>
      <trkpt lat="57.24577303044498" lon="-5.463378969579935">
        <ele>23.690000000000001</ele>
        <time>2023-08-28T10:16:23Z</time>
      </trkpt>
      <trkpt lat="57.245648978278041" lon="-5.463214013725519">
        <ele>24.170000000000002</ele>
        <time>2023-08-28T10:16:24Z</time>
      </trkpt>
      <trkpt lat="57.244913969188929" lon="-5.462238024920225">
        <ele>23.690000000000001</ele>
        <time>2023-08-28T10:16:30Z</time>
      </trkpt>
      <trkpt lat="57.243693983182311" lon="-5.460618976503611">
        <ele>20.809999999999999</ele>
        <time>2023-08-28T10:16:40Z</time>
      </trkpt>
      <trkpt lat="57.243270026519895" lon="-5.4598200134933">
        <ele>21.77</ele>
        <time>2023-08-28T10:16:44Z</time>
      </trkpt>
      <trkpt lat="57.242326978594065" lon="-5.458002984523773">
        <ele>24.649999999999999</ele>
        <time>2023-08-28T10:16:53Z</time>
      </trkpt>
      <trkpt lat="57.241422990337014" lon="-5.456374967470765">
        <ele>24.649999999999999</ele>
        <time>2023-08-28T10:17:01Z</time>
      </trkpt>
      <trkpt lat="57.241310002282262" lon="-5.456172041594982">
        <ele>25.129999999999999</ele>
        <time>2023-08-28T10:17:02Z</time>
      </trkpt>
      <trkpt lat="57.240772973746061" lon="-5.455154981464148">
        <ele>25.609999999999999</ele>
        <time>2023-08-28T10:17:07Z</time>
      </trkpt>
      <trkpt lat="57.240181965753436" lon="-5.453723017126322">
        <ele>27.530000000000001</ele>
        <time>2023-08-28T10:17:13Z</time>
      </trkpt>
      <trkpt lat="57.239794973284006" lon="-5.451554032042623">
        <ele>31.379999999999999</ele>
        <time>2023-08-28T10:17:20Z</time>
      </trkpt>
      <trkpt lat="57.239734036847949" lon="-5.448831003159285">
        <ele>37.630000000000003</ele>
        <time>2023-08-28T10:17:29Z</time>
      </trkpt>
      <trkpt lat="57.239720961079001" lon="-5.448233038187027">
        <ele>39.07</ele>
        <time>2023-08-28T10:17:31Z</time>
      </trkpt>
      <trkpt lat="57.239616019651294" lon="-5.446986984461546">
        <ele>40.509999999999998</ele>
        <time>2023-08-28T10:17:35Z</time>
      </trkpt>
      <trkpt lat="57.239189967513084" lon="-5.445044981315732">
        <ele>45.799999999999997</ele>
        <time>2023-08-28T10:17:41Z</time>
      </trkpt>
      <trkpt lat="57.23896499723196" lon="-5.444106040522456">
        <ele>47.240000000000002</ele>
        <time>2023-08-28T10:17:44Z</time>
      </trkpt>
      <trkpt lat="57.238331995904446" lon="-5.441503962501884">
        <ele>48.200000000000003</ele>
        <time>2023-08-28T10:17:51Z</time>
      </trkpt>
      <trkpt lat="57.237662030383945" lon="-5.438797026872635">
        <ele>46.280000000000001</ele>
        <time>2023-08-28T10:17:57Z</time>
      </trkpt>
      <trkpt lat="57.236695010215044" lon="-5.435443008318543">
        <ele>40.990000000000002</ele>
        <time>2023-08-28T10:18:06Z</time>
      </trkpt>
      <trkpt lat="57.235613996163011" lon="-5.431743990629911">
        <ele>33.299999999999997</ele>
        <time>2023-08-28T10:18:16Z</time>
      </trkpt>
      <trkpt lat="57.235207976773381" lon="-5.430276989936829">
        <ele>30.420000000000002</ele>
        <time>2023-08-28T10:18:20Z</time>
      </trkpt>
      <trkpt lat="57.235106974840164" lon="-5.429912963882089">
        <ele>29.940000000000001</ele>
        <time>2023-08-28T10:18:21Z</time>
      </trkpt>
      <trkpt lat="57.234644964337349" lon="-5.428100964054465">
        <ele>26.57</ele>
        <time>2023-08-28T10:18:27Z</time>
      </trkpt>
      <trkpt lat="57.23413098603487" lon="-5.425776997581124">
        <ele>23.210000000000001</ele>
        <time>2023-08-28T10:18:36Z</time>
      </trkpt>
      <trkpt lat="57.233712980523705" lon="-5.422623977065086">
        <ele>19.359999999999999</ele>
        <time>2023-08-28T10:18:48Z</time>
      </trkpt>
      <trkpt lat="57.233621031045914" lon="-5.421227971091867">
        <ele>16.960000000000001</ele>
        <time>2023-08-28T10:18:53Z</time>
      </trkpt>
      <trkpt lat="57.233638968318701" lon="-5.419319998472929">
        <ele>16.960000000000001</ele>
        <time>2023-08-28T10:19:00Z</time>
      </trkpt>
      <trkpt lat="57.233660006895661" lon="-5.418522963300347">
        <ele>17.440000000000001</ele>
        <time>2023-08-28T10:19:03Z</time>
      </trkpt>
      <trkpt lat="57.233668975532055" lon="-5.418262034654617">
        <ele>17.920000000000002</ele>
        <time>2023-08-28T10:19:04Z</time>
      </trkpt>
      <trkpt lat="57.233803002163768" lon="-5.415660962462425">
        <ele>21.289999999999999</ele>
        <time>2023-08-28T10:19:14Z</time>
      </trkpt>
      <trkpt lat="57.234239028766751" lon="-5.413331966847181">
        <ele>21.289999999999999</ele>
        <time>2023-08-28T10:19:23Z</time>
      </trkpt>
      <trkpt lat="57.234830036759377" lon="-5.41087799705565">
        <ele>18.399999999999999</ele>
        <time>2023-08-28T10:19:31Z</time>
      </trkpt>
      <trkpt lat="57.234919974580407" lon="-5.410166038200259">
        <ele>17.440000000000001</ele>
        <time>2023-08-28T10:19:33Z</time>
      </trkpt>
      <trkpt lat="57.234921986237168" lon="-5.409786002710462">
        <ele>16.960000000000001</ele>
        <time>2023-08-28T10:19:34Z</time>
      </trkpt>
      <trkpt lat="57.234912011772394" lon="-5.409423988312483">
        <ele>16.48</ele>
        <time>2023-08-28T10:19:35Z</time>
      </trkpt>
      <trkpt lat="57.234878987073898" lon="-5.409071026369929">
        <ele>16</ele>
        <time>2023-08-28T10:19:36Z</time>
      </trkpt>
      <trkpt lat="57.234828025102615" lon="-5.408729966729879">
        <ele>15.52</ele>
        <time>2023-08-28T10:19:37Z</time>
      </trkpt>
      <trkpt lat="57.23477597348392" lon="-5.408382033929229">
        <ele>15.52</ele>
        <time>2023-08-28T10:19:38Z</time>
      </trkpt>
      <trkpt lat="57.234704978764057" lon="-5.408043991774321">
        <ele>15.039999999999999</ele>
        <time>2023-08-28T10:19:39Z</time>
      </trkpt>
      <trkpt lat="57.234591990709305" lon="-5.40774098597467">
        <ele>14.56</ele>
        <time>2023-08-28T10:19:40Z</time>
      </trkpt>
      <trkpt lat="57.23447497934103" lon="-5.407424988225102">
        <ele>14.56</ele>
        <time>2023-08-28T10:19:41Z</time>
      </trkpt>
      <trkpt lat="57.23434497602284" lon="-5.40711997076869">
        <ele>14.08</ele>
        <time>2023-08-28T10:19:42Z</time>
      </trkpt>
      <trkpt lat="57.234187982976437" lon="-5.406843032687903">
        <ele>14.08</ele>
        <time>2023-08-28T10:19:43Z</time>
      </trkpt>
      <trkpt lat="57.234026966616511" lon="-5.4065599758178">
        <ele>13.6</ele>
        <time>2023-08-28T10:19:44Z</time>
      </trkpt>
      <trkpt lat="57.233846001327038" lon="-5.406324025243521">
        <ele>13.6</ele>
        <time>2023-08-28T10:19:45Z</time>
      </trkpt>
      <trkpt lat="57.233666041865945" lon="-5.406088996678591">
        <ele>13.6</ele>
        <time>2023-08-28T10:19:46Z</time>
      </trkpt>
      <trkpt lat="57.231844989582896" lon="-5.40374600328505">
        <ele>9.75</ele>
        <time>2023-08-28T10:19:57Z</time>
      </trkpt>
      <trkpt lat="57.230941001325846" lon="-5.402914015576243">
        <ele>7.35</ele>
        <time>2023-08-28T10:20:02Z</time>
      </trkpt>
      <trkpt lat="57.230743020772934" lon="-5.402789041399956">
        <ele>6.87</ele>
        <time>2023-08-28T10:20:03Z</time>
      </trkpt>
      <trkpt lat="57.230530036613345" lon="-5.402746964246035">
        <ele>6.39</ele>
        <time>2023-08-28T10:20:04Z</time>
      </trkpt>
      <trkpt lat="57.230323003605008" lon="-5.402727015316486">
        <ele>6.39</ele>
        <time>2023-08-28T10:20:05Z</time>
      </trkpt>
      <trkpt lat="57.230120999738574" lon="-5.402762973681092">
        <ele>5.42</ele>
        <time>2023-08-28T10:20:06Z</time>
      </trkpt>
      <trkpt lat="57.229931987822056" lon="-5.402826005592942">
        <ele>5.42</ele>
        <time>2023-08-28T10:20:07Z</time>
      </trkpt>
      <trkpt lat="57.229750016704202" lon="-5.402887025848031">
        <ele>4.94</ele>
        <time>2023-08-28T10:20:08Z</time>
      </trkpt>
      <trkpt lat="57.229579025879502" lon="-5.403037983924151">
        <ele>4.94</ele>
        <time>2023-08-28T10:20:09Z</time>
      </trkpt>
      <trkpt lat="57.229405017569661" lon="-5.403201011940837">
        <ele>4.46</ele>
        <time>2023-08-28T10:20:10Z</time>
      </trkpt>
      <trkpt lat="57.229225980117917" lon="-5.403367979452014">
        <ele>4.46</ele>
        <time>2023-08-28T10:20:11Z</time>
      </trkpt>
      <trkpt lat="57.229052977636456" lon="-5.403560008853674">
        <ele>4.46</ele>
        <time>2023-08-28T10:20:12Z</time>
      </trkpt>
      <trkpt lat="57.228902019560337" lon="-5.40381096303463">
        <ele>4.46</ele>
        <time>2023-08-28T10:20:13Z</time>
      </trkpt>
      <trkpt lat="57.228747960180044" lon="-5.404069041833282">
        <ele>4.94</ele>
        <time>2023-08-28T10:20:14Z</time>
      </trkpt>
      <trkpt lat="57.227585976943374" lon="-5.405815998092294">
        <ele>7.35</ele>
        <time>2023-08-28T10:20:21Z</time>
      </trkpt>
      <trkpt lat="57.227395037189126" lon="-5.405997969210148">
        <ele>7.35</ele>
        <time>2023-08-28T10:20:22Z</time>
      </trkpt>
      <trkpt lat="57.22719001583755" lon="-5.40615001693368">
        <ele>7.83</ele>
        <time>2023-08-28T10:20:23Z</time>
      </trkpt>
      <trkpt lat="57.225626036524773" lon="-5.407636966556311">
        <ele>7.35</ele>
        <time>2023-08-28T10:20:31Z</time>
      </trkpt>
      <trkpt lat="57.22478499636054" lon="-5.409601014107466">
        <ele>8.789999999999999</ele>
        <time>2023-08-28T10:20:37Z</time>
      </trkpt>
      <trkpt lat="57.223280025646091" lon="-5.413722982630134">
        <ele>15.039999999999999</ele>
        <time>2023-08-28T10:20:49Z</time>
      </trkpt>
      <trkpt lat="57.222800999879837" lon="-5.414529992267489">
        <ele>16.960000000000001</ele>
        <time>2023-08-28T10:20:52Z</time>
      </trkpt>
      <trkpt lat="57.221248000860214" lon="-5.416282983496785">
        <ele>20.32</ele>
        <time>2023-08-28T10:21:00Z</time>
      </trkpt>
      <trkpt lat="57.218956975266337" lon="-5.418066987767816">
        <ele>12.630000000000001</ele>
        <time>2023-08-28T10:21:11Z</time>
      </trkpt>
      <trkpt lat="57.217696001753211" lon="-5.419744038954377">
        <ele>11.67</ele>
        <time>2023-08-28T10:21:18Z</time>
      </trkpt>
      <trkpt lat="57.216642983257771" lon="-5.422347960993648">
        <ele>11.67</ele>
        <time>2023-08-28T10:21:26Z</time>
      </trkpt>
      <trkpt lat="57.216392029076815" lon="-5.422906028106809">
        <ele>12.15</ele>
        <time>2023-08-28T10:21:28Z</time>
      </trkpt>
      <trkpt lat="57.21625498495996" lon="-5.423132004216313">
        <ele>12.15</ele>
        <time>2023-08-28T10:21:29Z</time>
      </trkpt>
      <trkpt lat="57.216101009398699" lon="-5.423286985605955">
        <ele>12.630000000000001</ele>
        <time>2023-08-28T10:21:30Z</time>
      </trkpt>
      <trkpt lat="57.215939993038774" lon="-5.423432998359203">
        <ele>13.119999999999999</ele>
        <time>2023-08-28T10:21:31Z</time>
      </trkpt>
      <trkpt lat="57.215769002214074" lon="-5.42349100112915">
        <ele>13.119999999999999</ele>
        <time>2023-08-28T10:21:32Z</time>
      </trkpt>
      <trkpt lat="57.215638998895884" lon="-5.42353400029242">
        <ele>13.119999999999999</ele>
        <time>2023-08-28T10:21:33Z</time>
      </trkpt>
      <trkpt lat="57.21541503444314" lon="-5.423488989472389">
        <ele>13.119999999999999</ele>
        <time>2023-08-28T10:21:34Z</time>
      </trkpt>
      <trkpt lat="57.215256029739976" lon="-5.423415983095765">
        <ele>13.6</ele>
        <time>2023-08-28T10:21:35Z</time>
      </trkpt>
      <trkpt lat="57.215089984238148" lon="-5.423271981999278">
        <ele>13.6</ele>
        <time>2023-08-28T10:21:36Z</time>
      </trkpt>
      <trkpt lat="57.214931985363364" lon="-5.423108031973243">
        <ele>14.08</ele>
        <time>2023-08-28T10:21:37Z</time>
      </trkpt>
      <trkpt lat="57.214784966781735" lon="-5.422887001186609">
        <ele>14.56</ele>
        <time>2023-08-28T10:21:38Z</time>
      </trkpt>
      <trkpt lat="57.214679019525647" lon="-5.422600004822016">
        <ele>14.56</ele>
        <time>2023-08-28T10:21:39Z</time>
      </trkpt>
      <trkpt lat="57.214581035077572" lon="-5.422295993193984">
        <ele>14.56</ele>
        <time>2023-08-28T10:21:40Z</time>
      </trkpt>
      <trkpt lat="57.214500987902284" lon="-5.421994999051094">
        <ele>14.56</ele>
        <time>2023-08-28T10:21:41Z</time>
      </trkpt>
      <trkpt lat="57.214443990960717" lon="-5.421670032665134">
        <ele>14.56</ele>
        <time>2023-08-28T10:21:42Z</time>
      </trkpt>
      <trkpt lat="57.213882990181446" lon="-5.418551964685321">
        <ele>14.56</ele>
        <time>2023-08-28T10:21:52Z</time>
      </trkpt>
      <trkpt lat="57.213531034067273" lon="-5.415953993797302">
        <ele>15.52</ele>
        <time>2023-08-28T10:22:01Z</time>
      </trkpt>
      <trkpt lat="57.213455010205507" lon="-5.415713014081121">
        <ele>15.039999999999999</ele>
        <time>2023-08-28T10:22:02Z</time>
      </trkpt>
      <trkpt lat="57.2133759688586" lon="-5.415464993566275">
        <ele>15.52</ele>
        <time>2023-08-28T10:22:03Z</time>
      </trkpt>
      <trkpt lat="57.213276978582144" lon="-5.41523901745677">
        <ele>15.52</ele>
        <time>2023-08-28T10:22:04Z</time>
      </trkpt>
      <trkpt lat="57.213167008012533" lon="-5.415036007761955">
        <ele>15.039999999999999</ele>
        <time>2023-08-28T10:22:05Z</time>
      </trkpt>
      <trkpt lat="57.212154977023602" lon="-5.413196012377739">
        <ele>15.039999999999999</ele>
        <time>2023-08-28T10:22:14Z</time>
      </trkpt>
      <trkpt lat="57.211300022900105" lon="-5.411483002826572">
        <ele>16</ele>
        <time>2023-08-28T10:22:20Z</time>
      </trkpt>
      <trkpt lat="57.211149986833334" lon="-5.411167005077004">
        <ele>15.52</ele>
        <time>2023-08-28T10:22:21Z</time>
      </trkpt>
      <trkpt lat="57.210422018542886" lon="-5.409730011597276">
        <ele>16</ele>
        <time>2023-08-28T10:22:27Z</time>
      </trkpt>
      <trkpt lat="57.210149019956589" lon="-5.409393981099129">
        <ele>16.48</ele>
        <time>2023-08-28T10:22:29Z</time>
      </trkpt>
      <trkpt lat="57.209312003105879" lon="-5.408389996737242">
        <ele>16</ele>
        <time>2023-08-28T10:22:35Z</time>
      </trkpt>
      <trkpt lat="57.209205972030759" lon="-5.408170977607369">
        <ele>15.52</ele>
        <time>2023-08-28T10:22:36Z</time>
      </trkpt>
      <trkpt lat="57.209100024774671" lon="-5.407951958477497">
        <ele>15.039999999999999</ele>
        <time>2023-08-28T10:22:37Z</time>
      </trkpt>
      <trkpt lat="57.208997011184692" lon="-5.407732017338276">
        <ele>15.039999999999999</ele>
        <time>2023-08-28T10:22:38Z</time>
      </trkpt>
      <trkpt lat="57.208907995373011" lon="-5.407479973509908">
        <ele>14.56</ele>
        <time>2023-08-28T10:22:39Z</time>
      </trkpt>
      <trkpt lat="57.208817973732948" lon="-5.407230025157332">
        <ele>14.56</ele>
        <time>2023-08-28T10:22:40Z</time>
      </trkpt>
      <trkpt lat="57.208388987928629" lon="-5.406028982251883">
        <ele>14.56</ele>
        <time>2023-08-28T10:22:45Z</time>
      </trkpt>
      <trkpt lat="57.208278011530638" lon="-5.405837036669254">
        <ele>14.56</ele>
        <time>2023-08-28T10:22:46Z</time>
      </trkpt>
      <trkpt lat="57.208157982677221" lon="-5.405665962025523">
        <ele>15.039999999999999</ele>
        <time>2023-08-28T10:22:47Z</time>
      </trkpt>
      <trkpt lat="57.208037031814456" lon="-5.405494971200824">
        <ele>15.039999999999999</ele>
        <time>2023-08-28T10:22:48Z</time>
      </trkpt>
      <trkpt lat="57.207913985475898" lon="-5.405338983982801">
        <ele>15.039999999999999</ele>
        <time>2023-08-28T10:22:49Z</time>
      </trkpt>
      <trkpt lat="57.20675602555275" lon="-5.403963010758162">
        <ele>15.039999999999999</ele>
        <time>2023-08-28T10:22:58Z</time>
      </trkpt>
      <trkpt lat="57.20606803894043" lon="-5.401981025934219">
        <ele>16.48</ele>
        <time>2023-08-28T10:23:06Z</time>
      </trkpt>
      <trkpt lat="57.206019004806876" lon="-5.401701992377639">
        <ele>16.48</ele>
        <time>2023-08-28T10:23:07Z</time>
      </trkpt>
      <trkpt lat="57.205971982330084" lon="-5.401428993791342">
        <ele>16.48</ele>
        <time>2023-08-28T10:23:08Z</time>
      </trkpt>
      <trkpt lat="57.205950021743774" lon="-5.401148032397032">
        <ele>16.48</ele>
        <time>2023-08-28T10:23:09Z</time>
      </trkpt>
      <trkpt lat="57.20594197511673" lon="-5.400874027982354">
        <ele>16.48</ele>
        <time>2023-08-28T10:23:10Z</time>
      </trkpt>
      <trkpt lat="57.205949015915394" lon="-5.400596000254154">
        <ele>16</ele>
        <time>2023-08-28T10:23:11Z</time>
      </trkpt>
      <trkpt lat="57.206023028120399" lon="-5.397998029366136">
        <ele>16.48</ele>
        <time>2023-08-28T10:23:20Z</time>
      </trkpt>
      <trkpt lat="57.205988997593522" lon="-5.396786006167531">
        <ele>17.440000000000001</ele>
        <time>2023-08-28T10:23:24Z</time>
      </trkpt>
      <trkpt lat="57.205945998430252" lon="-5.396469002589583">
        <ele>17.440000000000001</ele>
        <time>2023-08-28T10:23:25Z</time>
      </trkpt>
      <trkpt lat="57.205857988446951" lon="-5.396197009831667">
        <ele>17.440000000000001</ele>
        <time>2023-08-28T10:23:26Z</time>
      </trkpt>
      <trkpt lat="57.205754974856973" lon="-5.395943960174918">
        <ele>17.920000000000002</ele>
        <time>2023-08-28T10:23:27Z</time>
      </trkpt>
      <trkpt lat="57.205643998458982" lon="-5.395700968801975">
        <ele>17.920000000000002</ele>
        <time>2023-08-28T10:23:28Z</time>
      </trkpt>
      <trkpt lat="57.205518018454313" lon="-5.395483039319515">
        <ele>17.920000000000002</ele>
        <time>2023-08-28T10:23:29Z</time>
      </trkpt>
      <trkpt lat="57.205375023186207" lon="-5.395296039059758">
        <ele>17.920000000000002</ele>
        <time>2023-08-28T10:23:30Z</time>
      </trkpt>
      <trkpt lat="57.205216018483043" lon="-5.395152037963271">
        <ele>17.440000000000001</ele>
        <time>2023-08-28T10:23:31Z</time>
      </trkpt>
      <trkpt lat="57.205056007951498" lon="-5.395007031038404">
        <ele>17.440000000000001</ele>
        <time>2023-08-28T10:23:32Z</time>
      </trkpt>
      <trkpt lat="57.204883005470037" lon="-5.394900999963284">
        <ele>16.960000000000001</ele>
        <time>2023-08-28T10:23:33Z</time>
      </trkpt>
      <trkpt lat="57.204686030745506" lon="-5.394823970273137">
        <ele>16.48</ele>
        <time>2023-08-28T10:23:34Z</time>
      </trkpt>
      <trkpt lat="57.204472962766886" lon="-5.394762028008699">
        <ele>16</ele>
        <time>2023-08-28T10:23:35Z</time>
      </trkpt>
      <trkpt lat="57.2028489690274" lon="-5.39427001029253">
        <ele>14.56</ele>
        <time>2023-08-28T10:23:42Z</time>
      </trkpt>
      <trkpt lat="57.200773023068905" lon="-5.393473980948329">
        <ele>13.6</ele>
        <time>2023-08-28T10:23:51Z</time>
      </trkpt>
      <trkpt lat="57.198391975834966" lon="-5.39229498244822">
        <ele>14.08</ele>
        <time>2023-08-28T10:24:02Z</time>
      </trkpt>
      <trkpt lat="57.196826990693808" lon="-5.390758998692036">
        <ele>16</ele>
        <time>2023-08-28T10:24:10Z</time>
      </trkpt>
      <trkpt lat="57.194085018709302" lon="-5.387874031439424">
        <ele>19.359999999999999</ele>
        <time>2023-08-28T10:24:24Z</time>
      </trkpt>
      <trkpt lat="57.192295985296369" lon="-5.386896030977368">
        <ele>16.960000000000001</ele>
        <time>2023-08-28T10:24:32Z</time>
      </trkpt>
      <trkpt lat="57.190190032124519" lon="-5.385507987812161">
        <ele>18.399999999999999</ele>
        <time>2023-08-28T10:24:42Z</time>
      </trkpt>
      <trkpt lat="57.187540009617805" lon="-5.38355098105967">
        <ele>18.399999999999999</ele>
        <time>2023-08-28T10:24:54Z</time>
      </trkpt>
      <trkpt lat="57.186000002548099" lon="-5.383038008585572">
        <ele>17.440000000000001</ele>
        <time>2023-08-28T10:25:01Z</time>
      </trkpt>
      <trkpt lat="57.184027992188931" lon="-5.382326971739531">
        <ele>18.399999999999999</ele>
        <time>2023-08-28T10:25:10Z</time>
      </trkpt>
      <trkpt lat="57.182395029813051" lon="-5.381002966314554">
        <ele>18.879999999999999</ele>
        <time>2023-08-28T10:25:18Z</time>
      </trkpt>
      <trkpt lat="57.182218004018068" lon="-5.380808003246784">
        <ele>18.879999999999999</ele>
        <time>2023-08-28T10:25:19Z</time>
      </trkpt>
      <trkpt lat="57.182057993486524" lon="-5.380570963025093">
        <ele>18.879999999999999</ele>
        <time>2023-08-28T10:25:20Z</time>
      </trkpt>
      <trkpt lat="57.181907035410404" lon="-5.380300981923938">
        <ele>18.399999999999999</ele>
        <time>2023-08-28T10:25:21Z</time>
      </trkpt>
      <trkpt lat="57.181767979636788" lon="-5.38000401109457">
        <ele>18.879999999999999</ele>
        <time>2023-08-28T10:25:22Z</time>
      </trkpt>
      <trkpt lat="57.181646022945642" lon="-5.37968197837472">
        <ele>18.879999999999999</ele>
        <time>2023-08-28T10:25:23Z</time>
      </trkpt>
      <trkpt lat="57.181523982435465" lon="-5.379360029473901">
        <ele>18.879999999999999</ele>
        <time>2023-08-28T10:25:24Z</time>
      </trkpt>
      <trkpt lat="57.180142980068922" lon="-5.375661011785269">
        <ele>22.73</ele>
        <time>2023-08-28T10:25:35Z</time>
      </trkpt>
      <trkpt lat="57.180019011721015" lon="-5.375339984893799">
        <ele>23.210000000000001</ele>
        <time>2023-08-28T10:25:36Z</time>
      </trkpt>
      <trkpt lat="57.179960003122687" lon="-5.375009989365935">
        <ele>23.210000000000001</ele>
        <time>2023-08-28T10:25:37Z</time>
      </trkpt>
      <trkpt lat="57.179897977039218" lon="-5.374664990231395">
        <ele>23.690000000000001</ele>
        <time>2023-08-28T10:25:38Z</time>
      </trkpt>
      <trkpt lat="57.17985900118947" lon="-5.374319991096854">
        <ele>24.170000000000002</ele>
        <time>2023-08-28T10:25:39Z</time>
      </trkpt>
      <trkpt lat="57.179840980097651" lon="-5.374003993347287">
        <ele>24.649999999999999</ele>
        <time>2023-08-28T10:25:40Z</time>
      </trkpt>
      <trkpt lat="57.179823964834213" lon="-5.373714985325933">
        <ele>24.649999999999999</ele>
        <time>2023-08-28T10:25:41Z</time>
      </trkpt>
      <trkpt lat="57.179779959842563" lon="-5.372944017872214">
        <ele>25.129999999999999</ele>
        <time>2023-08-28T10:25:44Z</time>
      </trkpt>
      <trkpt lat="57.179766967892647" lon="-5.372712006792426">
        <ele>25.609999999999999</ele>
        <time>2023-08-28T10:25:45Z</time>
      </trkpt>
      <trkpt lat="57.179581979289651" lon="-5.371887981891632">
        <ele>28.02</ele>
        <time>2023-08-28T10:25:49Z</time>
      </trkpt>
      <trkpt lat="57.179506039246917" lon="-5.37168899551034">
        <ele>28.98</ele>
        <time>2023-08-28T10:25:50Z</time>
      </trkpt>
      <trkpt lat="57.179425992071629" lon="-5.371478023007512">
        <ele>28.98</ele>
        <time>2023-08-28T10:25:51Z</time>
      </trkpt>
      <trkpt lat="57.179345022886992" lon="-5.371265038847923">
        <ele>29.460000000000001</ele>
        <time>2023-08-28T10:25:52Z</time>
      </trkpt>
      <trkpt lat="57.179228011518717" lon="-5.371091030538082">
        <ele>29.940000000000001</ele>
        <time>2023-08-28T10:25:53Z</time>
      </trkpt>
      <trkpt lat="57.179105971008539" lon="-5.370963960886002">
        <ele>29.940000000000001</ele>
        <time>2023-08-28T10:25:54Z</time>
      </trkpt>
      <trkpt lat="57.178989965468645" lon="-5.370844015851617">
        <ele>29.940000000000001</ele>
        <time>2023-08-28T10:25:55Z</time>
      </trkpt>
      <trkpt lat="57.178873959928751" lon="-5.370721975341439">
        <ele>29.940000000000001</ele>
        <time>2023-08-28T10:25:56Z</time>
      </trkpt>
      <trkpt lat="57.177526988089085" lon="-5.369469970464706">
        <ele>28.5</ele>
        <time>2023-08-28T10:26:06Z</time>
      </trkpt>
      <trkpt lat="57.177421040832996" lon="-5.369293028488755">
        <ele>28.02</ele>
        <time>2023-08-28T10:26:07Z</time>
      </trkpt>
      <trkpt lat="57.177334958687425" lon="-5.369066968560219">
        <ele>27.530000000000001</ele>
        <time>2023-08-28T10:26:08Z</time>
      </trkpt>
      <trkpt lat="57.177248038351536" lon="-5.368839986622334">
        <ele>27.050000000000001</ele>
        <time>2023-08-28T10:26:09Z</time>
      </trkpt>
      <trkpt lat="57.177162962034345" lon="-5.368614010512829">
        <ele>26.57</ele>
        <time>2023-08-28T10:26:10Z</time>
      </trkpt>
      <trkpt lat="57.177100013941526" lon="-5.368349980562925">
        <ele>26.09</ele>
        <time>2023-08-28T10:26:11Z</time>
      </trkpt>
      <trkpt lat="57.176703969016671" lon="-5.366688016802073">
        <ele>26.09</ele>
        <time>2023-08-28T10:26:16Z</time>
      </trkpt>
      <trkpt lat="57.175963008776307" lon="-5.364460023120046">
        <ele>28.5</ele>
        <time>2023-08-28T10:26:23Z</time>
      </trkpt>
      <trkpt lat="57.174802031368017" lon="-5.3627959638834">
        <ele>30.420000000000002</ele>
        <time>2023-08-28T10:26:30Z</time>
      </trkpt>
      <trkpt lat="57.172519974410534" lon="-5.360175026580691">
        <ele>36.189999999999998</ele>
        <time>2023-08-28T10:26:42Z</time>
      </trkpt>
      <trkpt lat="57.17236197553575" lon="-5.359904961660504">
        <ele>37.149999999999999</ele>
        <time>2023-08-28T10:26:43Z</time>
      </trkpt>
      <trkpt lat="57.172225015237927" lon="-5.359602961689234">
        <ele>37.630000000000003</ele>
        <time>2023-08-28T10:26:44Z</time>
      </trkpt>
      <trkpt lat="57.170900003984571" lon="-5.356194041669369">
        <ele>42.439999999999998</ele>
        <time>2023-08-28T10:26:54Z</time>
      </trkpt>
      <trkpt lat="57.16922395862639" lon="-5.351846013218164">
        <ele>45.32</ele>
        <time>2023-08-28T10:27:06Z</time>
      </trkpt>
      <trkpt lat="57.168177980929613" lon="-5.348643036559224">
        <ele>50.130000000000003</ele>
        <time>2023-08-28T10:27:15Z</time>
      </trkpt>
      <trkpt lat="57.16750399209559" lon="-5.346084963530302">
        <ele>58.780000000000001</ele>
        <time>2023-08-28T10:27:22Z</time>
      </trkpt>
      <trkpt lat="57.16621502302587" lon="-5.342865977436304">
        <ele>70.310000000000002</ele>
        <time>2023-08-28T10:27:31Z</time>
      </trkpt>
      <trkpt lat="57.165269963443279" lon="-5.339598041027784">
        <ele>78.969999999999999</ele>
        <time>2023-08-28T10:27:40Z</time>
      </trkpt>
      <trkpt lat="57.165212966501713" lon="-5.339214988052845">
        <ele>79.930000000000007</ele>
        <time>2023-08-28T10:27:41Z</time>
      </trkpt>
      <trkpt lat="57.165200980380177" lon="-5.338820032775402">
        <ele>80.409999999999997</ele>
        <time>2023-08-28T10:27:42Z</time>
      </trkpt>
      <trkpt lat="57.165201986208558" lon="-5.338432034477592">
        <ele>80.890000000000001</ele>
        <time>2023-08-28T10:27:43Z</time>
      </trkpt>
      <trkpt lat="57.165245991200209" lon="-5.33806599676609">
        <ele>81.849999999999994</ele>
        <time>2023-08-28T10:27:44Z</time>
      </trkpt>
      <trkpt lat="57.165317991748452" lon="-5.337714962661266">
        <ele>82.329999999999998</ele>
        <time>2023-08-28T10:27:45Z</time>
      </trkpt>
      <trkpt lat="57.165398960933089" lon="-5.337358983233571">
        <ele>82.810000000000002</ele>
        <time>2023-08-28T10:27:46Z</time>
      </trkpt>
      <trkpt lat="57.1654830314219" lon="-5.336995040997863">
        <ele>83.290000000000006</ele>
        <time>2023-08-28T10:27:47Z</time>
      </trkpt>
      <trkpt lat="57.165708001703024" lon="-5.335918972268701">
        <ele>84.730000000000004</ele>
        <time>2023-08-28T10:27:50Z</time>
      </trkpt>
      <trkpt lat="57.165748989209533" lon="-5.335554024204612">
        <ele>85.689999999999998</ele>
        <time>2023-08-28T10:27:51Z</time>
      </trkpt>
      <trkpt lat="57.165792994201183" lon="-5.335170971229672">
        <ele>86.659999999999997</ele>
        <time>2023-08-28T10:27:52Z</time>
      </trkpt>
      <trkpt lat="57.165772039443254" lon="-5.334812980145216">
        <ele>87.140000000000001</ele>
        <time>2023-08-28T10:27:53Z</time>
      </trkpt>
      <trkpt lat="57.16574496589601" lon="-5.334422970190644">
        <ele>88.099999999999994</ele>
        <time>2023-08-28T10:27:54Z</time>
      </trkpt>
      <trkpt lat="57.165666008368134" lon="-5.334073025733233">
        <ele>89.060000000000002</ele>
        <time>2023-08-28T10:27:55Z</time>
      </trkpt>
      <trkpt lat="57.165554026141763" lon="-5.333732971921563">
        <ele>90.019999999999996</ele>
        <time>2023-08-28T10:27:56Z</time>
      </trkpt>
      <trkpt lat="57.165432991459966" lon="-5.333412028849125">
        <ele>91.459999999999994</ele>
        <time>2023-08-28T10:27:57Z</time>
      </trkpt>
      <trkpt lat="57.16471298597753" lon="-5.331530040130019">
        <ele>101.08</ele>
        <time>2023-08-28T10:28:04Z</time>
      </trkpt>
      <trkpt lat="57.164249969646335" lon="-5.329412017017603">
        <ele>110.20999999999999</ele>
        <time>2023-08-28T10:28:12Z</time>
      </trkpt>
      <trkpt lat="57.164248963817954" lon="-5.327103976160288">
        <ele>116.94</ele>
        <time>2023-08-28T10:28:20Z</time>
      </trkpt>
      <trkpt lat="57.164321970194578" lon="-5.326416995376349">
        <ele>118.86</ele>
        <time>2023-08-28T10:28:22Z</time>
      </trkpt>
      <trkpt lat="57.164379972964525" lon="-5.326099991798401">
        <ele>120.3</ele>
        <time>2023-08-28T10:28:23Z</time>
      </trkpt>
      <trkpt lat="57.164448034018278" lon="-5.325795980170369">
        <ele>121.73999999999999</ele>
        <time>2023-08-28T10:28:24Z</time>
      </trkpt>
      <trkpt lat="57.164530009031296" lon="-5.32551996409893">
        <ele>122.70999999999999</ele>
        <time>2023-08-28T10:28:25Z</time>
      </trkpt>
      <trkpt lat="57.164619024842978" lon="-5.325242020189762">
        <ele>124.15000000000001</ele>
        <time>2023-08-28T10:28:26Z</time>
      </trkpt>
      <trkpt lat="57.165295025333762" lon="-5.323164984583855">
        <ele>131.36000000000001</ele>
        <time>2023-08-28T10:28:32Z</time>
      </trkpt>
      <trkpt lat="57.166241006925702" lon="-5.320456959307194">
        <ele>138.56999999999999</ele>
        <time>2023-08-28T10:28:40Z</time>
      </trkpt>
      <trkpt lat="57.166303033009171" lon="-5.320116989314556">
        <ele>139.53</ele>
        <time>2023-08-28T10:28:41Z</time>
      </trkpt>
      <trkpt lat="57.16636598110199" lon="-5.319774001836777">
        <ele>140.49000000000001</ele>
        <time>2023-08-28T10:28:42Z</time>
      </trkpt>
      <trkpt lat="57.166403029114008" lon="-5.319413999095559">
        <ele>141.44999999999999</ele>
        <time>2023-08-28T10:28:43Z</time>
      </trkpt>
      <trkpt lat="57.166436975821853" lon="-5.319044021889567">
        <ele>141.93000000000001</ele>
        <time>2023-08-28T10:28:44Z</time>
      </trkpt>
      <trkpt lat="57.166462959721684" lon="-5.318660968914628">
        <ele>142.41</ele>
        <time>2023-08-28T10:28:45Z</time>
      </trkpt>
      <trkpt lat="57.166640991345048" lon="-5.314104985445738">
        <ele>148.18000000000001</ele>
        <time>2023-08-28T10:28:56Z</time>
      </trkpt>
      <trkpt lat="57.167019015178084" lon="-5.311242984607816">
        <ele>150.58000000000001</ele>
        <time>2023-08-28T10:29:03Z</time>
      </trkpt>
      <trkpt lat="57.167565012350678" lon="-5.306952958926559">
        <ele>163.08000000000001</ele>
        <time>2023-08-28T10:29:14Z</time>
      </trkpt>
      <trkpt lat="57.167576998472214" lon="-5.306552974507213">
        <ele>164.52000000000001</ele>
        <time>2023-08-28T10:29:15Z</time>
      </trkpt>
      <trkpt lat="57.167652016505599" lon="-5.305382022634149">
        <ele>168.84999999999999</ele>
        <time>2023-08-28T10:29:18Z</time>
      </trkpt>
      <trkpt lat="57.16769996099174" lon="-5.305014979094267">
        <ele>170.77000000000001</ele>
        <time>2023-08-28T10:29:19Z</time>
      </trkpt>
      <trkpt lat="57.167786965146661" lon="-5.304693030193448">
        <ele>171.72999999999999</ele>
        <time>2023-08-28T10:29:20Z</time>
      </trkpt>
      <trkpt lat="57.167886961251497" lon="-5.304378960281611">
        <ele>172.69</ele>
        <time>2023-08-28T10:29:21Z</time>
      </trkpt>
      <trkpt lat="57.168001038953662" lon="-5.30407402664423">
        <ele>174.13999999999999</ele>
        <time>2023-08-28T10:29:22Z</time>
      </trkpt>
      <trkpt lat="57.16920199804008" lon="-5.300755966454744">
        <ele>187.11000000000001</ele>
        <time>2023-08-28T10:29:32Z</time>
      </trkpt>
      <trkpt lat="57.169282967224717" lon="-5.30037903226912">
        <ele>188.08000000000001</ele>
        <time>2023-08-28T10:29:33Z</time>
      </trkpt>
      <trkpt lat="57.169740032404661" lon="-5.296880006790161">
        <ele>194.31999999999999</ele>
        <time>2023-08-28T10:29:42Z</time>
      </trkpt>
      <trkpt lat="57.169694015756249" lon="-5.296522015705705">
        <ele>193.84</ele>
        <time>2023-08-28T10:29:43Z</time>
      </trkpt>
      <trkpt lat="57.169647999107838" lon="-5.296179028227925">
        <ele>193.84</ele>
        <time>2023-08-28T10:29:44Z</time>
      </trkpt>
      <trkpt lat="57.169574992731214" lon="-5.295836040750146">
        <ele>193.84</ele>
        <time>2023-08-28T10:29:45Z</time>
      </trkpt>
      <trkpt lat="57.169493017718196" lon="-5.295493975281715">
        <ele>193.36000000000001</ele>
        <time>2023-08-28T10:29:46Z</time>
      </trkpt>
      <trkpt lat="57.169367959722877" lon="-5.295188035815954">
        <ele>192.88</ele>
        <time>2023-08-28T10:29:47Z</time>
      </trkpt>
      <trkpt lat="57.169221024960279" lon="-5.294910008087754">
        <ele>192.40000000000001</ele>
        <time>2023-08-28T10:29:48Z</time>
      </trkpt>
      <trkpt lat="57.169067971408367" lon="-5.294617982581258">
        <ele>191.91999999999999</ele>
        <time>2023-08-28T10:29:49Z</time>
      </trkpt>
      <trkpt lat="57.168913995847106" lon="-5.294326962903142">
        <ele>190.96000000000001</ele>
        <time>2023-08-28T10:29:50Z</time>
      </trkpt>
      <trkpt lat="57.168319970369339" lon="-5.293147964403033">
        <ele>190</ele>
        <time>2023-08-28T10:29:54Z</time>
      </trkpt>
      <trkpt lat="57.168202036991715" lon="-5.292835989966989">
        <ele>190</ele>
        <time>2023-08-28T10:29:55Z</time>
      </trkpt>
      <trkpt lat="57.168129030615091" lon="-5.292489985004067">
        <ele>190.47999999999999</ele>
        <time>2023-08-28T10:29:56Z</time>
      </trkpt>
      <trkpt lat="57.168088965117931" lon="-5.292125958949328">
        <ele>190.96000000000001</ele>
        <time>2023-08-28T10:29:57Z</time>
      </trkpt>
      <trkpt lat="57.168047977611423" lon="-5.291760005056858">
        <ele>190.96000000000001</ele>
        <time>2023-08-28T10:29:58Z</time>
      </trkpt>
      <trkpt lat="57.168026017025113" lon="-5.291387010365725">
        <ele>191.44</ele>
        <time>2023-08-28T10:29:59Z</time>
      </trkpt>
      <trkpt lat="57.168029034510255" lon="-5.290979985147715">
        <ele>191.44</ele>
        <time>2023-08-28T10:30:00Z</time>
      </trkpt>
      <trkpt lat="57.168007995933294" lon="-5.287778014317155">
        <ele>190.47999999999999</ele>
        <time>2023-08-28T10:30:08Z</time>
      </trkpt>
      <trkpt lat="57.167958039790392" lon="-5.287451036274433">
        <ele>190.96000000000001</ele>
        <time>2023-08-28T10:30:09Z</time>
      </trkpt>
      <trkpt lat="57.167886961251497" lon="-5.287112994119525">
        <ele>190.96000000000001</ele>
        <time>2023-08-28T10:30:10Z</time>
      </trkpt>
      <trkpt lat="57.167810015380383" lon="-5.286741005256772">
        <ele>190.96000000000001</ele>
        <time>2023-08-28T10:30:11Z</time>
      </trkpt>
      <trkpt lat="57.167690992355347" lon="-5.286482004448772">
        <ele>190.96000000000001</ele>
        <time>2023-08-28T10:30:12Z</time>
      </trkpt>
      <trkpt lat="57.167552020400763" lon="-5.2861990313977">
        <ele>190.96000000000001</ele>
        <time>2023-08-28T10:30:13Z</time>
      </trkpt>
      <trkpt lat="57.167380023747683" lon="-5.285979006439447">
        <ele>190.96000000000001</ele>
        <time>2023-08-28T10:30:14Z</time>
      </trkpt>
      <trkpt lat="57.167206015437841" lon="-5.285755963996053">
        <ele>190.47999999999999</ele>
        <time>2023-08-28T10:30:15Z</time>
      </trkpt>
      <trkpt lat="57.167024966329336" lon="-5.285525964573026">
        <ele>190.47999999999999</ele>
        <time>2023-08-28T10:30:16Z</time>
      </trkpt>
      <trkpt lat="57.166848024353385" lon="-5.28529898263514">
        <ele>190</ele>
        <time>2023-08-28T10:30:17Z</time>
      </trkpt>
      <trkpt lat="57.166718021035194" lon="-5.284978961572051">
        <ele>190.47999999999999</ele>
        <time>2023-08-28T10:30:18Z</time>
      </trkpt>
      <trkpt lat="57.166620036587119" lon="-5.284645026549697">
        <ele>190.47999999999999</ele>
        <time>2023-08-28T10:30:19Z</time>
      </trkpt>
      <trkpt lat="57.166562033817172" lon="-5.284287035465241">
        <ele>190.96000000000001</ele>
        <time>2023-08-28T10:30:20Z</time>
      </trkpt>
      <trkpt lat="57.166502019390464" lon="-5.283916974440217">
        <ele>190.96000000000001</ele>
        <time>2023-08-28T10:30:21Z</time>
      </trkpt>
      <trkpt lat="57.166462037712336" lon="-5.283524030819535">
        <ele>191.44</ele>
        <time>2023-08-28T10:30:22Z</time>
      </trkpt>
      <trkpt lat="57.166102034971118" lon="-5.279742032289505">
        <ele>196.25</ele>
        <time>2023-08-28T10:30:31Z</time>
      </trkpt>
      <trkpt lat="57.16541999951005" lon="-5.277035012841225">
        <ele>198.65000000000001</ele>
        <time>2023-08-28T10:30:38Z</time>
      </trkpt>
      <trkpt lat="57.165264012292027" lon="-5.276712980121374">
        <ele>199.13</ele>
        <time>2023-08-28T10:30:39Z</time>
      </trkpt>
      <trkpt lat="57.164359018206596" lon="-5.274842977523804">
        <ele>200.09</ele>
        <time>2023-08-28T10:30:45Z</time>
      </trkpt>
      <trkpt lat="57.164248041808605" lon="-5.274504013359547">
        <ele>200.56999999999999</ele>
        <time>2023-08-28T10:30:46Z</time>
      </trkpt>
      <trkpt lat="57.164145028218627" lon="-5.274159014225006">
        <ele>201.05000000000001</ele>
        <time>2023-08-28T10:30:47Z</time>
      </trkpt>
      <trkpt lat="57.16331597417593" lon="-5.271820966154337">
        <ele>205.38</ele>
        <time>2023-08-28T10:30:54Z</time>
      </trkpt>
      <trkpt lat="57.162114009261131" lon="-5.269153006374836">
        <ele>210.19</ele>
        <time>2023-08-28T10:31:03Z</time>
      </trkpt>
      <trkpt lat="57.160783968865871" lon="-5.266942027956247">
        <ele>213.55000000000001</ele>
        <time>2023-08-28T10:31:11Z</time>
      </trkpt>
      <trkpt lat="57.159806974232197" lon="-5.265396991744638">
        <ele>218.36000000000001</ele>
        <time>2023-08-28T10:31:17Z</time>
      </trkpt>
      <trkpt lat="57.159680994227529" lon="-5.265106977894902">
        <ele>219.31999999999999</ele>
        <time>2023-08-28T10:31:18Z</time>
      </trkpt>
      <trkpt lat="57.159570017829537" lon="-5.264812018722296">
        <ele>220.75999999999999</ele>
        <time>2023-08-28T10:31:19Z</time>
      </trkpt>
      <trkpt lat="57.159505980089307" lon="-5.264452015981078">
        <ele>221.72</ele>
        <time>2023-08-28T10:31:20Z</time>
      </trkpt>
      <trkpt lat="57.159443031996489" lon="-5.264097964391112">
        <ele>222.68000000000001</ele>
        <time>2023-08-28T10:31:21Z</time>
      </trkpt>
      <trkpt lat="57.159390980377793" lon="-5.263736033812165">
        <ele>223.63999999999999</ele>
        <time>2023-08-28T10:31:22Z</time>
      </trkpt>
      <trkpt lat="57.159366002306342" lon="-5.263354992493987">
        <ele>224.61000000000001</ele>
        <time>2023-08-28T10:31:23Z</time>
      </trkpt>
      <trkpt lat="57.15918998233974" lon="-5.261117024347186">
        <ele>230.37</ele>
        <time>2023-08-28T10:31:29Z</time>
      </trkpt>
      <trkpt lat="57.159142959862947" lon="-5.260754004120827">
        <ele>231.33000000000001</ele>
        <time>2023-08-28T10:31:30Z</time>
      </trkpt>
      <trkpt lat="57.159035000950098" lon="-5.260415961965919">
        <ele>232.30000000000001</ele>
        <time>2023-08-28T10:31:31Z</time>
      </trkpt>
      <trkpt lat="57.158920001238585" lon="-5.260071968659759">
        <ele>233.74000000000001</ele>
        <time>2023-08-28T10:31:32Z</time>
      </trkpt>
      <trkpt lat="57.158788992092013" lon="-5.259728981181979">
        <ele>234.69999999999999</ele>
        <time>2023-08-28T10:31:33Z</time>
      </trkpt>
      <trkpt lat="57.158647002652287" lon="-5.259397979825735">
        <ele>235.66</ele>
        <time>2023-08-28T10:31:34Z</time>
      </trkpt>
      <trkpt lat="57.157511003315449" lon="-5.257011987268925">
        <ele>242.87</ele>
        <time>2023-08-28T10:31:42Z</time>
      </trkpt>
      <trkpt lat="57.157349986955523" lon="-5.25676597841084">
        <ele>242.87</ele>
        <time>2023-08-28T10:31:43Z</time>
      </trkpt>
      <trkpt lat="57.15671899728477" lon="-5.255804993212223">
        <ele>243.34999999999999</ele>
        <time>2023-08-28T10:31:47Z</time>
      </trkpt>
      <trkpt lat="57.156623024493456" lon="-5.255482960492373">
        <ele>243.34999999999999</ele>
        <time>2023-08-28T10:31:48Z</time>
      </trkpt>
      <trkpt lat="57.156529985368252" lon="-5.255166962742806">
        <ele>243.34999999999999</ele>
        <time>2023-08-28T10:31:49Z</time>
      </trkpt>
      <trkpt lat="57.156467959284782" lon="-5.254836967214942">
        <ele>243.34999999999999</ele>
        <time>2023-08-28T10:31:50Z</time>
      </trkpt>
      <trkpt lat="57.156432000920177" lon="-5.254493979737163">
        <ele>243.34999999999999</ele>
        <time>2023-08-28T10:31:51Z</time>
      </trkpt>
      <trkpt lat="57.156415991485119" lon="-5.254126014187932">
        <ele>243.83000000000001</ele>
        <time>2023-08-28T10:31:52Z</time>
      </trkpt>
      <trkpt lat="57.156436024233699" lon="-5.253781015053392">
        <ele>243.83000000000001</ele>
        <time>2023-08-28T10:31:53Z</time>
      </trkpt>
      <trkpt lat="57.156457984820008" lon="-5.25341497734189">
        <ele>244.31</ele>
        <time>2023-08-28T10:31:54Z</time>
      </trkpt>
      <trkpt lat="57.156494027003646" lon="-5.251599960029125">
        <ele>249.12</ele>
        <time>2023-08-28T10:31:59Z</time>
      </trkpt>
      <trkpt lat="57.156445998698473" lon="-5.251238029450178">
        <ele>250.56</ele>
        <time>2023-08-28T10:32:00Z</time>
      </trkpt>
      <trkpt lat="57.155855996534228" lon="-5.247766999527812">
        <ele>262.10000000000002</ele>
        <time>2023-08-28T10:32:10Z</time>
      </trkpt>
      <trkpt lat="57.15542902238667" lon="-5.246035968884826">
        <ele>266.42000000000002</ele>
        <time>2023-08-28T10:32:16Z</time>
      </trkpt>
      <trkpt lat="57.15532198548317" lon="-5.245821978896856">
        <ele>266.89999999999998</ele>
        <time>2023-08-28T10:32:17Z</time>
      </trkpt>
      <trkpt lat="57.155199022963643" lon="-5.245584016665816">
        <ele>267.86000000000001</ele>
        <time>2023-08-28T10:32:18Z</time>
      </trkpt>
      <trkpt lat="57.155056027695537" lon="-5.245371032506228">
        <ele>268.82999999999998</ele>
        <time>2023-08-28T10:32:19Z</time>
      </trkpt>
      <trkpt lat="57.154911020770669" lon="-5.245152013376355">
        <ele>269.31</ele>
        <time>2023-08-28T10:32:20Z</time>
      </trkpt>
      <trkpt lat="57.154367035254836" lon="-5.244195973500609">
        <ele>272.67000000000002</ele>
        <time>2023-08-28T10:32:24Z</time>
      </trkpt>
      <trkpt lat="57.154261004179716" lon="-5.243910988792777">
        <ele>273.14999999999998</ele>
        <time>2023-08-28T10:32:25Z</time>
      </trkpt>
      <trkpt lat="57.154170982539654" lon="-5.243611000478268">
        <ele>274.11000000000001</ele>
        <time>2023-08-28T10:32:26Z</time>
      </trkpt>
      <trkpt lat="57.153587015345693" lon="-5.24125300347805">
        <ele>278.44</ele>
        <time>2023-08-28T10:32:33Z</time>
      </trkpt>
      <trkpt lat="57.153471009805799" lon="-5.240933988243341">
        <ele>278.92000000000002</ele>
        <time>2023-08-28T10:32:34Z</time>
      </trkpt>
      <trkpt lat="57.15293699875474" lon="-5.239386018365622">
        <ele>280.83999999999997</ele>
        <time>2023-08-28T10:32:39Z</time>
      </trkpt>
      <trkpt lat="57.152884025126696" lon="-5.239051999524236">
        <ele>281.31999999999999</ele>
        <time>2023-08-28T10:32:40Z</time>
      </trkpt>
      <trkpt lat="57.152839014306664" lon="-5.238703982904553">
        <ele>281.80000000000001</ele>
        <time>2023-08-28T10:32:41Z</time>
      </trkpt>
      <trkpt lat="57.152820993214846" lon="-5.238345991820097">
        <ele>281.80000000000001</ele>
        <time>2023-08-28T10:32:42Z</time>
      </trkpt>
      <trkpt lat="57.152806995436549" lon="-5.237974002957344">
        <ele>282.27999999999997</ele>
        <time>2023-08-28T10:32:43Z</time>
      </trkpt>
      <trkpt lat="57.152749998494983" lon="-5.236795004457235">
        <ele>282.76999999999998</ele>
        <time>2023-08-28T10:32:46Z</time>
      </trkpt>
      <trkpt lat="57.152682021260262" lon="-5.236413041129708">
        <ele>282.76999999999998</ele>
        <time>2023-08-28T10:32:47Z</time>
      </trkpt>
      <trkpt lat="57.152579007670283" lon="-5.23605102673173">
        <ele>282.27999999999997</ele>
        <time>2023-08-28T10:32:48Z</time>
      </trkpt>
      <trkpt lat="57.152461996302009" lon="-5.235718013718724">
        <ele>282.27999999999997</ele>
        <time>2023-08-28T10:32:49Z</time>
      </trkpt>
      <trkpt lat="57.152330987155437" lon="-5.235421964898706">
        <ele>282.27999999999997</ele>
        <time>2023-08-28T10:32:50Z</time>
      </trkpt>
      <trkpt lat="57.15220601297915" lon="-5.235136980190873">
        <ele>281.80000000000001</ele>
        <time>2023-08-28T10:32:51Z</time>
      </trkpt>
      <trkpt lat="57.151860008016229" lon="-5.234281020238996">
        <ele>280.36000000000001</ele>
        <time>2023-08-28T10:32:54Z</time>
      </trkpt>
      <trkpt lat="57.151774009689689" lon="-5.233959993347526">
        <ele>279.88</ele>
        <time>2023-08-28T10:32:55Z</time>
      </trkpt>
      <trkpt lat="57.15173302218318" lon="-5.233600996434689">
        <ele>278.92000000000002</ele>
        <time>2023-08-28T10:32:56Z</time>
      </trkpt>
      <trkpt lat="57.1516939625144" lon="-5.23323898203671">
        <ele>278.44</ele>
        <time>2023-08-28T10:32:57Z</time>
      </trkpt>
      <trkpt lat="57.151687005534768" lon="-5.232867999002338">
        <ele>277.95999999999998</ele>
        <time>2023-08-28T10:32:58Z</time>
      </trkpt>
      <trkpt lat="57.151679964736104" lon="-5.23248502984643">
        <ele>277</ele>
        <time>2023-08-28T10:32:59Z</time>
      </trkpt>
      <trkpt lat="57.151616010814905" lon="-5.228715017437935">
        <ele>269.79000000000002</ele>
        <time>2023-08-28T10:33:08Z</time>
      </trkpt>
      <trkpt lat="57.151637971401215" lon="-5.227733999490738">
        <ele>267.86000000000001</ele>
        <time>2023-08-28T10:33:10Z</time>
      </trkpt>
      <trkpt lat="57.151668984442949" lon="-5.227266037836671">
        <ele>267.38</ele>
        <time>2023-08-28T10:33:11Z</time>
      </trkpt>
      <trkpt lat="57.151761017739773" lon="-5.226807966828346">
        <ele>266.42000000000002</ele>
        <time>2023-08-28T10:33:12Z</time>
      </trkpt>
      <trkpt lat="57.151859002187848" lon="-5.226375963538885">
        <ele>265.94</ele>
        <time>2023-08-28T10:33:13Z</time>
      </trkpt>
      <trkpt lat="57.151967966929078" lon="-5.22595401853323">
        <ele>264.98000000000002</ele>
        <time>2023-08-28T10:33:14Z</time>
      </trkpt>
      <trkpt lat="57.152105011045933" lon="-5.225559985265136">
        <ele>264.5</ele>
        <time>2023-08-28T10:33:15Z</time>
      </trkpt>
      <trkpt lat="57.152499966323376" lon="-5.224431026726961">
        <ele>263.54000000000002</ele>
        <time>2023-08-28T10:33:18Z</time>
      </trkpt>
      <trkpt lat="57.152585964649916" lon="-5.224039005115628">
        <ele>263.54000000000002</ele>
        <time>2023-08-28T10:33:19Z</time>
      </trkpt>
      <trkpt lat="57.152642961591482" lon="-5.223624017089605">
        <ele>263.06</ele>
        <time>2023-08-28T10:33:20Z</time>
      </trkpt>
      <trkpt lat="57.15270297601819" lon="-5.2231839671731">
        <ele>262.57999999999998</ele>
        <time>2023-08-28T10:33:21Z</time>
      </trkpt>
      <trkpt lat="57.152717979624867" lon="-5.222762022167444">
        <ele>262.10000000000002</ele>
        <time>2023-08-28T10:33:22Z</time>
      </trkpt>
      <trkpt lat="57.1526990365237" lon="-5.222305962815881">
        <ele>261.62</ele>
        <time>2023-08-28T10:33:23Z</time>
      </trkpt>
      <trkpt lat="57.152654025703669" lon="-5.221860967576504">
        <ele>261.62</ele>
        <time>2023-08-28T10:33:24Z</time>
      </trkpt>
      <trkpt lat="57.152611026540399" lon="-5.221431981772184">
        <ele>261.13999999999999</ele>
        <time>2023-08-28T10:33:25Z</time>
      </trkpt>
      <trkpt lat="57.152536008507013" lon="-5.218396978452802">
        <ele>254.41</ele>
        <time>2023-08-28T10:33:32Z</time>
      </trkpt>
      <trkpt lat="57.152759972959757" lon="-5.214470978826284">
        <ele>246.22999999999999</ele>
        <time>2023-08-28T10:33:41Z</time>
      </trkpt>
      <trkpt lat="57.153038000687957" lon="-5.210866006091237">
        <ele>240.94999999999999</ele>
        <time>2023-08-28T10:33:50Z</time>
      </trkpt>
      <trkpt lat="57.15300397016108" lon="-5.206722998991609">
        <ele>237.58000000000001</ele>
        <time>2023-08-28T10:34:00Z</time>
      </trkpt>
      <trkpt lat="57.153021991252899" lon="-5.202056961134076">
        <ele>233.74000000000001</ele>
        <time>2023-08-28T10:34:11Z</time>
      </trkpt>
      <trkpt lat="57.15296097099781" lon="-5.198937971144915">
        <ele>231.81</ele>
        <time>2023-08-28T10:34:19Z</time>
      </trkpt>
      <trkpt lat="57.15296097099781" lon="-5.198576040565968">
        <ele>231.81</ele>
        <time>2023-08-28T10:34:20Z</time>
      </trkpt>
      <trkpt lat="57.152973962947726" lon="-5.198211008682847">
        <ele>231.81</ele>
        <time>2023-08-28T10:34:21Z</time>
      </trkpt>
      <trkpt lat="57.153045041486621" lon="-5.197875984013081">
        <ele>231.33000000000001</ele>
        <time>2023-08-28T10:34:22Z</time>
      </trkpt>
      <trkpt lat="57.153117964044213" lon="-5.19752997905016">
        <ele>230.84999999999999</ele>
        <time>2023-08-28T10:34:23Z</time>
      </trkpt>
      <trkpt lat="57.153192982077599" lon="-5.197175005450845">
        <ele>230.84999999999999</ele>
        <time>2023-08-28T10:34:24Z</time>
      </trkpt>
      <trkpt lat="57.153270011767745" lon="-5.196810979396105">
        <ele>230.37</ele>
        <time>2023-08-28T10:34:25Z</time>
      </trkpt>
      <trkpt lat="57.153540998697281" lon="-5.194976013153791">
        <ele>229.88999999999999</ele>
        <time>2023-08-28T10:34:30Z</time>
      </trkpt>
      <trkpt lat="57.153562037274241" lon="-5.194559013471007">
        <ele>229.88999999999999</ele>
        <time>2023-08-28T10:34:31Z</time>
      </trkpt>
      <trkpt lat="57.15349699370563" lon="-5.191108016297221">
        <ele>227.49000000000001</ele>
        <time>2023-08-28T10:34:40Z</time>
      </trkpt>
      <trkpt lat="57.153647029772401" lon="-5.188661003485322">
        <ele>224.12</ele>
        <time>2023-08-28T10:34:46Z</time>
      </trkpt>
      <trkpt lat="57.15371198952198" lon="-5.188271999359131">
        <ele>223.63999999999999</ele>
        <time>2023-08-28T10:34:47Z</time>
      </trkpt>
      <trkpt lat="57.153815003111959" lon="-5.187907973304391">
        <ele>223.16</ele>
        <time>2023-08-28T10:34:48Z</time>
      </trkpt>
      <trkpt lat="57.153918016701937" lon="-5.187544031068683">
        <ele>222.68000000000001</ele>
        <time>2023-08-28T10:34:49Z</time>
      </trkpt>
      <trkpt lat="57.154034022241831" lon="-5.187188973650336">
        <ele>222.19999999999999</ele>
        <time>2023-08-28T10:34:50Z</time>
      </trkpt>
      <trkpt lat="57.15418104082346" lon="-5.186864007264376">
        <ele>221.72</ele>
        <time>2023-08-28T10:34:51Z</time>
      </trkpt>
      <trkpt lat="57.155535975471139" lon="-5.184258995577693">
        <ele>218.36000000000001</ele>
        <time>2023-08-28T10:35:00Z</time>
      </trkpt>
      <trkpt lat="57.15618297457695" lon="-5.183188961818814">
        <ele>217.40000000000001</ele>
        <time>2023-08-28T10:35:05Z</time>
      </trkpt>
      <trkpt lat="57.15626603923738" lon="-5.182989975437522">
        <ele>217.40000000000001</ele>
        <time>2023-08-28T10:35:06Z</time>
      </trkpt>
      <trkpt lat="57.156323958188295" lon="-5.182758970186114">
        <ele>217.40000000000001</ele>
        <time>2023-08-28T10:35:07Z</time>
      </trkpt>
      <trkpt lat="57.15637500397861" lon="-5.182520002126694">
        <ele>217.40000000000001</ele>
        <time>2023-08-28T10:35:08Z</time>
      </trkpt>
      <trkpt lat="57.156419008970261" lon="-5.182271981611848">
        <ele>217.88</ele>
        <time>2023-08-28T10:35:09Z</time>
      </trkpt>
      <trkpt lat="57.15646100230515" lon="-5.182012980803847">
        <ele>217.88</ele>
        <time>2023-08-28T10:35:10Z</time>
      </trkpt>
      <trkpt lat="57.156482040882111" lon="-5.181735958904028">
        <ele>217.88</ele>
        <time>2023-08-28T10:35:11Z</time>
      </trkpt>
      <trkpt lat="57.156570972874761" lon="-5.179828992113471">
        <ele>219.31999999999999</ele>
        <time>2023-08-28T10:35:17Z</time>
      </trkpt>
      <trkpt lat="57.156540965661407" lon="-5.179487010464072">
        <ele>219.31999999999999</ele>
        <time>2023-08-28T10:35:18Z</time>
      </trkpt>
      <trkpt lat="57.156490003690124" lon="-5.179146034643054">
        <ele>219.80000000000001</ele>
        <time>2023-08-28T10:35:19Z</time>
      </trkpt>
      <trkpt lat="57.156406017020345" lon="-5.178807992488146">
        <ele>220.28</ele>
        <time>2023-08-28T10:35:20Z</time>
      </trkpt>
      <trkpt lat="57.156320018693805" lon="-5.178455030545592">
        <ele>220.28</ele>
        <time>2023-08-28T10:35:21Z</time>
      </trkpt>
      <trkpt lat="57.155978037044406" lon="-5.177079979330301">
        <ele>221.72</ele>
        <time>2023-08-28T10:35:25Z</time>
      </trkpt>
      <trkpt lat="57.155937971547246" lon="-5.176732968539">
        <ele>222.19999999999999</ele>
        <time>2023-08-28T10:35:26Z</time>
      </trkpt>
      <trkpt lat="57.155901007354259" lon="-5.176405990496278">
        <ele>222.19999999999999</ele>
        <time>2023-08-28T10:35:27Z</time>
      </trkpt>
      <trkpt lat="57.155918022617698" lon="-5.176035007461906">
        <ele>222.19999999999999</ele>
        <time>2023-08-28T10:35:28Z</time>
      </trkpt>
      <trkpt lat="57.155935037881136" lon="-5.175671987235546">
        <ele>222.19999999999999</ele>
        <time>2023-08-28T10:35:29Z</time>
      </trkpt>
      <trkpt lat="57.155973007902503" lon="-5.175295975059271">
        <ele>221.72</ele>
        <time>2023-08-28T10:35:30Z</time>
      </trkpt>
      <trkpt lat="57.156626963987947" lon="-5.172672020271421">
        <ele>215.94999999999999</ele>
        <time>2023-08-28T10:35:37Z</time>
      </trkpt>
      <trkpt lat="57.157716024667025" lon="-5.170448971912265">
        <ele>213.55000000000001</ele>
        <time>2023-08-28T10:35:44Z</time>
      </trkpt>
      <trkpt lat="57.157863965258002" lon="-5.170110007748008">
        <ele>213.55000000000001</ele>
        <time>2023-08-28T10:35:45Z</time>
      </trkpt>
      <trkpt lat="57.159141032025218" lon="-5.166323985904455">
        <ele>213.55000000000001</ele>
        <time>2023-08-28T10:35:55Z</time>
      </trkpt>
      <trkpt lat="57.159809991717339" lon="-5.163298035040498">
        <ele>216.91</ele>
        <time>2023-08-28T10:36:03Z</time>
      </trkpt>
      <trkpt lat="57.160014007240534" lon="-5.160078965127468">
        <ele>222.68000000000001</ele>
        <time>2023-08-28T10:36:11Z</time>
      </trkpt>
      <trkpt lat="57.159720975905657" lon="-5.157302962616086">
        <ele>224.61000000000001</ele>
        <time>2023-08-28T10:36:18Z</time>
      </trkpt>
      <trkpt lat="57.159489970654249" lon="-5.156562002375722">
        <ele>225.09</ele>
        <time>2023-08-28T10:36:20Z</time>
      </trkpt>
      <trkpt lat="57.158380039036274" lon="-5.153304962441325">
        <ele>225.56999999999999</ele>
        <time>2023-08-28T10:36:29Z</time>
      </trkpt>
      <trkpt lat="57.157266000285745" lon="-5.149688003584743">
        <ele>225.56999999999999</ele>
        <time>2023-08-28T10:36:39Z</time>
      </trkpt>
      <trkpt lat="57.156136035919189" lon="-5.145078040659428">
        <ele>224.61000000000001</ele>
        <time>2023-08-28T10:36:51Z</time>
      </trkpt>
      <trkpt lat="57.155284015461802" lon="-5.140973003581166">
        <ele>228.93000000000001</ele>
        <time>2023-08-28T10:37:02Z</time>
      </trkpt>
      <trkpt lat="57.154503995552659" lon="-5.13728697784245">
        <ele>229.41</ele>
        <time>2023-08-28T10:37:11Z</time>
      </trkpt>
      <trkpt lat="57.153876023367047" lon="-5.134347025305033">
        <ele>233.25999999999999</ele>
        <time>2023-08-28T10:37:19Z</time>
      </trkpt>
      <trkpt lat="57.153533035889268" lon="-5.130856968462467">
        <ele>232.30000000000001</ele>
        <time>2023-08-28T10:37:27Z</time>
      </trkpt>
      <trkpt lat="57.153005981817842" lon="-5.128229996189475">
        <ele>230.84999999999999</ele>
        <time>2023-08-28T10:37:34Z</time>
      </trkpt>
      <trkpt lat="57.152011971920729" lon="-5.125369001179934">
        <ele>230.37</ele>
        <time>2023-08-28T10:37:42Z</time>
      </trkpt>
      <trkpt lat="57.150340033695102" lon="-5.121853966265917">
        <ele>234.22</ele>
        <time>2023-08-28T10:37:53Z</time>
      </trkpt>
      <trkpt lat="57.148706987500191" lon="-5.118502965196967">
        <ele>237.09999999999999</ele>
        <time>2023-08-28T10:38:04Z</time>
      </trkpt>
      <trkpt lat="57.148613026365638" lon="-5.118171041831374">
        <ele>237.58000000000001</ele>
        <time>2023-08-28T10:38:05Z</time>
      </trkpt>
      <trkpt lat="57.148519987240434" lon="-5.11784196831286">
        <ele>238.06</ele>
        <time>2023-08-28T10:38:06Z</time>
      </trkpt>
      <trkpt lat="57.148453015834093" lon="-5.117484983056784">
        <ele>238.53999999999999</ele>
        <time>2023-08-28T10:38:07Z</time>
      </trkpt>
      <trkpt lat="57.148402975872159" lon="-5.117103019729257">
        <ele>238.53999999999999</ele>
        <time>2023-08-28T10:38:08Z</time>
      </trkpt>
      <trkpt lat="57.148374980315566" lon="-5.116709992289543">
        <ele>239.02000000000001</ele>
        <time>2023-08-28T10:38:09Z</time>
      </trkpt>
      <trkpt lat="57.148132994771004" lon="-5.1143619697541">
        <ele>237.09999999999999</ele>
        <time>2023-08-28T10:38:15Z</time>
      </trkpt>
      <trkpt lat="57.148054959252477" lon="-5.114025017246604">
        <ele>236.62</ele>
        <time>2023-08-28T10:38:16Z</time>
      </trkpt>
      <trkpt lat="57.147955968976021" lon="-5.113710025325418">
        <ele>236.62</ele>
        <time>2023-08-28T10:38:17Z</time>
      </trkpt>
      <trkpt lat="57.147847004234791" lon="-5.113411964848638">
        <ele>236.62</ele>
        <time>2023-08-28T10:38:18Z</time>
      </trkpt>
      <trkpt lat="57.147719012573361" lon="-5.113128991797566">
        <ele>236.62</ele>
        <time>2023-08-28T10:38:19Z</time>
      </trkpt>
      <trkpt lat="57.147572999820113" lon="-5.112865967676044">
        <ele>237.09999999999999</ele>
        <time>2023-08-28T10:38:20Z</time>
      </trkpt>
      <trkpt lat="57.147424975410104" lon="-5.112600009888411">
        <ele>237.09999999999999</ele>
        <time>2023-08-28T10:38:21Z</time>
      </trkpt>
      <trkpt lat="57.146527022123337" lon="-5.110605033114553">
        <ele>234.22</ele>
        <time>2023-08-28T10:38:28Z</time>
      </trkpt>
      <trkpt lat="57.146437000483274" lon="-5.110261961817741">
        <ele>233.25999999999999</ele>
        <time>2023-08-28T10:38:29Z</time>
      </trkpt>
      <trkpt lat="57.146372962743044" lon="-5.109900031238794">
        <ele>232.30000000000001</ele>
        <time>2023-08-28T10:38:30Z</time>
      </trkpt>
      <trkpt lat="57.146347984671593" lon="-5.109519995748997">
        <ele>231.33000000000001</ele>
        <time>2023-08-28T10:38:31Z</time>
      </trkpt>
      <trkpt lat="57.146339016035199" lon="-5.109124034643173">
        <ele>230.84999999999999</ele>
        <time>2023-08-28T10:38:32Z</time>
      </trkpt>
      <trkpt lat="57.146330969408154" lon="-5.108726983889937">
        <ele>229.41</ele>
        <time>2023-08-28T10:38:33Z</time>
      </trkpt>
      <trkpt lat="57.146369023248553" lon="-5.108339991420507">
        <ele>228.44999999999999</ele>
        <time>2023-08-28T10:38:34Z</time>
      </trkpt>
      <trkpt lat="57.146411016583443" lon="-5.107941012829542">
        <ele>227.49000000000001</ele>
        <time>2023-08-28T10:38:35Z</time>
      </trkpt>
      <trkpt lat="57.146453009918332" lon="-5.107539016753435">
        <ele>226.53</ele>
        <time>2023-08-28T10:38:36Z</time>
      </trkpt>
      <trkpt lat="57.146989032626152" lon="-5.103003988042474">
        <ele>222.68000000000001</ele>
        <time>2023-08-28T10:38:47Z</time>
      </trkpt>
      <trkpt lat="57.147317016497254" lon="-5.099922968074679">
        <ele>224.12</ele>
        <time>2023-08-28T10:38:56Z</time>
      </trkpt>
      <trkpt lat="57.147251972928643" lon="-5.097038000822067">
        <ele>227.49000000000001</ele>
        <time>2023-08-28T10:39:03Z</time>
      </trkpt>
      <trkpt lat="57.146774958819151" lon="-5.094096036627889">
        <ele>231.81</ele>
        <time>2023-08-28T10:39:10Z</time>
      </trkpt>
      <trkpt lat="57.145686987787485" lon="-5.091325985267758">
        <ele>235.66</ele>
        <time>2023-08-28T10:39:18Z</time>
      </trkpt>
      <trkpt lat="57.144549982622266" lon="-5.089221959933639">
        <ele>236.62</ele>
        <time>2023-08-28T10:39:26Z</time>
      </trkpt>
      <trkpt lat="57.143532000482082" lon="-5.086211012676358">
        <ele>238.53999999999999</ele>
        <time>2023-08-28T10:39:35Z</time>
      </trkpt>
      <trkpt lat="57.142963958904147" lon="-5.083220014348626">
        <ele>239.50999999999999</ele>
        <time>2023-08-28T10:39:42Z</time>
      </trkpt>
      <trkpt lat="57.14271099306643" lon="-5.079991975799203">
        <ele>237.58000000000001</ele>
        <time>2023-08-28T10:39:49Z</time>
      </trkpt>
      <trkpt lat="57.142567997798324" lon="-5.07512804120779">
        <ele>233.74000000000001</ele>
        <time>2023-08-28T10:40:01Z</time>
      </trkpt>
      <trkpt lat="57.14277402497828" lon="-5.071678971871734">
        <ele>226.53</ele>
        <time>2023-08-28T10:40:10Z</time>
      </trkpt>
      <trkpt lat="57.143154982477427" lon="-5.070297969505191">
        <ele>223.63999999999999</ele>
        <time>2023-08-28T10:40:14Z</time>
      </trkpt>
      <trkpt lat="57.143308036029339" lon="-5.070026982575655">
        <ele>223.63999999999999</ele>
        <time>2023-08-28T10:40:15Z</time>
      </trkpt>
      <trkpt lat="57.143477015197277" lon="-5.069763036444783">
        <ele>223.16</ele>
        <time>2023-08-28T10:40:16Z</time>
      </trkpt>
      <trkpt lat="57.143680024892092" lon="-5.069568995386362">
        <ele>223.63999999999999</ele>
        <time>2023-08-28T10:40:17Z</time>
      </trkpt>
      <trkpt lat="57.143889991566539" lon="-5.069367997348309">
        <ele>223.16</ele>
        <time>2023-08-28T10:40:18Z</time>
      </trkpt>
      <trkpt lat="57.144130971282721" lon="-5.069247968494892">
        <ele>223.16</ele>
        <time>2023-08-28T10:40:19Z</time>
      </trkpt>
      <trkpt lat="57.144379997625947" lon="-5.069162975996733">
        <ele>223.16</ele>
        <time>2023-08-28T10:40:20Z</time>
      </trkpt>
      <trkpt lat="57.144631035625935" lon="-5.069108996540308">
        <ele>222.68000000000001</ele>
        <time>2023-08-28T10:40:21Z</time>
      </trkpt>
      <trkpt lat="57.146011032164097" lon="-5.068643968552351">
        <ele>222.68000000000001</ele>
        <time>2023-08-28T10:40:27Z</time>
      </trkpt>
      <trkpt lat="57.146202977746725" lon="-5.068494016304612">
        <ele>222.68000000000001</ele>
        <time>2023-08-28T10:40:28Z</time>
      </trkpt>
      <trkpt lat="57.146387966349721" lon="-5.068309027701616">
        <ele>222.68000000000001</ele>
        <time>2023-08-28T10:40:29Z</time>
      </trkpt>
      <trkpt lat="57.14655602350831" lon="-5.068062013015151">
        <ele>222.68000000000001</ele>
        <time>2023-08-28T10:40:30Z</time>
      </trkpt>
      <trkpt lat="57.146713016554713" lon="-5.067773004993796">
        <ele>222.68000000000001</ele>
        <time>2023-08-28T10:40:31Z</time>
      </trkpt>
      <trkpt lat="57.146866992115974" lon="-5.067464970052242">
        <ele>223.63999999999999</ele>
        <time>2023-08-28T10:40:32Z</time>
      </trkpt>
      <trkpt lat="57.147003030404449" lon="-5.067104967311025">
        <ele>224.12</ele>
        <time>2023-08-28T10:40:33Z</time>
      </trkpt>
      <trkpt lat="57.147117024287581" lon="-5.066721998155117">
        <ele>225.09</ele>
        <time>2023-08-28T10:40:34Z</time>
      </trkpt>
      <trkpt lat="57.147212997078896" lon="-5.066322013735771">
        <ele>226.05000000000001</ele>
        <time>2023-08-28T10:40:35Z</time>
      </trkpt>
      <trkpt lat="57.147307964041829" lon="-5.065928986296058">
        <ele>227.00999999999999</ele>
        <time>2023-08-28T10:40:36Z</time>
      </trkpt>
      <trkpt lat="57.147391028702259" lon="-5.065548028796911">
        <ele>227.97</ele>
        <time>2023-08-28T10:40:37Z</time>
      </trkpt>
      <trkpt lat="57.147575011476874" lon="-5.06288300268352">
        <ele>231.33000000000001</ele>
        <time>2023-08-28T10:40:44Z</time>
      </trkpt>
      <trkpt lat="57.147344006225467" lon="-5.059139980003238">
        <ele>228.93000000000001</ele>
        <time>2023-08-28T10:40:53Z</time>
      </trkpt>
      <trkpt lat="57.147340988740325" lon="-5.055776992812753">
        <ele>228.44999999999999</ele>
        <time>2023-08-28T10:41:01Z</time>
      </trkpt>
      <trkpt lat="57.147897966206074" lon="-5.050902999937534">
        <ele>234.69999999999999</ele>
        <time>2023-08-28T10:41:13Z</time>
      </trkpt>
      <trkpt lat="57.148530967533588" lon="-5.047597009688616">
        <ele>233.74000000000001</ele>
        <time>2023-08-28T10:41:21Z</time>
      </trkpt>
      <trkpt lat="57.149626985192299" lon="-5.043404968455434">
        <ele>231.33000000000001</ele>
        <time>2023-08-28T10:41:32Z</time>
      </trkpt>
      <trkpt lat="57.150212964043021" lon="-5.040271980687976">
        <ele>231.33000000000001</ele>
        <time>2023-08-28T10:41:40Z</time>
      </trkpt>
      <trkpt lat="57.150138029828668" lon="-5.037713991478086">
        <ele>231.33000000000001</ele>
        <time>2023-08-28T10:41:46Z</time>
      </trkpt>
      <trkpt lat="57.149676019325852" lon="-5.03460799343884">
        <ele>230.84999999999999</ele>
        <time>2023-08-28T10:41:54Z</time>
      </trkpt>
      <trkpt lat="57.149518020451069" lon="-5.031198989599943">
        <ele>229.88999999999999</ele>
        <time>2023-08-28T10:42:02Z</time>
      </trkpt>
      <trkpt lat="57.149061039090157" lon="-5.028427010402083">
        <ele>232.30000000000001</ele>
        <time>2023-08-28T10:42:09Z</time>
      </trkpt>
      <trkpt lat="57.148386966437101" lon="-5.024392968043685">
        <ele>232.30000000000001</ele>
        <time>2023-08-28T10:42:19Z</time>
      </trkpt>
      <trkpt lat="57.148436000570655" lon="-5.021391995251179">
        <ele>228.93000000000001</ele>
        <time>2023-08-28T10:42:26Z</time>
      </trkpt>
      <trkpt lat="57.148451004177332" lon="-5.020974995568395">
        <ele>228.44999999999999</ele>
        <time>2023-08-28T10:42:27Z</time>
      </trkpt>
      <trkpt lat="57.148430971428752" lon="-5.020563025027514">
        <ele>227.97</ele>
        <time>2023-08-28T10:42:28Z</time>
      </trkpt>
      <trkpt lat="57.148107010871172" lon="-5.016515990719199">
        <ele>227.00999999999999</ele>
        <time>2023-08-28T10:42:38Z</time>
      </trkpt>
      <trkpt lat="57.148093013092875" lon="-5.01350898295641">
        <ele>226.05000000000001</ele>
        <time>2023-08-28T10:42:45Z</time>
      </trkpt>
      <trkpt lat="57.148118996992707" lon="-5.010605994611979">
        <ele>226.05000000000001</ele>
        <time>2023-08-28T10:42:52Z</time>
      </trkpt>
      <trkpt lat="57.14756403118372" lon="-5.007893024012446">
        <ele>227.49000000000001</ele>
        <time>2023-08-28T10:42:59Z</time>
      </trkpt>
      <trkpt lat="57.146958019584417" lon="-5.004727011546493">
        <ele>224.61000000000001</ele>
        <time>2023-08-28T10:43:07Z</time>
      </trkpt>
      <trkpt lat="57.146722991019487" lon="-5.001062024384737">
        <ele>221.72</ele>
        <time>2023-08-28T10:43:16Z</time>
      </trkpt>
      <trkpt lat="57.146331975236535" lon="-4.997681016102433">
        <ele>212.11000000000001</ele>
        <time>2023-08-28T10:43:24Z</time>
      </trkpt>
      <trkpt lat="57.145723029971123" lon="-4.994396986439824">
        <ele>198.65000000000001</ele>
        <time>2023-08-28T10:43:32Z</time>
      </trkpt>
      <trkpt lat="57.145663015544415" lon="-4.991080015897751">
        <ele>189.03999999999999</ele>
        <time>2023-08-28T10:43:40Z</time>
      </trkpt>
      <trkpt lat="57.145596966147423" lon="-4.988137967884541">
        <ele>177.97999999999999</ele>
        <time>2023-08-28T10:43:47Z</time>
      </trkpt>
      <trkpt lat="57.145120035856962" lon="-4.985970994457603">
        <ele>173.16999999999999</ele>
        <time>2023-08-28T10:43:53Z</time>
      </trkpt>
      <trkpt lat="57.144414028152823" lon="-4.982903972268105">
        <ele>173.66</ele>
        <time>2023-08-28T10:44:01Z</time>
      </trkpt>
      <trkpt lat="57.144416039809585" lon="-4.981204038485885">
        <ele>171.25</ele>
        <time>2023-08-28T10:44:05Z</time>
      </trkpt>
      <trkpt lat="57.144916020333767" lon="-4.978481009602547">
        <ele>165.96000000000001</ele>
        <time>2023-08-28T10:44:12Z</time>
      </trkpt>
      <trkpt lat="57.145592020824552" lon="-4.975773990154266">
        <ele>162.12</ele>
        <time>2023-08-28T10:44:19Z</time>
      </trkpt>
      <trkpt lat="57.145656980574131" lon="-4.9733080342412">
        <ele>161.16</ele>
        <time>2023-08-28T10:44:25Z</time>
      </trkpt>
      <trkpt lat="57.145218020305037" lon="-4.968817010521889">
        <ele>160.19999999999999</ele>
        <time>2023-08-28T10:44:36Z</time>
      </trkpt>
      <trkpt lat="57.145201005041599" lon="-4.965851996093988">
        <ele>160.68000000000001</ele>
        <time>2023-08-28T10:44:43Z</time>
      </trkpt>
      <trkpt lat="57.145538041368127" lon="-4.962208969518542">
        <ele>156.83000000000001</ele>
        <time>2023-08-28T10:44:52Z</time>
      </trkpt>
      <trkpt lat="57.14603902772069" lon="-4.958591004833579">
        <ele>154.43000000000001</ele>
        <time>2023-08-28T10:45:01Z</time>
      </trkpt>
      <trkpt lat="57.146584019064903" lon="-4.953924966976047">
        <ele>150.58000000000001</ele>
        <time>2023-08-28T10:45:12Z</time>
      </trkpt>
      <trkpt lat="57.1465980168432" lon="-4.953486006706953">
        <ele>150.58000000000001</ele>
        <time>2023-08-28T10:45:13Z</time>
      </trkpt>
      <trkpt lat="57.14681301265955" lon="-4.949710965156555">
        <ele>148.66</ele>
        <time>2023-08-28T10:45:22Z</time>
      </trkpt>
      <trkpt lat="57.147522959858179" lon="-4.947003023698926">
        <ele>146.74000000000001</ele>
        <time>2023-08-28T10:45:29Z</time>
      </trkpt>
      <trkpt lat="57.148742023855448" lon="-4.94389702565968">
        <ele>139.05000000000001</ele>
        <time>2023-08-28T10:45:38Z</time>
      </trkpt>
      <trkpt lat="57.149803005158901" lon="-4.941265024244785">
        <ele>135.19999999999999</ele>
        <time>2023-08-28T10:45:46Z</time>
      </trkpt>
      <trkpt lat="57.150976974517107" lon="-4.936668975278735">
        <ele>133.28</ele>
        <time>2023-08-28T10:45:58Z</time>
      </trkpt>
      <trkpt lat="57.1513900347054" lon="-4.933145977556706">
        <ele>133.75999999999999</ele>
        <time>2023-08-28T10:46:07Z</time>
      </trkpt>
      <trkpt lat="57.151990011334419" lon="-4.930506013333798">
        <ele>135.68000000000001</ele>
        <time>2023-08-28T10:46:14Z</time>
      </trkpt>
      <trkpt lat="57.153039006516337" lon="-4.928408022969961">
        <ele>138.09</ele>
        <time>2023-08-28T10:46:21Z</time>
      </trkpt>
      <trkpt lat="57.154616983607411" lon="-4.926697025075555">
        <ele>136.16</ele>
        <time>2023-08-28T10:46:29Z</time>
      </trkpt>
      <trkpt lat="57.155804028734565" lon="-4.924830039963126">
        <ele>132.80000000000001</ele>
        <time>2023-08-28T10:46:36Z</time>
      </trkpt>
      <trkpt lat="57.156629981473088" lon="-4.922383027151227">
        <ele>129.43000000000001</ele>
        <time>2023-08-28T10:46:43Z</time>
      </trkpt>
      <trkpt lat="57.157618962228298" lon="-4.918643021956086">
        <ele>126.55</ele>
        <time>2023-08-28T10:46:53Z</time>
      </trkpt>
      <trkpt lat="57.158691007643938" lon="-4.914490040391684">
        <ele>125.59</ele>
        <time>2023-08-28T10:47:04Z</time>
      </trkpt>
      <trkpt lat="57.159036006778479" lon="-4.911608006805182">
        <ele>124.63</ele>
        <time>2023-08-28T10:47:11Z</time>
      </trkpt>
      <trkpt lat="57.159460969269276" lon="-4.907066021114588">
        <ele>122.22</ele>
        <time>2023-08-28T10:47:22Z</time>
      </trkpt>
      <trkpt lat="57.159901019185781" lon="-4.903829013928771">
        <ele>122.70999999999999</ele>
        <time>2023-08-28T10:47:30Z</time>
      </trkpt>
      <trkpt lat="57.160562016069889" lon="-4.898953009396792">
        <ele>125.11</ele>
        <time>2023-08-28T10:47:42Z</time>
      </trkpt>
      <trkpt lat="57.160609038546681" lon="-4.895628998056054">
        <ele>127.03</ele>
        <time>2023-08-28T10:47:50Z</time>
      </trkpt>
      <trkpt lat="57.160749016329646" lon="-4.892745958641172">
        <ele>128.47</ele>
        <time>2023-08-28T10:47:57Z</time>
      </trkpt>
      <trkpt lat="57.161392997950315" lon="-4.890086967498064">
        <ele>128.94999999999999</ele>
        <time>2023-08-28T10:48:04Z</time>
      </trkpt>
      <trkpt lat="57.162944991141558" lon="-4.885425036773086">
        <ele>129.43000000000001</ele>
        <time>2023-08-28T10:48:17Z</time>
      </trkpt>
      <trkpt lat="57.164354994893074" lon="-4.881532983854413">
        <ele>128.94999999999999</ele>
        <time>2023-08-28T10:48:28Z</time>
      </trkpt>
      <trkpt lat="57.166082002222538" lon="-4.877052018418908">
        <ele>127.03</ele>
        <time>2023-08-28T10:48:39Z</time>
      </trkpt>
      <trkpt lat="57.166994037106633" lon="-4.874389003962278">
        <ele>124.15000000000001</ele>
        <time>2023-08-28T10:48:46Z</time>
      </trkpt>
      <trkpt lat="57.168047977611423" lon="-4.870699960738421">
        <ele>122.22</ele>
        <time>2023-08-28T10:48:56Z</time>
      </trkpt>
      <trkpt lat="57.168807964771986" lon="-4.867660012096167">
        <ele>120.78</ele>
        <time>2023-08-28T10:49:04Z</time>
      </trkpt>
      <trkpt lat="57.169368965551257" lon="-4.863624963909388">
        <ele>118.86</ele>
        <time>2023-08-28T10:49:14Z</time>
      </trkpt>
      <trkpt lat="57.169897025451064" lon="-4.859105022624135">
        <ele>122.22</ele>
        <time>2023-08-28T10:49:25Z</time>
      </trkpt>
      <trkpt lat="57.170041026547551" lon="-4.855784028768539">
        <ele>124.15000000000001</ele>
        <time>2023-08-28T10:49:33Z</time>
      </trkpt>
      <trkpt lat="57.169698039069772" lon="-4.852962009608746">
        <ele>127.03</ele>
        <time>2023-08-28T10:49:40Z</time>
      </trkpt>
      <trkpt lat="57.169088004156947" lon="-4.848906006664038">
        <ele>128.94999999999999</ele>
        <time>2023-08-28T10:49:50Z</time>
      </trkpt>
      <trkpt lat="57.16888097114861" lon="-4.844312975183129">
        <ele>128.94999999999999</ele>
        <time>2023-08-28T10:50:01Z</time>
      </trkpt>
      <trkpt lat="57.168649965897202" lon="-4.838893990963697">
        <ele>127.51000000000001</ele>
        <time>2023-08-28T10:50:14Z</time>
      </trkpt>
      <trkpt lat="57.168711991980672" lon="-4.83513998799026">
        <ele>127.03</ele>
        <time>2023-08-28T10:50:23Z</time>
      </trkpt>
      <trkpt lat="57.169048022478819" lon="-4.829707005992532">
        <ele>127.51000000000001</ele>
        <time>2023-08-28T10:50:36Z</time>
      </trkpt>
      <trkpt lat="57.16935396194458" lon="-4.824726982042193">
        <ele>125.59</ele>
        <time>2023-08-28T10:50:48Z</time>
      </trkpt>
      <trkpt lat="57.169554037973285" lon="-4.821407999843359">
        <ele>124.15000000000001</ele>
        <time>2023-08-28T10:50:56Z</time>
      </trkpt>
      <trkpt lat="57.169995009899139" lon="-4.816718995571137">
        <ele>122.70999999999999</ele>
        <time>2023-08-28T10:51:07Z</time>
      </trkpt>
      <trkpt lat="57.170750973746181" lon="-4.813361959531903">
        <ele>122.22</ele>
        <time>2023-08-28T10:51:14Z</time>
      </trkpt>
      <trkpt lat="57.171591008082032" lon="-4.810804976150394">
        <ele>120.78</ele>
        <time>2023-08-28T10:51:21Z</time>
      </trkpt>
      <trkpt lat="57.172376979142427" lon="-4.808552004396915">
        <ele>122.70999999999999</ele>
        <time>2023-08-28T10:51:28Z</time>
      </trkpt>
      <trkpt lat="57.173019032925367" lon="-4.805794022977352">
        <ele>124.15000000000001</ele>
        <time>2023-08-28T10:51:36Z</time>
      </trkpt>
      <trkpt lat="57.173685980960727" lon="-4.80235199443996">
        <ele>123.19</ele>
        <time>2023-08-28T10:51:46Z</time>
      </trkpt>
      <trkpt lat="57.173697967082262" lon="-4.802005989477038">
        <ele>122.70999999999999</ele>
        <time>2023-08-28T10:51:47Z</time>
      </trkpt>
      <trkpt lat="57.173726968467236" lon="-4.800978032872081">
        <ele>122.22</ele>
        <time>2023-08-28T10:51:50Z</time>
      </trkpt>
      <trkpt lat="57.173767033964396" lon="-4.800648037344217">
        <ele>121.73999999999999</ele>
        <time>2023-08-28T10:51:51Z</time>
      </trkpt>
      <trkpt lat="57.173832999542356" lon="-4.800338996574283">
        <ele>121.26000000000001</ele>
        <time>2023-08-28T10:51:52Z</time>
      </trkpt>
      <trkpt lat="57.173921009525657" lon="-4.800057029351592">
        <ele>121.26000000000001</ele>
        <time>2023-08-28T10:51:53Z</time>
      </trkpt>
      <trkpt lat="57.174025028944016" lon="-4.799791993573308">
        <ele>120.78</ele>
        <time>2023-08-28T10:51:54Z</time>
      </trkpt>
      <trkpt lat="57.174140028655529" lon="-4.799501979723573">
        <ele>120.78</ele>
        <time>2023-08-28T10:51:55Z</time>
      </trkpt>
      <trkpt lat="57.174242036417127" lon="-4.799272986128926">
        <ele>120.3</ele>
        <time>2023-08-28T10:51:56Z</time>
      </trkpt>
      <trkpt lat="57.174685019999743" lon="-4.798323987051845">
        <ele>121.26000000000001</ele>
        <time>2023-08-28T10:52:00Z</time>
      </trkpt>
      <trkpt lat="57.174802031368017" lon="-4.798137992620468">
        <ele>121.73999999999999</ele>
        <time>2023-08-28T10:52:01Z</time>
      </trkpt>
      <trkpt lat="57.174933962523937" lon="-4.798008995130658">
        <ele>121.73999999999999</ele>
        <time>2023-08-28T10:52:02Z</time>
      </trkpt>
      <trkpt lat="57.175091039389372" lon="-4.797916039824486">
        <ele>121.26000000000001</ele>
        <time>2023-08-28T10:52:03Z</time>
      </trkpt>
      <trkpt lat="57.175236968323588" lon="-4.797951998189092">
        <ele>120.3</ele>
        <time>2023-08-28T10:52:04Z</time>
      </trkpt>
      <trkpt lat="57.175393039360642" lon="-4.798030033707619">
        <ele>119.81999999999999</ele>
        <time>2023-08-28T10:52:05Z</time>
      </trkpt>
      <trkpt lat="57.175517007708549" lon="-4.798154002055526">
        <ele>118.86</ele>
        <time>2023-08-28T10:52:06Z</time>
      </trkpt>
      <trkpt lat="57.175637958571315" lon="-4.798330022022128">
        <ele>117.90000000000001</ele>
        <time>2023-08-28T10:52:07Z</time>
      </trkpt>
      <trkpt lat="57.175751030445099" lon="-4.79850796982646">
        <ele>117.42</ele>
        <time>2023-08-28T10:52:08Z</time>
      </trkpt>
      <trkpt lat="57.176729030907154" lon="-4.799898024648428">
        <ele>116.94</ele>
        <time>2023-08-28T10:52:16Z</time>
      </trkpt>
      <trkpt lat="57.177018960937858" lon="-4.800232965499163">
        <ele>117.42</ele>
        <time>2023-08-28T10:52:18Z</time>
      </trkpt>
      <trkpt lat="57.177149970084429" lon="-4.800261966884136">
        <ele>117.90000000000001</ele>
        <time>2023-08-28T10:52:19Z</time>
      </trkpt>
      <trkpt lat="57.177320960909128" lon="-4.800274958834052">
        <ele>118.38</ele>
        <time>2023-08-28T10:52:20Z</time>
      </trkpt>
      <trkpt lat="57.177501004189253" lon="-4.80028904043138">
        <ele>118.38</ele>
        <time>2023-08-28T10:52:21Z</time>
      </trkpt>
      <trkpt lat="57.177677024155855" lon="-4.800274958834052">
        <ele>118.38</ele>
        <time>2023-08-28T10:52:22Z</time>
      </trkpt>
      <trkpt lat="57.177867041900754" lon="-4.800228020176292">
        <ele>118.38</ele>
        <time>2023-08-28T10:52:23Z</time>
      </trkpt>
      <trkpt lat="57.179459016770124" lon="-4.799743965268135">
        <ele>116.94</ele>
        <time>2023-08-28T10:52:32Z</time>
      </trkpt>
      <trkpt lat="57.18078101053834" lon="-4.799230992794037">
        <ele>114.53</ele>
        <time>2023-08-28T10:52:39Z</time>
      </trkpt>
      <trkpt lat="57.180965999141335" lon="-4.799035023897886">
        <ele>113.56999999999999</ele>
        <time>2023-08-28T10:52:40Z</time>
      </trkpt>
      <trkpt lat="57.181139001622796" lon="-4.79880996979773">
        <ele>112.61</ele>
        <time>2023-08-28T10:52:41Z</time>
      </trkpt>
      <trkpt lat="57.181283002719283" lon="-4.798530014231801">
        <ele>111.65000000000001</ele>
        <time>2023-08-28T10:52:42Z</time>
      </trkpt>
      <trkpt lat="57.18142700381577" lon="-4.798248969018459">
        <ele>111.17</ele>
        <time>2023-08-28T10:52:43Z</time>
      </trkpt>
      <trkpt lat="57.181573016569018" lon="-4.797965995967388">
        <ele>110.69</ele>
        <time>2023-08-28T10:52:44Z</time>
      </trkpt>
      <trkpt lat="57.18185699544847" lon="-4.797413041815162">
        <ele>109.73</ele>
        <time>2023-08-28T10:52:46Z</time>
      </trkpt>
      <trkpt lat="57.182026980444789" lon="-4.797214977443218">
        <ele>109.73</ele>
        <time>2023-08-28T10:52:47Z</time>
      </trkpt>
      <trkpt lat="57.182198977097869" lon="-4.797042980790138">
        <ele>110.20999999999999</ele>
        <time>2023-08-28T10:52:48Z</time>
      </trkpt>
      <trkpt lat="57.183007998391986" lon="-4.796118959784508">
        <ele>110.69</ele>
        <time>2023-08-28T10:52:53Z</time>
      </trkpt>
      <trkpt lat="57.183154011145234" lon="-4.795902958139777">
        <ele>110.69</ele>
        <time>2023-08-28T10:52:54Z</time>
      </trkpt>
      <trkpt lat="57.183271022513509" lon="-4.795654015615583">
        <ele>110.69</ele>
        <time>2023-08-28T10:52:55Z</time>
      </trkpt>
      <trkpt lat="57.183370012789965" lon="-4.79536903090775">
        <ele>111.17</ele>
        <time>2023-08-28T10:52:56Z</time>
      </trkpt>
      <trkpt lat="57.183474032208323" lon="-4.79506996460259">
        <ele>111.17</ele>
        <time>2023-08-28T10:52:57Z</time>
      </trkpt>
      <trkpt lat="57.184428982436657" lon="-4.792090030387044">
        <ele>115.01000000000001</ele>
        <time>2023-08-28T10:53:06Z</time>
      </trkpt>
      <trkpt lat="57.185286032035947" lon="-4.788936004042625">
        <ele>116.94</ele>
        <time>2023-08-28T10:53:16Z</time>
      </trkpt>
      <trkpt lat="57.186233019456267" lon="-4.784833984449506">
        <ele>117.42</ele>
        <time>2023-08-28T10:53:28Z</time>
      </trkpt>
      <trkpt lat="57.187189981341362" lon="-4.781363038346171">
        <ele>115.98</ele>
        <time>2023-08-28T10:53:38Z</time>
      </trkpt>
      <trkpt lat="57.187661966308951" lon="-4.778726007789373">
        <ele>115.98</ele>
        <time>2023-08-28T10:53:45Z</time>
      </trkpt>
      <trkpt lat="57.188384989276528" lon="-4.775706008076668">
        <ele>116.45999999999999</ele>
        <time>2023-08-28T10:53:53Z</time>
      </trkpt>
      <trkpt lat="57.189208008348942" lon="-4.772311002016068">
        <ele>116.45999999999999</ele>
        <time>2023-08-28T10:54:02Z</time>
      </trkpt>
      <trkpt lat="57.190201012417674" lon="-4.769443972036243">
        <ele>116.94</ele>
        <time>2023-08-28T10:54:10Z</time>
      </trkpt>
      <trkpt lat="57.190431011840701" lon="-4.76868499070406">
        <ele>116.94</ele>
        <time>2023-08-28T10:54:12Z</time>
      </trkpt>
      <trkpt lat="57.190510975196958" lon="-4.768266985192895">
        <ele>116.94</ele>
        <time>2023-08-28T10:54:13Z</time>
      </trkpt>
      <trkpt lat="57.190576018765569" lon="-4.767851997166872">
        <ele>116.94</ele>
        <time>2023-08-28T10:54:14Z</time>
      </trkpt>
      <trkpt lat="57.190611977130175" lon="-4.767405996099114">
        <ele>116.94</ele>
        <time>2023-08-28T10:54:15Z</time>
      </trkpt>
      <trkpt lat="57.190647013485432" lon="-4.766976004466415">
        <ele>117.42</ele>
        <time>2023-08-28T10:54:16Z</time>
      </trkpt>
      <trkpt lat="57.191099971532822" lon="-4.763674959540367">
        <ele>119.81999999999999</ele>
        <time>2023-08-28T10:54:24Z</time>
      </trkpt>
      <trkpt lat="57.192322975024581" lon="-4.759205980226398">
        <ele>118.38</ele>
        <time>2023-08-28T10:54:36Z</time>
      </trkpt>
      <trkpt lat="57.192906020209193" lon="-4.75574903190136">
        <ele>121.26000000000001</ele>
        <time>2023-08-28T10:54:45Z</time>
      </trkpt>
      <trkpt lat="57.193424021825194" lon="-4.752573966979981">
        <ele>124.63</ele>
        <time>2023-08-28T10:54:54Z</time>
      </trkpt>
      <trkpt lat="57.193879997357726" lon="-4.749138979241252">
        <ele>126.06999999999999</ele>
        <time>2023-08-28T10:55:03Z</time>
      </trkpt>
      <trkpt lat="57.194289034232497" lon="-4.745367961004376">
        <ele>124.63</ele>
        <time>2023-08-28T10:55:13Z</time>
      </trkpt>
      <trkpt lat="57.194821033626795" lon="-4.742414010688663">
        <ele>122.22</ele>
        <time>2023-08-28T10:55:21Z</time>
      </trkpt>
      <trkpt lat="57.195796016603708" lon="-4.739821990951896">
        <ele>121.26000000000001</ele>
        <time>2023-08-28T10:55:28Z</time>
      </trkpt>
      <trkpt lat="57.196822967380285" lon="-4.737086975947022">
        <ele>122.22</ele>
        <time>2023-08-28T10:55:34Z</time>
      </trkpt>
      <trkpt lat="57.198441009968519" lon="-4.732755962759256">
        <ele>118.38</ele>
        <time>2023-08-28T10:55:45Z</time>
      </trkpt>
      <trkpt lat="57.199607016518712" lon="-4.730128990486264">
        <ele>116.94</ele>
        <time>2023-08-28T10:55:53Z</time>
      </trkpt>
      <trkpt lat="57.199804997071624" lon="-4.729912988841534">
        <ele>116.45999999999999</ele>
        <time>2023-08-28T10:55:54Z</time>
      </trkpt>
      <trkpt lat="57.200014963746071" lon="-4.729703022167087">
        <ele>116.45999999999999</ele>
        <time>2023-08-28T10:55:55Z</time>
      </trkpt>
      <trkpt lat="57.200229037553072" lon="-4.729510992765427">
        <ele>116.45999999999999</ele>
        <time>2023-08-28T10:55:56Z</time>
      </trkpt>
      <trkpt lat="57.200455013662577" lon="-4.729369003325701">
        <ele>116.94</ele>
        <time>2023-08-28T10:55:57Z</time>
      </trkpt>
      <trkpt lat="57.20067797228694" lon="-4.729228019714356">
        <ele>116.94</ele>
        <time>2023-08-28T10:55:58Z</time>
      </trkpt>
      <trkpt lat="57.202510004863143" lon="-4.728025970980525">
        <ele>118.38</ele>
        <time>2023-08-28T10:56:07Z</time>
      </trkpt>
      <trkpt lat="57.202700022608042" lon="-4.727897979319096">
        <ele>118.38</ele>
        <time>2023-08-28T10:56:08Z</time>
      </trkpt>
      <trkpt lat="57.202851986512542" lon="-4.727720031514764">
        <ele>118.86</ele>
        <time>2023-08-28T10:56:09Z</time>
      </trkpt>
      <trkpt lat="57.203004034236073" lon="-4.727505035698414">
        <ele>118.86</ele>
        <time>2023-08-28T10:56:10Z</time>
      </trkpt>
      <trkpt lat="57.203129008412361" lon="-4.727210998535156">
        <ele>118.86</ele>
        <time>2023-08-28T10:56:11Z</time>
      </trkpt>
      <trkpt lat="57.20321299508214" lon="-4.72687597386539">
        <ele>118.38</ele>
        <time>2023-08-28T10:56:12Z</time>
      </trkpt>
      <trkpt lat="57.203269992023706" lon="-4.726538015529513">
        <ele>118.38</ele>
        <time>2023-08-28T10:56:13Z</time>
      </trkpt>
      <trkpt lat="57.203297987580299" lon="-4.726174995303154">
        <ele>118.38</ele>
        <time>2023-08-28T10:56:14Z</time>
      </trkpt>
      <trkpt lat="57.20331902615726" lon="-4.725815998390317">
        <ele>117.90000000000001</ele>
        <time>2023-08-28T10:56:15Z</time>
      </trkpt>
      <trkpt lat="57.203292036429048" lon="-4.725449038669467">
        <ele>117.90000000000001</ele>
        <time>2023-08-28T10:56:16Z</time>
      </trkpt>
      <trkpt lat="57.203225987032056" lon="-4.725101022049785">
        <ele>117.90000000000001</ele>
        <time>2023-08-28T10:56:17Z</time>
      </trkpt>
      <trkpt lat="57.203125990927219" lon="-4.724768009036779">
        <ele>117.90000000000001</ele>
        <time>2023-08-28T10:56:18Z</time>
      </trkpt>
      <trkpt lat="57.203024988994002" lon="-4.724433990195394">
        <ele>117.42</ele>
        <time>2023-08-28T10:56:19Z</time>
      </trkpt>
      <trkpt lat="57.202942008152604" lon="-4.724083039909601">
        <ele>117.42</ele>
        <time>2023-08-28T10:56:20Z</time>
      </trkpt>
      <trkpt lat="57.20267697237432" lon="-4.722661972045898">
        <ele>115.98</ele>
        <time>2023-08-28T10:56:24Z</time>
      </trkpt>
      <trkpt lat="57.202645959332585" lon="-4.722282020375133">
        <ele>115.98</ele>
        <time>2023-08-28T10:56:25Z</time>
      </trkpt>
      <trkpt lat="57.202672027051449" lon="-4.718944011256099">
        <ele>112.13</ele>
        <time>2023-08-28T10:56:33Z</time>
      </trkpt>
      <trkpt lat="57.202755007892847" lon="-4.715958964079619">
        <ele>107.31999999999999</ele>
        <time>2023-08-28T10:56:40Z</time>
      </trkpt>
      <trkpt lat="57.202749978750944" lon="-4.715570965781808">
        <ele>106.84</ele>
        <time>2023-08-28T10:56:41Z</time>
      </trkpt>
      <trkpt lat="57.202678984031081" lon="-4.715192019939423">
        <ele>105.88</ele>
        <time>2023-08-28T10:56:42Z</time>
      </trkpt>
      <trkpt lat="57.202605977654457" lon="-4.714804021641612">
        <ele>104.92</ele>
        <time>2023-08-28T10:56:43Z</time>
      </trkpt>
      <trkpt lat="57.202531965449452" lon="-4.714409988373518">
        <ele>103.95999999999999</ele>
        <time>2023-08-28T10:56:44Z</time>
      </trkpt>
      <trkpt lat="57.202458037063479" lon="-4.714015033096075">
        <ele>103.48</ele>
        <time>2023-08-28T10:56:45Z</time>
      </trkpt>
      <trkpt lat="57.202030979096889" lon="-4.711071979254484">
        <ele>95.790000000000006</ele>
        <time>2023-08-28T10:56:52Z</time>
      </trkpt>
      <trkpt lat="57.201722022145987" lon="-4.707258967682719">
        <ele>86.180000000000007</ele>
        <time>2023-08-28T10:57:01Z</time>
      </trkpt>
      <trkpt lat="57.202046988531947" lon="-4.704759987071157">
        <ele>79.930000000000007</ele>
        <time>2023-08-28T10:57:07Z</time>
      </trkpt>
      <trkpt lat="57.202257039025426" lon="-4.704017015174031">
        <ele>78</ele>
        <time>2023-08-28T10:57:09Z</time>
      </trkpt>
      <trkpt lat="57.203000010922551" lon="-4.702449012547731">
        <ele>75.599999999999994</ele>
        <time>2023-08-28T10:57:14Z</time>
      </trkpt>
      <trkpt lat="57.203732002526522" lon="-4.701617024838924">
        <ele>73.680000000000007</ele>
        <time>2023-08-28T10:57:18Z</time>
      </trkpt>
      <trkpt lat="57.203931994736195" lon="-4.701461037620902">
        <ele>73.680000000000007</ele>
        <time>2023-08-28T10:57:19Z</time>
      </trkpt>
      <trkpt lat="57.205754974856973" lon="-4.699856992810965">
        <ele>71.760000000000005</ele>
        <time>2023-08-28T10:57:28Z</time>
      </trkpt>
      <trkpt lat="57.206793995574117" lon="-4.698623009026051">
        <ele>67.430000000000007</ele>
        <time>2023-08-28T10:57:34Z</time>
      </trkpt>
      <trkpt lat="57.206990970298648" lon="-4.698436008766294">
        <ele>66.469999999999999</ele>
        <time>2023-08-28T10:57:35Z</time>
      </trkpt>
      <trkpt lat="57.207764033228159" lon="-4.697921024635434">
        <ele>64.069999999999993</ele>
        <time>2023-08-28T10:57:39Z</time>
      </trkpt>
      <trkpt lat="57.207957990467548" lon="-4.697688007727265">
        <ele>63.579999999999998</ele>
        <time>2023-08-28T10:57:40Z</time>
      </trkpt>
      <trkpt lat="57.208125963807106" lon="-4.697487009689212">
        <ele>63.100000000000001</ele>
        <time>2023-08-28T10:57:41Z</time>
      </trkpt>
      <trkpt lat="57.208299972116947" lon="-4.697277965024114">
        <ele>63.100000000000001</ele>
        <time>2023-08-28T10:57:42Z</time>
      </trkpt>
      <trkpt lat="57.208400974050164" lon="-4.697029022499919">
        <ele>62.619999999999997</ele>
        <time>2023-08-28T10:57:43Z</time>
      </trkpt>
      <trkpt lat="57.208515973761678" lon="-4.696747977286577">
        <ele>62.619999999999997</ele>
        <time>2023-08-28T10:57:44Z</time>
      </trkpt>
      <trkpt lat="57.208613958209753" lon="-4.696438014507294">
        <ele>62.140000000000001</ele>
        <time>2023-08-28T10:57:45Z</time>
      </trkpt>
      <trkpt lat="57.208686964586377" lon="-4.696118999272585">
        <ele>61.659999999999997</ele>
        <time>2023-08-28T10:57:46Z</time>
      </trkpt>
      <trkpt lat="57.208742033690214" lon="-4.695714991539717">
        <ele>61.659999999999997</ele>
        <time>2023-08-28T10:57:47Z</time>
      </trkpt>
      <trkpt lat="57.209294987842441" lon="-4.691890999674797">
        <ele>59.259999999999998</ele>
        <time>2023-08-28T10:57:57Z</time>
      </trkpt>
      <trkpt lat="57.21006796695292" lon="-4.68858702108264">
        <ele>60.219999999999999</ele>
        <time>2023-08-28T10:58:06Z</time>
      </trkpt>
      <trkpt lat="57.210137033835053" lon="-4.688198016956449">
        <ele>60.219999999999999</ele>
        <time>2023-08-28T10:58:07Z</time>
      </trkpt>
      <trkpt lat="57.210206016898155" lon="-4.687807001173496">
        <ele>60.219999999999999</ele>
        <time>2023-08-28T10:58:08Z</time>
      </trkpt>
      <trkpt lat="57.210254967212677" lon="-4.687397964298725">
        <ele>60.219999999999999</ele>
        <time>2023-08-28T10:58:09Z</time>
      </trkpt>
      <trkpt lat="57.210293021053076" lon="-4.686975013464689">
        <ele>60.219999999999999</ele>
        <time>2023-08-28T10:58:10Z</time>
      </trkpt>
      <trkpt lat="57.210321016609669" lon="-4.686543010175228">
        <ele>60.700000000000003</ele>
        <time>2023-08-28T10:58:11Z</time>
      </trkpt>
      <trkpt lat="57.210397962480783" lon="-4.683062005788088">
        <ele>60.219999999999999</ele>
        <time>2023-08-28T10:58:19Z</time>
      </trkpt>
      <trkpt lat="57.210553027689457" lon="-4.680226994678378">
        <ele>58.299999999999997</ele>
        <time>2023-08-28T10:58:26Z</time>
      </trkpt>
      <trkpt lat="57.211082009598613" lon="-4.677975028753281">
        <ele>56.859999999999999</ele>
        <time>2023-08-28T10:58:32Z</time>
      </trkpt>
      <trkpt lat="57.212139973416924" lon="-4.675733037292957">
        <ele>54.93</ele>
        <time>2023-08-28T10:58:39Z</time>
      </trkpt>
      <trkpt lat="57.213694984093308" lon="-4.673234978690743">
        <ele>52.049999999999997</ele>
        <time>2023-08-28T10:58:48Z</time>
      </trkpt>
      <trkpt lat="57.214235030114651" lon="-4.67189496383071">
        <ele>50.130000000000003</ele>
        <time>2023-08-28T10:58:52Z</time>
      </trkpt>
      <trkpt lat="57.214331002905965" lon="-4.671514006331563">
        <ele>49.649999999999999</ele>
        <time>2023-08-28T10:58:53Z</time>
      </trkpt>
      <trkpt lat="57.21442898735404" lon="-4.671131037175655">
        <ele>49.159999999999997</ele>
        <time>2023-08-28T10:58:54Z</time>
      </trkpt>
      <trkpt lat="57.214504005387425" lon="-4.670730968937278">
        <ele>48.68</ele>
        <time>2023-08-28T10:58:55Z</time>
      </trkpt>
      <trkpt lat="57.214570976793766" lon="-4.670317992568016">
        <ele>48.200000000000003</ele>
        <time>2023-08-28T10:58:56Z</time>
      </trkpt>
      <trkpt lat="57.215172965079546" lon="-4.667190033942461">
        <ele>45.799999999999997</ele>
        <time>2023-08-28T10:59:04Z</time>
      </trkpt>
      <trkpt lat="57.216094974428415" lon="-4.663410969078541">
        <ele>46.759999999999998</ele>
        <time>2023-08-28T10:59:14Z</time>
      </trkpt>
      <trkpt lat="57.216957975178957" lon="-4.65988302603364">
        <ele>51.57</ele>
        <time>2023-08-28T10:59:23Z</time>
      </trkpt>
      <trkpt lat="57.217854000627995" lon="-4.655859963968396">
        <ele>53.009999999999998</ele>
        <time>2023-08-28T10:59:33Z</time>
      </trkpt>
      <trkpt lat="57.21876603551209" lon="-4.652046030387282">
        <ele>52.530000000000001</ele>
        <time>2023-08-28T10:59:43Z</time>
      </trkpt>
      <trkpt lat="57.219786029309034" lon="-4.64967898093164">
        <ele>52.530000000000001</ele>
        <time>2023-08-28T10:59:50Z</time>
      </trkpt>
      <trkpt lat="57.221344979479909" lon="-4.646094962954521">
        <ele>55.890000000000001</ele>
        <time>2023-08-28T11:00:01Z</time>
      </trkpt>
      <trkpt lat="57.221817970275879" lon="-4.643720034509897">
        <ele>56.859999999999999</ele>
        <time>2023-08-28T11:00:07Z</time>
      </trkpt>
      <trkpt lat="57.221855018287897" lon="-4.642874971032143">
        <ele>56.859999999999999</ele>
        <time>2023-08-28T11:00:09Z</time>
      </trkpt>
      <trkpt lat="57.221853006631136" lon="-4.64245998300612">
        <ele>56.859999999999999</ele>
        <time>2023-08-28T11:00:10Z</time>
      </trkpt>
      <trkpt lat="57.221832973882556" lon="-4.642016999423504">
        <ele>56.859999999999999</ele>
        <time>2023-08-28T11:00:11Z</time>
      </trkpt>
      <trkpt lat="57.221770025789738" lon="-4.641596982255578">
        <ele>56.859999999999999</ele>
        <time>2023-08-28T11:00:12Z</time>
      </trkpt>
      <trkpt lat="57.221709005534649" lon="-4.641184005886316">
        <ele>56.859999999999999</ele>
        <time>2023-08-28T11:00:13Z</time>
      </trkpt>
      <trkpt lat="57.221637004986405" lon="-4.640773041173816">
        <ele>56.859999999999999</ele>
        <time>2023-08-28T11:00:14Z</time>
      </trkpt>
      <trkpt lat="57.220720024779439" lon="-4.636845029890537">
        <ele>56.369999999999997</ele>
        <time>2023-08-28T11:00:24Z</time>
      </trkpt>
      <trkpt lat="57.219758033752441" lon="-4.634088976308703">
        <ele>55.409999999999997</ele>
        <time>2023-08-28T11:00:32Z</time>
      </trkpt>
      <trkpt lat="57.219025958329439" lon="-4.632561039179564">
        <ele>54.450000000000003</ele>
        <time>2023-08-28T11:00:37Z</time>
      </trkpt>
      <trkpt lat="57.21829597838223" lon="-4.630419965833426">
        <ele>53.490000000000002</ele>
        <time>2023-08-28T11:00:44Z</time>
      </trkpt>
      <trkpt lat="57.217731960117817" lon="-4.627417987212539">
        <ele>52.049999999999997</ele>
        <time>2023-08-28T11:00:53Z</time>
      </trkpt>
      <trkpt lat="57.217224016785622" lon="-4.624974997714162">
        <ele>49.649999999999999</ele>
        <time>2023-08-28T11:01:02Z</time>
      </trkpt>
      <trkpt lat="57.21698303706944" lon="-4.624278964474797">
        <ele>47.719999999999999</ele>
        <time>2023-08-28T11:01:05Z</time>
      </trkpt>
      <trkpt lat="57.216073013842106" lon="-4.621747964993119">
        <ele>45.32</ele>
        <time>2023-08-28T11:01:17Z</time>
      </trkpt>
      <trkpt lat="57.215132983401418" lon="-4.619617033749819">
        <ele>45.32</ele>
        <time>2023-08-28T11:01:28Z</time>
      </trkpt>
      <trkpt lat="57.21500800922513" lon="-4.619196010753512">
        <ele>45.799999999999997</ele>
        <time>2023-08-28T11:01:30Z</time>
      </trkpt>
      <trkpt lat="57.214652029797435" lon="-4.617498004809022">
        <ele>45.799999999999997</ele>
        <time>2023-08-28T11:01:39Z</time>
      </trkpt>
      <trkpt lat="57.21457701176405" lon="-4.617347968742251">
        <ele>45.799999999999997</ele>
        <time>2023-08-28T11:01:40Z</time>
      </trkpt>
      <trkpt lat="57.214539041742682" lon="-4.617184018716216">
        <ele>46.280000000000001</ele>
        <time>2023-08-28T11:01:41Z</time>
      </trkpt>
      <trkpt lat="57.214337037876248" lon="-4.615745013579726">
        <ele>50.130000000000003</ele>
        <time>2023-08-28T11:01:48Z</time>
      </trkpt>
      <trkpt lat="57.214300995692611" lon="-4.615522976964712">
        <ele>50.609999999999999</ele>
        <time>2023-08-28T11:01:49Z</time>
      </trkpt>
      <trkpt lat="57.214088011533022" lon="-4.614239037036896">
        <ele>55.409999999999997</ele>
        <time>2023-08-28T11:01:54Z</time>
      </trkpt>
      <trkpt lat="57.214053981006145" lon="-4.614000990986824">
        <ele>56.369999999999997</ele>
        <time>2023-08-28T11:01:55Z</time>
      </trkpt>
      <trkpt lat="57.214024979621172" lon="-4.613775014877319">
        <ele>57.340000000000003</ele>
        <time>2023-08-28T11:01:56Z</time>
      </trkpt>
      <trkpt lat="57.214004024863243" lon="-4.613531017675996">
        <ele>58.299999999999997</ele>
        <time>2023-08-28T11:01:57Z</time>
      </trkpt>
      <trkpt lat="57.213980974629521" lon="-4.613268999382854">
        <ele>59.259999999999998</ele>
        <time>2023-08-28T11:01:58Z</time>
      </trkpt>
      <trkpt lat="57.213957002386451" lon="-4.612992983311415">
        <ele>60.219999999999999</ele>
        <time>2023-08-28T11:01:59Z</time>
      </trkpt>
      <trkpt lat="57.213879972696304" lon="-4.612109027802944">
        <ele>63.100000000000001</ele>
        <time>2023-08-28T11:02:02Z</time>
      </trkpt>
      <trkpt lat="57.213766984641552" lon="-4.611443001776934">
        <ele>65.030000000000001</ele>
        <time>2023-08-28T11:02:04Z</time>
      </trkpt>
      <trkpt lat="57.213273961097002" lon="-4.609628990292549">
        <ele>66.950000000000003</ele>
        <time>2023-08-28T11:02:10Z</time>
      </trkpt>
      <trkpt lat="57.21266501583159" lon="-4.607639964669943">
        <ele>65.510000000000005</ele>
        <time>2023-08-28T11:02:17Z</time>
      </trkpt>
      <trkpt lat="57.212583962827921" lon="-4.607356991618872">
        <ele>65.510000000000005</ele>
        <time>2023-08-28T11:02:18Z</time>
      </trkpt>
      <trkpt lat="57.212503999471664" lon="-4.607080975547433">
        <ele>65.989999999999995</ele>
        <time>2023-08-28T11:02:19Z</time>
      </trkpt>
      <trkpt lat="57.212437028065324" lon="-4.606806971132755">
        <ele>65.989999999999995</ele>
        <time>2023-08-28T11:02:20Z</time>
      </trkpt>
      <trkpt lat="57.212377013638616" lon="-4.606503965333104">
        <ele>66.469999999999999</ele>
        <time>2023-08-28T11:02:21Z</time>
      </trkpt>
      <trkpt lat="57.212316999211907" lon="-4.606199031695724">
        <ele>66.469999999999999</ele>
        <time>2023-08-28T11:02:22Z</time>
      </trkpt>
      <trkpt lat="57.212255978956819" lon="-4.605888985097408">
        <ele>66.950000000000003</ele>
        <time>2023-08-28T11:02:23Z</time>
      </trkpt>
      <trkpt lat="57.212213985621929" lon="-4.60556703619659">
        <ele>67.430000000000007</ele>
        <time>2023-08-28T11:02:24Z</time>
      </trkpt>
      <trkpt lat="57.212228989228606" lon="-4.603092027828097">
        <ele>67.909999999999997</ele>
        <time>2023-08-28T11:02:31Z</time>
      </trkpt>
      <trkpt lat="57.212355975061655" lon="-4.60239197127521">
        <ele>67.430000000000007</ele>
        <time>2023-08-28T11:02:33Z</time>
      </trkpt>
      <trkpt lat="57.212901972234249" lon="-4.600238995626569">
        <ele>70.310000000000002</ele>
        <time>2023-08-28T11:02:40Z</time>
      </trkpt>
      <trkpt lat="57.212975984439254" lon="-4.599961973726749">
        <ele>71.269999999999996</ele>
        <time>2023-08-28T11:02:41Z</time>
      </trkpt>
      <trkpt lat="57.213411005213857" lon="-4.597660973668098">
        <ele>74.640000000000001</ele>
        <time>2023-08-28T11:02:49Z</time>
      </trkpt>
      <trkpt lat="57.213495997712016" lon="-4.597384035587311">
        <ele>75.120000000000005</ele>
        <time>2023-08-28T11:02:50Z</time>
      </trkpt>
      <trkpt lat="57.21358803100884" lon="-4.597087986767292">
        <ele>75.599999999999994</ele>
        <time>2023-08-28T11:02:51Z</time>
      </trkpt>
      <trkpt lat="57.214117012917995" lon="-4.595639007166028">
        <ele>77.519999999999996</ele>
        <time>2023-08-28T11:02:56Z</time>
      </trkpt>
      <trkpt lat="57.214677007868886" lon="-4.593761041760445">
        <ele>78</ele>
        <time>2023-08-28T11:03:02Z</time>
      </trkpt>
      <trkpt lat="57.215230967849493" lon="-4.591636983677745">
        <ele>77.519999999999996</ele>
        <time>2023-08-28T11:03:09Z</time>
      </trkpt>
      <trkpt lat="57.215936975553632" lon="-4.589359033852816">
        <ele>72.239999999999995</ele>
        <time>2023-08-28T11:03:16Z</time>
      </trkpt>
      <trkpt lat="57.216744991019368" lon="-4.586864998564124">
        <ele>65.030000000000001</ele>
        <time>2023-08-28T11:03:24Z</time>
      </trkpt>
      <trkpt lat="57.216880023479462" lon="-4.586609015241265">
        <ele>65.030000000000001</ele>
        <time>2023-08-28T11:03:25Z</time>
      </trkpt>
      <trkpt lat="57.217017989605665" lon="-4.586346996948123">
        <ele>64.549999999999997</ele>
        <time>2023-08-28T11:03:26Z</time>
      </trkpt>
      <trkpt lat="57.217270033434033" lon="-4.58586897701025">
        <ele>64.549999999999997</ele>
        <time>2023-08-28T11:03:28Z</time>
      </trkpt>
      <trkpt lat="57.217402970418334" lon="-4.585526995360851">
        <ele>65.030000000000001</ele>
        <time>2023-08-28T11:03:29Z</time>
      </trkpt>
      <trkpt lat="57.217516964301467" lon="-4.585237987339497">
        <ele>65.030000000000001</ele>
        <time>2023-08-28T11:03:30Z</time>
      </trkpt>
      <trkpt lat="57.218191958963871" lon="-4.583692029118538">
        <ele>66.469999999999999</ele>
        <time>2023-08-28T11:03:36Z</time>
      </trkpt>
      <trkpt lat="57.2183389775455" lon="-4.583567976951599">
        <ele>66.469999999999999</ele>
        <time>2023-08-28T11:03:37Z</time>
      </trkpt>
      <trkpt lat="57.218491025269032" lon="-4.58344099111855">
        <ele>66.469999999999999</ele>
        <time>2023-08-28T11:03:38Z</time>
      </trkpt>
      <trkpt lat="57.218967033550143" lon="-4.583013011142612">
        <ele>66.469999999999999</ele>
        <time>2023-08-28T11:03:41Z</time>
      </trkpt>
      <trkpt lat="57.219099970534444" lon="-4.582813018932939">
        <ele>66.469999999999999</ele>
        <time>2023-08-28T11:03:42Z</time>
      </trkpt>
      <trkpt lat="57.219231985509396" lon="-4.582611015066505">
        <ele>66.469999999999999</ele>
        <time>2023-08-28T11:03:43Z</time>
      </trkpt>
      <trkpt lat="57.219576984643936" lon="-4.581911964341998">
        <ele>65.510000000000005</ele>
        <time>2023-08-28T11:03:46Z</time>
      </trkpt>
      <trkpt lat="57.219685027375817" lon="-4.581655981019139">
        <ele>65.510000000000005</ele>
        <time>2023-08-28T11:03:47Z</time>
      </trkpt>
      <trkpt lat="57.22029497846961" lon="-4.580226028338075">
        <ele>62.140000000000001</ele>
        <time>2023-08-28T11:03:53Z</time>
      </trkpt>
      <trkpt lat="57.220459012314677" lon="-4.580057971179485">
        <ele>62.140000000000001</ele>
        <time>2023-08-28T11:03:54Z</time>
      </trkpt>
      <trkpt lat="57.220607036724687" lon="-4.579907013103366">
        <ele>61.659999999999997</ele>
        <time>2023-08-28T11:03:55Z</time>
      </trkpt>
      <trkpt lat="57.221327964216471" lon="-4.579044012352824">
        <ele>61.659999999999997</ele>
        <time>2023-08-28T11:04:00Z</time>
      </trkpt>
      <trkpt lat="57.221446987241507" lon="-4.578823987394571">
        <ele>61.659999999999997</ele>
        <time>2023-08-28T11:04:01Z</time>
      </trkpt>
      <trkpt lat="57.221567016094923" lon="-4.578604968264699">
        <ele>62.140000000000001</ele>
        <time>2023-08-28T11:04:02Z</time>
      </trkpt>
      <trkpt lat="57.22248500213027" lon="-4.577126987278462">
        <ele>61.659999999999997</ele>
        <time>2023-08-28T11:04:09Z</time>
      </trkpt>
      <trkpt lat="57.22321598790586" lon="-4.576126020401716">
        <ele>59.740000000000002</ele>
        <time>2023-08-28T11:04:14Z</time>
      </trkpt>
      <trkpt lat="57.224102038890123" lon="-4.574336986988783">
        <ele>57.82</ele>
        <time>2023-08-28T11:04:22Z</time>
      </trkpt>
      <trkpt lat="57.224222989752889" lon="-4.574145963415504">
        <ele>57.340000000000003</ele>
        <time>2023-08-28T11:04:23Z</time>
      </trkpt>
      <trkpt lat="57.224286021664739" lon="-4.574045967310667">
        <ele>56.859999999999999</ele>
        <time>2023-08-28T11:04:24Z</time>
      </trkpt>
      <trkpt lat="57.224490959197283" lon="-4.573868019506335">
        <ele>56.369999999999997</ele>
        <time>2023-08-28T11:04:25Z</time>
      </trkpt>
      <trkpt lat="57.224644012749195" lon="-4.573734998703003">
        <ele>55.890000000000001</ele>
        <time>2023-08-28T11:04:26Z</time>
      </trkpt>
      <trkpt lat="57.22480796277523" lon="-4.573590997606516">
        <ele>55.409999999999997</ele>
        <time>2023-08-28T11:04:27Z</time>
      </trkpt>
      <trkpt lat="57.224979037418962" lon="-4.573441967368126">
        <ele>54.450000000000003</ele>
        <time>2023-08-28T11:04:28Z</time>
      </trkpt>
      <trkpt lat="57.225790992379189" lon="-4.572591036558151">
        <ele>50.609999999999999</ele>
        <time>2023-08-28T11:04:33Z</time>
      </trkpt>
      <trkpt lat="57.226849040016532" lon="-4.571088999509811">
        <ele>46.280000000000001</ele>
        <time>2023-08-28T11:04:40Z</time>
      </trkpt>
      <trkpt lat="57.228137003257871" lon="-4.569140039384365">
        <ele>42.439999999999998</ele>
        <time>2023-08-28T11:04:47Z</time>
      </trkpt>
      <trkpt lat="57.229533009231091" lon="-4.566991003230214">
        <ele>41.950000000000003</ele>
        <time>2023-08-28T11:04:55Z</time>
      </trkpt>
      <trkpt lat="57.231503007933497" lon="-4.564226986840367">
        <ele>41.950000000000003</ele>
        <time>2023-08-28T11:05:06Z</time>
      </trkpt>
      <trkpt lat="57.232956010848284" lon="-4.562414987012744">
        <ele>41.950000000000003</ele>
        <time>2023-08-28T11:05:14Z</time>
      </trkpt>
      <trkpt lat="57.233622958883643" lon="-4.561409996822476">
        <ele>41.469999999999999</ele>
        <time>2023-08-28T11:05:18Z</time>
      </trkpt>
      <trkpt lat="57.233820017427206" lon="-4.561216961592436">
        <ele>40.509999999999998</ele>
        <time>2023-08-28T11:05:19Z</time>
      </trkpt>
      <trkpt lat="57.234777985140681" lon="-4.560111975297332">
        <ele>37.149999999999999</ele>
        <time>2023-08-28T11:05:24Z</time>
      </trkpt>
      <trkpt lat="57.234918968752027" lon="-4.559807041659951">
        <ele>36.189999999999998</ele>
        <time>2023-08-28T11:05:25Z</time>
      </trkpt>
      <trkpt lat="57.235052995383739" lon="-4.559491965919733">
        <ele>35.710000000000001</ele>
        <time>2023-08-28T11:05:26Z</time>
      </trkpt>
      <trkpt lat="57.235714998096228" lon="-4.558033011853695">
        <ele>34.740000000000002</ele>
        <time>2023-08-28T11:05:31Z</time>
      </trkpt>
      <trkpt lat="57.235849024727941" lon="-4.557808041572571">
        <ele>34.740000000000002</ele>
        <time>2023-08-28T11:05:32Z</time>
      </trkpt>
      <trkpt lat="57.236016998067498" lon="-4.557655993849039">
        <ele>34.740000000000002</ele>
        <time>2023-08-28T11:05:33Z</time>
      </trkpt>
      <trkpt lat="57.236180026084185" lon="-4.557510986924171">
        <ele>35.229999999999997</ele>
        <time>2023-08-28T11:05:34Z</time>
      </trkpt>
      <trkpt lat="57.236355962231755" lon="-4.557405039668083">
        <ele>35.710000000000001</ele>
        <time>2023-08-28T11:05:35Z</time>
      </trkpt>
      <trkpt lat="57.236542040482163" lon="-4.557319041341543">
        <ele>35.710000000000001</ele>
        <time>2023-08-28T11:05:36Z</time>
      </trkpt>
      <trkpt lat="57.237875014543533" lon="-4.556587971746922">
        <ele>36.189999999999998</ele>
        <time>2023-08-28T11:05:43Z</time>
      </trkpt>
      <trkpt lat="57.23804097622633" lon="-4.556412035599351">
        <ele>36.189999999999998</ele>
        <time>2023-08-28T11:05:44Z</time>
      </trkpt>
      <trkpt lat="57.2381910122931" lon="-4.556209025904536">
        <ele>36.670000000000002</ele>
        <time>2023-08-28T11:05:45Z</time>
      </trkpt>
      <trkpt lat="57.238339958712459" lon="-4.555973997339606">
        <ele>36.670000000000002</ele>
        <time>2023-08-28T11:05:46Z</time>
      </trkpt>
      <trkpt lat="57.238477002829313" lon="-4.555712984874845">
        <ele>36.670000000000002</ele>
        <time>2023-08-28T11:05:47Z</time>
      </trkpt>
      <trkpt lat="57.238609017804265" lon="-4.555421965196729">
        <ele>36.670000000000002</ele>
        <time>2023-08-28T11:05:48Z</time>
      </trkpt>
      <trkpt lat="57.238741032779217" lon="-4.555130023509264">
        <ele>36.670000000000002</ele>
        <time>2023-08-28T11:05:49Z</time>
      </trkpt>
      <trkpt lat="57.238869024440646" lon="-4.554847972467542">
        <ele>36.670000000000002</ele>
        <time>2023-08-28T11:05:50Z</time>
      </trkpt>
      <trkpt lat="57.238999027758837" lon="-4.554561981931329">
        <ele>36.670000000000002</ele>
        <time>2023-08-28T11:05:51Z</time>
      </trkpt>
      <trkpt lat="57.23915996029973" lon="-4.554303986951709">
        <ele>36.670000000000002</ele>
        <time>2023-08-28T11:05:52Z</time>
      </trkpt>
      <trkpt lat="57.239839984104037" lon="-4.553194977343082">
        <ele>36.189999999999998</ele>
        <time>2023-08-28T11:05:56Z</time>
      </trkpt>
      <trkpt lat="57.239983985200524" lon="-4.552856013178825">
        <ele>36.189999999999998</ele>
        <time>2023-08-28T11:05:57Z</time>
      </trkpt>
      <trkpt lat="57.240559989586473" lon="-4.551540976390243">
        <ele>35.229999999999997</ele>
        <time>2023-08-28T11:06:01Z</time>
      </trkpt>
      <trkpt lat="57.240718994289637" lon="-4.551239982247353">
        <ele>34.740000000000002</ele>
        <time>2023-08-28T11:06:02Z</time>
      </trkpt>
      <trkpt lat="57.242097984999418" lon="-4.549067979678512">
        <ele>33.299999999999997</ele>
        <time>2023-08-28T11:06:10Z</time>
      </trkpt>
      <trkpt lat="57.243061987683177" lon="-4.546688022091985">
        <ele>34.259999999999998</ele>
        <time>2023-08-28T11:06:17Z</time>
      </trkpt>
      <trkpt lat="57.243211017921567" lon="-4.546418963000178">
        <ele>34.259999999999998</ele>
        <time>2023-08-28T11:06:18Z</time>
      </trkpt>
      <trkpt lat="57.243359964340925" lon="-4.546149987727404">
        <ele>33.780000000000001</ele>
        <time>2023-08-28T11:06:19Z</time>
      </trkpt>
      <trkpt lat="57.243827003985643" lon="-4.545337026938796">
        <ele>34.259999999999998</ele>
        <time>2023-08-28T11:06:22Z</time>
      </trkpt>
      <trkpt lat="57.244561007246375" lon="-4.544141013175249">
        <ele>34.740000000000002</ele>
        <time>2023-08-28T11:06:28Z</time>
      </trkpt>
      <trkpt lat="57.245057970285416" lon="-4.543455960229039">
        <ele>35.229999999999997</ele>
        <time>2023-08-28T11:06:32Z</time>
      </trkpt>
      <trkpt lat="57.245794991031289" lon="-4.541872031986713">
        <ele>35.710000000000001</ele>
        <time>2023-08-28T11:06:38Z</time>
      </trkpt>
      <trkpt lat="57.246863013133407" lon="-4.539686031639576">
        <ele>35.710000000000001</ele>
        <time>2023-08-28T11:06:44Z</time>
      </trkpt>
      <trkpt lat="57.247318988665938" lon="-4.538830993697047">
        <ele>35.710000000000001</ele>
        <time>2023-08-28T11:06:47Z</time>
      </trkpt>
      <trkpt lat="57.247459972277284" lon="-4.538526982069016">
        <ele>35.710000000000001</ele>
        <time>2023-08-28T11:06:48Z</time>
      </trkpt>
      <trkpt lat="57.24867501296103" lon="-4.536333018913865">
        <ele>33.780000000000001</ele>
        <time>2023-08-28T11:06:56Z</time>
      </trkpt>
      <trkpt lat="57.249102992936969" lon="-4.535689959302545">
        <ele>34.259999999999998</ele>
        <time>2023-08-28T11:06:59Z</time>
      </trkpt>
      <trkpt lat="57.249267026782036" lon="-4.535589963197708">
        <ele>33.780000000000001</ele>
        <time>2023-08-28T11:07:00Z</time>
      </trkpt>
      <trkpt lat="57.249444974586368" lon="-4.535498013719916">
        <ele>33.299999999999997</ele>
        <time>2023-08-28T11:07:01Z</time>
      </trkpt>
      <trkpt lat="57.250035982578993" lon="-4.535191990435123">
        <ele>30.899999999999999</ele>
        <time>2023-08-28T11:07:04Z</time>
      </trkpt>
      <trkpt lat="57.250238992273808" lon="-4.535086965188384">
        <ele>30.420000000000002</ele>
        <time>2023-08-28T11:07:05Z</time>
      </trkpt>
      <trkpt lat="57.250432027503848" lon="-4.534958973526955">
        <ele>30.420000000000002</ele>
        <time>2023-08-28T11:07:06Z</time>
      </trkpt>
      <trkpt lat="57.252008998766541" lon="-4.533205982297659">
        <ele>28.98</ele>
        <time>2023-08-28T11:07:14Z</time>
      </trkpt>
      <trkpt lat="57.253799960017204" lon="-4.530395027250052">
        <ele>27.050000000000001</ele>
        <time>2023-08-28T11:07:24Z</time>
      </trkpt>
      <trkpt lat="57.255537025630474" lon="-4.528102995827794">
        <ele>24.649999999999999</ele>
        <time>2023-08-28T11:07:33Z</time>
      </trkpt>
      <trkpt lat="57.257415996864438" lon="-4.52639602124691">
        <ele>25.129999999999999</ele>
        <time>2023-08-28T11:07:42Z</time>
      </trkpt>
      <trkpt lat="57.258843015879393" lon="-4.524309011176229">
        <ele>25.609999999999999</ele>
        <time>2023-08-28T11:07:50Z</time>
      </trkpt>
      <trkpt lat="57.260477989912033" lon="-4.522081017494202">
        <ele>23.690000000000001</ele>
        <time>2023-08-28T11:07:59Z</time>
      </trkpt>
      <trkpt lat="57.261941973119974" lon="-4.520089980214834">
        <ele>23.210000000000001</ele>
        <time>2023-08-28T11:08:07Z</time>
      </trkpt>
      <trkpt lat="57.26365003734827" lon="-4.517377009615302">
        <ele>23.690000000000001</ele>
        <time>2023-08-28T11:08:17Z</time>
      </trkpt>
      <trkpt lat="57.264730967581272" lon="-4.515215987339616">
        <ele>25.609999999999999</ele>
        <time>2023-08-28T11:08:24Z</time>
      </trkpt>
      <trkpt lat="57.26607802323997" lon="-4.512395979836583">
        <ele>27.050000000000001</ele>
        <time>2023-08-28T11:08:33Z</time>
      </trkpt>
      <trkpt lat="57.267498001456261" lon="-4.509103987365961">
        <ele>28.5</ele>
        <time>2023-08-28T11:08:43Z</time>
      </trkpt>
      <trkpt lat="57.268810020759702" lon="-4.506812961772084">
        <ele>26.57</ele>
        <time>2023-08-28T11:08:51Z</time>
      </trkpt>
      <trkpt lat="57.270079040899873" lon="-4.505074974149466">
        <ele>26.09</ele>
        <time>2023-08-28T11:08:58Z</time>
      </trkpt>
      <trkpt lat="57.270438959822059" lon="-4.504543980583549">
        <ele>26.09</ele>
        <time>2023-08-28T11:09:00Z</time>
      </trkpt>
      <trkpt lat="57.272123973816633" lon="-4.502421012148261">
        <ele>26.57</ele>
        <time>2023-08-28T11:09:09Z</time>
      </trkpt>
      <trkpt lat="57.272667037323117" lon="-4.501678962260485">
        <ele>27.530000000000001</ele>
        <time>2023-08-28T11:09:12Z</time>
      </trkpt>
      <trkpt lat="57.272871974855661" lon="-4.501505959779024">
        <ele>27.530000000000001</ele>
        <time>2023-08-28T11:09:13Z</time>
      </trkpt>
      <trkpt lat="57.274292036890984" lon="-4.500238029286265">
        <ele>30.420000000000002</ele>
        <time>2023-08-28T11:09:20Z</time>
      </trkpt>
      <trkpt lat="57.275874959304929" lon="-4.498572964221239">
        <ele>32.340000000000003</ele>
        <time>2023-08-28T11:09:28Z</time>
      </trkpt>
      <trkpt lat="57.27673796005547" lon="-4.497360019013286">
        <ele>34.740000000000002</ele>
        <time>2023-08-28T11:09:33Z</time>
      </trkpt>
      <trkpt lat="57.276879027485847" lon="-4.497171007096767">
        <ele>34.740000000000002</ele>
        <time>2023-08-28T11:09:34Z</time>
      </trkpt>
      <trkpt lat="57.277047000825405" lon="-4.497062964364886">
        <ele>34.740000000000002</ele>
        <time>2023-08-28T11:09:35Z</time>
      </trkpt>
      <trkpt lat="57.277603978291154" lon="-4.496688963845372">
        <ele>33.780000000000001</ele>
        <time>2023-08-28T11:09:38Z</time>
      </trkpt>
      <trkpt lat="57.278166990727186" lon="-4.496157970279455">
        <ele>31.859999999999999</ele>
        <time>2023-08-28T11:09:41Z</time>
      </trkpt>
      <trkpt lat="57.278339993208647" lon="-4.495909027755261">
        <ele>31.379999999999999</ele>
        <time>2023-08-28T11:09:42Z</time>
      </trkpt>
      <trkpt lat="57.278498997911811" lon="-4.495627982541919">
        <ele>31.379999999999999</ele>
        <time>2023-08-28T11:09:43Z</time>
      </trkpt>
      <trkpt lat="57.279149014502764" lon="-4.494525007903576">
        <ele>30.420000000000002</ele>
        <time>2023-08-28T11:09:47Z</time>
      </trkpt>
      <trkpt lat="57.280263975262642" lon="-4.492805041372776">
        <ele>29.460000000000001</ele>
        <time>2023-08-28T11:09:54Z</time>
      </trkpt>
      <trkpt lat="57.280612997710705" lon="-4.492185031995177">
        <ele>28.98</ele>
        <time>2023-08-28T11:09:57Z</time>
      </trkpt>
      <trkpt lat="57.280793963000178" lon="-4.492081012576819">
        <ele>28.98</ele>
        <time>2023-08-28T11:09:58Z</time>
      </trkpt>
      <trkpt lat="57.280960008502007" lon="-4.491986967623234">
        <ele>28.5</ele>
        <time>2023-08-28T11:09:59Z</time>
      </trkpt>
      <trkpt lat="57.281475998461246" lon="-4.491692008450627">
        <ele>28.02</ele>
        <time>2023-08-28T11:10:02Z</time>
      </trkpt>
      <trkpt lat="57.28161103092134" lon="-4.49150400236249">
        <ele>27.530000000000001</ele>
        <time>2023-08-28T11:10:03Z</time>
      </trkpt>
      <trkpt lat="57.281743967905641" lon="-4.491272997111082">
        <ele>27.530000000000001</ele>
        <time>2023-08-28T11:10:04Z</time>
      </trkpt>
      <trkpt lat="57.281883023679256" lon="-4.491034029051662">
        <ele>27.530000000000001</ele>
        <time>2023-08-28T11:10:05Z</time>
      </trkpt>
      <trkpt lat="57.282017972320318" lon="-4.490800006315112">
        <ele>27.530000000000001</ele>
        <time>2023-08-28T11:10:06Z</time>
      </trkpt>
      <trkpt lat="57.282150993123651" lon="-4.490585010498762">
        <ele>27.530000000000001</ele>
        <time>2023-08-28T11:10:07Z</time>
      </trkpt>
      <trkpt lat="57.282316032797098" lon="-4.490441009402275">
        <ele>27.050000000000001</ele>
        <time>2023-08-28T11:10:08Z</time>
      </trkpt>
      <trkpt lat="57.282490963116288" lon="-4.490288039669395">
        <ele>26.09</ele>
        <time>2023-08-28T11:10:09Z</time>
      </trkpt>
      <trkpt lat="57.283194959163666" lon="-4.489685967564583">
        <ele>24.170000000000002</ele>
        <time>2023-08-28T11:10:13Z</time>
      </trkpt>
      <trkpt lat="57.283363016322255" lon="-4.489552024751902">
        <ele>25.129999999999999</ele>
        <time>2023-08-28T11:10:14Z</time>
      </trkpt>
      <trkpt lat="57.283533001318574" lon="-4.489415986463428">
        <ele>25.129999999999999</ele>
        <time>2023-08-28T11:10:15Z</time>
      </trkpt>
      <trkpt lat="57.284259963780642" lon="-4.489137958735228">
        <ele>26.09</ele>
        <time>2023-08-28T11:10:19Z</time>
      </trkpt>
      <trkpt lat="57.28444998152554" lon="-4.488991023972631">
        <ele>26.57</ele>
        <time>2023-08-28T11:10:20Z</time>
      </trkpt>
      <trkpt lat="57.28459800593555" lon="-4.488772004842758">
        <ele>27.530000000000001</ele>
        <time>2023-08-28T11:10:21Z</time>
      </trkpt>
      <trkpt lat="57.284745024517179" lon="-4.488550974056125">
        <ele>28.02</ele>
        <time>2023-08-28T11:10:22Z</time>
      </trkpt>
      <trkpt lat="57.284888019785285" lon="-4.488336984068155">
        <ele>28.5</ele>
        <time>2023-08-28T11:10:23Z</time>
      </trkpt>
      <trkpt lat="57.285046018660069" lon="-4.488159958273172">
        <ele>28.98</ele>
        <time>2023-08-28T11:10:24Z</time>
      </trkpt>
      <trkpt lat="57.285210974514484" lon="-4.487995002418757">
        <ele>29.940000000000001</ele>
        <time>2023-08-28T11:10:25Z</time>
      </trkpt>
      <trkpt lat="57.285378025844693" lon="-4.487828034907579">
        <ele>30.420000000000002</ele>
        <time>2023-08-28T11:10:26Z</time>
      </trkpt>
      <trkpt lat="57.285548010841012" lon="-4.487657966092229">
        <ele>31.379999999999999</ele>
        <time>2023-08-28T11:10:27Z</time>
      </trkpt>
      <trkpt lat="57.285679019987583" lon="-4.487412963062525">
        <ele>31.859999999999999</ele>
        <time>2023-08-28T11:10:28Z</time>
      </trkpt>
      <trkpt lat="57.285815980285406" lon="-4.487135019153357">
        <ele>32.340000000000003</ele>
        <time>2023-08-28T11:10:29Z</time>
      </trkpt>
      <trkpt lat="57.285956041887403" lon="-4.486849028617144">
        <ele>32.82</ele>
        <time>2023-08-28T11:10:30Z</time>
      </trkpt>
      <trkpt lat="57.286244966089725" lon="-4.486304959282279">
        <ele>34.259999999999998</ele>
        <time>2023-08-28T11:10:32Z</time>
      </trkpt>
      <trkpt lat="57.286555012688041" lon="-4.485852001234889">
        <ele>35.710000000000001</ele>
        <time>2023-08-28T11:10:34Z</time>
      </trkpt>
      <trkpt lat="57.28672600351274" lon="-4.485670030117035">
        <ele>36.670000000000002</ele>
        <time>2023-08-28T11:10:35Z</time>
      </trkpt>
      <trkpt lat="57.287782961502671" lon="-4.484836030751467">
        <ele>40.990000000000002</ele>
        <time>2023-08-28T11:10:41Z</time>
      </trkpt>
      <trkpt lat="57.287936015054584" lon="-4.484690017998219">
        <ele>41.469999999999999</ele>
        <time>2023-08-28T11:10:42Z</time>
      </trkpt>
      <trkpt lat="57.288075992837548" lon="-4.484517015516758">
        <ele>42.439999999999998</ele>
        <time>2023-08-28T11:10:43Z</time>
      </trkpt>
      <trkpt lat="57.288213958963752" lon="-4.484304031357169">
        <ele>43.399999999999999</ele>
        <time>2023-08-28T11:10:44Z</time>
      </trkpt>
      <trkpt lat="57.288324013352394" lon="-4.484061039984226">
        <ele>44.359999999999999</ele>
        <time>2023-08-28T11:10:45Z</time>
      </trkpt>
      <trkpt lat="57.288431972265244" lon="-4.483788041397929">
        <ele>45.32</ele>
        <time>2023-08-28T11:10:46Z</time>
      </trkpt>
      <trkpt lat="57.288543032482266" lon="-4.483505990356207">
        <ele>46.280000000000001</ele>
        <time>2023-08-28T11:10:47Z</time>
      </trkpt>
      <trkpt lat="57.289677020162344" lon="-4.480948001146317">
        <ele>58.299999999999997</ele>
        <time>2023-08-28T11:10:56Z</time>
      </trkpt>
      <trkpt lat="57.29026903398335" lon="-4.47988098487258">
        <ele>61.659999999999997</ele>
        <time>2023-08-28T11:11:00Z</time>
      </trkpt>
      <trkpt lat="57.290652003139257" lon="-4.479142958298326">
        <ele>63.100000000000001</ele>
        <time>2023-08-28T11:11:03Z</time>
      </trkpt>
      <trkpt lat="57.290813019499183" lon="-4.47893600910902">
        <ele>63.579999999999998</ele>
        <time>2023-08-28T11:11:04Z</time>
      </trkpt>
      <trkpt lat="57.291478039696813" lon="-4.47799002751708">
        <ele>64.549999999999997</ele>
        <time>2023-08-28T11:11:08Z</time>
      </trkpt>
      <trkpt lat="57.292702971026301" lon="-4.476281041279435">
        <ele>64.069999999999993</ele>
        <time>2023-08-28T11:11:15Z</time>
      </trkpt>
      <trkpt lat="57.294109035283327" lon="-4.474438028410077">
        <ele>58.780000000000001</ele>
        <time>2023-08-28T11:11:23Z</time>
      </trkpt>
      <trkpt lat="57.294281031936407" lon="-4.474204005673528">
        <ele>58.299999999999997</ele>
        <time>2023-08-28T11:11:24Z</time>
      </trkpt>
      <trkpt lat="57.294585965573788" lon="-4.473898988217115">
        <ele>57.82</ele>
        <time>2023-08-28T11:11:26Z</time>
      </trkpt>
      <trkpt lat="57.294757962226868" lon="-4.473824976012111">
        <ele>57.82</ele>
        <time>2023-08-28T11:11:27Z</time>
      </trkpt>
      <trkpt lat="57.294942028820515" lon="-4.47375699877739">
        <ele>57.340000000000003</ele>
        <time>2023-08-28T11:11:28Z</time>
      </trkpt>
      <trkpt lat="57.296357983723283" lon="-4.473552983254194">
        <ele>58.780000000000001</ele>
        <time>2023-08-28T11:11:35Z</time>
      </trkpt>
      <trkpt lat="57.29656602256" lon="-4.473529011011124">
        <ele>59.740000000000002</ele>
        <time>2023-08-28T11:11:36Z</time>
      </trkpt>
      <trkpt lat="57.297158036381006" lon="-4.473386015743017">
        <ele>62.140000000000001</ele>
        <time>2023-08-28T11:11:39Z</time>
      </trkpt>
      <trkpt lat="57.297328021377325" lon="-4.473323989659548">
        <ele>62.619999999999997</ele>
        <time>2023-08-28T11:11:40Z</time>
      </trkpt>
      <trkpt lat="57.297528013586998" lon="-4.473176971077919">
        <ele>63.579999999999998</ele>
        <time>2023-08-28T11:11:41Z</time>
      </trkpt>
      <trkpt lat="57.299427017569542" lon="-4.471778031438589">
        <ele>70.310000000000002</ele>
        <time>2023-08-28T11:11:51Z</time>
      </trkpt>
      <trkpt lat="57.300700983032584" lon="-4.470743034034967">
        <ele>74.640000000000001</ele>
        <time>2023-08-28T11:11:58Z</time>
      </trkpt>
      <trkpt lat="57.302479036152363" lon="-4.468676978722215">
        <ele>72.719999999999999</ele>
        <time>2023-08-28T11:12:08Z</time>
      </trkpt>
      <trkpt lat="57.304119961336255" lon="-4.467227999120951">
        <ele>66.950000000000003</ele>
        <time>2023-08-28T11:12:16Z</time>
      </trkpt>
      <trkpt lat="57.304696971550584" lon="-4.466718966141343">
        <ele>67.430000000000007</ele>
        <time>2023-08-28T11:12:19Z</time>
      </trkpt>
      <trkpt lat="57.305240035057068" lon="-4.466112032532692">
        <ele>67.430000000000007</ele>
        <time>2023-08-28T11:12:22Z</time>
      </trkpt>
      <trkpt lat="57.306987997144461" lon="-4.464166006073356">
        <ele>65.030000000000001</ele>
        <time>2023-08-28T11:12:31Z</time>
      </trkpt>
      <trkpt lat="57.309087999165058" lon="-4.462078996002674">
        <ele>60.700000000000003</ele>
        <time>2023-08-28T11:12:42Z</time>
      </trkpt>
      <trkpt lat="57.309434004127979" lon="-4.461643975228071">
        <ele>61.18</ele>
        <time>2023-08-28T11:12:44Z</time>
      </trkpt>
      <trkpt lat="57.309593008831143" lon="-4.461386986076832">
        <ele>61.659999999999997</ele>
        <time>2023-08-28T11:12:45Z</time>
      </trkpt>
      <trkpt lat="57.309748996049166" lon="-4.461135026067495">
        <ele>62.140000000000001</ele>
        <time>2023-08-28T11:12:46Z</time>
      </trkpt>
      <trkpt lat="57.310907961800694" lon="-4.459512960165739">
        <ele>66.469999999999999</ele>
        <time>2023-08-28T11:12:53Z</time>
      </trkpt>
      <trkpt lat="57.311626961454749" lon="-4.458690024912357">
        <ele>69.349999999999994</ele>
        <time>2023-08-28T11:12:57Z</time>
      </trkpt>
      <trkpt lat="57.31180096976459" lon="-4.458456002175808">
        <ele>69.829999999999998</ele>
        <time>2023-08-28T11:12:58Z</time>
      </trkpt>
      <trkpt lat="57.311973972246051" lon="-4.458219967782497">
        <ele>70.790000000000006</ele>
        <time>2023-08-28T11:12:59Z</time>
      </trkpt>
      <trkpt lat="57.313425969332457" lon="-4.455743031576276">
        <ele>75.120000000000005</ele>
        <time>2023-08-28T11:13:08Z</time>
      </trkpt>
      <trkpt lat="57.314292993396521" lon="-4.454186009243131">
        <ele>78.480000000000004</ele>
        <time>2023-08-28T11:13:14Z</time>
      </trkpt>
      <trkpt lat="57.314447974786162" lon="-4.454018035903573">
        <ele>78.969999999999999</ele>
        <time>2023-08-28T11:13:15Z</time>
      </trkpt>
      <trkpt lat="57.314611002802849" lon="-4.453912004828453">
        <ele>79.450000000000003</ele>
        <time>2023-08-28T11:13:16Z</time>
      </trkpt>
      <trkpt lat="57.314791968092322" lon="-4.453807985410094">
        <ele>79.450000000000003</ele>
        <time>2023-08-28T11:13:17Z</time>
      </trkpt>
      <trkpt lat="57.314981985837221" lon="-4.453700026497245">
        <ele>79.930000000000007</ele>
        <time>2023-08-28T11:13:18Z</time>
      </trkpt>
      <trkpt lat="57.315994016826153" lon="-4.453118992969394">
        <ele>80.409999999999997</ele>
        <time>2023-08-28T11:13:23Z</time>
      </trkpt>
      <trkpt lat="57.316183028742671" lon="-4.452912965789437">
        <ele>80.409999999999997</ele>
        <time>2023-08-28T11:13:24Z</time>
      </trkpt>
      <trkpt lat="57.316334992647171" lon="-4.452677015215159">
        <ele>80.409999999999997</ele>
        <time>2023-08-28T11:13:25Z</time>
      </trkpt>
      <trkpt lat="57.316490979865193" lon="-4.452437041327357">
        <ele>79.930000000000007</ele>
        <time>2023-08-28T11:13:26Z</time>
      </trkpt>
      <trkpt lat="57.316644033417106" lon="-4.452202012762427">
        <ele>79.930000000000007</ele>
        <time>2023-08-28T11:13:27Z</time>
      </trkpt>
      <trkpt lat="57.316936980932951" lon="-4.451804962009192">
        <ele>78.969999999999999</ele>
        <time>2023-08-28T11:13:29Z</time>
      </trkpt>
      <trkpt lat="57.317103026434779" lon="-4.451676970347762">
        <ele>78</ele>
        <time>2023-08-28T11:13:30Z</time>
      </trkpt>
      <trkpt lat="57.317292960360646" lon="-4.451559036970139">
        <ele>76.560000000000002</ele>
        <time>2023-08-28T11:13:31Z</time>
      </trkpt>
      <trkpt lat="57.318069040775299" lon="-4.450955959036946">
        <ele>72.239999999999995</ele>
        <time>2023-08-28T11:13:35Z</time>
      </trkpt>
      <trkpt lat="57.318462990224361" lon="-4.45057600736618">
        <ele>71.269999999999996</ele>
        <time>2023-08-28T11:13:37Z</time>
      </trkpt>
      <trkpt lat="57.318647978827357" lon="-4.450391018763185">
        <ele>70.790000000000006</ele>
        <time>2023-08-28T11:13:38Z</time>
      </trkpt>
      <trkpt lat="57.319091968238354" lon="-4.449730021879077">
        <ele>69.349999999999994</ele>
        <time>2023-08-28T11:13:41Z</time>
      </trkpt>
      <trkpt lat="57.319221971556544" lon="-4.449461968615651">
        <ele>69.349999999999994</ele>
        <time>2023-08-28T11:13:42Z</time>
      </trkpt>
      <trkpt lat="57.319824965670705" lon="-4.448299985378981">
        <ele>67.430000000000007</ele>
        <time>2023-08-28T11:13:47Z</time>
      </trkpt>
      <trkpt lat="57.319965027272701" lon="-4.448180962353945">
        <ele>67.430000000000007</ele>
        <time>2023-08-28T11:13:48Z</time>
      </trkpt>
      <trkpt lat="57.320112967863679" lon="-4.448053976520896">
        <ele>66.469999999999999</ele>
        <time>2023-08-28T11:13:49Z</time>
      </trkpt>
      <trkpt lat="57.32041303999722" lon="-4.447797993198037">
        <ele>65.510000000000005</ele>
        <time>2023-08-28T11:13:51Z</time>
      </trkpt>
      <trkpt lat="57.320545976981521" lon="-4.447667989879847">
        <ele>65.510000000000005</ele>
        <time>2023-08-28T11:13:52Z</time>
      </trkpt>
      <trkpt lat="57.320661982521415" lon="-4.447477972134948">
        <ele>65.510000000000005</ele>
        <time>2023-08-28T11:13:53Z</time>
      </trkpt>
      <trkpt lat="57.320996001362801" lon="-4.446930969133973">
        <ele>65.030000000000001</ele>
        <time>2023-08-28T11:13:56Z</time>
      </trkpt>
      <trkpt lat="57.32114402577281" lon="-4.446779005229473">
        <ele>64.549999999999997</ele>
        <time>2023-08-28T11:13:57Z</time>
      </trkpt>
      <trkpt lat="57.321289032697678" lon="-4.446629974991083">
        <ele>64.069999999999993</ele>
        <time>2023-08-28T11:13:58Z</time>
      </trkpt>
      <trkpt lat="57.321432027965784" lon="-4.446483040228486">
        <ele>62.619999999999997</ele>
        <time>2023-08-28T11:13:59Z</time>
      </trkpt>
      <trkpt lat="57.321577034890652" lon="-4.446335015818477">
        <ele>61.659999999999997</ele>
        <time>2023-08-28T11:14:00Z</time>
      </trkpt>
      <trkpt lat="57.321717012673616" lon="-4.446190008893609">
        <ele>61.18</ele>
        <time>2023-08-28T11:14:01Z</time>
      </trkpt>
      <trkpt lat="57.321841986849904" lon="-4.446039972826839">
        <ele>60.219999999999999</ele>
        <time>2023-08-28T11:14:02Z</time>
      </trkpt>
      <trkpt lat="57.322323024272919" lon="-4.445382999256253">
        <ele>57.340000000000003</ele>
        <time>2023-08-28T11:14:06Z</time>
      </trkpt>
      <trkpt lat="57.32245403341949" lon="-4.445285014808178">
        <ele>56.369999999999997</ele>
        <time>2023-08-28T11:14:07Z</time>
      </trkpt>
      <trkpt lat="57.32258596457541" lon="-4.445186024531722">
        <ele>55.409999999999997</ele>
        <time>2023-08-28T11:14:08Z</time>
      </trkpt>
      <trkpt lat="57.322725020349026" lon="-4.445147970691323">
        <ele>53.969999999999999</ele>
        <time>2023-08-28T11:14:09Z</time>
      </trkpt>
      <trkpt lat="57.32286499813199" lon="-4.44511997513473">
        <ele>52.530000000000001</ele>
        <time>2023-08-28T11:14:10Z</time>
      </trkpt>
      <trkpt lat="57.323033977299929" lon="-4.445086028426886">
        <ele>51.57</ele>
        <time>2023-08-28T11:14:11Z</time>
      </trkpt>
      <trkpt lat="57.323145037516952" lon="-4.445102037861943">
        <ele>51.090000000000003</ele>
        <time>2023-08-28T11:14:12Z</time>
      </trkpt>
      <trkpt lat="57.323288032785058" lon="-4.445123998448253">
        <ele>50.130000000000003</ele>
        <time>2023-08-28T11:14:13Z</time>
      </trkpt>
      <trkpt lat="57.32389303855598" lon="-4.445214020088315">
        <ele>48.200000000000003</ele>
        <time>2023-08-28T11:14:17Z</time>
      </trkpt>
      <trkpt lat="57.324424032121897" lon="-4.445350980386138">
        <ele>46.280000000000001</ele>
        <time>2023-08-28T11:14:21Z</time>
      </trkpt>
      <trkpt lat="57.324553029611707" lon="-4.445369001477957">
        <ele>45.799999999999997</ele>
        <time>2023-08-28T11:14:22Z</time>
      </trkpt>
      <trkpt lat="57.324934992939234" lon="-4.445421975106001">
        <ele>45.799999999999997</ele>
        <time>2023-08-28T11:14:26Z</time>
      </trkpt>
      <trkpt lat="57.324986960738897" lon="-4.445429015904665">
        <ele>46.280000000000001</ele>
        <time>2023-08-28T11:14:27Z</time>
      </trkpt>
      <trkpt lat="57.325020991265774" lon="-4.445433039218187">
        <ele>46.280000000000001</ele>
        <time>2023-08-28T11:14:28Z</time>
      </trkpt>
      <trkpt lat="57.324986960738897" lon="-4.445429015904665">
        <ele>46.759999999999998</ele>
        <time>2023-08-28T11:14:29Z</time>
      </trkpt>
      <trkpt lat="57.324982015416026" lon="-4.445393979549408">
        <ele>46.759999999999998</ele>
        <time>2023-08-28T11:14:30Z</time>
      </trkpt>
      <trkpt lat="57.324972040951252" lon="-4.445319967344403">
        <ele>46.759999999999998</ele>
        <time>2023-08-28T11:14:31Z</time>
      </trkpt>
      <trkpt lat="57.324961982667446" lon="-4.445254001766443">
        <ele>47.240000000000002</ele>
        <time>2023-08-28T11:14:32Z</time>
      </trkpt>
      <trkpt lat="57.324943961575627" lon="-4.445128021761775">
        <ele>47.719999999999999</ele>
        <time>2023-08-28T11:14:33Z</time>
      </trkpt>
      <trkpt lat="57.324943961575627" lon="-4.445128021761775">
        <ele>47.719999999999999</ele>
        <time>2023-08-28T11:14:34Z</time>
      </trkpt>
      <trkpt lat="57.324935998767614" lon="-4.44511603564024">
        <ele>48.200000000000003</ele>
        <time>2023-08-28T11:14:35Z</time>
      </trkpt>
      <trkpt lat="57.324935998767614" lon="-4.44511603564024">
        <ele>49.159999999999997</ele>
        <time>2023-08-28T11:14:50Z</time>
      </trkpt>
      <trkpt lat="57.324935998767614" lon="-4.44511603564024">
        <ele>51.57</ele>
        <time>2023-08-28T11:15:10Z</time>
      </trkpt>
      <trkpt lat="57.324780011549592" lon="-4.445089967921376">
        <ele>53.009999999999998</ele>
        <time>2023-08-28T11:15:12Z</time>
      </trkpt>
      <trkpt lat="57.324718991294503" lon="-4.44507597014308">
        <ele>53.969999999999999</ele>
        <time>2023-08-28T11:15:13Z</time>
      </trkpt>
      <trkpt lat="57.32402203604579" lon="-4.444914031773806">
        <ele>54.450000000000003</ele>
        <time>2023-08-28T11:15:23Z</time>
      </trkpt>
      <trkpt lat="57.323962021619081" lon="-4.444961976259947">
        <ele>54.450000000000003</ele>
        <time>2023-08-28T11:15:24Z</time>
      </trkpt>
      <trkpt lat="57.32393603771925" lon="-4.444982009008527">
        <ele>54.450000000000003</ele>
        <time>2023-08-28T11:15:25Z</time>
      </trkpt>
      <trkpt lat="57.323912987485528" lon="-4.445007992908359">
        <ele>54.450000000000003</ele>
        <time>2023-08-28T11:15:26Z</time>
      </trkpt>
      <trkpt lat="57.323907958343625" lon="-4.445067001506686">
        <ele>54.450000000000003</ele>
        <time>2023-08-28T11:15:27Z</time>
      </trkpt>
      <trkpt lat="57.323903013020754" lon="-4.44511704146862">
        <ele>54.450000000000003</ele>
        <time>2023-08-28T11:15:28Z</time>
      </trkpt>
      <trkpt lat="57.323898989707232" lon="-4.445150988176465">
        <ele>54.450000000000003</ele>
        <time>2023-08-28T11:15:29Z</time>
      </trkpt>
      <trkpt lat="57.323894966393709" lon="-4.445190969854593">
        <ele>54.450000000000003</ele>
        <time>2023-08-28T11:15:30Z</time>
      </trkpt>
      <trkpt lat="57.323910975828767" lon="-4.445219971239567">
        <ele>54.450000000000003</ele>
        <time>2023-08-28T11:15:31Z</time>
      </trkpt>
      <trkpt lat="57.323950035497546" lon="-4.445232963189483">
        <ele>54.450000000000003</ele>
        <time>2023-08-28T11:15:32Z</time>
      </trkpt>
      <trkpt lat="57.324004014953971" lon="-4.445250984281302">
        <ele>54.450000000000003</ele>
        <time>2023-08-28T11:15:33Z</time>
      </trkpt>
      <trkpt lat="57.32406503520906" lon="-4.445272022858262">
        <ele>53.969999999999999</ele>
        <time>2023-08-28T11:15:34Z</time>
      </trkpt>
      <trkpt lat="57.324133012443781" lon="-4.445294989272952">
        <ele>53.969999999999999</ele>
        <time>2023-08-28T11:15:35Z</time>
      </trkpt>
      <trkpt lat="57.324213981628418" lon="-4.445320973172784">
        <ele>53.969999999999999</ele>
        <time>2023-08-28T11:15:36Z</time>
      </trkpt>
      <trkpt lat="57.325351992622018" lon="-4.445472015067935">
        <ele>50.609999999999999</ele>
        <time>2023-08-28T11:15:46Z</time>
      </trkpt>
      <trkpt lat="57.325658015906811" lon="-4.445435972884297">
        <ele>50.609999999999999</ele>
        <time>2023-08-28T11:15:49Z</time>
      </trkpt>
      <trkpt lat="57.325761029496789" lon="-4.44541702978313">
        <ele>50.609999999999999</ele>
        <time>2023-08-28T11:15:50Z</time>
      </trkpt>
      <trkpt lat="57.325863037258387" lon="-4.445391967892647">
        <ele>51.090000000000003</ele>
        <time>2023-08-28T11:15:51Z</time>
      </trkpt>
      <trkpt lat="57.32630199752748" lon="-4.445278979837894">
        <ele>52.049999999999997</ele>
        <time>2023-08-28T11:15:55Z</time>
      </trkpt>
      <trkpt lat="57.326414985582232" lon="-4.445249978452921">
        <ele>52.530000000000001</ele>
        <time>2023-08-28T11:15:56Z</time>
      </trkpt>
      <trkpt lat="57.326528979465365" lon="-4.445220977067947">
        <ele>53.009999999999998</ele>
        <time>2023-08-28T11:15:57Z</time>
      </trkpt>
      <trkpt lat="57.326648002490401" lon="-4.445261964574456">
        <ele>53.490000000000002</ele>
        <time>2023-08-28T11:15:58Z</time>
      </trkpt>
      <trkpt lat="57.326758978888392" lon="-4.445317033678293">
        <ele>53.969999999999999</ele>
        <time>2023-08-28T11:15:59Z</time>
      </trkpt>
      <trkpt lat="57.326859980821609" lon="-4.445404037833214">
        <ele>54.450000000000003</ele>
        <time>2023-08-28T11:16:00Z</time>
      </trkpt>
      <trkpt lat="57.326952014118433" lon="-4.445519037544727">
        <ele>54.450000000000003</ele>
        <time>2023-08-28T11:16:01Z</time>
      </trkpt>
      <trkpt lat="57.327038012444973" lon="-4.445625990629196">
        <ele>54.93</ele>
        <time>2023-08-28T11:16:02Z</time>
      </trkpt>
      <trkpt lat="57.327095009386539" lon="-4.445735961198807">
        <ele>54.93</ele>
        <time>2023-08-28T11:16:03Z</time>
      </trkpt>
      <trkpt lat="57.327129039913416" lon="-4.445831011980772">
        <ele>54.93</ele>
        <time>2023-08-28T11:16:04Z</time>
      </trkpt>
      <trkpt lat="57.327148988842964" lon="-4.445885997265577">
        <ele>54.93</ele>
        <time>2023-08-28T11:16:05Z</time>
      </trkpt>
      <trkpt lat="57.327163992449641" lon="-4.445927990600467">
        <ele>55.409999999999997</ele>
        <time>2023-08-28T11:16:06Z</time>
      </trkpt>
      <trkpt lat="57.327163992449641" lon="-4.445927990600467">
        <ele>55.890000000000001</ele>
        <time>2023-08-28T11:16:13Z</time>
      </trkpt>
      <trkpt lat="57.327172039076686" lon="-4.445950035005808">
        <ele>55.890000000000001</ele>
        <time>2023-08-28T11:16:25Z</time>
      </trkpt>
      <trkpt lat="57.327186036854982" lon="-4.445989010855556">
        <ele>55.409999999999997</ele>
        <time>2023-08-28T11:16:28Z</time>
      </trkpt>
      <trkpt lat="57.327186036854982" lon="-4.445989010855556">
        <ele>55.890000000000001</ele>
        <time>2023-08-28T11:16:31Z</time>
      </trkpt>
      <trkpt lat="57.327186036854982" lon="-4.445989010855556">
        <ele>55.890000000000001</ele>
        <time>2023-08-28T11:16:32Z</time>
      </trkpt>
      <trkpt lat="57.327218977734447" lon="-4.446078026667237">
        <ele>55.890000000000001</ele>
        <time>2023-08-28T11:16:43Z</time>
      </trkpt>
      <trkpt lat="57.327188970521092" lon="-4.446166036650538">
        <ele>51.090000000000003</ele>
        <time>2023-08-28T11:18:17Z</time>
      </trkpt>
      <trkpt lat="57.327200034633279" lon="-4.446166958659887">
        <ele>40.990000000000002</ele>
        <time>2023-08-28T11:18:31Z</time>
      </trkpt>
      <trkpt lat="57.327240016311407" lon="-4.446137035265565">
        <ele>42.920000000000002</ele>
        <time>2023-08-28T11:18:33Z</time>
      </trkpt>
      <trkpt lat="57.327252002432942" lon="-4.446254968643189">
        <ele>43.399999999999999</ele>
        <time>2023-08-28T11:18:34Z</time>
      </trkpt>
      <trkpt lat="57.327262982726097" lon="-4.44636301137507">
        <ele>43.880000000000003</ele>
        <time>2023-08-28T11:18:35Z</time>
      </trkpt>
      <trkpt lat="57.327276980504394" lon="-4.446508018299937">
        <ele>43.880000000000003</ele>
        <time>2023-08-28T11:18:36Z</time>
      </trkpt>
      <trkpt lat="57.327283015474677" lon="-4.447104977443814">
        <ele>44.840000000000003</ele>
        <time>2023-08-28T11:18:39Z</time>
      </trkpt>
      <trkpt lat="57.327283015474677" lon="-4.447323996573687">
        <ele>44.840000000000003</ele>
        <time>2023-08-28T11:18:40Z</time>
      </trkpt>
      <trkpt lat="57.327283015474677" lon="-4.449556013569236">
        <ele>47.240000000000002</ele>
        <time>2023-08-28T11:18:49Z</time>
      </trkpt>
      <trkpt lat="57.327348981052637" lon="-4.451316967606545">
        <ele>44.840000000000003</ele>
        <time>2023-08-28T11:18:56Z</time>
      </trkpt>
      <trkpt lat="57.327368007972836" lon="-4.451570017263293">
        <ele>44.359999999999999</ele>
        <time>2023-08-28T11:18:57Z</time>
      </trkpt>
      <trkpt lat="57.327422993257642" lon="-4.452334027737379">
        <ele>42.920000000000002</ele>
        <time>2023-08-28T11:19:00Z</time>
      </trkpt>
      <trkpt lat="57.327442020177841" lon="-4.452595040202141">
        <ele>42.439999999999998</ele>
        <time>2023-08-28T11:19:01Z</time>
      </trkpt>
      <trkpt lat="57.327543022111058" lon="-4.453981993719935">
        <ele>38.590000000000003</ele>
        <time>2023-08-28T11:19:06Z</time>
      </trkpt>
      <trkpt lat="57.32763497158885" lon="-4.4552599824965">
        <ele>37.630000000000003</ele>
        <time>2023-08-28T11:19:10Z</time>
      </trkpt>
      <trkpt lat="57.327917022630572" lon="-4.458031039685011">
        <ele>30.899999999999999</ele>
        <time>2023-08-28T11:19:18Z</time>
      </trkpt>
      <trkpt lat="57.328386995941401" lon="-4.4602420181036">
        <ele>19.359999999999999</ele>
        <time>2023-08-28T11:19:25Z</time>
      </trkpt>
      <trkpt lat="57.328495038673282" lon="-4.460486015304923">
        <ele>17.920000000000002</ele>
        <time>2023-08-28T11:19:26Z</time>
      </trkpt>
      <trkpt lat="57.328629987314343" lon="-4.460709979757667">
        <ele>16.960000000000001</ele>
        <time>2023-08-28T11:19:27Z</time>
      </trkpt>
      <trkpt lat="57.328766025602818" lon="-4.460934028029442">
        <ele>16</ele>
        <time>2023-08-28T11:19:28Z</time>
      </trkpt>
      <trkpt lat="57.328900974243879" lon="-4.461157992482185">
        <ele>15.039999999999999</ele>
        <time>2023-08-28T11:19:29Z</time>
      </trkpt>
      <trkpt lat="57.329023014754057" lon="-4.46140400134027">
        <ele>14.56</ele>
        <time>2023-08-28T11:19:30Z</time>
      </trkpt>
      <trkpt lat="57.329144971445203" lon="-4.461653027683497">
        <ele>14.56</ele>
        <time>2023-08-28T11:19:31Z</time>
      </trkpt>
      <trkpt lat="57.329263994470239" lon="-4.461899036541581">
        <ele>14.56</ele>
        <time>2023-08-28T11:19:32Z</time>
      </trkpt>
      <trkpt lat="57.329342029988766" lon="-4.462187960743904">
        <ele>14.08</ele>
        <time>2023-08-28T11:19:33Z</time>
      </trkpt>
      <trkpt lat="57.329402966424823" lon="-4.4624990131706">
        <ele>14.08</ele>
        <time>2023-08-28T11:19:34Z</time>
      </trkpt>
      <trkpt lat="57.329462980851531" lon="-4.462807970121503">
        <ele>13.6</ele>
        <time>2023-08-28T11:19:35Z</time>
      </trkpt>
      <trkpt lat="57.329476978629827" lon="-4.463131008669734">
        <ele>13.119999999999999</ele>
        <time>2023-08-28T11:19:36Z</time>
      </trkpt>
      <trkpt lat="57.329484019428492" lon="-4.463455975055695">
        <ele>12.630000000000001</ele>
        <time>2023-08-28T11:19:37Z</time>
      </trkpt>
      <trkpt lat="57.329490976408124" lon="-4.463777001947165">
        <ele>12.630000000000001</ele>
        <time>2023-08-28T11:19:38Z</time>
      </trkpt>
      <trkpt lat="57.329476978629827" lon="-4.466142039746046">
        <ele>14.08</ele>
        <time>2023-08-28T11:19:46Z</time>
      </trkpt>
      <trkpt lat="57.329412018880248" lon="-4.466662975028157">
        <ele>15.52</ele>
        <time>2023-08-28T11:19:48Z</time>
      </trkpt>
      <trkpt lat="57.329367008060217" lon="-4.466917030513287">
        <ele>16</ele>
        <time>2023-08-28T11:19:49Z</time>
      </trkpt>
      <trkpt lat="57.329301964491606" lon="-4.467147029936314">
        <ele>16.48</ele>
        <time>2023-08-28T11:19:50Z</time>
      </trkpt>
      <trkpt lat="57.329235998913646" lon="-4.46737602353096">
        <ele>17.440000000000001</ele>
        <time>2023-08-28T11:19:51Z</time>
      </trkpt>
      <trkpt lat="57.329171039164066" lon="-4.467600993812084">
        <ele>17.920000000000002</ele>
        <time>2023-08-28T11:19:52Z</time>
      </trkpt>
      <trkpt lat="57.329107001423836" lon="-4.467822024598718">
        <ele>18.399999999999999</ele>
        <time>2023-08-28T11:19:53Z</time>
      </trkpt>
      <trkpt lat="57.329042963683605" lon="-4.468044983223081">
        <ele>19.359999999999999</ele>
        <time>2023-08-28T11:19:54Z</time>
      </trkpt>
      <trkpt lat="57.328963000327349" lon="-4.468228965997696">
        <ele>19.359999999999999</ele>
        <time>2023-08-28T11:19:55Z</time>
      </trkpt>
      <trkpt lat="57.328203013166785" lon="-4.469939041882753">
        <ele>25.129999999999999</ele>
        <time>2023-08-28T11:20:06Z</time>
      </trkpt>
      <trkpt lat="57.328077033162117" lon="-4.470304995775223">
        <ele>25.609999999999999</ele>
        <time>2023-08-28T11:20:07Z</time>
      </trkpt>
      <trkpt lat="57.328011989593506" lon="-4.470499958842993">
        <ele>25.609999999999999</ele>
        <time>2023-08-28T11:20:08Z</time>
      </trkpt>
      <trkpt lat="57.32799899764359" lon="-4.47070799767971">
        <ele>26.09</ele>
        <time>2023-08-28T11:20:09Z</time>
      </trkpt>
      <trkpt lat="57.327986005693674" lon="-4.470916958525777">
        <ele>26.09</ele>
        <time>2023-08-28T11:20:10Z</time>
      </trkpt>
      <trkpt lat="57.327973013743758" lon="-4.471119968220592">
        <ele>26.57</ele>
        <time>2023-08-28T11:20:11Z</time>
      </trkpt>
      <trkpt lat="57.327988017350435" lon="-4.471328007057309">
        <ele>26.57</ele>
        <time>2023-08-28T11:20:12Z</time>
      </trkpt>
      <trkpt lat="57.328011989593506" lon="-4.471534034237266">
        <ele>26.57</ele>
        <time>2023-08-28T11:20:13Z</time>
      </trkpt>
      <trkpt lat="57.328290017321706" lon="-4.474067967385054">
        <ele>26.57</ele>
        <time>2023-08-28T11:20:25Z</time>
      </trkpt>
      <trkpt lat="57.328337039798498" lon="-4.474518997594714">
        <ele>26.57</ele>
        <time>2023-08-28T11:20:30Z</time>
      </trkpt>
      <trkpt lat="57.328354977071285" lon="-4.474695017561317">
        <ele>26.09</ele>
        <time>2023-08-28T11:20:37Z</time>
      </trkpt>
      <trkpt lat="57.328361012041569" lon="-4.474757965654135">
        <ele>24.649999999999999</ele>
        <time>2023-08-28T11:20:53Z</time>
      </trkpt>
      <trkpt lat="57.328004026785493" lon="-4.475053008645773">
        <ele>25.129999999999999</ele>
        <time>2023-08-28T11:23:51Z</time>
      </trkpt>
      <trkpt lat="57.328108968213201" lon="-4.474976984784007">
        <ele>17.920000000000002</ele>
        <time>2023-08-28T11:24:04Z</time>
      </trkpt>
      <trkpt lat="57.328264033421874" lon="-4.474988970905542">
        <ele>25.609999999999999</ele>
        <time>2023-08-28T11:24:29Z</time>
      </trkpt>
      <trkpt lat="57.328265961259604" lon="-4.475027024745941">
        <ele>28.5</ele>
        <time>2023-08-28T11:24:56Z</time>
      </trkpt>
      <trkpt lat="57.328270990401506" lon="-4.475021995604038">
        <ele>32.340000000000003</ele>
        <time>2023-08-28T11:25:31Z</time>
      </trkpt>
      <trkpt lat="57.328407028689981" lon="-4.475149987265468">
        <ele>28.98</ele>
        <time>2023-08-28T11:25:40Z</time>
      </trkpt>
      <trkpt lat="57.328422032296658" lon="-4.475269010290504">
        <ele>28.98</ele>
        <time>2023-08-28T11:25:41Z</time>
      </trkpt>
      <trkpt lat="57.328690001741052" lon="-4.476910019293428">
        <ele>27.530000000000001</ele>
        <time>2023-08-28T11:25:51Z</time>
      </trkpt>
      <trkpt lat="57.328799972310662" lon="-4.477306986227632">
        <ele>27.530000000000001</ele>
        <time>2023-08-28T11:25:54Z</time>
      </trkpt>
      <trkpt lat="57.328764013946056" lon="-4.477701019495726">
        <ele>28.02</ele>
        <time>2023-08-28T11:25:56Z</time>
      </trkpt>
      <trkpt lat="57.328766025602818" lon="-4.477720968425274">
        <ele>28.02</ele>
        <time>2023-08-28T11:25:57Z</time>
      </trkpt>
      <trkpt lat="57.328781029209495" lon="-4.477835968136787">
        <ele>28.5</ele>
        <time>2023-08-28T11:25:58Z</time>
      </trkpt>
      <trkpt lat="57.328784968703985" lon="-4.477873016148806">
        <ele>28.5</ele>
        <time>2023-08-28T11:25:59Z</time>
      </trkpt>
      <trkpt lat="57.328870967030525" lon="-4.477959014475346">
        <ele>28.98</ele>
        <time>2023-08-28T11:26:00Z</time>
      </trkpt>
      <trkpt lat="57.328870967030525" lon="-4.477959014475346">
        <ele>28.98</ele>
        <time>2023-08-28T11:26:01Z</time>
      </trkpt>
      <trkpt lat="57.329013040289283" lon="-4.478081976994872">
        <ele>28.98</ele>
        <time>2023-08-28T11:26:02Z</time>
      </trkpt>
      <trkpt lat="57.329062996432185" lon="-4.478212986141443">
        <ele>29.460000000000001</ele>
        <time>2023-08-28T11:26:03Z</time>
      </trkpt>
      <trkpt lat="57.32911798171699" lon="-4.47835598140955">
        <ele>29.460000000000001</ele>
        <time>2023-08-28T11:26:04Z</time>
      </trkpt>
      <trkpt lat="57.329179001972079" lon="-4.478514986112714">
        <ele>29.460000000000001</ele>
        <time>2023-08-28T11:26:05Z</time>
      </trkpt>
      <trkpt lat="57.329486031085253" lon="-4.479137007147074">
        <ele>29.460000000000001</ele>
        <time>2023-08-28T11:26:09Z</time>
      </trkpt>
      <trkpt lat="57.329574041068554" lon="-4.4792599696666">
        <ele>29.460000000000001</ele>
        <time>2023-08-28T11:26:10Z</time>
      </trkpt>
      <trkpt lat="57.329663978889585" lon="-4.479368012398481">
        <ele>29.940000000000001</ele>
        <time>2023-08-28T11:26:11Z</time>
      </trkpt>
      <trkpt lat="57.32975902967155" lon="-4.479481000453234">
        <ele>29.940000000000001</ele>
        <time>2023-08-28T11:26:12Z</time>
      </trkpt>
      <trkpt lat="57.329858019948006" lon="-4.479582002386451">
        <ele>29.940000000000001</ele>
        <time>2023-08-28T11:26:13Z</time>
      </trkpt>
      <trkpt lat="57.331133997067809" lon="-4.480713978409767">
        <ele>29.940000000000001</ele>
        <time>2023-08-28T11:26:25Z</time>
      </trkpt>
      <trkpt lat="57.331354022026062" lon="-4.480871977284551">
        <ele>29.460000000000001</ele>
        <time>2023-08-28T11:26:27Z</time>
      </trkpt>
      <trkpt lat="57.33227301388979" lon="-4.481242038309574">
        <ele>28.5</ele>
        <time>2023-08-28T11:26:35Z</time>
      </trkpt>
      <trkpt lat="57.332367980852723" lon="-4.481208007782698">
        <ele>28.02</ele>
        <time>2023-08-28T11:26:36Z</time>
      </trkpt>
      <trkpt lat="57.332447022199631" lon="-4.481167020276189">
        <ele>27.530000000000001</ele>
        <time>2023-08-28T11:26:37Z</time>
      </trkpt>
      <trkpt lat="57.333237016573548" lon="-4.480641977861524">
        <ele>23.210000000000001</ele>
        <time>2023-08-28T11:26:48Z</time>
      </trkpt>
      <trkpt lat="57.334422972053289" lon="-4.479827005416155">
        <ele>20.809999999999999</ele>
        <time>2023-08-28T11:27:00Z</time>
      </trkpt>
      <trkpt lat="57.335176002234221" lon="-4.479863969609141">
        <ele>19.84</ele>
        <time>2023-08-28T11:27:08Z</time>
      </trkpt>
      <trkpt lat="57.335227970033884" lon="-4.479876039549708">
        <ele>19.84</ele>
        <time>2023-08-28T11:27:09Z</time>
      </trkpt>
      <trkpt lat="57.335341963917017" lon="-4.47990202344954">
        <ele>19.359999999999999</ele>
        <time>2023-08-28T11:27:13Z</time>
      </trkpt>
      <trkpt lat="57.335355961695313" lon="-4.479905040934682">
        <ele>18.879999999999999</ele>
        <time>2023-08-28T11:27:14Z</time>
      </trkpt>
      <trkpt lat="57.335440032184124" lon="-4.480101009830833">
        <ele>18.879999999999999</ele>
        <time>2023-08-28T11:27:15Z</time>
      </trkpt>
      <trkpt lat="57.33543299138546" lon="-4.480131017044187">
        <ele>18.399999999999999</ele>
        <time>2023-08-28T11:27:16Z</time>
      </trkpt>
      <trkpt lat="57.335425028577447" lon="-4.480166975408793">
        <ele>18.399999999999999</ele>
        <time>2023-08-28T11:27:17Z</time>
      </trkpt>
      <trkpt lat="57.335415976122022" lon="-4.480205029249191">
        <ele>18.399999999999999</ele>
        <time>2023-08-28T11:27:18Z</time>
      </trkpt>
      <trkpt lat="57.335406001657248" lon="-4.480249034240842">
        <ele>18.399999999999999</ele>
        <time>2023-08-28T11:27:19Z</time>
      </trkpt>
      <trkpt lat="57.335394015535712" lon="-4.480297984555364">
        <ele>18.399999999999999</ele>
        <time>2023-08-28T11:27:20Z</time>
      </trkpt>
      <trkpt lat="57.335394015535712" lon="-4.480297984555364">
        <ele>17.920000000000002</ele>
        <time>2023-08-28T11:27:21Z</time>
      </trkpt>
      <trkpt lat="57.335387980565429" lon="-4.480342995375395">
        <ele>17.920000000000002</ele>
        <time>2023-08-28T11:27:22Z</time>
      </trkpt>
      <trkpt lat="57.335383035242558" lon="-4.480381971225143">
        <ele>17.920000000000002</ele>
        <time>2023-08-28T11:27:23Z</time>
      </trkpt>
      <trkpt lat="57.335375994443893" lon="-4.480432011187077">
        <ele>17.920000000000002</ele>
        <time>2023-08-28T11:27:24Z</time>
      </trkpt>
      <trkpt lat="57.335351016372442" lon="-4.480619011446834">
        <ele>17.920000000000002</ele>
        <time>2023-08-28T11:27:28Z</time>
      </trkpt>
      <trkpt lat="57.335200980305672" lon="-4.480597972869873">
        <ele>17.920000000000002</ele>
        <time>2023-08-28T11:27:29Z</time>
      </trkpt>
      <trkpt lat="57.335200980305672" lon="-4.480597972869873">
        <ele>18.399999999999999</ele>
        <time>2023-08-28T11:27:40Z</time>
      </trkpt>
      <trkpt lat="57.335244985297322" lon="-4.480744991451502">
        <ele>54.93</ele>
        <time>2023-08-28T11:42:09Z</time>
      </trkpt>
      <trkpt lat="57.335210032761097" lon="-4.480772987008095">
        <ele>49.649999999999999</ele>
        <time>2023-08-28T11:42:14Z</time>
      </trkpt>
      <trkpt lat="57.335236016660929" lon="-4.481008015573025">
        <ele>36.189999999999998</ele>
        <time>2023-08-28T11:42:17Z</time>
      </trkpt>
      <trkpt lat="57.335243979468942" lon="-4.481022013351321">
        <ele>37.630000000000003</ele>
        <time>2023-08-28T11:42:18Z</time>
      </trkpt>
      <trkpt lat="57.335264012217522" lon="-4.481053026393056">
        <ele>35.229999999999997</ele>
        <time>2023-08-28T11:42:19Z</time>
      </trkpt>
      <trkpt lat="57.335351016372442" lon="-4.480619011446834">
        <ele>35.229999999999997</ele>
        <time>2023-08-28T11:42:20Z</time>
      </trkpt>
      <trkpt lat="57.335351016372442" lon="-4.480619011446834">
        <ele>34.740000000000002</ele>
        <time>2023-08-28T11:42:21Z</time>
      </trkpt>
      <trkpt lat="57.335343975573778" lon="-4.480798970907927">
        <ele>34.259999999999998</ele>
        <time>2023-08-28T11:42:22Z</time>
      </trkpt>
      <trkpt lat="57.33534699305892" lon="-4.480725964531303">
        <ele>33.299999999999997</ele>
        <time>2023-08-28T11:42:23Z</time>
      </trkpt>
      <trkpt lat="57.335350010544062" lon="-4.480647007003427">
        <ele>33.299999999999997</ele>
        <time>2023-08-28T11:42:24Z</time>
      </trkpt>
      <trkpt lat="57.335358979180455" lon="-4.480564026162028">
        <ele>33.299999999999997</ele>
        <time>2023-08-28T11:42:25Z</time>
      </trkpt>
      <trkpt lat="57.335404995828867" lon="-4.480252973735333">
        <ele>33.780000000000001</ele>
        <time>2023-08-28T11:42:29Z</time>
      </trkpt>
      <trkpt lat="57.335436008870602" lon="-4.480120958760381">
        <ele>33.299999999999997</ele>
        <time>2023-08-28T11:42:36Z</time>
      </trkpt>
      <trkpt lat="57.335458975285292" lon="-4.479928007349372">
        <ele>32.340000000000003</ele>
        <time>2023-08-28T11:42:42Z</time>
      </trkpt>
      <trkpt lat="57.335498034954071" lon="-4.479937981814146">
        <ele>31.859999999999999</ele>
        <time>2023-08-28T11:42:43Z</time>
      </trkpt>
      <trkpt lat="57.335546985268593" lon="-4.479950973764062">
        <ele>31.859999999999999</ele>
        <time>2023-08-28T11:42:44Z</time>
      </trkpt>
      <trkpt lat="57.336276965215802" lon="-4.480147026479244">
        <ele>30.420000000000002</ele>
        <time>2023-08-28T11:42:54Z</time>
      </trkpt>
      <trkpt lat="57.336795972660184" lon="-4.480302007868886">
        <ele>32.340000000000003</ele>
        <time>2023-08-28T11:43:00Z</time>
      </trkpt>
      <trkpt lat="57.336864033713937" lon="-4.480316005647183">
        <ele>32.82</ele>
        <time>2023-08-28T11:43:01Z</time>
      </trkpt>
      <trkpt lat="57.336934022605419" lon="-4.480296978726983">
        <ele>33.299999999999997</ele>
        <time>2023-08-28T11:43:02Z</time>
      </trkpt>
      <trkpt lat="57.336999988183379" lon="-4.480279041454196">
        <ele>33.780000000000001</ele>
        <time>2023-08-28T11:43:03Z</time>
      </trkpt>
      <trkpt lat="57.337060002610087" lon="-4.480263032019138">
        <ele>33.780000000000001</ele>
        <time>2023-08-28T11:43:04Z</time>
      </trkpt>
      <trkpt lat="57.337118005380034" lon="-4.480221960693598">
        <ele>34.259999999999998</ele>
        <time>2023-08-28T11:43:05Z</time>
      </trkpt>
      <trkpt lat="57.337166033685207" lon="-4.480165969580412">
        <ele>34.740000000000002</ele>
        <time>2023-08-28T11:43:06Z</time>
      </trkpt>
      <trkpt lat="57.337253959849477" lon="-4.480062033981085">
        <ele>35.710000000000001</ele>
        <time>2023-08-28T11:43:08Z</time>
      </trkpt>
      <trkpt lat="57.337299976497889" lon="-4.480007970705628">
        <ele>36.189999999999998</ele>
        <time>2023-08-28T11:43:09Z</time>
      </trkpt>
      <trkpt lat="57.3373459931463" lon="-4.479954997077584">
        <ele>36.670000000000002</ele>
        <time>2023-08-28T11:43:10Z</time>
      </trkpt>
      <trkpt lat="57.337346998974681" lon="-4.479860030114651">
        <ele>37.149999999999999</ele>
        <time>2023-08-28T11:43:11Z</time>
      </trkpt>
      <trkpt lat="57.337346998974681" lon="-4.479744024574757">
        <ele>37.630000000000003</ele>
        <time>2023-08-28T11:43:12Z</time>
      </trkpt>
      <trkpt lat="57.33734498731792" lon="-4.479618966579437">
        <ele>38.109999999999999</ele>
        <time>2023-08-28T11:43:13Z</time>
      </trkpt>
      <trkpt lat="57.33732596039772" lon="-4.479476977139711">
        <ele>38.109999999999999</ele>
        <time>2023-08-28T11:43:14Z</time>
      </trkpt>
      <trkpt lat="57.337147006765008" lon="-4.477815013378859">
        <ele>40.509999999999998</ele>
        <time>2023-08-28T11:43:25Z</time>
      </trkpt>
      <trkpt lat="57.3370869923383" lon="-4.475788017734885">
        <ele>41.469999999999999</ele>
        <time>2023-08-28T11:43:35Z</time>
      </trkpt>
      <trkpt lat="57.337180031463504" lon="-4.472737004980445">
        <ele>40.990000000000002</ele>
        <time>2023-08-28T11:43:45Z</time>
      </trkpt>
      <trkpt lat="57.337313974276185" lon="-4.469552971422672">
        <ele>36.189999999999998</ele>
        <time>2023-08-28T11:43:54Z</time>
      </trkpt>
      <trkpt lat="57.337346998974681" lon="-4.466118989512324">
        <ele>36.670000000000002</ele>
        <time>2023-08-28T11:44:04Z</time>
      </trkpt>
      <trkpt lat="57.337225964292884" lon="-4.462648965418339">
        <ele>32.82</ele>
        <time>2023-08-28T11:44:14Z</time>
      </trkpt>
      <trkpt lat="57.337198974564672" lon="-4.462292985990644">
        <ele>32.340000000000003</ele>
        <time>2023-08-28T11:44:15Z</time>
      </trkpt>
      <trkpt lat="57.337149018421769" lon="-4.461939018219709">
        <ele>31.859999999999999</ele>
        <time>2023-08-28T11:44:16Z</time>
      </trkpt>
      <trkpt lat="57.337095038965344" lon="-4.461584966629744">
        <ele>31.379999999999999</ele>
        <time>2023-08-28T11:44:17Z</time>
      </trkpt>
      <trkpt lat="57.336577959358692" lon="-4.45813899859786">
        <ele>27.530000000000001</ele>
        <time>2023-08-28T11:44:27Z</time>
      </trkpt>
      <trkpt lat="57.336626993492246" lon="-4.454906014725566">
        <ele>28.02</ele>
        <time>2023-08-28T11:44:36Z</time>
      </trkpt>
      <trkpt lat="57.336607966572046" lon="-4.45418500341475">
        <ele>28.02</ele>
        <time>2023-08-28T11:44:38Z</time>
      </trkpt>
      <trkpt lat="57.336475029587746" lon="-4.451999003067613">
        <ele>27.050000000000001</ele>
        <time>2023-08-28T11:44:44Z</time>
      </trkpt>
      <trkpt lat="57.336482992395759" lon="-4.451286038383842">
        <ele>27.050000000000001</ele>
        <time>2023-08-28T11:44:46Z</time>
      </trkpt>
      <trkpt lat="57.336500007659197" lon="-4.450941039249301">
        <ele>26.57</ele>
        <time>2023-08-28T11:44:47Z</time>
      </trkpt>
      <trkpt lat="57.336682984605432" lon="-4.448865009471774">
        <ele>25.129999999999999</ele>
        <time>2023-08-28T11:44:53Z</time>
      </trkpt>
      <trkpt lat="57.336817011237144" lon="-4.445596989244223">
        <ele>23.690000000000001</ele>
        <time>2023-08-28T11:45:02Z</time>
      </trkpt>
      <trkpt lat="57.337101995944977" lon="-4.442748986184597">
        <ele>24.170000000000002</ele>
        <time>2023-08-28T11:45:10Z</time>
      </trkpt>
      <trkpt lat="57.337442971765995" lon="-4.439791012555361">
        <ele>25.129999999999999</ele>
        <time>2023-08-28T11:45:18Z</time>
      </trkpt>
      <trkpt lat="57.338027022778988" lon="-4.436763972043991">
        <ele>25.129999999999999</ele>
        <time>2023-08-28T11:45:26Z</time>
      </trkpt>
      <trkpt lat="57.338983984664083" lon="-4.433474997058511">
        <ele>24.649999999999999</ele>
        <time>2023-08-28T11:45:35Z</time>
      </trkpt>
      <trkpt lat="57.339854026213288" lon="-4.430662030354142">
        <ele>25.129999999999999</ele>
        <time>2023-08-28T11:45:43Z</time>
      </trkpt>
      <trkpt lat="57.340979967266321" lon="-4.42711103707552">
        <ele>26.09</ele>
        <time>2023-08-28T11:45:53Z</time>
      </trkpt>
      <trkpt lat="57.341609029099345" lon="-4.425613023340702">
        <ele>25.609999999999999</ele>
        <time>2023-08-28T11:45:58Z</time>
      </trkpt>
      <trkpt lat="57.341763004660606" lon="-4.425411019474268">
        <ele>25.609999999999999</ele>
        <time>2023-08-28T11:45:59Z</time>
      </trkpt>
      <trkpt lat="57.341925026848912" lon="-4.425197029486299">
        <ele>26.09</ele>
        <time>2023-08-28T11:46:00Z</time>
      </trkpt>
      <trkpt lat="57.34291099011898" lon="-4.423956004902721">
        <ele>27.050000000000001</ele>
        <time>2023-08-28T11:46:06Z</time>
      </trkpt>
      <trkpt lat="57.343192035332322" lon="-4.423473961651325">
        <ele>28.02</ele>
        <time>2023-08-28T11:46:08Z</time>
      </trkpt>
      <trkpt lat="57.343298988416791" lon="-4.423166010528803">
        <ele>28.02</ele>
        <time>2023-08-28T11:46:09Z</time>
      </trkpt>
      <trkpt lat="57.343394039198756" lon="-4.422846995294094">
        <ele>28.5</ele>
        <time>2023-08-28T11:46:10Z</time>
      </trkpt>
      <trkpt lat="57.34349001199007" lon="-4.422522028908134">
        <ele>29.460000000000001</ele>
        <time>2023-08-28T11:46:11Z</time>
      </trkpt>
      <trkpt lat="57.343603000044823" lon="-4.422231009230018">
        <ele>30.420000000000002</ele>
        <time>2023-08-28T11:46:12Z</time>
      </trkpt>
      <trkpt lat="57.343720011413097" lon="-4.421947030350566">
        <ele>31.379999999999999</ele>
        <time>2023-08-28T11:46:13Z</time>
      </trkpt>
      <trkpt lat="57.343842973932624" lon="-4.42167503759265">
        <ele>32.340000000000003</ele>
        <time>2023-08-28T11:46:14Z</time>
      </trkpt>
      <trkpt lat="57.343981023877859" lon="-4.421434979885817">
        <ele>33.299999999999997</ele>
        <time>2023-08-28T11:46:15Z</time>
      </trkpt>
      <trkpt lat="57.344385031610727" lon="-4.420746993273497">
        <ele>36.670000000000002</ele>
        <time>2023-08-28T11:46:18Z</time>
      </trkpt>
      <trkpt lat="57.34559303149581" lon="-4.419269012287259">
        <ele>44.840000000000003</ele>
        <time>2023-08-28T11:46:25Z</time>
      </trkpt>
      <trkpt lat="57.346924999728799" lon="-4.417191976681352">
        <ele>52.530000000000001</ele>
        <time>2023-08-28T11:46:34Z</time>
      </trkpt>
      <trkpt lat="57.347530005499721" lon="-4.415623974055052">
        <ele>53.490000000000002</ele>
        <time>2023-08-28T11:46:40Z</time>
      </trkpt>
      <trkpt lat="57.347643999382854" lon="-4.41540302708745">
        <ele>53.490000000000002</ele>
        <time>2023-08-28T11:46:41Z</time>
      </trkpt>
      <trkpt lat="57.347779031842947" lon="-4.415201023221016">
        <ele>53.490000000000002</ele>
        <time>2023-08-28T11:46:42Z</time>
      </trkpt>
      <trkpt lat="57.347922027111053" lon="-4.415013017132878">
        <ele>53.490000000000002</ele>
        <time>2023-08-28T11:46:43Z</time>
      </trkpt>
      <trkpt lat="57.348077008500695" lon="-4.414830040186644">
        <ele>53.009999999999998</ele>
        <time>2023-08-28T11:46:44Z</time>
      </trkpt>
      <trkpt lat="57.348228972405195" lon="-4.41465200856328">
        <ele>53.009999999999998</ele>
        <time>2023-08-28T11:46:45Z</time>
      </trkpt>
      <trkpt lat="57.348376996815205" lon="-4.41447900608182">
        <ele>52.530000000000001</ele>
        <time>2023-08-28T11:46:46Z</time>
      </trkpt>
      <trkpt lat="57.348514962941408" lon="-4.414267027750611">
        <ele>52.049999999999997</ele>
        <time>2023-08-28T11:46:47Z</time>
      </trkpt>
      <trkpt lat="57.348634991794825" lon="-4.414013978093863">
        <ele>52.049999999999997</ele>
        <time>2023-08-28T11:46:48Z</time>
      </trkpt>
      <trkpt lat="57.349239997565746" lon="-4.41273900680244">
        <ele>50.130000000000003</ele>
        <time>2023-08-28T11:46:53Z</time>
      </trkpt>
      <trkpt lat="57.349539985880256" lon="-4.41235302016139">
        <ele>49.159999999999997</ele>
        <time>2023-08-28T11:46:55Z</time>
      </trkpt>
      <trkpt lat="57.350671039894223" lon="-4.410932036116719">
        <ele>45.799999999999997</ele>
        <time>2023-08-28T11:47:03Z</time>
      </trkpt>
      <trkpt lat="57.350778998807073" lon="-4.410756016150117">
        <ele>45.32</ele>
        <time>2023-08-28T11:47:04Z</time>
      </trkpt>
      <trkpt lat="57.350885029882193" lon="-4.410572033375502">
        <ele>45.799999999999997</ele>
        <time>2023-08-28T11:47:05Z</time>
      </trkpt>
      <trkpt lat="57.350972034037113" lon="-4.410353014245629">
        <ele>45.799999999999997</ele>
        <time>2023-08-28T11:47:06Z</time>
      </trkpt>
      <trkpt lat="57.351044034585357" lon="-4.410104993730784">
        <ele>45.799999999999997</ele>
        <time>2023-08-28T11:47:07Z</time>
      </trkpt>
      <trkpt lat="57.35111796297133" lon="-4.409854039549828">
        <ele>45.799999999999997</ele>
        <time>2023-08-28T11:47:08Z</time>
      </trkpt>
      <trkpt lat="57.351191975176334" lon="-4.409601995721459">
        <ele>45.799999999999997</ele>
        <time>2023-08-28T11:47:09Z</time>
      </trkpt>
      <trkpt lat="57.351264981552958" lon="-4.409355986863375">
        <ele>46.280000000000001</ele>
        <time>2023-08-28T11:47:10Z</time>
      </trkpt>
      <trkpt lat="57.351332036778331" lon="-4.409125987440348">
        <ele>45.799999999999997</ele>
        <time>2023-08-28T11:47:11Z</time>
      </trkpt>
      <trkpt lat="57.351427003741264" lon="-4.408954996615648">
        <ele>45.799999999999997</ele>
        <time>2023-08-28T11:47:12Z</time>
      </trkpt>
      <trkpt lat="57.35154896043241" lon="-4.408812001347542">
        <ele>45.799999999999997</ele>
        <time>2023-08-28T11:47:13Z</time>
      </trkpt>
      <trkpt lat="57.35167502425611" lon="-4.408661965280771">
        <ele>45.799999999999997</ele>
        <time>2023-08-28T11:47:14Z</time>
      </trkpt>
      <trkpt lat="57.353035993874073" lon="-4.406842002645135">
        <ele>47.240000000000002</ele>
        <time>2023-08-28T11:47:24Z</time>
      </trkpt>
      <trkpt lat="57.354247011244297" lon="-4.405485978350043">
        <ele>48.200000000000003</ele>
        <time>2023-08-28T11:47:32Z</time>
      </trkpt>
      <trkpt lat="57.355248983949423" lon="-4.404159961268306">
        <ele>49.649999999999999</ele>
        <time>2023-08-28T11:47:39Z</time>
      </trkpt>
      <trkpt lat="57.356783039867878" lon="-4.401855021715164">
        <ele>50.609999999999999</ele>
        <time>2023-08-28T11:47:50Z</time>
      </trkpt>
      <trkpt lat="57.358063040301204" lon="-4.400164978578687">
        <ele>46.280000000000001</ele>
        <time>2023-08-28T11:47:59Z</time>
      </trkpt>
      <trkpt lat="57.359489975497127" lon="-4.398565962910652">
        <ele>36.670000000000002</ele>
        <time>2023-08-28T11:48:09Z</time>
      </trkpt>
      <trkpt lat="57.360317017883062" lon="-4.397299960255623">
        <ele>30.420000000000002</ele>
        <time>2023-08-28T11:48:16Z</time>
      </trkpt>
      <trkpt lat="57.3606569878757" lon="-4.396620020270348">
        <ele>28.98</ele>
        <time>2023-08-28T11:48:19Z</time>
      </trkpt>
      <trkpt lat="57.360793026164174" lon="-4.396423967555165">
        <ele>28.5</ele>
        <time>2023-08-28T11:48:20Z</time>
      </trkpt>
      <trkpt lat="57.361975964158773" lon="-4.39503500238061">
        <ele>27.530000000000001</ele>
        <time>2023-08-28T11:48:28Z</time>
      </trkpt>
      <trkpt lat="57.363270968198776" lon="-4.393856003880501">
        <ele>28.5</ele>
        <time>2023-08-28T11:48:37Z</time>
      </trkpt>
      <trkpt lat="57.364347958937287" lon="-4.392755962908268">
        <ele>27.050000000000001</ele>
        <time>2023-08-28T11:48:47Z</time>
      </trkpt>
      <trkpt lat="57.365144994109869" lon="-4.39194199629128">
        <ele>26.57</ele>
        <time>2023-08-28T11:48:56Z</time>
      </trkpt>
      <trkpt lat="57.366302032023668" lon="-4.390735002234578">
        <ele>27.050000000000001</ele>
        <time>2023-08-28T11:49:04Z</time>
      </trkpt>
      <trkpt lat="57.367200991138816" lon="-4.389823973178864">
        <ele>27.050000000000001</ele>
        <time>2023-08-28T11:49:10Z</time>
      </trkpt>
      <trkpt lat="57.368613006547093" lon="-4.388837004080415">
        <ele>26.57</ele>
        <time>2023-08-28T11:49:18Z</time>
      </trkpt>
      <trkpt lat="57.370286034420133" lon="-4.387003965675831">
        <ele>28.98</ele>
        <time>2023-08-28T11:49:28Z</time>
      </trkpt>
      <trkpt lat="57.372525008395314" lon="-4.38517302274704">
        <ele>32.340000000000003</ele>
        <time>2023-08-28T11:49:40Z</time>
      </trkpt>
      <trkpt lat="57.374856015667319" lon="-4.383475016802549">
        <ele>34.740000000000002</ele>
        <time>2023-08-28T11:49:52Z</time>
      </trkpt>
      <trkpt lat="57.376298038288951" lon="-4.382118992507458">
        <ele>35.710000000000001</ele>
        <time>2023-08-28T11:50:00Z</time>
      </trkpt>
      <trkpt lat="57.378157982602715" lon="-4.379682037979364">
        <ele>34.259999999999998</ele>
        <time>2023-08-28T11:50:12Z</time>
      </trkpt>
      <trkpt lat="57.379433959722519" lon="-4.377842964604497">
        <ele>32.340000000000003</ele>
        <time>2023-08-28T11:50:21Z</time>
      </trkpt>
      <trkpt lat="57.3795420024544" lon="-4.377584969624877">
        <ele>32.340000000000003</ele>
        <time>2023-08-28T11:50:22Z</time>
      </trkpt>
      <trkpt lat="57.379893036559224" lon="-4.376839986070991">
        <ele>31.379999999999999</ele>
        <time>2023-08-28T11:50:25Z</time>
      </trkpt>
      <trkpt lat="57.380027985200286" lon="-4.376617027446628">
        <ele>30.899999999999999</ele>
        <time>2023-08-28T11:50:26Z</time>
      </trkpt>
      <trkpt lat="57.380176009610295" lon="-4.376443019136787">
        <ele>30.899999999999999</ele>
        <time>2023-08-28T11:50:27Z</time>
      </trkpt>
      <trkpt lat="57.38033602014184" lon="-4.376283008605242">
        <ele>30.899999999999999</ele>
        <time>2023-08-28T11:50:28Z</time>
      </trkpt>
      <trkpt lat="57.380503993481398" lon="-4.376164991408587">
        <ele>31.379999999999999</ele>
        <time>2023-08-28T11:50:29Z</time>
      </trkpt>
      <trkpt lat="57.380684036761522" lon="-4.37606499530375">
        <ele>31.859999999999999</ele>
        <time>2023-08-28T11:50:30Z</time>
      </trkpt>
      <trkpt lat="57.381913997232914" lon="-4.375328980386257">
        <ele>35.710000000000001</ele>
        <time>2023-08-28T11:50:37Z</time>
      </trkpt>
      <trkpt lat="57.383267004042864" lon="-4.373987959697843">
        <ele>38.109999999999999</ele>
        <time>2023-08-28T11:50:45Z</time>
      </trkpt>
      <trkpt lat="57.38532199524343" lon="-4.371297033503652">
        <ele>37.149999999999999</ele>
        <time>2023-08-28T11:50:58Z</time>
      </trkpt>
      <trkpt lat="57.387241031974554" lon="-4.369101980701089">
        <ele>35.710000000000001</ele>
        <time>2023-08-28T11:51:09Z</time>
      </trkpt>
      <trkpt lat="57.389728026464581" lon="-4.366634013131261">
        <ele>42.439999999999998</ele>
        <time>2023-08-28T11:51:23Z</time>
      </trkpt>
      <trkpt lat="57.391098970547318" lon="-4.364870963618159">
        <ele>41.950000000000003</ele>
        <time>2023-08-28T11:51:32Z</time>
      </trkpt>
      <trkpt lat="57.391620995476842" lon="-4.364254977554083">
        <ele>40.030000000000001</ele>
        <time>2023-08-28T11:51:38Z</time>
      </trkpt>
      <trkpt lat="57.392019974067807" lon="-4.363782992586494">
        <ele>38.109999999999999</ele>
        <time>2023-08-28T11:51:47Z</time>
      </trkpt>
      <trkpt lat="57.392037995159626" lon="-4.363762037828565">
        <ele>37.630000000000003</ele>
        <time>2023-08-28T11:51:57Z</time>
      </trkpt>
      <trkpt lat="57.392037995159626" lon="-4.363548969849944">
        <ele>37.630000000000003</ele>
        <time>2023-08-28T11:55:46Z</time>
      </trkpt>
      <trkpt lat="57.392033971846104" lon="-4.363575959578157">
        <ele>36.189999999999998</ele>
        <time>2023-08-28T11:56:23Z</time>
      </trkpt>
      <trkpt lat="57.392060039564967" lon="-4.363571014255285">
        <ele>39.549999999999997</ele>
        <time>2023-08-28T11:57:02Z</time>
      </trkpt>
      <trkpt lat="57.392148971557617" lon="-4.363631028681994">
        <ele>38.590000000000003</ele>
        <time>2023-08-28T11:57:05Z</time>
      </trkpt>
      <trkpt lat="57.39219599403441" lon="-4.363575959578157">
        <ele>38.590000000000003</ele>
        <time>2023-08-28T11:57:06Z</time>
      </trkpt>
      <trkpt lat="57.392257014289498" lon="-4.363503959029913">
        <ele>38.109999999999999</ele>
        <time>2023-08-28T11:57:07Z</time>
      </trkpt>
      <trkpt lat="57.392923962324858" lon="-4.362621009349823">
        <ele>36.670000000000002</ele>
        <time>2023-08-28T11:57:13Z</time>
      </trkpt>
      <trkpt lat="57.394125005230308" lon="-4.361168006435037">
        <ele>33.780000000000001</ele>
        <time>2023-08-28T11:57:21Z</time>
      </trkpt>
      <trkpt lat="57.395396959036589" lon="-4.359594974666834">
        <ele>31.859999999999999</ele>
        <time>2023-08-28T11:57:30Z</time>
      </trkpt>
      <trkpt lat="57.397064035758376" lon="-4.356900025159121">
        <ele>28.98</ele>
        <time>2023-08-28T11:57:42Z</time>
      </trkpt>
      <trkpt lat="57.398574035614729" lon="-4.354286966845393">
        <ele>25.609999999999999</ele>
        <time>2023-08-28T11:57:53Z</time>
      </trkpt>
      <trkpt lat="57.400488965213299" lon="-4.351374004036188">
        <ele>25.129999999999999</ele>
        <time>2023-08-28T11:58:05Z</time>
      </trkpt>
      <trkpt lat="57.402055040001869" lon="-4.348590038716793">
        <ele>25.129999999999999</ele>
        <time>2023-08-28T11:58:15Z</time>
      </trkpt>
      <trkpt lat="57.403336968272924" lon="-4.346182001754642">
        <ele>25.129999999999999</ele>
        <time>2023-08-28T11:58:24Z</time>
      </trkpt>
      <trkpt lat="57.404417982324958" lon="-4.344068001955748">
        <ele>27.530000000000001</ele>
        <time>2023-08-28T11:58:32Z</time>
      </trkpt>
      <trkpt lat="57.405713992193341" lon="-4.342122981324792">
        <ele>27.530000000000001</ele>
        <time>2023-08-28T11:58:40Z</time>
      </trkpt>
      <trkpt lat="57.405893029645085" lon="-4.341934975236654">
        <ele>28.02</ele>
        <time>2023-08-28T11:58:41Z</time>
      </trkpt>
      <trkpt lat="57.407372016459703" lon="-4.340188018977642">
        <ele>35.229999999999997</ele>
        <time>2023-08-28T11:58:50Z</time>
      </trkpt>
      <trkpt lat="57.408195035532117" lon="-4.339317977428436">
        <ele>39.549999999999997</ele>
        <time>2023-08-28T11:58:55Z</time>
      </trkpt>
      <trkpt lat="57.409609984606504" lon="-4.338035965338349">
        <ele>40.990000000000002</ele>
        <time>2023-08-28T11:59:03Z</time>
      </trkpt>
      <trkpt lat="57.411451991647482" lon="-4.336357992142439">
        <ele>39.549999999999997</ele>
        <time>2023-08-28T11:59:13Z</time>
      </trkpt>
      <trkpt lat="57.412943970412016" lon="-4.334797030314803">
        <ele>41.950000000000003</ele>
        <time>2023-08-28T11:59:21Z</time>
      </trkpt>
      <trkpt lat="57.413323000073433" lon="-4.334393022581935">
        <ele>42.439999999999998</ele>
        <time>2023-08-28T11:59:23Z</time>
      </trkpt>
      <trkpt lat="57.413484016433358" lon="-4.334140978753567">
        <ele>42.920000000000002</ele>
        <time>2023-08-28T11:59:24Z</time>
      </trkpt>
      <trkpt lat="57.413635980337858" lon="-4.333873009309173">
        <ele>42.439999999999998</ele>
        <time>2023-08-28T11:59:25Z</time>
      </trkpt>
      <trkpt lat="57.414755970239639" lon="-4.331530015915632">
        <ele>43.399999999999999</ele>
        <time>2023-08-28T11:59:33Z</time>
      </trkpt>
      <trkpt lat="57.415841007605195" lon="-4.329318031668663">
        <ele>42.439999999999998</ele>
        <time>2023-08-28T11:59:41Z</time>
      </trkpt>
      <trkpt lat="57.416316010057926" lon="-4.328669020906091">
        <ele>41.469999999999999</ele>
        <time>2023-08-28T11:59:44Z</time>
      </trkpt>
      <trkpt lat="57.416502004489303" lon="-4.328528959304094">
        <ele>40.990000000000002</ele>
        <time>2023-08-28T11:59:45Z</time>
      </trkpt>
      <trkpt lat="57.416695039719343" lon="-4.328384958207607">
        <ele>40.030000000000001</ele>
        <time>2023-08-28T11:59:46Z</time>
      </trkpt>
      <trkpt lat="57.418271005153656" lon="-4.327493961900473">
        <ele>34.740000000000002</ele>
        <time>2023-08-28T11:59:54Z</time>
      </trkpt>
      <trkpt lat="57.419343972578645" lon="-4.32649701833725">
        <ele>32.82</ele>
        <time>2023-08-28T12:00:00Z</time>
      </trkpt>
      <trkpt lat="57.419486967846751" lon="-4.326253021135926">
        <ele>32.340000000000003</ele>
        <time>2023-08-28T12:00:01Z</time>
      </trkpt>
      <trkpt lat="57.419613031670451" lon="-4.325963007286191">
        <ele>32.340000000000003</ele>
        <time>2023-08-28T12:00:02Z</time>
      </trkpt>
      <trkpt lat="57.419739011675119" lon="-4.325676010921598">
        <ele>31.859999999999999</ele>
        <time>2023-08-28T12:00:03Z</time>
      </trkpt>
      <trkpt lat="57.419864991679788" lon="-4.325385997071862">
        <ele>31.859999999999999</ele>
        <time>2023-08-28T12:00:04Z</time>
      </trkpt>
      <trkpt lat="57.420978024601936" lon="-4.323184993118048">
        <ele>29.460000000000001</ele>
        <time>2023-08-28T12:00:12Z</time>
      </trkpt>
      <trkpt lat="57.422041017562151" lon="-4.320773016661406">
        <ele>27.050000000000001</ele>
        <time>2023-08-28T12:00:20Z</time>
      </trkpt>
      <trkpt lat="57.42352101020515" lon="-4.31749502196908">
        <ele>26.57</ele>
        <time>2023-08-28T12:00:31Z</time>
      </trkpt>
      <trkpt lat="57.424948029220104" lon="-4.315001992508769">
        <ele>27.530000000000001</ele>
        <time>2023-08-28T12:00:40Z</time>
      </trkpt>
      <trkpt lat="57.426172960549593" lon="-4.312516003847122">
        <ele>28.5</ele>
        <time>2023-08-28T12:00:48Z</time>
      </trkpt>
      <trkpt lat="57.427393030375242" lon="-4.310523038730025">
        <ele>26.57</ele>
        <time>2023-08-28T12:00:56Z</time>
      </trkpt>
      <trkpt lat="57.428757017478347" lon="-4.309143964201212">
        <ele>25.609999999999999</ele>
        <time>2023-08-28T12:01:04Z</time>
      </trkpt>
      <trkpt lat="57.43009502068162" lon="-4.308487996459007">
        <ele>23.690000000000001</ele>
        <time>2023-08-28T12:01:11Z</time>
      </trkpt>
      <trkpt lat="57.430303981527686" lon="-4.308441979810596">
        <ele>23.690000000000001</ele>
        <time>2023-08-28T12:01:12Z</time>
      </trkpt>
      <trkpt lat="57.430519983172417" lon="-4.30842898786068">
        <ele>23.690000000000001</ele>
        <time>2023-08-28T12:01:13Z</time>
      </trkpt>
      <trkpt lat="57.431727983057499" lon="-4.308260008692741">
        <ele>23.210000000000001</ele>
        <time>2023-08-28T12:01:19Z</time>
      </trkpt>
      <trkpt lat="57.431894028559327" lon="-4.308141991496086">
        <ele>22.73</ele>
        <time>2023-08-28T12:01:20Z</time>
      </trkpt>
      <trkpt lat="57.432070970535278" lon="-4.30799899622798">
        <ele>22.25</ele>
        <time>2023-08-28T12:01:21Z</time>
      </trkpt>
      <trkpt lat="57.433487009257078" lon="-4.306299984455109">
        <ele>21.77</ele>
        <time>2023-08-28T12:01:30Z</time>
      </trkpt>
      <trkpt lat="57.433924963697791" lon="-4.305654997006059">
        <ele>22.73</ele>
        <time>2023-08-28T12:01:33Z</time>
      </trkpt>
      <trkpt lat="57.435358017683029" lon="-4.303574021905661">
        <ele>28.98</ele>
        <time>2023-08-28T12:01:42Z</time>
      </trkpt>
      <trkpt lat="57.43645797483623" lon="-4.302357975393534">
        <ele>34.740000000000002</ele>
        <time>2023-08-28T12:01:48Z</time>
      </trkpt>
      <trkpt lat="57.437522979453206" lon="-4.301305962726474">
        <ele>41.950000000000003</ele>
        <time>2023-08-28T12:01:55Z</time>
      </trkpt>
      <trkpt lat="57.437779968604445" lon="-4.300873959437013">
        <ele>44.359999999999999</ele>
        <time>2023-08-28T12:01:57Z</time>
      </trkpt>
      <trkpt lat="57.437908966094255" lon="-4.300657035782933">
        <ele>45.799999999999997</ele>
        <time>2023-08-28T12:01:58Z</time>
      </trkpt>
      <trkpt lat="57.438035029917955" lon="-4.300446985289455">
        <ele>46.759999999999998</ele>
        <time>2023-08-28T12:01:59Z</time>
      </trkpt>
      <trkpt lat="57.438162015751004" lon="-4.300238024443388">
        <ele>47.240000000000002</ele>
        <time>2023-08-28T12:02:00Z</time>
      </trkpt>
      <trkpt lat="57.438281960785389" lon="-4.300039038062096">
        <ele>47.719999999999999</ele>
        <time>2023-08-28T12:02:01Z</time>
      </trkpt>
      <trkpt lat="57.438398972153664" lon="-4.299849020317197">
        <ele>47.719999999999999</ele>
        <time>2023-08-28T12:02:02Z</time>
      </trkpt>
      <trkpt lat="57.43866803124547" lon="-4.299444006755948">
        <ele>48.200000000000003</ele>
        <time>2023-08-28T12:02:04Z</time>
      </trkpt>
      <trkpt lat="57.439267002046108" lon="-4.298732969909906">
        <ele>50.609999999999999</ele>
        <time>2023-08-28T12:02:08Z</time>
      </trkpt>
      <trkpt lat="57.440697038546205" lon="-4.297684980556369">
        <ele>57.340000000000003</ele>
        <time>2023-08-28T12:02:17Z</time>
      </trkpt>
      <trkpt lat="57.442154986783862" lon="-4.296426018700004">
        <ele>64.069999999999993</ele>
        <time>2023-08-28T12:02:26Z</time>
      </trkpt>
      <trkpt lat="57.444053990766406" lon="-4.294771011918783">
        <ele>73.680000000000007</ele>
        <time>2023-08-28T12:02:38Z</time>
      </trkpt>
      <trkpt lat="57.444208972156048" lon="-4.294632961973548">
        <ele>74.640000000000001</ele>
        <time>2023-08-28T12:02:39Z</time>
      </trkpt>
      <trkpt lat="57.444493034854531" lon="-4.294258961454034">
        <ele>76.560000000000002</ele>
        <time>2023-08-28T12:02:41Z</time>
      </trkpt>
      <trkpt lat="57.445729030296206" lon="-4.291948992758989">
        <ele>83.769999999999996</ele>
        <time>2023-08-28T12:02:51Z</time>
      </trkpt>
      <trkpt lat="57.447268031537533" lon="-4.288982972502708">
        <ele>82.810000000000002</ele>
        <time>2023-08-28T12:03:03Z</time>
      </trkpt>
      <trkpt lat="57.44866001419723" lon="-4.286263966932893">
        <ele>80.409999999999997</ele>
        <time>2023-08-28T12:03:14Z</time>
      </trkpt>
      <trkpt lat="57.450867975130677" lon="-4.282016018405557">
        <ele>72.719999999999999</ele>
        <time>2023-08-28T12:03:30Z</time>
      </trkpt>
      <trkpt lat="57.452921038493514" lon="-4.278079960495234">
        <ele>72.719999999999999</ele>
        <time>2023-08-28T12:03:45Z</time>
      </trkpt>
      <trkpt lat="57.454585013911128" lon="-4.27555600181222">
        <ele>74.640000000000001</ele>
        <time>2023-08-28T12:03:56Z</time>
      </trkpt>
      <trkpt lat="57.456239014863968" lon="-4.273119969293475">
        <ele>74.159999999999997</ele>
        <time>2023-08-28T12:04:07Z</time>
      </trkpt>
      <trkpt lat="57.45751298032701" lon="-4.27018404006958">
        <ele>72.719999999999999</ele>
        <time>2023-08-28T12:04:17Z</time>
      </trkpt>
      <trkpt lat="57.457819003611803" lon="-4.269246021285653">
        <ele>71.269999999999996</ele>
        <time>2023-08-28T12:04:20Z</time>
      </trkpt>
      <trkpt lat="57.457923023030162" lon="-4.268927006050944">
        <ele>70.310000000000002</ele>
        <time>2023-08-28T12:04:21Z</time>
      </trkpt>
      <trkpt lat="57.458708994090557" lon="-4.265356985852122">
        <ele>63.100000000000001</ele>
        <time>2023-08-28T12:04:31Z</time>
      </trkpt>
      <trkpt lat="57.459066985175014" lon="-4.26247101277113">
        <ele>58.299999999999997</ele>
        <time>2023-08-28T12:04:39Z</time>
      </trkpt>
      <trkpt lat="57.459339983761311" lon="-4.261070983484387">
        <ele>56.859999999999999</ele>
        <time>2023-08-28T12:04:43Z</time>
      </trkpt>
      <trkpt lat="57.460204996168613" lon="-4.258689014241099">
        <ele>52.530000000000001</ele>
        <time>2023-08-28T12:04:51Z</time>
      </trkpt>
      <trkpt lat="57.461448032408953" lon="-4.256892018020153">
        <ele>46.759999999999998</ele>
        <time>2023-08-28T12:04:59Z</time>
      </trkpt>
      <trkpt lat="57.462365012615919" lon="-4.255691980943084">
        <ele>42.439999999999998</ele>
        <time>2023-08-28T12:05:05Z</time>
      </trkpt>
      <trkpt lat="57.462493004277349" lon="-4.255462987348437">
        <ele>41.469999999999999</ele>
        <time>2023-08-28T12:05:06Z</time>
      </trkpt>
      <trkpt lat="57.463068002834916" lon="-4.253612011671066">
        <ele>36.670000000000002</ele>
        <time>2023-08-28T12:05:13Z</time>
      </trkpt>
      <trkpt lat="57.463247962296009" lon="-4.251683000475168">
        <ele>32.82</ele>
        <time>2023-08-28T12:05:20Z</time>
      </trkpt>
      <trkpt lat="57.463462958112359" lon="-4.24970998428762">
        <ele>27.050000000000001</ele>
        <time>2023-08-28T12:05:29Z</time>
      </trkpt>
      <trkpt lat="57.463721036911011" lon="-4.247762029990554">
        <ele>23.690000000000001</ele>
        <time>2023-08-28T12:05:39Z</time>
      </trkpt>
      <trkpt lat="57.463737968355417" lon="-4.247639989480376">
        <ele>23.690000000000001</ele>
        <time>2023-08-28T12:05:40Z</time>
      </trkpt>
      <trkpt lat="57.463904013857245" lon="-4.247524989768863">
        <ele>23.210000000000001</ele>
        <time>2023-08-28T12:05:41Z</time>
      </trkpt>
      <trkpt lat="57.463909965008497" lon="-4.247515015304089">
        <ele>23.210000000000001</ele>
        <time>2023-08-28T12:05:42Z</time>
      </trkpt>
      <trkpt lat="57.463976014405489" lon="-4.247417030856013">
        <ele>23.210000000000001</ele>
        <time>2023-08-28T12:05:43Z</time>
      </trkpt>
      <trkpt lat="57.464037034660578" lon="-4.247272023931146">
        <ele>23.210000000000001</ele>
        <time>2023-08-28T12:05:44Z</time>
      </trkpt>
      <trkpt lat="57.464049020782113" lon="-4.247118970379233">
        <ele>22.73</ele>
        <time>2023-08-28T12:05:45Z</time>
      </trkpt>
      <trkpt lat="57.464053966104984" lon="-4.247053004801273">
        <ele>22.73</ele>
        <time>2023-08-28T12:05:46Z</time>
      </trkpt>
      <trkpt lat="57.464052038267255" lon="-4.246708005666733">
        <ele>22.73</ele>
        <time>2023-08-28T12:05:47Z</time>
      </trkpt>
      <trkpt lat="57.46410702355206" lon="-4.246587976813316">
        <ele>22.73</ele>
        <time>2023-08-28T12:05:48Z</time>
      </trkpt>
      <trkpt lat="57.464159997180104" lon="-4.246472977101803">
        <ele>22.73</ele>
        <time>2023-08-28T12:05:49Z</time>
      </trkpt>
      <trkpt lat="57.464211964979768" lon="-4.246360994875431">
        <ele>22.25</ele>
        <time>2023-08-28T12:05:50Z</time>
      </trkpt>
      <trkpt lat="57.464552018791437" lon="-4.245169004425407">
        <ele>22.25</ele>
        <time>2023-08-28T12:05:59Z</time>
      </trkpt>
      <trkpt lat="57.464998019859195" lon="-4.243099009618163">
        <ele>23.210000000000001</ele>
        <time>2023-08-28T12:06:13Z</time>
      </trkpt>
      <trkpt lat="57.465013023465872" lon="-4.242968000471592">
        <ele>23.210000000000001</ele>
        <time>2023-08-28T12:06:14Z</time>
      </trkpt>
      <trkpt lat="57.465028027072549" lon="-4.242833973839879">
        <ele>22.73</ele>
        <time>2023-08-28T12:06:15Z</time>
      </trkpt>
      <trkpt lat="57.465127017349005" lon="-4.242697013542056">
        <ele>22.73</ele>
        <time>2023-08-28T12:06:16Z</time>
      </trkpt>
      <trkpt lat="57.465199017897248" lon="-4.242510013282299">
        <ele>21.77</ele>
        <time>2023-08-28T12:06:18Z</time>
      </trkpt>
      <trkpt lat="57.465233970433474" lon="-4.242417979985476">
        <ele>21.289999999999999</ele>
        <time>2023-08-28T12:06:19Z</time>
      </trkpt>
      <trkpt lat="57.465199017897248" lon="-4.242252018302679">
        <ele>21.289999999999999</ele>
        <time>2023-08-28T12:06:20Z</time>
      </trkpt>
      <trkpt lat="57.465206980705261" lon="-4.242025958374143">
        <ele>21.289999999999999</ele>
        <time>2023-08-28T12:06:21Z</time>
      </trkpt>
      <trkpt lat="57.465256014838815" lon="-4.241902995854616">
        <ele>20.809999999999999</ele>
        <time>2023-08-28T12:06:22Z</time>
      </trkpt>
      <trkpt lat="57.465307982638478" lon="-4.241772992536426">
        <ele>20.32</ele>
        <time>2023-08-28T12:06:23Z</time>
      </trkpt>
      <trkpt lat="57.465361040085554" lon="-4.241639971733093">
        <ele>20.32</ele>
        <time>2023-08-28T12:06:24Z</time>
      </trkpt>
      <trkpt lat="57.465418037027121" lon="-4.241505023092032">
        <ele>19.84</ele>
        <time>2023-08-28T12:06:25Z</time>
      </trkpt>
      <trkpt lat="57.465478973463178" lon="-4.241366973146796">
        <ele>19.84</ele>
        <time>2023-08-28T12:06:26Z</time>
      </trkpt>
      <trkpt lat="57.466023964807391" lon="-4.240372963249683">
        <ele>17.920000000000002</ele>
        <time>2023-08-28T12:06:34Z</time>
      </trkpt>
      <trkpt lat="57.466199984773993" lon="-4.240165008231998">
        <ele>16.960000000000001</ele>
        <time>2023-08-28T12:06:36Z</time>
      </trkpt>
      <trkpt lat="57.467326009646058" lon="-4.239178961142898">
        <ele>14.08</ele>
        <time>2023-08-28T12:06:47Z</time>
      </trkpt>
      <trkpt lat="57.468673987314105" lon="-4.238099958747625">
        <ele>13.6</ele>
        <time>2023-08-28T12:07:00Z</time>
      </trkpt>
      <trkpt lat="57.470025988295674" lon="-4.237135034054518">
        <ele>13.6</ele>
        <time>2023-08-28T12:07:13Z</time>
      </trkpt>
      <trkpt lat="57.471499023959041" lon="-4.235976990312338">
        <ele>16</ele>
        <time>2023-08-28T12:07:27Z</time>
      </trkpt>
      <trkpt lat="57.472316008061171" lon="-4.235208034515381">
        <ele>17.440000000000001</ele>
        <time>2023-08-28T12:07:37Z</time>
      </trkpt>
      <trkpt lat="57.472998965531588" lon="-4.234644016250968">
        <ele>16.960000000000001</ele>
        <time>2023-08-28T12:07:46Z</time>
      </trkpt>
      <trkpt lat="57.473461981862783" lon="-4.234274961054325">
        <ele>16</ele>
        <time>2023-08-28T12:07:52Z</time>
      </trkpt>
      <trkpt lat="57.473535994067788" lon="-4.23421997576952">
        <ele>16</ele>
        <time>2023-08-28T12:07:53Z</time>
      </trkpt>
      <trkpt lat="57.473613023757935" lon="-4.234163984656334">
        <ele>16</ele>
        <time>2023-08-28T12:07:54Z</time>
      </trkpt>
      <trkpt lat="57.474432019516826" lon="-4.233496030792594">
        <ele>14.56</ele>
        <time>2023-08-28T12:08:05Z</time>
      </trkpt>
      <trkpt lat="57.474910961464047" lon="-4.233064027503133">
        <ele>13.119999999999999</ele>
        <time>2023-08-28T12:08:11Z</time>
      </trkpt>
      <trkpt lat="57.474962007254362" lon="-4.232961013913155">
        <ele>13.119999999999999</ele>
        <time>2023-08-28T12:08:12Z</time>
      </trkpt>
      <trkpt lat="57.475126041099429" lon="-4.232635041698813">
        <ele>10.710000000000001</ele>
        <time>2023-08-28T12:08:19Z</time>
      </trkpt>
      <trkpt lat="57.47515101917088" lon="-4.232583995908499">
        <ele>10.23</ele>
        <time>2023-08-28T12:08:28Z</time>
      </trkpt>
      <trkpt lat="57.475157976150513" lon="-4.232569998130202">
        <ele>10.23</ele>
        <time>2023-08-28T12:08:51Z</time>
      </trkpt>
      <trkpt lat="57.475360985845327" lon="-4.232139000669122">
        <ele>9.75</ele>
        <time>2023-08-28T12:08:57Z</time>
      </trkpt>
      <trkpt lat="57.475484032183886" lon="-4.231864996254444">
        <ele>9.75</ele>
        <time>2023-08-28T12:09:01Z</time>
      </trkpt>
      <trkpt lat="57.475513033568859" lon="-4.231798024848104">
        <ele>10.23</ele>
        <time>2023-08-28T12:09:02Z</time>
      </trkpt>
      <trkpt lat="57.475545974448323" lon="-4.23172602429986">
        <ele>10.23</ele>
        <time>2023-08-28T12:09:03Z</time>
      </trkpt>
      <trkpt lat="57.4755800049752" lon="-4.231648994609714">
        <ele>10.23</ele>
        <time>2023-08-28T12:09:04Z</time>
      </trkpt>
      <trkpt lat="57.475614035502076" lon="-4.231573976576328">
        <ele>10.23</ele>
        <time>2023-08-28T12:09:05Z</time>
      </trkpt>
      <trkpt lat="57.475703973323107" lon="-4.23138395883143">
        <ele>10.23</ele>
        <time>2023-08-28T12:09:13Z</time>
      </trkpt>
      <trkpt lat="57.475703973323107" lon="-4.23138395883143">
        <ele>9.75</ele>
        <time>2023-08-28T12:09:46Z</time>
      </trkpt>
      <trkpt lat="57.47575300745666" lon="-4.231281029060483">
        <ele>8.310000000000001</ele>
        <time>2023-08-28T12:10:24Z</time>
      </trkpt>
      <trkpt lat="57.475959034636617" lon="-4.230849025771022">
        <ele>7.35</ele>
        <time>2023-08-28T12:10:29Z</time>
      </trkpt>
      <trkpt lat="57.475979989394546" lon="-4.230805020779371">
        <ele>7.35</ele>
        <time>2023-08-28T12:10:30Z</time>
      </trkpt>
      <trkpt lat="57.476075040176511" lon="-4.230704018846154">
        <ele>6.87</ele>
        <time>2023-08-28T12:10:31Z</time>
      </trkpt>
      <trkpt lat="57.476104041561484" lon="-4.230752969160676">
        <ele>6.87</ele>
        <time>2023-08-28T12:10:32Z</time>
      </trkpt>
      <trkpt lat="57.47613899409771" lon="-4.230811977759004">
        <ele>6.87</ele>
        <time>2023-08-28T12:10:33Z</time>
      </trkpt>
      <trkpt lat="57.476178975775838" lon="-4.230880960822105">
        <ele>6.87</ele>
        <time>2023-08-28T12:10:34Z</time>
      </trkpt>
      <trkpt lat="57.47622599825263" lon="-4.230960002169013">
        <ele>6.87</ele>
        <time>2023-08-28T12:10:35Z</time>
      </trkpt>
      <trkpt lat="57.476810971274972" lon="-4.23192098736763">
        <ele>7.35</ele>
        <time>2023-08-28T12:10:45Z</time>
      </trkpt>
      <trkpt lat="57.477268036454916" lon="-4.232720034196973">
        <ele>8.310000000000001</ele>
        <time>2023-08-28T12:10:53Z</time>
      </trkpt>
      <trkpt lat="57.477326039224863" lon="-4.232815001159906">
        <ele>8.310000000000001</ele>
        <time>2023-08-28T12:10:54Z</time>
      </trkpt>
      <trkpt lat="57.477963985875249" lon="-4.233858967199922">
        <ele>6.39</ele>
        <time>2023-08-28T12:11:03Z</time>
      </trkpt>
      <trkpt lat="57.478491961956024" lon="-4.234729008749127">
        <ele>5.91</ele>
        <time>2023-08-28T12:11:10Z</time>
      </trkpt>
      <trkpt lat="57.479343982413411" lon="-4.236166002228856">
        <ele>3.02</ele>
        <time>2023-08-28T12:11:22Z</time>
      </trkpt>
      <trkpt lat="57.479809010401368" lon="-4.236917020753026">
        <ele>3.98</ele>
        <time>2023-08-28T12:11:31Z</time>
      </trkpt>
      <trkpt lat="57.479972038418055" lon="-4.237158000469208">
        <ele>4.46</ele>
        <time>2023-08-28T12:11:36Z</time>
      </trkpt>
      <trkpt lat="57.480017971247435" lon="-4.237224971875548">
        <ele>4.46</ele>
        <time>2023-08-28T12:11:37Z</time>
      </trkpt>
      <trkpt lat="57.480061976239085" lon="-4.237289009615779">
        <ele>4.46</ele>
        <time>2023-08-28T12:11:38Z</time>
      </trkpt>
      <trkpt lat="57.480172030627728" lon="-4.237645994871855">
        <ele>4.94</ele>
        <time>2023-08-28T12:11:42Z</time>
      </trkpt>
      <trkpt lat="57.480208994820714" lon="-4.237668961286545">
        <ele>5.42</ele>
        <time>2023-08-28T12:11:43Z</time>
      </trkpt>
      <trkpt lat="57.48024302534759" lon="-4.237689999863505">
        <ele>5.42</ele>
        <time>2023-08-28T12:11:44Z</time>
      </trkpt>
      <trkpt lat="57.480262974277139" lon="-4.237685976549983">
        <ele>5.42</ele>
        <time>2023-08-28T12:11:45Z</time>
      </trkpt>
      <trkpt lat="57.480290969833732" lon="-4.237643983215094">
        <ele>5.42</ele>
        <time>2023-08-28T12:11:46Z</time>
      </trkpt>
      <trkpt lat="57.480323994532228" lon="-4.237593021243811">
        <ele>5.91</ele>
        <time>2023-08-28T12:11:47Z</time>
      </trkpt>
      <trkpt lat="57.480369005352259" lon="-4.237534012645483">
        <ele>5.91</ele>
        <time>2023-08-28T12:11:48Z</time>
      </trkpt>
      <trkpt lat="57.480617025867105" lon="-4.237165963277221">
        <ele>4.94</ele>
        <time>2023-08-28T12:11:52Z</time>
      </trkpt>
      <trkpt lat="57.4806949775666" lon="-4.237008970230818">
        <ele>3.5</ele>
        <time>2023-08-28T12:11:53Z</time>
      </trkpt>
      <trkpt lat="57.480750968679786" lon="-4.236813001334667">
        <ele>2.06</ele>
        <time>2023-08-28T12:11:54Z</time>
      </trkpt>
      <trkpt lat="57.480788016691804" lon="-4.23660303466022">
        <ele>1.1</ele>
        <time>2023-08-28T12:11:55Z</time>
      </trkpt>
      <trkpt lat="57.480826992541552" lon="-4.236385021358728">
        <ele>0.14</ele>
        <time>2023-08-28T12:11:56Z</time>
      </trkpt>
      <trkpt lat="57.48086798004806" lon="-4.236158039420843">
        <ele>-0.82</ele>
        <time>2023-08-28T12:11:57Z</time>
      </trkpt>
      <trkpt lat="57.481418000534177" lon="-4.234063988551498">
        <ele>0.14</ele>
        <time>2023-08-28T12:12:07Z</time>
      </trkpt>
      <trkpt lat="57.482276977971196" lon="-4.231260996311903">
        <ele>0.62</ele>
        <time>2023-08-28T12:12:22Z</time>
      </trkpt>
      <trkpt lat="57.482345961034298" lon="-4.231153037399054">
        <ele>0.62</ele>
        <time>2023-08-28T12:12:23Z</time>
      </trkpt>
      <trkpt lat="57.482401030138135" lon="-4.231067039072514">
        <ele>0.62</ele>
        <time>2023-08-28T12:12:24Z</time>
      </trkpt>
      <trkpt lat="57.482441011816263" lon="-4.23101699911058">
        <ele>0.14</ele>
        <time>2023-08-28T12:12:25Z</time>
      </trkpt>
      <trkpt lat="57.482464984059334" lon="-4.230985986068845">
        <ele>-0.34</ele>
        <time>2023-08-28T12:12:26Z</time>
      </trkpt>
      <trkpt lat="57.482567997649312" lon="-4.230919014662504">
        <ele>-1.79</ele>
        <time>2023-08-28T12:12:35Z</time>
      </trkpt>
      <trkpt lat="57.482673022896051" lon="-4.230860006064177">
        <ele>-2.27</ele>
        <time>2023-08-28T12:12:37Z</time>
      </trkpt>
      <trkpt lat="57.482742005959153" lon="-4.230805020779371">
        <ele>-2.75</ele>
        <time>2023-08-28T12:12:38Z</time>
      </trkpt>
      <trkpt lat="57.482796991243958" lon="-4.230685997754335">
        <ele>-3.23</ele>
        <time>2023-08-28T12:12:39Z</time>
      </trkpt>
      <trkpt lat="57.482787016779184" lon="-4.23054501414299">
        <ele>-3.23</ele>
        <time>2023-08-28T12:12:40Z</time>
      </trkpt>
      <trkpt lat="57.482744017615914" lon="-4.230399001389742">
        <ele>-3.71</ele>
        <time>2023-08-28T12:12:41Z</time>
      </trkpt>
      <trkpt lat="57.482723984867334" lon="-4.230227004736662">
        <ele>-4.19</ele>
        <time>2023-08-28T12:12:42Z</time>
      </trkpt>
      <trkpt lat="57.482433971017599" lon="-4.228671994060278">
        <ele>-3.71</ele>
        <time>2023-08-28T12:12:49Z</time>
      </trkpt>
      <trkpt lat="57.482096012681723" lon="-4.227326028048992">
        <ele>-0.82</ele>
        <time>2023-08-28T12:12:55Z</time>
      </trkpt>
      <trkpt lat="57.482080003246665" lon="-4.2271270416677">
        <ele>-0.34</ele>
        <time>2023-08-28T12:12:56Z</time>
      </trkpt>
      <trkpt lat="57.482066005468369" lon="-4.226950015872717">
        <ele>0.14</ele>
        <time>2023-08-28T12:12:57Z</time>
      </trkpt>
      <trkpt lat="57.482070028781891" lon="-4.226777013391256">
        <ele>0.62</ele>
        <time>2023-08-28T12:12:58Z</time>
      </trkpt>
      <trkpt lat="57.482097018510103" lon="-4.226639969274402">
        <ele>1.58</ele>
        <time>2023-08-28T12:12:59Z</time>
      </trkpt>
      <trkpt lat="57.482124008238316" lon="-4.22650502063334">
        <ele>2.06</ele>
        <time>2023-08-28T12:13:00Z</time>
      </trkpt>
      <trkpt lat="57.482145968824625" lon="-4.226362025365233">
        <ele>2.06</ele>
        <time>2023-08-28T12:13:01Z</time>
      </trkpt>
      <trkpt lat="57.482166001573205" lon="-4.22622699290514">
        <ele>2.54</ele>
        <time>2023-08-28T12:13:02Z</time>
      </trkpt>
      <trkpt lat="57.482181005179882" lon="-4.226071005687118">
        <ele>2.54</ele>
        <time>2023-08-28T12:13:03Z</time>
      </trkpt>
      <trkpt lat="57.48219802044332" lon="-4.225902026519179">
        <ele>3.02</ele>
        <time>2023-08-28T12:13:04Z</time>
      </trkpt>
      <trkpt lat="57.482224004343152" lon="-4.22573103569448">
        <ele>3.5</ele>
        <time>2023-08-28T12:13:05Z</time>
      </trkpt>
      <trkpt lat="57.482586018741131" lon="-4.224247019737959">
        <ele>8.310000000000001</ele>
        <time>2023-08-28T12:13:12Z</time>
      </trkpt>
      <trkpt lat="57.482658019289374" lon="-4.224039986729622">
        <ele>8.310000000000001</ele>
        <time>2023-08-28T12:13:13Z</time>
      </trkpt>
      <trkpt lat="57.48273303732276" lon="-4.223835971206427">
        <ele>8.789999999999999</ele>
        <time>2023-08-28T12:13:14Z</time>
      </trkpt>
      <trkpt lat="57.482824986800551" lon="-4.223651988431811">
        <ele>8.789999999999999</ele>
        <time>2023-08-28T12:13:15Z</time>
      </trkpt>
      <trkpt lat="57.482921965420246" lon="-4.223459037020803">
        <ele>8.789999999999999</ele>
        <time>2023-08-28T12:13:16Z</time>
      </trkpt>
      <trkpt lat="57.483038976788521" lon="-4.223292991518974">
        <ele>8.789999999999999</ele>
        <time>2023-08-28T12:13:17Z</time>
      </trkpt>
      <trkpt lat="57.483926033601165" lon="-4.222183981910348">
        <ele>6.87</ele>
        <time>2023-08-28T12:13:26Z</time>
      </trkpt>
      <trkpt lat="57.484765984117985" lon="-4.221504963934422">
        <ele>5.91</ele>
        <time>2023-08-28T12:13:35Z</time>
      </trkpt>
      <trkpt lat="57.485325979068875" lon="-4.221089975908399">
        <ele>5.42</ele>
        <time>2023-08-28T12:13:43Z</time>
      </trkpt>
      <trkpt lat="57.485533012077212" lon="-4.220959972590208">
        <ele>4.94</ele>
        <time>2023-08-28T12:13:52Z</time>
      </trkpt>
      <trkpt lat="57.485564025118947" lon="-4.220959972590208">
        <ele>4.94</ele>
        <time>2023-08-28T12:13:53Z</time>
      </trkpt>
      <trkpt lat="57.485681958496571" lon="-4.221000038087368">
        <ele>4.94</ele>
        <time>2023-08-28T12:13:54Z</time>
      </trkpt>
      <trkpt lat="57.485725041478872" lon="-4.221153007820249">
        <ele>5.42</ele>
        <time>2023-08-28T12:13:55Z</time>
      </trkpt>
      <trkpt lat="57.485760999843478" lon="-4.221280999481678">
        <ele>5.42</ele>
        <time>2023-08-28T12:13:56Z</time>
      </trkpt>
      <trkpt lat="57.485793018713593" lon="-4.221417959779501">
        <ele>4.94</ele>
        <time>2023-08-28T12:13:57Z</time>
      </trkpt>
      <trkpt lat="57.485801987349987" lon="-4.22152197919786">
        <ele>4.94</ele>
        <time>2023-08-28T12:13:58Z</time>
      </trkpt>
      <trkpt lat="57.485810033977032" lon="-4.2216079775244">
        <ele>4.46</ele>
        <time>2023-08-28T12:13:59Z</time>
      </trkpt>
      <trkpt lat="57.485816990956664" lon="-4.221686013042927">
        <ele>4.46</ele>
        <time>2023-08-28T12:14:00Z</time>
      </trkpt>
      <trkpt lat="57.485823025926948" lon="-4.221761031076312">
        <ele>4.46</ele>
        <time>2023-08-28T12:14:01Z</time>
      </trkpt>
      <trkpt lat="57.485834006220102" lon="-4.221882987767458">
        <ele>4.46</ele>
        <time>2023-08-28T12:14:08Z</time>
      </trkpt>
      <trkpt lat="57.485834006220102" lon="-4.221882987767458">
        <ele>4.46</ele>
        <time>2023-08-28T12:14:52Z</time>
      </trkpt>
      <trkpt lat="57.485834006220102" lon="-4.221882987767458">
        <ele>4.46</ele>
        <time>2023-08-28T12:15:39Z</time>
      </trkpt>
      <trkpt lat="57.485834006220102" lon="-4.221882987767458">
        <ele>7.35</ele>
        <time>2023-08-28T12:16:09Z</time>
      </trkpt>
      <trkpt lat="57.485834006220102" lon="-4.221882987767458">
        <ele>7.83</ele>
        <time>2023-08-28T12:16:10Z</time>
      </trkpt>
      <trkpt lat="57.485834006220102" lon="-4.221882987767458">
        <ele>7.83</ele>
        <time>2023-08-28T12:16:11Z</time>
      </trkpt>
      <trkpt lat="57.485834006220102" lon="-4.221882987767458">
        <ele>7.83</ele>
        <time>2023-08-28T12:16:12Z</time>
      </trkpt>
      <trkpt lat="57.48582998290658" lon="-4.22184300608933">
        <ele>7.83</ele>
        <time>2023-08-28T12:16:13Z</time>
      </trkpt>
      <trkpt lat="57.485823025926948" lon="-4.221762036904693">
        <ele>7.35</ele>
        <time>2023-08-28T12:16:14Z</time>
      </trkpt>
      <trkpt lat="57.485816990956664" lon="-4.221685007214546">
        <ele>7.35</ele>
        <time>2023-08-28T12:16:15Z</time>
      </trkpt>
      <trkpt lat="57.485795030370355" lon="-4.221345959231257">
        <ele>5.91</ele>
        <time>2023-08-28T12:16:25Z</time>
      </trkpt>
      <trkpt lat="57.485808022320271" lon="-4.221215033903718">
        <ele>5.42</ele>
        <time>2023-08-28T12:16:33Z</time>
      </trkpt>
      <trkpt lat="57.485816990956664" lon="-4.221110008656979">
        <ele>5.42</ele>
        <time>2023-08-28T12:16:41Z</time>
      </trkpt>
      <trkpt lat="57.485884968191385" lon="-4.220778001472354">
        <ele>5.42</ele>
        <time>2023-08-28T12:16:49Z</time>
      </trkpt>
      <trkpt lat="57.485882034525275" lon="-4.220595024526119">
        <ele>5.42</ele>
        <time>2023-08-28T12:16:50Z</time>
      </trkpt>
      <trkpt lat="57.485844986513257" lon="-4.220496034249663">
        <ele>4.94</ele>
        <time>2023-08-28T12:16:51Z</time>
      </trkpt>
      <trkpt lat="57.485791007056832" lon="-4.22042403370142">
        <ele>4.94</ele>
        <time>2023-08-28T12:16:52Z</time>
      </trkpt>
      <trkpt lat="57.485714983195066" lon="-4.220455968752503">
        <ele>4.94</ele>
        <time>2023-08-28T12:16:53Z</time>
      </trkpt>
      <trkpt lat="57.485647005960345" lon="-4.220484970137477">
        <ele>4.46</ele>
        <time>2023-08-28T12:16:54Z</time>
      </trkpt>
      <trkpt lat="57.485578022897243" lon="-4.22059996984899">
        <ele>4.46</ele>
        <time>2023-08-28T12:16:55Z</time>
      </trkpt>
      <trkpt lat="57.485492024570704" lon="-4.220708012580872">
        <ele>3.98</ele>
        <time>2023-08-28T12:16:56Z</time>
      </trkpt>
      <trkpt lat="57.484950972720981" lon="-4.221183015033603">
        <ele>3.5</ele>
        <time>2023-08-28T12:17:02Z</time>
      </trkpt>
      <trkpt lat="57.484837984666228" lon="-4.221270019188523">
        <ele>3.5</ele>
        <time>2023-08-28T12:17:03Z</time>
      </trkpt>
      <trkpt lat="57.484422996640205" lon="-4.221592973917723">
        <ele>3.5</ele>
        <time>2023-08-28T12:17:09Z</time>
      </trkpt>
      <trkpt lat="57.484364993870258" lon="-4.221637984737754">
        <ele>3.98</ele>
        <time>2023-08-28T12:17:19Z</time>
      </trkpt>
      <trkpt lat="57.48419601470232" lon="-4.221782991662622">
        <ele>4.46</ele>
        <time>2023-08-28T12:17:23Z</time>
      </trkpt>
      <trkpt lat="57.484156033024192" lon="-4.221818028017879">
        <ele>4.46</ele>
        <time>2023-08-28T12:17:24Z</time>
      </trkpt>
      <trkpt lat="57.484128959476948" lon="-4.221842000260949">
        <ele>4.46</ele>
        <time>2023-08-28T12:17:25Z</time>
      </trkpt>
      <trkpt lat="57.484056958928704" lon="-4.221619041636586">
        <ele>3.98</ele>
        <time>2023-08-28T12:17:26Z</time>
      </trkpt>
      <trkpt lat="57.483986970037222" lon="-4.22145701944828">
        <ele>4.46</ele>
        <time>2023-08-28T12:17:29Z</time>
      </trkpt>
      <trkpt lat="57.483861995860934" lon="-4.221378983929753">
        <ele>4.94</ele>
        <time>2023-08-28T12:17:37Z</time>
      </trkpt>
      <trkpt lat="57.483816985040903" lon="-4.221451990306377">
        <ele>5.42</ele>
        <time>2023-08-28T12:17:50Z</time>
      </trkpt>
      <trkpt lat="57.483389005064964" lon="-4.221981978043914">
        <ele>5.42</ele>
        <time>2023-08-28T12:18:03Z</time>
      </trkpt>
      <trkpt lat="57.483296971768141" lon="-4.222088009119034">
        <ele>4.94</ele>
        <time>2023-08-28T12:18:06Z</time>
      </trkpt>
      <trkpt lat="57.48318599537015" lon="-4.222025983035564">
        <ele>5.91</ele>
        <time>2023-08-28T12:18:16Z</time>
      </trkpt>
      <trkpt lat="57.483176020905375" lon="-4.22201600857079">
        <ele>5.42</ele>
        <time>2023-08-28T12:18:37Z</time>
      </trkpt>
      <trkpt lat="57.483168980106711" lon="-4.222021037712693">
        <ele>5.42</ele>
        <time>2023-08-28T12:19:14Z</time>
      </trkpt>
      <trkpt lat="57.48316403478384" lon="-4.222036963328719">
        <ele>5.91</ele>
        <time>2023-08-28T12:19:36Z</time>
      </trkpt>
      <trkpt lat="57.483234023675323" lon="-4.222254976630211">
        <ele>5.91</ele>
        <time>2023-08-28T12:19:41Z</time>
      </trkpt>
      <trkpt lat="57.483325973153114" lon="-4.222623025998473">
        <ele>6.39</ele>
        <time>2023-08-28T12:19:50Z</time>
      </trkpt>
      <trkpt lat="57.483339970931411" lon="-4.222741965204477">
        <ele>6.39</ele>
        <time>2023-08-28T12:19:51Z</time>
      </trkpt>
      <trkpt lat="57.48329202644527" lon="-4.222804997116327">
        <ele>5.91</ele>
        <time>2023-08-28T12:19:52Z</time>
      </trkpt>
      <trkpt lat="57.482797997072339" lon="-4.223513016477227">
        <ele>6.87</ele>
        <time>2023-08-28T12:19:57Z</time>
      </trkpt>
      <trkpt lat="57.482507983222604" lon="-4.224178958684206">
        <ele>8.789999999999999</ele>
        <time>2023-08-28T12:20:02Z</time>
      </trkpt>
      <trkpt lat="57.482096012681723" lon="-4.225835977122188">
        <ele>7.35</ele>
        <time>2023-08-28T12:20:13Z</time>
      </trkpt>
      <trkpt lat="57.482014037668705" lon="-4.226195979863405">
        <ele>6.39</ele>
        <time>2023-08-28T12:20:16Z</time>
      </trkpt>
      <trkpt lat="57.481991993263364" lon="-4.226451963186264">
        <ele>6.39</ele>
        <time>2023-08-28T12:20:17Z</time>
      </trkpt>
      <trkpt lat="57.48198595829308" lon="-4.226637035608292">
        <ele>6.39</ele>
        <time>2023-08-28T12:20:18Z</time>
      </trkpt>
      <trkpt lat="57.481979001313448" lon="-4.226833004504442">
        <ele>6.39</ele>
        <time>2023-08-28T12:20:19Z</time>
      </trkpt>
      <trkpt lat="57.481971960514784" lon="-4.227032996714115">
        <ele>6.39</ele>
        <time>2023-08-28T12:20:20Z</time>
      </trkpt>
      <trkpt lat="57.481999034062028" lon="-4.227235000580549">
        <ele>6.39</ele>
        <time>2023-08-28T12:20:21Z</time>
      </trkpt>
      <trkpt lat="57.482029963284731" lon="-4.227438010275364">
        <ele>6.39</ele>
        <time>2023-08-28T12:20:22Z</time>
      </trkpt>
      <trkpt lat="57.482067011296749" lon="-4.227648982778192">
        <ele>5.91</ele>
        <time>2023-08-28T12:20:23Z</time>
      </trkpt>
      <trkpt lat="57.482121996581554" lon="-4.227849980816245">
        <ele>5.42</ele>
        <time>2023-08-28T12:20:24Z</time>
      </trkpt>
      <trkpt lat="57.482174970209599" lon="-4.228047961369157">
        <ele>4.94</ele>
        <time>2023-08-28T12:20:25Z</time>
      </trkpt>
      <trkpt lat="57.482561962679029" lon="-4.229696011170745">
        <ele>3.02</ele>
        <time>2023-08-28T12:20:35Z</time>
      </trkpt>
      <trkpt lat="57.482580989599228" lon="-4.229825008660555">
        <ele>2.06</ele>
        <time>2023-08-28T12:20:41Z</time>
      </trkpt>
      <trkpt lat="57.482581995427608" lon="-4.230030030012131">
        <ele>1.58</ele>
        <time>2023-08-28T12:20:50Z</time>
      </trkpt>
      <trkpt lat="57.482573026791215" lon="-4.230121979489923">
        <ele>1.58</ele>
        <time>2023-08-28T12:20:51Z</time>
      </trkpt>
      <trkpt lat="57.48256397433579" lon="-4.230218958109617">
        <ele>1.58</ele>
        <time>2023-08-28T12:20:52Z</time>
      </trkpt>
      <trkpt lat="57.482550982385874" lon="-4.230359019711614">
        <ele>1.58</ele>
        <time>2023-08-28T12:20:53Z</time>
      </trkpt>
      <trkpt lat="57.482465989887714" lon="-4.230417022481561">
        <ele>1.1</ele>
        <time>2023-08-28T12:20:54Z</time>
      </trkpt>
      <trkpt lat="57.482393989339471" lon="-4.230406964197755">
        <ele>0.62</ele>
        <time>2023-08-28T12:20:55Z</time>
      </trkpt>
      <trkpt lat="57.482312014326453" lon="-4.23039497807622">
        <ele>0.14</ele>
        <time>2023-08-28T12:20:56Z</time>
      </trkpt>
      <trkpt lat="57.482225010171533" lon="-4.230382991954684">
        <ele>-0.34</ele>
        <time>2023-08-28T12:20:57Z</time>
      </trkpt>
      <trkpt lat="57.481990987434983" lon="-4.230272015556693">
        <ele>-0.82</ele>
        <time>2023-08-28T12:21:00Z</time>
      </trkpt>
      <trkpt lat="57.481907000765204" lon="-4.230230022221804">
        <ele>-1.3</ele>
        <time>2023-08-28T12:21:01Z</time>
      </trkpt>
      <trkpt lat="57.481842963024974" lon="-4.230122985318303">
        <ele>-1.79</ele>
        <time>2023-08-28T12:21:02Z</time>
      </trkpt>
      <trkpt lat="57.481163023039699" lon="-4.228966031223536">
        <ele>-2.75</ele>
        <time>2023-08-28T12:21:12Z</time>
      </trkpt>
      <trkpt lat="57.481123963370919" lon="-4.228892019018531">
        <ele>-3.23</ele>
        <time>2023-08-28T12:21:13Z</time>
      </trkpt>
      <trkpt lat="57.481091022491455" lon="-4.228829992935062">
        <ele>-3.23</ele>
        <time>2023-08-28T12:21:14Z</time>
      </trkpt>
      <trkpt lat="57.481065038591623" lon="-4.228780958801508">
        <ele>-3.23</ele>
        <time>2023-08-28T12:21:15Z</time>
      </trkpt>
      <trkpt lat="57.48088801279664" lon="-4.228444006294012">
        <ele>-4.19</ele>
        <time>2023-08-28T12:21:22Z</time>
      </trkpt>
      <trkpt lat="57.480859011411667" lon="-4.228388015180826">
        <ele>-4.19</ele>
        <time>2023-08-28T12:21:23Z</time>
      </trkpt>
      <trkpt lat="57.480811988934875" lon="-4.228379968553782">
        <ele>-4.19</ele>
        <time>2023-08-28T12:21:24Z</time>
      </trkpt>
      <trkpt lat="57.480786005035043" lon="-4.228425985202193">
        <ele>-4.19</ele>
        <time>2023-08-28T12:21:25Z</time>
      </trkpt>
      <trkpt lat="57.480749962851405" lon="-4.228487005457282">
        <ele>-4.19</ele>
        <time>2023-08-28T12:21:26Z</time>
      </trkpt>
      <trkpt lat="57.480707969516516" lon="-4.228559006005526">
        <ele>-4.19</ele>
        <time>2023-08-28T12:21:27Z</time>
      </trkpt>
      <trkpt lat="57.480660025030375" lon="-4.228641986846924">
        <ele>-4.67</ele>
        <time>2023-08-28T12:21:28Z</time>
      </trkpt>
      <trkpt lat="57.4800939951092" lon="-4.229514040052891">
        <ele>-5.15</ele>
        <time>2023-08-28T12:21:37Z</time>
      </trkpt>
      <trkpt lat="57.47998503036797" lon="-4.229646977037191">
        <ele>-5.15</ele>
        <time>2023-08-28T12:21:39Z</time>
      </trkpt>
      <trkpt lat="57.479935996234417" lon="-4.2297069914639">
        <ele>-5.15</ele>
        <time>2023-08-28T12:21:40Z</time>
      </trkpt>
      <trkpt lat="57.479862989857793" lon="-4.22970799729228">
        <ele>-5.15</ele>
        <time>2023-08-28T12:21:41Z</time>
      </trkpt>
      <trkpt lat="57.479801969602704" lon="-4.229669021442533">
        <ele>-5.15</ele>
        <time>2023-08-28T12:21:42Z</time>
      </trkpt>
      <trkpt lat="57.479751007631421" lon="-4.229589980095625">
        <ele>-5.15</ele>
        <time>2023-08-28T12:21:43Z</time>
      </trkpt>
      <trkpt lat="57.479694010689855" lon="-4.229502975940704">
        <ele>-5.15</ele>
        <time>2023-08-28T12:21:44Z</time>
      </trkpt>
      <trkpt lat="57.479637013748288" lon="-4.229415971785784">
        <ele>-5.15</ele>
        <time>2023-08-28T12:21:45Z</time>
      </trkpt>
      <trkpt lat="57.479578005149961" lon="-4.229326033964753">
        <ele>-5.15</ele>
        <time>2023-08-28T12:21:46Z</time>
      </trkpt>
      <trkpt lat="57.479515979066491" lon="-4.229230983182788">
        <ele>-5.63</ele>
        <time>2023-08-28T12:21:47Z</time>
      </trkpt>
      <trkpt lat="57.47938496991992" lon="-4.229047000408173">
        <ele>-6.59</ele>
        <time>2023-08-28T12:21:49Z</time>
      </trkpt>
      <trkpt lat="57.479311041533947" lon="-4.22895597293973">
        <ele>-6.59</ele>
        <time>2023-08-28T12:21:50Z</time>
      </trkpt>
      <trkpt lat="57.479238035157323" lon="-4.228865029290319">
        <ele>-7.07</ele>
        <time>2023-08-28T12:21:51Z</time>
      </trkpt>
      <trkpt lat="57.479168968275189" lon="-4.228780958801508">
        <ele>-7.55</ele>
        <time>2023-08-28T12:21:52Z</time>
      </trkpt>
      <trkpt lat="57.479099985212088" lon="-4.228694960474968">
        <ele>-7.55</ele>
        <time>2023-08-28T12:21:53Z</time>
      </trkpt>
      <trkpt lat="57.47858801856637" lon="-4.228101018816233">
        <ele>-12.359999999999999</ele>
        <time>2023-08-28T12:22:01Z</time>
      </trkpt>
      <trkpt lat="57.477912018075585" lon="-4.227486960589886">
        <ele>-16.210000000000001</ele>
        <time>2023-08-28T12:22:12Z</time>
      </trkpt>
      <trkpt lat="57.477739015594125" lon="-4.227339019998908">
        <ele>-15.24</ele>
        <time>2023-08-28T12:22:19Z</time>
      </trkpt>
      <trkpt lat="57.477576993405819" lon="-4.227201975882053">
        <ele>-14.279999999999999</ele>
        <time>2023-08-28T12:22:48Z</time>
      </trkpt>
      <trkpt lat="57.477311035618186" lon="-4.226975999772549">
        <ele>-12.84</ele>
        <time>2023-08-28T12:22:53Z</time>
      </trkpt>
      <trkpt lat="57.477258983999491" lon="-4.226931994780898">
        <ele>-11.4</ele>
        <time>2023-08-28T12:22:54Z</time>
      </trkpt>
      <trkpt lat="57.477212967351079" lon="-4.22689301893115">
        <ele>-10.44</ele>
        <time>2023-08-28T12:22:55Z</time>
      </trkpt>
      <trkpt lat="57.477179020643234" lon="-4.226863011717796">
        <ele>-9.960000000000001</ele>
        <time>2023-08-28T12:22:56Z</time>
      </trkpt>
      <trkpt lat="57.477124035358429" lon="-4.22669998370111">
        <ele>-9.48</ele>
        <time>2023-08-28T12:22:57Z</time>
      </trkpt>
      <trkpt lat="57.477135015651584" lon="-4.226654972881079">
        <ele>-9.48</ele>
        <time>2023-08-28T12:22:58Z</time>
      </trkpt>
      <trkpt lat="57.477144990116358" lon="-4.226611973717809">
        <ele>-9</ele>
        <time>2023-08-28T12:22:59Z</time>
      </trkpt>
      <trkpt lat="57.477156976237893" lon="-4.226563023403287">
        <ele>-8.51</ele>
        <time>2023-08-28T12:23:00Z</time>
      </trkpt>
      <trkpt lat="57.477169968187809" lon="-4.226509965956211">
        <ele>-8.51</ele>
        <time>2023-08-28T12:23:01Z</time>
      </trkpt>
      <trkpt lat="57.477182038128376" lon="-4.226459003984928">
        <ele>-8.029999999999999</ele>
        <time>2023-08-28T12:23:02Z</time>
      </trkpt>
      <trkpt lat="57.477193018421531" lon="-4.226411981508136">
        <ele>-7.55</ele>
        <time>2023-08-28T12:23:03Z</time>
      </trkpt>
      <trkpt lat="57.477201987057924" lon="-4.226375017315149">
        <ele>-7.55</ele>
        <time>2023-08-28T12:23:04Z</time>
      </trkpt>
      <trkpt lat="57.477210033684969" lon="-4.226345010101795">
        <ele>-7.07</ele>
        <time>2023-08-28T12:23:05Z</time>
      </trkpt>
      <trkpt lat="57.477212967351079" lon="-4.226329000666738">
        <ele>-7.07</ele>
        <time>2023-08-28T12:23:06Z</time>
      </trkpt>
      <trkpt lat="57.477212967351079" lon="-4.226329000666738">
        <ele>-7.07</ele>
        <time>2023-08-28T12:23:07Z</time>
      </trkpt>
      <trkpt lat="57.47727700509131" lon="-4.226063964888454">
        <ele>-5.15</ele>
        <time>2023-08-28T12:23:18Z</time>
      </trkpt>
      <trkpt lat="57.477400973439217" lon="-4.225551998242736">
        <ele>-2.27</ele>
        <time>2023-08-28T12:23:27Z</time>
      </trkpt>
      <trkpt lat="57.477445984259248" lon="-4.225415959954262">
        <ele>-1.3</ele>
        <time>2023-08-28T12:23:29Z</time>
      </trkpt>
      <trkpt lat="57.477465011179447" lon="-4.225358963012695">
        <ele>-1.3</ele>
        <time>2023-08-28T12:23:30Z</time>
      </trkpt>
      <trkpt lat="57.47751496732235" lon="-4.225169029086828">
        <ele>-0.82</ele>
        <time>2023-08-28T12:23:32Z</time>
      </trkpt>
      <trkpt lat="57.477538017556071" lon="-4.225083030760288">
        <ele>-0.34</ele>
        <time>2023-08-28T12:23:33Z</time>
      </trkpt>
      <trkpt lat="57.47755796648562" lon="-4.225004995241761">
        <ele>-0.34</ele>
        <time>2023-08-28T12:23:34Z</time>
      </trkpt>
      <trkpt lat="57.477567018941045" lon="-4.224918996915221">
        <ele>0.14</ele>
        <time>2023-08-28T12:23:35Z</time>
      </trkpt>
      <trkpt lat="57.477543968707323" lon="-4.224813971668482">
        <ele>0.62</ele>
        <time>2023-08-28T12:23:36Z</time>
      </trkpt>
      <trkpt lat="57.477505998685956" lon="-4.224766027182341">
        <ele>0.62</ele>
        <time>2023-08-28T12:23:37Z</time>
      </trkpt>
      <trkpt lat="57.477465011179447" lon="-4.224714981392026">
        <ele>1.1</ele>
        <time>2023-08-28T12:23:38Z</time>
      </trkpt>
      <trkpt lat="57.477093022316694" lon="-4.224465033039451">
        <ele>2.06</ele>
        <time>2023-08-28T12:23:45Z</time>
      </trkpt>
      <trkpt lat="57.476796973496675" lon="-4.224394038319588">
        <ele>2.54</ele>
        <time>2023-08-28T12:23:49Z</time>
      </trkpt>
      <trkpt lat="57.476712986826897" lon="-4.224380040541291">
        <ele>2.54</ele>
        <time>2023-08-28T12:23:50Z</time>
      </trkpt>
      <trkpt lat="57.476636962965131" lon="-4.224389009177685">
        <ele>3.02</ele>
        <time>2023-08-28T12:23:51Z</time>
      </trkpt>
      <trkpt lat="57.476558005437255" lon="-4.224427985027432">
        <ele>3.5</ele>
        <time>2023-08-28T12:23:52Z</time>
      </trkpt>
      <trkpt lat="57.476481981575489" lon="-4.224465033039451">
        <ele>4.46</ele>
        <time>2023-08-28T12:23:53Z</time>
      </trkpt>
      <trkpt lat="57.476407969370484" lon="-4.224500991404057">
        <ele>4.94</ele>
        <time>2023-08-28T12:23:54Z</time>
      </trkpt>
      <trkpt lat="57.476339992135763" lon="-4.224534016102552">
        <ele>5.91</ele>
        <time>2023-08-28T12:23:55Z</time>
      </trkpt>
      <trkpt lat="57.476282995194197" lon="-4.224562011659145">
        <ele>6.87</ele>
        <time>2023-08-28T12:23:56Z</time>
      </trkpt>
      <trkpt lat="57.476235972717404" lon="-4.224584978073835">
        <ele>7.35</ele>
        <time>2023-08-28T12:23:57Z</time>
      </trkpt>
      <trkpt lat="57.476186016574502" lon="-4.224610039964318">
        <ele>9.75</ele>
        <time>2023-08-28T12:24:04Z</time>
      </trkpt>
      <trkpt lat="57.476163972169161" lon="-4.224620014429092">
        <ele>9.75</ele>
        <time>2023-08-28T12:24:05Z</time>
      </trkpt>
      <trkpt lat="57.476147040724754" lon="-4.224628983065486">
        <ele>10.23</ele>
        <time>2023-08-28T12:24:06Z</time>
      </trkpt>
      <trkpt lat="57.476132959127426" lon="-4.22463602386415">
        <ele>10.710000000000001</ele>
        <time>2023-08-28T12:24:07Z</time>
      </trkpt>
      <trkpt lat="57.47611896134913" lon="-4.224641975015402">
        <ele>11.19</ele>
        <time>2023-08-28T12:24:08Z</time>
      </trkpt>
      <trkpt lat="57.47611896134913" lon="-4.224641975015402">
        <ele>12.15</ele>
        <time>2023-08-28T12:24:24Z</time>
      </trkpt>
      <trkpt lat="57.47611896134913" lon="-4.224641975015402">
        <ele>12.15</ele>
        <time>2023-08-28T12:24:41Z</time>
      </trkpt>
      <trkpt lat="57.47611896134913" lon="-4.224641975015402">
        <ele>12.15</ele>
        <time>2023-08-28T12:25:03Z</time>
      </trkpt>
      <trkpt lat="57.476142011582851" lon="-4.224739037454128">
        <ele>17.920000000000002</ele>
        <time>2023-08-28T12:36:25Z</time>
      </trkpt>
      <trkpt lat="57.476136982440948" lon="-4.224726967513561">
        <ele>15.039999999999999</ele>
        <time>2023-08-28T12:37:12Z</time>
      </trkpt>
      <trkpt lat="57.476121978834271" lon="-4.224665025249124">
        <ele>14.08</ele>
        <time>2023-08-28T12:37:39Z</time>
      </trkpt>
      <trkpt lat="57.476112004369497" lon="-4.224656978622079">
        <ele>14.56</ele>
        <time>2023-08-28T12:38:27Z</time>
      </trkpt>
      <trkpt lat="57.476112004369497" lon="-4.224654966965318">
        <ele>14.56</ele>
        <time>2023-08-28T12:39:10Z</time>
      </trkpt>
      <trkpt lat="57.476113010197878" lon="-4.224655972793698">
        <ele>14.56</ele>
        <time>2023-08-28T12:39:39Z</time>
      </trkpt>
      <trkpt lat="57.476360024884343" lon="-4.224524963647127">
        <ele>14.08</ele>
        <time>2023-08-28T12:39:53Z</time>
      </trkpt>
      <trkpt lat="57.476708041504025" lon="-4.22437802888453">
        <ele>12.630000000000001</ele>
        <time>2023-08-28T12:40:01Z</time>
      </trkpt>
      <trkpt lat="57.476767972111702" lon="-4.224389009177685">
        <ele>12.630000000000001</ele>
        <time>2023-08-28T12:40:02Z</time>
      </trkpt>
      <trkpt lat="57.476835027337074" lon="-4.22440099529922">
        <ele>12.630000000000001</ele>
        <time>2023-08-28T12:40:03Z</time>
      </trkpt>
      <trkpt lat="57.477390998974442" lon="-4.224664019420743">
        <ele>11.67</ele>
        <time>2023-08-28T12:40:11Z</time>
      </trkpt>
      <trkpt lat="57.477490995079279" lon="-4.224748006090522">
        <ele>11.19</ele>
        <time>2023-08-28T12:40:13Z</time>
      </trkpt>
      <trkpt lat="57.477551009505987" lon="-4.224823024123907">
        <ele>11.19</ele>
        <time>2023-08-28T12:40:14Z</time>
      </trkpt>
      <trkpt lat="57.477566013112664" lon="-4.224912961944938">
        <ele>11.67</ele>
        <time>2023-08-28T12:40:15Z</time>
      </trkpt>
      <trkpt lat="57.477550003677607" lon="-4.225038019940257">
        <ele>11.19</ele>
        <time>2023-08-28T12:40:16Z</time>
      </trkpt>
      <trkpt lat="57.477525025606155" lon="-4.225133992731571">
        <ele>10.710000000000001</ele>
        <time>2023-08-28T12:40:17Z</time>
      </trkpt>
      <trkpt lat="57.477498035877943" lon="-4.225236000493169">
        <ele>10.710000000000001</ele>
        <time>2023-08-28T12:40:18Z</time>
      </trkpt>
      <trkpt lat="57.477465011179447" lon="-4.225358963012695">
        <ele>10.23</ele>
        <time>2023-08-28T12:40:19Z</time>
      </trkpt>
      <trkpt lat="57.47742997482419" lon="-4.225465999916196">
        <ele>10.23</ele>
        <time>2023-08-28T12:40:20Z</time>
      </trkpt>
      <trkpt lat="57.477029990404844" lon="-4.22719300724566">
        <ele>8.310000000000001</ele>
        <time>2023-08-28T12:40:33Z</time>
      </trkpt>
      <trkpt lat="57.476725978776813" lon="-4.228818006813526">
        <ele>8.310000000000001</ele>
        <time>2023-08-28T12:40:45Z</time>
      </trkpt>
      <trkpt lat="57.476348038762808" lon="-4.23005098477006">
        <ele>5.91</ele>
        <time>2023-08-28T12:40:56Z</time>
      </trkpt>
      <trkpt lat="57.47626799158752" lon="-4.230220969766378">
        <ele>4.94</ele>
        <time>2023-08-28T12:41:04Z</time>
      </trkpt>
      <trkpt lat="57.476101024076343" lon="-4.230554988607764">
        <ele>3.02</ele>
        <time>2023-08-28T12:41:20Z</time>
      </trkpt>
      <trkpt lat="57.47547397390008" lon="-4.231887040659785">
        <ele>0.14</ele>
        <time>2023-08-28T12:41:31Z</time>
      </trkpt>
      <trkpt lat="57.474971981719136" lon="-4.232940981164575">
        <ele>-0.82</ele>
        <time>2023-08-28T12:41:39Z</time>
      </trkpt>
      <trkpt lat="57.474890006706119" lon="-4.233105015009642">
        <ele>-1.3</ele>
        <time>2023-08-28T12:41:40Z</time>
      </trkpt>
      <trkpt lat="57.474814988672733" lon="-4.233169974759221">
        <ele>-1.3</ele>
        <time>2023-08-28T12:41:41Z</time>
      </trkpt>
      <trkpt lat="57.473855009302497" lon="-4.233976984396577">
        <ele>-0.82</ele>
        <time>2023-08-28T12:41:51Z</time>
      </trkpt>
      <trkpt lat="57.472831998020411" lon="-4.234780976548791">
        <ele>2.54</ele>
        <time>2023-08-28T12:42:01Z</time>
      </trkpt>
      <trkpt lat="57.471933038905263" lon="-4.235555967316032">
        <ele>4.94</ele>
        <time>2023-08-28T12:42:11Z</time>
      </trkpt>
      <trkpt lat="57.470968030393124" lon="-4.236456016078591">
        <ele>6.39</ele>
        <time>2023-08-28T12:42:21Z</time>
      </trkpt>
      <trkpt lat="57.470190022140741" lon="-4.237017016857863">
        <ele>8.789999999999999</ele>
        <time>2023-08-28T12:42:31Z</time>
      </trkpt>
      <trkpt lat="57.470147022977471" lon="-4.237048029899597">
        <ele>8.789999999999999</ele>
        <time>2023-08-28T12:42:32Z</time>
      </trkpt>
      <trkpt lat="57.470023976638913" lon="-4.237136961892247">
        <ele>9.27</ele>
        <time>2023-08-28T12:42:35Z</time>
      </trkpt>
      <trkpt lat="57.469980977475643" lon="-4.237167974933982">
        <ele>9.27</ele>
        <time>2023-08-28T12:42:36Z</time>
      </trkpt>
      <trkpt lat="57.469931021332741" lon="-4.23720401711762">
        <ele>8.789999999999999</ele>
        <time>2023-08-28T12:42:37Z</time>
      </trkpt>
      <trkpt lat="57.469235993921757" lon="-4.237687988206744">
        <ele>10.23</ele>
        <time>2023-08-28T12:42:48Z</time>
      </trkpt>
      <trkpt lat="57.468961989507079" lon="-4.237884040921927">
        <ele>11.19</ele>
        <time>2023-08-28T12:42:53Z</time>
      </trkpt>
      <trkpt lat="57.467990024015307" lon="-4.238635981455445">
        <ele>13.119999999999999</ele>
        <time>2023-08-28T12:43:04Z</time>
      </trkpt>
      <trkpt lat="57.466991990804672" lon="-4.239451959729195">
        <ele>12.630000000000001</ele>
        <time>2023-08-28T12:43:16Z</time>
      </trkpt>
      <trkpt lat="57.466339040547609" lon="-4.240038022398949">
        <ele>12.15</ele>
        <time>2023-08-28T12:43:26Z</time>
      </trkpt>
      <trkpt lat="57.465898990631104" lon="-4.240552000701428">
        <ele>13.119999999999999</ele>
        <time>2023-08-28T12:43:34Z</time>
      </trkpt>
      <trkpt lat="57.465620962902904" lon="-4.241045024245977">
        <ele>13.6</ele>
        <time>2023-08-28T12:43:37Z</time>
      </trkpt>
      <trkpt lat="57.465545022860169" lon="-4.241216015070677">
        <ele>14.56</ele>
        <time>2023-08-28T12:43:38Z</time>
      </trkpt>
      <trkpt lat="57.465236987918615" lon="-4.241950018331409">
        <ele>18.399999999999999</ele>
        <time>2023-08-28T12:43:44Z</time>
      </trkpt>
      <trkpt lat="57.465203963220119" lon="-4.242031993344426">
        <ele>18.879999999999999</ele>
        <time>2023-08-28T12:43:45Z</time>
      </trkpt>
      <trkpt lat="57.465084018185735" lon="-4.242031993344426">
        <ele>19.359999999999999</ele>
        <time>2023-08-28T12:43:46Z</time>
      </trkpt>
      <trkpt lat="57.464954014867544" lon="-4.242067029699683">
        <ele>19.84</ele>
        <time>2023-08-28T12:43:48Z</time>
      </trkpt>
      <trkpt lat="57.464899029582739" lon="-4.242149004712701">
        <ele>20.32</ele>
        <time>2023-08-28T12:43:49Z</time>
      </trkpt>
      <trkpt lat="57.464614966884255" lon="-4.242524011060596">
        <ele>22.25</ele>
        <time>2023-08-28T12:43:53Z</time>
      </trkpt>
      <trkpt lat="57.464517988264561" lon="-4.242572039365768">
        <ele>22.73</ele>
        <time>2023-08-28T12:43:54Z</time>
      </trkpt>
      <trkpt lat="57.464412963017821" lon="-4.242625012993813">
        <ele>22.73</ele>
        <time>2023-08-28T12:43:55Z</time>
      </trkpt>
      <trkpt lat="57.464303998276591" lon="-4.242645967751741">
        <ele>22.73</ele>
        <time>2023-08-28T12:43:56Z</time>
      </trkpt>
      <trkpt lat="57.464195033535361" lon="-4.24266298301518">
        <ele>22.73</ele>
        <time>2023-08-28T12:43:57Z</time>
      </trkpt>
      <trkpt lat="57.463737968355417" lon="-4.242687039077282">
        <ele>22.73</ele>
        <time>2023-08-28T12:44:02Z</time>
      </trkpt>
      <trkpt lat="57.463665967807174" lon="-4.24268301576376">
        <ele>22.25</ele>
        <time>2023-08-28T12:44:03Z</time>
      </trkpt>
      <trkpt lat="57.463598996400833" lon="-4.242679998278618">
        <ele>22.25</ele>
        <time>2023-08-28T12:44:04Z</time>
      </trkpt>
      <trkpt lat="57.463495982810855" lon="-4.242460979148746">
        <ele>21.77</ele>
        <time>2023-08-28T12:44:05Z</time>
      </trkpt>
      <trkpt lat="57.463477039709687" lon="-4.242427032440901">
        <ele>20.809999999999999</ele>
        <time>2023-08-28T12:44:07Z</time>
      </trkpt>
      <trkpt lat="57.463320968672633" lon="-4.24234002828598">
        <ele>20.809999999999999</ele>
        <time>2023-08-28T12:44:08Z</time>
      </trkpt>
      <trkpt lat="57.463281992822886" lon="-4.242353020235896">
        <ele>20.32</ele>
        <time>2023-08-28T12:44:09Z</time>
      </trkpt>
      <trkpt lat="57.462446987628937" lon="-4.242958026006818">
        <ele>20.809999999999999</ele>
        <time>2023-08-28T12:44:17Z</time>
      </trkpt>
      <trkpt lat="57.461345018818974" lon="-4.244211036711931">
        <ele>16</ele>
        <time>2023-08-28T12:44:26Z</time>
      </trkpt>
      <trkpt lat="57.460293006151915" lon="-4.246298968791962">
        <ele>14.08</ele>
        <time>2023-08-28T12:44:36Z</time>
      </trkpt>
      <trkpt lat="57.460052026435733" lon="-4.246632987633348">
        <ele>14.08</ele>
        <time>2023-08-28T12:44:38Z</time>
      </trkpt>
      <trkpt lat="57.459919005632401" lon="-4.246758967638016">
        <ele>14.08</ele>
        <time>2023-08-28T12:44:39Z</time>
      </trkpt>
      <trkpt lat="57.45978900231421" lon="-4.246882013976574">
        <ele>14.08</ele>
        <time>2023-08-28T12:44:40Z</time>
      </trkpt>
      <trkpt lat="57.458558036014438" lon="-4.247686006128788">
        <ele>16.960000000000001</ele>
        <time>2023-08-28T12:44:50Z</time>
      </trkpt>
      <trkpt lat="57.458203984424472" lon="-4.247924974188209">
        <ele>18.399999999999999</ele>
        <time>2023-08-28T12:44:55Z</time>
      </trkpt>
      <trkpt lat="57.458168026059866" lon="-4.247950036078692">
        <ele>18.399999999999999</ele>
        <time>2023-08-28T12:44:56Z</time>
      </trkpt>
      <trkpt lat="57.458128966391087" lon="-4.247977025806904">
        <ele>18.399999999999999</ele>
        <time>2023-08-28T12:44:57Z</time>
      </trkpt>
      <trkpt lat="57.45802897028625" lon="-4.247952969744802">
        <ele>18.399999999999999</ele>
        <time>2023-08-28T12:44:58Z</time>
      </trkpt>
      <trkpt lat="57.457982031628489" lon="-4.247870994731784">
        <ele>17.920000000000002</ele>
        <time>2023-08-28T12:44:59Z</time>
      </trkpt>
      <trkpt lat="57.457911036908627" lon="-4.247762029990554">
        <ele>17.920000000000002</ele>
        <time>2023-08-28T12:45:00Z</time>
      </trkpt>
      <trkpt lat="57.457837024703622" lon="-4.247780973091722">
        <ele>17.920000000000002</ele>
        <time>2023-08-28T12:45:01Z</time>
      </trkpt>
      <trkpt lat="57.457764018326998" lon="-4.24779899418354">
        <ele>17.920000000000002</ele>
        <time>2023-08-28T12:45:02Z</time>
      </trkpt>
      <trkpt lat="57.457711966708302" lon="-4.247893961146474">
        <ele>17.920000000000002</ele>
        <time>2023-08-28T12:45:03Z</time>
      </trkpt>
      <trkpt lat="57.4576810374856" lon="-4.247975014150143">
        <ele>17.920000000000002</ele>
        <time>2023-08-28T12:45:04Z</time>
      </trkpt>
      <trkpt lat="57.4576810374856" lon="-4.248140975832939">
        <ele>17.920000000000002</ele>
        <time>2023-08-28T12:45:05Z</time>
      </trkpt>
      <trkpt lat="57.4576810374856" lon="-4.248276008293033">
        <ele>17.920000000000002</ele>
        <time>2023-08-28T12:45:06Z</time>
      </trkpt>
      <trkpt lat="57.457765024155378" lon="-4.248369969427586">
        <ele>17.920000000000002</ele>
        <time>2023-08-28T12:45:07Z</time>
      </trkpt>
      <trkpt lat="57.45785303413868" lon="-4.248650008812547">
        <ele>17.920000000000002</ele>
        <time>2023-08-28T12:45:09Z</time>
      </trkpt>
      <trkpt lat="57.45785303413868" lon="-4.249062985181809">
        <ele>17.920000000000002</ele>
        <time>2023-08-28T12:45:10Z</time>
      </trkpt>
      <trkpt lat="57.457850016653538" lon="-4.249298013746738">
        <ele>17.440000000000001</ele>
        <time>2023-08-28T12:45:11Z</time>
      </trkpt>
      <trkpt lat="57.457827972248197" lon="-4.249528013169766">
        <ele>17.440000000000001</ele>
        <time>2023-08-28T12:45:12Z</time>
      </trkpt>
      <trkpt lat="57.457799976691604" lon="-4.24977301619947">
        <ele>17.440000000000001</ele>
        <time>2023-08-28T12:45:13Z</time>
      </trkpt>
      <trkpt lat="57.457756977528334" lon="-4.250012990087271">
        <ele>16.960000000000001</ele>
        <time>2023-08-28T12:45:14Z</time>
      </trkpt>
      <trkpt lat="57.457713978365064" lon="-4.250255981460214">
        <ele>16.960000000000001</ele>
        <time>2023-08-28T12:45:15Z</time>
      </trkpt>
      <trkpt lat="57.457669973373413" lon="-4.250502996146679">
        <ele>16.48</ele>
        <time>2023-08-28T12:45:16Z</time>
      </trkpt>
      <trkpt lat="57.45761800557375" lon="-4.250744981691241">
        <ele>16.48</ele>
        <time>2023-08-28T12:45:17Z</time>
      </trkpt>
      <trkpt lat="57.457548016682267" lon="-4.250967018306255">
        <ele>16.48</ele>
        <time>2023-08-28T12:45:18Z</time>
      </trkpt>
      <trkpt lat="57.457478027790785" lon="-4.251187965273857">
        <ele>16</ele>
        <time>2023-08-28T12:45:19Z</time>
      </trkpt>
      <trkpt lat="57.456506984308362" lon="-4.253762969747186">
        <ele>14.56</ele>
        <time>2023-08-28T12:45:32Z</time>
      </trkpt>
      <trkpt lat="57.455498976632953" lon="-4.255845034494996">
        <ele>11.19</ele>
        <time>2023-08-28T12:45:43Z</time>
      </trkpt>
      <trkpt lat="57.454304974526167" lon="-4.256787998601794">
        <ele>8.789999999999999</ele>
        <time>2023-08-28T12:45:52Z</time>
      </trkpt>
      <trkpt lat="57.453009970486164" lon="-4.256797973066568">
        <ele>8.789999999999999</ele>
        <time>2023-08-28T12:46:01Z</time>
      </trkpt>
      <trkpt lat="57.452896982431412" lon="-4.256762014701963">
        <ele>9.27</ele>
        <time>2023-08-28T12:46:02Z</time>
      </trkpt>
      <trkpt lat="57.452800003811717" lon="-4.256732007488608">
        <ele>9.75</ele>
        <time>2023-08-28T12:46:03Z</time>
      </trkpt>
      <trkpt lat="57.452681986615062" lon="-4.256473006680608">
        <ele>9.75</ele>
        <time>2023-08-28T12:46:04Z</time>
      </trkpt>
      <trkpt lat="57.452649967744946" lon="-4.256424978375435">
        <ele>9.75</ele>
        <time>2023-08-28T12:46:05Z</time>
      </trkpt>
      <trkpt lat="57.452576961368322" lon="-4.256344009190798">
        <ele>9.75</ele>
        <time>2023-08-28T12:46:06Z</time>
      </trkpt>
      <trkpt lat="57.452483000233769" lon="-4.256344009190798">
        <ele>10.23</ele>
        <time>2023-08-28T12:46:07Z</time>
      </trkpt>
      <trkpt lat="57.452466990798712" lon="-4.256344009190798">
        <ele>10.710000000000001</ele>
        <time>2023-08-28T12:46:08Z</time>
      </trkpt>
      <trkpt lat="57.452235985547304" lon="-4.256359012797475">
        <ele>10.710000000000001</ele>
        <time>2023-08-28T12:46:09Z</time>
      </trkpt>
      <trkpt lat="57.452133977785707" lon="-4.256248036399484">
        <ele>11.19</ele>
        <time>2023-08-28T12:46:10Z</time>
      </trkpt>
      <trkpt lat="57.452024007216096" lon="-4.256129013374448">
        <ele>11.67</ele>
        <time>2023-08-28T12:46:11Z</time>
      </trkpt>
      <trkpt lat="57.451909007504582" lon="-4.25600403919816">
        <ele>11.67</ele>
        <time>2023-08-28T12:46:12Z</time>
      </trkpt>
      <trkpt lat="57.451791996136308" lon="-4.25587696954608">
        <ele>12.15</ele>
        <time>2023-08-28T12:46:13Z</time>
      </trkpt>
      <trkpt lat="57.451675990596414" lon="-4.255751995369792">
        <ele>12.630000000000001</ele>
        <time>2023-08-28T12:46:14Z</time>
      </trkpt>
      <trkpt lat="57.450994038954377" lon="-4.254216011613607">
        <ele>14.08</ele>
        <time>2023-08-28T12:46:22Z</time>
      </trkpt>
      <trkpt lat="57.450630012899637" lon="-4.252193961292505">
        <ele>16</ele>
        <time>2023-08-28T12:46:31Z</time>
      </trkpt>
      <trkpt lat="57.450601011514664" lon="-4.251733962446451">
        <ele>16.48</ele>
        <time>2023-08-28T12:46:34Z</time>
      </trkpt>
      <trkpt lat="57.450624983757734" lon="-4.251593984663487">
        <ele>16.48</ele>
        <time>2023-08-28T12:46:35Z</time>
      </trkpt>
      <trkpt lat="57.450649961829185" lon="-4.251447971910238">
        <ele>16.48</ele>
        <time>2023-08-28T12:46:36Z</time>
      </trkpt>
      <trkpt lat="57.450750963762403" lon="-4.251166004687548">
        <ele>16.960000000000001</ele>
        <time>2023-08-28T12:46:38Z</time>
      </trkpt>
      <trkpt lat="57.450750963762403" lon="-4.251013034954667">
        <ele>16.960000000000001</ele>
        <time>2023-08-28T12:46:39Z</time>
      </trkpt>
      <trkpt lat="57.450695978477597" lon="-4.25087096169591">
        <ele>16.960000000000001</ele>
        <time>2023-08-28T12:46:40Z</time>
      </trkpt>
      <trkpt lat="57.450633030384779" lon="-4.250784041360021">
        <ele>16.960000000000001</ele>
        <time>2023-08-28T12:46:41Z</time>
      </trkpt>
      <trkpt lat="57.450562035664916" lon="-4.250749005004764">
        <ele>16.48</ele>
        <time>2023-08-28T12:46:42Z</time>
      </trkpt>
      <trkpt lat="57.45048500597477" lon="-4.250774988904595">
        <ele>16.48</ele>
        <time>2023-08-28T12:46:43Z</time>
      </trkpt>
      <trkpt lat="57.450433038175106" lon="-4.250851012766361">
        <ele>16.960000000000001</ele>
        <time>2023-08-28T12:46:44Z</time>
      </trkpt>
      <trkpt lat="57.450394984334707" lon="-4.250993002206087">
        <ele>16.960000000000001</ele>
        <time>2023-08-28T12:46:45Z</time>
      </trkpt>
      <trkpt lat="57.450334969907999" lon="-4.25117002800107">
        <ele>17.440000000000001</ele>
        <time>2023-08-28T12:46:47Z</time>
      </trkpt>
      <trkpt lat="57.450264981016517" lon="-4.251319980248809">
        <ele>17.440000000000001</ele>
        <time>2023-08-28T12:46:48Z</time>
      </trkpt>
      <trkpt lat="57.44958302937448" lon="-4.252141993492842">
        <ele>17.440000000000001</ele>
        <time>2023-08-28T12:46:54Z</time>
      </trkpt>
      <trkpt lat="57.449510022997856" lon="-4.252240983769298">
        <ele>16.960000000000001</ele>
        <time>2023-08-28T12:46:55Z</time>
      </trkpt>
      <trkpt lat="57.449209028854966" lon="-4.252648008987308">
        <ele>16.48</ele>
        <time>2023-08-28T12:47:00Z</time>
      </trkpt>
      <trkpt lat="57.449081959202886" lon="-4.252822017297149">
        <ele>15.52</ele>
        <time>2023-08-28T12:47:07Z</time>
      </trkpt>
      <trkpt lat="57.448926977813244" lon="-4.253038018941879">
        <ele>15.039999999999999</ele>
        <time>2023-08-28T12:47:20Z</time>
      </trkpt>
      <trkpt lat="57.448881966993213" lon="-4.253105996176601">
        <ele>15.039999999999999</ele>
        <time>2023-08-28T12:47:21Z</time>
      </trkpt>
      <trkpt lat="57.448826981708407" lon="-4.253186965361238">
        <ele>15.039999999999999</ele>
        <time>2023-08-28T12:47:22Z</time>
      </trkpt>
      <trkpt lat="57.448203032836318" lon="-4.254049966111779">
        <ele>15.52</ele>
        <time>2023-08-28T12:47:29Z</time>
      </trkpt>
      <trkpt lat="57.447254033759236" lon="-4.255365002900362">
        <ele>17.440000000000001</ele>
        <time>2023-08-28T12:47:37Z</time>
      </trkpt>
      <trkpt lat="57.446732008829713" lon="-4.25608903169632">
        <ele>19.359999999999999</ele>
        <time>2023-08-28T12:47:41Z</time>
      </trkpt>
      <trkpt lat="57.445676978677511" lon="-4.257535999640822">
        <ele>21.77</ele>
        <time>2023-08-28T12:47:49Z</time>
      </trkpt>
      <trkpt lat="57.445248998701572" lon="-4.258114015683532">
        <ele>23.210000000000001</ele>
        <time>2023-08-28T12:47:52Z</time>
      </trkpt>
      <trkpt lat="57.444824036210775" lon="-4.258593963459134">
        <ele>25.129999999999999</ele>
        <time>2023-08-28T12:47:55Z</time>
      </trkpt>
      <trkpt lat="57.444667965173721" lon="-4.258765038102865">
        <ele>26.09</ele>
        <time>2023-08-28T12:47:56Z</time>
      </trkpt>
      <trkpt lat="57.443225020542741" lon="-4.260812988504767">
        <ele>33.780000000000001</ele>
        <time>2023-08-28T12:48:05Z</time>
      </trkpt>
      <trkpt lat="57.442007968202233" lon="-4.262362970039249">
        <ele>37.630000000000003</ele>
        <time>2023-08-28T12:48:13Z</time>
      </trkpt>
      <trkpt lat="57.441123006865382" lon="-4.263132009655237">
        <ele>41.469999999999999</ele>
        <time>2023-08-28T12:48:19Z</time>
      </trkpt>
      <trkpt lat="57.440599976107478" lon="-4.263393022119999">
        <ele>42.439999999999998</ele>
        <time>2023-08-28T12:48:22Z</time>
      </trkpt>
      <trkpt lat="57.440409958362579" lon="-4.263530988246203">
        <ele>42.920000000000002</ele>
        <time>2023-08-28T12:48:23Z</time>
      </trkpt>
      <trkpt lat="57.439895980060101" lon="-4.263961985707283">
        <ele>44.359999999999999</ele>
        <time>2023-08-28T12:48:26Z</time>
      </trkpt>
      <trkpt lat="57.438397966325283" lon="-4.265417000278831">
        <ele>50.609999999999999</ele>
        <time>2023-08-28T12:48:35Z</time>
      </trkpt>
      <trkpt lat="57.437156019732356" lon="-4.26717602647841">
        <ele>55.890000000000001</ele>
        <time>2023-08-28T12:48:43Z</time>
      </trkpt>
      <trkpt lat="57.435965035110712" lon="-4.269167985767126">
        <ele>59.259999999999998</ele>
        <time>2023-08-28T12:48:51Z</time>
      </trkpt>
      <trkpt lat="57.434536004438996" lon="-4.271862013265491">
        <ele>59.259999999999998</ele>
        <time>2023-08-28T12:49:01Z</time>
      </trkpt>
      <trkpt lat="57.433422971516848" lon="-4.273949023336172">
        <ele>56.859999999999999</ele>
        <time>2023-08-28T12:49:09Z</time>
      </trkpt>
      <trkpt lat="57.432456035166979" lon="-4.275745013728738">
        <ele>54.93</ele>
        <time>2023-08-28T12:49:16Z</time>
      </trkpt>
      <trkpt lat="57.43127703666687" lon="-4.277978036552668">
        <ele>48.68</ele>
        <time>2023-08-28T12:49:24Z</time>
      </trkpt>
      <trkpt lat="57.430860958993435" lon="-4.278790997341275">
        <ele>45.32</ele>
        <time>2023-08-28T12:49:27Z</time>
      </trkpt>
      <trkpt lat="57.429968034848571" lon="-4.280539965257049">
        <ele>42.920000000000002</ele>
        <time>2023-08-28T12:49:34Z</time>
      </trkpt>
      <trkpt lat="57.428746037185192" lon="-4.282912965863943">
        <ele>40.509999999999998</ele>
        <time>2023-08-28T12:49:43Z</time>
      </trkpt>
      <trkpt lat="57.428366001695395" lon="-4.28365501575172">
        <ele>40.030000000000001</ele>
        <time>2023-08-28T12:49:46Z</time>
      </trkpt>
      <trkpt lat="57.428238010033965" lon="-4.283901024609804">
        <ele>40.509999999999998</ele>
        <time>2023-08-28T12:49:47Z</time>
      </trkpt>
      <trkpt lat="57.427853029221296" lon="-4.284646008163691">
        <ele>42.439999999999998</ele>
        <time>2023-08-28T12:49:50Z</time>
      </trkpt>
      <trkpt lat="57.42665802128613" lon="-4.286948014050722">
        <ele>49.649999999999999</ele>
        <time>2023-08-28T12:49:59Z</time>
      </trkpt>
      <trkpt lat="57.425330998376012" lon="-4.289446994662285">
        <ele>55.890000000000001</ele>
        <time>2023-08-28T12:50:09Z</time>
      </trkpt>
      <trkpt lat="57.424259036779404" lon="-4.291455969214439">
        <ele>63.100000000000001</ele>
        <time>2023-08-28T12:50:17Z</time>
      </trkpt>
      <trkpt lat="57.422989010810852" lon="-4.293827963992953">
        <ele>69.349999999999994</ele>
        <time>2023-08-28T12:50:26Z</time>
      </trkpt>
      <trkpt lat="57.422851966693997" lon="-4.294084031134844">
        <ele>69.829999999999998</ele>
        <time>2023-08-28T12:50:27Z</time>
      </trkpt>
      <trkpt lat="57.422174038365483" lon="-4.295260012149811">
        <ele>72.719999999999999</ele>
        <time>2023-08-28T12:50:32Z</time>
      </trkpt>
      <trkpt lat="57.422014027833939" lon="-4.295443994924426">
        <ele>72.719999999999999</ele>
        <time>2023-08-28T12:50:33Z</time>
      </trkpt>
      <trkpt lat="57.420251984149218" lon="-4.297468978911638">
        <ele>76.079999999999998</ele>
        <time>2023-08-28T12:50:44Z</time>
      </trkpt>
      <trkpt lat="57.419085977599025" lon="-4.298808993771672">
        <ele>76.079999999999998</ele>
        <time>2023-08-28T12:50:51Z</time>
      </trkpt>
      <trkpt lat="57.417597016319633" lon="-4.300603978335857">
        <ele>79.450000000000003</ele>
        <time>2023-08-28T12:51:00Z</time>
      </trkpt>
      <trkpt lat="57.416031025350094" lon="-4.302539024502039">
        <ele>82.810000000000002</ele>
        <time>2023-08-28T12:51:10Z</time>
      </trkpt>
      <trkpt lat="57.415908984839916" lon="-4.302688976749778">
        <ele>83.290000000000006</ele>
        <time>2023-08-28T12:51:11Z</time>
      </trkpt>
      <trkpt lat="57.415694994851947" lon="-4.302953006699681">
        <ele>85.209999999999994</ele>
        <time>2023-08-28T12:51:15Z</time>
      </trkpt>
      <trkpt lat="57.415684014558792" lon="-4.302967004477978">
        <ele>85.689999999999998</ele>
        <time>2023-08-28T12:51:16Z</time>
      </trkpt>
      <trkpt lat="57.415639003738761" lon="-4.303022995591164">
        <ele>86.659999999999997</ele>
        <time>2023-08-28T12:51:26Z</time>
      </trkpt>
      <trkpt lat="57.415639003738761" lon="-4.303022995591164">
        <ele>87.140000000000001</ele>
        <time>2023-08-28T12:51:39Z</time>
      </trkpt>
      <trkpt lat="57.415600027889013" lon="-4.303115028887987">
        <ele>86.180000000000007</ele>
        <time>2023-08-28T13:06:29Z</time>
      </trkpt>
      <trkpt lat="57.415587035939097" lon="-4.30310295894742">
        <ele>81.370000000000005</ele>
        <time>2023-08-28T13:07:10Z</time>
      </trkpt>
      <trkpt lat="57.415516963228583" lon="-4.303173031657934">
        <ele>82.329999999999998</ele>
        <time>2023-08-28T13:07:51Z</time>
      </trkpt>
      <trkpt lat="57.415007008239627" lon="-4.303799998015165">
        <ele>82.329999999999998</ele>
        <time>2023-08-28T13:07:58Z</time>
      </trkpt>
      <trkpt lat="57.413916019722819" lon="-4.305118974298239">
        <ele>84.25</ele>
        <time>2023-08-28T13:08:08Z</time>
      </trkpt>
      <trkpt lat="57.412669965997338" lon="-4.306536018848419">
        <ele>88.099999999999994</ele>
        <time>2023-08-28T13:08:18Z</time>
      </trkpt>
      <trkpt lat="57.411507982760668" lon="-4.307858012616634">
        <ele>91.459999999999994</ele>
        <time>2023-08-28T13:08:26Z</time>
      </trkpt>
      <trkpt lat="57.410177020356059" lon="-4.30937304161489">
        <ele>90.980000000000004</ele>
        <time>2023-08-28T13:08:34Z</time>
      </trkpt>
      <trkpt lat="57.408635001629591" lon="-4.311033999547362">
        <ele>91.939999999999998</ele>
        <time>2023-08-28T13:08:43Z</time>
      </trkpt>
      <trkpt lat="57.406775979325175" lon="-4.312893021851778">
        <ele>88.099999999999994</ele>
        <time>2023-08-28T13:08:53Z</time>
      </trkpt>
      <trkpt lat="57.404232993721962" lon="-4.315408011898398">
        <ele>78</ele>
        <time>2023-08-28T13:09:06Z</time>
      </trkpt>
      <trkpt lat="57.4024230055511" lon="-4.317120015621185">
        <ele>75.120000000000005</ele>
        <time>2023-08-28T13:09:16Z</time>
      </trkpt>
      <trkpt lat="57.40223198197782" lon="-4.317243983969092">
        <ele>74.640000000000001</ele>
        <time>2023-08-28T13:09:17Z</time>
      </trkpt>
      <trkpt lat="57.400105996057391" lon="-4.318565977737308">
        <ele>64.069999999999993</ele>
        <time>2023-08-28T13:09:28Z</time>
      </trkpt>
      <trkpt lat="57.398463981226087" lon="-4.318992029875517">
        <ele>50.130000000000003</ele>
        <time>2023-08-28T13:09:36Z</time>
      </trkpt>
      <trkpt lat="57.397400988265872" lon="-4.31917299516499">
        <ele>41.950000000000003</ele>
        <time>2023-08-28T13:09:42Z</time>
      </trkpt>
      <trkpt lat="57.397142993286252" lon="-4.319354966282845">
        <ele>40.030000000000001</ele>
        <time>2023-08-28T13:09:44Z</time>
      </trkpt>
      <trkpt lat="57.397008966654539" lon="-4.319463009014726">
        <ele>39.549999999999997</ele>
        <time>2023-08-28T13:09:45Z</time>
      </trkpt>
      <trkpt lat="57.39567699842155" lon="-4.320629015564919">
        <ele>38.590000000000003</ele>
        <time>2023-08-28T13:09:55Z</time>
      </trkpt>
      <trkpt lat="57.394374031573534" lon="-4.321788987144828">
        <ele>38.109999999999999</ele>
        <time>2023-08-28T13:10:05Z</time>
      </trkpt>
      <trkpt lat="57.393094031140208" lon="-4.323020037263632">
        <ele>38.109999999999999</ele>
        <time>2023-08-28T13:10:14Z</time>
      </trkpt>
      <trkpt lat="57.392962016165257" lon="-4.323208965361118">
        <ele>37.630000000000003</ele>
        <time>2023-08-28T13:10:15Z</time>
      </trkpt>
      <trkpt lat="57.392845004796982" lon="-4.323435025289655">
        <ele>37.149999999999999</ele>
        <time>2023-08-28T13:10:16Z</time>
      </trkpt>
      <trkpt lat="57.39191897213459" lon="-4.325476018711925">
        <ele>33.299999999999997</ele>
        <time>2023-08-28T13:10:24Z</time>
      </trkpt>
      <trkpt lat="57.391648991033435" lon="-4.32591799646616">
        <ele>32.340000000000003</ele>
        <time>2023-08-28T13:10:26Z</time>
      </trkpt>
      <trkpt lat="57.39015500061214" lon="-4.327560011297464">
        <ele>30.420000000000002</ele>
        <time>2023-08-28T13:10:36Z</time>
      </trkpt>
      <trkpt lat="57.389837997034192" lon="-4.327761009335518">
        <ele>30.420000000000002</ele>
        <time>2023-08-28T13:10:38Z</time>
      </trkpt>
      <trkpt lat="57.388255996629596" lon="-4.328226959332824">
        <ele>30.420000000000002</ele>
        <time>2023-08-28T13:10:47Z</time>
      </trkpt>
      <trkpt lat="57.386488001793623" lon="-4.328674972057343">
        <ele>28.5</ele>
        <time>2023-08-28T13:10:58Z</time>
      </trkpt>
      <trkpt lat="57.385590970516205" lon="-4.328919975087047">
        <ele>25.609999999999999</ele>
        <time>2023-08-28T13:11:07Z</time>
      </trkpt>
      <trkpt lat="57.384701985865831" lon="-4.329331023618579">
        <ele>24.170000000000002</ele>
        <time>2023-08-28T13:11:18Z</time>
      </trkpt>
      <trkpt lat="57.383735971525311" lon="-4.330441961064935">
        <ele>22.25</ele>
        <time>2023-08-28T13:11:30Z</time>
      </trkpt>
      <trkpt lat="57.382922004908323" lon="-4.33148299343884">
        <ele>18.879999999999999</ele>
        <time>2023-08-28T13:11:41Z</time>
      </trkpt>
      <trkpt lat="57.382583040744066" lon="-4.33191298507154">
        <ele>18.879999999999999</ele>
        <time>2023-08-28T13:11:46Z</time>
      </trkpt>
      <trkpt lat="57.382517997175455" lon="-4.331989008933306">
        <ele>18.879999999999999</ele>
        <time>2023-08-28T13:11:47Z</time>
      </trkpt>
      <trkpt lat="57.382451025769114" lon="-4.332067966461182">
        <ele>19.359999999999999</ele>
        <time>2023-08-28T13:11:48Z</time>
      </trkpt>
      <trkpt lat="57.38177795894444" lon="-4.332647994160652">
        <ele>20.809999999999999</ele>
        <time>2023-08-28T13:11:57Z</time>
      </trkpt>
      <trkpt lat="57.38169003278017" lon="-4.332679007202387">
        <ele>20.809999999999999</ele>
        <time>2023-08-28T13:11:58Z</time>
      </trkpt>
      <trkpt lat="57.380674984306097" lon="-4.332599965855479">
        <ele>24.649999999999999</ele>
        <time>2023-08-28T13:12:09Z</time>
      </trkpt>
      <trkpt lat="57.380415983498096" lon="-4.332530982792378">
        <ele>26.09</ele>
        <time>2023-08-28T13:12:12Z</time>
      </trkpt>
      <trkpt lat="57.380368961021304" lon="-4.332518996670842">
        <ele>26.09</ele>
        <time>2023-08-28T13:12:13Z</time>
      </trkpt>
      <trkpt lat="57.380284974351525" lon="-4.332553027197719">
        <ele>26.09</ele>
        <time>2023-08-28T13:12:14Z</time>
      </trkpt>
      <trkpt lat="57.380206016823649" lon="-4.332585968077183">
        <ele>26.57</ele>
        <time>2023-08-28T13:12:15Z</time>
      </trkpt>
      <trkpt lat="57.380128987133503" lon="-4.332617986947298">
        <ele>27.050000000000001</ele>
        <time>2023-08-28T13:12:16Z</time>
      </trkpt>
      <trkpt lat="57.379450974985957" lon="-4.332898026332259">
        <ele>32.82</ele>
        <time>2023-08-28T13:12:23Z</time>
      </trkpt>
      <trkpt lat="57.379249976947904" lon="-4.333049990236759">
        <ele>34.740000000000002</ele>
        <time>2023-08-28T13:12:25Z</time>
      </trkpt>
      <trkpt lat="57.378920987248421" lon="-4.33328895829618">
        <ele>37.630000000000003</ele>
        <time>2023-08-28T13:12:28Z</time>
      </trkpt>
      <trkpt lat="57.378786038607359" lon="-4.333348972722888">
        <ele>38.590000000000003</ele>
        <time>2023-08-28T13:12:29Z</time>
      </trkpt>
      <trkpt lat="57.378648994490504" lon="-4.333393983542919">
        <ele>39.549999999999997</ele>
        <time>2023-08-28T13:12:30Z</time>
      </trkpt>
      <trkpt lat="57.378508010879159" lon="-4.333369005471468">
        <ele>40.030000000000001</ele>
        <time>2023-08-28T13:12:31Z</time>
      </trkpt>
      <trkpt lat="57.378353029489517" lon="-4.333342015743256">
        <ele>40.990000000000002</ele>
        <time>2023-08-28T13:12:32Z</time>
      </trkpt>
      <trkpt lat="57.377826981246471" lon="-4.333248976618052">
        <ele>43.880000000000003</ele>
        <time>2023-08-28T13:12:36Z</time>
      </trkpt>
      <trkpt lat="57.377718016505241" lon="-4.333230033516884">
        <ele>44.840000000000003</ele>
        <time>2023-08-28T13:12:37Z</time>
      </trkpt>
      <trkpt lat="57.377579966560006" lon="-4.333204971626401">
        <ele>45.799999999999997</ele>
        <time>2023-08-28T13:12:38Z</time>
      </trkpt>
      <trkpt lat="57.376689976081252" lon="-4.333548964932561">
        <ele>53.969999999999999</ele>
        <time>2023-08-28T13:12:45Z</time>
      </trkpt>
      <trkpt lat="57.376023028045893" lon="-4.33406000956893">
        <ele>59.740000000000002</ele>
        <time>2023-08-28T13:12:50Z</time>
      </trkpt>
      <trkpt lat="57.375884978100657" lon="-4.334170985966921">
        <ele>61.18</ele>
        <time>2023-08-28T13:12:51Z</time>
      </trkpt>
      <trkpt lat="57.375750029459596" lon="-4.334170985966921">
        <ele>62.619999999999997</ele>
        <time>2023-08-28T13:12:52Z</time>
      </trkpt>
      <trkpt lat="57.37460196018219" lon="-4.334253966808319">
        <ele>74.159999999999997</ele>
        <time>2023-08-28T13:13:00Z</time>
      </trkpt>
      <trkpt lat="57.373177036643028" lon="-4.334445996209979">
        <ele>89.060000000000002</ele>
        <time>2023-08-28T13:13:09Z</time>
      </trkpt>
      <trkpt lat="57.371899969875813" lon="-4.334652023389936">
        <ele>100.11</ele>
        <time>2023-08-28T13:13:17Z</time>
      </trkpt>
      <trkpt lat="57.371084997430444" lon="-4.335066005587578">
        <ele>109.25</ele>
        <time>2023-08-28T13:13:22Z</time>
      </trkpt>
      <trkpt lat="57.369728973135352" lon="-4.336093040183187">
        <ele>120.78</ele>
        <time>2023-08-28T13:13:31Z</time>
      </trkpt>
      <trkpt lat="57.368481997400522" lon="-4.336928967386484">
        <ele>130.40000000000001</ele>
        <time>2023-08-28T13:13:41Z</time>
      </trkpt>
      <trkpt lat="57.367869028821588" lon="-4.337268015369773">
        <ele>137.13</ele>
        <time>2023-08-28T13:13:47Z</time>
      </trkpt>
      <trkpt lat="57.367751011624932" lon="-4.337336998432875">
        <ele>139.05000000000001</ele>
        <time>2023-08-28T13:13:50Z</time>
      </trkpt>
      <trkpt lat="57.367751011624932" lon="-4.337336998432875">
        <ele>140.00999999999999</ele>
        <time>2023-08-28T13:13:51Z</time>
      </trkpt>
      <trkpt lat="57.367714969441295" lon="-4.337358037009835">
        <ele>141.44999999999999</ele>
        <time>2023-08-28T13:13:59Z</time>
      </trkpt>
      <trkpt lat="57.367655960842967" lon="-4.337392989546061">
        <ele>142.88999999999999</ele>
        <time>2023-08-28T13:14:11Z</time>
      </trkpt>
      <trkpt lat="57.367655960842967" lon="-4.337392989546061">
        <ele>142.88999999999999</ele>
        <time>2023-08-28T13:14:42Z</time>
      </trkpt>
      <trkpt lat="57.367580020800233" lon="-4.337438000366092">
        <ele>142.88999999999999</ele>
        <time>2023-08-28T13:14:44Z</time>
      </trkpt>
      <trkpt lat="57.36751195974648" lon="-4.33747798204422">
        <ele>141.93000000000001</ele>
        <time>2023-08-28T13:14:45Z</time>
      </trkpt>
      <trkpt lat="57.367426967248321" lon="-4.337528022006154">
        <ele>141.93000000000001</ele>
        <time>2023-08-28T13:14:46Z</time>
      </trkpt>
      <trkpt lat="57.367323031648993" lon="-4.337589964270592">
        <ele>141.44999999999999</ele>
        <time>2023-08-28T13:14:47Z</time>
      </trkpt>
      <trkpt lat="57.367198979482055" lon="-4.337661964818835">
        <ele>141.44999999999999</ele>
        <time>2023-08-28T13:14:48Z</time>
      </trkpt>
      <trkpt lat="57.366179991513491" lon="-4.338262025266886">
        <ele>142.88999999999999</ele>
        <time>2023-08-28T13:14:56Z</time>
      </trkpt>
      <trkpt lat="57.364861015230417" lon="-4.338840041309595">
        <ele>154.43000000000001</ele>
        <time>2023-08-28T13:15:06Z</time>
      </trkpt>
      <trkpt lat="57.363869016990066" lon="-4.339060988277197">
        <ele>165</ele>
        <time>2023-08-28T13:15:14Z</time>
      </trkpt>
      <trkpt lat="57.363392002880573" lon="-4.339170958846808">
        <ele>169.81</ele>
        <time>2023-08-28T13:15:18Z</time>
      </trkpt>
      <trkpt lat="57.36224502325058" lon="-4.339415961876512">
        <ele>180.38</ele>
        <time>2023-08-28T13:15:26Z</time>
      </trkpt>
      <trkpt lat="57.361103994771838" lon="-4.339418979361653">
        <ele>191.44</ele>
        <time>2023-08-28T13:15:33Z</time>
      </trkpt>
      <trkpt lat="57.360985977575183" lon="-4.339370029047132">
        <ele>192.88</ele>
        <time>2023-08-28T13:15:34Z</time>
      </trkpt>
      <trkpt lat="57.360888998955488" lon="-4.339213036000729">
        <ele>193.84</ele>
        <time>2023-08-28T13:15:35Z</time>
      </trkpt>
      <trkpt lat="57.360786991193891" lon="-4.339027963578701">
        <ele>194.80000000000001</ele>
        <time>2023-08-28T13:15:36Z</time>
      </trkpt>
      <trkpt lat="57.360680038109422" lon="-4.338833000510931">
        <ele>195.77000000000001</ele>
        <time>2023-08-28T13:15:37Z</time>
      </trkpt>
      <trkpt lat="57.360454984009266" lon="-4.338461011648178">
        <ele>197.69</ele>
        <time>2023-08-28T13:15:39Z</time>
      </trkpt>
      <trkpt lat="57.360324980691075" lon="-4.338331008329988">
        <ele>198.16999999999999</ele>
        <time>2023-08-28T13:15:40Z</time>
      </trkpt>
      <trkpt lat="57.360197994858027" lon="-4.338204022496939">
        <ele>198.16999999999999</ele>
        <time>2023-08-28T13:15:41Z</time>
      </trkpt>
      <trkpt lat="57.360080983489752" lon="-4.338054992258549">
        <ele>197.69</ele>
        <time>2023-08-28T13:15:42Z</time>
      </trkpt>
      <trkpt lat="57.359974030405283" lon="-4.337884001433849">
        <ele>196.72999999999999</ele>
        <time>2023-08-28T13:15:43Z</time>
      </trkpt>
      <trkpt lat="57.359867999330163" lon="-4.337718961760402">
        <ele>196.25</ele>
        <time>2023-08-28T13:15:44Z</time>
      </trkpt>
      <trkpt lat="57.359430966898799" lon="-4.337052013725042">
        <ele>196.72999999999999</ele>
        <time>2023-08-28T13:15:49Z</time>
      </trkpt>
      <trkpt lat="57.359369024634361" lon="-4.337028041481972">
        <ele>197.21000000000001</ele>
        <time>2023-08-28T13:15:50Z</time>
      </trkpt>
      <trkpt lat="57.359296018257737" lon="-4.337003985419869">
        <ele>197.69</ele>
        <time>2023-08-28T13:15:51Z</time>
      </trkpt>
      <trkpt lat="57.358927968889475" lon="-4.336886974051595">
        <ele>199.61000000000001</ele>
        <time>2023-08-28T13:15:55Z</time>
      </trkpt>
      <trkpt lat="57.358846999704838" lon="-4.336831988766789">
        <ele>200.56999999999999</ele>
        <time>2023-08-28T13:15:56Z</time>
      </trkpt>
      <trkpt lat="57.358777010813355" lon="-4.336761999875307">
        <ele>201.53</ele>
        <time>2023-08-28T13:15:57Z</time>
      </trkpt>
      <trkpt lat="57.358730994164944" lon="-4.336655968800187">
        <ele>202.00999999999999</ele>
        <time>2023-08-28T13:15:58Z</time>
      </trkpt>
      <trkpt lat="57.358712973073125" lon="-4.336524959653616">
        <ele>202.49000000000001</ele>
        <time>2023-08-28T13:15:59Z</time>
      </trkpt>
      <trkpt lat="57.358698975294828" lon="-4.336363021284342">
        <ele>202.97999999999999</ele>
        <time>2023-08-28T13:16:00Z</time>
      </trkpt>
      <trkpt lat="57.358705010265112" lon="-4.336173003539443">
        <ele>203.94</ele>
        <time>2023-08-28T13:16:01Z</time>
      </trkpt>
      <trkpt lat="57.358736023306847" lon="-4.335321988910437">
        <ele>205.86000000000001</ele>
        <time>2023-08-28T13:16:05Z</time>
      </trkpt>
      <trkpt lat="57.358707021921873" lon="-4.335161978378892">
        <ele>206.34</ele>
        <time>2023-08-28T13:16:06Z</time>
      </trkpt>
      <trkpt lat="57.358648013323545" lon="-4.335053013637662">
        <ele>206.34</ele>
        <time>2023-08-28T13:16:07Z</time>
      </trkpt>
      <trkpt lat="57.358580958098173" lon="-4.334992999210954">
        <ele>206.34</ele>
        <time>2023-08-28T13:16:08Z</time>
      </trkpt>
      <trkpt lat="57.358499988913536" lon="-4.335011020302773">
        <ele>206.34</ele>
        <time>2023-08-28T13:16:09Z</time>
      </trkpt>
      <trkpt lat="57.358411978930235" lon="-4.335035998374224">
        <ele>205.86000000000001</ele>
        <time>2023-08-28T13:16:10Z</time>
      </trkpt>
      <trkpt lat="57.358320029452443" lon="-4.33513599447906">
        <ele>205.86000000000001</ele>
        <time>2023-08-28T13:16:11Z</time>
      </trkpt>
      <trkpt lat="57.358209975063801" lon="-4.335254011675715">
        <ele>205.86000000000001</ele>
        <time>2023-08-28T13:16:12Z</time>
      </trkpt>
      <trkpt lat="57.357276985421777" lon="-4.336200999096036">
        <ele>212.11000000000001</ele>
        <time>2023-08-28T13:16:20Z</time>
      </trkpt>
      <trkpt lat="57.357172966003418" lon="-4.336251961067319">
        <ele>212.59</ele>
        <time>2023-08-28T13:16:21Z</time>
      </trkpt>
      <trkpt lat="57.357057966291904" lon="-4.336261013522744">
        <ele>213.06999999999999</ele>
        <time>2023-08-28T13:16:22Z</time>
      </trkpt>
      <trkpt lat="57.356966016814113" lon="-4.336156994104385">
        <ele>214.03</ele>
        <time>2023-08-28T13:16:23Z</time>
      </trkpt>
      <trkpt lat="57.356857974082232" lon="-4.336033025756478">
        <ele>214.99000000000001</ele>
        <time>2023-08-28T13:16:24Z</time>
      </trkpt>
      <trkpt lat="57.356735011562705" lon="-4.335891958326101">
        <ele>215.94999999999999</ele>
        <time>2023-08-28T13:16:25Z</time>
      </trkpt>
      <trkpt lat="57.356593022122979" lon="-4.335753992199898">
        <ele>216.91</ele>
        <time>2023-08-28T13:16:26Z</time>
      </trkpt>
      <trkpt lat="57.35642597079277" lon="-4.335655001923442">
        <ele>218.36000000000001</ele>
        <time>2023-08-28T13:16:27Z</time>
      </trkpt>
      <trkpt lat="57.355331964790821" lon="-4.334798958152533">
        <ele>230.84999999999999</ele>
        <time>2023-08-28T13:16:34Z</time>
      </trkpt>
      <trkpt lat="57.353069018572569" lon="-4.332870030775666">
        <ele>248.63999999999999</ele>
        <time>2023-08-28T13:16:47Z</time>
      </trkpt>
      <trkpt lat="57.351888008415699" lon="-4.331887001171708">
        <ele>251.52000000000001</ele>
        <time>2023-08-28T13:16:55Z</time>
      </trkpt>
      <trkpt lat="57.350517986342311" lon="-4.331234972923994">
        <ele>252.47999999999999</ele>
        <time>2023-08-28T13:17:04Z</time>
      </trkpt>
      <trkpt lat="57.349964026361704" lon="-4.330968009307981">
        <ele>250.56</ele>
        <time>2023-08-28T13:17:08Z</time>
      </trkpt>
      <trkpt lat="57.349820025265217" lon="-4.330893997102976">
        <ele>250.56</ele>
        <time>2023-08-28T13:17:09Z</time>
      </trkpt>
      <trkpt lat="57.349675018340349" lon="-4.330818979069591">
        <ele>250.56</ele>
        <time>2023-08-28T13:17:10Z</time>
      </trkpt>
      <trkpt lat="57.349536968395114" lon="-4.330711020156741">
        <ele>250.56</ele>
        <time>2023-08-28T13:17:11Z</time>
      </trkpt>
      <trkpt lat="57.349405959248543" lon="-4.330598032101989">
        <ele>251.03999999999999</ele>
        <time>2023-08-28T13:17:12Z</time>
      </trkpt>
      <trkpt lat="57.349284002557397" lon="-4.330490995198488">
        <ele>251.52000000000001</ele>
        <time>2023-08-28T13:17:13Z</time>
      </trkpt>
      <trkpt lat="57.349165985360742" lon="-4.330384964123368">
        <ele>251.52000000000001</ele>
        <time>2023-08-28T13:17:14Z</time>
      </trkpt>
      <trkpt lat="57.349049979820848" lon="-4.330281028524041">
        <ele>251.52000000000001</ele>
        <time>2023-08-28T13:17:15Z</time>
      </trkpt>
      <trkpt lat="57.348937997594476" lon="-4.330182038247585">
        <ele>251.03999999999999</ele>
        <time>2023-08-28T13:17:16Z</time>
      </trkpt>
      <trkpt lat="57.348700035363436" lon="-4.330092016607523">
        <ele>250.56</ele>
        <time>2023-08-28T13:17:18Z</time>
      </trkpt>
      <trkpt lat="57.348563997074962" lon="-4.330051029101014">
        <ele>249.59999999999999</ele>
        <time>2023-08-28T13:17:19Z</time>
      </trkpt>
      <trkpt lat="57.34733697026968" lon="-4.330110959708691">
        <ele>241.91</ele>
        <time>2023-08-28T13:17:27Z</time>
      </trkpt>
      <trkpt lat="57.346917036920786" lon="-4.330157982185483">
        <ele>239.50999999999999</ele>
        <time>2023-08-28T13:17:30Z</time>
      </trkpt>
      <trkpt lat="57.34677798114717" lon="-4.330264013260603">
        <ele>238.53999999999999</ele>
        <time>2023-08-28T13:17:31Z</time>
      </trkpt>
      <trkpt lat="57.346656024456024" lon="-4.330357974395156">
        <ele>237.58000000000001</ele>
        <time>2023-08-28T13:17:32Z</time>
      </trkpt>
      <trkpt lat="57.346529038622975" lon="-4.330465011298657">
        <ele>237.09999999999999</ele>
        <time>2023-08-28T13:17:33Z</time>
      </trkpt>
      <trkpt lat="57.346405992284417" lon="-4.330619992688298">
        <ele>236.13999999999999</ele>
        <time>2023-08-28T13:17:34Z</time>
      </trkpt>
      <trkpt lat="57.346025034785271" lon="-4.331042021512985">
        <ele>236.62</ele>
        <time>2023-08-28T13:17:37Z</time>
      </trkpt>
      <trkpt lat="57.345891008153558" lon="-4.331135982647538">
        <ele>237.09999999999999</ele>
        <time>2023-08-28T13:17:38Z</time>
      </trkpt>
      <trkpt lat="57.345761004835367" lon="-4.331227010115981">
        <ele>237.58000000000001</ele>
        <time>2023-08-28T13:17:39Z</time>
      </trkpt>
      <trkpt lat="57.345637958496809" lon="-4.331351984292269">
        <ele>238.06</ele>
        <time>2023-08-28T13:17:40Z</time>
      </trkpt>
      <trkpt lat="57.345521030947566" lon="-4.331513000652194">
        <ele>238.53999999999999</ele>
        <time>2023-08-28T13:17:41Z</time>
      </trkpt>
      <trkpt lat="57.345404019579291" lon="-4.3316750228405">
        <ele>238.06</ele>
        <time>2023-08-28T13:17:42Z</time>
      </trkpt>
      <trkpt lat="57.345284996554255" lon="-4.331839978694916">
        <ele>238.06</ele>
        <time>2023-08-28T13:17:43Z</time>
      </trkpt>
      <trkpt lat="57.345048962160945" lon="-4.332124963402748">
        <ele>238.06</ele>
        <time>2023-08-28T13:17:45Z</time>
      </trkpt>
      <trkpt lat="57.344925999641418" lon="-4.332236023619771">
        <ele>238.06</ele>
        <time>2023-08-28T13:17:46Z</time>
      </trkpt>
      <trkpt lat="57.344794990494847" lon="-4.332266030833125">
        <ele>238.53999999999999</ele>
        <time>2023-08-28T13:17:47Z</time>
      </trkpt>
      <trkpt lat="57.344103986397386" lon="-4.332445990294218">
        <ele>238.53999999999999</ele>
        <time>2023-08-28T13:17:52Z</time>
      </trkpt>
      <trkpt lat="57.343969959765673" lon="-4.332531988620758">
        <ele>239.02000000000001</ele>
        <time>2023-08-28T13:17:53Z</time>
      </trkpt>
      <trkpt lat="57.343291025608778" lon="-4.332969021052122">
        <ele>239.02000000000001</ele>
        <time>2023-08-28T13:17:58Z</time>
      </trkpt>
      <trkpt lat="57.343174014240503" lon="-4.332947982475162">
        <ele>239.50999999999999</ele>
        <time>2023-08-28T13:17:59Z</time>
      </trkpt>
      <trkpt lat="57.343051973730326" lon="-4.332925016060472">
        <ele>239.50999999999999</ele>
        <time>2023-08-28T13:18:00Z</time>
      </trkpt>
      <trkpt lat="57.342924987897277" lon="-4.332895008847117">
        <ele>239.99000000000001</ele>
        <time>2023-08-28T13:18:01Z</time>
      </trkpt>
      <trkpt lat="57.342794984579086" lon="-4.332834994420409">
        <ele>239.99000000000001</ele>
        <time>2023-08-28T13:18:02Z</time>
      </trkpt>
      <trkpt lat="57.341907005757093" lon="-4.332424029707909">
        <ele>242.38999999999999</ele>
        <time>2023-08-28T13:18:09Z</time>
      </trkpt>
      <trkpt lat="57.34179301187396" lon="-4.332324033603072">
        <ele>242.38999999999999</ele>
        <time>2023-08-28T13:18:10Z</time>
      </trkpt>
      <trkpt lat="57.341689998283982" lon="-4.332178020849824">
        <ele>242.87</ele>
        <time>2023-08-28T13:18:11Z</time>
      </trkpt>
      <trkpt lat="57.341601988300681" lon="-4.332013987004757">
        <ele>243.34999999999999</ele>
        <time>2023-08-28T13:18:12Z</time>
      </trkpt>
      <trkpt lat="57.341543985530734" lon="-4.331799997016788">
        <ele>243.83000000000001</ele>
        <time>2023-08-28T13:18:13Z</time>
      </trkpt>
      <trkpt lat="57.341499980539083" lon="-4.331567985936999">
        <ele>244.78999999999999</ele>
        <time>2023-08-28T13:18:14Z</time>
      </trkpt>
      <trkpt lat="57.341456981375813" lon="-4.331339998170734">
        <ele>245.27000000000001</ele>
        <time>2023-08-28T13:18:15Z</time>
      </trkpt>
      <trkpt lat="57.341397972777486" lon="-4.331141011789441">
        <ele>246.22999999999999</ele>
        <time>2023-08-28T13:18:16Z</time>
      </trkpt>
      <trkpt lat="57.341336030513048" lon="-4.330965997651219">
        <ele>247.19999999999999</ele>
        <time>2023-08-28T13:18:17Z</time>
      </trkpt>
      <trkpt lat="57.341261012479663" lon="-4.330823002383113">
        <ele>247.68000000000001</ele>
        <time>2023-08-28T13:18:18Z</time>
      </trkpt>
      <trkpt lat="57.341170990839601" lon="-4.330685036256909">
        <ele>248.63999999999999</ele>
        <time>2023-08-28T13:18:19Z</time>
      </trkpt>
      <trkpt lat="57.340600015595555" lon="-4.329804014414549">
        <ele>249.12</ele>
        <time>2023-08-28T13:18:25Z</time>
      </trkpt>
      <trkpt lat="57.340492978692055" lon="-4.329685997217894">
        <ele>248.63999999999999</ele>
        <time>2023-08-28T13:18:26Z</time>
      </trkpt>
      <trkpt lat="57.340388037264347" lon="-4.32959103025496">
        <ele>248.63999999999999</ele>
        <time>2023-08-28T13:18:27Z</time>
      </trkpt>
      <trkpt lat="57.340163988992572" lon="-4.32948499917984">
        <ele>247.68000000000001</ele>
        <time>2023-08-28T13:18:29Z</time>
      </trkpt>
      <trkpt lat="57.340044965967536" lon="-4.329438982531428">
        <ele>247.19999999999999</ele>
        <time>2023-08-28T13:18:30Z</time>
      </trkpt>
      <trkpt lat="57.339918985962868" lon="-4.329408975318074">
        <ele>246.72</ele>
        <time>2023-08-28T13:18:31Z</time>
      </trkpt>
      <trkpt lat="57.339254971593618" lon="-4.329480975866318">
        <ele>245.27000000000001</ele>
        <time>2023-08-28T13:18:36Z</time>
      </trkpt>
      <trkpt lat="57.339134020730853" lon="-4.329577032476664">
        <ele>244.31</ele>
        <time>2023-08-28T13:18:37Z</time>
      </trkpt>
      <trkpt lat="57.339000999927521" lon="-4.329681973904371">
        <ele>244.31</ele>
        <time>2023-08-28T13:18:38Z</time>
      </trkpt>
      <trkpt lat="57.338620964437723" lon="-4.329984979704022">
        <ele>244.31</ele>
        <time>2023-08-28T13:18:41Z</time>
      </trkpt>
      <trkpt lat="57.338518034666777" lon="-4.330139039084315">
        <ele>244.78999999999999</ele>
        <time>2023-08-28T13:18:42Z</time>
      </trkpt>
      <trkpt lat="57.338412003591657" lon="-4.330326961353421">
        <ele>245.27000000000001</ele>
        <time>2023-08-28T13:18:43Z</time>
      </trkpt>
      <trkpt lat="57.337991986423731" lon="-4.331071022897959">
        <ele>248.16</ele>
        <time>2023-08-28T13:18:47Z</time>
      </trkpt>
      <trkpt lat="57.337894001975656" lon="-4.331197002902627">
        <ele>248.63999999999999</ele>
        <time>2023-08-28T13:18:48Z</time>
      </trkpt>
      <trkpt lat="57.337773973122239" lon="-4.331232039257884">
        <ele>249.59999999999999</ele>
        <time>2023-08-28T13:18:49Z</time>
      </trkpt>
      <trkpt lat="57.33764698728919" lon="-4.33126799762249">
        <ele>249.59999999999999</ele>
        <time>2023-08-28T13:18:50Z</time>
      </trkpt>
      <trkpt lat="57.337514972314239" lon="-4.331305967643857">
        <ele>250.08000000000001</ele>
        <time>2023-08-28T13:18:51Z</time>
      </trkpt>
      <trkpt lat="57.337157987058163" lon="-4.331416022032499">
        <ele>251.03999999999999</ele>
        <time>2023-08-28T13:18:54Z</time>
      </trkpt>
      <trkpt lat="57.337047010660172" lon="-4.33150302618742">
        <ele>251.03999999999999</ele>
        <time>2023-08-28T13:18:55Z</time>
      </trkpt>
      <trkpt lat="57.336924970149994" lon="-4.331598998978734">
        <ele>251.03999999999999</ele>
        <time>2023-08-28T13:18:56Z</time>
      </trkpt>
      <trkpt lat="57.336793961003423" lon="-4.331723973155022">
        <ele>251.03999999999999</ele>
        <time>2023-08-28T13:18:57Z</time>
      </trkpt>
      <trkpt lat="57.336653983220458" lon="-4.331870991736651">
        <ele>251.03999999999999</ele>
        <time>2023-08-28T13:18:58Z</time>
      </trkpt>
      <trkpt lat="57.335240039974451" lon="-4.333269009366632">
        <ele>251.52000000000001</ele>
        <time>2023-08-28T13:19:07Z</time>
      </trkpt>
      <trkpt lat="57.334210993722081" lon="-4.334305012598634">
        <ele>253.44</ele>
        <time>2023-08-28T13:19:14Z</time>
      </trkpt>
      <trkpt lat="57.333290996029973" lon="-4.33556598611176">
        <ele>254.41</ele>
        <time>2023-08-28T13:19:21Z</time>
      </trkpt>
      <trkpt lat="57.333194017410278" lon="-4.335825992748141">
        <ele>253.93000000000001</ele>
        <time>2023-08-28T13:19:22Z</time>
      </trkpt>
      <trkpt lat="57.332085007801652" lon="-4.338682964444161">
        <ele>247.19999999999999</ele>
        <time>2023-08-28T13:19:32Z</time>
      </trkpt>
      <trkpt lat="57.330934004858136" lon="-4.340981030836701">
        <ele>241.91</ele>
        <time>2023-08-28T13:19:41Z</time>
      </trkpt>
      <trkpt lat="57.329850979149342" lon="-4.342822032049298">
        <ele>237.09999999999999</ele>
        <time>2023-08-28T13:19:49Z</time>
      </trkpt>
      <trkpt lat="57.32956700026989" lon="-4.343337016180158">
        <ele>236.13999999999999</ele>
        <time>2023-08-28T13:19:52Z</time>
      </trkpt>
      <trkpt lat="57.32950204052031" lon="-4.343512030318379">
        <ele>235.66</ele>
        <time>2023-08-28T13:19:53Z</time>
      </trkpt>
      <trkpt lat="57.329341024160385" lon="-4.34394302777946">
        <ele>235.18000000000001</ele>
        <time>2023-08-28T13:19:55Z</time>
      </trkpt>
      <trkpt lat="57.329248990863562" lon="-4.344189958646894">
        <ele>235.18000000000001</ele>
        <time>2023-08-28T13:19:56Z</time>
      </trkpt>
      <trkpt lat="57.328883958980441" lon="-4.344849027693272">
        <ele>235.18000000000001</ele>
        <time>2023-08-28T13:19:59Z</time>
      </trkpt>
      <trkpt lat="57.328317007049918" lon="-4.345781011506915">
        <ele>235.66</ele>
        <time>2023-08-28T13:20:04Z</time>
      </trkpt>
      <trkpt lat="57.328238971531391" lon="-4.346004975959659">
        <ele>235.66</ele>
        <time>2023-08-28T13:20:05Z</time>
      </trkpt>
      <trkpt lat="57.328165965154767" lon="-4.346260037273169">
        <ele>236.13999999999999</ele>
        <time>2023-08-28T13:20:06Z</time>
      </trkpt>
      <trkpt lat="57.328008972108364" lon="-4.346811985597014">
        <ele>236.13999999999999</ele>
        <time>2023-08-28T13:20:08Z</time>
      </trkpt>
      <trkpt lat="57.327923979610205" lon="-4.347109040245414">
        <ele>236.13999999999999</ele>
        <time>2023-08-28T13:20:09Z</time>
      </trkpt>
      <trkpt lat="57.327215038239956" lon="-4.34882297180593">
        <ele>235.66</ele>
        <time>2023-08-28T13:20:16Z</time>
      </trkpt>
      <trkpt lat="57.327120993286371" lon="-4.349039979279041">
        <ele>236.13999999999999</ele>
        <time>2023-08-28T13:20:17Z</time>
      </trkpt>
      <trkpt lat="57.327065002173185" lon="-4.349299985915422">
        <ele>236.13999999999999</ele>
        <time>2023-08-28T13:20:18Z</time>
      </trkpt>
      <trkpt lat="57.327009011059999" lon="-4.349591005593538">
        <ele>236.13999999999999</ele>
        <time>2023-08-28T13:20:19Z</time>
      </trkpt>
      <trkpt lat="57.326519005000591" lon="-4.351615989580751">
        <ele>236.62</ele>
        <time>2023-08-28T13:20:26Z</time>
      </trkpt>
      <trkpt lat="57.326276013627648" lon="-4.35251897200942">
        <ele>237.58000000000001</ele>
        <time>2023-08-28T13:20:31Z</time>
      </trkpt>
      <trkpt lat="57.326250029727817" lon="-4.352655010297895">
        <ele>237.58000000000001</ele>
        <time>2023-08-28T13:20:32Z</time>
      </trkpt>
      <trkpt lat="57.326198983937502" lon="-4.352927003055811">
        <ele>238.06</ele>
        <time>2023-08-28T13:20:34Z</time>
      </trkpt>
      <trkpt lat="57.326168976724148" lon="-4.353087013587356">
        <ele>238.06</ele>
        <time>2023-08-28T13:20:35Z</time>
      </trkpt>
      <trkpt lat="57.326136035844684" lon="-4.353264039382339">
        <ele>238.06</ele>
        <time>2023-08-28T13:20:36Z</time>
      </trkpt>
      <trkpt lat="57.326102005317807" lon="-4.35344198718667">
        <ele>238.06</ele>
        <time>2023-08-28T13:20:37Z</time>
      </trkpt>
      <trkpt lat="57.326024975627661" lon="-4.353618007153273">
        <ele>238.06</ele>
        <time>2023-08-28T13:20:38Z</time>
      </trkpt>
      <trkpt lat="57.325939983129501" lon="-4.353812970221043">
        <ele>238.53999999999999</ele>
        <time>2023-08-28T13:20:39Z</time>
      </trkpt>
      <trkpt lat="57.325849961489439" lon="-4.35402000322938">
        <ele>238.53999999999999</ele>
        <time>2023-08-28T13:20:40Z</time>
      </trkpt>
      <trkpt lat="57.325756000354886" lon="-4.35423499904573">
        <ele>238.53999999999999</ele>
        <time>2023-08-28T13:20:41Z</time>
      </trkpt>
      <trkpt lat="57.325658015906811" lon="-4.354458963498473">
        <ele>238.53999999999999</ele>
        <time>2023-08-28T13:20:42Z</time>
      </trkpt>
      <trkpt lat="57.32557000592351" lon="-4.354702960699797">
        <ele>238.53999999999999</ele>
        <time>2023-08-28T13:20:43Z</time>
      </trkpt>
      <trkpt lat="57.32550697401166" lon="-4.3549860175699">
        <ele>238.06</ele>
        <time>2023-08-28T13:20:44Z</time>
      </trkpt>
      <trkpt lat="57.3254410084337" lon="-4.355281982570887">
        <ele>238.06</ele>
        <time>2023-08-28T13:20:45Z</time>
      </trkpt>
      <trkpt lat="57.325129033997655" lon="-4.356384035199881">
        <ele>238.06</ele>
        <time>2023-08-28T13:20:49Z</time>
      </trkpt>
      <trkpt lat="57.325025014579296" lon="-4.356615962460637">
        <ele>238.06</ele>
        <time>2023-08-28T13:20:50Z</time>
      </trkpt>
      <trkpt lat="57.324914038181305" lon="-4.356824001297355">
        <ele>238.06</ele>
        <time>2023-08-28T13:20:51Z</time>
      </trkpt>
      <trkpt lat="57.324808007106185" lon="-4.357020976021886">
        <ele>238.53999999999999</ele>
        <time>2023-08-28T13:20:52Z</time>
      </trkpt>
      <trkpt lat="57.324684038758278" lon="-4.357178974896669">
        <ele>239.02000000000001</ele>
        <time>2023-08-28T13:20:53Z</time>
      </trkpt>
      <trkpt lat="57.324558980762959" lon="-4.357309984043241">
        <ele>239.50999999999999</ele>
        <time>2023-08-28T13:20:54Z</time>
      </trkpt>
      <trkpt lat="57.324436018243432" lon="-4.357436969876289">
        <ele>239.99000000000001</ele>
        <time>2023-08-28T13:20:55Z</time>
      </trkpt>
      <trkpt lat="57.324319006875157" lon="-4.357559010386467">
        <ele>240.47</ele>
        <time>2023-08-28T13:20:56Z</time>
      </trkpt>
      <trkpt lat="57.324214987456799" lon="-4.357679039239883">
        <ele>240.94999999999999</ele>
        <time>2023-08-28T13:20:57Z</time>
      </trkpt>
      <trkpt lat="57.323715006932616" lon="-4.358455035835505">
        <ele>242.87</ele>
        <time>2023-08-28T13:21:03Z</time>
      </trkpt>
      <trkpt lat="57.323634959757328" lon="-4.358561988919973">
        <ele>243.34999999999999</ele>
        <time>2023-08-28T13:21:04Z</time>
      </trkpt>
      <trkpt lat="57.323489030823112" lon="-4.358757035806775">
        <ele>243.83000000000001</ele>
        <time>2023-08-28T13:21:06Z</time>
      </trkpt>
      <trkpt lat="57.323360033333302" lon="-4.358948981389403">
        <ele>243.83000000000001</ele>
        <time>2023-08-28T13:21:11Z</time>
      </trkpt>
      <trkpt lat="57.323343018069863" lon="-4.358975971117616">
        <ele>244.31</ele>
        <time>2023-08-28T13:21:23Z</time>
      </trkpt>
      <trkpt lat="57.323321979492903" lon="-4.359011007472873">
        <ele>244.31</ele>
        <time>2023-08-28T13:21:24Z</time>
      </trkpt>
      <trkpt lat="57.323283003643155" lon="-4.359074961394072">
        <ele>244.31</ele>
        <time>2023-08-28T13:21:25Z</time>
      </trkpt>
      <trkpt lat="57.323230030015111" lon="-4.359163977205753">
        <ele>244.31</ele>
        <time>2023-08-28T13:21:26Z</time>
      </trkpt>
      <trkpt lat="57.323166998103261" lon="-4.359269002452493">
        <ele>244.31</ele>
        <time>2023-08-28T13:21:27Z</time>
      </trkpt>
      <trkpt lat="57.322587976232171" lon="-4.36022998765111">
        <ele>243.34999999999999</ele>
        <time>2023-08-28T13:21:33Z</time>
      </trkpt>
      <trkpt lat="57.321803011000156" lon="-4.361868984997273">
        <ele>241.43000000000001</ele>
        <time>2023-08-28T13:21:40Z</time>
      </trkpt>
      <trkpt lat="57.321733022108674" lon="-4.362106025218964">
        <ele>241.91</ele>
        <time>2023-08-28T13:21:41Z</time>
      </trkpt>
      <trkpt lat="57.321697985753417" lon="-4.362364020198584">
        <ele>242.38999999999999</ele>
        <time>2023-08-28T13:21:42Z</time>
      </trkpt>
      <trkpt lat="57.321559013798833" lon="-4.363196007907391">
        <ele>243.34999999999999</ele>
        <time>2023-08-28T13:21:45Z</time>
      </trkpt>
      <trkpt lat="57.321480978280306" lon="-4.363434975966811">
        <ele>243.34999999999999</ele>
        <time>2023-08-28T13:21:46Z</time>
      </trkpt>
      <trkpt lat="57.321387017145753" lon="-4.363662963733077">
        <ele>244.31</ele>
        <time>2023-08-28T13:21:47Z</time>
      </trkpt>
      <trkpt lat="57.321265982463956" lon="-4.363837977871299">
        <ele>244.78999999999999</ele>
        <time>2023-08-28T13:21:48Z</time>
      </trkpt>
      <trkpt lat="57.321138996630907" lon="-4.364016009494662">
        <ele>244.78999999999999</ele>
        <time>2023-08-28T13:21:49Z</time>
      </trkpt>
      <trkpt lat="57.320884019136429" lon="-4.36433301307261">
        <ele>244.78999999999999</ele>
        <time>2023-08-28T13:21:51Z</time>
      </trkpt>
      <trkpt lat="57.320742029696703" lon="-4.364451030269265">
        <ele>244.78999999999999</ele>
        <time>2023-08-28T13:21:52Z</time>
      </trkpt>
      <trkpt lat="57.320308014750481" lon="-4.364815978333354">
        <ele>245.27000000000001</ele>
        <time>2023-08-28T13:21:55Z</time>
      </trkpt>
      <trkpt lat="57.319906018674374" lon="-4.365253010764718">
        <ele>246.72</ele>
        <time>2023-08-28T13:21:58Z</time>
      </trkpt>
      <trkpt lat="57.319785989820957" lon="-4.365315036848187">
        <ele>247.19999999999999</ele>
        <time>2023-08-28T13:21:59Z</time>
      </trkpt>
      <trkpt lat="57.319673001766205" lon="-4.365287041291595">
        <ele>247.19999999999999</ele>
        <time>2023-08-28T13:22:00Z</time>
      </trkpt>
      <trkpt lat="57.319549033418298" lon="-4.365219986066222">
        <ele>247.19999999999999</ele>
        <time>2023-08-28T13:22:01Z</time>
      </trkpt>
      <trkpt lat="57.319438979029655" lon="-4.365062993019819">
        <ele>246.72</ele>
        <time>2023-08-28T13:22:02Z</time>
      </trkpt>
      <trkpt lat="57.31931802816689" lon="-4.364888984709978">
        <ele>246.72</ele>
        <time>2023-08-28T13:22:03Z</time>
      </trkpt>
      <trkpt lat="57.319208979606628" lon="-4.364660996943712">
        <ele>247.19999999999999</ele>
        <time>2023-08-28T13:22:04Z</time>
      </trkpt>
      <trkpt lat="57.31910596601665" lon="-4.364410964772105">
        <ele>247.19999999999999</ele>
        <time>2023-08-28T13:22:05Z</time>
      </trkpt>
      <trkpt lat="57.319009993225336" lon="-4.364127991721034">
        <ele>246.72</ele>
        <time>2023-08-28T13:22:06Z</time>
      </trkpt>
      <trkpt lat="57.318734982982278" lon="-4.363385019823909">
        <ele>245.75</ele>
        <time>2023-08-28T13:22:09Z</time>
      </trkpt>
      <trkpt lat="57.318639010190964" lon="-4.363230038434267">
        <ele>245.75</ele>
        <time>2023-08-28T13:22:10Z</time>
      </trkpt>
      <trkpt lat="57.318528033792973" lon="-4.363191984593868">
        <ele>245.27000000000001</ele>
        <time>2023-08-28T13:22:11Z</time>
      </trkpt>
      <trkpt lat="57.318398030474782" lon="-4.36315200291574">
        <ele>244.31</ele>
        <time>2023-08-28T13:22:12Z</time>
      </trkpt>
      <trkpt lat="57.318255035206676" lon="-4.363107997924089">
        <ele>243.34999999999999</ele>
        <time>2023-08-28T13:22:13Z</time>
      </trkpt>
      <trkpt lat="57.318098964169621" lon="-4.363060975447297">
        <ele>242.38999999999999</ele>
        <time>2023-08-28T13:22:14Z</time>
      </trkpt>
      <trkpt lat="57.317934008315206" lon="-4.363010013476014">
        <ele>240.94999999999999</ele>
        <time>2023-08-28T13:22:15Z</time>
      </trkpt>
      <trkpt lat="57.316581001505256" lon="-4.361915001645684">
        <ele>228.93000000000001</ele>
        <time>2023-08-28T13:22:23Z</time>
      </trkpt>
      <trkpt lat="57.314376980066299" lon="-4.360023038461804">
        <ele>214.99000000000001</ele>
        <time>2023-08-28T13:22:35Z</time>
      </trkpt>
      <trkpt lat="57.312776958569884" lon="-4.359539989382029">
        <ele>207.78</ele>
        <time>2023-08-28T13:22:43Z</time>
      </trkpt>
      <trkpt lat="57.311577005311847" lon="-4.359274031594396">
        <ele>206.81999999999999</ele>
        <time>2023-08-28T13:22:50Z</time>
      </trkpt>
      <trkpt lat="57.31100401841104" lon="-4.358715964481235">
        <ele>208.74000000000001</ele>
        <time>2023-08-28T13:22:54Z</time>
      </trkpt>
      <trkpt lat="57.310872003436089" lon="-4.35849099420011">
        <ele>209.22</ele>
        <time>2023-08-28T13:22:55Z</time>
      </trkpt>
      <trkpt lat="57.31063898652792" lon="-4.357938962057233">
        <ele>210.19</ele>
        <time>2023-08-28T13:22:57Z</time>
      </trkpt>
      <trkpt lat="57.310525998473167" lon="-4.357641991227865">
        <ele>210.66999999999999</ele>
        <time>2023-08-28T13:22:58Z</time>
      </trkpt>
      <trkpt lat="57.31042499653995" lon="-4.357324987649918">
        <ele>211.15000000000001</ele>
        <time>2023-08-28T13:22:59Z</time>
      </trkpt>
      <trkpt lat="57.310366993770003" lon="-4.356976971030235">
        <ele>211.63</ele>
        <time>2023-08-28T13:23:00Z</time>
      </trkpt>
      <trkpt lat="57.310309996828437" lon="-4.356637001037598">
        <ele>212.11000000000001</ele>
        <time>2023-08-28T13:23:01Z</time>
      </trkpt>
      <trkpt lat="57.31027303263545" lon="-4.356263000518084">
        <ele>212.59</ele>
        <time>2023-08-28T13:23:02Z</time>
      </trkpt>
      <trkpt lat="57.309901965782046" lon="-4.353758990764618">
        <ele>215.94999999999999</ele>
        <time>2023-08-28T13:23:09Z</time>
      </trkpt>
      <trkpt lat="57.30980196967721" lon="-4.35344098135829">
        <ele>216.43000000000001</ele>
        <time>2023-08-28T13:23:10Z</time>
      </trkpt>
      <trkpt lat="57.309684958308935" lon="-4.353126995265484">
        <ele>216.91</ele>
        <time>2023-08-28T13:23:11Z</time>
      </trkpt>
      <trkpt lat="57.309086993336678" lon="-4.351755967363715">
        <ele>217.88</ele>
        <time>2023-08-28T13:23:16Z</time>
      </trkpt>
      <trkpt lat="57.308953972533345" lon="-4.351521022617817">
        <ele>217.88</ele>
        <time>2023-08-28T13:23:17Z</time>
      </trkpt>
      <trkpt lat="57.30879102833569" lon="-4.35133402235806">
        <ele>218.36000000000001</ele>
        <time>2023-08-28T13:23:18Z</time>
      </trkpt>
      <trkpt lat="57.308612996712327" lon="-4.351168982684612">
        <ele>218.84</ele>
        <time>2023-08-28T13:23:19Z</time>
      </trkpt>
      <trkpt lat="57.308420967310667" lon="-4.351036967709661">
        <ele>219.31999999999999</ele>
        <time>2023-08-28T13:23:20Z</time>
      </trkpt>
      <trkpt lat="57.308223992586136" lon="-4.350979970768094">
        <ele>219.31999999999999</ele>
        <time>2023-08-28T13:23:21Z</time>
      </trkpt>
      <trkpt lat="57.308026012033224" lon="-4.350923979654908">
        <ele>220.28</ele>
        <time>2023-08-28T13:23:22Z</time>
      </trkpt>
      <trkpt lat="57.307811016216874" lon="-4.350950969383121">
        <ele>220.75999999999999</ele>
        <time>2023-08-28T13:23:23Z</time>
      </trkpt>
      <trkpt lat="57.307614041492343" lon="-4.351005032658577">
        <ele>221.24000000000001</ele>
        <time>2023-08-28T13:23:24Z</time>
      </trkpt>
      <trkpt lat="57.307412959635258" lon="-4.351101005449891">
        <ele>221.72</ele>
        <time>2023-08-28T13:23:25Z</time>
      </trkpt>
      <trkpt lat="57.30722201988101" lon="-4.351241989061236">
        <ele>222.68000000000001</ele>
        <time>2023-08-28T13:23:26Z</time>
      </trkpt>
      <trkpt lat="57.307026972994208" lon="-4.351385990157723">
        <ele>223.16</ele>
        <time>2023-08-28T13:23:27Z</time>
      </trkpt>
      <trkpt lat="57.305254032835364" lon="-4.352746959775686">
        <ele>227.49000000000001</ele>
        <time>2023-08-28T13:23:36Z</time>
      </trkpt>
      <trkpt lat="57.303823996335268" lon="-4.353894023224711">
        <ele>228.44999999999999</ele>
        <time>2023-08-28T13:23:44Z</time>
      </trkpt>
      <trkpt lat="57.302614990621805" lon="-4.354821983724833">
        <ele>231.33000000000001</ele>
        <time>2023-08-28T13:23:51Z</time>
      </trkpt>
      <trkpt lat="57.302233027294278" lon="-4.355087019503117">
        <ele>232.30000000000001</ele>
        <time>2023-08-28T13:23:53Z</time>
      </trkpt>
      <trkpt lat="57.300729984417558" lon="-4.355966029688716">
        <ele>234.69999999999999</ele>
        <time>2023-08-28T13:24:01Z</time>
      </trkpt>
      <trkpt lat="57.299597002565861" lon="-4.356438014656305">
        <ele>233.25999999999999</ele>
        <time>2023-08-28T13:24:08Z</time>
      </trkpt>
      <trkpt lat="57.299018986523151" lon="-4.356487970799208">
        <ele>230.37</ele>
        <time>2023-08-28T13:24:13Z</time>
      </trkpt>
      <trkpt lat="57.298222035169601" lon="-4.356572041288018">
        <ele>228.93000000000001</ele>
        <time>2023-08-28T13:24:19Z</time>
      </trkpt>
      <trkpt lat="57.2967179864645" lon="-4.356601964682341">
        <ele>226.05000000000001</ele>
        <time>2023-08-28T13:24:27Z</time>
      </trkpt>
      <trkpt lat="57.296014996245503" lon="-4.356501968577504">
        <ele>227.49000000000001</ele>
        <time>2023-08-28T13:24:31Z</time>
      </trkpt>
      <trkpt lat="57.295851968228817" lon="-4.356425022706389">
        <ele>227.97</ele>
        <time>2023-08-28T13:24:32Z</time>
      </trkpt>
      <trkpt lat="57.295712996274233" lon="-4.356270041316748">
        <ele>228.44999999999999</ele>
        <time>2023-08-28T13:24:33Z</time>
      </trkpt>
      <trkpt lat="57.295585004612803" lon="-4.356064014136791">
        <ele>229.41</ele>
        <time>2023-08-28T13:24:34Z</time>
      </trkpt>
      <trkpt lat="57.295471010729671" lon="-4.355858992785215">
        <ele>230.84999999999999</ele>
        <time>2023-08-28T13:24:35Z</time>
      </trkpt>
      <trkpt lat="57.295269006863236" lon="-4.355535032227635">
        <ele>232.30000000000001</ele>
        <time>2023-08-28T13:24:37Z</time>
      </trkpt>
      <trkpt lat="57.2951690107584" lon="-4.355423972010613">
        <ele>233.25999999999999</ele>
        <time>2023-08-28T13:24:38Z</time>
      </trkpt>
      <trkpt lat="57.295059040188789" lon="-4.355413997545838">
        <ele>233.74000000000001</ele>
        <time>2023-08-28T13:24:39Z</time>
      </trkpt>
      <trkpt lat="57.294902969151735" lon="-4.355413997545838">
        <ele>234.22</ele>
        <time>2023-08-28T13:24:40Z</time>
      </trkpt>
      <trkpt lat="57.294786963611841" lon="-4.355477029457688">
        <ele>234.69999999999999</ele>
        <time>2023-08-28T13:24:41Z</time>
      </trkpt>
      <trkpt lat="57.294623013585806" lon="-4.355565961450338">
        <ele>235.18000000000001</ele>
        <time>2023-08-28T13:24:42Z</time>
      </trkpt>
      <trkpt lat="57.293477039784193" lon="-4.355982961133122">
        <ele>239.02000000000001</ele>
        <time>2023-08-28T13:24:48Z</time>
      </trkpt>
      <trkpt lat="57.293146960437298" lon="-4.356051022186875">
        <ele>239.99000000000001</ele>
        <time>2023-08-28T13:24:50Z</time>
      </trkpt>
      <trkpt lat="57.292994996532798" lon="-4.355992013588548">
        <ele>240.94999999999999</ele>
        <time>2023-08-28T13:24:51Z</time>
      </trkpt>
      <trkpt lat="57.292830962687731" lon="-4.355928981676698">
        <ele>241.43000000000001</ele>
        <time>2023-08-28T13:24:52Z</time>
      </trkpt>
      <trkpt lat="57.292494010180235" lon="-4.355798978358507">
        <ele>242.38999999999999</ele>
        <time>2023-08-28T13:24:54Z</time>
      </trkpt>
      <trkpt lat="57.292323019355536" lon="-4.355736030265689">
        <ele>242.38999999999999</ele>
        <time>2023-08-28T13:24:55Z</time>
      </trkpt>
      <trkpt lat="57.291309982538223" lon="-4.355756985023618">
        <ele>243.83000000000001</ele>
        <time>2023-08-28T13:25:01Z</time>
      </trkpt>
      <trkpt lat="57.291142009198666" lon="-4.355686996132135">
        <ele>243.83000000000001</ele>
        <time>2023-08-28T13:25:02Z</time>
      </trkpt>
      <trkpt lat="57.289965022355318" lon="-4.355203025043011">
        <ele>243.83000000000001</ele>
        <time>2023-08-28T13:25:09Z</time>
      </trkpt>
      <trkpt lat="57.289837030693889" lon="-4.355272008106113">
        <ele>243.34999999999999</ele>
        <time>2023-08-28T13:25:10Z</time>
      </trkpt>
      <trkpt lat="57.289711972698569" lon="-4.355360018089414">
        <ele>242.87</ele>
        <time>2023-08-28T13:25:11Z</time>
      </trkpt>
      <trkpt lat="57.289599990472198" lon="-4.355535032227635">
        <ele>242.38999999999999</ele>
        <time>2023-08-28T13:25:12Z</time>
      </trkpt>
      <trkpt lat="57.289480967447162" lon="-4.355722032487392">
        <ele>241.91</ele>
        <time>2023-08-28T13:25:13Z</time>
      </trkpt>
      <trkpt lat="57.289351969957352" lon="-4.355924036353827">
        <ele>241.91</ele>
        <time>2023-08-28T13:25:14Z</time>
      </trkpt>
      <trkpt lat="57.289064973592758" lon="-4.356356961652637">
        <ele>240.94999999999999</ele>
        <time>2023-08-28T13:25:16Z</time>
      </trkpt>
      <trkpt lat="57.28889599442482" lon="-4.356509009376168">
        <ele>239.99000000000001</ele>
        <time>2023-08-28T13:25:17Z</time>
      </trkpt>
      <trkpt lat="57.28754298761487" lon="-4.35754400677979">
        <ele>234.69999999999999</ele>
        <time>2023-08-28T13:25:25Z</time>
      </trkpt>
      <trkpt lat="57.286315960809588" lon="-4.358041975647211">
        <ele>227.49000000000001</ele>
        <time>2023-08-28T13:25:32Z</time>
      </trkpt>
      <trkpt lat="57.286175983026624" lon="-4.358232999220491">
        <ele>227.00999999999999</ele>
        <time>2023-08-28T13:25:33Z</time>
      </trkpt>
      <trkpt lat="57.286026030778885" lon="-4.358437014743686">
        <ele>226.53</ele>
        <time>2023-08-28T13:25:34Z</time>
      </trkpt>
      <trkpt lat="57.284643016755581" lon="-4.360021026805043">
        <ele>222.19999999999999</ele>
        <time>2023-08-28T13:25:42Z</time>
      </trkpt>
      <trkpt lat="57.282854989171028" lon="-4.362004017457366">
        <ele>218.36000000000001</ele>
        <time>2023-08-28T13:25:52Z</time>
      </trkpt>
      <trkpt lat="57.281829966232181" lon="-4.36325803399086">
        <ele>216.43000000000001</ele>
        <time>2023-08-28T13:25:59Z</time>
      </trkpt>
      <trkpt lat="57.280878033488989" lon="-4.364574998617172">
        <ele>216.43000000000001</ele>
        <time>2023-08-28T13:26:07Z</time>
      </trkpt>
      <trkpt lat="57.279687970876694" lon="-4.366261018440127">
        <ele>216.91</ele>
        <time>2023-08-28T13:26:15Z</time>
      </trkpt>
      <trkpt lat="57.278724974021316" lon="-4.367864979431033">
        <ele>216.91</ele>
        <time>2023-08-28T13:26:22Z</time>
      </trkpt>
      <trkpt lat="57.277883011847734" lon="-4.369483022019267">
        <ele>218.84</ele>
        <time>2023-08-28T13:26:29Z</time>
      </trkpt>
      <trkpt lat="57.277671033516526" lon="-4.369843024760485">
        <ele>219.31999999999999</ele>
        <time>2023-08-28T13:26:31Z</time>
      </trkpt>
      <trkpt lat="57.276783976703882" lon="-4.370844997465611">
        <ele>217.88</ele>
        <time>2023-08-28T13:26:37Z</time>
      </trkpt>
      <trkpt lat="57.276610974222422" lon="-4.371025962755084">
        <ele>217.40000000000001</ele>
        <time>2023-08-28T13:26:38Z</time>
      </trkpt>
      <trkpt lat="57.275406997650862" lon="-4.372396990656853">
        <ele>216.43000000000001</ele>
        <time>2023-08-28T13:26:46Z</time>
      </trkpt>
      <trkpt lat="57.275290992110968" lon="-4.372630007565022">
        <ele>215.94999999999999</ele>
        <time>2023-08-28T13:26:47Z</time>
      </trkpt>
      <trkpt lat="57.274320032447577" lon="-4.374802010133863">
        <ele>214.03</ele>
        <time>2023-08-28T13:26:55Z</time>
      </trkpt>
      <trkpt lat="57.273381007835269" lon="-4.377065962180495">
        <ele>212.11000000000001</ele>
        <time>2023-08-28T13:27:04Z</time>
      </trkpt>
      <trkpt lat="57.272554971277714" lon="-4.379504006356001">
        <ele>208.74000000000001</ele>
        <time>2023-08-28T13:27:12Z</time>
      </trkpt>
      <trkpt lat="57.27177101187408" lon="-4.382076999172568">
        <ele>206.34</ele>
        <time>2023-08-28T13:27:21Z</time>
      </trkpt>
      <trkpt lat="57.271506981924176" lon="-4.382945029065013">
        <ele>206.34</ele>
        <time>2023-08-28T13:27:25Z</time>
      </trkpt>
      <trkpt lat="57.27144998498261" lon="-4.38313202932477">
        <ele>205.86000000000001</ele>
        <time>2023-08-28T13:27:26Z</time>
      </trkpt>
      <trkpt lat="57.271011024713516" lon="-4.384572962298989">
        <ele>204.41999999999999</ele>
        <time>2023-08-28T13:27:35Z</time>
      </trkpt>
      <trkpt lat="57.270584972575307" lon="-4.38596997410059">
        <ele>203.94</ele>
        <time>2023-08-28T13:27:44Z</time>
      </trkpt>
      <trkpt lat="57.270539961755276" lon="-4.386115986853838">
        <ele>203.94</ele>
        <time>2023-08-28T13:27:45Z</time>
      </trkpt>
      <trkpt lat="57.270018020644784" lon="-4.387832013890147">
        <ele>202.97999999999999</ele>
        <time>2023-08-28T13:27:56Z</time>
      </trkpt>
      <trkpt lat="57.269720965996385" lon="-4.3888049852103">
        <ele>202.00999999999999</ele>
        <time>2023-08-28T13:28:02Z</time>
      </trkpt>
      <trkpt lat="57.269664974883199" lon="-4.388988967984915">
        <ele>201.53</ele>
        <time>2023-08-28T13:28:03Z</time>
      </trkpt>
      <trkpt lat="57.269055023789406" lon="-4.391004983335733">
        <ele>202.00999999999999</ele>
        <time>2023-08-28T13:28:13Z</time>
      </trkpt>
      <trkpt lat="57.268969025462866" lon="-4.391475040465593">
        <ele>202.97999999999999</ele>
        <time>2023-08-28T13:28:15Z</time>
      </trkpt>
      <trkpt lat="57.268925020471215" lon="-4.392019025981426">
        <ele>203.94</ele>
        <time>2023-08-28T13:28:17Z</time>
      </trkpt>
      <trkpt lat="57.268917979672551" lon="-4.392312979325652">
        <ele>204.41999999999999</ele>
        <time>2023-08-28T13:28:18Z</time>
      </trkpt>
      <trkpt lat="57.268932983279228" lon="-4.394088014960289">
        <ele>206.34</ele>
        <time>2023-08-28T13:28:25Z</time>
      </trkpt>
      <trkpt lat="57.268938012421131" lon="-4.394257999956608">
        <ele>206.81999999999999</ele>
        <time>2023-08-28T13:28:26Z</time>
      </trkpt>
      <trkpt lat="57.268943041563034" lon="-4.394423039630055">
        <ele>207.78</ele>
        <time>2023-08-28T13:28:27Z</time>
      </trkpt>
      <trkpt lat="57.268947986885905" lon="-4.394582966342568">
        <ele>208.74000000000001</ele>
        <time>2023-08-28T13:28:28Z</time>
      </trkpt>
      <trkpt lat="57.268954021856189" lon="-4.394742976874113">
        <ele>209.22</ele>
        <time>2023-08-28T13:28:29Z</time>
      </trkpt>
      <trkpt lat="57.26895603351295" lon="-4.395017987117171">
        <ele>210.19</ele>
        <time>2023-08-28T13:28:30Z</time>
      </trkpt>
      <trkpt lat="57.268716981634498" lon="-4.395389975979924">
        <ele>210.66999999999999</ele>
        <time>2023-08-28T13:28:31Z</time>
      </trkpt>
      <trkpt lat="57.268468039110303" lon="-4.395497012883425">
        <ele>211.15000000000001</ele>
        <time>2023-08-28T13:28:32Z</time>
      </trkpt>
      <trkpt lat="57.268468039110303" lon="-4.395497012883425">
        <ele>211.63</ele>
        <time>2023-08-28T13:28:33Z</time>
      </trkpt>
      <trkpt lat="57.267946014180779" lon="-4.396279966458678">
        <ele>213.06999999999999</ele>
        <time>2023-08-28T13:28:39Z</time>
      </trkpt>
      <trkpt lat="57.267823973670602" lon="-4.396462021395564">
        <ele>213.55000000000001</ele>
        <time>2023-08-28T13:28:40Z</time>
      </trkpt>
      <trkpt lat="57.267074966803193" lon="-4.397230977192521">
        <ele>213.06999999999999</ele>
        <time>2023-08-28T13:28:47Z</time>
      </trkpt>
      <trkpt lat="57.266970025375485" lon="-4.397339019924402">
        <ele>213.06999999999999</ele>
        <time>2023-08-28T13:28:48Z</time>
      </trkpt>
      <trkpt lat="57.266857959330082" lon="-4.397453013807535">
        <ele>212.59</ele>
        <time>2023-08-28T13:28:49Z</time>
      </trkpt>
      <trkpt lat="57.26674203760922" lon="-4.39757295884192">
        <ele>212.59</ele>
        <time>2023-08-28T13:28:50Z</time>
      </trkpt>
      <trkpt lat="57.266625026240945" lon="-4.397692987695336">
        <ele>212.11000000000001</ele>
        <time>2023-08-28T13:28:51Z</time>
      </trkpt>
      <trkpt lat="57.265494978055358" lon="-4.399254033342004">
        <ele>214.03</ele>
        <time>2023-08-28T13:29:01Z</time>
      </trkpt>
      <trkpt lat="57.264579003676772" lon="-4.400722039863467">
        <ele>214.99000000000001</ele>
        <time>2023-08-28T13:29:09Z</time>
      </trkpt>
      <trkpt lat="57.263872995972633" lon="-4.401474986225367">
        <ele>211.63</ele>
        <time>2023-08-28T13:29:16Z</time>
      </trkpt>
      <trkpt lat="57.262633983045816" lon="-4.402785999700427">
        <ele>212.11000000000001</ele>
        <time>2023-08-28T13:29:25Z</time>
      </trkpt>
      <trkpt lat="57.260873029008508" lon="-4.404764967039228">
        <ele>207.30000000000001</ele>
        <time>2023-08-28T13:29:37Z</time>
      </trkpt>
      <trkpt lat="57.260734979063272" lon="-4.404921038076282">
        <ele>206.34</ele>
        <time>2023-08-28T13:29:38Z</time>
      </trkpt>
      <trkpt lat="57.260314039885998" lon="-4.405394028872252">
        <ele>203.94</ele>
        <time>2023-08-28T13:29:41Z</time>
      </trkpt>
      <trkpt lat="57.26017096079886" lon="-4.405554039403796">
        <ele>203.46000000000001</ele>
        <time>2023-08-28T13:29:42Z</time>
      </trkpt>
      <trkpt lat="57.259016018360853" lon="-4.406851977109909">
        <ele>201.05000000000001</ele>
        <time>2023-08-28T13:29:50Z</time>
      </trkpt>
      <trkpt lat="57.257088012993336" lon="-4.409019034355879">
        <ele>203.46000000000001</ele>
        <time>2023-08-28T13:30:03Z</time>
      </trkpt>
      <trkpt lat="57.255597962066531" lon="-4.411052986979485">
        <ele>207.78</ele>
        <time>2023-08-28T13:30:13Z</time>
      </trkpt>
      <trkpt lat="57.25432600826025" lon="-4.413047041743994">
        <ele>211.15000000000001</ele>
        <time>2023-08-28T13:30:22Z</time>
      </trkpt>
      <trkpt lat="57.253224039450288" lon="-4.414668017998338">
        <ele>210.66999999999999</ele>
        <time>2023-08-28T13:30:30Z</time>
      </trkpt>
      <trkpt lat="57.252966966480017" lon="-4.415047969669104">
        <ele>212.59</ele>
        <time>2023-08-28T13:30:34Z</time>
      </trkpt>
      <trkpt lat="57.252873005345464" lon="-4.415186019614339">
        <ele>212.59</ele>
        <time>2023-08-28T13:30:36Z</time>
      </trkpt>
      <trkpt lat="57.25232700817287" lon="-4.415990011766553">
        <ele>214.03</ele>
        <time>2023-08-28T13:30:42Z</time>
      </trkpt>
      <trkpt lat="57.25138496607542" lon="-4.417375959455967">
        <ele>215.94999999999999</ele>
        <time>2023-08-28T13:30:49Z</time>
      </trkpt>
      <trkpt lat="57.250203033909202" lon="-4.419112019240856">
        <ele>214.99000000000001</ele>
        <time>2023-08-28T13:30:57Z</time>
      </trkpt>
      <trkpt lat="57.249726019799709" lon="-4.419814003631473">
        <ele>213.06999999999999</ele>
        <time>2023-08-28T13:31:01Z</time>
      </trkpt>
      <trkpt lat="57.248828988522291" lon="-4.421175979077816">
        <ele>211.15000000000001</ele>
        <time>2023-08-28T13:31:10Z</time>
      </trkpt>
      <trkpt lat="57.248717006295919" lon="-4.421342024579644">
        <ele>211.15000000000001</ele>
        <time>2023-08-28T13:31:11Z</time>
      </trkpt>
      <trkpt lat="57.24757899530232" lon="-4.423136003315449">
        <ele>208.74000000000001</ele>
        <time>2023-08-28T13:31:22Z</time>
      </trkpt>
      <trkpt lat="57.246802998706698" lon="-4.424508037045598">
        <ele>206.81999999999999</ele>
        <time>2023-08-28T13:31:30Z</time>
      </trkpt>
      <trkpt lat="57.246730998158455" lon="-4.424679027870297">
        <ele>206.81999999999999</ele>
        <time>2023-08-28T13:31:31Z</time>
      </trkpt>
      <trkpt lat="57.246679030358791" lon="-4.42487801425159">
        <ele>206.81999999999999</ele>
        <time>2023-08-28T13:31:32Z</time>
      </trkpt>
      <trkpt lat="57.246627984568477" lon="-4.425068031996489">
        <ele>206.81999999999999</ele>
        <time>2023-08-28T13:31:33Z</time>
      </trkpt>
      <trkpt lat="57.246580962091684" lon="-4.425247991457582">
        <ele>206.34</ele>
        <time>2023-08-28T13:31:34Z</time>
      </trkpt>
      <trkpt lat="57.246399996802211" lon="-4.42593396641314">
        <ele>206.81999999999999</ele>
        <time>2023-08-28T13:31:38Z</time>
      </trkpt>
      <trkpt lat="57.24635498598218" lon="-4.426101017743349">
        <ele>206.81999999999999</ele>
        <time>2023-08-28T13:31:39Z</time>
      </trkpt>
      <trkpt lat="57.245793985202909" lon="-4.42831501364708">
        <ele>208.25999999999999</ele>
        <time>2023-08-28T13:31:51Z</time>
      </trkpt>
      <trkpt lat="57.245746040716767" lon="-4.42851098254323">
        <ele>208.25999999999999</ele>
        <time>2023-08-28T13:31:52Z</time>
      </trkpt>
      <trkpt lat="57.245145980268717" lon="-4.431301988661289">
        <ele>210.66999999999999</ele>
        <time>2023-08-28T13:32:05Z</time>
      </trkpt>
      <trkpt lat="57.24465798586607" lon="-4.433584967628121">
        <ele>211.15000000000001</ele>
        <time>2023-08-28T13:32:15Z</time>
      </trkpt>
      <trkpt lat="57.244264958426356" lon="-4.435347011312842">
        <ele>209.69999999999999</ele>
        <time>2023-08-28T13:32:23Z</time>
      </trkpt>
      <trkpt lat="57.244058009237051" lon="-4.436220992356539">
        <ele>210.19</ele>
        <time>2023-08-28T13:32:27Z</time>
      </trkpt>
      <trkpt lat="57.24366900511086" lon="-4.437500992789865">
        <ele>212.11000000000001</ele>
        <time>2023-08-28T13:32:33Z</time>
      </trkpt>
      <trkpt lat="57.243539001792669" lon="-4.437927966937423">
        <ele>213.06999999999999</ele>
        <time>2023-08-28T13:32:35Z</time>
      </trkpt>
      <trkpt lat="57.243205988779664" lon="-4.43903798237443">
        <ele>214.99000000000001</ele>
        <time>2023-08-28T13:32:40Z</time>
      </trkpt>
      <trkpt lat="57.243138011544943" lon="-4.439265970140696">
        <ele>215.47</ele>
        <time>2023-08-28T13:32:41Z</time>
      </trkpt>
      <trkpt lat="57.242769962176681" lon="-4.440500037744641">
        <ele>217.40000000000001</ele>
        <time>2023-08-28T13:32:48Z</time>
      </trkpt>
      <trkpt lat="57.242740038782358" lon="-4.440601039677858">
        <ele>217.40000000000001</ele>
        <time>2023-08-28T13:32:49Z</time>
      </trkpt>
      <trkpt lat="57.242729980498552" lon="-4.440631968900561">
        <ele>217.88</ele>
        <time>2023-08-28T13:32:50Z</time>
      </trkpt>
      <trkpt lat="57.242715982720256" lon="-4.440678991377354">
        <ele>217.88</ele>
        <time>2023-08-28T13:32:51Z</time>
      </trkpt>
      <trkpt lat="57.242703996598721" lon="-4.440718973055482">
        <ele>218.36000000000001</ele>
        <time>2023-08-28T13:32:52Z</time>
      </trkpt>
      <trkpt lat="57.242695027962327" lon="-4.440749986097217">
        <ele>218.36000000000001</ele>
        <time>2023-08-28T13:32:53Z</time>
      </trkpt>
      <trkpt lat="57.242685975506902" lon="-4.44077898748219">
        <ele>218.84</ele>
        <time>2023-08-28T13:32:54Z</time>
      </trkpt>
      <trkpt lat="57.242671977728605" lon="-4.440822992473841">
        <ele>218.84</ele>
        <time>2023-08-28T13:32:55Z</time>
      </trkpt>
      <trkpt lat="57.242652028799057" lon="-4.440889963880181">
        <ele>219.31999999999999</ele>
        <time>2023-08-28T13:32:56Z</time>
      </trkpt>
      <trkpt lat="57.2426169924438" lon="-4.441004041582346">
        <ele>219.31999999999999</ele>
        <time>2023-08-28T13:32:57Z</time>
      </trkpt>
      <trkpt lat="57.242569969967008" lon="-4.441159022971988">
        <ele>219.31999999999999</ele>
        <time>2023-08-28T13:32:58Z</time>
      </trkpt>
      <trkpt lat="57.24251096136868" lon="-4.441353986039758">
        <ele>219.80000000000001</ele>
        <time>2023-08-28T13:32:59Z</time>
      </trkpt>
      <trkpt lat="57.242294959723949" lon="-4.442062005400658">
        <ele>220.75999999999999</ele>
        <time>2023-08-28T13:33:02Z</time>
      </trkpt>
      <trkpt lat="57.242214996367693" lon="-4.442325029522181">
        <ele>220.75999999999999</ele>
        <time>2023-08-28T13:33:03Z</time>
      </trkpt>
      <trkpt lat="57.241396000608802" lon="-4.445016961544752">
        <ele>220.75999999999999</ele>
        <time>2023-08-28T13:33:13Z</time>
      </trkpt>
      <trkpt lat="57.240643976256251" lon="-4.44743799045682">
        <ele>216.91</ele>
        <time>2023-08-28T13:33:23Z</time>
      </trkpt>
      <trkpt lat="57.239875020459294" lon="-4.449689034372568">
        <ele>214.99000000000001</ele>
        <time>2023-08-28T13:33:32Z</time>
      </trkpt>
      <trkpt lat="57.238840023055673" lon="-4.452149039134383">
        <ele>214.50999999999999</ele>
        <time>2023-08-28T13:33:43Z</time>
      </trkpt>
      <trkpt lat="57.237540995702147" lon="-4.45459202863276">
        <ele>213.55000000000001</ele>
        <time>2023-08-28T13:33:55Z</time>
      </trkpt>
      <trkpt lat="57.23638404160738" lon="-4.456500001251698">
        <ele>217.40000000000001</ele>
        <time>2023-08-28T13:34:05Z</time>
      </trkpt>
      <trkpt lat="57.234951993450522" lon="-4.458795972168446">
        <ele>210.66999999999999</ele>
        <time>2023-08-28T13:34:18Z</time>
      </trkpt>
      <trkpt lat="57.233772994950414" lon="-4.460940985009074">
        <ele>211.15000000000001</ele>
        <time>2023-08-28T13:34:29Z</time>
      </trkpt>
      <trkpt lat="57.233176035806537" lon="-4.462028034031391">
        <ele>211.63</ele>
        <time>2023-08-28T13:34:36Z</time>
      </trkpt>
      <trkpt lat="57.232962967827916" lon="-4.462414020672441">
        <ele>212.59</ele>
        <time>2023-08-28T13:34:42Z</time>
      </trkpt>
      <trkpt lat="57.232457036152482" lon="-4.463335024192929">
        <ele>212.59</ele>
        <time>2023-08-28T13:34:48Z</time>
      </trkpt>
      <trkpt lat="57.231652038171887" lon="-4.464998999610543">
        <ele>213.55000000000001</ele>
        <time>2023-08-28T13:34:57Z</time>
      </trkpt>
      <trkpt lat="57.231454979628325" lon="-4.46544399484992">
        <ele>215.47</ele>
        <time>2023-08-28T13:35:03Z</time>
      </trkpt>
      <trkpt lat="57.231452967971563" lon="-4.465449023991823">
        <ele>216.43000000000001</ele>
        <time>2023-08-28T13:35:13Z</time>
      </trkpt>
      <trkpt lat="57.231417009606957" lon="-4.465557988733053">
        <ele>215.47</ele>
        <time>2023-08-28T13:35:24Z</time>
      </trkpt>
      <trkpt lat="57.231398988515139" lon="-4.465610962361097">
        <ele>215.47</ele>
        <time>2023-08-28T13:35:25Z</time>
      </trkpt>
      <trkpt lat="57.231367975473404" lon="-4.465704001486301">
        <ele>214.99000000000001</ele>
        <time>2023-08-28T13:35:26Z</time>
      </trkpt>
      <trkpt lat="57.231328999623656" lon="-4.465820007026196">
        <ele>214.99000000000001</ele>
        <time>2023-08-28T13:35:27Z</time>
      </trkpt>
      <trkpt lat="57.231284994632006" lon="-4.465953027829528">
        <ele>214.99000000000001</ele>
        <time>2023-08-28T13:35:28Z</time>
      </trkpt>
      <trkpt lat="57.230689041316509" lon="-4.467930989339948">
        <ele>215.47</ele>
        <time>2023-08-28T13:35:40Z</time>
      </trkpt>
      <trkpt lat="57.230168022215366" lon="-4.469531010836363">
        <ele>215.94999999999999</ele>
        <time>2023-08-28T13:35:49Z</time>
      </trkpt>
      <trkpt lat="57.229368975386024" lon="-4.471290037035942">
        <ele>214.99000000000001</ele>
        <time>2023-08-28T13:35:57Z</time>
      </trkpt>
      <trkpt lat="57.227907003834844" lon="-4.474455965682864">
        <ele>210.19</ele>
        <time>2023-08-28T13:36:09Z</time>
      </trkpt>
      <trkpt lat="57.226604958996177" lon="-4.477895982563496">
        <ele>208.74000000000001</ele>
        <time>2023-08-28T13:36:20Z</time>
      </trkpt>
      <trkpt lat="57.225435012951493" lon="-4.480381971225143">
        <ele>204.41999999999999</ele>
        <time>2023-08-28T13:36:28Z</time>
      </trkpt>
      <trkpt lat="57.224755994975567" lon="-4.481869004666805">
        <ele>200.09</ele>
        <time>2023-08-28T13:36:33Z</time>
      </trkpt>
      <trkpt lat="57.224657004699111" lon="-4.482209980487824">
        <ele>199.13</ele>
        <time>2023-08-28T13:36:34Z</time>
      </trkpt>
      <trkpt lat="57.224599001929164" lon="-4.482575012370944">
        <ele>198.65000000000001</ele>
        <time>2023-08-28T13:36:35Z</time>
      </trkpt>
      <trkpt lat="57.224544016644359" lon="-4.482937026768923">
        <ele>198.16999999999999</ele>
        <time>2023-08-28T13:36:36Z</time>
      </trkpt>
      <trkpt lat="57.224490959197283" lon="-4.483284037560225">
        <ele>197.69</ele>
        <time>2023-08-28T13:36:37Z</time>
      </trkpt>
      <trkpt lat="57.22444100305438" lon="-4.483616966754198">
        <ele>197.21000000000001</ele>
        <time>2023-08-28T13:36:38Z</time>
      </trkpt>
      <trkpt lat="57.224352993071079" lon="-4.483935981988907">
        <ele>196.72999999999999</ele>
        <time>2023-08-28T13:36:39Z</time>
      </trkpt>
      <trkpt lat="57.224259031936526" lon="-4.484260026365519">
        <ele>196.25</ele>
        <time>2023-08-28T13:36:40Z</time>
      </trkpt>
      <trkpt lat="57.223061006516218" lon="-4.48750801384449">
        <ele>191.44</ele>
        <time>2023-08-28T13:36:50Z</time>
      </trkpt>
      <trkpt lat="57.221775976940989" lon="-4.490625998005271">
        <ele>183.27000000000001</ele>
        <time>2023-08-28T13:37:00Z</time>
      </trkpt>
      <trkpt lat="57.220913982018828" lon="-4.492238005623221">
        <ele>179.90000000000001</ele>
        <time>2023-08-28T13:37:06Z</time>
      </trkpt>
      <trkpt lat="57.220817003399134" lon="-4.492530031129718">
        <ele>179.41999999999999</ele>
        <time>2023-08-28T13:37:07Z</time>
      </trkpt>
      <trkpt lat="57.220729999244213" lon="-4.492818033322692">
        <ele>178.46000000000001</ele>
        <time>2023-08-28T13:37:08Z</time>
      </trkpt>
      <trkpt lat="57.220647018402815" lon="-4.493093965575099">
        <ele>177.97999999999999</ele>
        <time>2023-08-28T13:37:09Z</time>
      </trkpt>
      <trkpt lat="57.220566971227527" lon="-4.493356989696622">
        <ele>177.5</ele>
        <time>2023-08-28T13:37:10Z</time>
      </trkpt>
      <trkpt lat="57.220163969323039" lon="-4.494401961565018">
        <ele>175.09999999999999</ele>
        <time>2023-08-28T13:37:15Z</time>
      </trkpt>
      <trkpt lat="57.220061039552093" lon="-4.494563983753324">
        <ele>175.09999999999999</ele>
        <time>2023-08-28T13:37:16Z</time>
      </trkpt>
      <trkpt lat="57.219831040129066" lon="-4.494880987331271">
        <ele>174.62</ele>
        <time>2023-08-28T13:37:18Z</time>
      </trkpt>
      <trkpt lat="57.219696007668972" lon="-4.495016019791365">
        <ele>174.62</ele>
        <time>2023-08-28T13:37:19Z</time>
      </trkpt>
      <trkpt lat="57.219557035714388" lon="-4.495154991745949">
        <ele>174.62</ele>
        <time>2023-08-28T13:37:20Z</time>
      </trkpt>
      <trkpt lat="57.219400964677334" lon="-4.495269991457462">
        <ele>174.62</ele>
        <time>2023-08-28T13:37:21Z</time>
      </trkpt>
      <trkpt lat="57.219236008822918" lon="-4.495366970077157">
        <ele>174.62</ele>
        <time>2023-08-28T13:37:22Z</time>
      </trkpt>
      <trkpt lat="57.219059988856316" lon="-4.495436958968639">
        <ele>174.62</ele>
        <time>2023-08-28T13:37:23Z</time>
      </trkpt>
      <trkpt lat="57.218879023566842" lon="-4.495464032515883">
        <ele>174.62</ele>
        <time>2023-08-28T13:37:24Z</time>
      </trkpt>
      <trkpt lat="57.218707026913762" lon="-4.495490016415715">
        <ele>174.13999999999999</ele>
        <time>2023-08-28T13:37:25Z</time>
      </trkpt>
      <trkpt lat="57.21850804053247" lon="-4.495439976453781">
        <ele>174.13999999999999</ele>
        <time>2023-08-28T13:37:26Z</time>
      </trkpt>
      <trkpt lat="57.218325985595584" lon="-4.49539496563375">
        <ele>174.13999999999999</ele>
        <time>2023-08-28T13:37:27Z</time>
      </trkpt>
      <trkpt lat="57.217423003166914" lon="-4.495172007009387">
        <ele>175.09999999999999</ele>
        <time>2023-08-28T13:37:33Z</time>
      </trkpt>
      <trkpt lat="57.216370990499854" lon="-4.494975032284856">
        <ele>176.53999999999999</ele>
        <time>2023-08-28T13:37:39Z</time>
      </trkpt>
      <trkpt lat="57.216193964704871" lon="-4.494995987042785">
        <ele>176.53999999999999</ele>
        <time>2023-08-28T13:37:40Z</time>
      </trkpt>
      <trkpt lat="57.216015011072159" lon="-4.495080979540944">
        <ele>177.02000000000001</ele>
        <time>2023-08-28T13:37:41Z</time>
      </trkpt>
      <trkpt lat="57.213665982708335" lon="-4.496198035776615">
        <ele>181.83000000000001</ele>
        <time>2023-08-28T13:37:53Z</time>
      </trkpt>
      <trkpt lat="57.210828959941864" lon="-4.49751902371645">
        <ele>190</ele>
        <time>2023-08-28T13:38:08Z</time>
      </trkpt>
      <trkpt lat="57.209229022264481" lon="-4.497976005077362">
        <ele>195.77000000000001</ele>
        <time>2023-08-28T13:38:17Z</time>
      </trkpt>
      <trkpt lat="57.209065994247794" lon="-4.498053034767509">
        <ele>195.77000000000001</ele>
        <time>2023-08-28T13:38:18Z</time>
      </trkpt>
      <trkpt lat="57.208895003423095" lon="-4.498179014772177">
        <ele>195.77000000000001</ele>
        <time>2023-08-28T13:38:19Z</time>
      </trkpt>
      <trkpt lat="57.207045033574104" lon="-4.499546019360423">
        <ele>195.28</ele>
        <time>2023-08-28T13:38:29Z</time>
      </trkpt>
      <trkpt lat="57.206015987321734" lon="-4.500310029834509">
        <ele>196.72999999999999</ele>
        <time>2023-08-28T13:38:36Z</time>
      </trkpt>
      <trkpt lat="57.205352978780866" lon="-4.500902965664864">
        <ele>196.25</ele>
        <time>2023-08-28T13:38:42Z</time>
      </trkpt>
      <trkpt lat="57.205248037353158" lon="-4.501063982024789">
        <ele>196.72999999999999</ele>
        <time>2023-08-28T13:38:43Z</time>
      </trkpt>
      <trkpt lat="57.204376989975572" lon="-4.502598037943244">
        <ele>196.25</ele>
        <time>2023-08-28T13:38:52Z</time>
      </trkpt>
      <trkpt lat="57.20396501943469" lon="-4.503416027873755">
        <ele>195.28</ele>
        <time>2023-08-28T13:38:57Z</time>
      </trkpt>
      <trkpt lat="57.203898970037699" lon="-4.503576960414648">
        <ele>195.28</ele>
        <time>2023-08-28T13:38:58Z</time>
      </trkpt>
      <trkpt lat="57.20338499173522" lon="-4.505606973543763">
        <ele>196.25</ele>
        <time>2023-08-28T13:39:08Z</time>
      </trkpt>
      <trkpt lat="57.202775962650776" lon="-4.507292993366718">
        <ele>198.16999999999999</ele>
        <time>2023-08-28T13:39:17Z</time>
      </trkpt>
      <trkpt lat="57.201906004920602" lon="-4.508998962119222">
        <ele>201.53</ele>
        <time>2023-08-28T13:39:25Z</time>
      </trkpt>
      <trkpt lat="57.200791966170073" lon="-4.510014010593295">
        <ele>202.97999999999999</ele>
        <time>2023-08-28T13:39:32Z</time>
      </trkpt>
      <trkpt lat="57.200620975345373" lon="-4.510118030011654">
        <ele>202.97999999999999</ele>
        <time>2023-08-28T13:39:33Z</time>
      </trkpt>
      <trkpt lat="57.199790999293327" lon="-4.510689005255699">
        <ele>204.90000000000001</ele>
        <time>2023-08-28T13:39:38Z</time>
      </trkpt>
      <trkpt lat="57.199640041217208" lon="-4.510859996080399">
        <ele>205.38</ele>
        <time>2023-08-28T13:39:39Z</time>
      </trkpt>
      <trkpt lat="57.199288001284003" lon="-4.511260986328125">
        <ele>205.86000000000001</ele>
        <time>2023-08-28T13:39:41Z</time>
      </trkpt>
      <trkpt lat="57.198739992454648" lon="-4.512124992907047">
        <ele>205.86000000000001</ele>
        <time>2023-08-28T13:39:45Z</time>
      </trkpt>
      <trkpt lat="57.1985939797014" lon="-4.512354992330074">
        <ele>205.38</ele>
        <time>2023-08-28T13:39:46Z</time>
      </trkpt>
      <trkpt lat="57.198455007746816" lon="-4.512574011459947">
        <ele>204.90000000000001</ele>
        <time>2023-08-28T13:39:47Z</time>
      </trkpt>
      <trkpt lat="57.197442976757884" lon="-4.514170009642839">
        <ele>203.46000000000001</ele>
        <time>2023-08-28T13:39:54Z</time>
      </trkpt>
      <trkpt lat="57.197318002581596" lon="-4.514366984367371">
        <ele>202.97999999999999</ele>
        <time>2023-08-28T13:39:55Z</time>
      </trkpt>
      <trkpt lat="57.197193028405309" lon="-4.514563959091902">
        <ele>202.97999999999999</ele>
        <time>2023-08-28T13:39:56Z</time>
      </trkpt>
      <trkpt lat="57.195800961926579" lon="-4.51696403324604">
        <ele>205.38</ele>
        <time>2023-08-28T13:40:06Z</time>
      </trkpt>
      <trkpt lat="57.194782979786396" lon="-4.519141986966133">
        <ele>211.15000000000001</ele>
        <time>2023-08-28T13:40:14Z</time>
      </trkpt>
      <trkpt lat="57.194636967033148" lon="-4.519373998045921">
        <ele>212.11000000000001</ele>
        <time>2023-08-28T13:40:15Z</time>
      </trkpt>
      <trkpt lat="57.192852040752769" lon="-4.521796032786369">
        <ele>214.03</ele>
        <time>2023-08-28T13:40:26Z</time>
      </trkpt>
      <trkpt lat="57.191188987344503" lon="-4.524052022024989">
        <ele>215.47</ele>
        <time>2023-08-28T13:40:36Z</time>
      </trkpt>
      <trkpt lat="57.189226029440761" lon="-4.526715958490968">
        <ele>217.40000000000001</ele>
        <time>2023-08-28T13:40:48Z</time>
      </trkpt>
      <trkpt lat="57.186970040202141" lon="-4.529759008437395">
        <ele>222.19999999999999</ele>
        <time>2023-08-28T13:41:02Z</time>
      </trkpt>
      <trkpt lat="57.185024013742805" lon="-4.532319009304047">
        <ele>233.25999999999999</ele>
        <time>2023-08-28T13:41:14Z</time>
      </trkpt>
      <trkpt lat="57.183635970577598" lon="-4.534134026616812">
        <ele>241.43000000000001</ele>
        <time>2023-08-28T13:41:23Z</time>
      </trkpt>
      <trkpt lat="57.182148015126586" lon="-4.535368010401726">
        <ele>250.56</ele>
        <time>2023-08-28T13:41:32Z</time>
      </trkpt>
      <trkpt lat="57.180369039997458" lon="-4.536721017211676">
        <ele>266.89999999999998</ele>
        <time>2023-08-28T13:41:42Z</time>
      </trkpt>
      <trkpt lat="57.178828027099371" lon="-4.538481971248984">
        <ele>276.51999999999998</ele>
        <time>2023-08-28T13:41:51Z</time>
      </trkpt>
      <trkpt lat="57.17766797170043" lon="-4.540364965796471">
        <ele>283.73000000000002</ele>
        <time>2023-08-28T13:41:59Z</time>
      </trkpt>
      <trkpt lat="57.176783010363579" lon="-4.542598994448781">
        <ele>293.81999999999999</ele>
        <time>2023-08-28T13:42:07Z</time>
      </trkpt>
      <trkpt lat="57.175752036273479" lon="-4.545300984755158">
        <ele>307.75999999999999</ele>
        <time>2023-08-28T13:42:17Z</time>
      </trkpt>
      <trkpt lat="57.175653968006372" lon="-4.545485973358154">
        <ele>308.72000000000003</ele>
        <time>2023-08-28T13:42:18Z</time>
      </trkpt>
      <trkpt lat="57.175528993830085" lon="-4.545638021081686">
        <ele>309.68000000000001</ele>
        <time>2023-08-28T13:42:19Z</time>
      </trkpt>
      <trkpt lat="57.174128964543343" lon="-4.54732202924788">
        <ele>314.00999999999999</ele>
        <time>2023-08-28T13:42:28Z</time>
      </trkpt>
      <trkpt lat="57.172216968610883" lon="-4.549598973244429">
        <ele>320.74000000000001</ele>
        <time>2023-08-28T13:42:39Z</time>
      </trkpt>
      <trkpt lat="57.169555965811014" lon="-4.552765991538763">
        <ele>332.75</ele>
        <time>2023-08-28T13:42:54Z</time>
      </trkpt>
      <trkpt lat="57.166713997721672" lon="-4.556150017306209">
        <ele>345.25</ele>
        <time>2023-08-28T13:43:10Z</time>
      </trkpt>
      <trkpt lat="57.16447401791811" lon="-4.558781012892723">
        <ele>357.75</ele>
        <time>2023-08-28T13:43:23Z</time>
      </trkpt>
      <trkpt lat="57.163309017196298" lon="-4.560057995840907">
        <ele>362.55000000000001</ele>
        <time>2023-08-28T13:43:30Z</time>
      </trkpt>
      <trkpt lat="57.163111958652735" lon="-4.560166960582137">
        <ele>362.55000000000001</ele>
        <time>2023-08-28T13:43:31Z</time>
      </trkpt>
      <trkpt lat="57.162905009463429" lon="-4.560254970565438">
        <ele>362.55000000000001</ele>
        <time>2023-08-28T13:43:32Z</time>
      </trkpt>
      <trkpt lat="57.161493999883533" lon="-4.56098604016006">
        <ele>364.95999999999998</ele>
        <time>2023-08-28T13:43:39Z</time>
      </trkpt>
      <trkpt lat="57.161332983523607" lon="-4.561114031821489">
        <ele>366.39999999999998</ele>
        <time>2023-08-28T13:43:40Z</time>
      </trkpt>
      <trkpt lat="57.161199040710926" lon="-4.561274964362383">
        <ele>367.36000000000001</ele>
        <time>2023-08-28T13:43:41Z</time>
      </trkpt>
      <trkpt lat="57.161092003807425" lon="-4.561476968228817">
        <ele>368.31999999999999</ele>
        <time>2023-08-28T13:43:42Z</time>
      </trkpt>
      <trkpt lat="57.160995025187731" lon="-4.561722977086902">
        <ele>369.75999999999999</ele>
        <time>2023-08-28T13:43:43Z</time>
      </trkpt>
      <trkpt lat="57.160894023254514" lon="-4.561978960409761">
        <ele>371.69</ele>
        <time>2023-08-28T13:43:44Z</time>
      </trkpt>
      <trkpt lat="57.160129006952047" lon="-4.563863966614008">
        <ele>385.63</ele>
        <time>2023-08-28T13:43:51Z</time>
      </trkpt>
      <trkpt lat="57.160011995583773" lon="-4.564012996852398">
        <ele>387.55000000000001</ele>
        <time>2023-08-28T13:43:52Z</time>
      </trkpt>
      <trkpt lat="57.159906970337033" lon="-4.564148029312491">
        <ele>388.99000000000001</ele>
        <time>2023-08-28T13:43:53Z</time>
      </trkpt>
      <trkpt lat="57.159462980926037" lon="-4.564714981243014">
        <ele>397.16000000000003</ele>
        <time>2023-08-28T13:43:59Z</time>
      </trkpt>
      <trkpt lat="57.159400032833219" lon="-4.564795028418303">
        <ele>398.60000000000002</ele>
        <time>2023-08-28T13:44:00Z</time>
      </trkpt>
      <trkpt lat="57.158705005422235" lon="-4.565965980291367">
        <ele>402.44999999999999</ele>
        <time>2023-08-28T13:44:09Z</time>
      </trkpt>
      <trkpt lat="57.157919034361839" lon="-4.567631967365742">
        <ele>398.60000000000002</ele>
        <time>2023-08-28T13:44:17Z</time>
      </trkpt>
      <trkpt lat="57.156630987301469" lon="-4.570557000115514">
        <ele>386.11000000000001</ele>
        <time>2023-08-28T13:44:28Z</time>
      </trkpt>
      <trkpt lat="57.156296968460083" lon="-4.571432992815971">
        <ele>381.30000000000001</ele>
        <time>2023-08-28T13:44:31Z</time>
      </trkpt>
      <trkpt lat="57.15622597374022" lon="-4.571745973080397">
        <ele>379.86000000000001</ele>
        <time>2023-08-28T13:44:32Z</time>
      </trkpt>
      <trkpt lat="57.156164031475782" lon="-4.572049984708428">
        <ele>378.42000000000002</ele>
        <time>2023-08-28T13:44:33Z</time>
      </trkpt>
      <trkpt lat="57.155528012663126" lon="-4.575326973572373">
        <ele>365.44</ele>
        <time>2023-08-28T13:44:43Z</time>
      </trkpt>
      <trkpt lat="57.154926024377346" lon="-4.578427020460367">
        <ele>354.38</ele>
        <time>2023-08-28T13:44:52Z</time>
      </trkpt>
      <trkpt lat="57.154150027781725" lon="-4.582503978163004">
        <ele>344.29000000000002</ele>
        <time>2023-08-28T13:45:04Z</time>
      </trkpt>
      <trkpt lat="57.153618028387427" lon="-4.585669990628958">
        <ele>334.19999999999999</ele>
        <time>2023-08-28T13:45:13Z</time>
      </trkpt>
      <trkpt lat="57.15349699370563" lon="-4.586642039939761">
        <ele>330.35000000000002</ele>
        <time>2023-08-28T13:45:16Z</time>
      </trkpt>
      <trkpt lat="57.15349699370563" lon="-4.586949991062284">
        <ele>329.38999999999999</ele>
        <time>2023-08-28T13:45:17Z</time>
      </trkpt>
      <trkpt lat="57.153506968170404" lon="-4.587275041267276">
        <ele>328.91000000000003</ele>
        <time>2023-08-28T13:45:18Z</time>
      </trkpt>
      <trkpt lat="57.153629008680582" lon="-4.589534970000386">
        <ele>328.91000000000003</ele>
        <time>2023-08-28T13:45:25Z</time>
      </trkpt>
      <trkpt lat="57.15366899035871" lon="-4.591279998421669">
        <ele>325.54000000000002</ele>
        <time>2023-08-28T13:45:32Z</time>
      </trkpt>
      <trkpt lat="57.153568994253874" lon="-4.592304015532136">
        <ele>323.62</ele>
        <time>2023-08-28T13:45:37Z</time>
      </trkpt>
      <trkpt lat="57.153523983433843" lon="-4.592494033277035">
        <ele>323.13999999999999</ele>
        <time>2023-08-28T13:45:38Z</time>
      </trkpt>
      <trkpt lat="57.153462041169405" lon="-4.592693019658327">
        <ele>322.18000000000001</ele>
        <time>2023-08-28T13:45:39Z</time>
      </trkpt>
      <trkpt lat="57.15321796014905" lon="-4.593484019860625">
        <ele>318.81</ele>
        <time>2023-08-28T13:45:43Z</time>
      </trkpt>
      <trkpt lat="57.153184013441205" lon="-4.593698009848595">
        <ele>317.85000000000002</ele>
        <time>2023-08-28T13:45:44Z</time>
      </trkpt>
      <trkpt lat="57.15308996848762" lon="-4.594747005030513">
        <ele>312.08999999999997</ele>
        <time>2023-08-28T13:45:49Z</time>
      </trkpt>
      <trkpt lat="57.15302400290966" lon="-4.594923024997115">
        <ele>310.63999999999999</ele>
        <time>2023-08-28T13:45:50Z</time>
      </trkpt>
      <trkpt lat="57.1529580373317" lon="-4.595097033306956">
        <ele>309.19999999999999</ele>
        <time>2023-08-28T13:45:51Z</time>
      </trkpt>
      <trkpt lat="57.152888970449567" lon="-4.595274981111288">
        <ele>307.27999999999997</ele>
        <time>2023-08-28T13:45:52Z</time>
      </trkpt>
      <trkpt lat="57.152792997658253" lon="-4.595403978601098">
        <ele>305.36000000000001</ele>
        <time>2023-08-28T13:45:53Z</time>
      </trkpt>
      <trkpt lat="57.152689984068274" lon="-4.595520989969373">
        <ele>303.43000000000001</ele>
        <time>2023-08-28T13:45:54Z</time>
      </trkpt>
      <trkpt lat="57.152581019327044" lon="-4.59564495831728">
        <ele>301.50999999999999</ele>
        <time>2023-08-28T13:45:55Z</time>
      </trkpt>
      <trkpt lat="57.152469959110022" lon="-4.59577102214098">
        <ele>300.55000000000001</ele>
        <time>2023-08-28T13:45:56Z</time>
      </trkpt>
      <trkpt lat="57.152387984097004" lon="-4.595903037115932">
        <ele>299.11000000000001</ele>
        <time>2023-08-28T13:45:57Z</time>
      </trkpt>
      <trkpt lat="57.152329981327057" lon="-4.596124989911914">
        <ele>298.63</ele>
        <time>2023-08-28T13:45:58Z</time>
      </trkpt>
      <trkpt lat="57.152266027405858" lon="-4.596365969628096">
        <ele>297.67000000000002</ele>
        <time>2023-08-28T13:45:59Z</time>
      </trkpt>
      <trkpt lat="57.152196960523725" lon="-4.596627987921238">
        <ele>297.18000000000001</ele>
        <time>2023-08-28T13:46:00Z</time>
      </trkpt>
      <trkpt lat="57.151909964159131" lon="-4.597714031115174">
        <ele>296.22000000000003</ele>
        <time>2023-08-28T13:46:04Z</time>
      </trkpt>
      <trkpt lat="57.151778033003211" lon="-4.597917962819338">
        <ele>295.74000000000001</ele>
        <time>2023-08-28T13:46:05Z</time>
      </trkpt>
      <trkpt lat="57.151664961129427" lon="-4.59809297695756">
        <ele>295.74000000000001</ele>
        <time>2023-08-28T13:46:06Z</time>
      </trkpt>
      <trkpt lat="57.151548033580184" lon="-4.598275031894445">
        <ele>295.25999999999999</ele>
        <time>2023-08-28T13:46:07Z</time>
      </trkpt>
      <trkpt lat="57.151459017768502" lon="-4.5984570030123">
        <ele>295.25999999999999</ele>
        <time>2023-08-28T13:46:08Z</time>
      </trkpt>
      <trkpt lat="57.151394980028272" lon="-4.598689014092088">
        <ele>295.25999999999999</ele>
        <time>2023-08-28T13:46:09Z</time>
      </trkpt>
      <trkpt lat="57.151328008621931" lon="-4.598932005465031">
        <ele>295.25999999999999</ele>
        <time>2023-08-28T13:46:10Z</time>
      </trkpt>
      <trkpt lat="57.151259025558829" lon="-4.599180025979877">
        <ele>295.25999999999999</ele>
        <time>2023-08-28T13:46:11Z</time>
      </trkpt>
      <trkpt lat="57.151181995868683" lon="-4.599416982382536">
        <ele>295.25999999999999</ele>
        <time>2023-08-28T13:46:12Z</time>
      </trkpt>
      <trkpt lat="57.151059033349156" lon="-4.599600965157151">
        <ele>294.77999999999997</ele>
        <time>2023-08-28T13:46:13Z</time>
      </trkpt>
      <trkpt lat="57.150930035859346" lon="-4.599796012043953">
        <ele>294.77999999999997</ele>
        <time>2023-08-28T13:46:14Z</time>
      </trkpt>
      <trkpt lat="57.150796009227633" lon="-4.599996004253626">
        <ele>294.77999999999997</ele>
        <time>2023-08-28T13:46:15Z</time>
      </trkpt>
      <trkpt lat="57.150659970939159" lon="-4.600199013948441">
        <ele>294.30000000000001</ele>
        <time>2023-08-28T13:46:16Z</time>
      </trkpt>
      <trkpt lat="57.150526028126478" lon="-4.600422978401184">
        <ele>294.30000000000001</ele>
        <time>2023-08-28T13:46:17Z</time>
      </trkpt>
      <trkpt lat="57.150407005101442" lon="-4.600687008351088">
        <ele>293.81999999999999</ele>
        <time>2023-08-28T13:46:18Z</time>
      </trkpt>
      <trkpt lat="57.150315977632999" lon="-4.600998982787132">
        <ele>293.81999999999999</ele>
        <time>2023-08-28T13:46:19Z</time>
      </trkpt>
      <trkpt lat="57.150241965427995" lon="-4.601326966658235">
        <ele>293.81999999999999</ele>
        <time>2023-08-28T13:46:20Z</time>
      </trkpt>
      <trkpt lat="57.149592032656074" lon="-4.604216041043401">
        <ele>294.77999999999997</ele>
        <time>2023-08-28T13:46:29Z</time>
      </trkpt>
      <trkpt lat="57.149564037099481" lon="-4.604595992714167">
        <ele>295.25999999999999</ele>
        <time>2023-08-28T13:46:30Z</time>
      </trkpt>
      <trkpt lat="57.149536963552237" lon="-4.60494602099061">
        <ele>295.74000000000001</ele>
        <time>2023-08-28T13:46:31Z</time>
      </trkpt>
      <trkpt lat="57.149463035166264" lon="-4.605936007574201">
        <ele>296.22000000000003</ele>
        <time>2023-08-28T13:46:34Z</time>
      </trkpt>
      <trkpt lat="57.149403020739555" lon="-4.606248987838626">
        <ele>296.69999999999999</ele>
        <time>2023-08-28T13:46:35Z</time>
      </trkpt>
      <trkpt lat="57.148850988596678" lon="-4.609350040555">
        <ele>299.11000000000001</ele>
        <time>2023-08-28T13:46:44Z</time>
      </trkpt>
      <trkpt lat="57.148868003860116" lon="-4.609633013606072">
        <ele>299.58999999999997</ele>
        <time>2023-08-28T13:46:45Z</time>
      </trkpt>
      <trkpt lat="57.148883007466793" lon="-4.609904000535607">
        <ele>299.58999999999997</ele>
        <time>2023-08-28T13:46:46Z</time>
      </trkpt>
      <trkpt lat="57.148899016901851" lon="-4.610173981636763">
        <ele>300.06999999999999</ele>
        <time>2023-08-28T13:46:47Z</time>
      </trkpt>
      <trkpt lat="57.148884013295174" lon="-4.61044798605144">
        <ele>300.06999999999999</ele>
        <time>2023-08-28T13:46:48Z</time>
      </trkpt>
      <trkpt lat="57.148845037445426" lon="-4.610730959102511">
        <ele>300.06999999999999</ele>
        <time>2023-08-28T13:46:49Z</time>
      </trkpt>
      <trkpt lat="57.14876901358366" lon="-4.610989959910512">
        <ele>300.06999999999999</ele>
        <time>2023-08-28T13:46:50Z</time>
      </trkpt>
      <trkpt lat="57.148679997771978" lon="-4.611269999295473">
        <ele>300.06999999999999</ele>
        <time>2023-08-28T13:46:51Z</time>
      </trkpt>
      <trkpt lat="57.148347990587354" lon="-4.612327041104436">
        <ele>299.11000000000001</ele>
        <time>2023-08-28T13:46:55Z</time>
      </trkpt>
      <trkpt lat="57.148224022239447" lon="-4.612503983080387">
        <ele>298.63</ele>
        <time>2023-08-28T13:46:56Z</time>
      </trkpt>
      <trkpt lat="57.148112040013075" lon="-4.612663993611932">
        <ele>298.14999999999998</ele>
        <time>2023-08-28T13:46:57Z</time>
      </trkpt>
      <trkpt lat="57.147537041455507" lon="-4.613491035997868">
        <ele>296.22000000000003</ele>
        <time>2023-08-28T13:47:02Z</time>
      </trkpt>
      <trkpt lat="57.14743603952229" lon="-4.613717012107372">
        <ele>295.25999999999999</ele>
        <time>2023-08-28T13:47:03Z</time>
      </trkpt>
      <trkpt lat="57.147341994568706" lon="-4.613952962681651">
        <ele>294.77999999999997</ele>
        <time>2023-08-28T13:47:04Z</time>
      </trkpt>
      <trkpt lat="57.146248994395137" lon="-4.61682996712625">
        <ele>283.73000000000002</ele>
        <time>2023-08-28T13:47:15Z</time>
      </trkpt>
      <trkpt lat="57.145750019699335" lon="-4.618658982217312">
        <ele>276.04000000000002</ele>
        <time>2023-08-28T13:47:21Z</time>
      </trkpt>
      <trkpt lat="57.14563300833106" lon="-4.618884958326817">
        <ele>274.58999999999997</ele>
        <time>2023-08-28T13:47:22Z</time>
      </trkpt>
      <trkpt lat="57.145517002791166" lon="-4.619108000770211">
        <ele>273.14999999999998</ele>
        <time>2023-08-28T13:47:23Z</time>
      </trkpt>
      <trkpt lat="57.145377025008202" lon="-4.619305981323123">
        <ele>270.75</ele>
        <time>2023-08-28T13:47:24Z</time>
      </trkpt>
      <trkpt lat="57.145219026133418" lon="-4.619491975754499">
        <ele>268.82999999999998</ele>
        <time>2023-08-28T13:47:25Z</time>
      </trkpt>
      <trkpt lat="57.143283979967237" lon="-4.621819965541363">
        <ele>252</ele>
        <time>2023-08-28T13:47:37Z</time>
      </trkpt>
      <trkpt lat="57.142543019726872" lon="-4.623020002618432">
        <ele>245.75</ele>
        <time>2023-08-28T13:47:43Z</time>
      </trkpt>
      <trkpt lat="57.142484011128545" lon="-4.623257964849472">
        <ele>244.78999999999999</ele>
        <time>2023-08-28T13:47:44Z</time>
      </trkpt>
      <trkpt lat="57.142439000308514" lon="-4.623527023941279">
        <ele>243.34999999999999</ele>
        <time>2023-08-28T13:47:45Z</time>
      </trkpt>
      <trkpt lat="57.142012026160955" lon="-4.625742025673389">
        <ele>232.78</ele>
        <time>2023-08-28T13:47:52Z</time>
      </trkpt>
      <trkpt lat="57.141767023131251" lon="-4.628130029886961">
        <ele>218.36000000000001</ele>
        <time>2023-08-28T13:47:59Z</time>
      </trkpt>
      <trkpt lat="57.141680018976331" lon="-4.62948203086853">
        <ele>209.22</ele>
        <time>2023-08-28T13:48:03Z</time>
      </trkpt>
      <trkpt lat="57.14170097373426" lon="-4.629759974777699">
        <ele>206.81999999999999</ele>
        <time>2023-08-28T13:48:04Z</time>
      </trkpt>
      <trkpt lat="57.141716983169317" lon="-4.629964996129274">
        <ele>204.41999999999999</ele>
        <time>2023-08-28T13:48:05Z</time>
      </trkpt>
      <trkpt lat="57.14178797788918" lon="-4.630233971402049">
        <ele>202.00999999999999</ele>
        <time>2023-08-28T13:48:06Z</time>
      </trkpt>
      <trkpt lat="57.141852015629411" lon="-4.630476962774992">
        <ele>199.61000000000001</ele>
        <time>2023-08-28T13:48:07Z</time>
      </trkpt>
      <trkpt lat="57.141919992864132" lon="-4.630735041573644">
        <ele>197.21000000000001</ele>
        <time>2023-08-28T13:48:08Z</time>
      </trkpt>
      <trkpt lat="57.141989981755614" lon="-4.630996976047754">
        <ele>194.31999999999999</ele>
        <time>2023-08-28T13:48:09Z</time>
      </trkpt>
      <trkpt lat="57.142026023939252" lon="-4.631285984069109">
        <ele>191.91999999999999</ele>
        <time>2023-08-28T13:48:10Z</time>
      </trkpt>
      <trkpt lat="57.142040021717548" lon="-4.631577003747225">
        <ele>189.03999999999999</ele>
        <time>2023-08-28T13:48:11Z</time>
      </trkpt>
      <trkpt lat="57.142102969810367" lon="-4.632368003949523">
        <ele>182.31</ele>
        <time>2023-08-28T13:48:14Z</time>
      </trkpt>
      <trkpt lat="57.142179999500513" lon="-4.632590040564537">
        <ele>179.90000000000001</ele>
        <time>2023-08-28T13:48:15Z</time>
      </trkpt>
      <trkpt lat="57.142920959740877" lon="-4.63444403372705">
        <ele>167.88999999999999</ele>
        <time>2023-08-28T13:48:23Z</time>
      </trkpt>
      <trkpt lat="57.14337601326406" lon="-4.635450029745698">
        <ele>163.56</ele>
        <time>2023-08-28T13:48:28Z</time>
      </trkpt>
      <trkpt lat="57.143450025469065" lon="-4.635641975328326">
        <ele>163.08000000000001</ele>
        <time>2023-08-28T13:48:29Z</time>
      </trkpt>
      <trkpt lat="57.143521020188928" lon="-4.635899970307946">
        <ele>162.59999999999999</ele>
        <time>2023-08-28T13:48:30Z</time>
      </trkpt>
      <trkpt lat="57.143524037674069" lon="-4.636130975559354">
        <ele>161.63999999999999</ele>
        <time>2023-08-28T13:48:31Z</time>
      </trkpt>
      <trkpt lat="57.143526971340179" lon="-4.63638000190258">
        <ele>161.63999999999999</ele>
        <time>2023-08-28T13:48:32Z</time>
      </trkpt>
      <trkpt lat="57.143530994653702" lon="-4.636631961911917">
        <ele>161.16</ele>
        <time>2023-08-28T13:48:33Z</time>
      </trkpt>
      <trkpt lat="57.143534012138844" lon="-4.636864978820086">
        <ele>161.16</ele>
        <time>2023-08-28T13:48:34Z</time>
      </trkpt>
      <trkpt lat="57.143537029623985" lon="-4.637062959372997">
        <ele>160.68000000000001</ele>
        <time>2023-08-28T13:48:35Z</time>
      </trkpt>
      <trkpt lat="57.143539041280746" lon="-4.637225987389684">
        <ele>160.19999999999999</ele>
        <time>2023-08-28T13:48:36Z</time>
      </trkpt>
      <trkpt lat="57.143540969118476" lon="-4.6373460162431">
        <ele>159.72</ele>
        <time>2023-08-28T13:48:37Z</time>
      </trkpt>
      <trkpt lat="57.143596960231662" lon="-4.637466967105866">
        <ele>159.24000000000001</ele>
        <time>2023-08-28T13:48:38Z</time>
      </trkpt>
      <trkpt lat="57.143691005185246" lon="-4.637667965143919">
        <ele>158.75</ele>
        <time>2023-08-28T13:48:39Z</time>
      </trkpt>
      <trkpt lat="57.14376300573349" lon="-4.637713981792331">
        <ele>158.27000000000001</ele>
        <time>2023-08-28T13:48:40Z</time>
      </trkpt>
      <trkpt lat="57.143881022930145" lon="-4.637787993997335">
        <ele>158.27000000000001</ele>
        <time>2023-08-28T13:48:41Z</time>
      </trkpt>
      <trkpt lat="57.144015971571207" lon="-4.637872986495495">
        <ele>158.75</ele>
        <time>2023-08-28T13:48:42Z</time>
      </trkpt>
      <trkpt lat="57.144271032884717" lon="-4.638011958450079">
        <ele>159.72</ele>
        <time>2023-08-28T13:48:44Z</time>
      </trkpt>
      <trkpt lat="57.144376980140805" lon="-4.638130981475115">
        <ele>160.68000000000001</ele>
        <time>2023-08-28T13:48:45Z</time>
      </trkpt>
      <trkpt lat="57.144472030922771" lon="-4.638286968693137">
        <ele>162.12</ele>
        <time>2023-08-28T13:48:46Z</time>
      </trkpt>
      <trkpt lat="57.144531961530447" lon="-4.63852602057159">
        <ele>163.56</ele>
        <time>2023-08-28T13:48:47Z</time>
      </trkpt>
      <trkpt lat="57.144542019814253" lon="-4.638771023601294">
        <ele>165.47999999999999</ele>
        <time>2023-08-28T13:48:48Z</time>
      </trkpt>
      <trkpt lat="57.144544031471014" lon="-4.639033041894436">
        <ele>166.93000000000001</ele>
        <time>2023-08-28T13:48:49Z</time>
      </trkpt>
      <trkpt lat="57.144530033692718" lon="-4.639306040480733">
        <ele>168.37</ele>
        <time>2023-08-28T13:48:50Z</time>
      </trkpt>
      <trkpt lat="57.144367005676031" lon="-4.642272982746363">
        <ele>177.02000000000001</ele>
        <time>2023-08-28T13:49:00Z</time>
      </trkpt>
      <trkpt lat="57.144215041771531" lon="-4.644582029432058">
        <ele>183.27000000000001</ele>
        <time>2023-08-28T13:49:07Z</time>
      </trkpt>
      <trkpt lat="57.143966015428305" lon="-4.645909974351525">
        <ele>191.44</ele>
        <time>2023-08-28T13:49:12Z</time>
      </trkpt>
      <trkpt lat="57.143924022093415" lon="-4.646135028451681">
        <ele>193.36000000000001</ele>
        <time>2023-08-28T13:49:13Z</time>
      </trkpt>
      <trkpt lat="57.14391203597188" lon="-4.646387994289398">
        <ele>195.28</ele>
        <time>2023-08-28T13:49:14Z</time>
      </trkpt>
      <trkpt lat="57.143921004608274" lon="-4.646627968177199">
        <ele>196.72999999999999</ele>
        <time>2023-08-28T13:49:15Z</time>
      </trkpt>
      <trkpt lat="57.143959980458021" lon="-4.646885041147471">
        <ele>197.69</ele>
        <time>2023-08-28T13:49:16Z</time>
      </trkpt>
      <trkpt lat="57.144028041511774" lon="-4.647090984508395">
        <ele>198.65000000000001</ele>
        <time>2023-08-28T13:49:17Z</time>
      </trkpt>
      <trkpt lat="57.144100964069366" lon="-4.647307991981506">
        <ele>200.09</ele>
        <time>2023-08-28T13:49:18Z</time>
      </trkpt>
      <trkpt lat="57.144201966002584" lon="-4.647534973919392">
        <ele>200.56999999999999</ele>
        <time>2023-08-28T13:49:19Z</time>
      </trkpt>
      <trkpt lat="57.14460102841258" lon="-4.648439968004823">
        <ele>202.00999999999999</ele>
        <time>2023-08-28T13:49:23Z</time>
      </trkpt>
      <trkpt lat="57.144650984555483" lon="-4.648687988519669">
        <ele>201.53</ele>
        <time>2023-08-28T13:49:24Z</time>
      </trkpt>
      <trkpt lat="57.144637992605567" lon="-4.64888202957809">
        <ele>200.56999999999999</ele>
        <time>2023-08-28T13:49:25Z</time>
      </trkpt>
      <trkpt lat="57.144607985392213" lon="-4.649136001244187">
        <ele>199.61000000000001</ele>
        <time>2023-08-28T13:49:26Z</time>
      </trkpt>
      <trkpt lat="57.144571021199226" lon="-4.649447975680232">
        <ele>198.65000000000001</ele>
        <time>2023-08-28T13:49:27Z</time>
      </trkpt>
      <trkpt lat="57.144504971802235" lon="-4.649646040052176">
        <ele>197.21000000000001</ele>
        <time>2023-08-28T13:49:28Z</time>
      </trkpt>
      <trkpt lat="57.144419979304075" lon="-4.649902023375034">
        <ele>195.77000000000001</ele>
        <time>2023-08-28T13:49:29Z</time>
      </trkpt>
      <trkpt lat="57.144262986257672" lon="-4.650337966158986">
        <ele>192.88</ele>
        <time>2023-08-28T13:49:31Z</time>
      </trkpt>
      <trkpt lat="57.144158966839314" lon="-4.650526978075504">
        <ele>191.44</ele>
        <time>2023-08-28T13:49:32Z</time>
      </trkpt>
      <trkpt lat="57.144055031239986" lon="-4.650715989992023">
        <ele>190</ele>
        <time>2023-08-28T13:49:33Z</time>
      </trkpt>
      <trkpt lat="57.143066972494125" lon="-4.651898005977273">
        <ele>177.02000000000001</ele>
        <time>2023-08-28T13:49:42Z</time>
      </trkpt>
      <trkpt lat="57.142928000539541" lon="-4.652105960994959">
        <ele>174.62</ele>
        <time>2023-08-28T13:49:44Z</time>
      </trkpt>
      <trkpt lat="57.142866980284452" lon="-4.652196988463402">
        <ele>173.16999999999999</ele>
        <time>2023-08-28T13:49:45Z</time>
      </trkpt>
      <trkpt lat="57.142818029969931" lon="-4.652271000668407">
        <ele>171.72999999999999</ele>
        <time>2023-08-28T13:49:46Z</time>
      </trkpt>
      <trkpt lat="57.142732031643391" lon="-4.652401003986597">
        <ele>164.52000000000001</ele>
        <time>2023-08-28T13:49:53Z</time>
      </trkpt>
      <trkpt lat="57.142732031643391" lon="-4.652401003986597">
        <ele>164.52000000000001</ele>
        <time>2023-08-28T13:50:14Z</time>
      </trkpt>
      <trkpt lat="57.14266698807478" lon="-4.652391029521823">
        <ele>170.28999999999999</ele>
        <time>2023-08-28T13:52:48Z</time>
      </trkpt>
      <trkpt lat="57.142655001953244" lon="-4.65251499786973">
        <ele>161.63999999999999</ele>
        <time>2023-08-28T13:53:09Z</time>
      </trkpt>
      <trkpt lat="57.142503038048744" lon="-4.652743991464376">
        <ele>160.68000000000001</ele>
        <time>2023-08-28T13:53:11Z</time>
      </trkpt>
      <trkpt lat="57.141766017302871" lon="-4.653750993311405">
        <ele>152.99000000000001</ele>
        <time>2023-08-28T13:53:18Z</time>
      </trkpt>
      <trkpt lat="57.141190012916923" lon="-4.654573006555438">
        <ele>147.22</ele>
        <time>2023-08-28T13:53:22Z</time>
      </trkpt>
      <trkpt lat="57.141070989891887" lon="-4.654828989878297">
        <ele>145.30000000000001</ele>
        <time>2023-08-28T13:53:23Z</time>
      </trkpt>
      <trkpt lat="57.140966970473528" lon="-4.655110035091639">
        <ele>143.37</ele>
        <time>2023-08-28T13:53:24Z</time>
      </trkpt>
      <trkpt lat="57.140881977975368" lon="-4.655404994264245">
        <ele>141.44999999999999</ele>
        <time>2023-08-28T13:53:25Z</time>
      </trkpt>
      <trkpt lat="57.14079799130559" lon="-4.65569500811398">
        <ele>139.05000000000001</ele>
        <time>2023-08-28T13:53:26Z</time>
      </trkpt>
      <trkpt lat="57.140521975234151" lon="-4.656518027186394">
        <ele>132.80000000000001</ele>
        <time>2023-08-28T13:53:29Z</time>
      </trkpt>
      <trkpt lat="57.140404041856527" lon="-4.656762024387717">
        <ele>130.88</ele>
        <time>2023-08-28T13:53:30Z</time>
      </trkpt>
      <trkpt lat="57.139856033027172" lon="-4.657800039276481">
        <ele>121.73999999999999</ele>
        <time>2023-08-28T13:53:34Z</time>
      </trkpt>
      <trkpt lat="57.139750001952052" lon="-4.658112013712525">
        <ele>118.86</ele>
        <time>2023-08-28T13:53:35Z</time>
      </trkpt>
      <trkpt lat="57.139305006712675" lon="-4.659244995564222">
        <ele>108.77</ele>
        <time>2023-08-28T13:53:39Z</time>
      </trkpt>
      <trkpt lat="57.13890602812171" lon="-4.660027027130127">
        <ele>102.52</ele>
        <time>2023-08-28T13:53:42Z</time>
      </trkpt>
      <trkpt lat="57.138581983745098" lon="-4.660841999575496">
        <ele>95.790000000000006</ele>
        <time>2023-08-28T13:53:45Z</time>
      </trkpt>
      <trkpt lat="57.138453992083669" lon="-4.661027994006872">
        <ele>93.390000000000001</ele>
        <time>2023-08-28T13:53:46Z</time>
      </trkpt>
      <trkpt lat="57.137673972174525" lon="-4.662220990285277">
        <ele>79.450000000000003</ele>
        <time>2023-08-28T13:53:52Z</time>
      </trkpt>
      <trkpt lat="57.137577999383211" lon="-4.66242098249495">
        <ele>77.040000000000006</ele>
        <time>2023-08-28T13:53:53Z</time>
      </trkpt>
      <trkpt lat="57.137503987178206" lon="-4.662617035210133">
        <ele>75.120000000000005</ele>
        <time>2023-08-28T13:53:54Z</time>
      </trkpt>
      <trkpt lat="57.137478003278375" lon="-4.662823984399438">
        <ele>72.719999999999999</ele>
        <time>2023-08-28T13:53:55Z</time>
      </trkpt>
      <trkpt lat="57.137479009106755" lon="-4.662993969395757">
        <ele>70.310000000000002</ele>
        <time>2023-08-28T13:53:56Z</time>
      </trkpt>
      <trkpt lat="57.137500969693065" lon="-4.663193039596081">
        <ele>68.390000000000001</ele>
        <time>2023-08-28T13:53:57Z</time>
      </trkpt>
      <trkpt lat="57.137540029361844" lon="-4.663367969915271">
        <ele>66.950000000000003</ele>
        <time>2023-08-28T13:53:58Z</time>
      </trkpt>
      <trkpt lat="57.137608006596565" lon="-4.663554970175028">
        <ele>65.030000000000001</ele>
        <time>2023-08-28T13:53:59Z</time>
      </trkpt>
      <trkpt lat="57.137683024629951" lon="-4.663760997354984">
        <ele>63.100000000000001</ele>
        <time>2023-08-28T13:54:00Z</time>
      </trkpt>
      <trkpt lat="57.137773968279362" lon="-4.663912961259484">
        <ele>61.659999999999997</ele>
        <time>2023-08-28T13:54:01Z</time>
      </trkpt>
      <trkpt lat="57.138051996007562" lon="-4.664381006732583">
        <ele>57.340000000000003</ele>
        <time>2023-08-28T13:54:04Z</time>
      </trkpt>
      <trkpt lat="57.13815500959754" lon="-4.664555015042424">
        <ele>55.890000000000001</ele>
        <time>2023-08-28T13:54:05Z</time>
      </trkpt>
      <trkpt lat="57.13817797601223" lon="-4.664711002260447">
        <ele>54.450000000000003</ele>
        <time>2023-08-28T13:54:06Z</time>
      </trkpt>
      <trkpt lat="57.138206977397203" lon="-4.664902025833726">
        <ele>53.009999999999998</ele>
        <time>2023-08-28T13:54:07Z</time>
      </trkpt>
      <trkpt lat="57.13824100792408" lon="-4.665134036913514">
        <ele>51.57</ele>
        <time>2023-08-28T13:54:08Z</time>
      </trkpt>
      <trkpt lat="57.138205971568823" lon="-4.665308967232704">
        <ele>50.609999999999999</ele>
        <time>2023-08-28T13:54:09Z</time>
      </trkpt>
      <trkpt lat="57.138164984062314" lon="-4.665517006069422">
        <ele>49.159999999999997</ele>
        <time>2023-08-28T13:54:10Z</time>
      </trkpt>
      <trkpt lat="57.13811201043427" lon="-4.665778018534184">
        <ele>47.719999999999999</ele>
        <time>2023-08-28T13:54:11Z</time>
      </trkpt>
      <trkpt lat="57.138062976300716" lon="-4.665925037115812">
        <ele>46.280000000000001</ele>
        <time>2023-08-28T13:54:12Z</time>
      </trkpt>
      <trkpt lat="57.137624016031623" lon="-4.667244013398886">
        <ele>33.299999999999997</ele>
        <time>2023-08-28T13:54:19Z</time>
      </trkpt>
      <trkpt lat="57.137588979676366" lon="-4.667349038645625">
        <ele>31.379999999999999</ele>
        <time>2023-08-28T13:54:20Z</time>
      </trkpt>
      <trkpt lat="57.137569030746818" lon="-4.667406035587192">
        <ele>28.98</ele>
        <time>2023-08-28T13:54:21Z</time>
      </trkpt>
      <trkpt lat="57.137470962479711" lon="-4.667585995048285">
        <ele>27.530000000000001</ele>
        <time>2023-08-28T13:54:22Z</time>
      </trkpt>
      <trkpt lat="57.137427041307092" lon="-4.667592030018568">
        <ele>26.09</ele>
        <time>2023-08-28T13:54:23Z</time>
      </trkpt>
      <trkpt lat="57.137380018830299" lon="-4.6675989869982">
        <ele>24.649999999999999</ele>
        <time>2023-08-28T13:54:24Z</time>
      </trkpt>
      <trkpt lat="57.1373609919101" lon="-4.667602004483342">
        <ele>23.690000000000001</ele>
        <time>2023-08-28T13:54:25Z</time>
      </trkpt>
      <trkpt lat="57.13733802549541" lon="-4.667643997818232">
        <ele>22.25</ele>
        <time>2023-08-28T13:54:26Z</time>
      </trkpt>
      <trkpt lat="57.137289997190237" lon="-4.667735025286675">
        <ele>20.809999999999999</ele>
        <time>2023-08-28T13:54:27Z</time>
      </trkpt>
      <trkpt lat="57.137233000248671" lon="-4.667839966714382">
        <ele>19.84</ele>
        <time>2023-08-28T13:54:28Z</time>
      </trkpt>
      <trkpt lat="57.137178014963865" lon="-4.667950021103025">
        <ele>18.879999999999999</ele>
        <time>2023-08-28T13:54:29Z</time>
      </trkpt>
      <trkpt lat="57.137110037729144" lon="-4.66809201054275">
        <ele>17.920000000000002</ele>
        <time>2023-08-28T13:54:30Z</time>
      </trkpt>
      <trkpt lat="57.136262962594628" lon="-4.669862017035484">
        <ele>21.77</ele>
        <time>2023-08-28T13:54:40Z</time>
      </trkpt>
      <trkpt lat="57.135519990697503" lon="-4.671417027711868">
        <ele>22.25</ele>
        <time>2023-08-28T13:54:48Z</time>
      </trkpt>
      <trkpt lat="57.134934011846781" lon="-4.672736003994942">
        <ele>22.73</ele>
        <time>2023-08-28T13:54:55Z</time>
      </trkpt>
      <trkpt lat="57.13445900939405" lon="-4.673674022778869">
        <ele>21.77</ele>
        <time>2023-08-28T13:55:01Z</time>
      </trkpt>
      <trkpt lat="57.134368987753987" lon="-4.673788016662002">
        <ele>21.77</ele>
        <time>2023-08-28T13:55:02Z</time>
      </trkpt>
      <trkpt lat="57.134086014702916" lon="-4.674036959186196">
        <ele>21.289999999999999</ele>
        <time>2023-08-28T13:55:05Z</time>
      </trkpt>
      <trkpt lat="57.133995993062854" lon="-4.674113988876343">
        <ele>21.289999999999999</ele>
        <time>2023-08-28T13:55:06Z</time>
      </trkpt>
      <trkpt lat="57.133905971422791" lon="-4.67419202439487">
        <ele>21.289999999999999</ele>
        <time>2023-08-28T13:55:07Z</time>
      </trkpt>
      <trkpt lat="57.133826008066535" lon="-4.674261007457972">
        <ele>21.289999999999999</ele>
        <time>2023-08-28T13:55:08Z</time>
      </trkpt>
      <trkpt lat="57.133764987811446" lon="-4.674313981086016">
        <ele>21.289999999999999</ele>
        <time>2023-08-28T13:55:09Z</time>
      </trkpt>
      <trkpt lat="57.133721988648176" lon="-4.674351029098034">
        <ele>21.289999999999999</ele>
        <time>2023-08-28T13:55:10Z</time>
      </trkpt>
      <trkpt lat="57.133698016405106" lon="-4.674370978027582">
        <ele>21.289999999999999</ele>
        <time>2023-08-28T13:55:11Z</time>
      </trkpt>
      <trkpt lat="57.133678989484906" lon="-4.67438799329102">
        <ele>21.77</ele>
        <time>2023-08-28T13:55:12Z</time>
      </trkpt>
      <trkpt lat="57.133659962564707" lon="-4.674404002726078">
        <ele>21.77</ele>
        <time>2023-08-28T13:55:13Z</time>
      </trkpt>
      <trkpt lat="57.13364202529192" lon="-4.674420012161136">
        <ele>22.25</ele>
        <time>2023-08-28T13:55:14Z</time>
      </trkpt>
      <trkpt lat="57.133624004200101" lon="-4.674436021596193">
        <ele>22.73</ele>
        <time>2023-08-28T13:55:15Z</time>
      </trkpt>
      <trkpt lat="57.133607994765043" lon="-4.67445001937449">
        <ele>23.210000000000001</ele>
        <time>2023-08-28T13:55:16Z</time>
      </trkpt>
      <trkpt lat="57.133467011153698" lon="-4.674570970237255">
        <ele>25.609999999999999</ele>
        <time>2023-08-28T13:55:30Z</time>
      </trkpt>
      <trkpt lat="57.133133998140693" lon="-4.674857966601849">
        <ele>27.050000000000001</ele>
        <time>2023-08-28T13:55:35Z</time>
      </trkpt>
      <trkpt lat="57.132490016520023" lon="-4.675414022058249">
        <ele>28.98</ele>
        <time>2023-08-28T13:55:42Z</time>
      </trkpt>
      <trkpt lat="57.132396977394819" lon="-4.675493985414505">
        <ele>29.460000000000001</ele>
        <time>2023-08-28T13:55:43Z</time>
      </trkpt>
      <trkpt lat="57.131979977712035" lon="-4.675853988155723">
        <ele>30.420000000000002</ele>
        <time>2023-08-28T13:55:47Z</time>
      </trkpt>
      <trkpt lat="57.131867995485663" lon="-4.675949960947037">
        <ele>30.899999999999999</ele>
        <time>2023-08-28T13:55:48Z</time>
      </trkpt>
      <trkpt lat="57.13164403103292" lon="-4.67615095898509">
        <ele>32.82</ele>
        <time>2023-08-28T13:55:50Z</time>
      </trkpt>
      <trkpt lat="57.131024021655321" lon="-4.676770968362689">
        <ele>37.149999999999999</ele>
        <time>2023-08-28T13:55:56Z</time>
      </trkpt>
      <trkpt lat="57.130608027800918" lon="-4.677187968045473">
        <ele>39.549999999999997</ele>
        <time>2023-08-28T13:56:00Z</time>
      </trkpt>
      <trkpt lat="57.130508031696081" lon="-4.67728796415031">
        <ele>40.030000000000001</ele>
        <time>2023-08-28T13:56:01Z</time>
      </trkpt>
      <trkpt lat="57.130409041419625" lon="-4.677386032417417">
        <ele>40.509999999999998</ele>
        <time>2023-08-28T13:56:02Z</time>
      </trkpt>
      <trkpt lat="57.130317008122802" lon="-4.677478987723589">
        <ele>40.509999999999998</ele>
        <time>2023-08-28T13:56:03Z</time>
      </trkpt>
      <trkpt lat="57.130230003967881" lon="-4.677564986050129">
        <ele>40.990000000000002</ele>
        <time>2023-08-28T13:56:04Z</time>
      </trkpt>
      <trkpt lat="57.130150962620974" lon="-4.677645033225417">
        <ele>40.990000000000002</ele>
        <time>2023-08-28T13:56:05Z</time>
      </trkpt>
      <trkpt lat="57.130068987607956" lon="-4.677726002410054">
        <ele>40.990000000000002</ele>
        <time>2023-08-28T13:56:06Z</time>
      </trkpt>
      <trkpt lat="57.129977960139513" lon="-4.677817029878497">
        <ele>40.509999999999998</ele>
        <time>2023-08-28T13:56:07Z</time>
      </trkpt>
      <trkpt lat="57.129698004573584" lon="-4.678097991272807">
        <ele>38.590000000000003</ele>
        <time>2023-08-28T13:56:10Z</time>
      </trkpt>
      <trkpt lat="57.129531959071755" lon="-4.678322961553931">
        <ele>37.630000000000003</ele>
        <time>2023-08-28T13:56:12Z</time>
      </trkpt>
      <trkpt lat="57.129459036514163" lon="-4.678437961265445">
        <ele>37.149999999999999</ele>
        <time>2023-08-28T13:56:13Z</time>
      </trkpt>
      <trkpt lat="57.129398016259074" lon="-4.67853301204741">
        <ele>37.149999999999999</ele>
        <time>2023-08-28T13:56:14Z</time>
      </trkpt>
      <trkpt lat="57.129330961033702" lon="-4.678681958466768">
        <ele>37.149999999999999</ele>
        <time>2023-08-28T13:56:15Z</time>
      </trkpt>
      <trkpt lat="57.129317969083786" lon="-4.678819002583623">
        <ele>37.149999999999999</ele>
        <time>2023-08-28T13:56:16Z</time>
      </trkpt>
      <trkpt lat="57.129301959648728" lon="-4.678984964266419">
        <ele>37.149999999999999</ele>
        <time>2023-08-28T13:56:17Z</time>
      </trkpt>
      <trkpt lat="57.129284022375941" lon="-4.679170958697796">
        <ele>37.149999999999999</ele>
        <time>2023-08-28T13:56:18Z</time>
      </trkpt>
      <trkpt lat="57.129147984087467" lon="-4.680584985762835">
        <ele>37.630000000000003</ele>
        <time>2023-08-28T13:56:24Z</time>
      </trkpt>
      <trkpt lat="57.129079001024365" lon="-4.681299962103367">
        <ele>39.549999999999997</ele>
        <time>2023-08-28T13:56:27Z</time>
      </trkpt>
      <trkpt lat="57.129000965505838" lon="-4.681675974279642">
        <ele>41.950000000000003</ele>
        <time>2023-08-28T13:56:29Z</time>
      </trkpt>
      <trkpt lat="57.128384979441762" lon="-4.683356964960694">
        <ele>47.719999999999999</ele>
        <time>2023-08-28T13:56:39Z</time>
      </trkpt>
      <trkpt lat="57.127988012507558" lon="-4.684758000075817">
        <ele>46.759999999999998</ele>
        <time>2023-08-28T13:56:45Z</time>
      </trkpt>
      <trkpt lat="57.127920035272837" lon="-4.684998979791999">
        <ele>46.280000000000001</ele>
        <time>2023-08-28T13:56:46Z</time>
      </trkpt>
      <trkpt lat="57.127288961783051" lon="-4.687229990959168">
        <ele>43.399999999999999</ele>
        <time>2023-08-28T13:56:55Z</time>
      </trkpt>
      <trkpt lat="57.126613967120647" lon="-4.68910401687026">
        <ele>44.359999999999999</ele>
        <time>2023-08-28T13:57:04Z</time>
      </trkpt>
      <trkpt lat="57.125836964696646" lon="-4.690976031124592">
        <ele>40.990000000000002</ele>
        <time>2023-08-28T13:57:13Z</time>
      </trkpt>
      <trkpt lat="57.125438991934061" lon="-4.691801983863115">
        <ele>39.549999999999997</ele>
        <time>2023-08-28T13:57:17Z</time>
      </trkpt>
      <trkpt lat="57.124851001426578" lon="-4.692792976275086">
        <ele>39.07</ele>
        <time>2023-08-28T13:57:23Z</time>
      </trkpt>
      <trkpt lat="57.12474899366498" lon="-4.692902024835348">
        <ele>39.549999999999997</ele>
        <time>2023-08-28T13:57:24Z</time>
      </trkpt>
      <trkpt lat="57.124659977853298" lon="-4.692995985969901">
        <ele>39.549999999999997</ele>
        <time>2023-08-28T13:57:25Z</time>
      </trkpt>
      <trkpt lat="57.124574985355139" lon="-4.693087013438344">
        <ele>39.07</ele>
        <time>2023-08-28T13:57:26Z</time>
      </trkpt>
      <trkpt lat="57.124484041705728" lon="-4.69320603646338">
        <ele>39.07</ele>
        <time>2023-08-28T13:57:27Z</time>
      </trkpt>
      <trkpt lat="57.124431990087032" lon="-4.693308966234326">
        <ele>39.07</ele>
        <time>2023-08-28T13:57:28Z</time>
      </trkpt>
      <trkpt lat="57.124422015622258" lon="-4.693586993962526">
        <ele>38.590000000000003</ele>
        <time>2023-08-28T13:57:29Z</time>
      </trkpt>
      <trkpt lat="57.124415980651975" lon="-4.693598980084062">
        <ele>38.590000000000003</ele>
        <time>2023-08-28T13:57:30Z</time>
      </trkpt>
      <trkpt lat="57.124310033395886" lon="-4.693805007264018">
        <ele>38.109999999999999</ele>
        <time>2023-08-28T13:57:32Z</time>
      </trkpt>
      <trkpt lat="57.124244989827275" lon="-4.693934004753828">
        <ele>38.109999999999999</ele>
        <time>2023-08-28T13:57:33Z</time>
      </trkpt>
      <trkpt lat="57.124165026471019" lon="-4.69408898614347">
        <ele>37.630000000000003</ele>
        <time>2023-08-28T13:57:34Z</time>
      </trkpt>
      <trkpt lat="57.123721959069371" lon="-4.694846039637923">
        <ele>37.149999999999999</ele>
        <time>2023-08-28T13:57:38Z</time>
      </trkpt>
      <trkpt lat="57.123592039570212" lon="-4.695044020190835">
        <ele>37.149999999999999</ele>
        <time>2023-08-28T13:57:39Z</time>
      </trkpt>
      <trkpt lat="57.122155968099833" lon="-4.69688099808991">
        <ele>37.630000000000003</ele>
        <time>2023-08-28T13:57:48Z</time>
      </trkpt>
      <trkpt lat="57.12071000598371" lon="-4.69853600487113">
        <ele>40.030000000000001</ele>
        <time>2023-08-28T13:57:56Z</time>
      </trkpt>
      <trkpt lat="57.119992012158036" lon="-4.699344020336866">
        <ele>42.439999999999998</ele>
        <time>2023-08-28T13:58:01Z</time>
      </trkpt>
      <trkpt lat="57.118697008118033" lon="-4.701648959890008">
        <ele>43.399999999999999</ele>
        <time>2023-08-28T13:58:08Z</time>
      </trkpt>
      <trkpt lat="57.116780988872051" lon="-4.705047989264131">
        <ele>41.950000000000003</ele>
        <time>2023-08-28T13:58:19Z</time>
      </trkpt>
      <trkpt lat="57.114782994613051" lon="-4.708593031391501">
        <ele>41.950000000000003</ele>
        <time>2023-08-28T13:58:31Z</time>
      </trkpt>
      <trkpt lat="57.112317960709333" lon="-4.712966959923506">
        <ele>41.469999999999999</ele>
        <time>2023-08-28T13:58:46Z</time>
      </trkpt>
      <trkpt lat="57.110746018588543" lon="-4.7153399605304">
        <ele>43.399999999999999</ele>
        <time>2023-08-28T13:58:55Z</time>
      </trkpt>
      <trkpt lat="57.108617015182972" lon="-4.717711033299565">
        <ele>48.68</ele>
        <time>2023-08-28T13:59:06Z</time>
      </trkpt>
      <trkpt lat="57.105978978797793" lon="-4.719808017835021">
        <ele>58.780000000000001</ele>
        <time>2023-08-28T13:59:19Z</time>
      </trkpt>
      <trkpt lat="57.105632973834872" lon="-4.720128960907459">
        <ele>60.700000000000003</ele>
        <time>2023-08-28T13:59:21Z</time>
      </trkpt>
      <trkpt lat="57.105482015758753" lon="-4.72034596838057">
        <ele>61.659999999999997</ele>
        <time>2023-08-28T13:59:22Z</time>
      </trkpt>
      <trkpt lat="57.104559000581503" lon="-4.721739962697029">
        <ele>66.469999999999999</ele>
        <time>2023-08-28T13:59:28Z</time>
      </trkpt>
      <trkpt lat="57.104377029463649" lon="-4.72193400375545">
        <ele>66.469999999999999</ele>
        <time>2023-08-28T13:59:29Z</time>
      </trkpt>
      <trkpt lat="57.10298496298492" lon="-4.723642989993095">
        <ele>69.829999999999998</ele>
        <time>2023-08-28T13:59:37Z</time>
      </trkpt>
      <trkpt lat="57.101696999743581" lon="-4.724936988204718">
        <ele>71.269999999999996</ele>
        <time>2023-08-28T13:59:44Z</time>
      </trkpt>
      <trkpt lat="57.100300993770361" lon="-4.726213971152902">
        <ele>73.680000000000007</ele>
        <time>2023-08-28T13:59:51Z</time>
      </trkpt>
      <trkpt lat="57.099081007763743" lon="-4.727575024589896">
        <ele>75.120000000000005</ele>
        <time>2023-08-28T13:59:56Z</time>
      </trkpt>
      <trkpt lat="57.098911022767425" lon="-4.72786202095449">
        <ele>75.599999999999994</ele>
        <time>2023-08-28T13:59:57Z</time>
      </trkpt>
      <trkpt lat="57.098744977265596" lon="-4.728138959035277">
        <ele>75.599999999999994</ele>
        <time>2023-08-28T13:59:58Z</time>
      </trkpt>
      <trkpt lat="57.097442010417581" lon="-4.730157991871238">
        <ele>73.200000000000003</ele>
        <time>2023-08-28T14:00:06Z</time>
      </trkpt>
      <trkpt lat="57.096169972792268" lon="-4.731932021677494">
        <ele>69.349999999999994</ele>
        <time>2023-08-28T14:00:14Z</time>
      </trkpt>
      <trkpt lat="57.095014024525881" lon="-4.733831025660038">
        <ele>63.100000000000001</ele>
        <time>2023-08-28T14:00:22Z</time>
      </trkpt>
      <trkpt lat="57.094849990680814" lon="-4.733989024534822">
        <ele>62.619999999999997</ele>
        <time>2023-08-28T14:00:23Z</time>
      </trkpt>
      <trkpt lat="57.093206970021129" lon="-4.735501036047936">
        <ele>57.82</ele>
        <time>2023-08-28T14:00:33Z</time>
      </trkpt>
      <trkpt lat="57.093067998066545" lon="-4.735732041299343">
        <ele>57.340000000000003</ele>
        <time>2023-08-28T14:00:34Z</time>
      </trkpt>
      <trkpt lat="57.092934977263212" lon="-4.735991964116693">
        <ele>56.859999999999999</ele>
        <time>2023-08-28T14:00:35Z</time>
      </trkpt>
      <trkpt lat="57.092831963673234" lon="-4.736299999058247">
        <ele>55.890000000000001</ele>
        <time>2023-08-28T14:00:36Z</time>
      </trkpt>
      <trkpt lat="57.092729033902287" lon="-4.73660996183753">
        <ele>54.93</ele>
        <time>2023-08-28T14:00:37Z</time>
      </trkpt>
      <trkpt lat="57.092667007818818" lon="-4.736943980678916">
        <ele>53.969999999999999</ele>
        <time>2023-08-28T14:00:38Z</time>
      </trkpt>
      <trkpt lat="57.092611016705632" lon="-4.73731697537005">
        <ele>52.530000000000001</ele>
        <time>2023-08-28T14:00:39Z</time>
      </trkpt>
      <trkpt lat="57.092577992007136" lon="-4.737707991153002">
        <ele>51.57</ele>
        <time>2023-08-28T14:00:40Z</time>
      </trkpt>
      <trkpt lat="57.09254396148026" lon="-4.738101018592715">
        <ele>50.609999999999999</ele>
        <time>2023-08-28T14:00:41Z</time>
      </trkpt>
      <trkpt lat="57.092512026429176" lon="-4.738475019112229">
        <ele>49.159999999999997</ele>
        <time>2023-08-28T14:00:42Z</time>
      </trkpt>
      <trkpt lat="57.092322008684278" lon="-4.741058992221952">
        <ele>40.990000000000002</ele>
        <time>2023-08-28T14:00:50Z</time>
      </trkpt>
      <trkpt lat="57.092382023110986" lon="-4.741759970784187">
        <ele>38.109999999999999</ele>
        <time>2023-08-28T14:00:55Z</time>
      </trkpt>
      <trkpt lat="57.092399960383773" lon="-4.741912018507719">
        <ele>36.670000000000002</ele>
        <time>2023-08-28T14:01:03Z</time>
      </trkpt>
      <trkpt lat="57.092399960383773" lon="-4.741912018507719">
        <ele>36.189999999999998</ele>
        <time>2023-08-28T14:01:43Z</time>
      </trkpt>
      <trkpt lat="57.092399960383773" lon="-4.741912018507719">
        <ele>36.189999999999998</ele>
        <time>2023-08-28T14:02:28Z</time>
      </trkpt>
      <trkpt lat="57.092399960383773" lon="-4.741912018507719">
        <ele>36.189999999999998</ele>
        <time>2023-08-28T14:03:15Z</time>
      </trkpt>
      <trkpt lat="57.092399960383773" lon="-4.741912018507719">
        <ele>36.189999999999998</ele>
        <time>2023-08-28T14:04:03Z</time>
      </trkpt>
      <trkpt lat="57.092399960383773" lon="-4.741912018507719">
        <ele>36.670000000000002</ele>
        <time>2023-08-28T14:04:50Z</time>
      </trkpt>
      <trkpt lat="57.092399960383773" lon="-4.741912018507719">
        <ele>37.149999999999999</ele>
        <time>2023-08-28T14:05:42Z</time>
      </trkpt>
      <trkpt lat="57.092452012002468" lon="-4.742342010140419">
        <ele>37.149999999999999</ele>
        <time>2023-08-28T14:05:52Z</time>
      </trkpt>
      <trkpt lat="57.092600036412477" lon="-4.743554033339024">
        <ele>37.630000000000003</ele>
        <time>2023-08-28T14:06:01Z</time>
      </trkpt>
      <trkpt lat="57.092788964509964" lon="-4.745275005698204">
        <ele>37.630000000000003</ele>
        <time>2023-08-28T14:06:11Z</time>
      </trkpt>
      <trkpt lat="57.092783013358712" lon="-4.745478015393019">
        <ele>37.630000000000003</ele>
        <time>2023-08-28T14:06:12Z</time>
      </trkpt>
      <trkpt lat="57.092776978388429" lon="-4.745681025087833">
        <ele>37.630000000000003</ele>
        <time>2023-08-28T14:06:13Z</time>
      </trkpt>
      <trkpt lat="57.092619985342026" lon="-4.747699974104762">
        <ele>40.030000000000001</ele>
        <time>2023-08-28T14:06:24Z</time>
      </trkpt>
      <trkpt lat="57.092578997835517" lon="-4.747870964929462">
        <ele>40.030000000000001</ele>
        <time>2023-08-28T14:06:25Z</time>
      </trkpt>
      <trkpt lat="57.09252200089395" lon="-4.748036004602909">
        <ele>40.509999999999998</ele>
        <time>2023-08-28T14:06:26Z</time>
      </trkpt>
      <trkpt lat="57.092447988688946" lon="-4.748195009306073">
        <ele>40.990000000000002</ele>
        <time>2023-08-28T14:06:27Z</time>
      </trkpt>
      <trkpt lat="57.092368025332689" lon="-4.748366000130773">
        <ele>40.990000000000002</ele>
        <time>2023-08-28T14:06:28Z</time>
      </trkpt>
      <trkpt lat="57.09228303283453" lon="-4.748549982905388">
        <ele>41.469999999999999</ele>
        <time>2023-08-28T14:06:29Z</time>
      </trkpt>
      <trkpt lat="57.092173984274268" lon="-4.748717034235597">
        <ele>41.950000000000003</ele>
        <time>2023-08-28T14:06:30Z</time>
      </trkpt>
      <trkpt lat="57.091493960469961" lon="-4.749656980857253">
        <ele>43.880000000000003</ele>
        <time>2023-08-28T14:06:35Z</time>
      </trkpt>
      <trkpt lat="57.091340990737081" lon="-4.749879017472267">
        <ele>44.359999999999999</ele>
        <time>2023-08-28T14:06:36Z</time>
      </trkpt>
      <trkpt lat="57.090306999161839" lon="-4.750875039026141">
        <ele>47.240000000000002</ele>
        <time>2023-08-28T14:06:42Z</time>
      </trkpt>
      <trkpt lat="57.090118993073702" lon="-4.750955002382398">
        <ele>47.240000000000002</ele>
        <time>2023-08-28T14:06:43Z</time>
      </trkpt>
      <trkpt lat="57.088686022907495" lon="-4.751782966777682">
        <ele>45.32</ele>
        <time>2023-08-28T14:06:50Z</time>
      </trkpt>
      <trkpt lat="57.086537992581725" lon="-4.753314005210996">
        <ele>41.950000000000003</ele>
        <time>2023-08-28T14:07:01Z</time>
      </trkpt>
      <trkpt lat="57.085156990215182" lon="-4.755216026678681">
        <ele>39.549999999999997</ele>
        <time>2023-08-28T14:07:09Z</time>
      </trkpt>
      <trkpt lat="57.08379996009171" lon="-4.75643701851368">
        <ele>36.670000000000002</ele>
        <time>2023-08-28T14:07:16Z</time>
      </trkpt>
      <trkpt lat="57.082433961331844" lon="-4.75843601860106">
        <ele>33.299999999999997</ele>
        <time>2023-08-28T14:07:24Z</time>
      </trkpt>
      <trkpt lat="57.081774976104498" lon="-4.759759018197656">
        <ele>31.379999999999999</ele>
        <time>2023-08-28T14:07:29Z</time>
      </trkpt>
      <trkpt lat="57.081553023308516" lon="-4.760295040905476">
        <ele>30.420000000000002</ele>
        <time>2023-08-28T14:07:31Z</time>
      </trkpt>
      <trkpt lat="57.081428971141577" lon="-4.760525962337852">
        <ele>29.940000000000001</ele>
        <time>2023-08-28T14:07:32Z</time>
      </trkpt>
      <trkpt lat="57.081297961995006" lon="-4.760728972032666">
        <ele>29.940000000000001</ele>
        <time>2023-08-28T14:07:33Z</time>
      </trkpt>
      <trkpt lat="57.081149015575647" lon="-4.760876996442676">
        <ele>30.420000000000002</ele>
        <time>2023-08-28T14:07:34Z</time>
      </trkpt>
      <trkpt lat="57.080986993387341" lon="-4.76101697422564">
        <ele>29.940000000000001</ele>
        <time>2023-08-28T14:07:35Z</time>
      </trkpt>
      <trkpt lat="57.0796940010041" lon="-4.761652993038297">
        <ele>29.940000000000001</ele>
        <time>2023-08-28T14:07:42Z</time>
      </trkpt>
      <trkpt lat="57.079528039321303" lon="-4.76176799274981">
        <ele>29.940000000000001</ele>
        <time>2023-08-28T14:07:43Z</time>
      </trkpt>
      <trkpt lat="57.079385966062546" lon="-4.761976031586528">
        <ele>29.460000000000001</ele>
        <time>2023-08-28T14:07:44Z</time>
      </trkpt>
      <trkpt lat="57.079261997714639" lon="-4.762173006311059">
        <ele>29.460000000000001</ele>
        <time>2023-08-28T14:07:45Z</time>
      </trkpt>
      <trkpt lat="57.079131994396448" lon="-4.762378027662635">
        <ele>29.460000000000001</ele>
        <time>2023-08-28T14:07:46Z</time>
      </trkpt>
      <trkpt lat="57.078994028270245" lon="-4.762595035135746">
        <ele>28.98</ele>
        <time>2023-08-28T14:07:47Z</time>
      </trkpt>
      <trkpt lat="57.077574972063303" lon="-4.764738958328962">
        <ele>25.609999999999999</ele>
        <time>2023-08-28T14:07:56Z</time>
      </trkpt>
      <trkpt lat="57.075690971687436" lon="-4.767473973333836">
        <ele>21.77</ele>
        <time>2023-08-28T14:08:07Z</time>
      </trkpt>
      <trkpt lat="57.074425974860787" lon="-4.769078018143773">
        <ele>17.920000000000002</ele>
        <time>2023-08-28T14:08:14Z</time>
      </trkpt>
      <trkpt lat="57.073215963318944" lon="-4.770547030493617">
        <ele>14.56</ele>
        <time>2023-08-28T14:08:21Z</time>
      </trkpt>
      <trkpt lat="57.072899965569377" lon="-4.771162010729313">
        <ele>13.119999999999999</ele>
        <time>2023-08-28T14:08:23Z</time>
      </trkpt>
      <trkpt lat="57.072340976446867" lon="-4.772427007555962">
        <ele>9.75</ele>
        <time>2023-08-28T14:08:27Z</time>
      </trkpt>
      <trkpt lat="57.072173003107309" lon="-4.772808970883489">
        <ele>8.310000000000001</ele>
        <time>2023-08-28T14:08:28Z</time>
      </trkpt>
      <trkpt lat="57.071537990123034" lon="-4.774696994572878">
        <ele>3.02</ele>
        <time>2023-08-28T14:08:35Z</time>
      </trkpt>
      <trkpt lat="57.071454003453255" lon="-4.774975022301078">
        <ele>2.06</ele>
        <time>2023-08-28T14:08:36Z</time>
      </trkpt>
      <trkpt lat="57.071370016783476" lon="-4.775250032544136">
        <ele>1.58</ele>
        <time>2023-08-28T14:08:37Z</time>
      </trkpt>
      <trkpt lat="57.071288041770458" lon="-4.775798041373491">
        <ele>0.14</ele>
        <time>2023-08-28T14:08:39Z</time>
      </trkpt>
      <trkpt lat="57.071257028728724" lon="-4.776089983060956">
        <ele>0.14</ele>
        <time>2023-08-28T14:08:40Z</time>
      </trkpt>
      <trkpt lat="57.071226015686989" lon="-4.776370022445917">
        <ele>0.14</ele>
        <time>2023-08-28T14:08:41Z</time>
      </trkpt>
      <trkpt lat="57.071130964905024" lon="-4.777345005422831">
        <ele>0.14</ele>
        <time>2023-08-28T14:08:45Z</time>
      </trkpt>
      <trkpt lat="57.071111015975475" lon="-4.777570981532335">
        <ele>-0.34</ele>
        <time>2023-08-28T14:08:46Z</time>
      </trkpt>
      <trkpt lat="57.071089977398515" lon="-4.77781699039042">
        <ele>-0.34</ele>
        <time>2023-08-28T14:08:47Z</time>
      </trkpt>
      <trkpt lat="57.070971960201859" lon="-4.779211990535259">
        <ele>0.62</ele>
        <time>2023-08-28T14:08:52Z</time>
      </trkpt>
      <trkpt lat="57.070988975465298" lon="-4.779484989121556">
        <ele>0.14</ele>
        <time>2023-08-28T14:08:53Z</time>
      </trkpt>
      <trkpt lat="57.071066005155444" lon="-4.781349040567875">
        <ele>-3.23</ele>
        <time>2023-08-28T14:08:59Z</time>
      </trkpt>
      <trkpt lat="57.071025017648935" lon="-4.781664032489061">
        <ele>-4.19</ele>
        <time>2023-08-28T14:09:00Z</time>
      </trkpt>
      <trkpt lat="57.070986041799188" lon="-4.781967960298061">
        <ele>-4.67</ele>
        <time>2023-08-28T14:09:01Z</time>
      </trkpt>
      <trkpt lat="57.070940025150776" lon="-4.782270966097713">
        <ele>-5.63</ele>
        <time>2023-08-28T14:09:02Z</time>
      </trkpt>
      <trkpt lat="57.070893002673984" lon="-4.782554022967815">
        <ele>-6.11</ele>
        <time>2023-08-28T14:09:03Z</time>
      </trkpt>
      <trkpt lat="57.07054004073143" lon="-4.784695012494922">
        <ele>-9</ele>
        <time>2023-08-28T14:09:10Z</time>
      </trkpt>
      <trkpt lat="57.070365026593208" lon="-4.785777032375336">
        <ele>-9.960000000000001</ele>
        <time>2023-08-28T14:09:13Z</time>
      </trkpt>
      <trkpt lat="57.070308029651642" lon="-4.786147009581327">
        <ele>-10.44</ele>
        <time>2023-08-28T14:09:14Z</time>
      </trkpt>
      <trkpt lat="57.070263018831611" lon="-4.786434005945921">
        <ele>-10.92</ele>
        <time>2023-08-28T14:09:15Z</time>
      </trkpt>
      <trkpt lat="57.070249021053314" lon="-4.786799037829042">
        <ele>-11.4</ele>
        <time>2023-08-28T14:09:16Z</time>
      </trkpt>
      <trkpt lat="57.070247009396553" lon="-4.787100031971932">
        <ele>-9.48</ele>
        <time>2023-08-28T14:09:17Z</time>
      </trkpt>
      <trkpt lat="57.070343988016248" lon="-4.788969028741121">
        <ele>-8.029999999999999</ele>
        <time>2023-08-28T14:09:23Z</time>
      </trkpt>
      <trkpt lat="57.070358991622925" lon="-4.789215959608555">
        <ele>-8.51</ele>
        <time>2023-08-28T14:09:24Z</time>
      </trkpt>
      <trkpt lat="57.070375001057982" lon="-4.790480034425855">
        <ele>-10.44</ele>
        <time>2023-08-28T14:09:29Z</time>
      </trkpt>
      <trkpt lat="57.070351028814912" lon="-4.790745992213488">
        <ele>-10.92</ele>
        <time>2023-08-28T14:09:30Z</time>
      </trkpt>
      <trkpt lat="57.070294031873345" lon="-4.79128897190094">
        <ele>-11.4</ele>
        <time>2023-08-28T14:09:32Z</time>
      </trkpt>
      <trkpt lat="57.070113988593221" lon="-4.791987016797066">
        <ele>-12.84</ele>
        <time>2023-08-28T14:09:35Z</time>
      </trkpt>
      <trkpt lat="57.070024972781539" lon="-4.792179968208075">
        <ele>-12.84</ele>
        <time>2023-08-28T14:09:36Z</time>
      </trkpt>
      <trkpt lat="57.06994098611176" lon="-4.792337967082858">
        <ele>-12.84</ele>
        <time>2023-08-28T14:09:37Z</time>
      </trkpt>
      <trkpt lat="57.069841995835304" lon="-4.792451960965991">
        <ele>-12.359999999999999</ele>
        <time>2023-08-28T14:09:38Z</time>
      </trkpt>
      <trkpt lat="57.069769995287061" lon="-4.792499989271164">
        <ele>-9.48</ele>
        <time>2023-08-28T14:09:39Z</time>
      </trkpt>
      <trkpt lat="57.069661030545831" lon="-4.792537959292531">
        <ele>-9.48</ele>
        <time>2023-08-28T14:09:40Z</time>
      </trkpt>
      <trkpt lat="57.06955399364233" lon="-4.792575007304549">
        <ele>-7.55</ele>
        <time>2023-08-28T14:09:41Z</time>
      </trkpt>
      <trkpt lat="57.06875997595489" lon="-4.792819004505873">
        <ele>-0.34</ele>
        <time>2023-08-28T14:09:48Z</time>
      </trkpt>
      <trkpt lat="57.06865000538528" lon="-4.792804000899196">
        <ele>3.02</ele>
        <time>2023-08-28T14:09:49Z</time>
      </trkpt>
      <trkpt lat="57.068537017330527" lon="-4.792786985635757">
        <ele>6.87</ele>
        <time>2023-08-28T14:09:50Z</time>
      </trkpt>
      <trkpt lat="57.068374995142221" lon="-4.792764019221067">
        <ele>10.23</ele>
        <time>2023-08-28T14:09:51Z</time>
      </trkpt>
      <trkpt lat="57.068271981552243" lon="-4.792695958167315">
        <ele>13.119999999999999</ele>
        <time>2023-08-28T14:09:52Z</time>
      </trkpt>
      <trkpt lat="57.068138960748911" lon="-4.792607026174665">
        <ele>15.039999999999999</ele>
        <time>2023-08-28T14:09:53Z</time>
      </trkpt>
      <trkpt lat="57.067979034036398" lon="-4.792453972622752">
        <ele>16.48</ele>
        <time>2023-08-28T14:09:54Z</time>
      </trkpt>
      <trkpt lat="57.067852970212698" lon="-4.792288010939956">
        <ele>17.920000000000002</ele>
        <time>2023-08-28T14:09:55Z</time>
      </trkpt>
      <trkpt lat="57.067712992429733" lon="-4.792034961283207">
        <ele>18.879999999999999</ele>
        <time>2023-08-28T14:09:56Z</time>
      </trkpt>
      <trkpt lat="57.067625988274813" lon="-4.791820971295238">
        <ele>19.359999999999999</ele>
        <time>2023-08-28T14:09:57Z</time>
      </trkpt>
      <trkpt lat="57.067528003826737" lon="-4.791559036821127">
        <ele>20.809999999999999</ele>
        <time>2023-08-28T14:09:58Z</time>
      </trkpt>
      <trkpt lat="57.067480981349945" lon="-4.791346974670887">
        <ele>21.77</ele>
        <time>2023-08-28T14:09:59Z</time>
      </trkpt>
      <trkpt lat="57.067437982186675" lon="-4.791152011603117">
        <ele>22.73</ele>
        <time>2023-08-28T14:10:00Z</time>
      </trkpt>
      <trkpt lat="57.067398000508547" lon="-4.790966017171741">
        <ele>23.690000000000001</ele>
        <time>2023-08-28T14:10:01Z</time>
      </trkpt>
      <trkpt lat="57.06736003048718" lon="-4.79079301469028">
        <ele>24.649999999999999</ele>
        <time>2023-08-28T14:10:02Z</time>
      </trkpt>
      <trkpt lat="57.067329017445445" lon="-4.790571983903647">
        <ele>25.609999999999999</ele>
        <time>2023-08-28T14:10:03Z</time>
      </trkpt>
      <trkpt lat="57.067312002182007" lon="-4.790418008342385">
        <ele>26.57</ele>
        <time>2023-08-28T14:10:04Z</time>
      </trkpt>
      <trkpt lat="57.067295992746949" lon="-4.790261015295982">
        <ele>27.530000000000001</ele>
        <time>2023-08-28T14:10:05Z</time>
      </trkpt>
      <trkpt lat="57.067123996093869" lon="-4.78883801959455">
        <ele>31.859999999999999</ele>
        <time>2023-08-28T14:10:12Z</time>
      </trkpt>
      <trkpt lat="57.067041015252471" lon="-4.788341978564858">
        <ele>32.340000000000003</ele>
        <time>2023-08-28T14:10:14Z</time>
      </trkpt>
      <trkpt lat="57.066984018310905" lon="-4.788089012727141">
        <ele>32.82</ele>
        <time>2023-08-28T14:10:15Z</time>
      </trkpt>
      <trkpt lat="57.066907994449139" lon="-4.787864964455366">
        <ele>33.299999999999997</ele>
        <time>2023-08-28T14:10:16Z</time>
      </trkpt>
      <trkpt lat="57.065875008702278" lon="-4.785562036558986">
        <ele>38.109999999999999</ele>
        <time>2023-08-28T14:10:26Z</time>
      </trkpt>
      <trkpt lat="57.06540796905756" lon="-4.784451015293598">
        <ele>39.07</ele>
        <time>2023-08-28T14:10:31Z</time>
      </trkpt>
      <trkpt lat="57.065300010144711" lon="-4.784289998933673">
        <ele>39.07</ele>
        <time>2023-08-28T14:10:32Z</time>
      </trkpt>
      <trkpt lat="57.065176963806152" lon="-4.78415597230196">
        <ele>39.549999999999997</ele>
        <time>2023-08-28T14:10:33Z</time>
      </trkpt>
      <trkpt lat="57.065047966316342" lon="-4.784063016995788">
        <ele>39.549999999999997</ele>
        <time>2023-08-28T14:10:34Z</time>
      </trkpt>
      <trkpt lat="57.064856020733714" lon="-4.783923961222172">
        <ele>39.07</ele>
        <time>2023-08-28T14:10:35Z</time>
      </trkpt>
      <trkpt lat="57.064756024628878" lon="-4.783936031162739">
        <ele>39.07</ele>
        <time>2023-08-28T14:10:36Z</time>
      </trkpt>
      <trkpt lat="57.064606994390488" lon="-4.783954974263907">
        <ele>39.07</ele>
        <time>2023-08-28T14:10:37Z</time>
      </trkpt>
      <trkpt lat="57.063378039747477" lon="-4.784209029749036">
        <ele>38.590000000000003</ele>
        <time>2023-08-28T14:10:44Z</time>
      </trkpt>
      <trkpt lat="57.062447983771563" lon="-4.784586969763041">
        <ele>39.549999999999997</ele>
        <time>2023-08-28T14:10:49Z</time>
      </trkpt>
      <trkpt lat="57.061274014413357" lon="-4.785649040713906">
        <ele>41.950000000000003</ele>
        <time>2023-08-28T14:10:55Z</time>
      </trkpt>
      <trkpt lat="57.059699976816773" lon="-4.787072958424687">
        <ele>45.799999999999997</ele>
        <time>2023-08-28T14:11:03Z</time>
      </trkpt>
      <trkpt lat="57.057972969487309" lon="-4.788608020171523">
        <ele>51.57</ele>
        <time>2023-08-28T14:11:12Z</time>
      </trkpt>
      <trkpt lat="57.057006033137441" lon="-4.78954603895545">
        <ele>58.299999999999997</ele>
        <time>2023-08-28T14:11:18Z</time>
      </trkpt>
      <trkpt lat="57.056860020384192" lon="-4.789723986759782">
        <ele>59.259999999999998</ele>
        <time>2023-08-28T14:11:19Z</time>
      </trkpt>
      <trkpt lat="57.056707972660661" lon="-4.789908975362778">
        <ele>60.219999999999999</ele>
        <time>2023-08-28T14:11:20Z</time>
      </trkpt>
      <trkpt lat="57.055199984461069" lon="-4.791750982403755">
        <ele>67.430000000000007</ele>
        <time>2023-08-28T14:11:29Z</time>
      </trkpt>
      <trkpt lat="57.054866971448064" lon="-4.792174017056823">
        <ele>68.390000000000001</ele>
        <time>2023-08-28T14:11:31Z</time>
      </trkpt>
      <trkpt lat="57.053738012909889" lon="-4.793748976662755">
        <ele>73.200000000000003</ele>
        <time>2023-08-28T14:11:38Z</time>
      </trkpt>
      <trkpt lat="57.053588982671499" lon="-4.794006971642375">
        <ele>74.159999999999997</ele>
        <time>2023-08-28T14:11:39Z</time>
      </trkpt>
      <trkpt lat="57.053443975746632" lon="-4.794258009642363">
        <ele>74.640000000000001</ele>
        <time>2023-08-28T14:11:40Z</time>
      </trkpt>
      <trkpt lat="57.053298968821764" lon="-4.79450804181397">
        <ele>75.599999999999994</ele>
        <time>2023-08-28T14:11:41Z</time>
      </trkpt>
      <trkpt lat="57.053153039887547" lon="-4.794761007651687">
        <ele>76.079999999999998</ele>
        <time>2023-08-28T14:11:42Z</time>
      </trkpt>
      <trkpt lat="57.053001997992396" lon="-4.795022020116448">
        <ele>76.560000000000002</ele>
        <time>2023-08-28T14:11:43Z</time>
      </trkpt>
      <trkpt lat="57.052851039916277" lon="-4.79528303258121">
        <ele>77.040000000000006</ele>
        <time>2023-08-28T14:11:44Z</time>
      </trkpt>
      <trkpt lat="57.051614038646221" lon="-4.797227969393134">
        <ele>78.969999999999999</ele>
        <time>2023-08-28T14:11:52Z</time>
      </trkpt>
      <trkpt lat="57.049818970263004" lon="-4.799808003008366">
        <ele>77.519999999999996</ele>
        <time>2023-08-28T14:12:03Z</time>
      </trkpt>
      <trkpt lat="57.048530001193285" lon="-4.801728967577219">
        <ele>77.040000000000006</ele>
        <time>2023-08-28T14:12:11Z</time>
      </trkpt>
      <trkpt lat="57.047415040433407" lon="-4.803257994353771">
        <ele>76.079999999999998</ele>
        <time>2023-08-28T14:12:18Z</time>
      </trkpt>
      <trkpt lat="57.047128966078162" lon="-4.803552031517029">
        <ele>75.599999999999994</ele>
        <time>2023-08-28T14:12:20Z</time>
      </trkpt>
      <trkpt lat="57.04697398468852" lon="-4.803657978773117">
        <ele>74.159999999999997</ele>
        <time>2023-08-28T14:12:21Z</time>
      </trkpt>
      <trkpt lat="57.046798970550299" lon="-4.803744982928038">
        <ele>72.719999999999999</ele>
        <time>2023-08-28T14:12:22Z</time>
      </trkpt>
      <trkpt lat="57.045262986794114" lon="-4.804402962327004">
        <ele>61.659999999999997</ele>
        <time>2023-08-28T14:12:30Z</time>
      </trkpt>
      <trkpt lat="57.045096019282937" lon="-4.804370021447539">
        <ele>60.219999999999999</ele>
        <time>2023-08-28T14:12:31Z</time>
      </trkpt>
      <trkpt lat="57.044947994872928" lon="-4.804282011464238">
        <ele>58.780000000000001</ele>
        <time>2023-08-28T14:12:32Z</time>
      </trkpt>
      <trkpt lat="57.044812962412834" lon="-4.804200036451221">
        <ele>57.82</ele>
        <time>2023-08-28T14:12:33Z</time>
      </trkpt>
      <trkpt lat="57.044686982408166" lon="-4.804125018417835">
        <ele>55.890000000000001</ele>
        <time>2023-08-28T14:12:34Z</time>
      </trkpt>
      <trkpt lat="57.04394300468266" lon="-4.803679017350078">
        <ele>51.57</ele>
        <time>2023-08-28T14:12:40Z</time>
      </trkpt>
      <trkpt lat="57.043801015242934" lon="-4.803645992651582">
        <ele>50.609999999999999</ele>
        <time>2023-08-28T14:12:41Z</time>
      </trkpt>
      <trkpt lat="57.043648967519403" lon="-4.803641969338059">
        <ele>50.609999999999999</ele>
        <time>2023-08-28T14:12:42Z</time>
      </trkpt>
      <trkpt lat="57.043484011664987" lon="-4.803708018735051">
        <ele>49.649999999999999</ele>
        <time>2023-08-28T14:12:43Z</time>
      </trkpt>
      <trkpt lat="57.043356020003557" lon="-4.803787982091308">
        <ele>49.159999999999997</ele>
        <time>2023-08-28T14:12:44Z</time>
      </trkpt>
      <trkpt lat="57.04321201890707" lon="-4.803912034258246">
        <ele>48.68</ele>
        <time>2023-08-28T14:12:45Z</time>
      </trkpt>
      <trkpt lat="57.043063994497061" lon="-4.804055029526353">
        <ele>48.200000000000003</ele>
        <time>2023-08-28T14:12:46Z</time>
      </trkpt>
      <trkpt lat="57.042912030592561" lon="-4.804203975945711">
        <ele>47.719999999999999</ele>
        <time>2023-08-28T14:12:47Z</time>
      </trkpt>
      <trkpt lat="57.041392978280783" lon="-4.805568968877196">
        <ele>43.399999999999999</ele>
        <time>2023-08-28T14:12:56Z</time>
      </trkpt>
      <trkpt lat="57.039852971211076" lon="-4.806544035673142">
        <ele>43.880000000000003</ele>
        <time>2023-08-28T14:13:05Z</time>
      </trkpt>
      <trkpt lat="57.039708970114589" lon="-4.806717960163951">
        <ele>43.880000000000003</ele>
        <time>2023-08-28T14:13:06Z</time>
      </trkpt>
      <trkpt lat="57.039582990109921" lon="-4.806890040636063">
        <ele>44.359999999999999</ele>
        <time>2023-08-28T14:13:07Z</time>
      </trkpt>
      <trkpt lat="57.038748990744352" lon="-4.808173980563879">
        <ele>46.759999999999998</ele>
        <time>2023-08-28T14:13:15Z</time>
      </trkpt>
      <trkpt lat="57.038691993802786" lon="-4.808276994153857">
        <ele>46.759999999999998</ele>
        <time>2023-08-28T14:13:16Z</time>
      </trkpt>
      <trkpt lat="57.038647988811135" lon="-4.808356035500765">
        <ele>47.240000000000002</ele>
        <time>2023-08-28T14:13:17Z</time>
      </trkpt>
      <trkpt lat="57.038537012413144" lon="-4.808554016053677">
        <ele>47.719999999999999</ele>
        <time>2023-08-28T14:13:20Z</time>
      </trkpt>
      <trkpt lat="57.038407009094954" lon="-4.808787032961845">
        <ele>50.130000000000003</ele>
        <time>2023-08-28T14:13:27Z</time>
      </trkpt>
      <trkpt lat="57.038390999659896" lon="-4.808816034346819">
        <ele>50.130000000000003</ele>
        <time>2023-08-28T14:13:28Z</time>
      </trkpt>
      <trkpt lat="57.038355963304639" lon="-4.808878982439637">
        <ele>50.609999999999999</ele>
        <time>2023-08-28T14:13:29Z</time>
      </trkpt>
      <trkpt lat="57.038110038265586" lon="-4.809448029845953">
        <ele>52.530000000000001</ele>
        <time>2023-08-28T14:13:35Z</time>
      </trkpt>
      <trkpt lat="57.03762698918581" lon="-4.810597021132708">
        <ele>53.490000000000002</ele>
        <time>2023-08-28T14:13:42Z</time>
      </trkpt>
      <trkpt lat="57.03719599172473" lon="-4.811625983566046">
        <ele>53.009999999999998</ele>
        <time>2023-08-28T14:13:47Z</time>
      </trkpt>
      <trkpt lat="57.03709096647799" lon="-4.811790017411113">
        <ele>53.009999999999998</ele>
        <time>2023-08-28T14:13:48Z</time>
      </trkpt>
      <trkpt lat="57.03698200173676" lon="-4.811939969658852">
        <ele>52.530000000000001</ele>
        <time>2023-08-28T14:13:49Z</time>
      </trkpt>
      <trkpt lat="57.036859039217234" lon="-4.812019011005759">
        <ele>52.049999999999997</ele>
        <time>2023-08-28T14:13:50Z</time>
      </trkpt>
      <trkpt lat="57.036732975393534" lon="-4.812099980190396">
        <ele>52.049999999999997</ele>
        <time>2023-08-28T14:13:51Z</time>
      </trkpt>
      <trkpt lat="57.036597020924091" lon="-4.81215002015233">
        <ele>51.57</ele>
        <time>2023-08-28T14:13:52Z</time>
      </trkpt>
      <trkpt lat="57.036456959322095" lon="-4.812191007658839">
        <ele>51.57</ele>
        <time>2023-08-28T14:13:53Z</time>
      </trkpt>
      <trkpt lat="57.034875964745879" lon="-4.812501976266503">
        <ele>50.609999999999999</ele>
        <time>2023-08-28T14:14:03Z</time>
      </trkpt>
      <trkpt lat="57.033615997061133" lon="-4.813083009794354">
        <ele>53.490000000000002</ele>
        <time>2023-08-28T14:14:11Z</time>
      </trkpt>
      <trkpt lat="57.033293964341283" lon="-4.813305968418717">
        <ele>53.009999999999998</ele>
        <time>2023-08-28T14:14:13Z</time>
      </trkpt>
      <trkpt lat="57.033134959638119" lon="-4.813436977565289">
        <ele>53.009999999999998</ele>
        <time>2023-08-28T14:14:14Z</time>
      </trkpt>
      <trkpt lat="57.032987019047141" lon="-4.813636969774962">
        <ele>52.530000000000001</ele>
        <time>2023-08-28T14:14:15Z</time>
      </trkpt>
      <trkpt lat="57.030802024528384" lon="-4.816825026646256">
        <ele>49.159999999999997</ele>
        <time>2023-08-28T14:14:29Z</time>
      </trkpt>
      <trkpt lat="57.02939797192812" lon="-4.818866020068526">
        <ele>46.759999999999998</ele>
        <time>2023-08-28T14:14:38Z</time>
      </trkpt>
      <trkpt lat="57.02922698110342" lon="-4.819010021165013">
        <ele>46.759999999999998</ele>
        <time>2023-08-28T14:14:39Z</time>
      </trkpt>
      <trkpt lat="57.028520973399282" lon="-4.819491980597377">
        <ele>45.32</ele>
        <time>2023-08-28T14:14:43Z</time>
      </trkpt>
      <trkpt lat="57.028340008109808" lon="-4.81954101473093">
        <ele>44.359999999999999</ele>
        <time>2023-08-28T14:14:44Z</time>
      </trkpt>
      <trkpt lat="57.027511959895492" lon="-4.81977503746748">
        <ele>40.030000000000001</ele>
        <time>2023-08-28T14:14:50Z</time>
      </trkpt>
      <trkpt lat="57.026879964396358" lon="-4.820003025233746">
        <ele>37.149999999999999</ele>
        <time>2023-08-28T14:14:58Z</time>
      </trkpt>
      <trkpt lat="57.026424994692206" lon="-4.820402003824711">
        <ele>36.670000000000002</ele>
        <time>2023-08-28T14:15:02Z</time>
      </trkpt>
      <trkpt lat="57.026297003030777" lon="-4.82052999548614">
        <ele>36.189999999999998</ele>
        <time>2023-08-28T14:15:03Z</time>
      </trkpt>
      <trkpt lat="57.026184014976025" lon="-4.820710038766265">
        <ele>36.189999999999998</ele>
        <time>2023-08-28T14:15:04Z</time>
      </trkpt>
      <trkpt lat="57.025957033038139" lon="-4.82110901735723">
        <ele>35.229999999999997</ele>
        <time>2023-08-28T14:15:06Z</time>
      </trkpt>
      <trkpt lat="57.025873968377709" lon="-4.821338010951877">
        <ele>35.229999999999997</ele>
        <time>2023-08-28T14:15:07Z</time>
      </trkpt>
      <trkpt lat="57.025796016678214" lon="-4.821590976789594">
        <ele>34.740000000000002</ele>
        <time>2023-08-28T14:15:08Z</time>
      </trkpt>
      <trkpt lat="57.025640029460192" lon="-4.82209799811244">
        <ele>33.780000000000001</ele>
        <time>2023-08-28T14:15:10Z</time>
      </trkpt>
      <trkpt lat="57.025567023083568" lon="-4.82233302667737">
        <ele>33.299999999999997</ele>
        <time>2023-08-28T14:15:11Z</time>
      </trkpt>
      <trkpt lat="57.025469038635492" lon="-4.822578029707074">
        <ele>32.82</ele>
        <time>2023-08-28T14:15:12Z</time>
      </trkpt>
      <trkpt lat="57.025395026430488" lon="-4.82276201248169">
        <ele>32.340000000000003</ele>
        <time>2023-08-28T14:15:13Z</time>
      </trkpt>
      <trkpt lat="57.025238033384085" lon="-4.822899978607893">
        <ele>31.859999999999999</ele>
        <time>2023-08-28T14:15:14Z</time>
      </trkpt>
      <trkpt lat="57.025106018409133" lon="-4.823014978319407">
        <ele>31.379999999999999</ele>
        <time>2023-08-28T14:15:15Z</time>
      </trkpt>
      <trkpt lat="57.024966962635517" lon="-4.823077004402876">
        <ele>30.899999999999999</ele>
        <time>2023-08-28T14:15:16Z</time>
      </trkpt>
      <trkpt lat="57.024804018437862" lon="-4.823106005787849">
        <ele>30.420000000000002</ele>
        <time>2023-08-28T14:15:17Z</time>
      </trkpt>
      <trkpt lat="57.024633027613163" lon="-4.823135007172823">
        <ele>29.940000000000001</ele>
        <time>2023-08-28T14:15:18Z</time>
      </trkpt>
      <trkpt lat="57.023068964481354" lon="-4.823659965768457">
        <ele>28.5</ele>
        <time>2023-08-28T14:15:26Z</time>
      </trkpt>
      <trkpt lat="57.020905008539557" lon="-4.824860002845526">
        <ele>33.780000000000001</ele>
        <time>2023-08-28T14:15:37Z</time>
      </trkpt>
      <trkpt lat="57.020146027207375" lon="-4.825203996151686">
        <ele>35.710000000000001</ele>
        <time>2023-08-28T14:15:41Z</time>
      </trkpt>
      <trkpt lat="57.019972018897533" lon="-4.825361995026469">
        <ele>36.670000000000002</ele>
        <time>2023-08-28T14:15:42Z</time>
      </trkpt>
      <trkpt lat="57.019795998930931" lon="-4.825526028871536">
        <ele>37.149999999999999</ele>
        <time>2023-08-28T14:15:43Z</time>
      </trkpt>
      <trkpt lat="57.018197989091277" lon="-4.827118003740907">
        <ele>42.439999999999998</ele>
        <time>2023-08-28T14:15:52Z</time>
      </trkpt>
      <trkpt lat="57.018037978559732" lon="-4.827331993728876">
        <ele>42.920000000000002</ele>
        <time>2023-08-28T14:15:53Z</time>
      </trkpt>
      <trkpt lat="57.017911998555064" lon="-4.827601974830031">
        <ele>43.399999999999999</ele>
        <time>2023-08-28T14:15:54Z</time>
      </trkpt>
      <trkpt lat="57.017660038545728" lon="-4.828073959797621">
        <ele>44.359999999999999</ele>
        <time>2023-08-28T14:15:56Z</time>
      </trkpt>
      <trkpt lat="57.017525006085634" lon="-4.828270012512803">
        <ele>44.840000000000003</ele>
        <time>2023-08-28T14:15:57Z</time>
      </trkpt>
      <trkpt lat="57.017362983897328" lon="-4.828377971425653">
        <ele>45.32</ele>
        <time>2023-08-28T14:15:58Z</time>
      </trkpt>
      <trkpt lat="57.017200961709023" lon="-4.82847603969276">
        <ele>46.280000000000001</ele>
        <time>2023-08-28T14:15:59Z</time>
      </trkpt>
      <trkpt lat="57.017031982541084" lon="-4.828533958643675">
        <ele>46.759999999999998</ele>
        <time>2023-08-28T14:16:00Z</time>
      </trkpt>
      <trkpt lat="57.016867026686668" lon="-4.828591039404273">
        <ele>47.240000000000002</ele>
        <time>2023-08-28T14:16:01Z</time>
      </trkpt>
      <trkpt lat="57.016404010355473" lon="-4.828749038279057">
        <ele>48.200000000000003</ele>
        <time>2023-08-28T14:16:04Z</time>
      </trkpt>
      <trkpt lat="57.016231007874012" lon="-4.828937966376543">
        <ele>48.68</ele>
        <time>2023-08-28T14:16:05Z</time>
      </trkpt>
      <trkpt lat="57.016078038141131" lon="-4.829104011878371">
        <ele>49.159999999999997</ele>
        <time>2023-08-28T14:16:06Z</time>
      </trkpt>
      <trkpt lat="57.014898033812642" lon="-4.830246968194842">
        <ele>50.609999999999999</ele>
        <time>2023-08-28T14:16:13Z</time>
      </trkpt>
      <trkpt lat="57.01384199783206" lon="-4.831749005243182">
        <ele>49.649999999999999</ele>
        <time>2023-08-28T14:16:20Z</time>
      </trkpt>
      <trkpt lat="57.013592971488833" lon="-4.832160975784063">
        <ele>49.159999999999997</ele>
        <time>2023-08-28T14:16:22Z</time>
      </trkpt>
      <trkpt lat="57.013505967333913" lon="-4.832460964098573">
        <ele>48.68</ele>
        <time>2023-08-28T14:16:23Z</time>
      </trkpt>
      <trkpt lat="57.013426003977656" lon="-4.832735974341631">
        <ele>48.200000000000003</ele>
        <time>2023-08-28T14:16:24Z</time>
      </trkpt>
      <trkpt lat="57.013206984847784" lon="-4.833491016179323">
        <ele>47.240000000000002</ele>
        <time>2023-08-28T14:16:27Z</time>
      </trkpt>
      <trkpt lat="57.012975979596376" lon="-4.833910027518868">
        <ele>45.799999999999997</ele>
        <time>2023-08-28T14:16:29Z</time>
      </trkpt>
      <trkpt lat="57.012840025126934" lon="-4.834070038050413">
        <ele>44.840000000000003</ele>
        <time>2023-08-28T14:16:30Z</time>
      </trkpt>
      <trkpt lat="57.012561997398734" lon="-4.834389975294471">
        <ele>43.399999999999999</ele>
        <time>2023-08-28T14:16:32Z</time>
      </trkpt>
      <trkpt lat="57.012405004352331" lon="-4.834461975842714">
        <ele>42.920000000000002</ele>
        <time>2023-08-28T14:16:33Z</time>
      </trkpt>
      <trkpt lat="57.012244993820786" lon="-4.834518972784281">
        <ele>42.439999999999998</ele>
        <time>2023-08-28T14:16:34Z</time>
      </trkpt>
      <trkpt lat="57.012093029916286" lon="-4.834604971110821">
        <ele>41.469999999999999</ele>
        <time>2023-08-28T14:16:35Z</time>
      </trkpt>
      <trkpt lat="57.011957997456193" lon="-4.834705973044038">
        <ele>41.469999999999999</ele>
        <time>2023-08-28T14:16:36Z</time>
      </trkpt>
      <trkpt lat="57.011842997744679" lon="-4.834861038252711">
        <ele>40.990000000000002</ele>
        <time>2023-08-28T14:16:37Z</time>
      </trkpt>
      <trkpt lat="57.011735960841179" lon="-4.835034962743521">
        <ele>40.509999999999998</ele>
        <time>2023-08-28T14:16:38Z</time>
      </trkpt>
      <trkpt lat="57.010697023943067" lon="-4.836817961186171">
        <ele>33.780000000000001</ele>
        <time>2023-08-28T14:16:47Z</time>
      </trkpt>
      <trkpt lat="57.00982203707099" lon="-4.83842602930963">
        <ele>28.5</ele>
        <time>2023-08-28T14:16:54Z</time>
      </trkpt>
      <trkpt lat="57.009677030146122" lon="-4.838609006255865">
        <ele>28.02</ele>
        <time>2023-08-28T14:16:55Z</time>
      </trkpt>
      <trkpt lat="57.009390033781528" lon="-4.838969008997083">
        <ele>27.050000000000001</ele>
        <time>2023-08-28T14:16:57Z</time>
      </trkpt>
      <trkpt lat="57.009126003831625" lon="-4.83939497731626">
        <ele>26.09</ele>
        <time>2023-08-28T14:16:59Z</time>
      </trkpt>
      <trkpt lat="57.007634025067091" lon="-4.841598998755217">
        <ele>18.879999999999999</ele>
        <time>2023-08-28T14:17:09Z</time>
      </trkpt>
      <trkpt lat="57.005668971687555" lon="-4.844367960467935">
        <ele>15.52</ele>
        <time>2023-08-28T14:17:21Z</time>
      </trkpt>
      <trkpt lat="57.003194969147444" lon="-4.848018027842045">
        <ele>16</ele>
        <time>2023-08-28T14:17:35Z</time>
      </trkpt>
      <trkpt lat="57.000882988795638" lon="-4.85129602253437">
        <ele>28.5</ele>
        <time>2023-08-28T14:17:48Z</time>
      </trkpt>
      <trkpt lat="56.997910011559725" lon="-4.855200983583927">
        <ele>27.530000000000001</ele>
        <time>2023-08-28T14:18:04Z</time>
      </trkpt>
      <trkpt lat="56.996012013405561" lon="-4.857451021671295">
        <ele>29.940000000000001</ele>
        <time>2023-08-28T14:18:14Z</time>
      </trkpt>
      <trkpt lat="56.994188027456403" lon="-4.859985960647464">
        <ele>29.460000000000001</ele>
        <time>2023-08-28T14:18:24Z</time>
      </trkpt>
      <trkpt lat="56.993367020040751" lon="-4.861451033502817">
        <ele>28.98</ele>
        <time>2023-08-28T14:18:29Z</time>
      </trkpt>
      <trkpt lat="56.993241040036082" lon="-4.861788991838694">
        <ele>28.98</ele>
        <time>2023-08-28T14:18:30Z</time>
      </trkpt>
      <trkpt lat="56.993129979819059" lon="-4.862142037600279">
        <ele>28.5</ele>
        <time>2023-08-28T14:18:31Z</time>
      </trkpt>
      <trkpt lat="56.992746004834771" lon="-4.863163037225604">
        <ele>28.02</ele>
        <time>2023-08-28T14:18:34Z</time>
      </trkpt>
      <trkpt lat="56.992596974596381" lon="-4.863451961427927">
        <ele>27.530000000000001</ele>
        <time>2023-08-28T14:18:35Z</time>
      </trkpt>
      <trkpt lat="56.992426989600062" lon="-4.863667041063309">
        <ele>27.530000000000001</ele>
        <time>2023-08-28T14:18:36Z</time>
      </trkpt>
      <trkpt lat="56.992243006825447" lon="-4.863838031888008">
        <ele>27.530000000000001</ele>
        <time>2023-08-28T14:18:37Z</time>
      </trkpt>
      <trkpt lat="56.992051983252168" lon="-4.863968035206199">
        <ele>28.02</ele>
        <time>2023-08-28T14:18:38Z</time>
      </trkpt>
      <trkpt lat="56.991836987435818" lon="-4.864069959148765">
        <ele>28.02</ele>
        <time>2023-08-28T14:18:39Z</time>
      </trkpt>
      <trkpt lat="56.991401966661215" lon="-4.864389980211854">
        <ele>28.98</ele>
        <time>2023-08-28T14:18:41Z</time>
      </trkpt>
      <trkpt lat="56.991183031350374" lon="-4.86457597464323">
        <ele>28.98</ele>
        <time>2023-08-28T14:18:42Z</time>
      </trkpt>
      <trkpt lat="56.990977004170418" lon="-4.864819971844554">
        <ele>29.460000000000001</ele>
        <time>2023-08-28T14:18:43Z</time>
      </trkpt>
      <trkpt lat="56.989321997389197" lon="-4.866989040747285">
        <ele>30.899999999999999</ele>
        <time>2023-08-28T14:18:52Z</time>
      </trkpt>
      <trkpt lat="56.987681994214654" lon="-4.869305966421962">
        <ele>30.420000000000002</ele>
        <time>2023-08-28T14:19:01Z</time>
      </trkpt>
      <trkpt lat="56.985460035502911" lon="-4.87217903137207">
        <ele>29.460000000000001</ele>
        <time>2023-08-28T14:19:13Z</time>
      </trkpt>
      <trkpt lat="56.982974968850613" lon="-4.875158965587616">
        <ele>29.460000000000001</ele>
        <time>2023-08-28T14:19:26Z</time>
      </trkpt>
      <trkpt lat="56.980459978803992" lon="-4.877987019717693">
        <ele>30.899999999999999</ele>
        <time>2023-08-28T14:19:39Z</time>
      </trkpt>
      <trkpt lat="56.979655986651778" lon="-4.879595004022121">
        <ele>34.740000000000002</ele>
        <time>2023-08-28T14:19:45Z</time>
      </trkpt>
      <trkpt lat="56.978976968675852" lon="-4.881124030798674">
        <ele>40.030000000000001</ele>
        <time>2023-08-28T14:19:51Z</time>
      </trkpt>
      <trkpt lat="56.977979019284248" lon="-4.882949022576213">
        <ele>45.32</ele>
        <time>2023-08-28T14:20:00Z</time>
      </trkpt>
      <trkpt lat="56.977557996287942" lon="-4.883499965071678">
        <ele>44.840000000000003</ele>
        <time>2023-08-28T14:20:03Z</time>
      </trkpt>
      <trkpt lat="56.97740200906992" lon="-4.883669028058648">
        <ele>44.840000000000003</ele>
        <time>2023-08-28T14:20:04Z</time>
      </trkpt>
      <trkpt lat="56.977238981053233" lon="-4.883788973093033">
        <ele>44.840000000000003</ele>
        <time>2023-08-28T14:20:05Z</time>
      </trkpt>
      <trkpt lat="56.976905968040228" lon="-4.884006986394525">
        <ele>45.32</ele>
        <time>2023-08-28T14:20:07Z</time>
      </trkpt>
      <trkpt lat="56.974986009299755" lon="-4.884913992136717">
        <ele>51.090000000000003</ele>
        <time>2023-08-28T14:20:18Z</time>
      </trkpt>
      <trkpt lat="56.974013959988952" lon="-4.885532995685935">
        <ele>57.340000000000003</ele>
        <time>2023-08-28T14:20:24Z</time>
      </trkpt>
      <trkpt lat="56.972752986475825" lon="-4.88674895837903">
        <ele>65.030000000000001</ele>
        <time>2023-08-28T14:20:32Z</time>
      </trkpt>
      <trkpt lat="56.971284979954362" lon="-4.88786299712956">
        <ele>72.239999999999995</ele>
        <time>2023-08-28T14:20:41Z</time>
      </trkpt>
      <trkpt lat="56.970156021416187" lon="-4.88885298371315">
        <ele>78.480000000000004</ele>
        <time>2023-08-28T14:20:48Z</time>
      </trkpt>
      <trkpt lat="56.968663036823273" lon="-4.890232980251312">
        <ele>88.579999999999998</ele>
        <time>2023-08-28T14:20:58Z</time>
      </trkpt>
      <trkpt lat="56.968304039910436" lon="-4.890637993812561">
        <ele>91.459999999999994</ele>
        <time>2023-08-28T14:21:01Z</time>
      </trkpt>
      <trkpt lat="56.96741396561265" lon="-4.892092002555728">
        <ele>95.790000000000006</ele>
        <time>2023-08-28T14:21:08Z</time>
      </trkpt>
      <trkpt lat="56.967096962034702" lon="-4.892386961728334">
        <ele>96.75</ele>
        <time>2023-08-28T14:21:10Z</time>
      </trkpt>
      <trkpt lat="56.96599499322474" lon="-4.893411984667182">
        <ele>105.88</ele>
        <time>2023-08-28T14:21:17Z</time>
      </trkpt>
      <trkpt lat="56.965132998302579" lon="-4.894711012020707">
        <ele>113.56999999999999</ele>
        <time>2023-08-28T14:21:23Z</time>
      </trkpt>
      <trkpt lat="56.96384503506124" lon="-4.896597024053335">
        <ele>115.01000000000001</ele>
        <time>2023-08-28T14:21:31Z</time>
      </trkpt>
      <trkpt lat="56.962802996858954" lon="-4.89832503721118">
        <ele>114.05</ele>
        <time>2023-08-28T14:21:38Z</time>
      </trkpt>
      <trkpt lat="56.962292036041617" lon="-4.899329021573067">
        <ele>115.01000000000001</ele>
        <time>2023-08-28T14:21:42Z</time>
      </trkpt>
      <trkpt lat="56.961988024413586" lon="-4.90021700039506">
        <ele>115.98</ele>
        <time>2023-08-28T14:21:45Z</time>
      </trkpt>
      <trkpt lat="56.961055034771562" lon="-4.902713969349861">
        <ele>113.56999999999999</ele>
        <time>2023-08-28T14:21:53Z</time>
      </trkpt>
      <trkpt lat="56.959357028827071" lon="-4.906144011765719">
        <ele>101.56</ele>
        <time>2023-08-28T14:22:06Z</time>
      </trkpt>
      <trkpt lat="56.958104018121958" lon="-4.907931033521891">
        <ele>101.08</ele>
        <time>2023-08-28T14:22:14Z</time>
      </trkpt>
      <trkpt lat="56.957961022853851" lon="-4.908191962167621">
        <ele>101.08</ele>
        <time>2023-08-28T14:22:15Z</time>
      </trkpt>
      <trkpt lat="56.957545028999448" lon="-4.908954966813326">
        <ele>100.59999999999999</ele>
        <time>2023-08-28T14:22:18Z</time>
      </trkpt>
      <trkpt lat="56.957397004589438" lon="-4.909192007035017">
        <ele>100.59999999999999</ele>
        <time>2023-08-28T14:22:19Z</time>
      </trkpt>
      <trkpt lat="56.957226013764739" lon="-4.909364003688097">
        <ele>100.11</ele>
        <time>2023-08-28T14:22:20Z</time>
      </trkpt>
      <trkpt lat="56.956207025796175" lon="-4.910539984703064">
        <ele>99.629999999999995</ele>
        <time>2023-08-28T14:22:26Z</time>
      </trkpt>
      <trkpt lat="56.955174040049314" lon="-4.912168001756072">
        <ele>99.629999999999995</ele>
        <time>2023-08-28T14:22:33Z</time>
      </trkpt>
      <trkpt lat="56.953623974695802" lon="-4.914478976279497">
        <ele>95.310000000000002</ele>
        <time>2023-08-28T14:22:43Z</time>
      </trkpt>
      <trkpt lat="56.952536003664136" lon="-4.91594597697258">
        <ele>86.659999999999997</ele>
        <time>2023-08-28T14:22:50Z</time>
      </trkpt>
      <trkpt lat="56.951436968520284" lon="-4.916894976049662">
        <ele>80.409999999999997</ele>
        <time>2023-08-28T14:22:56Z</time>
      </trkpt>
      <trkpt lat="56.951264971867204" lon="-4.917056998237968">
        <ele>79.450000000000003</ele>
        <time>2023-08-28T14:22:57Z</time>
      </trkpt>
      <trkpt lat="56.950250007212162" lon="-4.918213030323386">
        <ele>74.640000000000001</ele>
        <time>2023-08-28T14:23:03Z</time>
      </trkpt>
      <trkpt lat="56.950085973367095" lon="-4.918411010876298">
        <ele>73.200000000000003</ele>
        <time>2023-08-28T14:23:04Z</time>
      </trkpt>
      <trkpt lat="56.94992302916944" lon="-4.918618965893984">
        <ele>72.239999999999995</ele>
        <time>2023-08-28T14:23:05Z</time>
      </trkpt>
      <trkpt lat="56.948478994891047" lon="-4.920530961826444">
        <ele>65.030000000000001</ele>
        <time>2023-08-28T14:23:14Z</time>
      </trkpt>
      <trkpt lat="56.948301969096065" lon="-4.920611009001732">
        <ele>64.549999999999997</ele>
        <time>2023-08-28T14:23:15Z</time>
      </trkpt>
      <trkpt lat="56.94811999797821" lon="-4.920675968751311">
        <ele>64.069999999999993</ele>
        <time>2023-08-28T14:23:16Z</time>
      </trkpt>
      <trkpt lat="56.946201967075467" lon="-4.921348029747605">
        <ele>64.549999999999997</ele>
        <time>2023-08-28T14:23:26Z</time>
      </trkpt>
      <trkpt lat="56.944531034678221" lon="-4.92221899330616">
        <ele>71.269999999999996</ele>
        <time>2023-08-28T14:23:35Z</time>
      </trkpt>
      <trkpt lat="56.943876994773746" lon="-4.922828022390604">
        <ele>75.120000000000005</ele>
        <time>2023-08-28T14:23:39Z</time>
      </trkpt>
      <trkpt lat="56.943706003949046" lon="-4.922908991575241">
        <ele>75.599999999999994</ele>
        <time>2023-08-28T14:23:40Z</time>
      </trkpt>
      <trkpt lat="56.943538030609488" lon="-4.922989038750529">
        <ele>76.560000000000002</ele>
        <time>2023-08-28T14:23:41Z</time>
      </trkpt>
      <trkpt lat="56.943365028128028" lon="-4.922976968809962">
        <ele>77.040000000000006</ele>
        <time>2023-08-28T14:23:42Z</time>
      </trkpt>
      <trkpt lat="56.943185990676284" lon="-4.922962971031666">
        <ele>78</ele>
        <time>2023-08-28T14:23:43Z</time>
      </trkpt>
      <trkpt lat="56.941075008362532" lon="-4.922792986035347">
        <ele>92.420000000000002</ele>
        <time>2023-08-28T14:23:55Z</time>
      </trkpt>
      <trkpt lat="56.940336981788278" lon="-4.922732971608639">
        <ele>95.310000000000002</ele>
        <time>2023-08-28T14:23:59Z</time>
      </trkpt>
      <trkpt lat="56.940175965428352" lon="-4.922634987160564">
        <ele>95.790000000000006</ele>
        <time>2023-08-28T14:24:00Z</time>
      </trkpt>
      <trkpt lat="56.940016038715839" lon="-4.922538008540869">
        <ele>96.269999999999996</ele>
        <time>2023-08-28T14:24:01Z</time>
      </trkpt>
      <trkpt lat="56.939867008477449" lon="-4.922387972474098">
        <ele>96.75</ele>
        <time>2023-08-28T14:24:02Z</time>
      </trkpt>
      <trkpt lat="56.939732981845737" lon="-4.922212958335877">
        <ele>97.230000000000004</ele>
        <time>2023-08-28T14:24:03Z</time>
      </trkpt>
      <trkpt lat="56.939598033204675" lon="-4.922037022188306">
        <ele>97.709999999999994</ele>
        <time>2023-08-28T14:24:04Z</time>
      </trkpt>
      <trkpt lat="56.938890013843775" lon="-4.921329002827406">
        <ele>100.11</ele>
        <time>2023-08-28T14:24:09Z</time>
      </trkpt>
      <trkpt lat="56.938746012747288" lon="-4.921269994229078">
        <ele>100.59999999999999</ele>
        <time>2023-08-28T14:24:10Z</time>
      </trkpt>
      <trkpt lat="56.938587008044124" lon="-4.921253984794021">
        <ele>101.08</ele>
        <time>2023-08-28T14:24:11Z</time>
      </trkpt>
      <trkpt lat="56.938439989462495" lon="-4.921312993392348">
        <ele>101.56</ele>
        <time>2023-08-28T14:24:12Z</time>
      </trkpt>
      <trkpt lat="56.938285008072853" lon="-4.92138097062707">
        <ele>102.52</ele>
        <time>2023-08-28T14:24:13Z</time>
      </trkpt>
      <trkpt lat="56.938146958127618" lon="-4.921492030844092">
        <ele>103.48</ele>
        <time>2023-08-28T14:24:14Z</time>
      </trkpt>
      <trkpt lat="56.93799801170826" lon="-4.921646006405354">
        <ele>104.44</ele>
        <time>2023-08-28T14:24:15Z</time>
      </trkpt>
      <trkpt lat="56.937842024490237" lon="-4.921806016936898">
        <ele>105.40000000000001</ele>
        <time>2023-08-28T14:24:16Z</time>
      </trkpt>
      <trkpt lat="56.937344977632165" lon="-4.922265009954572">
        <ele>107.31999999999999</ele>
        <time>2023-08-28T14:24:19Z</time>
      </trkpt>
      <trkpt lat="56.937171975150704" lon="-4.922355031594634">
        <ele>107.81</ele>
        <time>2023-08-28T14:24:20Z</time>
      </trkpt>
      <trkpt lat="56.936992015689611" lon="-4.922399958595634">
        <ele>107.81</ele>
        <time>2023-08-28T14:24:21Z</time>
      </trkpt>
      <trkpt lat="56.935262996703386" lon="-4.922701958566904">
        <ele>109.25</ele>
        <time>2023-08-28T14:24:30Z</time>
      </trkpt>
      <trkpt lat="56.934559000656009" lon="-4.922860963270068">
        <ele>107.81</ele>
        <time>2023-08-28T14:24:34Z</time>
      </trkpt>
      <trkpt lat="56.934409970417619" lon="-4.922973029315472">
        <ele>107.81</ele>
        <time>2023-08-28T14:24:35Z</time>
      </trkpt>
      <trkpt lat="56.934259012341499" lon="-4.923087023198605">
        <ele>107.31999999999999</ele>
        <time>2023-08-28T14:24:36Z</time>
      </trkpt>
      <trkpt lat="56.934126997366548" lon="-4.923256002366543">
        <ele>107.31999999999999</ele>
        <time>2023-08-28T14:24:37Z</time>
      </trkpt>
      <trkpt lat="56.933990037068725" lon="-4.923440990969539">
        <ele>107.31999999999999</ele>
        <time>2023-08-28T14:24:38Z</time>
      </trkpt>
      <trkpt lat="56.933880988508463" lon="-4.923656992614269">
        <ele>107.81</ele>
        <time>2023-08-28T14:24:39Z</time>
      </trkpt>
      <trkpt lat="56.933775963261724" lon="-4.923918005079031">
        <ele>107.81</ele>
        <time>2023-08-28T14:24:40Z</time>
      </trkpt>
      <trkpt lat="56.933670016005635" lon="-4.924181029200554">
        <ele>108.29000000000001</ele>
        <time>2023-08-28T14:24:41Z</time>
      </trkpt>
      <trkpt lat="56.933564990758896" lon="-4.924440030008555">
        <ele>108.29000000000001</ele>
        <time>2023-08-28T14:24:42Z</time>
      </trkpt>
      <trkpt lat="56.932693021371961" lon="-4.926866004243493">
        <ele>112.13</ele>
        <time>2023-08-28T14:24:52Z</time>
      </trkpt>
      <trkpt lat="56.931534977629781" lon="-4.929509991779923">
        <ele>112.13</ele>
        <time>2023-08-28T14:25:02Z</time>
      </trkpt>
      <trkpt lat="56.930309040471911" lon="-4.931690962985158">
        <ele>108.77</ele>
        <time>2023-08-28T14:25:10Z</time>
      </trkpt>
      <trkpt lat="56.928091021254659" lon="-4.935686029493809">
        <ele>109.25</ele>
        <time>2023-08-28T14:25:24Z</time>
      </trkpt>
      <trkpt lat="56.926344987004995" lon="-4.938186015933752">
        <ele>114.53</ele>
        <time>2023-08-28T14:25:34Z</time>
      </trkpt>
      <trkpt lat="56.924494011327624" lon="-4.940542001277208">
        <ele>117.42</ele>
        <time>2023-08-28T14:25:44Z</time>
      </trkpt>
      <trkpt lat="56.922792987897992" lon="-4.942474029958248">
        <ele>116.45999999999999</ele>
        <time>2023-08-28T14:25:53Z</time>
      </trkpt>
      <trkpt lat="56.921205036342144" lon="-4.943927032873035">
        <ele>116.45999999999999</ele>
        <time>2023-08-28T14:26:01Z</time>
      </trkpt>
      <trkpt lat="56.918798005208373" lon="-4.944901010021567">
        <ele>117.42</ele>
        <time>2023-08-28T14:26:12Z</time>
      </trkpt>
      <trkpt lat="56.915940027683973" lon="-4.945908011868596">
        <ele>118.38</ele>
        <time>2023-08-28T14:26:25Z</time>
      </trkpt>
      <trkpt lat="56.913702981546521" lon="-4.946106998249888">
        <ele>121.26000000000001</ele>
        <time>2023-08-28T14:26:35Z</time>
      </trkpt>
      <trkpt lat="56.912168003618717" lon="-4.945846991613507">
        <ele>123.67</ele>
        <time>2023-08-28T14:26:42Z</time>
      </trkpt>
      <trkpt lat="56.909077009186149" lon="-4.944823980331421">
        <ele>126.55</ele>
        <time>2023-08-28T14:26:56Z</time>
      </trkpt>
      <trkpt lat="56.906404020264745" lon="-4.944460038095713">
        <ele>126.55</ele>
        <time>2023-08-28T14:27:08Z</time>
      </trkpt>
      <trkpt lat="56.903488961979747" lon="-4.944425001740456">
        <ele>126.55</ele>
        <time>2023-08-28T14:27:21Z</time>
      </trkpt>
      <trkpt lat="56.900651017203927" lon="-4.944157032296062">
        <ele>126.55</ele>
        <time>2023-08-28T14:27:34Z</time>
      </trkpt>
      <trkpt lat="56.899456009268761" lon="-4.943797029554844">
        <ele>127.51000000000001</ele>
        <time>2023-08-28T14:27:42Z</time>
      </trkpt>
      <trkpt lat="56.899088965728879" lon="-4.943646993488073">
        <ele>128.47</ele>
        <time>2023-08-28T14:27:48Z</time>
      </trkpt>
      <trkpt lat="56.899059964343905" lon="-4.943636013194919">
        <ele>128.47</ele>
        <time>2023-08-28T14:27:49Z</time>
      </trkpt>
      <trkpt lat="56.899036997929215" lon="-4.94374698959291">
        <ele>128.94999999999999</ele>
        <time>2023-08-28T14:27:50Z</time>
      </trkpt>
      <trkpt lat="56.8990240059793" lon="-4.943842962384224">
        <ele>128.94999999999999</ele>
        <time>2023-08-28T14:27:51Z</time>
      </trkpt>
      <trkpt lat="56.899009002372622" lon="-4.943956034258008">
        <ele>129.43000000000001</ele>
        <time>2023-08-28T14:27:52Z</time>
      </trkpt>
      <trkpt lat="56.898989975452423" lon="-4.944103974848986">
        <ele>129.43000000000001</ele>
        <time>2023-08-28T14:27:53Z</time>
      </trkpt>
      <trkpt lat="56.898967009037733" lon="-4.944271026179195">
        <ele>129.43000000000001</ele>
        <time>2023-08-28T14:27:54Z</time>
      </trkpt>
      <trkpt lat="56.898909006267786" lon="-4.944423995912075">
        <ele>128.94999999999999</ele>
        <time>2023-08-28T14:27:55Z</time>
      </trkpt>
      <trkpt lat="56.898849997669458" lon="-4.944575037807226">
        <ele>128.94999999999999</ele>
        <time>2023-08-28T14:27:56Z</time>
      </trkpt>
      <trkpt lat="56.898654028773308" lon="-4.94507702998817">
        <ele>127.51000000000001</ele>
        <time>2023-08-28T14:27:59Z</time>
      </trkpt>
      <trkpt lat="56.898602982982993" lon="-4.945277022197843">
        <ele>126.55</ele>
        <time>2023-08-28T14:28:00Z</time>
      </trkpt>
      <trkpt lat="56.898567024618387" lon="-4.945496041327715">
        <ele>126.06999999999999</ele>
        <time>2023-08-28T14:28:01Z</time>
      </trkpt>
      <trkpt lat="56.898547997698188" lon="-4.945726962760091">
        <ele>124.63</ele>
        <time>2023-08-28T14:28:02Z</time>
      </trkpt>
      <trkpt lat="56.898544980213046" lon="-4.945968026295304">
        <ele>123.67</ele>
        <time>2023-08-28T14:28:03Z</time>
      </trkpt>
      <trkpt lat="56.898571969941258" lon="-4.946183022111654">
        <ele>123.19</ele>
        <time>2023-08-28T14:28:04Z</time>
      </trkpt>
      <trkpt lat="56.898613041266799" lon="-4.946353007107973">
        <ele>122.22</ele>
        <time>2023-08-28T14:28:05Z</time>
      </trkpt>
      <trkpt lat="56.898651011288166" lon="-4.946468006819487">
        <ele>121.73999999999999</ele>
        <time>2023-08-28T14:28:06Z</time>
      </trkpt>
      <trkpt lat="56.898675989359617" lon="-4.946544030681253">
        <ele>120.78</ele>
        <time>2023-08-28T14:28:07Z</time>
      </trkpt>
      <trkpt lat="56.898693004623055" lon="-4.946597004309297">
        <ele>120.3</ele>
        <time>2023-08-28T14:28:08Z</time>
      </trkpt>
      <trkpt lat="56.898929039016366" lon="-4.947308963164687">
        <ele>115.98</ele>
        <time>2023-08-28T14:28:15Z</time>
      </trkpt>
      <trkpt lat="56.899292981252074" lon="-4.948320994153619">
        <ele>109.73</ele>
        <time>2023-08-28T14:28:22Z</time>
      </trkpt>
      <trkpt lat="56.899337992072105" lon="-4.948444962501526">
        <ele>109.25</ele>
        <time>2023-08-28T14:28:23Z</time>
      </trkpt>
      <trkpt lat="56.89938903786242" lon="-4.948582006618381">
        <ele>108.77</ele>
        <time>2023-08-28T14:28:24Z</time>
      </trkpt>
      <trkpt lat="56.900033019483089" lon="-4.950110027566552">
        <ele>103.48</ele>
        <time>2023-08-28T14:28:33Z</time>
      </trkpt>
      <trkpt lat="56.900922004133463" lon="-4.95221396908164">
        <ele>98.670000000000002</ele>
        <time>2023-08-28T14:28:43Z</time>
      </trkpt>
      <trkpt lat="56.902363020926714" lon="-4.955545021221042">
        <ele>95.310000000000002</ele>
        <time>2023-08-28T14:28:58Z</time>
      </trkpt>
      <trkpt lat="56.902440972626209" lon="-4.955723974853754">
        <ele>95.310000000000002</ele>
        <time>2023-08-28T14:28:59Z</time>
      </trkpt>
      <trkpt lat="56.902524959295988" lon="-4.955893037840724">
        <ele>95.310000000000002</ele>
        <time>2023-08-28T14:29:00Z</time>
      </trkpt>
      <trkpt lat="56.903318976983428" lon="-4.957405971363187">
        <ele>94.349999999999994</ele>
        <time>2023-08-28T14:29:07Z</time>
      </trkpt>
      <trkpt lat="56.904039988294244" lon="-4.959439001977444">
        <ele>97.709999999999994</ele>
        <time>2023-08-28T14:29:15Z</time>
      </trkpt>
      <trkpt lat="56.904135039076209" lon="-4.959609992802143">
        <ele>98.189999999999998</ele>
        <time>2023-08-28T14:29:16Z</time>
      </trkpt>
      <trkpt lat="56.904233023524284" lon="-4.95977696031332">
        <ele>98.189999999999998</ele>
        <time>2023-08-28T14:29:17Z</time>
      </trkpt>
      <trkpt lat="56.904338970780373" lon="-4.959906041622162">
        <ele>98.670000000000002</ele>
        <time>2023-08-28T14:29:18Z</time>
      </trkpt>
      <trkpt lat="56.904552038758993" lon="-4.960119025781751">
        <ele>99.150000000000006</ele>
        <time>2023-08-28T14:29:20Z</time>
      </trkpt>
      <trkpt lat="56.904627978801727" lon="-4.960252968594432">
        <ele>100.11</ele>
        <time>2023-08-28T14:29:21Z</time>
      </trkpt>
      <trkpt lat="56.904677012935281" lon="-4.960412979125977">
        <ele>100.59999999999999</ele>
        <time>2023-08-28T14:29:22Z</time>
      </trkpt>
      <trkpt lat="56.904687993228436" lon="-4.960611965507269">
        <ele>101.56</ele>
        <time>2023-08-28T14:29:23Z</time>
      </trkpt>
      <trkpt lat="56.904701991006732" lon="-4.960843976587057">
        <ele>102.04000000000001</ele>
        <time>2023-08-28T14:29:24Z</time>
      </trkpt>
      <trkpt lat="56.904716994613409" lon="-4.961098032072187">
        <ele>103</ele>
        <time>2023-08-28T14:29:25Z</time>
      </trkpt>
      <trkpt lat="56.904733004048467" lon="-4.961367007344961">
        <ele>103.48</ele>
        <time>2023-08-28T14:29:26Z</time>
      </trkpt>
      <trkpt lat="56.90476200543344" lon="-4.961658027023077">
        <ele>103.95999999999999</ele>
        <time>2023-08-28T14:29:27Z</time>
      </trkpt>
      <trkpt lat="56.904798969626427" lon="-4.961974024772644">
        <ele>103.95999999999999</ele>
        <time>2023-08-28T14:29:28Z</time>
      </trkpt>
      <trkpt lat="56.90499703399837" lon="-4.963483018800616">
        <ele>105.88</ele>
        <time>2023-08-28T14:29:33Z</time>
      </trkpt>
      <trkpt lat="56.905612014234066" lon="-4.96650000102818">
        <ele>101.08</ele>
        <time>2023-08-28T14:29:43Z</time>
      </trkpt>
      <trkpt lat="56.905829021707177" lon="-4.967274991795421">
        <ele>98.189999999999998</ele>
        <time>2023-08-28T14:29:46Z</time>
      </trkpt>
      <trkpt lat="56.905908985063434" lon="-4.96753097511828">
        <ele>97.230000000000004</ele>
        <time>2023-08-28T14:29:47Z</time>
      </trkpt>
      <trkpt lat="56.905990038067102" lon="-4.967787964269519">
        <ele>96.269999999999996</ele>
        <time>2023-08-28T14:29:48Z</time>
      </trkpt>
      <trkpt lat="56.906045023351908" lon="-4.968061968684197">
        <ele>95.310000000000002</ele>
        <time>2023-08-28T14:29:49Z</time>
      </trkpt>
      <trkpt lat="56.906080981716514" lon="-4.968358017504215">
        <ele>94.829999999999998</ele>
        <time>2023-08-28T14:29:50Z</time>
      </trkpt>
      <trkpt lat="56.906114006415009" lon="-4.968650965020061">
        <ele>94.349999999999994</ele>
        <time>2023-08-28T14:29:51Z</time>
      </trkpt>
      <trkpt lat="56.90626597031951" lon="-4.97077502310276">
        <ele>89.060000000000002</ele>
        <time>2023-08-28T14:29:59Z</time>
      </trkpt>
      <trkpt lat="56.906353980302811" lon="-4.97114097699523">
        <ele>87.140000000000001</ele>
        <time>2023-08-28T14:30:01Z</time>
      </trkpt>
      <trkpt lat="56.906397985294461" lon="-4.971322026103735">
        <ele>86.180000000000007</ele>
        <time>2023-08-28T14:30:02Z</time>
      </trkpt>
      <trkpt lat="56.906762011349201" lon="-4.972829008474946">
        <ele>79.450000000000003</ele>
        <time>2023-08-28T14:30:08Z</time>
      </trkpt>
      <trkpt lat="56.907075997442007" lon="-4.974779980257154">
        <ele>72.719999999999999</ele>
        <time>2023-08-28T14:30:15Z</time>
      </trkpt>
      <trkpt lat="56.907098963856697" lon="-4.974939990788698">
        <ele>71.760000000000005</ele>
        <time>2023-08-28T14:30:16Z</time>
      </trkpt>
      <trkpt lat="56.907193008810282" lon="-4.975132020190358">
        <ele>70.790000000000006</ele>
        <time>2023-08-28T14:30:17Z</time>
      </trkpt>
      <trkpt lat="56.907274983823299" lon="-4.975297981873155">
        <ele>69.829999999999998</ele>
        <time>2023-08-28T14:30:18Z</time>
      </trkpt>
      <trkpt lat="56.907359976321459" lon="-4.975472996011376">
        <ele>68.870000000000005</ele>
        <time>2023-08-28T14:30:19Z</time>
      </trkpt>
      <trkpt lat="56.907446980476379" lon="-4.975649015977979">
        <ele>67.909999999999997</ele>
        <time>2023-08-28T14:30:20Z</time>
      </trkpt>
      <trkpt lat="56.907526021823287" lon="-4.975811038166285">
        <ele>67.430000000000007</ele>
        <time>2023-08-28T14:30:21Z</time>
      </trkpt>
      <trkpt lat="56.907840007916093" lon="-4.976580999791622">
        <ele>63.579999999999998</ele>
        <time>2023-08-28T14:30:25Z</time>
      </trkpt>
      <trkpt lat="56.907913014292717" lon="-4.976781997829676">
        <ele>63.100000000000001</ele>
        <time>2023-08-28T14:30:26Z</time>
      </trkpt>
      <trkpt lat="56.908136978745461" lon="-4.97737099416554">
        <ele>60.700000000000003</ele>
        <time>2023-08-28T14:30:29Z</time>
      </trkpt>
      <trkpt lat="56.908381981775165" lon="-4.977921014651656">
        <ele>57.340000000000003</ele>
        <time>2023-08-28T14:30:32Z</time>
      </trkpt>
      <trkpt lat="56.908467980101705" lon="-4.978113966062665">
        <ele>55.890000000000001</ele>
        <time>2023-08-28T14:30:33Z</time>
      </trkpt>
      <trkpt lat="56.908554984256625" lon="-4.978310018777847">
        <ele>54.93</ele>
        <time>2023-08-28T14:30:34Z</time>
      </trkpt>
      <trkpt lat="56.908646011725068" lon="-4.978513028472662">
        <ele>53.969999999999999</ele>
        <time>2023-08-28T14:30:35Z</time>
      </trkpt>
      <trkpt lat="56.90873502753675" lon="-4.978712014853954">
        <ele>53.009999999999998</ele>
        <time>2023-08-28T14:30:36Z</time>
      </trkpt>
      <trkpt lat="56.90882102586329" lon="-4.978905972093344">
        <ele>52.049999999999997</ele>
        <time>2023-08-28T14:30:37Z</time>
      </trkpt>
      <trkpt lat="56.908899983391166" lon="-4.979106970131397">
        <ele>50.609999999999999</ele>
        <time>2023-08-28T14:30:38Z</time>
      </trkpt>
      <trkpt lat="56.90901699475944" lon="-4.979508966207504">
        <ele>48.68</ele>
        <time>2023-08-28T14:30:40Z</time>
      </trkpt>
      <trkpt lat="56.909547988325357" lon="-4.981683986261487">
        <ele>42.439999999999998</ele>
        <time>2023-08-28T14:30:51Z</time>
      </trkpt>
      <trkpt lat="56.91000203602016" lon="-4.984123958274722">
        <ele>39.07</ele>
        <time>2023-08-28T14:31:03Z</time>
      </trkpt>
      <trkpt lat="56.910030031576753" lon="-4.984279023483396">
        <ele>39.07</ele>
        <time>2023-08-28T14:31:04Z</time>
      </trkpt>
      <trkpt lat="56.910060038790107" lon="-4.984445990994573">
        <ele>39.549999999999997</ele>
        <time>2023-08-28T14:31:05Z</time>
      </trkpt>
      <trkpt lat="56.910049980506301" lon="-4.984577000141144">
        <ele>39.07</ele>
        <time>2023-08-28T14:31:06Z</time>
      </trkpt>
      <trkpt lat="56.909986026585102" lon="-4.985391972586513">
        <ele>38.590000000000003</ele>
        <time>2023-08-28T14:31:11Z</time>
      </trkpt>
      <trkpt lat="56.909977979958057" lon="-4.985549971461296">
        <ele>38.109999999999999</ele>
        <time>2023-08-28T14:31:12Z</time>
      </trkpt>
      <trkpt lat="56.910027014091611" lon="-4.985676035284996">
        <ele>37.630000000000003</ele>
        <time>2023-08-28T14:31:13Z</time>
      </trkpt>
      <trkpt lat="56.910185012966394" lon="-4.986084988340735">
        <ele>36.189999999999998</ele>
        <time>2023-08-28T14:31:16Z</time>
      </trkpt>
      <trkpt lat="56.910234969109297" lon="-4.986247010529041">
        <ele>35.710000000000001</ele>
        <time>2023-08-28T14:31:17Z</time>
      </trkpt>
      <trkpt lat="56.910250978544354" lon="-4.986445996910334">
        <ele>34.740000000000002</ele>
        <time>2023-08-28T14:31:18Z</time>
      </trkpt>
      <trkpt lat="56.91032700240612" lon="-4.987365994602442">
        <ele>31.859999999999999</ele>
        <time>2023-08-28T14:31:22Z</time>
      </trkpt>
      <trkpt lat="56.910688010975718" lon="-4.990287004038692">
        <ele>28.5</ele>
        <time>2023-08-28T14:31:34Z</time>
      </trkpt>
      <trkpt lat="56.910805022343993" lon="-4.991656020283699">
        <ele>28.98</ele>
        <time>2023-08-28T14:31:41Z</time>
      </trkpt>
      <trkpt lat="56.910811979323626" lon="-4.991742018610239">
        <ele>29.460000000000001</ele>
        <time>2023-08-28T14:31:42Z</time>
      </trkpt>
      <trkpt lat="56.910818014293909" lon="-4.991813013330102">
        <ele>29.460000000000001</ele>
        <time>2023-08-28T14:31:43Z</time>
      </trkpt>
      <trkpt lat="56.910833017900586" lon="-4.991984004154801">
        <ele>29.460000000000001</ele>
        <time>2023-08-28T14:31:45Z</time>
      </trkpt>
      <trkpt lat="56.910920022055507" lon="-4.993128972128034">
        <ele>27.530000000000001</ele>
        <time>2023-08-28T14:31:52Z</time>
      </trkpt>
      <trkpt lat="56.911011971533298" lon="-4.995423015207052">
        <ele>25.609999999999999</ele>
        <time>2023-08-28T14:32:02Z</time>
      </trkpt>
      <trkpt lat="56.911080032587051" lon="-4.99610697850585">
        <ele>25.129999999999999</ele>
        <time>2023-08-28T14:32:05Z</time>
      </trkpt>
      <trkpt lat="56.91114298067987" lon="-4.996289033442736">
        <ele>24.649999999999999</ele>
        <time>2023-08-28T14:32:06Z</time>
      </trkpt>
      <trkpt lat="56.9112070184201" lon="-4.996474022045732">
        <ele>24.649999999999999</ele>
        <time>2023-08-28T14:32:07Z</time>
      </trkpt>
      <trkpt lat="56.911308020353317" lon="-4.996632020920515">
        <ele>24.170000000000002</ele>
        <time>2023-08-28T14:32:08Z</time>
      </trkpt>
      <trkpt lat="56.911413967609406" lon="-4.996731011196971">
        <ele>24.170000000000002</ele>
        <time>2023-08-28T14:32:09Z</time>
      </trkpt>
      <trkpt lat="56.911512035876513" lon="-4.996822960674763">
        <ele>24.170000000000002</ele>
        <time>2023-08-28T14:32:10Z</time>
      </trkpt>
      <trkpt lat="56.911628041416407" lon="-4.996846010908485">
        <ele>24.170000000000002</ele>
        <time>2023-08-28T14:32:11Z</time>
      </trkpt>
      <trkpt lat="56.91172200255096" lon="-4.996810974553227">
        <ele>24.170000000000002</ele>
        <time>2023-08-28T14:32:12Z</time>
      </trkpt>
      <trkpt lat="56.911819986999035" lon="-4.99675297178328">
        <ele>24.170000000000002</ele>
        <time>2023-08-28T14:32:13Z</time>
      </trkpt>
      <trkpt lat="56.911897016689181" lon="-4.996648030355573">
        <ele>24.170000000000002</ele>
        <time>2023-08-28T14:32:14Z</time>
      </trkpt>
      <trkpt lat="56.911974968388677" lon="-4.996539987623692">
        <ele>24.649999999999999</ele>
        <time>2023-08-28T14:32:15Z</time>
      </trkpt>
      <trkpt lat="56.91204696893692" lon="-4.996440997347236">
        <ele>24.649999999999999</ele>
        <time>2023-08-28T14:32:16Z</time>
      </trkpt>
      <trkpt lat="56.912116035819054" lon="-4.996347036212683">
        <ele>24.649999999999999</ele>
        <time>2023-08-28T14:32:17Z</time>
      </trkpt>
      <trkpt lat="56.912198010832071" lon="-4.996282998472452">
        <ele>25.129999999999999</ele>
        <time>2023-08-28T14:32:18Z</time>
      </trkpt>
      <trkpt lat="56.912284009158611" lon="-4.996237987652421">
        <ele>25.129999999999999</ele>
        <time>2023-08-28T14:32:19Z</time>
      </trkpt>
      <trkpt lat="56.912371013313532" lon="-4.99619297683239">
        <ele>25.129999999999999</ele>
        <time>2023-08-28T14:32:20Z</time>
      </trkpt>
      <trkpt lat="56.912461034953594" lon="-4.996146960183978">
        <ele>25.129999999999999</ele>
        <time>2023-08-28T14:32:21Z</time>
      </trkpt>
      <trkpt lat="56.912549966946244" lon="-4.996100021526218">
        <ele>25.129999999999999</ele>
        <time>2023-08-28T14:32:22Z</time>
      </trkpt>
      <trkpt lat="56.912849033251405" lon="-4.996002037078142">
        <ele>26.09</ele>
        <time>2023-08-28T14:32:26Z</time>
      </trkpt>
      <trkpt lat="56.912913993000984" lon="-4.996011005714536">
        <ele>26.09</ele>
        <time>2023-08-28T14:32:27Z</time>
      </trkpt>
      <trkpt lat="56.912957997992635" lon="-4.99608501791954">
        <ele>26.09</ele>
        <time>2023-08-28T14:32:28Z</time>
      </trkpt>
      <trkpt lat="56.913000997155905" lon="-4.996255002915859">
        <ele>26.09</ele>
        <time>2023-08-28T14:32:30Z</time>
      </trkpt>
      <trkpt lat="56.913021029904485" lon="-4.996376037597656">
        <ele>26.09</ele>
        <time>2023-08-28T14:32:31Z</time>
      </trkpt>
      <trkpt lat="56.913013989105821" lon="-4.996468992903829">
        <ele>26.09</ele>
        <time>2023-08-28T14:32:32Z</time>
      </trkpt>
      <trkpt lat="56.913005020469427" lon="-4.996583992615342">
        <ele>26.57</ele>
        <time>2023-08-28T14:32:33Z</time>
      </trkpt>
      <trkpt lat="56.912994040176272" lon="-4.996689017862082">
        <ele>26.57</ele>
        <time>2023-08-28T14:32:34Z</time>
      </trkpt>
      <trkpt lat="56.912978030741215" lon="-4.996787002310157">
        <ele>27.050000000000001</ele>
        <time>2023-08-28T14:32:35Z</time>
      </trkpt>
      <trkpt lat="56.912962021306157" lon="-4.996880041435361">
        <ele>27.050000000000001</ele>
        <time>2023-08-28T14:32:36Z</time>
      </trkpt>
      <trkpt lat="56.912935031577945" lon="-4.997040973976255">
        <ele>27.530000000000001</ele>
        <time>2023-08-28T14:32:38Z</time>
      </trkpt>
      <trkpt lat="56.912957997992635" lon="-4.997099982574582">
        <ele>27.530000000000001</ele>
        <time>2023-08-28T14:32:39Z</time>
      </trkpt>
      <trkpt lat="56.912988005205989" lon="-4.997177012264729">
        <ele>27.050000000000001</ele>
        <time>2023-08-28T14:32:40Z</time>
      </trkpt>
      <trkpt lat="56.913124965503812" lon="-4.997539026662707">
        <ele>27.050000000000001</ele>
        <time>2023-08-28T14:32:45Z</time>
      </trkpt>
      <trkpt lat="56.913161007687449" lon="-4.997640028595924">
        <ele>26.57</ele>
        <time>2023-08-28T14:32:47Z</time>
      </trkpt>
      <trkpt lat="56.913161007687449" lon="-4.997640028595924">
        <ele>26.09</ele>
        <time>2023-08-28T14:32:58Z</time>
      </trkpt>
      <trkpt lat="56.913269972428679" lon="-4.997613038867712">
        <ele>29.460000000000001</ele>
        <time>2023-08-28T14:34:50Z</time>
      </trkpt>
      <trkpt lat="56.913239965215325" lon="-4.997565010562539">
        <ele>32.340000000000003</ele>
        <time>2023-08-28T14:35:53Z</time>
      </trkpt>
      <trkpt lat="56.913251029327512" lon="-4.997583031654358">
        <ele>34.259999999999998</ele>
        <time>2023-08-28T14:36:38Z</time>
      </trkpt>
      <trkpt lat="56.913251029327512" lon="-4.997583031654358">
        <ele>34.259999999999998</ele>
        <time>2023-08-28T14:36:40Z</time>
      </trkpt>
      <trkpt lat="56.913191014900804" lon="-4.997722003608942">
        <ele>33.780000000000001</ele>
        <time>2023-08-28T14:36:42Z</time>
      </trkpt>
      <trkpt lat="56.9132050126791" lon="-4.997759973630309">
        <ele>34.259999999999998</ele>
        <time>2023-08-28T14:36:43Z</time>
      </trkpt>
      <trkpt lat="56.913216998800635" lon="-4.997792998328805">
        <ele>33.299999999999997</ele>
        <time>2023-08-28T14:36:44Z</time>
      </trkpt>
      <trkpt lat="56.913235019892454" lon="-4.997839014977217">
        <ele>33.299999999999997</ele>
        <time>2023-08-28T14:36:45Z</time>
      </trkpt>
      <trkpt lat="56.913261003792286" lon="-4.99791000969708">
        <ele>33.299999999999997</ele>
        <time>2023-08-28T14:36:46Z</time>
      </trkpt>
      <trkpt lat="56.913310959935188" lon="-4.99814797192812">
        <ele>32.82</ele>
        <time>2023-08-28T14:36:48Z</time>
      </trkpt>
      <trkpt lat="56.91329101100564" lon="-4.998299013823271">
        <ele>32.82</ele>
        <time>2023-08-28T14:36:49Z</time>
      </trkpt>
      <trkpt lat="56.913252035155892" lon="-4.99848903156817">
        <ele>32.82</ele>
        <time>2023-08-28T14:36:50Z</time>
      </trkpt>
      <trkpt lat="56.912721041589975" lon="-5.000299019739032">
        <ele>34.740000000000002</ele>
        <time>2023-08-28T14:36:59Z</time>
      </trkpt>
      <trkpt lat="56.912287026643753" lon="-5.001616990193725">
        <ele>37.149999999999999</ele>
        <time>2023-08-28T14:37:06Z</time>
      </trkpt>
      <trkpt lat="56.912219971418381" lon="-5.001747999340296">
        <ele>37.630000000000003</ele>
        <time>2023-08-28T14:37:07Z</time>
      </trkpt>
      <trkpt lat="56.911754021421075" lon="-5.002773022279143">
        <ele>38.109999999999999</ele>
        <time>2023-08-28T14:37:13Z</time>
      </trkpt>
      <trkpt lat="56.911513041704893" lon="-5.00338900834322">
        <ele>38.590000000000003</ele>
        <time>2023-08-28T14:37:16Z</time>
      </trkpt>
      <trkpt lat="56.911369962617755" lon="-5.003754962235689">
        <ele>38.590000000000003</ele>
        <time>2023-08-28T14:37:18Z</time>
      </trkpt>
      <trkpt lat="56.911268038675189" lon="-5.003898963332176">
        <ele>38.590000000000003</ele>
        <time>2023-08-28T14:37:19Z</time>
      </trkpt>
      <trkpt lat="56.910891020670533" lon="-5.004543028771877">
        <ele>37.630000000000003</ele>
        <time>2023-08-28T14:37:23Z</time>
      </trkpt>
      <trkpt lat="56.910747019574046" lon="-5.00485198572278">
        <ele>37.149999999999999</ele>
        <time>2023-08-28T14:37:25Z</time>
      </trkpt>
      <trkpt lat="56.910615004599094" lon="-5.004971008747816">
        <ele>36.670000000000002</ele>
        <time>2023-08-28T14:37:26Z</time>
      </trkpt>
      <trkpt lat="56.910509979352355" lon="-5.00506698153913">
        <ele>36.189999999999998</ele>
        <time>2023-08-28T14:37:27Z</time>
      </trkpt>
      <trkpt lat="56.910385005176067" lon="-5.005122972652316">
        <ele>36.189999999999998</ele>
        <time>2023-08-28T14:37:28Z</time>
      </trkpt>
      <trkpt lat="56.910258019343019" lon="-5.005179969593883">
        <ele>35.710000000000001</ele>
        <time>2023-08-28T14:37:29Z</time>
      </trkpt>
      <trkpt lat="56.910135978832841" lon="-5.00523503869772">
        <ele>35.710000000000001</ele>
        <time>2023-08-28T14:37:30Z</time>
      </trkpt>
      <trkpt lat="56.910011004656553" lon="-5.005348026752472">
        <ele>35.229999999999997</ele>
        <time>2023-08-28T14:37:31Z</time>
      </trkpt>
      <trkpt lat="56.909900028258562" lon="-5.005486998707056">
        <ele>35.229999999999997</ele>
        <time>2023-08-28T14:37:32Z</time>
      </trkpt>
      <trkpt lat="56.909663993865252" lon="-5.005747005343437">
        <ele>35.229999999999997</ele>
        <time>2023-08-28T14:37:34Z</time>
      </trkpt>
      <trkpt lat="56.909539019688964" lon="-5.005844989791513">
        <ele>35.229999999999997</ele>
        <time>2023-08-28T14:37:35Z</time>
      </trkpt>
      <trkpt lat="56.909308014437556" lon="-5.006025033071637">
        <ele>36.189999999999998</ele>
        <time>2023-08-28T14:37:37Z</time>
      </trkpt>
      <trkpt lat="56.909197960048914" lon="-5.006158975884318">
        <ele>36.670000000000002</ele>
        <time>2023-08-28T14:37:38Z</time>
      </trkpt>
      <trkpt lat="56.909107016399503" lon="-5.006319992244244">
        <ele>36.670000000000002</ele>
        <time>2023-08-28T14:37:39Z</time>
      </trkpt>
      <trkpt lat="56.909023029729724" lon="-5.006499029695988">
        <ele>37.149999999999999</ele>
        <time>2023-08-28T14:37:40Z</time>
      </trkpt>
      <trkpt lat="56.908953040838242" lon="-5.00669801607728">
        <ele>37.149999999999999</ele>
        <time>2023-08-28T14:37:41Z</time>
      </trkpt>
      <trkpt lat="56.908708959817886" lon="-5.007267985492945">
        <ele>37.630000000000003</ele>
        <time>2023-08-28T14:37:44Z</time>
      </trkpt>
      <trkpt lat="56.908598989248276" lon="-5.007423972710967">
        <ele>38.109999999999999</ele>
        <time>2023-08-28T14:37:45Z</time>
      </trkpt>
      <trkpt lat="56.908033965155482" lon="-5.008225031197071">
        <ele>39.549999999999997</ele>
        <time>2023-08-28T14:37:50Z</time>
      </trkpt>
      <trkpt lat="56.907942015677691" lon="-5.008402979001403">
        <ele>39.549999999999997</ele>
        <time>2023-08-28T14:37:51Z</time>
      </trkpt>
      <trkpt lat="56.907843025401235" lon="-5.008603977039456">
        <ele>39.549999999999997</ele>
        <time>2023-08-28T14:37:52Z</time>
      </trkpt>
      <trkpt lat="56.906936019659042" lon="-5.010432992130518">
        <ele>39.07</ele>
        <time>2023-08-28T14:38:00Z</time>
      </trkpt>
      <trkpt lat="56.906718006357551" lon="-5.010817972943187">
        <ele>39.549999999999997</ele>
        <time>2023-08-28T14:38:02Z</time>
      </trkpt>
      <trkpt lat="56.906596971675754" lon="-5.010926015675068">
        <ele>39.549999999999997</ele>
        <time>2023-08-28T14:38:03Z</time>
      </trkpt>
      <trkpt lat="56.906477026641369" lon="-5.011011008173227">
        <ele>39.549999999999997</ele>
        <time>2023-08-28T14:38:04Z</time>
      </trkpt>
      <trkpt lat="56.906247027218342" lon="-5.011222986504436">
        <ele>40.030000000000001</ele>
        <time>2023-08-28T14:38:06Z</time>
      </trkpt>
      <trkpt lat="56.906143007799983" lon="-5.0113629642874">
        <ele>40.030000000000001</ele>
        <time>2023-08-28T14:38:07Z</time>
      </trkpt>
      <trkpt lat="56.906083999201655" lon="-5.011579971760511">
        <ele>40.509999999999998</ele>
        <time>2023-08-28T14:38:08Z</time>
      </trkpt>
      <trkpt lat="56.906034965068102" lon="-5.011783987283707">
        <ele>41.469999999999999</ele>
        <time>2023-08-28T14:38:09Z</time>
      </trkpt>
      <trkpt lat="56.906000012531877" lon="-5.011991020292044">
        <ele>41.950000000000003</ele>
        <time>2023-08-28T14:38:10Z</time>
      </trkpt>
      <trkpt lat="56.905987020581961" lon="-5.012230994179845">
        <ele>42.439999999999998</ele>
        <time>2023-08-28T14:38:11Z</time>
      </trkpt>
      <trkpt lat="56.905973022803664" lon="-5.012483038008213">
        <ele>42.439999999999998</ele>
        <time>2023-08-28T14:38:12Z</time>
      </trkpt>
      <trkpt lat="56.905959025025368" lon="-5.012727035209537">
        <ele>42.439999999999998</ele>
        <time>2023-08-28T14:38:13Z</time>
      </trkpt>
      <trkpt lat="56.905947038903832" lon="-5.012955022975802">
        <ele>42.439999999999998</ele>
        <time>2023-08-28T14:38:14Z</time>
      </trkpt>
      <trkpt lat="56.905902028083801" lon="-5.013162977993488">
        <ele>41.950000000000003</ele>
        <time>2023-08-28T14:38:15Z</time>
      </trkpt>
      <trkpt lat="56.905832039192319" lon="-5.013332040980458">
        <ele>41.950000000000003</ele>
        <time>2023-08-28T14:38:16Z</time>
      </trkpt>
      <trkpt lat="56.905242037028074" lon="-5.014472985640168">
        <ele>40.030000000000001</ele>
        <time>2023-08-28T14:38:23Z</time>
      </trkpt>
      <trkpt lat="56.905139023438096" lon="-5.014555966481566">
        <ele>39.549999999999997</ele>
        <time>2023-08-28T14:38:24Z</time>
      </trkpt>
      <trkpt lat="56.90503902733326" lon="-5.014594020321965">
        <ele>39.549999999999997</ele>
        <time>2023-08-28T14:38:25Z</time>
      </trkpt>
      <trkpt lat="56.904940037056804" lon="-5.014570970088244">
        <ele>39.07</ele>
        <time>2023-08-28T14:38:26Z</time>
      </trkpt>
      <trkpt lat="56.904845992103219" lon="-5.014549009501934">
        <ele>39.07</ele>
        <time>2023-08-28T14:38:27Z</time>
      </trkpt>
      <trkpt lat="56.904759993776679" lon="-5.014528976753354">
        <ele>39.07</ele>
        <time>2023-08-28T14:38:28Z</time>
      </trkpt>
      <trkpt lat="56.904670977964997" lon="-5.014549009501934">
        <ele>39.07</ele>
        <time>2023-08-28T14:38:29Z</time>
      </trkpt>
      <trkpt lat="56.904561007395387" lon="-5.01458496786654">
        <ele>39.07</ele>
        <time>2023-08-28T14:38:30Z</time>
      </trkpt>
      <trkpt lat="56.904488001018763" lon="-5.014738021418452">
        <ele>39.07</ele>
        <time>2023-08-28T14:38:31Z</time>
      </trkpt>
      <trkpt lat="56.904408037662506" lon="-5.014903983101249">
        <ele>39.549999999999997</ele>
        <time>2023-08-28T14:38:32Z</time>
      </trkpt>
      <trkpt lat="56.90433100797236" lon="-5.015066005289555">
        <ele>40.030000000000001</ele>
        <time>2023-08-28T14:38:33Z</time>
      </trkpt>
      <trkpt lat="56.904264958575368" lon="-5.015300028026104">
        <ele>40.030000000000001</ele>
        <time>2023-08-28T14:38:34Z</time>
      </trkpt>
      <trkpt lat="56.904204022139311" lon="-5.015518041327596">
        <ele>40.509999999999998</ele>
        <time>2023-08-28T14:38:35Z</time>
      </trkpt>
      <trkpt lat="56.904135039076209" lon="-5.015716021880508">
        <ele>40.990000000000002</ele>
        <time>2023-08-28T14:38:36Z</time>
      </trkpt>
      <trkpt lat="56.904062032699585" lon="-5.015897992998362">
        <ele>41.469999999999999</ele>
        <time>2023-08-28T14:38:37Z</time>
      </trkpt>
      <trkpt lat="56.903887018561363" lon="-5.016146013513207">
        <ele>41.950000000000003</ele>
        <time>2023-08-28T14:38:39Z</time>
      </trkpt>
      <trkpt lat="56.903774030506611" lon="-5.016204016283155">
        <ele>42.439999999999998</ele>
        <time>2023-08-28T14:38:40Z</time>
      </trkpt>
      <trkpt lat="56.902669966220856" lon="-5.016772979870439">
        <ele>43.880000000000003</ele>
        <time>2023-08-28T14:38:48Z</time>
      </trkpt>
      <trkpt lat="56.90222698263824" lon="-5.017056036740542">
        <ele>43.880000000000003</ele>
        <time>2023-08-28T14:38:51Z</time>
      </trkpt>
      <trkpt lat="56.902096979320049" lon="-5.017212023958564">
        <ele>43.880000000000003</ele>
        <time>2023-08-28T14:38:52Z</time>
      </trkpt>
      <trkpt lat="56.90199002623558" lon="-5.017385026440024">
        <ele>43.399999999999999</ele>
        <time>2023-08-28T14:38:53Z</time>
      </trkpt>
      <trkpt lat="56.901894975453615" lon="-5.017539002001286">
        <ele>42.920000000000002</ele>
        <time>2023-08-28T14:38:54Z</time>
      </trkpt>
      <trkpt lat="56.901846025139093" lon="-5.017748968675733">
        <ele>42.439999999999998</ele>
        <time>2023-08-28T14:38:55Z</time>
      </trkpt>
      <trkpt lat="56.901820041239262" lon="-5.017954995855689">
        <ele>41.950000000000003</ele>
        <time>2023-08-28T14:38:56Z</time>
      </trkpt>
      <trkpt lat="56.901820041239262" lon="-5.018167980015278">
        <ele>41.469999999999999</ele>
        <time>2023-08-28T14:38:57Z</time>
      </trkpt>
      <trkpt lat="56.901820041239262" lon="-5.018394961953163">
        <ele>41.469999999999999</ele>
        <time>2023-08-28T14:38:58Z</time>
      </trkpt>
      <trkpt lat="56.901820041239262" lon="-5.018623033538461">
        <ele>40.990000000000002</ele>
        <time>2023-08-28T14:38:59Z</time>
      </trkpt>
      <trkpt lat="56.901787016540766" lon="-5.018819002434611">
        <ele>40.990000000000002</ele>
        <time>2023-08-28T14:39:00Z</time>
      </trkpt>
      <trkpt lat="56.901756003499031" lon="-5.018992004916072">
        <ele>40.990000000000002</ele>
        <time>2023-08-28T14:39:01Z</time>
      </trkpt>
      <trkpt lat="56.901702024042606" lon="-5.019078003242612">
        <ele>40.990000000000002</ele>
        <time>2023-08-28T14:39:02Z</time>
      </trkpt>
      <trkpt lat="56.901605967432261" lon="-5.019228961318731">
        <ele>40.990000000000002</ele>
        <time>2023-08-28T14:39:03Z</time>
      </trkpt>
      <trkpt lat="56.901558022946119" lon="-5.019255029037595">
        <ele>41.469999999999999</ele>
        <time>2023-08-28T14:39:04Z</time>
      </trkpt>
      <trkpt lat="56.901449980214238" lon="-5.019315965473652">
        <ele>41.469999999999999</ele>
        <time>2023-08-28T14:39:05Z</time>
      </trkpt>
      <trkpt lat="56.901200031861663" lon="-5.019456027075648">
        <ele>41.950000000000003</ele>
        <time>2023-08-28T14:39:07Z</time>
      </trkpt>
      <trkpt lat="56.901077991351485" lon="-5.01952400431037">
        <ele>41.950000000000003</ele>
        <time>2023-08-28T14:39:08Z</time>
      </trkpt>
      <trkpt lat="56.900974977761507" lon="-5.019670017063618">
        <ele>42.439999999999998</ele>
        <time>2023-08-28T14:39:09Z</time>
      </trkpt>
      <trkpt lat="56.90087397582829" lon="-5.019821980968118">
        <ele>42.439999999999998</ele>
        <time>2023-08-28T14:39:10Z</time>
      </trkpt>
      <trkpt lat="56.90078797750175" lon="-5.019991965964437">
        <ele>43.399999999999999</ele>
        <time>2023-08-28T14:39:11Z</time>
      </trkpt>
      <trkpt lat="56.900725029408932" lon="-5.02019195817411">
        <ele>43.880000000000003</ele>
        <time>2023-08-28T14:39:12Z</time>
      </trkpt>
      <trkpt lat="56.900694016367197" lon="-5.020444002002478">
        <ele>44.359999999999999</ele>
        <time>2023-08-28T14:39:13Z</time>
      </trkpt>
      <trkpt lat="56.90067901276052" lon="-5.020698979496956">
        <ele>44.359999999999999</ele>
        <time>2023-08-28T14:39:14Z</time>
      </trkpt>
      <trkpt lat="56.900663003325462" lon="-5.020969966426492">
        <ele>44.359999999999999</ele>
        <time>2023-08-28T14:39:15Z</time>
      </trkpt>
      <trkpt lat="56.900646993890405" lon="-5.021245982497931">
        <ele>44.359999999999999</ele>
        <time>2023-08-28T14:39:16Z</time>
      </trkpt>
      <trkpt lat="56.900578010827303" lon="-5.021486040204763">
        <ele>45.32</ele>
        <time>2023-08-28T14:39:17Z</time>
      </trkpt>
      <trkpt lat="56.900481032207608" lon="-5.021692989394069">
        <ele>45.799999999999997</ele>
        <time>2023-08-28T14:39:18Z</time>
      </trkpt>
      <trkpt lat="56.900383969768882" lon="-5.021901028230786">
        <ele>46.280000000000001</ele>
        <time>2023-08-28T14:39:19Z</time>
      </trkpt>
      <trkpt lat="56.900295959785581" lon="-5.022133961319923">
        <ele>46.759999999999998</ele>
        <time>2023-08-28T14:39:20Z</time>
      </trkpt>
      <trkpt lat="56.899709980934858" lon="-5.023707998916507">
        <ele>49.649999999999999</ele>
        <time>2023-08-28T14:39:26Z</time>
      </trkpt>
      <trkpt lat="56.899602022022009" lon="-5.023982003331184">
        <ele>49.649999999999999</ele>
        <time>2023-08-28T14:39:27Z</time>
      </trkpt>
      <trkpt lat="56.899205977097154" lon="-5.025983015075326">
        <ele>49.159999999999997</ele>
        <time>2023-08-28T14:39:34Z</time>
      </trkpt>
      <trkpt lat="56.899124002084136" lon="-5.026182001456618">
        <ele>48.68</ele>
        <time>2023-08-28T14:39:35Z</time>
      </trkpt>
      <trkpt lat="56.898829964920878" lon="-5.026824977248907">
        <ele>47.719999999999999</ele>
        <time>2023-08-28T14:39:38Z</time>
      </trkpt>
      <trkpt lat="56.898705996572971" lon="-5.027054976671934">
        <ele>47.240000000000002</ele>
        <time>2023-08-28T14:39:39Z</time>
      </trkpt>
      <trkpt lat="56.898555960506201" lon="-5.027248011901975">
        <ele>46.759999999999998</ele>
        <time>2023-08-28T14:39:40Z</time>
      </trkpt>
      <trkpt lat="56.897581983357668" lon="-5.028728004544973">
        <ele>43.399999999999999</ele>
        <time>2023-08-28T14:39:47Z</time>
      </trkpt>
      <trkpt lat="56.897462960332632" lon="-5.028929002583027">
        <ele>42.439999999999998</ele>
        <time>2023-08-28T14:39:48Z</time>
      </trkpt>
      <trkpt lat="56.897331029176712" lon="-5.029080966487527">
        <ele>41.950000000000003</ele>
        <time>2023-08-28T14:39:49Z</time>
      </trkpt>
      <trkpt lat="56.897183004766703" lon="-5.029180040583015">
        <ele>40.990000000000002</ele>
        <time>2023-08-28T14:39:50Z</time>
      </trkpt>
      <trkpt lat="56.8970260117203" lon="-5.029232008382678">
        <ele>40.509999999999998</ele>
        <time>2023-08-28T14:39:51Z</time>
      </trkpt>
      <trkpt lat="56.896869018673897" lon="-5.029266038909555">
        <ele>40.030000000000001</ele>
        <time>2023-08-28T14:39:52Z</time>
      </trkpt>
      <trkpt lat="56.896724011749029" lon="-5.029296968132258">
        <ele>39.549999999999997</ele>
        <time>2023-08-28T14:39:53Z</time>
      </trkpt>
      <trkpt lat="56.896593002602458" lon="-5.029355976730585">
        <ele>39.07</ele>
        <time>2023-08-28T14:39:54Z</time>
      </trkpt>
      <trkpt lat="56.896475991234183" lon="-5.029443986713886">
        <ele>38.590000000000003</ele>
        <time>2023-08-28T14:39:55Z</time>
      </trkpt>
      <trkpt lat="56.896365014836192" lon="-5.029545994475484">
        <ele>38.590000000000003</ele>
        <time>2023-08-28T14:39:56Z</time>
      </trkpt>
      <trkpt lat="56.896264012902975" lon="-5.029695024713874">
        <ele>38.590000000000003</ele>
        <time>2023-08-28T14:39:57Z</time>
      </trkpt>
      <trkpt lat="56.896158987656236" lon="-5.029850006103516">
        <ele>38.590000000000003</ele>
        <time>2023-08-28T14:39:58Z</time>
      </trkpt>
      <trkpt lat="56.895104963332415" lon="-5.031207036226988">
        <ele>37.149999999999999</ele>
        <time>2023-08-28T14:40:06Z</time>
      </trkpt>
      <trkpt lat="56.894450001418591" lon="-5.031886976212263">
        <ele>37.149999999999999</ele>
        <time>2023-08-28T14:40:11Z</time>
      </trkpt>
      <trkpt lat="56.89438596367836" lon="-5.032066013664007">
        <ele>37.149999999999999</ele>
        <time>2023-08-28T14:40:12Z</time>
      </trkpt>
      <trkpt lat="56.894341036677361" lon="-5.032253013923764">
        <ele>36.670000000000002</ele>
        <time>2023-08-28T14:40:13Z</time>
      </trkpt>
      <trkpt lat="56.894244980067015" lon="-5.032659033313394">
        <ele>36.189999999999998</ele>
        <time>2023-08-28T14:40:15Z</time>
      </trkpt>
      <trkpt lat="56.894144983962178" lon="-5.032852990552783">
        <ele>36.189999999999998</ele>
        <time>2023-08-28T14:40:16Z</time>
      </trkpt>
      <trkpt lat="56.894030990079045" lon="-5.033007971942425">
        <ele>36.189999999999998</ele>
        <time>2023-08-28T14:40:17Z</time>
      </trkpt>
      <trkpt lat="56.893680039793253" lon="-5.033548017963767">
        <ele>35.229999999999997</ele>
        <time>2023-08-28T14:40:20Z</time>
      </trkpt>
      <trkpt lat="56.893577026203275" lon="-5.033747004345059">
        <ele>35.229999999999997</ele>
        <time>2023-08-28T14:40:21Z</time>
      </trkpt>
      <trkpt lat="56.89348298124969" lon="-5.033928975462914">
        <ele>35.229999999999997</ele>
        <time>2023-08-28T14:40:22Z</time>
      </trkpt>
      <trkpt lat="56.893441993743181" lon="-5.034139025956392">
        <ele>34.740000000000002</ele>
        <time>2023-08-28T14:40:23Z</time>
      </trkpt>
      <trkpt lat="56.893403017893434" lon="-5.034377994015813">
        <ele>34.259999999999998</ele>
        <time>2023-08-28T14:40:24Z</time>
      </trkpt>
      <trkpt lat="56.893360018730164" lon="-5.034641018137336">
        <ele>33.299999999999997</ele>
        <time>2023-08-28T14:40:25Z</time>
      </trkpt>
      <trkpt lat="56.892889961600304" lon="-5.03686498850584">
        <ele>30.899999999999999</ele>
        <time>2023-08-28T14:40:32Z</time>
      </trkpt>
      <trkpt lat="56.892142966389656" lon="-5.039260033518076">
        <ele>28.02</ele>
        <time>2023-08-28T14:40:40Z</time>
      </trkpt>
      <trkpt lat="56.891218023374677" lon="-5.0410530064255">
        <ele>24.170000000000002</ele>
        <time>2023-08-28T14:40:48Z</time>
      </trkpt>
      <trkpt lat="56.890254020690918" lon="-5.042187999933958">
        <ele>23.210000000000001</ele>
        <time>2023-08-28T14:40:55Z</time>
      </trkpt>
      <trkpt lat="56.889329999685287" lon="-5.043551987037063">
        <ele>31.379999999999999</ele>
        <time>2023-08-28T14:41:02Z</time>
      </trkpt>
      <trkpt lat="56.889224974438548" lon="-5.043647037819028">
        <ele>32.340000000000003</ele>
        <time>2023-08-28T14:41:03Z</time>
      </trkpt>
      <trkpt lat="56.889118021354079" lon="-5.043620970100164">
        <ele>32.82</ele>
        <time>2023-08-28T14:41:04Z</time>
      </trkpt>
      <trkpt lat="56.889021964743733" lon="-5.043596997857094">
        <ele>33.780000000000001</ele>
        <time>2023-08-28T14:41:05Z</time>
      </trkpt>
      <trkpt lat="56.888921968638897" lon="-5.043532960116863">
        <ele>34.259999999999998</ele>
        <time>2023-08-28T14:41:06Z</time>
      </trkpt>
      <trkpt lat="56.888815015554428" lon="-5.043414020910859">
        <ele>34.740000000000002</ele>
        <time>2023-08-28T14:41:07Z</time>
      </trkpt>
      <trkpt lat="56.888220990076661" lon="-5.042756041511893">
        <ele>39.07</ele>
        <time>2023-08-28T14:41:12Z</time>
      </trkpt>
      <trkpt lat="56.888097021728754" lon="-5.042698960751295">
        <ele>40.030000000000001</ele>
        <time>2023-08-28T14:41:13Z</time>
      </trkpt>
      <trkpt lat="56.887967018410563" lon="-5.042692003771663">
        <ele>40.990000000000002</ele>
        <time>2023-08-28T14:41:14Z</time>
      </trkpt>
      <trkpt lat="56.887837015092373" lon="-5.042684962972999">
        <ele>41.950000000000003</ele>
        <time>2023-08-28T14:41:15Z</time>
      </trkpt>
      <trkpt lat="56.887697037309408" lon="-5.042714970186353">
        <ele>42.439999999999998</ele>
        <time>2023-08-28T14:41:16Z</time>
      </trkpt>
      <trkpt lat="56.886657010763884" lon="-5.043219979852438">
        <ele>42.439999999999998</ele>
        <time>2023-08-28T14:41:23Z</time>
      </trkpt>
      <trkpt lat="56.88604798167944" lon="-5.043724989518523">
        <ele>42.920000000000002</ele>
        <time>2023-08-28T14:41:27Z</time>
      </trkpt>
      <trkpt lat="56.885898029431701" lon="-5.043881982564926">
        <ele>42.920000000000002</ele>
        <time>2023-08-28T14:41:28Z</time>
      </trkpt>
      <trkpt lat="56.885050032287836" lon="-5.04477197304368">
        <ele>44.359999999999999</ele>
        <time>2023-08-28T14:41:34Z</time>
      </trkpt>
      <trkpt lat="56.884940983727574" lon="-5.044909017160535">
        <ele>44.840000000000003</ele>
        <time>2023-08-28T14:41:35Z</time>
      </trkpt>
      <trkpt lat="56.88484501093626" lon="-5.04507196135819">
        <ele>45.32</ele>
        <time>2023-08-28T14:41:36Z</time>
      </trkpt>
      <trkpt lat="56.884762030094862" lon="-5.045214034616947">
        <ele>45.32</ele>
        <time>2023-08-28T14:41:37Z</time>
      </trkpt>
      <trkpt lat="56.884692963212729" lon="-5.045482004061341">
        <ele>45.799999999999997</ele>
        <time>2023-08-28T14:41:38Z</time>
      </trkpt>
      <trkpt lat="56.88463001511991" lon="-5.045731030404568">
        <ele>46.280000000000001</ele>
        <time>2023-08-28T14:41:39Z</time>
      </trkpt>
      <trkpt lat="56.884562959894538" lon="-5.04599497653544">
        <ele>46.759999999999998</ele>
        <time>2023-08-28T14:41:40Z</time>
      </trkpt>
      <trkpt lat="56.884099021553993" lon="-5.047766994684935">
        <ele>51.57</ele>
        <time>2023-08-28T14:41:47Z</time>
      </trkpt>
      <trkpt lat="56.883934987708926" lon="-5.048210984095931">
        <ele>52.049999999999997</ele>
        <time>2023-08-28T14:41:49Z</time>
      </trkpt>
      <trkpt lat="56.883008033037186" lon="-5.049976967275143">
        <ele>53.969999999999999</ele>
        <time>2023-08-28T14:41:57Z</time>
      </trkpt>
      <trkpt lat="56.882865037769079" lon="-5.050092972815037">
        <ele>53.969999999999999</ele>
        <time>2023-08-28T14:41:58Z</time>
      </trkpt>
      <trkpt lat="56.88271801918745" lon="-5.050210990011692">
        <ele>54.450000000000003</ele>
        <time>2023-08-28T14:41:59Z</time>
      </trkpt>
      <trkpt lat="56.882423982024193" lon="-5.050448030233383">
        <ele>53.969999999999999</ele>
        <time>2023-08-28T14:42:01Z</time>
      </trkpt>
      <trkpt lat="56.88220102339983" lon="-5.050772996619344">
        <ele>53.490000000000002</ele>
        <time>2023-08-28T14:42:03Z</time>
      </trkpt>
      <trkpt lat="56.882144026458263" lon="-5.050856983289123">
        <ele>53.490000000000002</ele>
        <time>2023-08-28T14:42:04Z</time>
      </trkpt>
      <trkpt lat="56.882084012031555" lon="-5.051014982163906">
        <ele>53.009999999999998</ele>
        <time>2023-08-28T14:42:05Z</time>
      </trkpt>
      <trkpt lat="56.882047969847918" lon="-5.051112966611981">
        <ele>53.009999999999998</ele>
        <time>2023-08-28T14:42:06Z</time>
      </trkpt>
      <trkpt lat="56.882012011483312" lon="-5.051208017393947">
        <ele>52.530000000000001</ele>
        <time>2023-08-28T14:42:07Z</time>
      </trkpt>
      <trkpt lat="56.881972029805183" lon="-5.051314970478416">
        <ele>52.530000000000001</ele>
        <time>2023-08-28T14:42:08Z</time>
      </trkpt>
      <trkpt lat="56.881920984014869" lon="-5.05145100876689">
        <ele>52.530000000000001</ele>
        <time>2023-08-28T14:42:09Z</time>
      </trkpt>
      <trkpt lat="56.881862981244922" lon="-5.051604984328151">
        <ele>52.530000000000001</ele>
        <time>2023-08-28T14:42:10Z</time>
      </trkpt>
      <trkpt lat="56.881788969039917" lon="-5.051776980981231">
        <ele>52.049999999999997</ele>
        <time>2023-08-28T14:42:11Z</time>
      </trkpt>
      <trkpt lat="56.881700037047267" lon="-5.05194503813982">
        <ele>52.530000000000001</ele>
        <time>2023-08-28T14:42:12Z</time>
      </trkpt>
      <trkpt lat="56.880824966356158" lon="-5.053584035485983">
        <ele>52.049999999999997</ele>
        <time>2023-08-28T14:42:20Z</time>
      </trkpt>
      <trkpt lat="56.880710972473025" lon="-5.053799031302333">
        <ele>51.57</ele>
        <time>2023-08-28T14:42:21Z</time>
      </trkpt>
      <trkpt lat="56.880589015781879" lon="-5.053998017683625">
        <ele>51.57</ele>
        <time>2023-08-28T14:42:22Z</time>
      </trkpt>
      <trkpt lat="56.880449037998915" lon="-5.054132966324687">
        <ele>52.049999999999997</ele>
        <time>2023-08-28T14:42:23Z</time>
      </trkpt>
      <trkpt lat="56.87942803837359" lon="-5.05504198372364">
        <ele>53.009999999999998</ele>
        <time>2023-08-28T14:42:31Z</time>
      </trkpt>
      <trkpt lat="56.879304992035031" lon="-5.055068973451853">
        <ele>53.009999999999998</ele>
        <time>2023-08-28T14:42:32Z</time>
      </trkpt>
      <trkpt lat="56.879188986495137" lon="-5.055095041170716">
        <ele>53.490000000000002</ele>
        <time>2023-08-28T14:42:33Z</time>
      </trkpt>
      <trkpt lat="56.879077004268765" lon="-5.055120019242168">
        <ele>53.490000000000002</ele>
        <time>2023-08-28T14:42:34Z</time>
      </trkpt>
      <trkpt lat="56.878964016214013" lon="-5.055144997313619">
        <ele>53.490000000000002</ele>
        <time>2023-08-28T14:42:35Z</time>
      </trkpt>
      <trkpt lat="56.878852033987641" lon="-5.055237030610442">
        <ele>53.009999999999998</ele>
        <time>2023-08-28T14:42:36Z</time>
      </trkpt>
      <trkpt lat="56.87874298542738" lon="-5.055338032543659">
        <ele>53.009999999999998</ele>
        <time>2023-08-28T14:42:37Z</time>
      </trkpt>
      <trkpt lat="56.877941004931927" lon="-5.056077986955643">
        <ele>48.200000000000003</ele>
        <time>2023-08-28T14:42:46Z</time>
      </trkpt>
      <trkpt lat="56.877703964710236" lon="-5.056266998872161">
        <ele>45.32</ele>
        <time>2023-08-28T14:42:49Z</time>
      </trkpt>
      <trkpt lat="56.877616038545966" lon="-5.056336987763643">
        <ele>44.840000000000003</ele>
        <time>2023-08-28T14:42:50Z</time>
      </trkpt>
      <trkpt lat="56.877345973625779" lon="-5.056552989408374">
        <ele>43.880000000000003</ele>
        <time>2023-08-28T14:42:53Z</time>
      </trkpt>
      <trkpt lat="56.877251006662846" lon="-5.05662901327014">
        <ele>43.880000000000003</ele>
        <time>2023-08-28T14:42:54Z</time>
      </trkpt>
      <trkpt lat="56.877180011942983" lon="-5.056747030466795">
        <ele>43.399999999999999</ele>
        <time>2023-08-28T14:42:55Z</time>
      </trkpt>
      <trkpt lat="56.877098958939314" lon="-5.056879967451096">
        <ele>42.920000000000002</ele>
        <time>2023-08-28T14:42:56Z</time>
      </trkpt>
      <trkpt lat="56.877013966441154" lon="-5.057021034881473">
        <ele>42.920000000000002</ele>
        <time>2023-08-28T14:42:57Z</time>
      </trkpt>
      <trkpt lat="56.876921011134982" lon="-5.057174004614353">
        <ele>42.439999999999998</ele>
        <time>2023-08-28T14:42:58Z</time>
      </trkpt>
      <trkpt lat="56.876817997545004" lon="-5.057298978790641">
        <ele>41.950000000000003</ele>
        <time>2023-08-28T14:42:59Z</time>
      </trkpt>
      <trkpt lat="56.876474004238844" lon="-5.057572983205319">
        <ele>42.439999999999998</ele>
        <time>2023-08-28T14:43:02Z</time>
      </trkpt>
      <trkpt lat="56.876355987042189" lon="-5.057663004845381">
        <ele>42.439999999999998</ele>
        <time>2023-08-28T14:43:03Z</time>
      </trkpt>
      <trkpt lat="56.875839997082949" lon="-5.05798595957458">
        <ele>40.990000000000002</ele>
        <time>2023-08-28T14:43:07Z</time>
      </trkpt>
      <trkpt lat="56.875609997659922" lon="-5.058033987879753">
        <ele>40.030000000000001</ele>
        <time>2023-08-28T14:43:09Z</time>
      </trkpt>
      <trkpt lat="56.875516036525369" lon="-5.058095008134842">
        <ele>40.030000000000001</ele>
        <time>2023-08-28T14:43:10Z</time>
      </trkpt>
      <trkpt lat="56.875440012663603" lon="-5.058189975097776">
        <ele>40.509999999999998</ele>
        <time>2023-08-28T14:43:11Z</time>
      </trkpt>
      <trkpt lat="56.875359965488315" lon="-5.058335987851024">
        <ele>40.030000000000001</ele>
        <time>2023-08-28T14:43:12Z</time>
      </trkpt>
      <trkpt lat="56.875301040709019" lon="-5.0585219822824">
        <ele>40.509999999999998</ele>
        <time>2023-08-28T14:43:13Z</time>
      </trkpt>
      <trkpt lat="56.875233985483646" lon="-5.058732032775879">
        <ele>40.509999999999998</ele>
        <time>2023-08-28T14:43:14Z</time>
      </trkpt>
      <trkpt lat="56.875149998813868" lon="-5.058866981416941">
        <ele>40.990000000000002</ele>
        <time>2023-08-28T14:43:15Z</time>
      </trkpt>
      <trkpt lat="56.875039022415876" lon="-5.058978041633964">
        <ele>41.469999999999999</ele>
        <time>2023-08-28T14:43:16Z</time>
      </trkpt>
      <trkpt lat="56.874922011047602" lon="-5.05907703191042">
        <ele>41.950000000000003</ele>
        <time>2023-08-28T14:43:17Z</time>
      </trkpt>
      <trkpt lat="56.874800976365805" lon="-5.059161018580198">
        <ele>41.950000000000003</ele>
        <time>2023-08-28T14:43:18Z</time>
      </trkpt>
      <trkpt lat="56.874678013846278" lon="-5.059214998036623">
        <ele>42.439999999999998</ele>
        <time>2023-08-28T14:43:19Z</time>
      </trkpt>
      <trkpt lat="56.874479027464986" lon="-5.059304013848305">
        <ele>43.399999999999999</ele>
        <time>2023-08-28T14:43:21Z</time>
      </trkpt>
      <trkpt lat="56.874422030523419" lon="-5.059388000518084">
        <ele>43.880000000000003</ele>
        <time>2023-08-28T14:43:22Z</time>
      </trkpt>
      <trkpt lat="56.874334020540118" lon="-5.059558991342783">
        <ele>44.359999999999999</ele>
        <time>2023-08-28T14:43:24Z</time>
      </trkpt>
      <trkpt lat="56.874282974749804" lon="-5.059656975790858">
        <ele>44.359999999999999</ele>
        <time>2023-08-28T14:43:25Z</time>
      </trkpt>
      <trkpt lat="56.874230001121759" lon="-5.059758983552456">
        <ele>44.840000000000003</ele>
        <time>2023-08-28T14:43:26Z</time>
      </trkpt>
      <trkpt lat="56.873734965920448" lon="-5.060783000662923">
        <ele>44.840000000000003</ele>
        <time>2023-08-28T14:43:33Z</time>
      </trkpt>
      <trkpt lat="56.873408993706107" lon="-5.061709033325315">
        <ele>44.359999999999999</ele>
        <time>2023-08-28T14:43:38Z</time>
      </trkpt>
      <trkpt lat="56.873326012864709" lon="-5.061858985573053">
        <ele>43.880000000000003</ele>
        <time>2023-08-28T14:43:39Z</time>
      </trkpt>
      <trkpt lat="56.873230962082744" lon="-5.062016984447837">
        <ele>42.920000000000002</ele>
        <time>2023-08-28T14:43:40Z</time>
      </trkpt>
      <trkpt lat="56.873120991513133" lon="-5.062041040509939">
        <ele>42.439999999999998</ele>
        <time>2023-08-28T14:43:41Z</time>
      </trkpt>
      <trkpt lat="56.873001968488097" lon="-5.062068030238152">
        <ele>41.469999999999999</ele>
        <time>2023-08-28T14:43:42Z</time>
      </trkpt>
      <trkpt lat="56.87287699431181" lon="-5.062095019966364">
        <ele>40.509999999999998</ele>
        <time>2023-08-28T14:43:43Z</time>
      </trkpt>
      <trkpt lat="56.87274900265038" lon="-5.062124021351337">
        <ele>39.549999999999997</ele>
        <time>2023-08-28T14:43:44Z</time>
      </trkpt>
      <trkpt lat="56.87249100767076" lon="-5.062181018292904">
        <ele>38.109999999999999</ele>
        <time>2023-08-28T14:43:46Z</time>
      </trkpt>
      <trkpt lat="56.872366033494473" lon="-5.062256036326289">
        <ele>37.630000000000003</ele>
        <time>2023-08-28T14:43:47Z</time>
      </trkpt>
      <trkpt lat="56.872114995494485" lon="-5.062429960817099">
        <ele>36.670000000000002</ele>
        <time>2023-08-28T14:43:49Z</time>
      </trkpt>
      <trkpt lat="56.871625995263457" lon="-5.062770014628768">
        <ele>36.189999999999998</ele>
        <time>2023-08-28T14:43:54Z</time>
      </trkpt>
      <trkpt lat="56.871543014422059" lon="-5.062887025997043">
        <ele>35.710000000000001</ele>
        <time>2023-08-28T14:43:55Z</time>
      </trkpt>
      <trkpt lat="56.871449975296855" lon="-5.063017029315233">
        <ele>35.710000000000001</ele>
        <time>2023-08-28T14:43:56Z</time>
      </trkpt>
      <trkpt lat="56.871366994455457" lon="-5.063208974897862">
        <ele>35.229999999999997</ele>
        <time>2023-08-28T14:43:57Z</time>
      </trkpt>
      <trkpt lat="56.871302034705877" lon="-5.063405027613044">
        <ele>34.740000000000002</ele>
        <time>2023-08-28T14:43:58Z</time>
      </trkpt>
      <trkpt lat="56.871236991137266" lon="-5.063600996509194">
        <ele>34.259999999999998</ele>
        <time>2023-08-28T14:43:59Z</time>
      </trkpt>
      <trkpt lat="56.871174965053797" lon="-5.06378598511219">
        <ele>33.780000000000001</ele>
        <time>2023-08-28T14:44:00Z</time>
      </trkpt>
      <trkpt lat="56.871118973940611" lon="-5.063955970108509">
        <ele>33.780000000000001</ele>
        <time>2023-08-28T14:44:01Z</time>
      </trkpt>
      <trkpt lat="56.87105099670589" lon="-5.064122015610337">
        <ele>33.299999999999997</ele>
        <time>2023-08-28T14:44:02Z</time>
      </trkpt>
      <trkpt lat="56.870958041399717" lon="-5.064232992008328">
        <ele>32.82</ele>
        <time>2023-08-28T14:44:03Z</time>
      </trkpt>
      <trkpt lat="56.8708570394665" lon="-5.064354026690126">
        <ele>32.340000000000003</ele>
        <time>2023-08-28T14:44:04Z</time>
      </trkpt>
      <trkpt lat="56.87072703614831" lon="-5.064418986439705">
        <ele>31.379999999999999</ele>
        <time>2023-08-28T14:44:05Z</time>
      </trkpt>
      <trkpt lat="56.870580017566681" lon="-5.064486041665077">
        <ele>30.899999999999999</ele>
        <time>2023-08-28T14:44:06Z</time>
      </trkpt>
      <trkpt lat="56.870153965428472" lon="-5.06455703638494">
        <ele>29.940000000000001</ele>
        <time>2023-08-28T14:44:09Z</time>
      </trkpt>
      <trkpt lat="56.870026979595423" lon="-5.064577991142869">
        <ele>29.940000000000001</ele>
        <time>2023-08-28T14:44:10Z</time>
      </trkpt>
      <trkpt lat="56.869780970737338" lon="-5.064676981419325">
        <ele>30.420000000000002</ele>
        <time>2023-08-28T14:44:12Z</time>
      </trkpt>
      <trkpt lat="56.869662031531334" lon="-5.064736995846033">
        <ele>30.899999999999999</ele>
        <time>2023-08-28T14:44:13Z</time>
      </trkpt>
      <trkpt lat="56.86954703181982" lon="-5.064873034134507">
        <ele>30.899999999999999</ele>
        <time>2023-08-28T14:44:14Z</time>
      </trkpt>
      <trkpt lat="56.869442006573081" lon="-5.065047964453697">
        <ele>30.899999999999999</ele>
        <time>2023-08-28T14:44:15Z</time>
      </trkpt>
      <trkpt lat="56.86933496966958" lon="-5.065229013562203">
        <ele>31.379999999999999</ele>
        <time>2023-08-28T14:44:16Z</time>
      </trkpt>
      <trkpt lat="56.86920496635139" lon="-5.065448032692075">
        <ele>31.379999999999999</ele>
        <time>2023-08-28T14:44:17Z</time>
      </trkpt>
      <trkpt lat="56.868373984470963" lon="-5.067128017544746">
        <ele>32.340000000000003</ele>
        <time>2023-08-28T14:44:25Z</time>
      </trkpt>
      <trkpt lat="56.86765699647367" lon="-5.068607004359365">
        <ele>28.98</ele>
        <time>2023-08-28T14:44:32Z</time>
      </trkpt>
      <trkpt lat="56.867423979565501" lon="-5.068904981017113">
        <ele>27.530000000000001</ele>
        <time>2023-08-28T14:44:34Z</time>
      </trkpt>
      <trkpt lat="56.86731300316751" lon="-5.069039007648826">
        <ele>27.050000000000001</ele>
        <time>2023-08-28T14:44:35Z</time>
      </trkpt>
      <trkpt lat="56.867212001234293" lon="-5.069159958511591">
        <ele>26.57</ele>
        <time>2023-08-28T14:44:36Z</time>
      </trkpt>
      <trkpt lat="56.867123991250992" lon="-5.069266995415092">
        <ele>26.57</ele>
        <time>2023-08-28T14:44:37Z</time>
      </trkpt>
      <trkpt lat="56.867072023451328" lon="-5.069389035925269">
        <ele>26.09</ele>
        <time>2023-08-28T14:44:38Z</time>
      </trkpt>
      <trkpt lat="56.867017960175872" lon="-5.069518033415079">
        <ele>26.09</ele>
        <time>2023-08-28T14:44:39Z</time>
      </trkpt>
      <trkpt lat="56.866958029568195" lon="-5.069661028683186">
        <ele>26.09</ele>
        <time>2023-08-28T14:44:40Z</time>
      </trkpt>
      <trkpt lat="56.866822997108102" lon="-5.069981971755624">
        <ele>26.09</ele>
        <time>2023-08-28T14:44:42Z</time>
      </trkpt>
      <trkpt lat="56.866740016266704" lon="-5.070148017257452">
        <ele>26.09</ele>
        <time>2023-08-28T14:44:43Z</time>
      </trkpt>
      <trkpt lat="56.866355035454035" lon="-5.070740031078458">
        <ele>28.5</ele>
        <time>2023-08-28T14:44:47Z</time>
      </trkpt>
      <trkpt lat="56.866249004378915" lon="-5.070837009698153">
        <ele>28.5</ele>
        <time>2023-08-28T14:44:48Z</time>
      </trkpt>
      <trkpt lat="56.866141967475414" lon="-5.070926025509834">
        <ele>28.98</ele>
        <time>2023-08-28T14:44:49Z</time>
      </trkpt>
      <trkpt lat="56.866039037704468" lon="-5.070970030501485">
        <ele>29.460000000000001</ele>
        <time>2023-08-28T14:44:50Z</time>
      </trkpt>
      <trkpt lat="56.86593702994287" lon="-5.071013029664755">
        <ele>29.940000000000001</ele>
        <time>2023-08-28T14:44:51Z</time>
      </trkpt>
      <trkpt lat="56.86582999303937" lon="-5.071058040484786">
        <ele>29.940000000000001</ele>
        <time>2023-08-28T14:44:52Z</time>
      </trkpt>
      <trkpt lat="56.865712981671095" lon="-5.071144038811326">
        <ele>30.420000000000002</ele>
        <time>2023-08-28T14:44:53Z</time>
      </trkpt>
      <trkpt lat="56.865608040243387" lon="-5.071290973573923">
        <ele>30.420000000000002</ele>
        <time>2023-08-28T14:44:54Z</time>
      </trkpt>
      <trkpt lat="56.865493962541223" lon="-5.071451989933848">
        <ele>30.899999999999999</ele>
        <time>2023-08-28T14:44:55Z</time>
      </trkpt>
      <trkpt lat="56.865149969235063" lon="-5.071937972679734">
        <ele>31.859999999999999</ele>
        <time>2023-08-28T14:44:58Z</time>
      </trkpt>
      <trkpt lat="56.86503698118031" lon="-5.072096977382898">
        <ele>31.859999999999999</ele>
        <time>2023-08-28T14:44:59Z</time>
      </trkpt>
      <trkpt lat="56.864585028961301" lon="-5.072621013969183">
        <ele>32.340000000000003</ele>
        <time>2023-08-28T14:45:03Z</time>
      </trkpt>
      <trkpt lat="56.864472040906549" lon="-5.072740959003568">
        <ele>32.340000000000003</ele>
        <time>2023-08-28T14:45:04Z</time>
      </trkpt>
      <trkpt lat="56.864356035366654" lon="-5.072865011170507">
        <ele>32.340000000000003</ele>
        <time>2023-08-28T14:45:05Z</time>
      </trkpt>
      <trkpt lat="56.864247992634773" lon="-5.07298001088202">
        <ele>32.340000000000003</ele>
        <time>2023-08-28T14:45:06Z</time>
      </trkpt>
      <trkpt lat="56.864142967388034" lon="-5.073169022798538">
        <ele>32.340000000000003</ele>
        <time>2023-08-28T14:45:07Z</time>
      </trkpt>
      <trkpt lat="56.864041965454817" lon="-5.073349988088012">
        <ele>32.82</ele>
        <time>2023-08-28T14:45:08Z</time>
      </trkpt>
      <trkpt lat="56.86394196934998" lon="-5.073529025539756">
        <ele>33.780000000000001</ele>
        <time>2023-08-28T14:45:09Z</time>
      </trkpt>
      <trkpt lat="56.863741977140307" lon="-5.073886010795832">
        <ele>35.229999999999997</ele>
        <time>2023-08-28T14:45:11Z</time>
      </trkpt>
      <trkpt lat="56.863622032105923" lon="-5.074051972478628">
        <ele>35.710000000000001</ele>
        <time>2023-08-28T14:45:12Z</time>
      </trkpt>
      <trkpt lat="56.863385997712612" lon="-5.074372999370098">
        <ele>37.630000000000003</ele>
        <time>2023-08-28T14:45:14Z</time>
      </trkpt>
      <trkpt lat="56.863143006339669" lon="-5.074576009064913">
        <ele>39.549999999999997</ele>
        <time>2023-08-28T14:45:16Z</time>
      </trkpt>
      <trkpt lat="56.862922981381416" lon="-5.074753034859896">
        <ele>41.469999999999999</ele>
        <time>2023-08-28T14:45:18Z</time>
      </trkpt>
      <trkpt lat="56.862806975841522" lon="-5.074865017086268">
        <ele>41.950000000000003</ele>
        <time>2023-08-28T14:45:19Z</time>
      </trkpt>
      <trkpt lat="56.862698011100292" lon="-5.075035002082586">
        <ele>42.439999999999998</ele>
        <time>2023-08-28T14:45:20Z</time>
      </trkpt>
      <trkpt lat="56.862482009455562" lon="-5.075373966246843">
        <ele>42.920000000000002</ele>
        <time>2023-08-28T14:45:22Z</time>
      </trkpt>
      <trkpt lat="56.862381007522345" lon="-5.075532970950007">
        <ele>43.399999999999999</ele>
        <time>2023-08-28T14:45:23Z</time>
      </trkpt>
      <trkpt lat="56.861716993153095" lon="-5.076211988925934">
        <ele>45.799999999999997</ele>
        <time>2023-08-28T14:45:28Z</time>
      </trkpt>
      <trkpt lat="56.861601993441582" lon="-5.076391026377678">
        <ele>46.280000000000001</ele>
        <time>2023-08-28T14:45:29Z</time>
      </trkpt>
      <trkpt lat="56.861236961558461" lon="-5.076906010508537">
        <ele>46.759999999999998</ele>
        <time>2023-08-28T14:45:32Z</time>
      </trkpt>
      <trkpt lat="56.860907971858978" lon="-5.077408002689481">
        <ele>46.280000000000001</ele>
        <time>2023-08-28T14:45:35Z</time>
      </trkpt>
      <trkpt lat="56.860815016552806" lon="-5.077622998505831">
        <ele>45.799999999999997</ele>
        <time>2023-08-28T14:45:36Z</time>
      </trkpt>
      <trkpt lat="56.860723989084363" lon="-5.077831037342548">
        <ele>45.32</ele>
        <time>2023-08-28T14:45:37Z</time>
      </trkpt>
      <trkpt lat="56.860634973272681" lon="-5.078033963218331">
        <ele>44.840000000000003</ele>
        <time>2023-08-28T14:45:38Z</time>
      </trkpt>
      <trkpt lat="56.860536988824606" lon="-5.07822297513485">
        <ele>43.880000000000003</ele>
        <time>2023-08-28T14:45:39Z</time>
      </trkpt>
      <trkpt lat="56.860428024083376" lon="-5.078396983444691">
        <ele>43.880000000000003</ele>
        <time>2023-08-28T14:45:40Z</time>
      </trkpt>
      <trkpt lat="56.859915973618627" lon="-5.079013975337148">
        <ele>41.950000000000003</ele>
        <time>2023-08-28T14:45:44Z</time>
      </trkpt>
      <trkpt lat="56.859790999442339" lon="-5.079164011403918">
        <ele>41.469999999999999</ele>
        <time>2023-08-28T14:45:45Z</time>
      </trkpt>
      <trkpt lat="56.859671976417303" lon="-5.079308012500405">
        <ele>40.509999999999998</ele>
        <time>2023-08-28T14:45:46Z</time>
      </trkpt>
      <trkpt lat="56.85955697670579" lon="-5.079445978626609">
        <ele>40.030000000000001</ele>
        <time>2023-08-28T14:45:47Z</time>
      </trkpt>
      <trkpt lat="56.859472990036011" lon="-5.079645970836282">
        <ele>40.030000000000001</ele>
        <time>2023-08-28T14:45:48Z</time>
      </trkpt>
      <trkpt lat="56.859399983659387" lon="-5.079868007451296">
        <ele>39.549999999999997</ele>
        <time>2023-08-28T14:45:49Z</time>
      </trkpt>
      <trkpt lat="56.859324965626001" lon="-5.080095995217562">
        <ele>39.07</ele>
        <time>2023-08-28T14:45:50Z</time>
      </trkpt>
      <trkpt lat="56.859253970906138" lon="-5.080314008519054">
        <ele>39.07</ele>
        <time>2023-08-28T14:45:51Z</time>
      </trkpt>
      <trkpt lat="56.859184987843037" lon="-5.08052296936512">
        <ele>39.07</ele>
        <time>2023-08-28T14:45:52Z</time>
      </trkpt>
      <trkpt lat="56.859114998951554" lon="-5.08073503151536">
        <ele>38.109999999999999</ele>
        <time>2023-08-28T14:45:53Z</time>
      </trkpt>
      <trkpt lat="56.859050961211324" lon="-5.080931000411511">
        <ele>37.630000000000003</ele>
        <time>2023-08-28T14:45:54Z</time>
      </trkpt>
      <trkpt lat="56.85897896066308" lon="-5.081113977357745">
        <ele>37.149999999999999</ele>
        <time>2023-08-28T14:45:55Z</time>
      </trkpt>
      <trkpt lat="56.858897991478443" lon="-5.081275999546051">
        <ele>36.670000000000002</ele>
        <time>2023-08-28T14:45:56Z</time>
      </trkpt>
      <trkpt lat="56.8588259909302" lon="-5.081432992592454">
        <ele>36.189999999999998</ele>
        <time>2023-08-28T14:45:57Z</time>
      </trkpt>
      <trkpt lat="56.858497001230717" lon="-5.082357013598084">
        <ele>33.299999999999997</ele>
        <time>2023-08-28T14:46:02Z</time>
      </trkpt>
      <trkpt lat="56.858303966000676" lon="-5.082679968327284">
        <ele>33.780000000000001</ele>
        <time>2023-08-28T14:46:04Z</time>
      </trkpt>
      <trkpt lat="56.85820103622973" lon="-5.082790022715926">
        <ele>34.740000000000002</ele>
        <time>2023-08-28T14:46:05Z</time>
      </trkpt>
      <trkpt lat="56.858102967962623" lon="-5.082894964143634">
        <ele>35.229999999999997</ele>
        <time>2023-08-28T14:46:06Z</time>
      </trkpt>
      <trkpt lat="56.858003977686167" lon="-5.083000995218754">
        <ele>35.229999999999997</ele>
        <time>2023-08-28T14:46:07Z</time>
      </trkpt>
      <trkpt lat="56.85792401432991" lon="-5.083180032670498">
        <ele>35.229999999999997</ele>
        <time>2023-08-28T14:46:08Z</time>
      </trkpt>
      <trkpt lat="56.85783701017499" lon="-5.083372984081507">
        <ele>35.229999999999997</ele>
        <time>2023-08-28T14:46:09Z</time>
      </trkpt>
      <trkpt lat="56.857750006020069" lon="-5.083568030968308">
        <ele>35.710000000000001</ele>
        <time>2023-08-28T14:46:10Z</time>
      </trkpt>
      <trkpt lat="56.85764498077333" lon="-5.08372301235795">
        <ele>35.710000000000001</ele>
        <time>2023-08-28T14:46:11Z</time>
      </trkpt>
      <trkpt lat="56.857539033517241" lon="-5.083857960999012">
        <ele>35.229999999999997</ele>
        <time>2023-08-28T14:46:12Z</time>
      </trkpt>
      <trkpt lat="56.857426967471838" lon="-5.08400003425777">
        <ele>35.229999999999997</ele>
        <time>2023-08-28T14:46:13Z</time>
      </trkpt>
      <trkpt lat="56.857318002730608" lon="-5.084136994555593">
        <ele>34.740000000000002</ele>
        <time>2023-08-28T14:46:14Z</time>
      </trkpt>
      <trkpt lat="56.856994964182377" lon="-5.084546031430364">
        <ele>33.780000000000001</ele>
        <time>2023-08-28T14:46:17Z</time>
      </trkpt>
      <trkpt lat="56.856243023648858" lon="-5.084956996142864">
        <ele>36.189999999999998</ele>
        <time>2023-08-28T14:46:24Z</time>
      </trkpt>
      <trkpt lat="56.855188999325037" lon="-5.085533000528812">
        <ele>33.299999999999997</ele>
        <time>2023-08-28T14:46:33Z</time>
      </trkpt>
      <trkpt lat="56.855072993785143" lon="-5.085551021620631">
        <ele>32.82</ele>
        <time>2023-08-28T14:46:34Z</time>
      </trkpt>
      <trkpt lat="56.854949025437236" lon="-5.085569964721799">
        <ele>31.859999999999999</ele>
        <time>2023-08-28T14:46:35Z</time>
      </trkpt>
      <trkpt lat="56.854826984927058" lon="-5.085545992478728">
        <ele>31.379999999999999</ele>
        <time>2023-08-28T14:46:36Z</time>
      </trkpt>
      <trkpt lat="56.854711985215545" lon="-5.0855060108006">
        <ele>30.420000000000002</ele>
        <time>2023-08-28T14:46:37Z</time>
      </trkpt>
      <trkpt lat="56.854608971625566" lon="-5.085470974445343">
        <ele>29.940000000000001</ele>
        <time>2023-08-28T14:46:38Z</time>
      </trkpt>
      <trkpt lat="56.854431023821235" lon="-5.085409032180905">
        <ele>29.940000000000001</ele>
        <time>2023-08-28T14:46:40Z</time>
      </trkpt>
      <trkpt lat="56.854347037151456" lon="-5.085380030795932">
        <ele>29.940000000000001</ele>
        <time>2023-08-28T14:46:41Z</time>
      </trkpt>
      <trkpt lat="56.854248968884349" lon="-5.085378019139171">
        <ele>29.940000000000001</ele>
        <time>2023-08-28T14:46:42Z</time>
      </trkpt>
      <trkpt lat="56.854155007749796" lon="-5.085415989160538">
        <ele>30.420000000000002</ele>
        <time>2023-08-28T14:46:43Z</time>
      </trkpt>
      <trkpt lat="56.85405601747334" lon="-5.085454965010285">
        <ele>30.899999999999999</ele>
        <time>2023-08-28T14:46:44Z</time>
      </trkpt>
      <trkpt lat="56.85306997038424" lon="-5.086045973002911">
        <ele>33.780000000000001</ele>
        <time>2023-08-28T14:46:52Z</time>
      </trkpt>
      <trkpt lat="56.851949980482459" lon="-5.087025985121727">
        <ele>32.82</ele>
        <time>2023-08-28T14:47:01Z</time>
      </trkpt>
      <trkpt lat="56.851575979962945" lon="-5.087353968992829">
        <ele>33.299999999999997</ele>
        <time>2023-08-28T14:47:05Z</time>
      </trkpt>
      <trkpt lat="56.850926969200373" lon="-5.088233985006809">
        <ele>32.340000000000003</ele>
        <time>2023-08-28T14:47:12Z</time>
      </trkpt>
      <trkpt lat="56.850838959217072" lon="-5.088379997760057">
        <ele>32.340000000000003</ele>
        <time>2023-08-28T14:47:13Z</time>
      </trkpt>
      <trkpt lat="56.850421037524939" lon="-5.089133027940989">
        <ele>32.340000000000003</ele>
        <time>2023-08-28T14:47:19Z</time>
      </trkpt>
      <trkpt lat="56.850380972027779" lon="-5.089259007945657">
        <ele>32.340000000000003</ele>
        <time>2023-08-28T14:47:20Z</time>
      </trkpt>
      <trkpt lat="56.850343002006412" lon="-5.08939596824348">
        <ele>31.859999999999999</ele>
        <time>2023-08-28T14:47:21Z</time>
      </trkpt>
      <trkpt lat="56.850267983973026" lon="-5.089655974879861">
        <ele>31.379999999999999</ele>
        <time>2023-08-28T14:47:23Z</time>
      </trkpt>
      <trkpt lat="56.850220039486885" lon="-5.08975999429822">
        <ele>31.379999999999999</ele>
        <time>2023-08-28T14:47:24Z</time>
      </trkpt>
      <trkpt lat="56.850165976211429" lon="-5.089871976524591">
        <ele>30.899999999999999</ele>
        <time>2023-08-28T14:47:25Z</time>
      </trkpt>
      <trkpt lat="56.850095987319946" lon="-5.089935008436441">
        <ele>30.899999999999999</ele>
        <time>2023-08-28T14:47:26Z</time>
      </trkpt>
      <trkpt lat="56.850022980943322" lon="-5.090000974014401">
        <ele>30.899999999999999</ele>
        <time>2023-08-28T14:47:27Z</time>
      </trkpt>
      <trkpt lat="56.849949974566698" lon="-5.090066017583013">
        <ele>30.899999999999999</ele>
        <time>2023-08-28T14:47:28Z</time>
      </trkpt>
      <trkpt lat="56.849880991503596" lon="-5.09012795984745">
        <ele>30.899999999999999</ele>
        <time>2023-08-28T14:47:29Z</time>
      </trkpt>
      <trkpt lat="56.849122010171413" lon="-5.091018034145236">
        <ele>28.5</ele>
        <time>2023-08-28T14:47:39Z</time>
      </trkpt>
      <trkpt lat="56.848637033253908" lon="-5.091699985787273">
        <ele>25.609999999999999</ele>
        <time>2023-08-28T14:47:47Z</time>
      </trkpt>
      <trkpt lat="56.84793496504426" lon="-5.092710005119443">
        <ele>25.129999999999999</ele>
        <time>2023-08-28T14:47:56Z</time>
      </trkpt>
      <trkpt lat="56.8474390078336" lon="-5.093636037781835">
        <ele>22.25</ele>
        <time>2023-08-28T14:48:04Z</time>
      </trkpt>
      <trkpt lat="56.847377987578511" lon="-5.093751959502697">
        <ele>21.77</ele>
        <time>2023-08-28T14:48:05Z</time>
      </trkpt>
      <trkpt lat="56.847083028405905" lon="-5.094312960281968">
        <ele>18.879999999999999</ele>
        <time>2023-08-28T14:48:10Z</time>
      </trkpt>
      <trkpt lat="56.847024019807577" lon="-5.094425026327372">
        <ele>18.399999999999999</ele>
        <time>2023-08-28T14:48:11Z</time>
      </trkpt>
      <trkpt lat="56.846968028694391" lon="-5.094537008553743">
        <ele>18.399999999999999</ele>
        <time>2023-08-28T14:48:12Z</time>
      </trkpt>
      <trkpt lat="56.846663011237979" lon="-5.095089040696621">
        <ele>16.48</ele>
        <time>2023-08-28T14:48:17Z</time>
      </trkpt>
      <trkpt lat="56.846519010141492" lon="-5.095226000994444">
        <ele>15.039999999999999</ele>
        <time>2023-08-28T14:48:19Z</time>
      </trkpt>
      <trkpt lat="56.846444997936487" lon="-5.095294984057546">
        <ele>13.6</ele>
        <time>2023-08-28T14:48:20Z</time>
      </trkpt>
      <trkpt lat="56.846286999061704" lon="-5.09543496184051">
        <ele>12.15</ele>
        <time>2023-08-28T14:48:22Z</time>
      </trkpt>
      <trkpt lat="56.846207035705447" lon="-5.095491958782077">
        <ele>11.67</ele>
        <time>2023-08-28T14:48:23Z</time>
      </trkpt>
      <trkpt lat="56.846146015450358" lon="-5.09560695849359">
        <ele>11.19</ele>
        <time>2023-08-28T14:48:24Z</time>
      </trkpt>
      <trkpt lat="56.846099998801947" lon="-5.095737967640162">
        <ele>10.710000000000001</ele>
        <time>2023-08-28T14:48:25Z</time>
      </trkpt>
      <trkpt lat="56.846076026558876" lon="-5.095865959301591">
        <ele>10.23</ele>
        <time>2023-08-28T14:48:26Z</time>
      </trkpt>
      <trkpt lat="56.846083989366889" lon="-5.096028987318277">
        <ele>9.75</ele>
        <time>2023-08-28T14:48:27Z</time>
      </trkpt>
      <trkpt lat="56.846092035993934" lon="-5.096202995628119">
        <ele>9.75</ele>
        <time>2023-08-28T14:48:28Z</time>
      </trkpt>
      <trkpt lat="56.846101004630327" lon="-5.09637800976634">
        <ele>9.27</ele>
        <time>2023-08-28T14:48:29Z</time>
      </trkpt>
      <trkpt lat="56.846123971045017" lon="-5.097784996032715">
        <ele>7.35</ele>
        <time>2023-08-28T14:48:38Z</time>
      </trkpt>
      <trkpt lat="56.846104022115469" lon="-5.097936037927866">
        <ele>7.35</ele>
        <time>2023-08-28T14:48:39Z</time>
      </trkpt>
      <trkpt lat="56.846052976325154" lon="-5.098067969083786">
        <ele>7.35</ele>
        <time>2023-08-28T14:48:40Z</time>
      </trkpt>
      <trkpt lat="56.845989022403955" lon="-5.098172994330525">
        <ele>7.35</ele>
        <time>2023-08-28T14:48:41Z</time>
      </trkpt>
      <trkpt lat="56.845923978835344" lon="-5.098279025405645">
        <ele>6.87</ele>
        <time>2023-08-28T14:48:42Z</time>
      </trkpt>
      <trkpt lat="56.845853989943862" lon="-5.098388995975256">
        <ele>6.87</ele>
        <time>2023-08-28T14:48:43Z</time>
      </trkpt>
      <trkpt lat="56.845770003274083" lon="-5.098436018452048">
        <ele>6.39</ele>
        <time>2023-08-28T14:48:44Z</time>
      </trkpt>
      <trkpt lat="56.845686016604304" lon="-5.09848496876657">
        <ele>5.91</ele>
        <time>2023-08-28T14:48:45Z</time>
      </trkpt>
      <trkpt lat="56.845606975257397" lon="-5.098530985414982">
        <ele>5.91</ele>
        <time>2023-08-28T14:48:46Z</time>
      </trkpt>
      <trkpt lat="56.845186036080122" lon="-5.098778000101447">
        <ele>3.5</ele>
        <time>2023-08-28T14:48:53Z</time>
      </trkpt>
      <trkpt lat="56.845186036080122" lon="-5.098778000101447">
        <ele>3.5</ele>
        <time>2023-08-28T14:48:54Z</time>
      </trkpt>
      <trkpt lat="56.845069024711847" lon="-5.098764002323151">
        <ele>3.02</ele>
        <time>2023-08-28T14:48:58Z</time>
      </trkpt>
      <trkpt lat="56.845052009448409" lon="-5.098693007603288">
        <ele>2.54</ele>
        <time>2023-08-28T14:48:59Z</time>
      </trkpt>
      <trkpt lat="56.845025019720197" lon="-5.098583959043026">
        <ele>2.54</ele>
        <time>2023-08-28T14:49:00Z</time>
      </trkpt>
      <trkpt lat="56.844643978402019" lon="-5.09710899554193">
        <ele>1.1</ele>
        <time>2023-08-28T14:49:10Z</time>
      </trkpt>
      <trkpt lat="56.844287998974323" lon="-5.096097970381379">
        <ele>2.06</ele>
        <time>2023-08-28T14:49:20Z</time>
      </trkpt>
      <trkpt lat="56.84387200511992" lon="-5.094862980768085">
        <ele>2.06</ele>
        <time>2023-08-28T14:49:29Z</time>
      </trkpt>
      <trkpt lat="56.843352997675538" lon="-5.092667005956173">
        <ele>0.14</ele>
        <time>2023-08-28T14:49:40Z</time>
      </trkpt>
      <trkpt lat="56.842672973871231" lon="-5.0893500354141">
        <ele>2.54</ele>
        <time>2023-08-28T14:49:54Z</time>
      </trkpt>
      <trkpt lat="56.841978030279279" lon="-5.087641971185803">
        <ele>3.98</ele>
        <time>2023-08-28T14:50:04Z</time>
      </trkpt>
      <trkpt lat="56.841243021190166" lon="-5.086384015157819">
        <ele>3.5</ele>
        <time>2023-08-28T14:50:14Z</time>
      </trkpt>
      <trkpt lat="56.840608008205891" lon="-5.085114995017648">
        <ele>3.5</ele>
        <time>2023-08-28T14:50:27Z</time>
      </trkpt>
      <trkpt lat="56.84058696962893" lon="-5.084987003356218">
        <ele>3.98</ele>
        <time>2023-08-28T14:50:28Z</time>
      </trkpt>
      <trkpt lat="56.840566014871001" lon="-5.084852976724505">
        <ele>3.98</ele>
        <time>2023-08-28T14:50:29Z</time>
      </trkpt>
      <trkpt lat="56.840544976294041" lon="-5.084724985063076">
        <ele>3.98</ele>
        <time>2023-08-28T14:50:30Z</time>
      </trkpt>
      <trkpt lat="56.840548999607563" lon="-5.084621971473098">
        <ele>4.46</ele>
        <time>2023-08-28T14:50:31Z</time>
      </trkpt>
      <trkpt lat="56.840570038184524" lon="-5.084437988698483">
        <ele>4.46</ele>
        <time>2023-08-28T14:50:32Z</time>
      </trkpt>
      <trkpt lat="56.840544976294041" lon="-5.084329023957253">
        <ele>4.46</ele>
        <time>2023-08-28T14:50:33Z</time>
      </trkpt>
      <trkpt lat="56.84052100405097" lon="-5.084223998710513">
        <ele>4.46</ele>
        <time>2023-08-28T14:50:34Z</time>
      </trkpt>
      <trkpt lat="56.840445986017585" lon="-5.08413196541369">
        <ele>4.94</ele>
        <time>2023-08-28T14:50:35Z</time>
      </trkpt>
      <trkpt lat="56.840368034318089" lon="-5.084104975685477">
        <ele>4.94</ele>
        <time>2023-08-28T14:50:36Z</time>
      </trkpt>
      <trkpt lat="56.84030600823462" lon="-5.084120985120535">
        <ele>4.94</ele>
        <time>2023-08-28T14:50:37Z</time>
      </trkpt>
      <trkpt lat="56.84024197049439" lon="-5.084136994555593">
        <ele>5.42</ele>
        <time>2023-08-28T14:50:38Z</time>
      </trkpt>
      <trkpt lat="56.840200982987881" lon="-5.084245037287474">
        <ele>5.42</ele>
        <time>2023-08-28T14:50:39Z</time>
      </trkpt>
      <trkpt lat="56.840168964117765" lon="-5.084341010078788">
        <ele>5.42</ele>
        <time>2023-08-28T14:50:40Z</time>
      </trkpt>
      <trkpt lat="56.84015697799623" lon="-5.084447963163257">
        <ele>5.42</ele>
        <time>2023-08-28T14:50:41Z</time>
      </trkpt>
      <trkpt lat="56.840172987431288" lon="-5.084578972309828">
        <ele>5.42</ele>
        <time>2023-08-28T14:50:42Z</time>
      </trkpt>
      <trkpt lat="56.840187991037965" lon="-5.08471199311316">
        <ele>5.42</ele>
        <time>2023-08-28T14:50:43Z</time>
      </trkpt>
      <trkpt lat="56.840257979929447" lon="-5.084795979782939">
        <ele>4.94</ele>
        <time>2023-08-28T14:50:44Z</time>
      </trkpt>
      <trkpt lat="56.840345989912748" lon="-5.084845013916493">
        <ele>4.94</ele>
        <time>2023-08-28T14:50:45Z</time>
      </trkpt>
      <trkpt lat="56.840527039021254" lon="-5.085070990025997">
        <ele>4.94</ele>
        <time>2023-08-28T14:50:47Z</time>
      </trkpt>
      <trkpt lat="56.840612031519413" lon="-5.085194958373904">
        <ele>5.42</ele>
        <time>2023-08-28T14:50:48Z</time>
      </trkpt>
      <trkpt lat="56.841577962040901" lon="-5.086938980966806">
        <ele>5.42</ele>
        <time>2023-08-28T14:50:58Z</time>
      </trkpt>
      <trkpt lat="56.84258496388793" lon="-5.089060021564364">
        <ele>4.46</ele>
        <time>2023-08-28T14:51:08Z</time>
      </trkpt>
      <trkpt lat="56.843096008524299" lon="-5.09115600027144">
        <ele>3.98</ele>
        <time>2023-08-28T14:51:17Z</time>
      </trkpt>
      <trkpt lat="56.843475960195065" lon="-5.093322973698378">
        <ele>3.5</ele>
        <time>2023-08-28T14:51:29Z</time>
      </trkpt>
      <trkpt lat="56.844036960974336" lon="-5.095365978777409">
        <ele>4.94</ele>
        <time>2023-08-28T14:51:40Z</time>
      </trkpt>
      <trkpt lat="56.844534007832408" lon="-5.096772965043783">
        <ele>5.42</ele>
        <time>2023-08-28T14:51:50Z</time>
      </trkpt>
      <trkpt lat="56.844613971188664" lon="-5.097013022750616">
        <ele>5.91</ele>
        <time>2023-08-28T14:51:57Z</time>
      </trkpt>
      <trkpt lat="56.844613971188664" lon="-5.097013022750616">
        <ele>5.91</ele>
        <time>2023-08-28T14:52:20Z</time>
      </trkpt>
      <trkpt lat="56.844629980623722" lon="-5.097063984721899">
        <ele>5.91</ele>
        <time>2023-08-28T14:52:23Z</time>
      </trkpt>
      <trkpt lat="56.844665016978979" lon="-5.097178984433413">
        <ele>5.91</ele>
        <time>2023-08-28T14:52:24Z</time>
      </trkpt>
      <trkpt lat="56.844960981979966" lon="-5.098319007083774">
        <ele>5.91</ele>
        <time>2023-08-28T14:52:31Z</time>
      </trkpt>
      <trkpt lat="56.84507598169148" lon="-5.098795015364885">
        <ele>5.91</ele>
        <time>2023-08-28T14:52:38Z</time>
      </trkpt>
      <trkpt lat="56.84507598169148" lon="-5.098795015364885">
        <ele>5.42</ele>
        <time>2023-08-28T14:52:58Z</time>
      </trkpt>
      <trkpt lat="56.84511898085475" lon="-5.098817981779575">
        <ele>5.91</ele>
        <time>2023-08-28T14:53:21Z</time>
      </trkpt>
      <trkpt lat="56.845157034695148" lon="-5.098795015364885">
        <ele>5.91</ele>
        <time>2023-08-28T14:53:22Z</time>
      </trkpt>
      <trkpt lat="56.845197016373277" lon="-5.098771965131164">
        <ele>5.91</ele>
        <time>2023-08-28T14:53:23Z</time>
      </trkpt>
      <trkpt lat="56.845631031319499" lon="-5.098516987636685">
        <ele>6.39</ele>
        <time>2023-08-28T14:53:31Z</time>
      </trkpt>
      <trkpt lat="56.845810990780592" lon="-5.098412968218327">
        <ele>7.83</ele>
        <time>2023-08-28T14:53:39Z</time>
      </trkpt>
      <trkpt lat="56.846018023788929" lon="-5.098124966025353">
        <ele>8.310000000000001</ele>
        <time>2023-08-28T14:53:46Z</time>
      </trkpt>
      <trkpt lat="56.84606596827507" lon="-5.098047014325857">
        <ele>8.789999999999999</ele>
        <time>2023-08-28T14:53:47Z</time>
      </trkpt>
      <trkpt lat="56.846094969660044" lon="-5.097999991849065">
        <ele>8.789999999999999</ele>
        <time>2023-08-28T14:53:48Z</time>
      </trkpt>
      <trkpt lat="56.846117014065385" lon="-5.09783897548914">
        <ele>8.789999999999999</ele>
        <time>2023-08-28T14:53:49Z</time>
      </trkpt>
      <trkpt lat="56.846133023500443" lon="-5.097718024626374">
        <ele>8.789999999999999</ele>
        <time>2023-08-28T14:53:50Z</time>
      </trkpt>
      <trkpt lat="56.846150038763881" lon="-5.097593972459436">
        <ele>9.27</ele>
        <time>2023-08-28T14:53:51Z</time>
      </trkpt>
      <trkpt lat="56.846155989915133" lon="-5.09747302159667">
        <ele>9.27</ele>
        <time>2023-08-28T14:53:52Z</time>
      </trkpt>
      <trkpt lat="56.846150038763881" lon="-5.097356010228396">
        <ele>9.27</ele>
        <time>2023-08-28T14:53:53Z</time>
      </trkpt>
      <trkpt lat="56.84612799435854" lon="-5.096944039687514">
        <ele>8.789999999999999</ele>
        <time>2023-08-28T14:53:59Z</time>
      </trkpt>
      <trkpt lat="56.846126988530159" lon="-5.096915038302541">
        <ele>8.789999999999999</ele>
        <time>2023-08-28T14:54:00Z</time>
      </trkpt>
      <trkpt lat="56.845808979123831" lon="-5.096757039427757">
        <ele>8.310000000000001</ele>
        <time>2023-08-28T14:54:06Z</time>
      </trkpt>
      <trkpt lat="56.845451993867755" lon="-5.096652014181018">
        <ele>7.35</ele>
        <time>2023-08-28T14:54:19Z</time>
      </trkpt>
      <trkpt lat="56.84529198333621" lon="-5.096837002784014">
        <ele>6.87</ele>
        <time>2023-08-28T14:54:30Z</time>
      </trkpt>
      <trkpt lat="56.845227023586631" lon="-5.096796015277505">
        <ele>25.609999999999999</ele>
        <time>2023-08-28T15:46:55Z</time>
      </trkpt>
      <trkpt lat="56.845261976122856" lon="-5.096800960600376">
        <ele>16</ele>
        <time>2023-08-28T15:47:34Z</time>
      </trkpt>
      <trkpt lat="56.845317967236042" lon="-5.096768019720912">
        <ele>12.15</ele>
        <time>2023-08-28T15:48:21Z</time>
      </trkpt>
      <trkpt lat="56.845325008034706" lon="-5.096772965043783">
        <ele>13.119999999999999</ele>
        <time>2023-08-28T15:49:12Z</time>
      </trkpt>
      <trkpt lat="56.845319978892803" lon="-5.09676500223577">
        <ele>13.6</ele>
        <time>2023-08-28T15:50:04Z</time>
      </trkpt>
      <trkpt lat="56.845319978892803" lon="-5.096769025549293">
        <ele>13.119999999999999</ele>
        <time>2023-08-28T15:50:51Z</time>
      </trkpt>
      <trkpt lat="56.845317967236042" lon="-5.096771959215403">
        <ele>13.119999999999999</ele>
        <time>2023-08-28T15:51:34Z</time>
      </trkpt>
      <trkpt lat="56.845317967236042" lon="-5.096769025549293">
        <ele>13.119999999999999</ele>
        <time>2023-08-28T15:52:00Z</time>
      </trkpt>
      <trkpt lat="56.845554001629353" lon="-5.096691995859146">
        <ele>9.75</ele>
        <time>2023-08-28T15:52:11Z</time>
      </trkpt>
      <trkpt lat="56.845921967178583" lon="-5.096869021654129">
        <ele>7.35</ele>
        <time>2023-08-28T15:52:23Z</time>
      </trkpt>
      <trkpt lat="56.846123971045017" lon="-5.096854018047452">
        <ele>6.87</ele>
        <time>2023-08-28T15:52:31Z</time>
      </trkpt>
      <trkpt lat="56.846121037378907" lon="-5.096796015277505">
        <ele>6.87</ele>
        <time>2023-08-28T15:52:32Z</time>
      </trkpt>
      <trkpt lat="56.846118019893765" lon="-5.096724014729261">
        <ele>7.35</ele>
        <time>2023-08-28T15:52:33Z</time>
      </trkpt>
      <trkpt lat="56.846113996580243" lon="-5.096642039716244">
        <ele>7.83</ele>
        <time>2023-08-28T15:52:34Z</time>
      </trkpt>
      <trkpt lat="56.84610896743834" lon="-5.096554029732943">
        <ele>7.83</ele>
        <time>2023-08-28T15:52:35Z</time>
      </trkpt>
      <trkpt lat="56.84610502794385" lon="-5.0964630022645">
        <ele>7.83</ele>
        <time>2023-08-28T15:52:36Z</time>
      </trkpt>
      <trkpt lat="56.846101004630327" lon="-5.096372980624437">
        <ele>7.83</ele>
        <time>2023-08-28T15:52:37Z</time>
      </trkpt>
      <trkpt lat="56.846074014902115" lon="-5.095822038128972">
        <ele>9.27</ele>
        <time>2023-08-28T15:52:43Z</time>
      </trkpt>
      <trkpt lat="56.846109973266721" lon="-5.095707038417459">
        <ele>9.27</ele>
        <time>2023-08-28T15:52:44Z</time>
      </trkpt>
      <trkpt lat="56.846141992136836" lon="-5.095620034262538">
        <ele>8.789999999999999</ele>
        <time>2023-08-28T15:52:45Z</time>
      </trkpt>
      <trkpt lat="56.84617199935019" lon="-5.095535041764379">
        <ele>9.27</ele>
        <time>2023-08-28T15:52:46Z</time>
      </trkpt>
      <trkpt lat="56.846331004053354" lon="-5.095403026789427">
        <ele>8.789999999999999</ele>
        <time>2023-08-28T15:52:47Z</time>
      </trkpt>
      <trkpt lat="56.846331004053354" lon="-5.095403026789427">
        <ele>8.789999999999999</ele>
        <time>2023-08-28T15:52:48Z</time>
      </trkpt>
      <trkpt lat="56.846348019316792" lon="-5.095387017354369">
        <ele>8.310000000000001</ele>
        <time>2023-08-28T15:52:49Z</time>
      </trkpt>
      <trkpt lat="56.846404010429978" lon="-5.095333959907293">
        <ele>8.310000000000001</ele>
        <time>2023-08-28T15:52:50Z</time>
      </trkpt>
      <trkpt lat="56.846581036224961" lon="-5.095166992396116">
        <ele>7.83</ele>
        <time>2023-08-28T15:52:53Z</time>
      </trkpt>
      <trkpt lat="56.846640966832638" lon="-5.09510999545455">
        <ele>7.83</ele>
        <time>2023-08-28T15:52:54Z</time>
      </trkpt>
      <trkpt lat="56.846716990694404" lon="-5.095037994906306">
        <ele>7.83</ele>
        <time>2023-08-28T15:52:55Z</time>
      </trkpt>
      <trkpt lat="56.847079005092382" lon="-5.094320001080632">
        <ele>10.710000000000001</ele>
        <time>2023-08-28T15:53:03Z</time>
      </trkpt>
      <trkpt lat="56.847259970381856" lon="-5.093977013602853">
        <ele>12.630000000000001</ele>
        <time>2023-08-28T15:53:07Z</time>
      </trkpt>
      <trkpt lat="56.847285032272339" lon="-5.09392898529768">
        <ele>12.630000000000001</ele>
        <time>2023-08-28T15:53:08Z</time>
      </trkpt>
      <trkpt lat="56.847302969545126" lon="-5.093894032761455">
        <ele>13.119999999999999</ele>
        <time>2023-08-28T15:53:09Z</time>
      </trkpt>
      <trkpt lat="56.847318978980184" lon="-5.093864025548101">
        <ele>13.6</ele>
        <time>2023-08-28T15:53:10Z</time>
      </trkpt>
      <trkpt lat="56.847330965101719" lon="-5.093840975314379">
        <ele>14.08</ele>
        <time>2023-08-28T15:53:11Z</time>
      </trkpt>
      <trkpt lat="56.847330965101719" lon="-5.093840975314379">
        <ele>15.52</ele>
        <time>2023-08-28T15:53:19Z</time>
      </trkpt>
      <trkpt lat="56.847330965101719" lon="-5.093840975314379">
        <ele>16</ele>
        <time>2023-08-28T15:53:23Z</time>
      </trkpt>
      <trkpt lat="56.847298024222255" lon="-5.093903001397848">
        <ele>15.52</ele>
        <time>2023-08-28T15:53:26Z</time>
      </trkpt>
      <trkpt lat="56.847184030339122" lon="-5.094120008870959">
        <ele>15.52</ele>
        <time>2023-08-28T15:53:29Z</time>
      </trkpt>
      <trkpt lat="56.846757978200912" lon="-5.094956019893289">
        <ele>14.56</ele>
        <time>2023-08-28T15:53:37Z</time>
      </trkpt>
      <trkpt lat="56.84653895907104" lon="-5.095206974074245">
        <ele>14.56</ele>
        <time>2023-08-28T15:53:40Z</time>
      </trkpt>
      <trkpt lat="56.846462013199925" lon="-5.095278974622488">
        <ele>14.56</ele>
        <time>2023-08-28T15:53:41Z</time>
      </trkpt>
      <trkpt lat="56.846388000994921" lon="-5.09534896351397">
        <ele>14.56</ele>
        <time>2023-08-28T15:53:42Z</time>
      </trkpt>
      <trkpt lat="56.846312982961535" lon="-5.095416018739343">
        <ele>14.08</ele>
        <time>2023-08-28T15:53:43Z</time>
      </trkpt>
      <trkpt lat="56.84623695909977" lon="-5.095469998195767">
        <ele>14.08</ele>
        <time>2023-08-28T15:53:44Z</time>
      </trkpt>
      <trkpt lat="56.846180967986584" lon="-5.095510985702276">
        <ele>13.6</ele>
        <time>2023-08-28T15:53:45Z</time>
      </trkpt>
      <trkpt lat="56.846134029328823" lon="-5.095641994848847">
        <ele>13.119999999999999</ele>
        <time>2023-08-28T15:53:46Z</time>
      </trkpt>
      <trkpt lat="56.846090024337173" lon="-5.095764035359025">
        <ele>13.119999999999999</ele>
        <time>2023-08-28T15:53:47Z</time>
      </trkpt>
      <trkpt lat="56.846078038215637" lon="-5.095898984000087">
        <ele>12.630000000000001</ele>
        <time>2023-08-28T15:53:48Z</time>
      </trkpt>
      <trkpt lat="56.84608600102365" lon="-5.096068968996406">
        <ele>12.15</ele>
        <time>2023-08-28T15:53:49Z</time>
      </trkpt>
      <trkpt lat="56.846093963831663" lon="-5.096243983134627">
        <ele>11.67</ele>
        <time>2023-08-28T15:53:50Z</time>
      </trkpt>
      <trkpt lat="56.846103016287088" lon="-5.09642100892961">
        <ele>11.19</ele>
        <time>2023-08-28T15:53:51Z</time>
      </trkpt>
      <trkpt lat="56.846110979095101" lon="-5.09659199975431">
        <ele>10.710000000000001</ele>
        <time>2023-08-28T15:53:52Z</time>
      </trkpt>
      <trkpt lat="56.846150038763881" lon="-5.09736598469317">
        <ele>8.789999999999999</ele>
        <time>2023-08-28T15:53:57Z</time>
      </trkpt>
      <trkpt lat="56.846121959388256" lon="-5.097801005467773">
        <ele>9.27</ele>
        <time>2023-08-28T15:54:00Z</time>
      </trkpt>
      <trkpt lat="56.846103016287088" lon="-5.097942994907498">
        <ele>8.789999999999999</ele>
        <time>2023-08-28T15:54:01Z</time>
      </trkpt>
      <trkpt lat="56.846051970496774" lon="-5.098069980740547">
        <ele>8.789999999999999</ele>
        <time>2023-08-28T15:54:02Z</time>
      </trkpt>
      <trkpt lat="56.845988016575575" lon="-5.098174000158906">
        <ele>8.310000000000001</ele>
        <time>2023-08-28T15:54:03Z</time>
      </trkpt>
      <trkpt lat="56.845921967178583" lon="-5.098282964900136">
        <ele>7.83</ele>
        <time>2023-08-28T15:54:04Z</time>
      </trkpt>
      <trkpt lat="56.845843009650707" lon="-5.09839503094554">
        <ele>7.35</ele>
        <time>2023-08-28T15:54:05Z</time>
      </trkpt>
      <trkpt lat="56.845758017152548" lon="-5.098442975431681">
        <ele>7.35</ele>
        <time>2023-08-28T15:54:06Z</time>
      </trkpt>
      <trkpt lat="56.845207996666431" lon="-5.098765008151531">
        <ele>5.42</ele>
        <time>2023-08-28T15:54:13Z</time>
      </trkpt>
      <trkpt lat="56.845177989453077" lon="-5.09878302924335">
        <ele>4.94</ele>
        <time>2023-08-28T15:54:14Z</time>
      </trkpt>
      <trkpt lat="56.845055026933551" lon="-5.098707005381584">
        <ele>3.98</ele>
        <time>2023-08-28T15:54:21Z</time>
      </trkpt>
      <trkpt lat="56.845031976699829" lon="-5.098612038418651">
        <ele>3.5</ele>
        <time>2023-08-28T15:54:22Z</time>
      </trkpt>
      <trkpt lat="56.845002975314856" lon="-5.098489997908473">
        <ele>3.5</ele>
        <time>2023-08-28T15:54:23Z</time>
      </trkpt>
      <trkpt lat="56.844648001715541" lon="-5.097121987491846">
        <ele>3.02</ele>
        <time>2023-08-28T15:54:31Z</time>
      </trkpt>
      <trkpt lat="56.84402204118669" lon="-5.095320967957377">
        <ele>4.46</ele>
        <time>2023-08-28T15:54:41Z</time>
      </trkpt>
      <trkpt lat="56.843434972688556" lon="-5.093107977882028">
        <ele>3.5</ele>
        <time>2023-08-28T15:54:51Z</time>
      </trkpt>
      <trkpt lat="56.842937003821135" lon="-5.090218987315893">
        <ele>2.54</ele>
        <time>2023-08-28T15:55:02Z</time>
      </trkpt>
      <trkpt lat="56.842096969485283" lon="-5.087854033336043">
        <ele>3.02</ele>
        <time>2023-08-28T15:55:12Z</time>
      </trkpt>
      <trkpt lat="56.840925011783838" lon="-5.085857966914773">
        <ele>3.5</ele>
        <time>2023-08-28T15:55:23Z</time>
      </trkpt>
      <trkpt lat="56.840575989335775" lon="-5.084918020293117">
        <ele>3.02</ele>
        <time>2023-08-28T15:55:30Z</time>
      </trkpt>
      <trkpt lat="56.840556040406227" lon="-5.084790028631687">
        <ele>3.02</ele>
        <time>2023-08-28T15:55:31Z</time>
      </trkpt>
      <trkpt lat="56.840537013486028" lon="-5.084674023091793">
        <ele>3.02</ele>
        <time>2023-08-28T15:55:32Z</time>
      </trkpt>
      <trkpt lat="56.840561991557479" lon="-5.084562040865421">
        <ele>3.02</ele>
        <time>2023-08-28T15:55:33Z</time>
      </trkpt>
      <trkpt lat="56.840560985729098" lon="-5.084398007020354">
        <ele>3.02</ele>
        <time>2023-08-28T15:55:34Z</time>
      </trkpt>
      <trkpt lat="56.840539025142789" lon="-5.08430102840066">
        <ele>3.02</ele>
        <time>2023-08-28T15:55:35Z</time>
      </trkpt>
      <trkpt lat="56.840494014322758" lon="-5.084180999547243">
        <ele>3.02</ele>
        <time>2023-08-28T15:55:36Z</time>
      </trkpt>
      <trkpt lat="56.840446991845965" lon="-5.084133977070451">
        <ele>3.02</ele>
        <time>2023-08-28T15:55:37Z</time>
      </trkpt>
      <trkpt lat="56.840409021824598" lon="-5.084095001220703">
        <ele>3.02</ele>
        <time>2023-08-28T15:55:38Z</time>
      </trkpt>
      <trkpt lat="56.84030600823462" lon="-5.084120985120535">
        <ele>3.02</ele>
        <time>2023-08-28T15:55:39Z</time>
      </trkpt>
      <trkpt lat="56.840231996029615" lon="-5.084136994555593">
        <ele>3.02</ele>
        <time>2023-08-28T15:55:40Z</time>
      </trkpt>
      <trkpt lat="56.840154966339469" lon="-5.084122996777296">
        <ele>2.54</ele>
        <time>2023-08-28T15:55:41Z</time>
      </trkpt>
      <trkpt lat="56.840079026296735" lon="-5.084108998999">
        <ele>2.54</ele>
        <time>2023-08-28T15:55:42Z</time>
      </trkpt>
      <trkpt lat="56.839987998828292" lon="-5.084079997614026">
        <ele>3.02</ele>
        <time>2023-08-28T15:55:43Z</time>
      </trkpt>
      <trkpt lat="56.839924966916442" lon="-5.084006991237402">
        <ele>3.02</ele>
        <time>2023-08-28T15:55:44Z</time>
      </trkpt>
      <trkpt lat="56.839862018823624" lon="-5.083932979032397">
        <ele>3.02</ele>
        <time>2023-08-28T15:55:45Z</time>
      </trkpt>
      <trkpt lat="56.839794041588902" lon="-5.083854021504521">
        <ele>3.02</ele>
        <time>2023-08-28T15:55:46Z</time>
      </trkpt>
      <trkpt lat="56.839074036106467" lon="-5.082847019657493">
        <ele>3.02</ele>
        <time>2023-08-28T15:55:55Z</time>
      </trkpt>
      <trkpt lat="56.837978018447757" lon="-5.081099979579449">
        <ele>1.1</ele>
        <time>2023-08-28T15:56:07Z</time>
      </trkpt>
      <trkpt lat="56.837627990171313" lon="-5.080547025427222">
        <ele>1.1</ele>
        <time>2023-08-28T15:56:13Z</time>
      </trkpt>
      <trkpt lat="56.836965987458825" lon="-5.079488977789879">
        <ele>1.1</ele>
        <time>2023-08-28T15:56:25Z</time>
      </trkpt>
      <trkpt lat="56.836759960278869" lon="-5.079158982262015">
        <ele>1.58</ele>
        <time>2023-08-28T15:56:33Z</time>
      </trkpt>
      <trkpt lat="56.836721990257502" lon="-5.079097962006927">
        <ele>1.58</ele>
        <time>2023-08-28T15:56:42Z</time>
      </trkpt>
      <trkpt lat="56.836261991411448" lon="-5.07835297845304">
        <ele>2.54</ele>
        <time>2023-08-28T15:56:52Z</time>
      </trkpt>
      <trkpt lat="56.835565958172083" lon="-5.077237011864781">
        <ele>1.1</ele>
        <time>2023-08-28T15:57:04Z</time>
      </trkpt>
      <trkpt lat="56.835369989275932" lon="-5.07693400606513">
        <ele>1.1</ele>
        <time>2023-08-28T15:57:07Z</time>
      </trkpt>
      <trkpt lat="56.834975033998489" lon="-5.076341992244124">
        <ele>2.06</ele>
        <time>2023-08-28T15:57:15Z</time>
      </trkpt>
      <trkpt lat="56.834822986274958" lon="-5.076029011979699">
        <ele>3.5</ele>
        <time>2023-08-28T15:57:23Z</time>
      </trkpt>
      <trkpt lat="56.834804965183139" lon="-5.075974026694894">
        <ele>3.98</ele>
        <time>2023-08-28T15:57:34Z</time>
      </trkpt>
      <trkpt lat="56.834799014031887" lon="-5.075954999774694">
        <ele>3.98</ele>
        <time>2023-08-28T15:57:50Z</time>
      </trkpt>
      <trkpt lat="56.834781998768449" lon="-5.075906971469522">
        <ele>4.46</ele>
        <time>2023-08-28T15:57:51Z</time>
      </trkpt>
      <trkpt lat="56.834765989333391" lon="-5.075858021155">
        <ele>4.46</ele>
        <time>2023-08-28T15:57:52Z</time>
      </trkpt>
      <trkpt lat="56.834760038182139" lon="-5.075588040053845">
        <ele>5.91</ele>
        <time>2023-08-28T15:58:00Z</time>
      </trkpt>
      <trkpt lat="56.834748974069953" lon="-5.075433980673552">
        <ele>5.91</ele>
        <time>2023-08-28T15:58:13Z</time>
      </trkpt>
      <trkpt lat="56.834735982120037" lon="-5.075415037572384">
        <ele>6.39</ele>
        <time>2023-08-28T15:58:14Z</time>
      </trkpt>
      <trkpt lat="56.834719972684979" lon="-5.075389975681901">
        <ele>6.39</ele>
        <time>2023-08-28T15:58:15Z</time>
      </trkpt>
      <trkpt lat="56.834661969915032" lon="-5.075372038409114">
        <ele>6.39</ele>
        <time>2023-08-28T15:58:16Z</time>
      </trkpt>
      <trkpt lat="56.834633974358439" lon="-5.075377989560366">
        <ele>6.39</ele>
        <time>2023-08-28T15:58:17Z</time>
      </trkpt>
      <trkpt lat="56.834615031257272" lon="-5.075383018702269">
        <ele>6.39</ele>
        <time>2023-08-28T15:58:18Z</time>
      </trkpt>
      <trkpt lat="56.834615031257272" lon="-5.075383018702269">
        <ele>6.39</ele>
        <time>2023-08-28T15:58:19Z</time>
      </trkpt>
      <trkpt lat="56.834583012387156" lon="-5.075513022020459">
        <ele>6.39</ele>
        <time>2023-08-28T15:58:20Z</time>
      </trkpt>
      <trkpt lat="56.834572032094002" lon="-5.075555015355349">
        <ele>6.39</ele>
        <time>2023-08-28T15:58:21Z</time>
      </trkpt>
      <trkpt lat="56.834572032094002" lon="-5.075555015355349">
        <ele>6.39</ele>
        <time>2023-08-28T15:58:22Z</time>
      </trkpt>
      <trkpt lat="56.834093006327748" lon="-5.076040998101234">
        <ele>5.42</ele>
        <time>2023-08-28T15:58:38Z</time>
      </trkpt>
      <trkpt lat="56.833419017493725" lon="-5.076356995850802">
        <ele>4.46</ele>
        <time>2023-08-28T15:58:56Z</time>
      </trkpt>
      <trkpt lat="56.833339976146817" lon="-5.076387003064156">
        <ele>4.46</ele>
        <time>2023-08-28T15:58:58Z</time>
      </trkpt>
      <trkpt lat="56.833033030852675" lon="-5.076502002775669">
        <ele>4.46</ele>
        <time>2023-08-28T15:59:05Z</time>
      </trkpt>
      <trkpt lat="56.832986008375883" lon="-5.076520023867488">
        <ele>4.46</ele>
        <time>2023-08-28T15:59:06Z</time>
      </trkpt>
      <trkpt lat="56.832942003384233" lon="-5.07654600776732">
        <ele>4.46</ele>
        <time>2023-08-28T15:59:07Z</time>
      </trkpt>
      <trkpt lat="56.83289498090744" lon="-5.076574003323913">
        <ele>4.94</ele>
        <time>2023-08-28T15:59:08Z</time>
      </trkpt>
      <trkpt lat="56.832847036421299" lon="-5.076603004708886">
        <ele>4.94</ele>
        <time>2023-08-28T15:59:09Z</time>
      </trkpt>
      <trkpt lat="56.83252802118659" lon="-5.076794028282166">
        <ele>4.46</ele>
        <time>2023-08-28T15:59:15Z</time>
      </trkpt>
      <trkpt lat="56.832488039508462" lon="-5.076818000525236">
        <ele>4.46</ele>
        <time>2023-08-28T15:59:16Z</time>
      </trkpt>
      <trkpt lat="56.83235602453351" lon="-5.076949009671807">
        <ele>3.98</ele>
        <time>2023-08-28T15:59:20Z</time>
      </trkpt>
      <trkpt lat="56.83231302537024" lon="-5.076997959986329">
        <ele>3.98</ele>
        <time>2023-08-28T15:59:21Z</time>
      </trkpt>
      <trkpt lat="56.832268014550209" lon="-5.077051017433405">
        <ele>3.5</ele>
        <time>2023-08-28T15:59:22Z</time>
      </trkpt>
      <trkpt lat="56.8322270270437" lon="-5.077098961919546">
        <ele>3.5</ele>
        <time>2023-08-28T15:59:23Z</time>
      </trkpt>
      <trkpt lat="56.83218302205205" lon="-5.07714900188148">
        <ele>3.5</ele>
        <time>2023-08-28T15:59:24Z</time>
      </trkpt>
      <trkpt lat="56.83214002288878" lon="-5.077199963852763">
        <ele>3.02</ele>
        <time>2023-08-28T15:59:25Z</time>
      </trkpt>
      <trkpt lat="56.83209802955389" lon="-5.077247992157936">
        <ele>3.02</ele>
        <time>2023-08-28T15:59:26Z</time>
      </trkpt>
      <trkpt lat="56.832056036219001" lon="-5.07729702629149">
        <ele>2.54</ele>
        <time>2023-08-28T15:59:27Z</time>
      </trkpt>
      <trkpt lat="56.831903988495469" lon="-5.07747296243906">
        <ele>2.06</ele>
        <time>2023-08-28T15:59:31Z</time>
      </trkpt>
      <trkpt lat="56.831720005720854" lon="-5.077739004045725">
        <ele>1.58</ele>
        <time>2023-08-28T15:59:36Z</time>
      </trkpt>
      <trkpt lat="56.831687986850739" lon="-5.077789966017008">
        <ele>1.1</ele>
        <time>2023-08-28T15:59:37Z</time>
      </trkpt>
      <trkpt lat="56.831654962152243" lon="-5.077843023464084">
        <ele>1.1</ele>
        <time>2023-08-28T15:59:38Z</time>
      </trkpt>
      <trkpt lat="56.831617997959256" lon="-5.077901026234031">
        <ele>0.62</ele>
        <time>2023-08-28T15:59:39Z</time>
      </trkpt>
      <trkpt lat="56.831580027937889" lon="-5.077961962670088">
        <ele>0.62</ele>
        <time>2023-08-28T15:59:40Z</time>
      </trkpt>
      <trkpt lat="56.831191023811698" lon="-5.078579038381577">
        <ele>-1.3</ele>
        <time>2023-08-28T15:59:51Z</time>
      </trkpt>
      <trkpt lat="56.831120029091835" lon="-5.078692026436329">
        <ele>-1.3</ele>
        <time>2023-08-28T15:59:53Z</time>
      </trkpt>
      <trkpt lat="56.83108801022172" lon="-5.078743994235992">
        <ele>-1.3</ele>
        <time>2023-08-28T15:59:54Z</time>
      </trkpt>
      <trkpt lat="56.831056997179985" lon="-5.078792022541165">
        <ele>-1.3</ele>
        <time>2023-08-28T15:59:55Z</time>
      </trkpt>
      <trkpt lat="56.83102598413825" lon="-5.078841978684068">
        <ele>-1.3</ele>
        <time>2023-08-28T15:59:56Z</time>
      </trkpt>
      <trkpt lat="56.830993965268135" lon="-5.078893024474382">
        <ele>-1.3</ele>
        <time>2023-08-28T15:59:57Z</time>
      </trkpt>
      <trkpt lat="56.83096001856029" lon="-5.078945998102427">
        <ele>-1.79</ele>
        <time>2023-08-28T15:59:58Z</time>
      </trkpt>
      <trkpt lat="56.830925988033414" lon="-5.079000983387232">
        <ele>-1.79</ele>
        <time>2023-08-28T15:59:59Z</time>
      </trkpt>
      <trkpt lat="56.830857004970312" lon="-5.079110031947494">
        <ele>-2.27</ele>
        <time>2023-08-28T16:00:01Z</time>
      </trkpt>
      <trkpt lat="56.830823980271816" lon="-5.079161999747157">
        <ele>-2.75</ele>
        <time>2023-08-28T16:00:02Z</time>
      </trkpt>
      <trkpt lat="56.830791039392352" lon="-5.079214973375201">
        <ele>-2.75</ele>
        <time>2023-08-28T16:00:03Z</time>
      </trkpt>
      <trkpt lat="56.830731024965644" lon="-5.079310024157167">
        <ele>-3.23</ele>
        <time>2023-08-28T16:00:05Z</time>
      </trkpt>
      <trkpt lat="56.830268008634448" lon="-5.080021983012557">
        <ele>-7.55</ele>
        <time>2023-08-28T16:00:17Z</time>
      </trkpt>
      <trkpt lat="56.83010196313262" lon="-5.080266986042261">
        <ele>-7.55</ele>
        <time>2023-08-28T16:00:21Z</time>
      </trkpt>
      <trkpt lat="56.829989980906248" lon="-5.080443006008863">
        <ele>-8.029999999999999</ele>
        <time>2023-08-28T16:00:24Z</time>
      </trkpt>
      <trkpt lat="56.82988797314465" lon="-5.080630006268621">
        <ele>-8.029999999999999</ele>
        <time>2023-08-28T16:00:27Z</time>
      </trkpt>
      <trkpt lat="56.829743972048163" lon="-5.080890012905002">
        <ele>-6.59</ele>
        <time>2023-08-28T16:00:33Z</time>
      </trkpt>
      <trkpt lat="56.829665014520288" lon="-5.081041976809502">
        <ele>-3.23</ele>
        <time>2023-08-28T16:00:41Z</time>
      </trkpt>
      <trkpt lat="56.829587984830141" lon="-5.081229982897639">
        <ele>-0.34</ele>
        <time>2023-08-28T16:00:51Z</time>
      </trkpt>
      <trkpt lat="56.829587984830141" lon="-5.081229982897639">
        <ele>0.14</ele>
        <time>2023-08-28T16:01:07Z</time>
      </trkpt>
      <trkpt lat="56.829587984830141" lon="-5.081229982897639">
        <ele>0.14</ele>
        <time>2023-08-28T16:01:58Z</time>
      </trkpt>
      <trkpt lat="56.82954297401011" lon="-5.081340037286282">
        <ele>2.54</ele>
        <time>2023-08-28T16:02:15Z</time>
      </trkpt>
      <trkpt lat="56.829471979290247" lon="-5.081473980098963">
        <ele>2.06</ele>
        <time>2023-08-28T16:02:24Z</time>
      </trkpt>
      <trkpt lat="56.8292620126158" lon="-5.081528965383768">
        <ele>2.06</ele>
        <time>2023-08-28T16:02:32Z</time>
      </trkpt>
      <trkpt lat="56.829242985695601" lon="-5.082037998363376">
        <ele>3.02</ele>
        <time>2023-08-28T16:02:41Z</time>
      </trkpt>
      <trkpt lat="56.828982979059219" lon="-5.082500008866191">
        <ele>4.46</ele>
        <time>2023-08-28T16:02:55Z</time>
      </trkpt>
      <trkpt lat="56.828493978828192" lon="-5.083370972424746">
        <ele>5.42</ele>
        <time>2023-08-28T16:03:09Z</time>
      </trkpt>
      <trkpt lat="56.828012019395828" lon="-5.084227016195655">
        <ele>4.94</ele>
        <time>2023-08-28T16:03:17Z</time>
      </trkpt>
      <trkpt lat="56.827555038034916" lon="-5.084921959787607">
        <ele>5.42</ele>
        <time>2023-08-28T16:03:26Z</time>
      </trkpt>
      <trkpt lat="56.827381029725075" lon="-5.08514097891748">
        <ele>5.42</ele>
        <time>2023-08-28T16:03:31Z</time>
      </trkpt>
      <trkpt lat="56.827342975884676" lon="-5.085188001394272">
        <ele>5.42</ele>
        <time>2023-08-28T16:03:32Z</time>
      </trkpt>
      <trkpt lat="56.827308023348451" lon="-5.085231000557542">
        <ele>5.42</ele>
        <time>2023-08-28T16:03:33Z</time>
      </trkpt>
      <trkpt lat="56.827276004478335" lon="-5.08526997640729">
        <ele>5.42</ele>
        <time>2023-08-28T16:03:34Z</time>
      </trkpt>
      <trkpt lat="56.827244991436601" lon="-5.085308030247688">
        <ele>5.42</ele>
        <time>2023-08-28T16:03:35Z</time>
      </trkpt>
      <trkpt lat="56.827213978394866" lon="-5.085346000269055">
        <ele>5.42</ele>
        <time>2023-08-28T16:03:36Z</time>
      </trkpt>
      <trkpt lat="56.827186988666654" lon="-5.085380030795932">
        <ele>5.42</ele>
        <time>2023-08-28T16:03:37Z</time>
      </trkpt>
      <trkpt lat="56.826892029494047" lon="-5.085689993575215">
        <ele>5.91</ele>
        <time>2023-08-28T16:03:49Z</time>
      </trkpt>
      <trkpt lat="56.826605033129454" lon="-5.085947988554835">
        <ele>5.42</ele>
        <time>2023-08-28T16:03:58Z</time>
      </trkpt>
      <trkpt lat="56.826350977644324" lon="-5.086147980764508">
        <ele>6.39</ele>
        <time>2023-08-28T16:04:03Z</time>
      </trkpt>
      <trkpt lat="56.826304038986564" lon="-5.086184022948146">
        <ele>6.39</ele>
        <time>2023-08-28T16:04:04Z</time>
      </trkpt>
      <trkpt lat="56.82625500485301" lon="-5.086221992969513">
        <ele>6.87</ele>
        <time>2023-08-28T16:04:05Z</time>
      </trkpt>
      <trkpt lat="56.825879998505116" lon="-5.086569003760815">
        <ele>7.83</ele>
        <time>2023-08-28T16:04:14Z</time>
      </trkpt>
      <trkpt lat="56.825841022655368" lon="-5.086605967953801">
        <ele>7.83</ele>
        <time>2023-08-28T16:04:15Z</time>
      </trkpt>
      <trkpt lat="56.825801962986588" lon="-5.086643015965819">
        <ele>8.310000000000001</ele>
        <time>2023-08-28T16:04:16Z</time>
      </trkpt>
      <trkpt lat="56.825445983558893" lon="-5.086980974301696">
        <ele>7.83</ele>
        <time>2023-08-28T16:04:25Z</time>
      </trkpt>
      <trkpt lat="56.825066031888127" lon="-5.087420018389821">
        <ele>6.39</ele>
        <time>2023-08-28T16:04:34Z</time>
      </trkpt>
      <trkpt lat="56.82449497282505" lon="-5.088357031345367">
        <ele>3.98</ele>
        <time>2023-08-28T16:04:46Z</time>
      </trkpt>
      <trkpt lat="56.824194984510541" lon="-5.089047029614449">
        <ele>0.62</ele>
        <time>2023-08-28T16:04:56Z</time>
      </trkpt>
      <trkpt lat="56.82404201477766" lon="-5.089408960193396">
        <ele>-0.34</ele>
        <time>2023-08-28T16:05:02Z</time>
      </trkpt>
      <trkpt lat="56.824011001735926" lon="-5.08948003873229">
        <ele>-0.34</ele>
        <time>2023-08-28T16:05:03Z</time>
      </trkpt>
      <trkpt lat="56.823796005919576" lon="-5.09001798927784">
        <ele>-4.19</ele>
        <time>2023-08-28T16:05:11Z</time>
      </trkpt>
      <trkpt lat="56.823444971814752" lon="-5.090836985036731">
        <ele>-5.15</ele>
        <time>2023-08-28T16:05:22Z</time>
      </trkpt>
      <trkpt lat="56.823077006265521" lon="-5.091633014380932">
        <ele>-3.71</ele>
        <time>2023-08-28T16:05:31Z</time>
      </trkpt>
      <trkpt lat="56.82290400378406" lon="-5.092126037925482">
        <ele>-0.34</ele>
        <time>2023-08-28T16:05:37Z</time>
      </trkpt>
      <trkpt lat="56.822343003004789" lon="-5.092911003157497">
        <ele>4.46</ele>
        <time>2023-08-28T16:05:48Z</time>
      </trkpt>
      <trkpt lat="56.821938995271921" lon="-5.093561019748449">
        <ele>3.98</ele>
        <time>2023-08-28T16:05:57Z</time>
      </trkpt>
      <trkpt lat="56.821823995560408" lon="-5.093746008351445">
        <ele>3.02</ele>
        <time>2023-08-28T16:06:04Z</time>
      </trkpt>
      <trkpt lat="56.82180798612535" lon="-5.093770986422896">
        <ele>3.02</ele>
        <time>2023-08-28T16:06:05Z</time>
      </trkpt>
      <trkpt lat="56.821788959205151" lon="-5.093801999464631">
        <ele>2.54</ele>
        <time>2023-08-28T16:06:06Z</time>
      </trkpt>
      <trkpt lat="56.821460975334048" lon="-5.094266021624208">
        <ele>2.06</ele>
        <time>2023-08-28T16:06:21Z</time>
      </trkpt>
      <trkpt lat="56.821374977007508" lon="-5.094266021624208">
        <ele>2.06</ele>
        <time>2023-08-28T16:06:22Z</time>
      </trkpt>
      <trkpt lat="56.821417976170778" lon="-5.094395019114018">
        <ele>1.58</ele>
        <time>2023-08-28T16:06:23Z</time>
      </trkpt>
      <trkpt lat="56.821425016969442" lon="-5.094431983307004">
        <ele>1.58</ele>
        <time>2023-08-28T16:06:24Z</time>
      </trkpt>
      <trkpt lat="56.821435997262597" lon="-5.094499960541725">
        <ele>1.1</ele>
        <time>2023-08-28T16:06:25Z</time>
      </trkpt>
      <trkpt lat="56.821448989212513" lon="-5.094577996060252">
        <ele>1.1</ele>
        <time>2023-08-28T16:06:26Z</time>
      </trkpt>
      <trkpt lat="56.821464998647571" lon="-5.094667011871934">
        <ele>0.62</ele>
        <time>2023-08-28T16:06:27Z</time>
      </trkpt>
      <trkpt lat="56.821482013911009" lon="-5.094771031290293">
        <ele>0.62</ele>
        <time>2023-08-28T16:06:28Z</time>
      </trkpt>
      <trkpt lat="56.821500035002828" lon="-5.094878990203142">
        <ele>0.62</ele>
        <time>2023-08-28T16:06:29Z</time>
      </trkpt>
      <trkpt lat="56.821519983932376" lon="-5.094997007399797">
        <ele>0.14</ele>
        <time>2023-08-28T16:06:30Z</time>
      </trkpt>
      <trkpt lat="56.821748977527022" lon="-5.096498038619757">
        <ele>-1.3</ele>
        <time>2023-08-28T16:06:41Z</time>
      </trkpt>
      <trkpt lat="56.821782002225518" lon="-5.096782017499209">
        <ele>-0.82</ele>
        <time>2023-08-28T16:06:43Z</time>
      </trkpt>
      <trkpt lat="56.821772027760744" lon="-5.097075970843434">
        <ele>-0.82</ele>
        <time>2023-08-28T16:06:45Z</time>
      </trkpt>
      <trkpt lat="56.821765992790461" lon="-5.097225001081824">
        <ele>-0.82</ele>
        <time>2023-08-28T16:06:46Z</time>
      </trkpt>
      <trkpt lat="56.821755012497306" lon="-5.097378976643086">
        <ele>-0.82</ele>
        <time>2023-08-28T16:06:47Z</time>
      </trkpt>
      <trkpt lat="56.821716036647558" lon="-5.097519960254431">
        <ele>-0.82</ele>
        <time>2023-08-28T16:06:48Z</time>
      </trkpt>
      <trkpt lat="56.821676976978779" lon="-5.097659016028047">
        <ele>-0.82</ele>
        <time>2023-08-28T16:06:49Z</time>
      </trkpt>
      <trkpt lat="56.821636995300651" lon="-5.097802011296153">
        <ele>-0.82</ele>
        <time>2023-08-28T16:06:50Z</time>
      </trkpt>
      <trkpt lat="56.821180013939738" lon="-5.099513009190559">
        <ele>-3.71</ele>
        <time>2023-08-28T16:07:02Z</time>
      </trkpt>
      <trkpt lat="56.820676010102034" lon="-5.101324003189802">
        <ele>-0.82</ele>
        <time>2023-08-28T16:07:15Z</time>
      </trkpt>
      <trkpt lat="56.820148034021258" lon="-5.103184031322599">
        <ele>1.58</ele>
        <time>2023-08-28T16:07:28Z</time>
      </trkpt>
      <trkpt lat="56.819784007966518" lon="-5.104748010635376">
        <ele>0.14</ele>
        <time>2023-08-28T16:07:38Z</time>
      </trkpt>
      <trkpt lat="56.8197659868747" lon="-5.105061996728182">
        <ele>-0.34</ele>
        <time>2023-08-28T16:07:40Z</time>
      </trkpt>
      <trkpt lat="56.8197659868747" lon="-5.105224018916488">
        <ele>-0.82</ele>
        <time>2023-08-28T16:07:41Z</time>
      </trkpt>
      <trkpt lat="56.8197659868747" lon="-5.105387968942523">
        <ele>-0.82</ele>
        <time>2023-08-28T16:07:42Z</time>
      </trkpt>
      <trkpt lat="56.81978601962328" lon="-5.105561977252364">
        <ele>-0.82</ele>
        <time>2023-08-28T16:07:43Z</time>
      </trkpt>
      <trkpt lat="56.819806974381208" lon="-5.105726011097431">
        <ele>-0.82</ele>
        <time>2023-08-28T16:07:44Z</time>
      </trkpt>
      <trkpt lat="56.819877969101071" lon="-5.106053994968534">
        <ele>-0.82</ele>
        <time>2023-08-28T16:07:46Z</time>
      </trkpt>
      <trkpt lat="56.819962961599231" lon="-5.106382984668016">
        <ele>-1.79</ele>
        <time>2023-08-28T16:07:48Z</time>
      </trkpt>
      <trkpt lat="56.820022976025939" lon="-5.106522040441632">
        <ele>-1.79</ele>
        <time>2023-08-28T16:07:49Z</time>
      </trkpt>
      <trkpt lat="56.820083996281028" lon="-5.106663024052978">
        <ele>-2.27</ele>
        <time>2023-08-28T16:07:50Z</time>
      </trkpt>
      <trkpt lat="56.82041097432375" lon="-5.107448995113373">
        <ele>-2.75</ele>
        <time>2023-08-28T16:07:56Z</time>
      </trkpt>
      <trkpt lat="56.820420026779175" lon="-5.107574975118041">
        <ele>-2.75</ele>
        <time>2023-08-28T16:07:57Z</time>
      </trkpt>
      <trkpt lat="56.82043100707233" lon="-5.107719982042909">
        <ele>-3.23</ele>
        <time>2023-08-28T16:07:58Z</time>
      </trkpt>
      <trkpt lat="56.82043100707233" lon="-5.107849985361099">
        <ele>-3.23</ele>
        <time>2023-08-28T16:07:59Z</time>
      </trkpt>
      <trkpt lat="56.820417009294033" lon="-5.107989963144064">
        <ele>-3.23</ele>
        <time>2023-08-28T16:08:00Z</time>
      </trkpt>
      <trkpt lat="56.82038901373744" lon="-5.108256004750729">
        <ele>-3.23</ele>
        <time>2023-08-28T16:08:02Z</time>
      </trkpt>
      <trkpt lat="56.820350959897041" lon="-5.108406040817499">
        <ele>-3.71</ele>
        <time>2023-08-28T16:08:03Z</time>
      </trkpt>
      <trkpt lat="56.820316007360816" lon="-5.108545012772083">
        <ele>-3.71</ele>
        <time>2023-08-28T16:08:04Z</time>
      </trkpt>
      <trkpt lat="56.820277031511068" lon="-5.108695970848203">
        <ele>-3.71</ele>
        <time>2023-08-28T16:08:05Z</time>
      </trkpt>
      <trkpt lat="56.82021701708436" lon="-5.108834020793438">
        <ele>-3.71</ele>
        <time>2023-08-28T16:08:06Z</time>
      </trkpt>
      <trkpt lat="56.820154991000891" lon="-5.108976010233164">
        <ele>-3.71</ele>
        <time>2023-08-28T16:08:07Z</time>
      </trkpt>
      <trkpt lat="56.819201968610287" lon="-5.110682984814048">
        <ele>-4.67</ele>
        <time>2023-08-28T16:08:20Z</time>
      </trkpt>
      <trkpt lat="56.81800696067512" lon="-5.112399011850357">
        <ele>-3.71</ele>
        <time>2023-08-28T16:08:34Z</time>
      </trkpt>
      <trkpt lat="56.817013034597039" lon="-5.113865006715059">
        <ele>-1.3</ele>
        <time>2023-08-28T16:08:46Z</time>
      </trkpt>
      <trkpt lat="56.816262016072869" lon="-5.11526201851666">
        <ele>-4.67</ele>
        <time>2023-08-28T16:08:57Z</time>
      </trkpt>
      <trkpt lat="56.815624991431832" lon="-5.116216968744993">
        <ele>-4.67</ele>
        <time>2023-08-28T16:09:06Z</time>
      </trkpt>
      <trkpt lat="56.815559025853872" lon="-5.116245970129967">
        <ele>-4.67</ele>
        <time>2023-08-28T16:09:07Z</time>
      </trkpt>
      <trkpt lat="56.815516026690602" lon="-5.116263991221786">
        <ele>-4.67</ele>
        <time>2023-08-28T16:09:08Z</time>
      </trkpt>
      <trkpt lat="56.815472021698952" lon="-5.116281006485224">
        <ele>-4.67</ele>
        <time>2023-08-28T16:09:09Z</time>
      </trkpt>
      <trkpt lat="56.815389040857553" lon="-5.116259967908263">
        <ele>-4.67</ele>
        <time>2023-08-28T16:09:10Z</time>
      </trkpt>
      <trkpt lat="56.815368002280593" lon="-5.116218980401754">
        <ele>-4.67</ele>
        <time>2023-08-28T16:09:11Z</time>
      </trkpt>
      <trkpt lat="56.815360961481929" lon="-5.116094006225467">
        <ele>-4.67</ele>
        <time>2023-08-28T16:09:12Z</time>
      </trkpt>
      <trkpt lat="56.815358027815819" lon="-5.116028040647507">
        <ele>-4.67</ele>
        <time>2023-08-28T16:09:13Z</time>
      </trkpt>
      <trkpt lat="56.815354004502296" lon="-5.115957967936993">
        <ele>-4.67</ele>
        <time>2023-08-28T16:09:14Z</time>
      </trkpt>
      <trkpt lat="56.815374037250876" lon="-5.115763004869223">
        <ele>-4.67</ele>
        <time>2023-08-28T16:09:15Z</time>
      </trkpt>
      <trkpt lat="56.815418964251876" lon="-5.115685975179076">
        <ele>-5.15</ele>
        <time>2023-08-28T16:09:16Z</time>
      </trkpt>
      <trkpt lat="56.815806962549686" lon="-5.115021038800478">
        <ele>-6.11</ele>
        <time>2023-08-28T16:09:24Z</time>
      </trkpt>
      <trkpt lat="56.816087001934648" lon="-5.114527009427548">
        <ele>-4.67</ele>
        <time>2023-08-28T16:09:30Z</time>
      </trkpt>
      <trkpt lat="56.816247012466192" lon="-5.114243030548096">
        <ele>-3.23</ele>
        <time>2023-08-28T16:09:35Z</time>
      </trkpt>
      <trkpt lat="56.816327981650829" lon="-5.114243030548096">
        <ele>-3.23</ele>
        <time>2023-08-28T16:09:36Z</time>
      </trkpt>
      <trkpt lat="56.816376009956002" lon="-5.114243030548096">
        <ele>-3.23</ele>
        <time>2023-08-28T16:09:37Z</time>
      </trkpt>
      <trkpt lat="56.816427977755666" lon="-5.114246970042586">
        <ele>-3.23</ele>
        <time>2023-08-28T16:09:38Z</time>
      </trkpt>
      <trkpt lat="56.816482963040471" lon="-5.114251999184489">
        <ele>-3.23</ele>
        <time>2023-08-28T16:09:39Z</time>
      </trkpt>
      <trkpt lat="56.816537026315928" lon="-5.114257028326392">
        <ele>-3.23</ele>
        <time>2023-08-28T16:09:40Z</time>
      </trkpt>
      <trkpt lat="56.816593017429113" lon="-5.114260967820883">
        <ele>-3.23</ele>
        <time>2023-08-28T16:09:41Z</time>
      </trkpt>
      <trkpt lat="56.81667298078537" lon="-5.114216040819883">
        <ele>-3.23</ele>
        <time>2023-08-28T16:09:42Z</time>
      </trkpt>
      <trkpt lat="56.816731989383698" lon="-5.11414404027164">
        <ele>-2.75</ele>
        <time>2023-08-28T16:09:43Z</time>
      </trkpt>
      <trkpt lat="56.816794015467167" lon="-5.114068016409874">
        <ele>-2.75</ele>
        <time>2023-08-28T16:09:44Z</time>
      </trkpt>
      <trkpt lat="56.816855035722256" lon="-5.113971959799528">
        <ele>-2.75</ele>
        <time>2023-08-28T16:09:45Z</time>
      </trkpt>
      <trkpt lat="56.816903986036777" lon="-5.113873975351453">
        <ele>-2.75</ele>
        <time>2023-08-28T16:09:46Z</time>
      </trkpt>
      <trkpt lat="56.816955031827092" lon="-5.113770961761475">
        <ele>-2.75</ele>
        <time>2023-08-28T16:09:47Z</time>
      </trkpt>
      <trkpt lat="56.817408995702863" lon="-5.112874014303088">
        <ele>-2.75</ele>
        <time>2023-08-28T16:09:57Z</time>
      </trkpt>
      <trkpt lat="56.817478984594345" lon="-5.112736970186234">
        <ele>-2.27</ele>
        <time>2023-08-28T16:10:01Z</time>
      </trkpt>
      <trkpt lat="56.817478984594345" lon="-5.112736970186234">
        <ele>-2.27</ele>
        <time>2023-08-28T16:10:08Z</time>
      </trkpt>
      <trkpt lat="56.817518966272473" lon="-5.112658012658358">
        <ele>-2.27</ele>
        <time>2023-08-28T16:10:09Z</time>
      </trkpt>
      <trkpt lat="56.817695992067456" lon="-5.112330028787255">
        <ele>-3.71</ele>
        <time>2023-08-28T16:10:17Z</time>
      </trkpt>
      <trkpt lat="56.817734967917204" lon="-5.112332962453365">
        <ele>-4.19</ele>
        <time>2023-08-28T16:10:18Z</time>
      </trkpt>
      <trkpt lat="56.81779196485877" lon="-5.112375961616635">
        <ele>-4.67</ele>
        <time>2023-08-28T16:10:19Z</time>
      </trkpt>
      <trkpt lat="56.818123972043395" lon="-5.112090976908803">
        <ele>-6.59</ele>
        <time>2023-08-28T16:10:31Z</time>
      </trkpt>
      <trkpt lat="56.818233020603657" lon="-5.111950999125838">
        <ele>-7.55</ele>
        <time>2023-08-28T16:10:44Z</time>
      </trkpt>
      <trkpt lat="56.818514987826347" lon="-5.111590996384621">
        <ele>-11.4</ele>
        <time>2023-08-28T16:10:53Z</time>
      </trkpt>
      <trkpt lat="56.818569973111153" lon="-5.111485971137881">
        <ele>-11.880000000000001</ele>
        <time>2023-08-28T16:10:55Z</time>
      </trkpt>
      <trkpt lat="56.81860601529479" lon="-5.111414976418018">
        <ele>-12.359999999999999</ele>
        <time>2023-08-28T16:10:56Z</time>
      </trkpt>
      <trkpt lat="56.818825034424663" lon="-5.110950032249093">
        <ele>-16.210000000000001</ele>
        <time>2023-08-28T16:11:06Z</time>
      </trkpt>
      <trkpt lat="56.818966018036008" lon="-5.110529009252787">
        <ele>-17.170000000000002</ele>
        <time>2023-08-28T16:11:14Z</time>
      </trkpt>
      <trkpt lat="56.818976998329163" lon="-5.110439993441105">
        <ele>-16.690000000000001</ele>
        <time>2023-08-28T16:11:16Z</time>
      </trkpt>
      <trkpt lat="56.818980015814304" lon="-5.11040797457099">
        <ele>-16.210000000000001</ele>
        <time>2023-08-28T16:11:17Z</time>
      </trkpt>
      <trkpt lat="56.818980015814304" lon="-5.11040797457099">
        <ele>-13.800000000000001</ele>
        <time>2023-08-28T16:11:27Z</time>
      </trkpt>
      <trkpt lat="56.818994013592601" lon="-5.110294986516237">
        <ele>-12.84</ele>
        <time>2023-08-28T16:11:38Z</time>
      </trkpt>
      <trkpt lat="56.818855963647366" lon="-5.110333962365985">
        <ele>-12.359999999999999</ele>
        <time>2023-08-28T16:11:42Z</time>
      </trkpt>
      <trkpt lat="56.818805001676083" lon="-5.110347038134933">
        <ele>-12.359999999999999</ele>
        <time>2023-08-28T16:11:43Z</time>
      </trkpt>
      <trkpt lat="56.818751022219658" lon="-5.110371010378003">
        <ele>-12.359999999999999</ele>
        <time>2023-08-28T16:11:44Z</time>
      </trkpt>
      <trkpt lat="56.818710034713149" lon="-5.110443010926247">
        <ele>-12.359999999999999</ele>
        <time>2023-08-28T16:11:45Z</time>
      </trkpt>
      <trkpt lat="56.818668963387609" lon="-5.11051501147449">
        <ele>-12.359999999999999</ele>
        <time>2023-08-28T16:11:46Z</time>
      </trkpt>
      <trkpt lat="56.818625964224339" lon="-5.110591035336256">
        <ele>-12.359999999999999</ele>
        <time>2023-08-28T16:11:47Z</time>
      </trkpt>
      <trkpt lat="56.818578019738197" lon="-5.110674016177654">
        <ele>-11.880000000000001</ele>
        <time>2023-08-28T16:11:48Z</time>
      </trkpt>
      <trkpt lat="56.818070998415351" lon="-5.111594013869762">
        <ele>-11.880000000000001</ele>
        <time>2023-08-28T16:11:58Z</time>
      </trkpt>
      <trkpt lat="56.817694986239076" lon="-5.112331034615636">
        <ele>-10.92</ele>
        <time>2023-08-28T16:12:07Z</time>
      </trkpt>
      <trkpt lat="56.81765902787447" lon="-5.112389959394932">
        <ele>-10.44</ele>
        <time>2023-08-28T16:12:08Z</time>
      </trkpt>
      <trkpt lat="56.817549979314208" lon="-5.112597998231649">
        <ele>-9.960000000000001</ele>
        <time>2023-08-28T16:12:11Z</time>
      </trkpt>
      <trkpt lat="56.817033989354968" lon="-5.113612962886691">
        <ele>-8.029999999999999</ele>
        <time>2023-08-28T16:12:23Z</time>
      </trkpt>
      <trkpt lat="56.816872972995043" lon="-5.113936001434922">
        <ele>-8.029999999999999</ele>
        <time>2023-08-28T16:12:27Z</time>
      </trkpt>
      <trkpt lat="56.816827040165663" lon="-5.114029040560126">
        <ele>-8.029999999999999</ele>
        <time>2023-08-28T16:12:28Z</time>
      </trkpt>
      <trkpt lat="56.81677901186049" lon="-5.114086959511042">
        <ele>-8.029999999999999</ele>
        <time>2023-08-28T16:12:29Z</time>
      </trkpt>
      <trkpt lat="56.816728971898556" lon="-5.11414697393775">
        <ele>-8.029999999999999</ele>
        <time>2023-08-28T16:12:30Z</time>
      </trkpt>
      <trkpt lat="56.816632999107242" lon="-5.114264991134405">
        <ele>-8.029999999999999</ele>
        <time>2023-08-28T16:12:31Z</time>
      </trkpt>
      <trkpt lat="56.81658798828721" lon="-5.114260967820883">
        <ele>-7.55</ele>
        <time>2023-08-28T16:12:32Z</time>
      </trkpt>
      <trkpt lat="56.816533003002405" lon="-5.114256022498012">
        <ele>-7.07</ele>
        <time>2023-08-28T16:12:33Z</time>
      </trkpt>
      <trkpt lat="56.816421020776033" lon="-5.114246970042586">
        <ele>-6.59</ele>
        <time>2023-08-28T16:12:35Z</time>
      </trkpt>
      <trkpt lat="56.816368969157338" lon="-5.114243030548096">
        <ele>-6.59</ele>
        <time>2023-08-28T16:12:36Z</time>
      </trkpt>
      <trkpt lat="56.816324964165688" lon="-5.114243030548096">
        <ele>-6.11</ele>
        <time>2023-08-28T16:12:37Z</time>
      </trkpt>
      <trkpt lat="56.816247012466192" lon="-5.114243030548096">
        <ele>-6.11</ele>
        <time>2023-08-28T16:12:38Z</time>
      </trkpt>
      <trkpt lat="56.816247012466192" lon="-5.114243030548096">
        <ele>-5.63</ele>
        <time>2023-08-28T16:12:39Z</time>
      </trkpt>
      <trkpt lat="56.816237960010767" lon="-5.114259039983153">
        <ele>-5.63</ele>
        <time>2023-08-28T16:12:40Z</time>
      </trkpt>
      <trkpt lat="56.816225973889232" lon="-5.114279994741082">
        <ele>-5.63</ele>
        <time>2023-08-28T16:12:41Z</time>
      </trkpt>
      <trkpt lat="56.816214993596077" lon="-5.114299021661282">
        <ele>-5.15</ele>
        <time>2023-08-28T16:12:42Z</time>
      </trkpt>
      <trkpt lat="56.816214993596077" lon="-5.114299021661282">
        <ele>-5.15</ele>
        <time>2023-08-28T16:12:43Z</time>
      </trkpt>
      <trkpt lat="56.816214993596077" lon="-5.114299021661282">
        <ele>-4.67</ele>
        <time>2023-08-28T16:13:01Z</time>
      </trkpt>
      <trkpt lat="56.816192027181387" lon="-5.114341014996171">
        <ele>-4.67</ele>
        <time>2023-08-28T16:13:23Z</time>
      </trkpt>
      <trkpt lat="56.816180963069201" lon="-5.114360963925719">
        <ele>-3.23</ele>
        <time>2023-08-28T16:13:24Z</time>
      </trkpt>
      <trkpt lat="56.816180963069201" lon="-5.114360963925719">
        <ele>-2.75</ele>
        <time>2023-08-28T16:13:36Z</time>
      </trkpt>
      <trkpt lat="56.816180963069201" lon="-5.114360963925719">
        <ele>-5.15</ele>
        <time>2023-08-28T16:13:51Z</time>
      </trkpt>
      <trkpt lat="56.816313983872533" lon="-5.114540001377463">
        <ele>-19.57</ele>
        <time>2023-08-28T17:26:46Z</time>
      </trkpt>
      <trkpt lat="56.816214993596077" lon="-5.114401029422879">
        <ele>14.08</ele>
        <time>2023-08-28T17:27:34Z</time>
      </trkpt>
      <trkpt lat="56.816191021353006" lon="-5.114289969205856">
        <ele>28.02</ele>
        <time>2023-08-28T17:28:31Z</time>
      </trkpt>
      <trkpt lat="56.816192027181387" lon="-5.11429701000452">
        <ele>28.5</ele>
        <time>2023-08-28T17:29:15Z</time>
      </trkpt>
      <trkpt lat="56.816192027181387" lon="-5.11429701000452">
        <ele>28.5</ele>
        <time>2023-08-28T17:29:22Z</time>
      </trkpt>
      <trkpt lat="56.81617702357471" lon="-5.114366998896003">
        <ele>28.5</ele>
        <time>2023-08-28T17:29:24Z</time>
      </trkpt>
      <trkpt lat="56.816147016361356" lon="-5.114419972524047">
        <ele>28.5</ele>
        <time>2023-08-28T17:29:25Z</time>
      </trkpt>
      <trkpt lat="56.815809980034828" lon="-5.115017015486956">
        <ele>26.57</ele>
        <time>2023-08-28T17:29:32Z</time>
      </trkpt>
      <trkpt lat="56.815751977264881" lon="-5.115119023248553">
        <ele>26.09</ele>
        <time>2023-08-28T17:29:33Z</time>
      </trkpt>
      <trkpt lat="56.815313016995788" lon="-5.11590700596571">
        <ele>17.440000000000001</ele>
        <time>2023-08-28T17:29:42Z</time>
      </trkpt>
      <trkpt lat="56.815239004790783" lon="-5.116130970418453">
        <ele>16</ele>
        <time>2023-08-28T17:29:44Z</time>
      </trkpt>
      <trkpt lat="56.815216960385442" lon="-5.116156032308936">
        <ele>15.039999999999999</ele>
        <time>2023-08-28T17:29:45Z</time>
      </trkpt>
      <trkpt lat="56.815172033384442" lon="-5.116206994280219">
        <ele>14.56</ele>
        <time>2023-08-28T17:29:46Z</time>
      </trkpt>
      <trkpt lat="56.815129034221172" lon="-5.116257034242153">
        <ele>14.08</ele>
        <time>2023-08-28T17:29:47Z</time>
      </trkpt>
      <trkpt lat="56.815087962895632" lon="-5.116302967071533">
        <ele>13.119999999999999</ele>
        <time>2023-08-28T17:29:48Z</time>
      </trkpt>
      <trkpt lat="56.815007999539375" lon="-5.116234989836812">
        <ele>12.630000000000001</ele>
        <time>2023-08-28T17:29:49Z</time>
      </trkpt>
      <trkpt lat="56.814948990941048" lon="-5.116184027865529">
        <ele>12.15</ele>
        <time>2023-08-28T17:29:50Z</time>
      </trkpt>
      <trkpt lat="56.814880007877946" lon="-5.116126025095582">
        <ele>11.67</ele>
        <time>2023-08-28T17:29:51Z</time>
      </trkpt>
      <trkpt lat="56.814802978187799" lon="-5.116060981526971">
        <ele>11.67</ele>
        <time>2023-08-28T17:29:52Z</time>
      </trkpt>
      <trkpt lat="56.814721003174782" lon="-5.115990992635489">
        <ele>11.67</ele>
        <time>2023-08-28T17:29:53Z</time>
      </trkpt>
      <trkpt lat="56.814658977091312" lon="-5.115938019007444">
        <ele>11.67</ele>
        <time>2023-08-28T17:29:54Z</time>
      </trkpt>
      <trkpt lat="56.814572978764772" lon="-5.115910023450851">
        <ele>12.15</ele>
        <time>2023-08-28T17:29:55Z</time>
      </trkpt>
      <trkpt lat="56.814530985429883" lon="-5.115895019844174">
        <ele>12.630000000000001</ele>
        <time>2023-08-28T17:29:56Z</time>
      </trkpt>
      <trkpt lat="56.814436018466949" lon="-5.115945981815457">
        <ele>13.119999999999999</ele>
        <time>2023-08-28T17:29:57Z</time>
      </trkpt>
      <trkpt lat="56.814436018466949" lon="-5.115945981815457">
        <ele>13.6</ele>
        <time>2023-08-28T17:29:58Z</time>
      </trkpt>
      <trkpt lat="56.814261004328728" lon="-5.116038015112281">
        <ele>14.56</ele>
        <time>2023-08-28T17:29:59Z</time>
      </trkpt>
      <trkpt lat="56.81331804022193" lon="-5.116640003398061">
        <ele>25.609999999999999</ele>
        <time>2023-08-28T17:30:08Z</time>
      </trkpt>
      <trkpt lat="56.812455961480737" lon="-5.117109976708889">
        <ele>35.710000000000001</ele>
        <time>2023-08-28T17:30:17Z</time>
      </trkpt>
      <trkpt lat="56.811617016792297" lon="-5.117596965283155">
        <ele>42.439999999999998</ele>
        <time>2023-08-28T17:30:29Z</time>
      </trkpt>
      <trkpt lat="56.810757033526897" lon="-5.11797096580267">
        <ele>48.200000000000003</ele>
        <time>2023-08-28T17:30:41Z</time>
      </trkpt>
      <trkpt lat="56.810638010501862" lon="-5.118023017421365">
        <ele>49.159999999999997</ele>
        <time>2023-08-28T17:30:43Z</time>
      </trkpt>
      <trkpt lat="56.810588976368308" lon="-5.118043972179294">
        <ele>49.649999999999999</ele>
        <time>2023-08-28T17:30:44Z</time>
      </trkpt>
      <trkpt lat="56.810497026890516" lon="-5.117931989952922">
        <ele>49.649999999999999</ele>
        <time>2023-08-28T17:30:45Z</time>
      </trkpt>
      <trkpt lat="56.810497026890516" lon="-5.117846997454763">
        <ele>50.130000000000003</ele>
        <time>2023-08-28T17:30:46Z</time>
      </trkpt>
      <trkpt lat="56.810497026890516" lon="-5.117743983864784">
        <ele>50.609999999999999</ele>
        <time>2023-08-28T17:30:47Z</time>
      </trkpt>
      <trkpt lat="56.810497026890516" lon="-5.117637030780315">
        <ele>51.57</ele>
        <time>2023-08-28T17:30:48Z</time>
      </trkpt>
      <trkpt lat="56.810497026890516" lon="-5.117529993876815">
        <ele>51.57</ele>
        <time>2023-08-28T17:30:49Z</time>
      </trkpt>
      <trkpt lat="56.810499038547277" lon="-5.11743200942874">
        <ele>52.530000000000001</ele>
        <time>2023-08-28T17:30:50Z</time>
      </trkpt>
      <trkpt lat="56.810532985255122" lon="-5.117331007495523">
        <ele>53.009999999999998</ele>
        <time>2023-08-28T17:30:51Z</time>
      </trkpt>
      <trkpt lat="56.810582019388676" lon="-5.117182983085513">
        <ele>53.490000000000002</ele>
        <time>2023-08-28T17:30:52Z</time>
      </trkpt>
      <trkpt lat="56.81061303243041" lon="-5.117121040821075">
        <ele>53.969999999999999</ele>
        <time>2023-08-28T17:30:53Z</time>
      </trkpt>
      <trkpt lat="56.811114018782973" lon="-5.116053018718958">
        <ele>62.619999999999997</ele>
        <time>2023-08-28T17:31:04Z</time>
      </trkpt>
      <trkpt lat="56.811161963269114" lon="-5.115938019007444">
        <ele>63.579999999999998</ele>
        <time>2023-08-28T17:31:05Z</time>
      </trkpt>
      <trkpt lat="56.811164980754256" lon="-5.115928966552019">
        <ele>64.069999999999993</ele>
        <time>2023-08-28T17:31:06Z</time>
      </trkpt>
      <trkpt lat="56.811089962720871" lon="-5.115884961560369">
        <ele>65.030000000000001</ele>
        <time>2023-08-28T17:31:07Z</time>
      </trkpt>
      <trkpt lat="56.811044029891491" lon="-5.115850009024143">
        <ele>65.510000000000005</ele>
        <time>2023-08-28T17:31:08Z</time>
      </trkpt>
      <trkpt lat="56.810989966616035" lon="-5.115810027346015">
        <ele>65.989999999999995</ele>
        <time>2023-08-28T17:31:09Z</time>
      </trkpt>
      <trkpt lat="56.810953002423048" lon="-5.11582201346755">
        <ele>66.950000000000003</ele>
        <time>2023-08-28T17:31:10Z</time>
      </trkpt>
      <trkpt lat="56.810887036845088" lon="-5.11584397405386">
        <ele>67.430000000000007</ele>
        <time>2023-08-28T17:31:11Z</time>
      </trkpt>
      <trkpt lat="56.8099279794842" lon="-5.116162989288569">
        <ele>74.159999999999997</ele>
        <time>2023-08-28T17:31:23Z</time>
      </trkpt>
      <trkpt lat="56.809521960094571" lon="-5.116288969293237">
        <ele>77.040000000000006</ele>
        <time>2023-08-28T17:31:31Z</time>
      </trkpt>
      <trkpt lat="56.809469992294908" lon="-5.116301961243153">
        <ele>77.519999999999996</ele>
        <time>2023-08-28T17:31:32Z</time>
      </trkpt>
      <trkpt lat="56.809409977868199" lon="-5.11631696484983">
        <ele>78</ele>
        <time>2023-08-28T17:31:33Z</time>
      </trkpt>
      <trkpt lat="56.809360021725297" lon="-5.116303972899914">
        <ele>78</ele>
        <time>2023-08-28T17:31:34Z</time>
      </trkpt>
      <trkpt lat="56.809337977319956" lon="-5.116282012313604">
        <ele>78.480000000000004</ele>
        <time>2023-08-28T17:31:35Z</time>
      </trkpt>
      <trkpt lat="56.809295983985066" lon="-5.116162989288569">
        <ele>78.969999999999999</ele>
        <time>2023-08-28T17:31:36Z</time>
      </trkpt>
      <trkpt lat="56.809262959286571" lon="-5.116067016497254">
        <ele>78.969999999999999</ele>
        <time>2023-08-28T17:31:37Z</time>
      </trkpt>
      <trkpt lat="56.809223983436823" lon="-5.115956962108612">
        <ele>79.450000000000003</ele>
        <time>2023-08-28T17:31:38Z</time>
      </trkpt>
      <trkpt lat="56.809182995930314" lon="-5.11584104038775">
        <ele>79.930000000000007</ele>
        <time>2023-08-28T17:31:39Z</time>
      </trkpt>
      <trkpt lat="56.809143014252186" lon="-5.115727968513966">
        <ele>80.409999999999997</ele>
        <time>2023-08-28T17:31:40Z</time>
      </trkpt>
      <trkpt lat="56.809104960411787" lon="-5.115620009601116">
        <ele>81.370000000000005</ele>
        <time>2023-08-28T17:31:41Z</time>
      </trkpt>
      <trkpt lat="56.809067996218801" lon="-5.115513978525996">
        <ele>82.810000000000002</ele>
        <time>2023-08-28T17:31:42Z</time>
      </trkpt>
      <trkpt lat="56.809045029804111" lon="-5.115399984642863">
        <ele>83.769999999999996</ele>
        <time>2023-08-28T17:31:43Z</time>
      </trkpt>
      <trkpt lat="56.809024997055531" lon="-5.115271992981434">
        <ele>84.730000000000004</ele>
        <time>2023-08-28T17:31:44Z</time>
      </trkpt>
      <trkpt lat="56.809004964306951" lon="-5.115149030461907">
        <ele>86.180000000000007</ele>
        <time>2023-08-28T17:31:45Z</time>
      </trkpt>
      <trkpt lat="56.809013010933995" lon="-5.115016009658575">
        <ele>87.140000000000001</ele>
        <time>2023-08-28T17:31:46Z</time>
      </trkpt>
      <trkpt lat="56.809047963470221" lon="-5.114891035482287">
        <ele>88.099999999999994</ele>
        <time>2023-08-28T17:31:47Z</time>
      </trkpt>
      <trkpt lat="56.809085011482239" lon="-5.114758014678955">
        <ele>89.060000000000002</ele>
        <time>2023-08-28T17:31:48Z</time>
      </trkpt>
      <trkpt lat="56.809123987331986" lon="-5.114621976390481">
        <ele>90.019999999999996</ele>
        <time>2023-08-28T17:31:49Z</time>
      </trkpt>
      <trkpt lat="56.809162041172385" lon="-5.114487027749419">
        <ele>90.980000000000004</ele>
        <time>2023-08-28T17:31:50Z</time>
      </trkpt>
      <trkpt lat="56.809231024235487" lon="-5.114243030548096">
        <ele>92.900000000000006</ele>
        <time>2023-08-28T17:31:52Z</time>
      </trkpt>
      <trkpt lat="56.809251978993416" lon="-5.114074973389506">
        <ele>93.870000000000005</ele>
        <time>2023-08-28T17:31:53Z</time>
      </trkpt>
      <trkpt lat="56.809270000085235" lon="-5.113927032798529">
        <ele>94.829999999999998</ele>
        <time>2023-08-28T17:31:54Z</time>
      </trkpt>
      <trkpt lat="56.809290032833815" lon="-5.113771967589855">
        <ele>95.790000000000006</ele>
        <time>2023-08-28T17:31:55Z</time>
      </trkpt>
      <trkpt lat="56.809310987591743" lon="-5.113615980371833">
        <ele>96.75</ele>
        <time>2023-08-28T17:31:56Z</time>
      </trkpt>
      <trkpt lat="56.809505028650165" lon="-5.111405001953244">
        <ele>110.20999999999999</ele>
        <time>2023-08-28T17:32:11Z</time>
      </trkpt>
      <trkpt lat="56.809524977579713" lon="-5.111129991710186">
        <ele>111.17</ele>
        <time>2023-08-28T17:32:13Z</time>
      </trkpt>
      <trkpt lat="56.809521038085222" lon="-5.110989008098841">
        <ele>111.65000000000001</ele>
        <time>2023-08-28T17:32:14Z</time>
      </trkpt>
      <trkpt lat="56.809498993679881" lon="-5.110852969810367">
        <ele>111.65000000000001</ele>
        <time>2023-08-28T17:32:15Z</time>
      </trkpt>
      <trkpt lat="56.809448031708598" lon="-5.110741993412376">
        <ele>112.13</ele>
        <time>2023-08-28T17:32:16Z</time>
      </trkpt>
      <trkpt lat="56.80938801728189" lon="-5.110672004520893">
        <ele>112.13</ele>
        <time>2023-08-28T17:32:17Z</time>
      </trkpt>
      <trkpt lat="56.809317022562027" lon="-5.110641997307539">
        <ele>112.13</ele>
        <time>2023-08-28T17:32:18Z</time>
      </trkpt>
      <trkpt lat="56.809237981215119" lon="-5.110648032277823">
        <ele>112.13</ele>
        <time>2023-08-28T17:32:19Z</time>
      </trkpt>
      <trkpt lat="56.809078976511955" lon="-5.110675022006035">
        <ele>112.61</ele>
        <time>2023-08-28T17:32:21Z</time>
      </trkpt>
      <trkpt lat="56.808998007327318" lon="-5.110732018947601">
        <ele>112.61</ele>
        <time>2023-08-28T17:32:22Z</time>
      </trkpt>
      <trkpt lat="56.807985976338387" lon="-5.111431991681457">
        <ele>117.90000000000001</ele>
        <time>2023-08-28T17:32:36Z</time>
      </trkpt>
      <trkpt lat="56.807925039902329" lon="-5.111475996673107">
        <ele>117.90000000000001</ele>
        <time>2023-08-28T17:32:37Z</time>
      </trkpt>
      <trkpt lat="56.807793024927378" lon="-5.111570963636041">
        <ele>118.38</ele>
        <time>2023-08-28T17:32:39Z</time>
      </trkpt>
      <trkpt lat="56.807267982512712" lon="-5.111988969147205">
        <ele>119.34</ele>
        <time>2023-08-28T17:32:48Z</time>
      </trkpt>
      <trkpt lat="56.807237975299358" lon="-5.112046971917152">
        <ele>119.34</ele>
        <time>2023-08-28T17:32:49Z</time>
      </trkpt>
      <trkpt lat="56.807209979742765" lon="-5.112103968858719">
        <ele>119.34</ele>
        <time>2023-08-28T17:32:50Z</time>
      </trkpt>
      <trkpt lat="56.807181984186172" lon="-5.112160965800285">
        <ele>118.86</ele>
        <time>2023-08-28T17:32:51Z</time>
      </trkpt>
      <trkpt lat="56.80715499445796" lon="-5.112214023247361">
        <ele>118.86</ele>
        <time>2023-08-28T17:32:52Z</time>
      </trkpt>
      <trkpt lat="56.807133033871651" lon="-5.112259034067392">
        <ele>118.86</ele>
        <time>2023-08-28T17:32:53Z</time>
      </trkpt>
      <trkpt lat="56.807115012779832" lon="-5.112293986603618">
        <ele>118.86</ele>
        <time>2023-08-28T17:32:54Z</time>
      </trkpt>
      <trkpt lat="56.807085005566478" lon="-5.112355006858707">
        <ele>118.86</ele>
        <time>2023-08-28T17:32:55Z</time>
      </trkpt>
      <trkpt lat="56.807113001123071" lon="-5.112393982708454">
        <ele>118.86</ele>
        <time>2023-08-28T17:32:56Z</time>
      </trkpt>
      <trkpt lat="56.807142002508044" lon="-5.112435976043344">
        <ele>118.86</ele>
        <time>2023-08-28T17:32:57Z</time>
      </trkpt>
      <trkpt lat="56.80717502720654" lon="-5.112481992691755">
        <ele>118.86</ele>
        <time>2023-08-28T17:32:58Z</time>
      </trkpt>
      <trkpt lat="56.807205034419894" lon="-5.112524991855025">
        <ele>118.86</ele>
        <time>2023-08-28T17:32:59Z</time>
      </trkpt>
      <trkpt lat="56.807353980839252" lon="-5.112788015976548">
        <ele>118.86</ele>
        <time>2023-08-28T17:33:10Z</time>
      </trkpt>
    </trkseg>
  </trk>

</gpx>